<?xml version="1.0" encoding="UTF-8"?>
<gpx version="1.1" creator="https://www.youtrack.es" xsi:schemaLocation="http://www.topografix.com/GPX/1/1 http://www.topografix.com/GPX/1/1/gpx.xsd http://www.garmin.com/xmlschemas/GpxExtensions/v3 http://www.garmin.com/xmlschemas/GpxExtensionsv3.xsd http://www.garmin.com/xmlschemas/TrackPointExtension/v1 http://www.garmin.com/xmlschemas/TrackPointExtensionv1.xsd" xmlns:gpxtpx="http://www.garmin.com/xmlschemas/TrackPointExtension/v1" xmlns:gpxx="http://www.garmin.com/xmlschemas/GpxExtensions/v3" xmlns:xsi="http://www.w3.org/2001/XMLSchema-instance">
  <metadata>
    <link href="https://www.youtrack.es">
      <text>YouTrack.es</text>
    </link>
    <time>2026-05-08T00:20:37Z</time>
  </metadata>
  <trk>
    <src>https://www.youtrack.es</src>
    <link href="https://www.youtrack.es/ruta/11262-x-trofeo-formentera">
      <text>YouTrack.es</text>
    </link>
    <trkseg>
      <trkpt lat="38.7342050" lon="1.4146420">
        <ele>-5.9</ele>
        <time>2020-02-22T11:50:53Z</time>
      </trkpt>
      <trkpt lat="38.7342050" lon="1.4146420">
        <ele>-5.9</ele>
        <time>2020-02-22T11:50:54Z</time>
      </trkpt>
      <trkpt lat="38.7341450" lon="1.4146020">
        <ele>-5.9</ele>
        <time>2020-02-22T11:50:55Z</time>
      </trkpt>
      <trkpt lat="38.7341450" lon="1.4146020">
        <ele>-5.9</ele>
        <time>2020-02-22T11:50:56Z</time>
      </trkpt>
      <trkpt lat="38.7340850" lon="1.4145580">
        <ele>-5.9</ele>
        <time>2020-02-22T11:50:57Z</time>
      </trkpt>
      <trkpt lat="38.7340550" lon="1.4145380">
        <ele>-5.9</ele>
        <time>2020-02-22T11:50:58Z</time>
      </trkpt>
      <trkpt lat="38.7340550" lon="1.4145380">
        <ele>-5.9</ele>
        <time>2020-02-22T11:50:59Z</time>
      </trkpt>
      <trkpt lat="38.7339950" lon="1.4145030">
        <ele>-5.9</ele>
        <time>2020-02-22T11:51:00Z</time>
      </trkpt>
      <trkpt lat="38.7339670" lon="1.4144830">
        <ele>-5.9</ele>
        <time>2020-02-22T11:51:01Z</time>
      </trkpt>
      <trkpt lat="38.7339670" lon="1.4144830">
        <ele>-5.9</ele>
        <time>2020-02-22T11:51:02Z</time>
      </trkpt>
      <trkpt lat="38.7339080" lon="1.4144430">
        <ele>-5.9</ele>
        <time>2020-02-22T11:51:03Z</time>
      </trkpt>
      <trkpt lat="38.7339080" lon="1.4144430">
        <ele>-5.9</ele>
        <time>2020-02-22T11:51:04Z</time>
      </trkpt>
      <trkpt lat="38.7338450" lon="1.4144020">
        <ele>-5.9</ele>
        <time>2020-02-22T11:51:05Z</time>
      </trkpt>
      <trkpt lat="38.7338450" lon="1.4144020">
        <ele>-5.9</ele>
        <time>2020-02-22T11:51:06Z</time>
      </trkpt>
      <trkpt lat="38.7337820" lon="1.4143570">
        <ele>-5.9</ele>
        <time>2020-02-22T11:51:07Z</time>
      </trkpt>
      <trkpt lat="38.7337820" lon="1.4143570">
        <ele>-5.9</ele>
        <time>2020-02-22T11:51:08Z</time>
      </trkpt>
      <trkpt lat="38.7337130" lon="1.4143070">
        <ele>-5.9</ele>
        <time>2020-02-22T11:51:09Z</time>
      </trkpt>
      <trkpt lat="38.7336750" lon="1.4142800">
        <ele>-5.9</ele>
        <time>2020-02-22T11:51:10Z</time>
      </trkpt>
      <trkpt lat="38.7336750" lon="1.4142800">
        <ele>-5.9</ele>
        <time>2020-02-22T11:51:11Z</time>
      </trkpt>
      <trkpt lat="38.7336050" lon="1.4142270">
        <ele>-5.9</ele>
        <time>2020-02-22T11:51:12Z</time>
      </trkpt>
      <trkpt lat="38.7335670" lon="1.4142030">
        <ele>-5.9</ele>
        <time>2020-02-22T11:51:13Z</time>
      </trkpt>
      <trkpt lat="38.7335670" lon="1.4142030">
        <ele>-5.9</ele>
        <time>2020-02-22T11:51:14Z</time>
      </trkpt>
      <trkpt lat="38.7334870" lon="1.4141670">
        <ele>-5.9</ele>
        <time>2020-02-22T11:51:15Z</time>
      </trkpt>
      <trkpt lat="38.7334870" lon="1.4141670">
        <ele>-5.9</ele>
        <time>2020-02-22T11:51:16Z</time>
      </trkpt>
      <trkpt lat="38.7334000" lon="1.4141480">
        <ele>-5.9</ele>
        <time>2020-02-22T11:51:17Z</time>
      </trkpt>
      <trkpt lat="38.7333550" lon="1.4141470">
        <ele>-5.9</ele>
        <time>2020-02-22T11:51:18Z</time>
      </trkpt>
      <trkpt lat="38.7333550" lon="1.4141470">
        <ele>-5.9</ele>
        <time>2020-02-22T11:51:19Z</time>
      </trkpt>
      <trkpt lat="38.7332650" lon="1.4141600">
        <ele>-5.9</ele>
        <time>2020-02-22T11:51:20Z</time>
      </trkpt>
      <trkpt lat="38.7332220" lon="1.4141730">
        <ele>-5.9</ele>
        <time>2020-02-22T11:51:21Z</time>
      </trkpt>
      <trkpt lat="38.7332220" lon="1.4141730">
        <ele>-5.9</ele>
        <time>2020-02-22T11:51:22Z</time>
      </trkpt>
      <trkpt lat="38.7331380" lon="1.4142170">
        <ele>-5.9</ele>
        <time>2020-02-22T11:51:23Z</time>
      </trkpt>
      <trkpt lat="38.7331380" lon="1.4142170">
        <ele>-5.9</ele>
        <time>2020-02-22T11:51:24Z</time>
      </trkpt>
      <trkpt lat="38.7330620" lon="1.4142780">
        <ele>-5.9</ele>
        <time>2020-02-22T11:51:25Z</time>
      </trkpt>
      <trkpt lat="38.7330620" lon="1.4142780">
        <ele>-5.9</ele>
        <time>2020-02-22T11:51:26Z</time>
      </trkpt>
      <trkpt lat="38.7329900" lon="1.4143420">
        <ele>-5.9</ele>
        <time>2020-02-22T11:51:27Z</time>
      </trkpt>
      <trkpt lat="38.7329900" lon="1.4143420">
        <ele>-5.9</ele>
        <time>2020-02-22T11:51:28Z</time>
      </trkpt>
      <trkpt lat="38.7329130" lon="1.4144050">
        <ele>-5.9</ele>
        <time>2020-02-22T11:51:29Z</time>
      </trkpt>
      <trkpt lat="38.7329130" lon="1.4144050">
        <ele>-5.9</ele>
        <time>2020-02-22T11:51:30Z</time>
      </trkpt>
      <trkpt lat="38.7328380" lon="1.4144730">
        <ele>-5.9</ele>
        <time>2020-02-22T11:51:31Z</time>
      </trkpt>
      <trkpt lat="38.7328380" lon="1.4144730">
        <ele>-5.9</ele>
        <time>2020-02-22T11:51:32Z</time>
      </trkpt>
      <trkpt lat="38.7327670" lon="1.4145480">
        <ele>-5.9</ele>
        <time>2020-02-22T11:51:33Z</time>
      </trkpt>
      <trkpt lat="38.7327330" lon="1.4145850">
        <ele>-5.9</ele>
        <time>2020-02-22T11:51:34Z</time>
      </trkpt>
      <trkpt lat="38.7327330" lon="1.4145850">
        <ele>-5.9</ele>
        <time>2020-02-22T11:51:35Z</time>
      </trkpt>
      <trkpt lat="38.7326870" lon="1.4146800">
        <ele>-5.9</ele>
        <time>2020-02-22T11:51:36Z</time>
      </trkpt>
      <trkpt lat="38.7326650" lon="1.4147330">
        <ele>-5.9</ele>
        <time>2020-02-22T11:51:37Z</time>
      </trkpt>
      <trkpt lat="38.7326650" lon="1.4147330">
        <ele>-5.9</ele>
        <time>2020-02-22T11:51:38Z</time>
      </trkpt>
      <trkpt lat="38.7326230" lon="1.4148430">
        <ele>-5.9</ele>
        <time>2020-02-22T11:51:39Z</time>
      </trkpt>
      <trkpt lat="38.7326230" lon="1.4148430">
        <ele>-5.9</ele>
        <time>2020-02-22T11:51:40Z</time>
      </trkpt>
      <trkpt lat="38.7325930" lon="1.4149570">
        <ele>-5.9</ele>
        <time>2020-02-22T11:51:41Z</time>
      </trkpt>
      <trkpt lat="38.7325770" lon="1.4150080">
        <ele>-5.9</ele>
        <time>2020-02-22T11:51:42Z</time>
      </trkpt>
      <trkpt lat="38.7325770" lon="1.4150080">
        <ele>-5.9</ele>
        <time>2020-02-22T11:51:43Z</time>
      </trkpt>
      <trkpt lat="38.7325350" lon="1.4151170">
        <ele>-5.9</ele>
        <time>2020-02-22T11:51:44Z</time>
      </trkpt>
      <trkpt lat="38.7325150" lon="1.4151730">
        <ele>-5.9</ele>
        <time>2020-02-22T11:51:45Z</time>
      </trkpt>
      <trkpt lat="38.7324930" lon="1.4152280">
        <ele>-5.9</ele>
        <time>2020-02-22T11:51:46Z</time>
      </trkpt>
      <trkpt lat="38.7324930" lon="1.4152280">
        <ele>-5.9</ele>
        <time>2020-02-22T11:51:47Z</time>
      </trkpt>
      <trkpt lat="38.7324500" lon="1.4153370">
        <ele>-5.9</ele>
        <time>2020-02-22T11:51:48Z</time>
      </trkpt>
      <trkpt lat="38.7324270" lon="1.4153920">
        <ele>-5.9</ele>
        <time>2020-02-22T11:51:49Z</time>
      </trkpt>
      <trkpt lat="38.7324270" lon="1.4153920">
        <ele>-5.9</ele>
        <time>2020-02-22T11:51:50Z</time>
      </trkpt>
      <trkpt lat="38.7323780" lon="1.4154950">
        <ele>-5.9</ele>
        <time>2020-02-22T11:51:51Z</time>
      </trkpt>
      <trkpt lat="38.7323780" lon="1.4154950">
        <ele>-5.9</ele>
        <time>2020-02-22T11:51:52Z</time>
      </trkpt>
      <trkpt lat="38.7323330" lon="1.4156030">
        <ele>-5.9</ele>
        <time>2020-02-22T11:51:53Z</time>
      </trkpt>
      <trkpt lat="38.7323120" lon="1.4156620">
        <ele>-5.9</ele>
        <time>2020-02-22T11:51:54Z</time>
      </trkpt>
      <trkpt lat="38.7322900" lon="1.4157200">
        <ele>-5.9</ele>
        <time>2020-02-22T11:51:55Z</time>
      </trkpt>
      <trkpt lat="38.7322900" lon="1.4157200">
        <ele>-5.9</ele>
        <time>2020-02-22T11:51:56Z</time>
      </trkpt>
      <trkpt lat="38.7322620" lon="1.4158450">
        <ele>-5.9</ele>
        <time>2020-02-22T11:51:57Z</time>
      </trkpt>
      <trkpt lat="38.7322620" lon="1.4158450">
        <ele>-5.9</ele>
        <time>2020-02-22T11:51:58Z</time>
      </trkpt>
      <trkpt lat="38.7322250" lon="1.4159700">
        <ele>-5.9</ele>
        <time>2020-02-22T11:51:59Z</time>
      </trkpt>
      <trkpt lat="38.7322050" lon="1.4160330">
        <ele>-5.9</ele>
        <time>2020-02-22T11:52:00Z</time>
      </trkpt>
      <trkpt lat="38.7321820" lon="1.4160970">
        <ele>-5.9</ele>
        <time>2020-02-22T11:52:01Z</time>
      </trkpt>
      <trkpt lat="38.7321820" lon="1.4160970">
        <ele>-5.9</ele>
        <time>2020-02-22T11:52:02Z</time>
      </trkpt>
      <trkpt lat="38.7321330" lon="1.4162220">
        <ele>-5.9</ele>
        <time>2020-02-22T11:52:03Z</time>
      </trkpt>
      <trkpt lat="38.7321100" lon="1.4162830">
        <ele>-5.9</ele>
        <time>2020-02-22T11:52:04Z</time>
      </trkpt>
      <trkpt lat="38.7321100" lon="1.4162830">
        <ele>-5.9</ele>
        <time>2020-02-22T11:52:05Z</time>
      </trkpt>
      <trkpt lat="38.7320580" lon="1.4164020">
        <ele>-5.9</ele>
        <time>2020-02-22T11:52:06Z</time>
      </trkpt>
      <trkpt lat="38.7320270" lon="1.4164600">
        <ele>-5.9</ele>
        <time>2020-02-22T11:52:07Z</time>
      </trkpt>
      <trkpt lat="38.7320270" lon="1.4164600">
        <ele>-5.9</ele>
        <time>2020-02-22T11:52:08Z</time>
      </trkpt>
      <trkpt lat="38.7319470" lon="1.4165630">
        <ele>-5.9</ele>
        <time>2020-02-22T11:52:09Z</time>
      </trkpt>
      <trkpt lat="38.7319470" lon="1.4165630">
        <ele>-5.9</ele>
        <time>2020-02-22T11:52:10Z</time>
      </trkpt>
      <trkpt lat="38.7318500" lon="1.4166270">
        <ele>-5.9</ele>
        <time>2020-02-22T11:52:11Z</time>
      </trkpt>
      <trkpt lat="38.7318500" lon="1.4166270">
        <ele>-5.9</ele>
        <time>2020-02-22T11:52:12Z</time>
      </trkpt>
      <trkpt lat="38.7317550" lon="1.4166830">
        <ele>-5.9</ele>
        <time>2020-02-22T11:52:13Z</time>
      </trkpt>
      <trkpt lat="38.7317550" lon="1.4166830">
        <ele>-5.9</ele>
        <time>2020-02-22T11:52:14Z</time>
      </trkpt>
      <trkpt lat="38.7316620" lon="1.4167420">
        <ele>-5.9</ele>
        <time>2020-02-22T11:52:15Z</time>
      </trkpt>
      <trkpt lat="38.7316620" lon="1.4167420">
        <ele>-5.9</ele>
        <time>2020-02-22T11:52:16Z</time>
      </trkpt>
      <trkpt lat="38.7315680" lon="1.4167900">
        <ele>-5.9</ele>
        <time>2020-02-22T11:52:17Z</time>
      </trkpt>
      <trkpt lat="38.7315200" lon="1.4168130">
        <ele>-5.9</ele>
        <time>2020-02-22T11:52:18Z</time>
      </trkpt>
      <trkpt lat="38.7314720" lon="1.4168420">
        <ele>-5.9</ele>
        <time>2020-02-22T11:52:19Z</time>
      </trkpt>
      <trkpt lat="38.7314720" lon="1.4168420">
        <ele>-5.9</ele>
        <time>2020-02-22T11:52:20Z</time>
      </trkpt>
      <trkpt lat="38.7313730" lon="1.4169080">
        <ele>-5.9</ele>
        <time>2020-02-22T11:52:21Z</time>
      </trkpt>
      <trkpt lat="38.7313730" lon="1.4169080">
        <ele>-5.9</ele>
        <time>2020-02-22T11:52:22Z</time>
      </trkpt>
      <trkpt lat="38.7312680" lon="1.4169700">
        <ele>-5.9</ele>
        <time>2020-02-22T11:52:23Z</time>
      </trkpt>
      <trkpt lat="38.7312220" lon="1.4170000">
        <ele>-5.9</ele>
        <time>2020-02-22T11:52:24Z</time>
      </trkpt>
      <trkpt lat="38.7311780" lon="1.4170280">
        <ele>-5.9</ele>
        <time>2020-02-22T11:52:25Z</time>
      </trkpt>
      <trkpt lat="38.7311780" lon="1.4170280">
        <ele>-5.9</ele>
        <time>2020-02-22T11:52:26Z</time>
      </trkpt>
      <trkpt lat="38.7310820" lon="1.4170880">
        <ele>-5.9</ele>
        <time>2020-02-22T11:52:27Z</time>
      </trkpt>
      <trkpt lat="38.7310820" lon="1.4170880">
        <ele>-5.9</ele>
        <time>2020-02-22T11:52:28Z</time>
      </trkpt>
      <trkpt lat="38.7309830" lon="1.4171400">
        <ele>-5.9</ele>
        <time>2020-02-22T11:52:29Z</time>
      </trkpt>
      <trkpt lat="38.7309830" lon="1.4171400">
        <ele>-5.9</ele>
        <time>2020-02-22T11:52:30Z</time>
      </trkpt>
      <trkpt lat="38.7308920" lon="1.4171920">
        <ele>-5.9</ele>
        <time>2020-02-22T11:52:31Z</time>
      </trkpt>
      <trkpt lat="38.7308500" lon="1.4172200">
        <ele>-5.9</ele>
        <time>2020-02-22T11:52:32Z</time>
      </trkpt>
      <trkpt lat="38.7308500" lon="1.4172200">
        <ele>-5.9</ele>
        <time>2020-02-22T11:52:33Z</time>
      </trkpt>
      <trkpt lat="38.7307600" lon="1.4172750">
        <ele>-5.9</ele>
        <time>2020-02-22T11:52:34Z</time>
      </trkpt>
      <trkpt lat="38.7307600" lon="1.4172750">
        <ele>-5.9</ele>
        <time>2020-02-22T11:52:35Z</time>
      </trkpt>
      <trkpt lat="38.7306730" lon="1.4173280">
        <ele>-5.9</ele>
        <time>2020-02-22T11:52:36Z</time>
      </trkpt>
      <trkpt lat="38.7306280" lon="1.4173550">
        <ele>-5.9</ele>
        <time>2020-02-22T11:52:37Z</time>
      </trkpt>
      <trkpt lat="38.7306280" lon="1.4173550">
        <ele>-5.9</ele>
        <time>2020-02-22T11:52:38Z</time>
      </trkpt>
      <trkpt lat="38.7305300" lon="1.4174130">
        <ele>-5.9</ele>
        <time>2020-02-22T11:52:39Z</time>
      </trkpt>
      <trkpt lat="38.7304800" lon="1.4174450">
        <ele>-5.9</ele>
        <time>2020-02-22T11:52:40Z</time>
      </trkpt>
      <trkpt lat="38.7304800" lon="1.4174450">
        <ele>-5.9</ele>
        <time>2020-02-22T11:52:41Z</time>
      </trkpt>
      <trkpt lat="38.7303750" lon="1.4175050">
        <ele>-5.9</ele>
        <time>2020-02-22T11:52:42Z</time>
      </trkpt>
      <trkpt lat="38.7303200" lon="1.4175320">
        <ele>-5.9</ele>
        <time>2020-02-22T11:52:43Z</time>
      </trkpt>
      <trkpt lat="38.7303200" lon="1.4175320">
        <ele>-5.9</ele>
        <time>2020-02-22T11:52:44Z</time>
      </trkpt>
      <trkpt lat="38.7302200" lon="1.4175880">
        <ele>-5.9</ele>
        <time>2020-02-22T11:52:45Z</time>
      </trkpt>
      <trkpt lat="38.7301720" lon="1.4176170">
        <ele>-5.9</ele>
        <time>2020-02-22T11:52:46Z</time>
      </trkpt>
      <trkpt lat="38.7301720" lon="1.4176170">
        <ele>-5.9</ele>
        <time>2020-02-22T11:52:47Z</time>
      </trkpt>
      <trkpt lat="38.7300730" lon="1.4176770">
        <ele>-5.9</ele>
        <time>2020-02-22T11:52:48Z</time>
      </trkpt>
      <trkpt lat="38.7300730" lon="1.4176770">
        <ele>-5.9</ele>
        <time>2020-02-22T11:52:49Z</time>
      </trkpt>
      <trkpt lat="38.7299770" lon="1.4177370">
        <ele>-5.9</ele>
        <time>2020-02-22T11:52:50Z</time>
      </trkpt>
      <trkpt lat="38.7299300" lon="1.4177670">
        <ele>-5.9</ele>
        <time>2020-02-22T11:52:51Z</time>
      </trkpt>
      <trkpt lat="38.7299300" lon="1.4177670">
        <ele>-5.9</ele>
        <time>2020-02-22T11:52:52Z</time>
      </trkpt>
      <trkpt lat="38.7298380" lon="1.4178250">
        <ele>-5.9</ele>
        <time>2020-02-22T11:52:53Z</time>
      </trkpt>
      <trkpt lat="38.7297900" lon="1.4178500">
        <ele>-4.9</ele>
        <time>2020-02-22T11:52:54Z</time>
      </trkpt>
      <trkpt lat="38.7297900" lon="1.4178500">
        <ele>-4.9</ele>
        <time>2020-02-22T11:52:55Z</time>
      </trkpt>
      <trkpt lat="38.7296980" lon="1.4179080">
        <ele>-4.9</ele>
        <time>2020-02-22T11:52:56Z</time>
      </trkpt>
      <trkpt lat="38.7296520" lon="1.4179350">
        <ele>-4.9</ele>
        <time>2020-02-22T11:52:57Z</time>
      </trkpt>
      <trkpt lat="38.7296520" lon="1.4179350">
        <ele>-4.9</ele>
        <time>2020-02-22T11:52:58Z</time>
      </trkpt>
      <trkpt lat="38.7295580" lon="1.4179800">
        <ele>-4.9</ele>
        <time>2020-02-22T11:52:59Z</time>
      </trkpt>
      <trkpt lat="38.7295100" lon="1.4180050">
        <ele>-4.9</ele>
        <time>2020-02-22T11:53:00Z</time>
      </trkpt>
      <trkpt lat="38.7295100" lon="1.4180050">
        <ele>-4.9</ele>
        <time>2020-02-22T11:53:01Z</time>
      </trkpt>
      <trkpt lat="38.7294130" lon="1.4180620">
        <ele>-4.9</ele>
        <time>2020-02-22T11:53:02Z</time>
      </trkpt>
      <trkpt lat="38.7294130" lon="1.4180620">
        <ele>-4.9</ele>
        <time>2020-02-22T11:53:03Z</time>
      </trkpt>
      <trkpt lat="38.7293200" lon="1.4181120">
        <ele>-4.9</ele>
        <time>2020-02-22T11:53:04Z</time>
      </trkpt>
      <trkpt lat="38.7293200" lon="1.4181120">
        <ele>-4.9</ele>
        <time>2020-02-22T11:53:05Z</time>
      </trkpt>
      <trkpt lat="38.7292130" lon="1.4181730">
        <ele>-4.9</ele>
        <time>2020-02-22T11:53:06Z</time>
      </trkpt>
      <trkpt lat="38.7291620" lon="1.4182050">
        <ele>-4.9</ele>
        <time>2020-02-22T11:53:07Z</time>
      </trkpt>
      <trkpt lat="38.7291620" lon="1.4182050">
        <ele>-4.9</ele>
        <time>2020-02-22T11:53:08Z</time>
      </trkpt>
      <trkpt lat="38.7290520" lon="1.4182700">
        <ele>-4.9</ele>
        <time>2020-02-22T11:53:09Z</time>
      </trkpt>
      <trkpt lat="38.7290520" lon="1.4182700">
        <ele>-4.9</ele>
        <time>2020-02-22T11:53:10Z</time>
      </trkpt>
      <trkpt lat="38.7289350" lon="1.4183450">
        <ele>-4.9</ele>
        <time>2020-02-22T11:53:11Z</time>
      </trkpt>
      <trkpt lat="38.7289350" lon="1.4183450">
        <ele>-4.9</ele>
        <time>2020-02-22T11:53:12Z</time>
      </trkpt>
      <trkpt lat="38.7288230" lon="1.4184080">
        <ele>-4.9</ele>
        <time>2020-02-22T11:53:13Z</time>
      </trkpt>
      <trkpt lat="38.7288230" lon="1.4184080">
        <ele>-4.9</ele>
        <time>2020-02-22T11:53:14Z</time>
      </trkpt>
      <trkpt lat="38.7287170" lon="1.4184650">
        <ele>-4.9</ele>
        <time>2020-02-22T11:53:15Z</time>
      </trkpt>
      <trkpt lat="38.7286680" lon="1.4184930">
        <ele>-4.9</ele>
        <time>2020-02-22T11:53:16Z</time>
      </trkpt>
      <trkpt lat="38.7286680" lon="1.4184930">
        <ele>-4.9</ele>
        <time>2020-02-22T11:53:17Z</time>
      </trkpt>
      <trkpt lat="38.7285680" lon="1.4185520">
        <ele>-4.9</ele>
        <time>2020-02-22T11:53:18Z</time>
      </trkpt>
      <trkpt lat="38.7285170" lon="1.4185800">
        <ele>-4.9</ele>
        <time>2020-02-22T11:53:19Z</time>
      </trkpt>
      <trkpt lat="38.7285170" lon="1.4185800">
        <ele>-4.9</ele>
        <time>2020-02-22T11:53:20Z</time>
      </trkpt>
      <trkpt lat="38.7284180" lon="1.4186320">
        <ele>-4.9</ele>
        <time>2020-02-22T11:53:21Z</time>
      </trkpt>
      <trkpt lat="38.7284180" lon="1.4186320">
        <ele>-4.9</ele>
        <time>2020-02-22T11:53:22Z</time>
      </trkpt>
      <trkpt lat="38.7283120" lon="1.4186900">
        <ele>-4.9</ele>
        <time>2020-02-22T11:53:23Z</time>
      </trkpt>
      <trkpt lat="38.7282630" lon="1.4187120">
        <ele>-4.9</ele>
        <time>2020-02-22T11:53:24Z</time>
      </trkpt>
      <trkpt lat="38.7282630" lon="1.4187120">
        <ele>-4.9</ele>
        <time>2020-02-22T11:53:25Z</time>
      </trkpt>
      <trkpt lat="38.7281600" lon="1.4187670">
        <ele>-4.9</ele>
        <time>2020-02-22T11:53:26Z</time>
      </trkpt>
      <trkpt lat="38.7281120" lon="1.4187950">
        <ele>-4.9</ele>
        <time>2020-02-22T11:53:27Z</time>
      </trkpt>
      <trkpt lat="38.7281120" lon="1.4187950">
        <ele>-4.9</ele>
        <time>2020-02-22T11:53:28Z</time>
      </trkpt>
      <trkpt lat="38.7280120" lon="1.4188600">
        <ele>-4.9</ele>
        <time>2020-02-22T11:53:29Z</time>
      </trkpt>
      <trkpt lat="38.7280120" lon="1.4188600">
        <ele>-4.9</ele>
        <time>2020-02-22T11:53:30Z</time>
      </trkpt>
      <trkpt lat="38.7279050" lon="1.4189220">
        <ele>-4.9</ele>
        <time>2020-02-22T11:53:31Z</time>
      </trkpt>
      <trkpt lat="38.7279050" lon="1.4189220">
        <ele>-4.9</ele>
        <time>2020-02-22T11:53:32Z</time>
      </trkpt>
      <trkpt lat="38.7277970" lon="1.4189800">
        <ele>-4.9</ele>
        <time>2020-02-22T11:53:33Z</time>
      </trkpt>
      <trkpt lat="38.7277420" lon="1.4190070">
        <ele>-4.9</ele>
        <time>2020-02-22T11:53:34Z</time>
      </trkpt>
      <trkpt lat="38.7277420" lon="1.4190070">
        <ele>-4.9</ele>
        <time>2020-02-22T11:53:35Z</time>
      </trkpt>
      <trkpt lat="38.7276350" lon="1.4190680">
        <ele>-4.9</ele>
        <time>2020-02-22T11:53:36Z</time>
      </trkpt>
      <trkpt lat="38.7275830" lon="1.4191020">
        <ele>-3.9</ele>
        <time>2020-02-22T11:53:37Z</time>
      </trkpt>
      <trkpt lat="38.7275830" lon="1.4191020">
        <ele>-3.9</ele>
        <time>2020-02-22T11:53:38Z</time>
      </trkpt>
      <trkpt lat="38.7274780" lon="1.4191670">
        <ele>-3.9</ele>
        <time>2020-02-22T11:53:39Z</time>
      </trkpt>
      <trkpt lat="38.7274780" lon="1.4191670">
        <ele>-3.9</ele>
        <time>2020-02-22T11:53:40Z</time>
      </trkpt>
      <trkpt lat="38.7273730" lon="1.4192280">
        <ele>-3.9</ele>
        <time>2020-02-22T11:53:41Z</time>
      </trkpt>
      <trkpt lat="38.7273730" lon="1.4192280">
        <ele>-3.9</ele>
        <time>2020-02-22T11:53:42Z</time>
      </trkpt>
      <trkpt lat="38.7272720" lon="1.4192920">
        <ele>-3.9</ele>
        <time>2020-02-22T11:53:43Z</time>
      </trkpt>
      <trkpt lat="38.7272720" lon="1.4192920">
        <ele>-3.9</ele>
        <time>2020-02-22T11:53:44Z</time>
      </trkpt>
      <trkpt lat="38.7271680" lon="1.4193530">
        <ele>-3.9</ele>
        <time>2020-02-22T11:53:45Z</time>
      </trkpt>
      <trkpt lat="38.7271680" lon="1.4193530">
        <ele>-3.9</ele>
        <time>2020-02-22T11:53:46Z</time>
      </trkpt>
      <trkpt lat="38.7270600" lon="1.4194080">
        <ele>-3.9</ele>
        <time>2020-02-22T11:53:47Z</time>
      </trkpt>
      <trkpt lat="38.7270050" lon="1.4194350">
        <ele>-3.9</ele>
        <time>2020-02-22T11:53:48Z</time>
      </trkpt>
      <trkpt lat="38.7269520" lon="1.4194650">
        <ele>-3.9</ele>
        <time>2020-02-22T11:53:49Z</time>
      </trkpt>
      <trkpt lat="38.7269520" lon="1.4194650">
        <ele>-3.9</ele>
        <time>2020-02-22T11:53:50Z</time>
      </trkpt>
      <trkpt lat="38.7268420" lon="1.4195250">
        <ele>-3.9</ele>
        <time>2020-02-22T11:53:51Z</time>
      </trkpt>
      <trkpt lat="38.7268420" lon="1.4195250">
        <ele>-3.9</ele>
        <time>2020-02-22T11:53:52Z</time>
      </trkpt>
      <trkpt lat="38.7267300" lon="1.4195880">
        <ele>-3.9</ele>
        <time>2020-02-22T11:53:53Z</time>
      </trkpt>
      <trkpt lat="38.7267300" lon="1.4195880">
        <ele>-3.9</ele>
        <time>2020-02-22T11:53:54Z</time>
      </trkpt>
      <trkpt lat="38.7266180" lon="1.4196570">
        <ele>-3.9</ele>
        <time>2020-02-22T11:53:55Z</time>
      </trkpt>
      <trkpt lat="38.7266180" lon="1.4196570">
        <ele>-3.9</ele>
        <time>2020-02-22T11:53:56Z</time>
      </trkpt>
      <trkpt lat="38.7265050" lon="1.4197230">
        <ele>-3.9</ele>
        <time>2020-02-22T11:53:57Z</time>
      </trkpt>
      <trkpt lat="38.7264480" lon="1.4197580">
        <ele>-3.9</ele>
        <time>2020-02-22T11:53:58Z</time>
      </trkpt>
      <trkpt lat="38.7264480" lon="1.4197580">
        <ele>-3.9</ele>
        <time>2020-02-22T11:53:59Z</time>
      </trkpt>
      <trkpt lat="38.7263350" lon="1.4198230">
        <ele>-3.9</ele>
        <time>2020-02-22T11:54:00Z</time>
      </trkpt>
      <trkpt lat="38.7262780" lon="1.4198550">
        <ele>-3.9</ele>
        <time>2020-02-22T11:54:01Z</time>
      </trkpt>
      <trkpt lat="38.7262780" lon="1.4198550">
        <ele>-3.9</ele>
        <time>2020-02-22T11:54:02Z</time>
      </trkpt>
      <trkpt lat="38.7261670" lon="1.4199180">
        <ele>-3.9</ele>
        <time>2020-02-22T11:54:03Z</time>
      </trkpt>
      <trkpt lat="38.7261130" lon="1.4199500">
        <ele>-3.9</ele>
        <time>2020-02-22T11:54:04Z</time>
      </trkpt>
      <trkpt lat="38.7261130" lon="1.4199500">
        <ele>-3.9</ele>
        <time>2020-02-22T11:54:05Z</time>
      </trkpt>
      <trkpt lat="38.7260050" lon="1.4200200">
        <ele>-3.9</ele>
        <time>2020-02-22T11:54:06Z</time>
      </trkpt>
      <trkpt lat="38.7259500" lon="1.4200550">
        <ele>-3.9</ele>
        <time>2020-02-22T11:54:07Z</time>
      </trkpt>
      <trkpt lat="38.7259500" lon="1.4200550">
        <ele>-3.9</ele>
        <time>2020-02-22T11:54:08Z</time>
      </trkpt>
      <trkpt lat="38.7258370" lon="1.4201180">
        <ele>-3.9</ele>
        <time>2020-02-22T11:54:09Z</time>
      </trkpt>
      <trkpt lat="38.7257820" lon="1.4201480">
        <ele>-3.9</ele>
        <time>2020-02-22T11:54:10Z</time>
      </trkpt>
      <trkpt lat="38.7257820" lon="1.4201480">
        <ele>-3.9</ele>
        <time>2020-02-22T11:54:11Z</time>
      </trkpt>
      <trkpt lat="38.7256680" lon="1.4202150">
        <ele>-3.9</ele>
        <time>2020-02-22T11:54:12Z</time>
      </trkpt>
      <trkpt lat="38.7256100" lon="1.4202480">
        <ele>-3.9</ele>
        <time>2020-02-22T11:54:13Z</time>
      </trkpt>
      <trkpt lat="38.7255530" lon="1.4202820">
        <ele>-3.9</ele>
        <time>2020-02-22T11:54:14Z</time>
      </trkpt>
      <trkpt lat="38.7254920" lon="1.4203150">
        <ele>-3.9</ele>
        <time>2020-02-22T11:54:15Z</time>
      </trkpt>
      <trkpt lat="38.7254920" lon="1.4203150">
        <ele>-3.9</ele>
        <time>2020-02-22T11:54:16Z</time>
      </trkpt>
      <trkpt lat="38.7253670" lon="1.4203820">
        <ele>-3.9</ele>
        <time>2020-02-22T11:54:17Z</time>
      </trkpt>
      <trkpt lat="38.7253670" lon="1.4203820">
        <ele>-3.9</ele>
        <time>2020-02-22T11:54:18Z</time>
      </trkpt>
      <trkpt lat="38.7252330" lon="1.4204570">
        <ele>-3.9</ele>
        <time>2020-02-22T11:54:19Z</time>
      </trkpt>
      <trkpt lat="38.7252330" lon="1.4204570">
        <ele>-3.9</ele>
        <time>2020-02-22T11:54:20Z</time>
      </trkpt>
      <trkpt lat="38.7251030" lon="1.4205320">
        <ele>-3.9</ele>
        <time>2020-02-22T11:54:21Z</time>
      </trkpt>
      <trkpt lat="38.7250400" lon="1.4205720">
        <ele>-3.9</ele>
        <time>2020-02-22T11:54:22Z</time>
      </trkpt>
      <trkpt lat="38.7250400" lon="1.4205720">
        <ele>-3.9</ele>
        <time>2020-02-22T11:54:23Z</time>
      </trkpt>
      <trkpt lat="38.7249150" lon="1.4206480">
        <ele>-3.9</ele>
        <time>2020-02-22T11:54:24Z</time>
      </trkpt>
      <trkpt lat="38.7248530" lon="1.4206830">
        <ele>-3.9</ele>
        <time>2020-02-22T11:54:25Z</time>
      </trkpt>
      <trkpt lat="38.7248530" lon="1.4206830">
        <ele>-3.9</ele>
        <time>2020-02-22T11:54:26Z</time>
      </trkpt>
      <trkpt lat="38.7247470" lon="1.4207520">
        <ele>-3.9</ele>
        <time>2020-02-22T11:54:27Z</time>
      </trkpt>
      <trkpt lat="38.7246920" lon="1.4207820">
        <ele>-3.9</ele>
        <time>2020-02-22T11:54:28Z</time>
      </trkpt>
      <trkpt lat="38.7246920" lon="1.4207820">
        <ele>-3.9</ele>
        <time>2020-02-22T11:54:29Z</time>
      </trkpt>
      <trkpt lat="38.7245800" lon="1.4208430">
        <ele>-3.9</ele>
        <time>2020-02-22T11:54:30Z</time>
      </trkpt>
      <trkpt lat="38.7245230" lon="1.4208770">
        <ele>-3.9</ele>
        <time>2020-02-22T11:54:31Z</time>
      </trkpt>
      <trkpt lat="38.7245230" lon="1.4208770">
        <ele>-3.9</ele>
        <time>2020-02-22T11:54:32Z</time>
      </trkpt>
      <trkpt lat="38.7244070" lon="1.4209420">
        <ele>-3.9</ele>
        <time>2020-02-22T11:54:33Z</time>
      </trkpt>
      <trkpt lat="38.7244070" lon="1.4209420">
        <ele>-3.9</ele>
        <time>2020-02-22T11:54:34Z</time>
      </trkpt>
      <trkpt lat="38.7242920" lon="1.4210100">
        <ele>-3.9</ele>
        <time>2020-02-22T11:54:35Z</time>
      </trkpt>
      <trkpt lat="38.7242920" lon="1.4210100">
        <ele>-3.9</ele>
        <time>2020-02-22T11:54:36Z</time>
      </trkpt>
      <trkpt lat="38.7241820" lon="1.4210730">
        <ele>-3.9</ele>
        <time>2020-02-22T11:54:37Z</time>
      </trkpt>
      <trkpt lat="38.7241820" lon="1.4210730">
        <ele>-3.9</ele>
        <time>2020-02-22T11:54:38Z</time>
      </trkpt>
      <trkpt lat="38.7240720" lon="1.4211400">
        <ele>-3.9</ele>
        <time>2020-02-22T11:54:39Z</time>
      </trkpt>
      <trkpt lat="38.7240720" lon="1.4211400">
        <ele>-3.9</ele>
        <time>2020-02-22T11:54:40Z</time>
      </trkpt>
      <trkpt lat="38.7239600" lon="1.4212030">
        <ele>-3.9</ele>
        <time>2020-02-22T11:54:41Z</time>
      </trkpt>
      <trkpt lat="38.7239600" lon="1.4212030">
        <ele>-3.9</ele>
        <time>2020-02-22T11:54:42Z</time>
      </trkpt>
      <trkpt lat="38.7238500" lon="1.4212680">
        <ele>-3.9</ele>
        <time>2020-02-22T11:54:43Z</time>
      </trkpt>
      <trkpt lat="38.7238500" lon="1.4212680">
        <ele>-3.9</ele>
        <time>2020-02-22T11:54:44Z</time>
      </trkpt>
      <trkpt lat="38.7237380" lon="1.4213350">
        <ele>-3.9</ele>
        <time>2020-02-22T11:54:45Z</time>
      </trkpt>
      <trkpt lat="38.7236800" lon="1.4213670">
        <ele>-3.9</ele>
        <time>2020-02-22T11:54:46Z</time>
      </trkpt>
      <trkpt lat="38.7236800" lon="1.4213670">
        <ele>-3.9</ele>
        <time>2020-02-22T11:54:47Z</time>
      </trkpt>
      <trkpt lat="38.7235680" lon="1.4214280">
        <ele>-3.9</ele>
        <time>2020-02-22T11:54:48Z</time>
      </trkpt>
      <trkpt lat="38.7235680" lon="1.4214280">
        <ele>-3.9</ele>
        <time>2020-02-22T11:54:49Z</time>
      </trkpt>
      <trkpt lat="38.7234570" lon="1.4214920">
        <ele>-3.9</ele>
        <time>2020-02-22T11:54:50Z</time>
      </trkpt>
      <trkpt lat="38.7234020" lon="1.4215230">
        <ele>-3.9</ele>
        <time>2020-02-22T11:54:51Z</time>
      </trkpt>
      <trkpt lat="38.7234020" lon="1.4215230">
        <ele>-3.9</ele>
        <time>2020-02-22T11:54:52Z</time>
      </trkpt>
      <trkpt lat="38.7232870" lon="1.4215950">
        <ele>-3.9</ele>
        <time>2020-02-22T11:54:53Z</time>
      </trkpt>
      <trkpt lat="38.7232870" lon="1.4215950">
        <ele>-3.9</ele>
        <time>2020-02-22T11:54:54Z</time>
      </trkpt>
      <trkpt lat="38.7231620" lon="1.4216720">
        <ele>-3.9</ele>
        <time>2020-02-22T11:54:55Z</time>
      </trkpt>
      <trkpt lat="38.7231620" lon="1.4216720">
        <ele>-3.9</ele>
        <time>2020-02-22T11:54:56Z</time>
      </trkpt>
      <trkpt lat="38.7230350" lon="1.4217480">
        <ele>-3.9</ele>
        <time>2020-02-22T11:54:57Z</time>
      </trkpt>
      <trkpt lat="38.7230350" lon="1.4217480">
        <ele>-3.9</ele>
        <time>2020-02-22T11:54:58Z</time>
      </trkpt>
      <trkpt lat="38.7229170" lon="1.4218180">
        <ele>-3.9</ele>
        <time>2020-02-22T11:54:59Z</time>
      </trkpt>
      <trkpt lat="38.7229170" lon="1.4218180">
        <ele>-3.9</ele>
        <time>2020-02-22T11:55:00Z</time>
      </trkpt>
      <trkpt lat="38.7228000" lon="1.4218870">
        <ele>-3.9</ele>
        <time>2020-02-22T11:55:01Z</time>
      </trkpt>
      <trkpt lat="38.7228000" lon="1.4218870">
        <ele>-3.9</ele>
        <time>2020-02-22T11:55:02Z</time>
      </trkpt>
      <trkpt lat="38.7226820" lon="1.4219580">
        <ele>-3.9</ele>
        <time>2020-02-22T11:55:03Z</time>
      </trkpt>
      <trkpt lat="38.7226250" lon="1.4219930">
        <ele>-3.9</ele>
        <time>2020-02-22T11:55:04Z</time>
      </trkpt>
      <trkpt lat="38.7226250" lon="1.4219930">
        <ele>-3.9</ele>
        <time>2020-02-22T11:55:05Z</time>
      </trkpt>
      <trkpt lat="38.7225080" lon="1.4220670">
        <ele>-3.9</ele>
        <time>2020-02-22T11:55:06Z</time>
      </trkpt>
      <trkpt lat="38.7224470" lon="1.4221020">
        <ele>-3.9</ele>
        <time>2020-02-22T11:55:07Z</time>
      </trkpt>
      <trkpt lat="38.7224470" lon="1.4221020">
        <ele>-3.9</ele>
        <time>2020-02-22T11:55:08Z</time>
      </trkpt>
      <trkpt lat="38.7223230" lon="1.4221730">
        <ele>-3.9</ele>
        <time>2020-02-22T11:55:09Z</time>
      </trkpt>
      <trkpt lat="38.7223230" lon="1.4221730">
        <ele>-3.9</ele>
        <time>2020-02-22T11:55:10Z</time>
      </trkpt>
      <trkpt lat="38.7222020" lon="1.4222420">
        <ele>-3.9</ele>
        <time>2020-02-22T11:55:11Z</time>
      </trkpt>
      <trkpt lat="38.7222020" lon="1.4222420">
        <ele>-3.9</ele>
        <time>2020-02-22T11:55:12Z</time>
      </trkpt>
      <trkpt lat="38.7220850" lon="1.4223050">
        <ele>-3.9</ele>
        <time>2020-02-22T11:55:13Z</time>
      </trkpt>
      <trkpt lat="38.7220850" lon="1.4223050">
        <ele>-3.9</ele>
        <time>2020-02-22T11:55:14Z</time>
      </trkpt>
      <trkpt lat="38.7219680" lon="1.4223700">
        <ele>-3.9</ele>
        <time>2020-02-22T11:55:15Z</time>
      </trkpt>
      <trkpt lat="38.7219680" lon="1.4223700">
        <ele>-3.9</ele>
        <time>2020-02-22T11:55:16Z</time>
      </trkpt>
      <trkpt lat="38.7218480" lon="1.4224370">
        <ele>-3.9</ele>
        <time>2020-02-22T11:55:17Z</time>
      </trkpt>
      <trkpt lat="38.7218480" lon="1.4224370">
        <ele>-3.9</ele>
        <time>2020-02-22T11:55:18Z</time>
      </trkpt>
      <trkpt lat="38.7217320" lon="1.4225030">
        <ele>-3.9</ele>
        <time>2020-02-22T11:55:19Z</time>
      </trkpt>
      <trkpt lat="38.7217320" lon="1.4225030">
        <ele>-3.9</ele>
        <time>2020-02-22T11:55:20Z</time>
      </trkpt>
      <trkpt lat="38.7216170" lon="1.4225730">
        <ele>-3.9</ele>
        <time>2020-02-22T11:55:21Z</time>
      </trkpt>
      <trkpt lat="38.7216170" lon="1.4225730">
        <ele>-3.9</ele>
        <time>2020-02-22T11:55:22Z</time>
      </trkpt>
      <trkpt lat="38.7214980" lon="1.4226380">
        <ele>-3.9</ele>
        <time>2020-02-22T11:55:23Z</time>
      </trkpt>
      <trkpt lat="38.7214980" lon="1.4226380">
        <ele>-2.9</ele>
        <time>2020-02-22T11:55:24Z</time>
      </trkpt>
      <trkpt lat="38.7213870" lon="1.4227030">
        <ele>-2.9</ele>
        <time>2020-02-22T11:55:25Z</time>
      </trkpt>
      <trkpt lat="38.7213870" lon="1.4227030">
        <ele>-2.9</ele>
        <time>2020-02-22T11:55:26Z</time>
      </trkpt>
      <trkpt lat="38.7212750" lon="1.4227670">
        <ele>-2.9</ele>
        <time>2020-02-22T11:55:27Z</time>
      </trkpt>
      <trkpt lat="38.7212750" lon="1.4227670">
        <ele>-2.9</ele>
        <time>2020-02-22T11:55:28Z</time>
      </trkpt>
      <trkpt lat="38.7211600" lon="1.4228330">
        <ele>-2.9</ele>
        <time>2020-02-22T11:55:29Z</time>
      </trkpt>
      <trkpt lat="38.7211600" lon="1.4228330">
        <ele>-2.9</ele>
        <time>2020-02-22T11:55:30Z</time>
      </trkpt>
      <trkpt lat="38.7210420" lon="1.4229030">
        <ele>-2.9</ele>
        <time>2020-02-22T11:55:31Z</time>
      </trkpt>
      <trkpt lat="38.7210420" lon="1.4229030">
        <ele>-2.9</ele>
        <time>2020-02-22T11:55:32Z</time>
      </trkpt>
      <trkpt lat="38.7209200" lon="1.4229720">
        <ele>-2.9</ele>
        <time>2020-02-22T11:55:33Z</time>
      </trkpt>
      <trkpt lat="38.7208600" lon="1.4230050">
        <ele>-2.9</ele>
        <time>2020-02-22T11:55:34Z</time>
      </trkpt>
      <trkpt lat="38.7208600" lon="1.4230050">
        <ele>-2.9</ele>
        <time>2020-02-22T11:55:35Z</time>
      </trkpt>
      <trkpt lat="38.7207420" lon="1.4230730">
        <ele>-2.9</ele>
        <time>2020-02-22T11:55:36Z</time>
      </trkpt>
      <trkpt lat="38.7207420" lon="1.4230730">
        <ele>-1.9</ele>
        <time>2020-02-22T11:55:37Z</time>
      </trkpt>
      <trkpt lat="38.7206250" lon="1.4231400">
        <ele>-1.9</ele>
        <time>2020-02-22T11:55:38Z</time>
      </trkpt>
      <trkpt lat="38.7206250" lon="1.4231400">
        <ele>-1.9</ele>
        <time>2020-02-22T11:55:39Z</time>
      </trkpt>
      <trkpt lat="38.7205100" lon="1.4232070">
        <ele>-1.9</ele>
        <time>2020-02-22T11:55:40Z</time>
      </trkpt>
      <trkpt lat="38.7205100" lon="1.4232070">
        <ele>-1.9</ele>
        <time>2020-02-22T11:55:41Z</time>
      </trkpt>
      <trkpt lat="38.7203930" lon="1.4232750">
        <ele>-1.9</ele>
        <time>2020-02-22T11:55:42Z</time>
      </trkpt>
      <trkpt lat="38.7203930" lon="1.4232750">
        <ele>-1.9</ele>
        <time>2020-02-22T11:55:43Z</time>
      </trkpt>
      <trkpt lat="38.7202780" lon="1.4233430">
        <ele>-1.9</ele>
        <time>2020-02-22T11:55:44Z</time>
      </trkpt>
      <trkpt lat="38.7202200" lon="1.4233770">
        <ele>-1.9</ele>
        <time>2020-02-22T11:55:45Z</time>
      </trkpt>
      <trkpt lat="38.7202200" lon="1.4233770">
        <ele>-1.9</ele>
        <time>2020-02-22T11:55:46Z</time>
      </trkpt>
      <trkpt lat="38.7201050" lon="1.4234450">
        <ele>-1.9</ele>
        <time>2020-02-22T11:55:47Z</time>
      </trkpt>
      <trkpt lat="38.7201050" lon="1.4234450">
        <ele>-1.9</ele>
        <time>2020-02-22T11:55:48Z</time>
      </trkpt>
      <trkpt lat="38.7199920" lon="1.4235120">
        <ele>-1.9</ele>
        <time>2020-02-22T11:55:49Z</time>
      </trkpt>
      <trkpt lat="38.7199920" lon="1.4235120">
        <ele>-1.9</ele>
        <time>2020-02-22T11:55:50Z</time>
      </trkpt>
      <trkpt lat="38.7198820" lon="1.4235780">
        <ele>-1.9</ele>
        <time>2020-02-22T11:55:51Z</time>
      </trkpt>
      <trkpt lat="38.7198270" lon="1.4236130">
        <ele>-1.9</ele>
        <time>2020-02-22T11:55:52Z</time>
      </trkpt>
      <trkpt lat="38.7198270" lon="1.4236130">
        <ele>-1.9</ele>
        <time>2020-02-22T11:55:53Z</time>
      </trkpt>
      <trkpt lat="38.7197180" lon="1.4236700">
        <ele>-1.9</ele>
        <time>2020-02-22T11:55:54Z</time>
      </trkpt>
      <trkpt lat="38.7197180" lon="1.4236700">
        <ele>-1.9</ele>
        <time>2020-02-22T11:55:55Z</time>
      </trkpt>
      <trkpt lat="38.7196030" lon="1.4237330">
        <ele>-1.9</ele>
        <time>2020-02-22T11:55:56Z</time>
      </trkpt>
      <trkpt lat="38.7196030" lon="1.4237330">
        <ele>-1.9</ele>
        <time>2020-02-22T11:55:57Z</time>
      </trkpt>
      <trkpt lat="38.7194870" lon="1.4238020">
        <ele>-1.9</ele>
        <time>2020-02-22T11:55:58Z</time>
      </trkpt>
      <trkpt lat="38.7194870" lon="1.4238020">
        <ele>-0.9</ele>
        <time>2020-02-22T11:55:59Z</time>
      </trkpt>
      <trkpt lat="38.7193720" lon="1.4238700">
        <ele>-0.9</ele>
        <time>2020-02-22T11:56:00Z</time>
      </trkpt>
      <trkpt lat="38.7193130" lon="1.4239030">
        <ele>-0.9</ele>
        <time>2020-02-22T11:56:01Z</time>
      </trkpt>
      <trkpt lat="38.7193130" lon="1.4239030">
        <ele>-0.9</ele>
        <time>2020-02-22T11:56:02Z</time>
      </trkpt>
      <trkpt lat="38.7192020" lon="1.4239700">
        <ele>-0.9</ele>
        <time>2020-02-22T11:56:03Z</time>
      </trkpt>
      <trkpt lat="38.7191470" lon="1.4240020">
        <ele>-0.9</ele>
        <time>2020-02-22T11:56:04Z</time>
      </trkpt>
      <trkpt lat="38.7191470" lon="1.4240020">
        <ele>-0.9</ele>
        <time>2020-02-22T11:56:05Z</time>
      </trkpt>
      <trkpt lat="38.7190380" lon="1.4240630">
        <ele>-0.9</ele>
        <time>2020-02-22T11:56:06Z</time>
      </trkpt>
      <trkpt lat="38.7190380" lon="1.4240630">
        <ele>-0.9</ele>
        <time>2020-02-22T11:56:07Z</time>
      </trkpt>
      <trkpt lat="38.7189300" lon="1.4241270">
        <ele>-0.9</ele>
        <time>2020-02-22T11:56:08Z</time>
      </trkpt>
      <trkpt lat="38.7188770" lon="1.4241600">
        <ele>-0.9</ele>
        <time>2020-02-22T11:56:09Z</time>
      </trkpt>
      <trkpt lat="38.7188770" lon="1.4241600">
        <ele>-0.9</ele>
        <time>2020-02-22T11:56:10Z</time>
      </trkpt>
      <trkpt lat="38.7187720" lon="1.4242250">
        <ele>-0.9</ele>
        <time>2020-02-22T11:56:11Z</time>
      </trkpt>
      <trkpt lat="38.7187180" lon="1.4242550">
        <ele>-0.9</ele>
        <time>2020-02-22T11:56:12Z</time>
      </trkpt>
      <trkpt lat="38.7186630" lon="1.4242870">
        <ele>-0.9</ele>
        <time>2020-02-22T11:56:13Z</time>
      </trkpt>
      <trkpt lat="38.7186630" lon="1.4242870">
        <ele>-0.9</ele>
        <time>2020-02-22T11:56:14Z</time>
      </trkpt>
      <trkpt lat="38.7185550" lon="1.4243480">
        <ele>-0.9</ele>
        <time>2020-02-22T11:56:15Z</time>
      </trkpt>
      <trkpt lat="38.7185550" lon="1.4243480">
        <ele>-0.9</ele>
        <time>2020-02-22T11:56:16Z</time>
      </trkpt>
      <trkpt lat="38.7184430" lon="1.4244150">
        <ele>-0.9</ele>
        <time>2020-02-22T11:56:17Z</time>
      </trkpt>
      <trkpt lat="38.7183870" lon="1.4244470">
        <ele>-0.9</ele>
        <time>2020-02-22T11:56:18Z</time>
      </trkpt>
      <trkpt lat="38.7183300" lon="1.4244800">
        <ele>-0.9</ele>
        <time>2020-02-22T11:56:19Z</time>
      </trkpt>
      <trkpt lat="38.7183300" lon="1.4244800">
        <ele>-0.9</ele>
        <time>2020-02-22T11:56:20Z</time>
      </trkpt>
      <trkpt lat="38.7182170" lon="1.4245480">
        <ele>-0.9</ele>
        <time>2020-02-22T11:56:21Z</time>
      </trkpt>
      <trkpt lat="38.7182170" lon="1.4245480">
        <ele>-0.9</ele>
        <time>2020-02-22T11:56:22Z</time>
      </trkpt>
      <trkpt lat="38.7181030" lon="1.4246130">
        <ele>-0.9</ele>
        <time>2020-02-22T11:56:23Z</time>
      </trkpt>
      <trkpt lat="38.7180480" lon="1.4246470">
        <ele>-0.9</ele>
        <time>2020-02-22T11:56:24Z</time>
      </trkpt>
      <trkpt lat="38.7179920" lon="1.4246780">
        <ele>-0.9</ele>
        <time>2020-02-22T11:56:25Z</time>
      </trkpt>
      <trkpt lat="38.7179920" lon="1.4246780">
        <ele>-0.9</ele>
        <time>2020-02-22T11:56:26Z</time>
      </trkpt>
      <trkpt lat="38.7178800" lon="1.4247430">
        <ele>-0.9</ele>
        <time>2020-02-22T11:56:27Z</time>
      </trkpt>
      <trkpt lat="38.7178800" lon="1.4247430">
        <ele>-0.9</ele>
        <time>2020-02-22T11:56:28Z</time>
      </trkpt>
      <trkpt lat="38.7177700" lon="1.4248070">
        <ele>-0.9</ele>
        <time>2020-02-22T11:56:29Z</time>
      </trkpt>
      <trkpt lat="38.7177700" lon="1.4248070">
        <ele>-0.9</ele>
        <time>2020-02-22T11:56:30Z</time>
      </trkpt>
      <trkpt lat="38.7176600" lon="1.4248670">
        <ele>-0.9</ele>
        <time>2020-02-22T11:56:31Z</time>
      </trkpt>
      <trkpt lat="38.7176600" lon="1.4248670">
        <ele>-0.9</ele>
        <time>2020-02-22T11:56:32Z</time>
      </trkpt>
      <trkpt lat="38.7175530" lon="1.4249330">
        <ele>-0.9</ele>
        <time>2020-02-22T11:56:33Z</time>
      </trkpt>
      <trkpt lat="38.7175530" lon="1.4249330">
        <ele>-0.9</ele>
        <time>2020-02-22T11:56:34Z</time>
      </trkpt>
      <trkpt lat="38.7174480" lon="1.4250000">
        <ele>-0.9</ele>
        <time>2020-02-22T11:56:35Z</time>
      </trkpt>
      <trkpt lat="38.7174480" lon="1.4250000">
        <ele>-0.9</ele>
        <time>2020-02-22T11:56:36Z</time>
      </trkpt>
      <trkpt lat="38.7173450" lon="1.4250620">
        <ele>-0.9</ele>
        <time>2020-02-22T11:56:37Z</time>
      </trkpt>
      <trkpt lat="38.7173450" lon="1.4250620">
        <ele>-0.9</ele>
        <time>2020-02-22T11:56:38Z</time>
      </trkpt>
      <trkpt lat="38.7172420" lon="1.4251130">
        <ele>-0.9</ele>
        <time>2020-02-22T11:56:39Z</time>
      </trkpt>
      <trkpt lat="38.7172420" lon="1.4251130">
        <ele>-0.9</ele>
        <time>2020-02-22T11:56:40Z</time>
      </trkpt>
      <trkpt lat="38.7171420" lon="1.4251700">
        <ele>-0.9</ele>
        <time>2020-02-22T11:56:41Z</time>
      </trkpt>
      <trkpt lat="38.7171420" lon="1.4251700">
        <ele>-0.9</ele>
        <time>2020-02-22T11:56:42Z</time>
      </trkpt>
      <trkpt lat="38.7170430" lon="1.4252250">
        <ele>-0.9</ele>
        <time>2020-02-22T11:56:43Z</time>
      </trkpt>
      <trkpt lat="38.7169970" lon="1.4252530">
        <ele>-0.9</ele>
        <time>2020-02-22T11:56:44Z</time>
      </trkpt>
      <trkpt lat="38.7169970" lon="1.4252530">
        <ele>0.1</ele>
        <time>2020-02-22T11:56:45Z</time>
      </trkpt>
      <trkpt lat="38.7168980" lon="1.4253100">
        <ele>0.1</ele>
        <time>2020-02-22T11:56:46Z</time>
      </trkpt>
      <trkpt lat="38.7168980" lon="1.4253100">
        <ele>0.1</ele>
        <time>2020-02-22T11:56:47Z</time>
      </trkpt>
      <trkpt lat="38.7168020" lon="1.4253680">
        <ele>0.1</ele>
        <time>2020-02-22T11:56:48Z</time>
      </trkpt>
      <trkpt lat="38.7168020" lon="1.4253680">
        <ele>0.1</ele>
        <time>2020-02-22T11:56:49Z</time>
      </trkpt>
      <trkpt lat="38.7167080" lon="1.4254220">
        <ele>0.1</ele>
        <time>2020-02-22T11:56:50Z</time>
      </trkpt>
      <trkpt lat="38.7166630" lon="1.4254470">
        <ele>0.1</ele>
        <time>2020-02-22T11:56:51Z</time>
      </trkpt>
      <trkpt lat="38.7166630" lon="1.4254470">
        <ele>0.1</ele>
        <time>2020-02-22T11:56:52Z</time>
      </trkpt>
      <trkpt lat="38.7165770" lon="1.4254970">
        <ele>1.1</ele>
        <time>2020-02-22T11:56:53Z</time>
      </trkpt>
      <trkpt lat="38.7165770" lon="1.4254970">
        <ele>1.1</ele>
        <time>2020-02-22T11:56:54Z</time>
      </trkpt>
      <trkpt lat="38.7164950" lon="1.4255430">
        <ele>1.1</ele>
        <time>2020-02-22T11:56:55Z</time>
      </trkpt>
      <trkpt lat="38.7164950" lon="1.4255430">
        <ele>1.1</ele>
        <time>2020-02-22T11:56:56Z</time>
      </trkpt>
      <trkpt lat="38.7164150" lon="1.4255880">
        <ele>1.1</ele>
        <time>2020-02-22T11:56:57Z</time>
      </trkpt>
      <trkpt lat="38.7164150" lon="1.4255880">
        <ele>1.1</ele>
        <time>2020-02-22T11:56:58Z</time>
      </trkpt>
      <trkpt lat="38.7163300" lon="1.4256350">
        <ele>1.1</ele>
        <time>2020-02-22T11:56:59Z</time>
      </trkpt>
      <trkpt lat="38.7163300" lon="1.4256350">
        <ele>1.1</ele>
        <time>2020-02-22T11:57:00Z</time>
      </trkpt>
      <trkpt lat="38.7162400" lon="1.4256870">
        <ele>1.1</ele>
        <time>2020-02-22T11:57:01Z</time>
      </trkpt>
      <trkpt lat="38.7161950" lon="1.4257130">
        <ele>1.1</ele>
        <time>2020-02-22T11:57:02Z</time>
      </trkpt>
      <trkpt lat="38.7161950" lon="1.4257130">
        <ele>1.1</ele>
        <time>2020-02-22T11:57:03Z</time>
      </trkpt>
      <trkpt lat="38.7161000" lon="1.4257700">
        <ele>2.1</ele>
        <time>2020-02-22T11:57:04Z</time>
      </trkpt>
      <trkpt lat="38.7161000" lon="1.4257700">
        <ele>2.1</ele>
        <time>2020-02-22T11:57:05Z</time>
      </trkpt>
      <trkpt lat="38.7160070" lon="1.4258230">
        <ele>2.1</ele>
        <time>2020-02-22T11:57:06Z</time>
      </trkpt>
      <trkpt lat="38.7159620" lon="1.4258520">
        <ele>3.1</ele>
        <time>2020-02-22T11:57:07Z</time>
      </trkpt>
      <trkpt lat="38.7159620" lon="1.4258520">
        <ele>3.1</ele>
        <time>2020-02-22T11:57:08Z</time>
      </trkpt>
      <trkpt lat="38.7158630" lon="1.4259100">
        <ele>3.1</ele>
        <time>2020-02-22T11:57:09Z</time>
      </trkpt>
      <trkpt lat="38.7158180" lon="1.4259380">
        <ele>3.1</ele>
        <time>2020-02-22T11:57:10Z</time>
      </trkpt>
      <trkpt lat="38.7158180" lon="1.4259380">
        <ele>3.1</ele>
        <time>2020-02-22T11:57:11Z</time>
      </trkpt>
      <trkpt lat="38.7157220" lon="1.4259930">
        <ele>3.1</ele>
        <time>2020-02-22T11:57:12Z</time>
      </trkpt>
      <trkpt lat="38.7156750" lon="1.4260220">
        <ele>3.1</ele>
        <time>2020-02-22T11:57:13Z</time>
      </trkpt>
      <trkpt lat="38.7156750" lon="1.4260220">
        <ele>3.1</ele>
        <time>2020-02-22T11:57:14Z</time>
      </trkpt>
      <trkpt lat="38.7155820" lon="1.4260780">
        <ele>3.1</ele>
        <time>2020-02-22T11:57:15Z</time>
      </trkpt>
      <trkpt lat="38.7155820" lon="1.4260780">
        <ele>4.1</ele>
        <time>2020-02-22T11:57:16Z</time>
      </trkpt>
      <trkpt lat="38.7155020" lon="1.4261270">
        <ele>4.1</ele>
        <time>2020-02-22T11:57:17Z</time>
      </trkpt>
      <trkpt lat="38.7155020" lon="1.4261270">
        <ele>4.1</ele>
        <time>2020-02-22T11:57:18Z</time>
      </trkpt>
      <trkpt lat="38.7154230" lon="1.4261750">
        <ele>4.1</ele>
        <time>2020-02-22T11:57:19Z</time>
      </trkpt>
      <trkpt lat="38.7154230" lon="1.4261750">
        <ele>4.1</ele>
        <time>2020-02-22T11:57:20Z</time>
      </trkpt>
      <trkpt lat="38.7153370" lon="1.4262200">
        <ele>4.1</ele>
        <time>2020-02-22T11:57:21Z</time>
      </trkpt>
      <trkpt lat="38.7153370" lon="1.4262200">
        <ele>4.1</ele>
        <time>2020-02-22T11:57:22Z</time>
      </trkpt>
      <trkpt lat="38.7152470" lon="1.4262680">
        <ele>5.1</ele>
        <time>2020-02-22T11:57:23Z</time>
      </trkpt>
      <trkpt lat="38.7152470" lon="1.4262680">
        <ele>5.1</ele>
        <time>2020-02-22T11:57:24Z</time>
      </trkpt>
      <trkpt lat="38.7151700" lon="1.4263120">
        <ele>5.1</ele>
        <time>2020-02-22T11:57:25Z</time>
      </trkpt>
      <trkpt lat="38.7151700" lon="1.4263120">
        <ele>5.1</ele>
        <time>2020-02-22T11:57:26Z</time>
      </trkpt>
      <trkpt lat="38.7150870" lon="1.4263580">
        <ele>5.1</ele>
        <time>2020-02-22T11:57:27Z</time>
      </trkpt>
      <trkpt lat="38.7150470" lon="1.4263830">
        <ele>5.1</ele>
        <time>2020-02-22T11:57:28Z</time>
      </trkpt>
      <trkpt lat="38.7150470" lon="1.4263830">
        <ele>5.1</ele>
        <time>2020-02-22T11:57:29Z</time>
      </trkpt>
      <trkpt lat="38.7149680" lon="1.4264320">
        <ele>5.1</ele>
        <time>2020-02-22T11:57:30Z</time>
      </trkpt>
      <trkpt lat="38.7149680" lon="1.4264320">
        <ele>5.1</ele>
        <time>2020-02-22T11:57:31Z</time>
      </trkpt>
      <trkpt lat="38.7148870" lon="1.4264780">
        <ele>5.1</ele>
        <time>2020-02-22T11:57:32Z</time>
      </trkpt>
      <trkpt lat="38.7148870" lon="1.4264780">
        <ele>5.1</ele>
        <time>2020-02-22T11:57:33Z</time>
      </trkpt>
      <trkpt lat="38.7148120" lon="1.4265250">
        <ele>5.1</ele>
        <time>2020-02-22T11:57:34Z</time>
      </trkpt>
      <trkpt lat="38.7148120" lon="1.4265250">
        <ele>6.1</ele>
        <time>2020-02-22T11:57:35Z</time>
      </trkpt>
      <trkpt lat="38.7147400" lon="1.4265670">
        <ele>6.1</ele>
        <time>2020-02-22T11:57:36Z</time>
      </trkpt>
      <trkpt lat="38.7147400" lon="1.4265670">
        <ele>6.1</ele>
        <time>2020-02-22T11:57:37Z</time>
      </trkpt>
      <trkpt lat="38.7146680" lon="1.4266050">
        <ele>6.1</ele>
        <time>2020-02-22T11:57:38Z</time>
      </trkpt>
      <trkpt lat="38.7146330" lon="1.4266250">
        <ele>6.1</ele>
        <time>2020-02-22T11:57:39Z</time>
      </trkpt>
      <trkpt lat="38.7146330" lon="1.4266250">
        <ele>6.1</ele>
        <time>2020-02-22T11:57:40Z</time>
      </trkpt>
      <trkpt lat="38.7145650" lon="1.4266650">
        <ele>6.1</ele>
        <time>2020-02-22T11:57:41Z</time>
      </trkpt>
      <trkpt lat="38.7145650" lon="1.4266650">
        <ele>6.1</ele>
        <time>2020-02-22T11:57:42Z</time>
      </trkpt>
      <trkpt lat="38.7144970" lon="1.4267070">
        <ele>7.1</ele>
        <time>2020-02-22T11:57:43Z</time>
      </trkpt>
      <trkpt lat="38.7144970" lon="1.4267070">
        <ele>7.1</ele>
        <time>2020-02-22T11:57:44Z</time>
      </trkpt>
      <trkpt lat="38.7144250" lon="1.4267480">
        <ele>7.1</ele>
        <time>2020-02-22T11:57:45Z</time>
      </trkpt>
      <trkpt lat="38.7143880" lon="1.4267670">
        <ele>7.1</ele>
        <time>2020-02-22T11:57:46Z</time>
      </trkpt>
      <trkpt lat="38.7143880" lon="1.4267670">
        <ele>7.1</ele>
        <time>2020-02-22T11:57:47Z</time>
      </trkpt>
      <trkpt lat="38.7143170" lon="1.4268030">
        <ele>7.1</ele>
        <time>2020-02-22T11:57:48Z</time>
      </trkpt>
      <trkpt lat="38.7142830" lon="1.4268220">
        <ele>8.1</ele>
        <time>2020-02-22T11:57:49Z</time>
      </trkpt>
      <trkpt lat="38.7142830" lon="1.4268220">
        <ele>8.1</ele>
        <time>2020-02-22T11:57:50Z</time>
      </trkpt>
      <trkpt lat="38.7142150" lon="1.4268600">
        <ele>8.1</ele>
        <time>2020-02-22T11:57:51Z</time>
      </trkpt>
      <trkpt lat="38.7142150" lon="1.4268600">
        <ele>8.1</ele>
        <time>2020-02-22T11:57:52Z</time>
      </trkpt>
      <trkpt lat="38.7141500" lon="1.4269020">
        <ele>8.1</ele>
        <time>2020-02-22T11:57:53Z</time>
      </trkpt>
      <trkpt lat="38.7141170" lon="1.4269220">
        <ele>8.1</ele>
        <time>2020-02-22T11:57:54Z</time>
      </trkpt>
      <trkpt lat="38.7141170" lon="1.4269220">
        <ele>8.1</ele>
        <time>2020-02-22T11:57:55Z</time>
      </trkpt>
      <trkpt lat="38.7140480" lon="1.4269600">
        <ele>8.1</ele>
        <time>2020-02-22T11:57:56Z</time>
      </trkpt>
      <trkpt lat="38.7140130" lon="1.4269820">
        <ele>9.1</ele>
        <time>2020-02-22T11:57:57Z</time>
      </trkpt>
      <trkpt lat="38.7140130" lon="1.4269820">
        <ele>9.1</ele>
        <time>2020-02-22T11:57:58Z</time>
      </trkpt>
      <trkpt lat="38.7139430" lon="1.4270250">
        <ele>9.1</ele>
        <time>2020-02-22T11:57:59Z</time>
      </trkpt>
      <trkpt lat="38.7139050" lon="1.4270470">
        <ele>9.1</ele>
        <time>2020-02-22T11:58:00Z</time>
      </trkpt>
      <trkpt lat="38.7138670" lon="1.4270700">
        <ele>9.1</ele>
        <time>2020-02-22T11:58:01Z</time>
      </trkpt>
      <trkpt lat="38.7138670" lon="1.4270700">
        <ele>9.1</ele>
        <time>2020-02-22T11:58:02Z</time>
      </trkpt>
      <trkpt lat="38.7137870" lon="1.4271170">
        <ele>9.1</ele>
        <time>2020-02-22T11:58:03Z</time>
      </trkpt>
      <trkpt lat="38.7137450" lon="1.4271400">
        <ele>10.1</ele>
        <time>2020-02-22T11:58:04Z</time>
      </trkpt>
      <trkpt lat="38.7137450" lon="1.4271400">
        <ele>10.1</ele>
        <time>2020-02-22T11:58:05Z</time>
      </trkpt>
      <trkpt lat="38.7136620" lon="1.4271830">
        <ele>10.1</ele>
        <time>2020-02-22T11:58:06Z</time>
      </trkpt>
      <trkpt lat="38.7136200" lon="1.4272080">
        <ele>10.1</ele>
        <time>2020-02-22T11:58:07Z</time>
      </trkpt>
      <trkpt lat="38.7136200" lon="1.4272080">
        <ele>10.1</ele>
        <time>2020-02-22T11:58:08Z</time>
      </trkpt>
      <trkpt lat="38.7135350" lon="1.4272650">
        <ele>10.1</ele>
        <time>2020-02-22T11:58:09Z</time>
      </trkpt>
      <trkpt lat="38.7135350" lon="1.4272650">
        <ele>10.1</ele>
        <time>2020-02-22T11:58:10Z</time>
      </trkpt>
      <trkpt lat="38.7134480" lon="1.4273220">
        <ele>10.1</ele>
        <time>2020-02-22T11:58:11Z</time>
      </trkpt>
      <trkpt lat="38.7134480" lon="1.4273220">
        <ele>10.1</ele>
        <time>2020-02-22T11:58:12Z</time>
      </trkpt>
      <trkpt lat="38.7133620" lon="1.4273730">
        <ele>10.1</ele>
        <time>2020-02-22T11:58:13Z</time>
      </trkpt>
      <trkpt lat="38.7133620" lon="1.4273730">
        <ele>10.1</ele>
        <time>2020-02-22T11:58:14Z</time>
      </trkpt>
      <trkpt lat="38.7132720" lon="1.4274230">
        <ele>10.1</ele>
        <time>2020-02-22T11:58:15Z</time>
      </trkpt>
      <trkpt lat="38.7132720" lon="1.4274230">
        <ele>10.1</ele>
        <time>2020-02-22T11:58:16Z</time>
      </trkpt>
      <trkpt lat="38.7131830" lon="1.4274730">
        <ele>10.1</ele>
        <time>2020-02-22T11:58:17Z</time>
      </trkpt>
      <trkpt lat="38.7131830" lon="1.4274730">
        <ele>10.1</ele>
        <time>2020-02-22T11:58:18Z</time>
      </trkpt>
      <trkpt lat="38.7130950" lon="1.4275230">
        <ele>10.1</ele>
        <time>2020-02-22T11:58:19Z</time>
      </trkpt>
      <trkpt lat="38.7130500" lon="1.4275480">
        <ele>10.1</ele>
        <time>2020-02-22T11:58:20Z</time>
      </trkpt>
      <trkpt lat="38.7130500" lon="1.4275480">
        <ele>10.1</ele>
        <time>2020-02-22T11:58:21Z</time>
      </trkpt>
      <trkpt lat="38.7129630" lon="1.4275970">
        <ele>10.1</ele>
        <time>2020-02-22T11:58:22Z</time>
      </trkpt>
      <trkpt lat="38.7129630" lon="1.4275970">
        <ele>11.1</ele>
        <time>2020-02-22T11:58:23Z</time>
      </trkpt>
      <trkpt lat="38.7128770" lon="1.4276480">
        <ele>11.1</ele>
        <time>2020-02-22T11:58:24Z</time>
      </trkpt>
      <trkpt lat="38.7128330" lon="1.4276730">
        <ele>11.1</ele>
        <time>2020-02-22T11:58:25Z</time>
      </trkpt>
      <trkpt lat="38.7128330" lon="1.4276730">
        <ele>11.1</ele>
        <time>2020-02-22T11:58:26Z</time>
      </trkpt>
      <trkpt lat="38.7127470" lon="1.4277250">
        <ele>12.1</ele>
        <time>2020-02-22T11:58:27Z</time>
      </trkpt>
      <trkpt lat="38.7127470" lon="1.4277250">
        <ele>12.1</ele>
        <time>2020-02-22T11:58:28Z</time>
      </trkpt>
      <trkpt lat="38.7126620" lon="1.4277750">
        <ele>12.1</ele>
        <time>2020-02-22T11:58:29Z</time>
      </trkpt>
      <trkpt lat="38.7126200" lon="1.4277970">
        <ele>12.1</ele>
        <time>2020-02-22T11:58:30Z</time>
      </trkpt>
      <trkpt lat="38.7125770" lon="1.4278180">
        <ele>12.1</ele>
        <time>2020-02-22T11:58:31Z</time>
      </trkpt>
      <trkpt lat="38.7125770" lon="1.4278180">
        <ele>12.1</ele>
        <time>2020-02-22T11:58:32Z</time>
      </trkpt>
      <trkpt lat="38.7124920" lon="1.4278670">
        <ele>12.1</ele>
        <time>2020-02-22T11:58:33Z</time>
      </trkpt>
      <trkpt lat="38.7124920" lon="1.4278670">
        <ele>12.1</ele>
        <time>2020-02-22T11:58:34Z</time>
      </trkpt>
      <trkpt lat="38.7124080" lon="1.4279150">
        <ele>13.1</ele>
        <time>2020-02-22T11:58:35Z</time>
      </trkpt>
      <trkpt lat="38.7123680" lon="1.4279380">
        <ele>13.1</ele>
        <time>2020-02-22T11:58:36Z</time>
      </trkpt>
      <trkpt lat="38.7123280" lon="1.4279620">
        <ele>13.1</ele>
        <time>2020-02-22T11:58:37Z</time>
      </trkpt>
      <trkpt lat="38.7123280" lon="1.4279620">
        <ele>13.1</ele>
        <time>2020-02-22T11:58:38Z</time>
      </trkpt>
      <trkpt lat="38.7122520" lon="1.4280080">
        <ele>13.1</ele>
        <time>2020-02-22T11:58:39Z</time>
      </trkpt>
      <trkpt lat="38.7122520" lon="1.4280080">
        <ele>14.1</ele>
        <time>2020-02-22T11:58:40Z</time>
      </trkpt>
      <trkpt lat="38.7121720" lon="1.4280550">
        <ele>14.1</ele>
        <time>2020-02-22T11:58:41Z</time>
      </trkpt>
      <trkpt lat="38.7121720" lon="1.4280550">
        <ele>14.1</ele>
        <time>2020-02-22T11:58:42Z</time>
      </trkpt>
      <trkpt lat="38.7120870" lon="1.4281070">
        <ele>14.1</ele>
        <time>2020-02-22T11:58:43Z</time>
      </trkpt>
      <trkpt lat="38.7120870" lon="1.4281070">
        <ele>14.1</ele>
        <time>2020-02-22T11:58:44Z</time>
      </trkpt>
      <trkpt lat="38.7120000" lon="1.4281580">
        <ele>14.1</ele>
        <time>2020-02-22T11:58:45Z</time>
      </trkpt>
      <trkpt lat="38.7120000" lon="1.4281580">
        <ele>14.1</ele>
        <time>2020-02-22T11:58:46Z</time>
      </trkpt>
      <trkpt lat="38.7119120" lon="1.4282100">
        <ele>14.1</ele>
        <time>2020-02-22T11:58:47Z</time>
      </trkpt>
      <trkpt lat="38.7119120" lon="1.4282100">
        <ele>14.1</ele>
        <time>2020-02-22T11:58:48Z</time>
      </trkpt>
      <trkpt lat="38.7118220" lon="1.4282600">
        <ele>14.1</ele>
        <time>2020-02-22T11:58:49Z</time>
      </trkpt>
      <trkpt lat="38.7118220" lon="1.4282600">
        <ele>14.1</ele>
        <time>2020-02-22T11:58:50Z</time>
      </trkpt>
      <trkpt lat="38.7117300" lon="1.4283130">
        <ele>14.1</ele>
        <time>2020-02-22T11:58:51Z</time>
      </trkpt>
      <trkpt lat="38.7116850" lon="1.4283380">
        <ele>14.1</ele>
        <time>2020-02-22T11:58:52Z</time>
      </trkpt>
      <trkpt lat="38.7116850" lon="1.4283380">
        <ele>14.1</ele>
        <time>2020-02-22T11:58:53Z</time>
      </trkpt>
      <trkpt lat="38.7115930" lon="1.4283900">
        <ele>14.1</ele>
        <time>2020-02-22T11:58:54Z</time>
      </trkpt>
      <trkpt lat="38.7115470" lon="1.4284170">
        <ele>14.1</ele>
        <time>2020-02-22T11:58:55Z</time>
      </trkpt>
      <trkpt lat="38.7115470" lon="1.4284170">
        <ele>14.1</ele>
        <time>2020-02-22T11:58:56Z</time>
      </trkpt>
      <trkpt lat="38.7114520" lon="1.4284720">
        <ele>14.1</ele>
        <time>2020-02-22T11:58:57Z</time>
      </trkpt>
      <trkpt lat="38.7114050" lon="1.4284980">
        <ele>14.1</ele>
        <time>2020-02-22T11:58:58Z</time>
      </trkpt>
      <trkpt lat="38.7114050" lon="1.4284980">
        <ele>14.1</ele>
        <time>2020-02-22T11:58:59Z</time>
      </trkpt>
      <trkpt lat="38.7113100" lon="1.4285530">
        <ele>14.1</ele>
        <time>2020-02-22T11:59:00Z</time>
      </trkpt>
      <trkpt lat="38.7112630" lon="1.4285820">
        <ele>14.1</ele>
        <time>2020-02-22T11:59:01Z</time>
      </trkpt>
      <trkpt lat="38.7112630" lon="1.4285820">
        <ele>14.1</ele>
        <time>2020-02-22T11:59:02Z</time>
      </trkpt>
      <trkpt lat="38.7111720" lon="1.4286350">
        <ele>14.1</ele>
        <time>2020-02-22T11:59:03Z</time>
      </trkpt>
      <trkpt lat="38.7111720" lon="1.4286350">
        <ele>14.1</ele>
        <time>2020-02-22T11:59:04Z</time>
      </trkpt>
      <trkpt lat="38.7110780" lon="1.4286870">
        <ele>14.1</ele>
        <time>2020-02-22T11:59:05Z</time>
      </trkpt>
      <trkpt lat="38.7110780" lon="1.4286870">
        <ele>14.1</ele>
        <time>2020-02-22T11:59:06Z</time>
      </trkpt>
      <trkpt lat="38.7109880" lon="1.4287380">
        <ele>14.1</ele>
        <time>2020-02-22T11:59:07Z</time>
      </trkpt>
      <trkpt lat="38.7109880" lon="1.4287380">
        <ele>14.1</ele>
        <time>2020-02-22T11:59:08Z</time>
      </trkpt>
      <trkpt lat="38.7109020" lon="1.4287880">
        <ele>14.1</ele>
        <time>2020-02-22T11:59:09Z</time>
      </trkpt>
      <trkpt lat="38.7109020" lon="1.4287880">
        <ele>14.1</ele>
        <time>2020-02-22T11:59:10Z</time>
      </trkpt>
      <trkpt lat="38.7108180" lon="1.4288380">
        <ele>14.1</ele>
        <time>2020-02-22T11:59:11Z</time>
      </trkpt>
      <trkpt lat="38.7108180" lon="1.4288380">
        <ele>14.1</ele>
        <time>2020-02-22T11:59:12Z</time>
      </trkpt>
      <trkpt lat="38.7107350" lon="1.4288870">
        <ele>14.1</ele>
        <time>2020-02-22T11:59:13Z</time>
      </trkpt>
      <trkpt lat="38.7107350" lon="1.4288870">
        <ele>14.1</ele>
        <time>2020-02-22T11:59:14Z</time>
      </trkpt>
      <trkpt lat="38.7106530" lon="1.4289330">
        <ele>14.1</ele>
        <time>2020-02-22T11:59:15Z</time>
      </trkpt>
      <trkpt lat="38.7106530" lon="1.4289330">
        <ele>14.1</ele>
        <time>2020-02-22T11:59:16Z</time>
      </trkpt>
      <trkpt lat="38.7105700" lon="1.4289820">
        <ele>14.1</ele>
        <time>2020-02-22T11:59:17Z</time>
      </trkpt>
      <trkpt lat="38.7105700" lon="1.4289820">
        <ele>14.1</ele>
        <time>2020-02-22T11:59:18Z</time>
      </trkpt>
      <trkpt lat="38.7104870" lon="1.4290330">
        <ele>14.1</ele>
        <time>2020-02-22T11:59:19Z</time>
      </trkpt>
      <trkpt lat="38.7104470" lon="1.4290580">
        <ele>14.1</ele>
        <time>2020-02-22T11:59:20Z</time>
      </trkpt>
      <trkpt lat="38.7104070" lon="1.4290830">
        <ele>15.1</ele>
        <time>2020-02-22T11:59:21Z</time>
      </trkpt>
      <trkpt lat="38.7104070" lon="1.4290830">
        <ele>15.1</ele>
        <time>2020-02-22T11:59:22Z</time>
      </trkpt>
      <trkpt lat="38.7103300" lon="1.4291270">
        <ele>15.1</ele>
        <time>2020-02-22T11:59:23Z</time>
      </trkpt>
      <trkpt lat="38.7103300" lon="1.4291270">
        <ele>15.1</ele>
        <time>2020-02-22T11:59:24Z</time>
      </trkpt>
      <trkpt lat="38.7102550" lon="1.4291720">
        <ele>15.1</ele>
        <time>2020-02-22T11:59:25Z</time>
      </trkpt>
      <trkpt lat="38.7102550" lon="1.4291720">
        <ele>15.1</ele>
        <time>2020-02-22T11:59:26Z</time>
      </trkpt>
      <trkpt lat="38.7101750" lon="1.4292130">
        <ele>16.1</ele>
        <time>2020-02-22T11:59:27Z</time>
      </trkpt>
      <trkpt lat="38.7101370" lon="1.4292370">
        <ele>16.1</ele>
        <time>2020-02-22T11:59:28Z</time>
      </trkpt>
      <trkpt lat="38.7101370" lon="1.4292370">
        <ele>16.1</ele>
        <time>2020-02-22T11:59:29Z</time>
      </trkpt>
      <trkpt lat="38.7100630" lon="1.4292870">
        <ele>16.1</ele>
        <time>2020-02-22T11:59:30Z</time>
      </trkpt>
      <trkpt lat="38.7100250" lon="1.4293080">
        <ele>16.1</ele>
        <time>2020-02-22T11:59:31Z</time>
      </trkpt>
      <trkpt lat="38.7100250" lon="1.4293080">
        <ele>16.1</ele>
        <time>2020-02-22T11:59:32Z</time>
      </trkpt>
      <trkpt lat="38.7099530" lon="1.4293470">
        <ele>16.1</ele>
        <time>2020-02-22T11:59:33Z</time>
      </trkpt>
      <trkpt lat="38.7099530" lon="1.4293470">
        <ele>16.1</ele>
        <time>2020-02-22T11:59:34Z</time>
      </trkpt>
      <trkpt lat="38.7098820" lon="1.4293880">
        <ele>16.1</ele>
        <time>2020-02-22T11:59:35Z</time>
      </trkpt>
      <trkpt lat="38.7098820" lon="1.4293880">
        <ele>17.1</ele>
        <time>2020-02-22T11:59:36Z</time>
      </trkpt>
      <trkpt lat="38.7098020" lon="1.4294350">
        <ele>17.1</ele>
        <time>2020-02-22T11:59:37Z</time>
      </trkpt>
      <trkpt lat="38.7098020" lon="1.4294350">
        <ele>17.1</ele>
        <time>2020-02-22T11:59:38Z</time>
      </trkpt>
      <trkpt lat="38.7097220" lon="1.4294820">
        <ele>17.1</ele>
        <time>2020-02-22T11:59:39Z</time>
      </trkpt>
      <trkpt lat="38.7097220" lon="1.4294820">
        <ele>17.1</ele>
        <time>2020-02-22T11:59:40Z</time>
      </trkpt>
      <trkpt lat="38.7096380" lon="1.4295320">
        <ele>17.1</ele>
        <time>2020-02-22T11:59:41Z</time>
      </trkpt>
      <trkpt lat="38.7096380" lon="1.4295320">
        <ele>17.1</ele>
        <time>2020-02-22T11:59:42Z</time>
      </trkpt>
      <trkpt lat="38.7095530" lon="1.4295800">
        <ele>17.1</ele>
        <time>2020-02-22T11:59:43Z</time>
      </trkpt>
      <trkpt lat="38.7095530" lon="1.4295800">
        <ele>18.1</ele>
        <time>2020-02-22T11:59:44Z</time>
      </trkpt>
      <trkpt lat="38.7094630" lon="1.4296300">
        <ele>18.1</ele>
        <time>2020-02-22T11:59:45Z</time>
      </trkpt>
      <trkpt lat="38.7094630" lon="1.4296300">
        <ele>18.1</ele>
        <time>2020-02-22T11:59:46Z</time>
      </trkpt>
      <trkpt lat="38.7093800" lon="1.4296780">
        <ele>18.1</ele>
        <time>2020-02-22T11:59:47Z</time>
      </trkpt>
      <trkpt lat="38.7093800" lon="1.4296780">
        <ele>18.1</ele>
        <time>2020-02-22T11:59:48Z</time>
      </trkpt>
      <trkpt lat="38.7092950" lon="1.4297280">
        <ele>18.1</ele>
        <time>2020-02-22T11:59:49Z</time>
      </trkpt>
      <trkpt lat="38.7092950" lon="1.4297280">
        <ele>18.1</ele>
        <time>2020-02-22T11:59:50Z</time>
      </trkpt>
      <trkpt lat="38.7092080" lon="1.4297800">
        <ele>18.1</ele>
        <time>2020-02-22T11:59:51Z</time>
      </trkpt>
      <trkpt lat="38.7091670" lon="1.4298050">
        <ele>19.1</ele>
        <time>2020-02-22T11:59:52Z</time>
      </trkpt>
      <trkpt lat="38.7091670" lon="1.4298050">
        <ele>19.1</ele>
        <time>2020-02-22T11:59:53Z</time>
      </trkpt>
      <trkpt lat="38.7090880" lon="1.4298520">
        <ele>19.1</ele>
        <time>2020-02-22T11:59:54Z</time>
      </trkpt>
      <trkpt lat="38.7090880" lon="1.4298520">
        <ele>19.1</ele>
        <time>2020-02-22T11:59:55Z</time>
      </trkpt>
      <trkpt lat="38.7090230" lon="1.4298920">
        <ele>19.1</ele>
        <time>2020-02-22T11:59:56Z</time>
      </trkpt>
      <trkpt lat="38.7089930" lon="1.4299070">
        <ele>20.1</ele>
        <time>2020-02-22T11:59:57Z</time>
      </trkpt>
      <trkpt lat="38.7089930" lon="1.4299070">
        <ele>20.1</ele>
        <time>2020-02-22T11:59:58Z</time>
      </trkpt>
      <trkpt lat="38.7089350" lon="1.4299420">
        <ele>20.1</ele>
        <time>2020-02-22T11:59:59Z</time>
      </trkpt>
      <trkpt lat="38.7089000" lon="1.4299630">
        <ele>20.1</ele>
        <time>2020-02-22T12:00:00Z</time>
      </trkpt>
      <trkpt lat="38.7089000" lon="1.4299630">
        <ele>20.1</ele>
        <time>2020-02-22T12:00:01Z</time>
      </trkpt>
      <trkpt lat="38.7088300" lon="1.4300020">
        <ele>20.1</ele>
        <time>2020-02-22T12:00:02Z</time>
      </trkpt>
      <trkpt lat="38.7088300" lon="1.4300020">
        <ele>20.1</ele>
        <time>2020-02-22T12:00:03Z</time>
      </trkpt>
      <trkpt lat="38.7087530" lon="1.4300470">
        <ele>20.1</ele>
        <time>2020-02-22T12:00:04Z</time>
      </trkpt>
      <trkpt lat="38.7087530" lon="1.4300470">
        <ele>20.1</ele>
        <time>2020-02-22T12:00:05Z</time>
      </trkpt>
      <trkpt lat="38.7086730" lon="1.4300900">
        <ele>20.1</ele>
        <time>2020-02-22T12:00:06Z</time>
      </trkpt>
      <trkpt lat="38.7086330" lon="1.4301130">
        <ele>21.1</ele>
        <time>2020-02-22T12:00:07Z</time>
      </trkpt>
      <trkpt lat="38.7086330" lon="1.4301130">
        <ele>21.1</ele>
        <time>2020-02-22T12:00:08Z</time>
      </trkpt>
      <trkpt lat="38.7085480" lon="1.4301620">
        <ele>21.1</ele>
        <time>2020-02-22T12:00:09Z</time>
      </trkpt>
      <trkpt lat="38.7085080" lon="1.4301850">
        <ele>21.1</ele>
        <time>2020-02-22T12:00:10Z</time>
      </trkpt>
      <trkpt lat="38.7085080" lon="1.4301850">
        <ele>21.1</ele>
        <time>2020-02-22T12:00:11Z</time>
      </trkpt>
      <trkpt lat="38.7084350" lon="1.4302300">
        <ele>21.1</ele>
        <time>2020-02-22T12:00:12Z</time>
      </trkpt>
      <trkpt lat="38.7084350" lon="1.4302300">
        <ele>21.1</ele>
        <time>2020-02-22T12:00:13Z</time>
      </trkpt>
      <trkpt lat="38.7083680" lon="1.4302700">
        <ele>22.1</ele>
        <time>2020-02-22T12:00:14Z</time>
      </trkpt>
      <trkpt lat="38.7083350" lon="1.4302880">
        <ele>22.1</ele>
        <time>2020-02-22T12:00:15Z</time>
      </trkpt>
      <trkpt lat="38.7083350" lon="1.4302880">
        <ele>22.1</ele>
        <time>2020-02-22T12:00:16Z</time>
      </trkpt>
      <trkpt lat="38.7082680" lon="1.4303270">
        <ele>22.1</ele>
        <time>2020-02-22T12:00:17Z</time>
      </trkpt>
      <trkpt lat="38.7082680" lon="1.4303270">
        <ele>22.1</ele>
        <time>2020-02-22T12:00:18Z</time>
      </trkpt>
      <trkpt lat="38.7081930" lon="1.4303720">
        <ele>22.1</ele>
        <time>2020-02-22T12:00:19Z</time>
      </trkpt>
      <trkpt lat="38.7081930" lon="1.4303720">
        <ele>22.1</ele>
        <time>2020-02-22T12:00:20Z</time>
      </trkpt>
      <trkpt lat="38.7081180" lon="1.4304220">
        <ele>22.1</ele>
        <time>2020-02-22T12:00:21Z</time>
      </trkpt>
      <trkpt lat="38.7080780" lon="1.4304470">
        <ele>23.1</ele>
        <time>2020-02-22T12:00:22Z</time>
      </trkpt>
      <trkpt lat="38.7080780" lon="1.4304470">
        <ele>23.1</ele>
        <time>2020-02-22T12:00:23Z</time>
      </trkpt>
      <trkpt lat="38.7079930" lon="1.4304930">
        <ele>23.1</ele>
        <time>2020-02-22T12:00:24Z</time>
      </trkpt>
      <trkpt lat="38.7079500" lon="1.4305170">
        <ele>23.1</ele>
        <time>2020-02-22T12:00:25Z</time>
      </trkpt>
      <trkpt lat="38.7079500" lon="1.4305170">
        <ele>23.1</ele>
        <time>2020-02-22T12:00:26Z</time>
      </trkpt>
      <trkpt lat="38.7078650" lon="1.4305680">
        <ele>23.1</ele>
        <time>2020-02-22T12:00:27Z</time>
      </trkpt>
      <trkpt lat="38.7078650" lon="1.4305680">
        <ele>22.1</ele>
        <time>2020-02-22T12:00:28Z</time>
      </trkpt>
      <trkpt lat="38.7077770" lon="1.4306180">
        <ele>22.1</ele>
        <time>2020-02-22T12:00:29Z</time>
      </trkpt>
      <trkpt lat="38.7077770" lon="1.4306180">
        <ele>22.1</ele>
        <time>2020-02-22T12:00:30Z</time>
      </trkpt>
      <trkpt lat="38.7076880" lon="1.4306700">
        <ele>22.1</ele>
        <time>2020-02-22T12:00:31Z</time>
      </trkpt>
      <trkpt lat="38.7076430" lon="1.4306950">
        <ele>22.1</ele>
        <time>2020-02-22T12:00:32Z</time>
      </trkpt>
      <trkpt lat="38.7075970" lon="1.4307220">
        <ele>22.1</ele>
        <time>2020-02-22T12:00:33Z</time>
      </trkpt>
      <trkpt lat="38.7075970" lon="1.4307220">
        <ele>22.1</ele>
        <time>2020-02-22T12:00:34Z</time>
      </trkpt>
      <trkpt lat="38.7075100" lon="1.4307730">
        <ele>22.1</ele>
        <time>2020-02-22T12:00:35Z</time>
      </trkpt>
      <trkpt lat="38.7075100" lon="1.4307730">
        <ele>22.1</ele>
        <time>2020-02-22T12:00:36Z</time>
      </trkpt>
      <trkpt lat="38.7074250" lon="1.4308200">
        <ele>22.1</ele>
        <time>2020-02-22T12:00:37Z</time>
      </trkpt>
      <trkpt lat="38.7074250" lon="1.4308200">
        <ele>22.1</ele>
        <time>2020-02-22T12:00:38Z</time>
      </trkpt>
      <trkpt lat="38.7073370" lon="1.4308650">
        <ele>22.1</ele>
        <time>2020-02-22T12:00:39Z</time>
      </trkpt>
      <trkpt lat="38.7073370" lon="1.4308650">
        <ele>22.1</ele>
        <time>2020-02-22T12:00:40Z</time>
      </trkpt>
      <trkpt lat="38.7072470" lon="1.4308900">
        <ele>22.1</ele>
        <time>2020-02-22T12:00:41Z</time>
      </trkpt>
      <trkpt lat="38.7072020" lon="1.4308730">
        <ele>22.1</ele>
        <time>2020-02-22T12:00:42Z</time>
      </trkpt>
      <trkpt lat="38.7072020" lon="1.4308730">
        <ele>22.1</ele>
        <time>2020-02-22T12:00:43Z</time>
      </trkpt>
      <trkpt lat="38.7071320" lon="1.4308100">
        <ele>22.1</ele>
        <time>2020-02-22T12:00:44Z</time>
      </trkpt>
      <trkpt lat="38.7070980" lon="1.4307980">
        <ele>22.1</ele>
        <time>2020-02-22T12:00:45Z</time>
      </trkpt>
      <trkpt lat="38.7070600" lon="1.4308000">
        <ele>22.1</ele>
        <time>2020-02-22T12:00:46Z</time>
      </trkpt>
      <trkpt lat="38.7070600" lon="1.4308000">
        <ele>23.1</ele>
        <time>2020-02-22T12:00:47Z</time>
      </trkpt>
      <trkpt lat="38.7069880" lon="1.4308130">
        <ele>23.1</ele>
        <time>2020-02-22T12:00:48Z</time>
      </trkpt>
      <trkpt lat="38.7069580" lon="1.4308200">
        <ele>23.1</ele>
        <time>2020-02-22T12:00:49Z</time>
      </trkpt>
      <trkpt lat="38.7069580" lon="1.4308200">
        <ele>24.1</ele>
        <time>2020-02-22T12:00:50Z</time>
      </trkpt>
      <trkpt lat="38.7069220" lon="1.4308530">
        <ele>24.1</ele>
        <time>2020-02-22T12:00:51Z</time>
      </trkpt>
      <trkpt lat="38.7069220" lon="1.4308530">
        <ele>24.1</ele>
        <time>2020-02-22T12:00:52Z</time>
      </trkpt>
      <trkpt lat="38.7069120" lon="1.4308620">
        <ele>24.1</ele>
        <time>2020-02-22T12:00:53Z</time>
      </trkpt>
      <trkpt lat="38.7069120" lon="1.4308620">
        <ele>24.1</ele>
        <time>2020-02-22T12:01:12Z</time>
      </trkpt>
      <trkpt lat="38.7069070" lon="1.4309320">
        <ele>24.1</ele>
        <time>2020-02-22T12:01:13Z</time>
      </trkpt>
      <trkpt lat="38.7069070" lon="1.4309320">
        <ele>24.1</ele>
        <time>2020-02-22T12:01:14Z</time>
      </trkpt>
      <trkpt lat="38.7068980" lon="1.4309820">
        <ele>24.1</ele>
        <time>2020-02-22T12:01:15Z</time>
      </trkpt>
      <trkpt lat="38.7068980" lon="1.4309820">
        <ele>24.1</ele>
        <time>2020-02-22T12:01:16Z</time>
      </trkpt>
      <trkpt lat="38.7068880" lon="1.4310480">
        <ele>24.1</ele>
        <time>2020-02-22T12:01:17Z</time>
      </trkpt>
      <trkpt lat="38.7068880" lon="1.4310480">
        <ele>24.1</ele>
        <time>2020-02-22T12:01:18Z</time>
      </trkpt>
      <trkpt lat="38.7068520" lon="1.4311250">
        <ele>24.1</ele>
        <time>2020-02-22T12:01:19Z</time>
      </trkpt>
      <trkpt lat="38.7068230" lon="1.4311600">
        <ele>24.1</ele>
        <time>2020-02-22T12:01:20Z</time>
      </trkpt>
      <trkpt lat="38.7068230" lon="1.4311600">
        <ele>24.1</ele>
        <time>2020-02-22T12:01:21Z</time>
      </trkpt>
      <trkpt lat="38.7067520" lon="1.4312220">
        <ele>23.1</ele>
        <time>2020-02-22T12:01:22Z</time>
      </trkpt>
      <trkpt lat="38.7067150" lon="1.4312500">
        <ele>23.1</ele>
        <time>2020-02-22T12:01:23Z</time>
      </trkpt>
      <trkpt lat="38.7067150" lon="1.4312500">
        <ele>23.1</ele>
        <time>2020-02-22T12:01:24Z</time>
      </trkpt>
      <trkpt lat="38.7066400" lon="1.4313080">
        <ele>23.1</ele>
        <time>2020-02-22T12:01:25Z</time>
      </trkpt>
      <trkpt lat="38.7066400" lon="1.4313080">
        <ele>23.1</ele>
        <time>2020-02-22T12:01:26Z</time>
      </trkpt>
      <trkpt lat="38.7065550" lon="1.4313730">
        <ele>22.1</ele>
        <time>2020-02-22T12:01:27Z</time>
      </trkpt>
      <trkpt lat="38.7065550" lon="1.4313730">
        <ele>22.1</ele>
        <time>2020-02-22T12:01:28Z</time>
      </trkpt>
      <trkpt lat="38.7064650" lon="1.4314450">
        <ele>22.1</ele>
        <time>2020-02-22T12:01:29Z</time>
      </trkpt>
      <trkpt lat="38.7064650" lon="1.4314450">
        <ele>22.1</ele>
        <time>2020-02-22T12:01:30Z</time>
      </trkpt>
      <trkpt lat="38.7063730" lon="1.4315280">
        <ele>22.1</ele>
        <time>2020-02-22T12:01:31Z</time>
      </trkpt>
      <trkpt lat="38.7063270" lon="1.4315780">
        <ele>22.1</ele>
        <time>2020-02-22T12:01:32Z</time>
      </trkpt>
      <trkpt lat="38.7063270" lon="1.4315780">
        <ele>22.1</ele>
        <time>2020-02-22T12:01:33Z</time>
      </trkpt>
      <trkpt lat="38.7062280" lon="1.4316970">
        <ele>22.1</ele>
        <time>2020-02-22T12:01:34Z</time>
      </trkpt>
      <trkpt lat="38.7062280" lon="1.4316970">
        <ele>21.1</ele>
        <time>2020-02-22T12:01:35Z</time>
      </trkpt>
      <trkpt lat="38.7061270" lon="1.4318300">
        <ele>21.1</ele>
        <time>2020-02-22T12:01:36Z</time>
      </trkpt>
      <trkpt lat="38.7060780" lon="1.4319030">
        <ele>20.1</ele>
        <time>2020-02-22T12:01:37Z</time>
      </trkpt>
      <trkpt lat="38.7060780" lon="1.4319030">
        <ele>20.1</ele>
        <time>2020-02-22T12:01:38Z</time>
      </trkpt>
      <trkpt lat="38.7059830" lon="1.4320580">
        <ele>20.1</ele>
        <time>2020-02-22T12:01:39Z</time>
      </trkpt>
      <trkpt lat="38.7059370" lon="1.4321370">
        <ele>20.1</ele>
        <time>2020-02-22T12:01:40Z</time>
      </trkpt>
      <trkpt lat="38.7059370" lon="1.4321370">
        <ele>18.1</ele>
        <time>2020-02-22T12:01:41Z</time>
      </trkpt>
      <trkpt lat="38.7058550" lon="1.4323020">
        <ele>18.1</ele>
        <time>2020-02-22T12:01:42Z</time>
      </trkpt>
      <trkpt lat="38.7058180" lon="1.4323880">
        <ele>18.1</ele>
        <time>2020-02-22T12:01:43Z</time>
      </trkpt>
      <trkpt lat="38.7058180" lon="1.4323880">
        <ele>18.1</ele>
        <time>2020-02-22T12:01:44Z</time>
      </trkpt>
      <trkpt lat="38.7057550" lon="1.4325670">
        <ele>17.1</ele>
        <time>2020-02-22T12:01:45Z</time>
      </trkpt>
      <trkpt lat="38.7057550" lon="1.4325670">
        <ele>17.1</ele>
        <time>2020-02-22T12:01:46Z</time>
      </trkpt>
      <trkpt lat="38.7056680" lon="1.4327250">
        <ele>17.1</ele>
        <time>2020-02-22T12:01:47Z</time>
      </trkpt>
      <trkpt lat="38.7056680" lon="1.4327250">
        <ele>17.1</ele>
        <time>2020-02-22T12:01:48Z</time>
      </trkpt>
      <trkpt lat="38.7056070" lon="1.4328820">
        <ele>17.1</ele>
        <time>2020-02-22T12:01:49Z</time>
      </trkpt>
      <trkpt lat="38.7056070" lon="1.4328820">
        <ele>17.1</ele>
        <time>2020-02-22T12:01:50Z</time>
      </trkpt>
      <trkpt lat="38.7056150" lon="1.4330580">
        <ele>17.1</ele>
        <time>2020-02-22T12:01:51Z</time>
      </trkpt>
      <trkpt lat="38.7056150" lon="1.4330580">
        <ele>17.1</ele>
        <time>2020-02-22T12:01:52Z</time>
      </trkpt>
      <trkpt lat="38.7056400" lon="1.4332500">
        <ele>17.1</ele>
        <time>2020-02-22T12:01:53Z</time>
      </trkpt>
      <trkpt lat="38.7056400" lon="1.4332500">
        <ele>16.1</ele>
        <time>2020-02-22T12:01:54Z</time>
      </trkpt>
      <trkpt lat="38.7056500" lon="1.4334570">
        <ele>16.1</ele>
        <time>2020-02-22T12:01:55Z</time>
      </trkpt>
      <trkpt lat="38.7056520" lon="1.4335600">
        <ele>16.1</ele>
        <time>2020-02-22T12:01:56Z</time>
      </trkpt>
      <trkpt lat="38.7056520" lon="1.4335600">
        <ele>16.1</ele>
        <time>2020-02-22T12:01:57Z</time>
      </trkpt>
      <trkpt lat="38.7056600" lon="1.4337670">
        <ele>16.1</ele>
        <time>2020-02-22T12:01:58Z</time>
      </trkpt>
      <trkpt lat="38.7056600" lon="1.4337670">
        <ele>16.1</ele>
        <time>2020-02-22T12:01:59Z</time>
      </trkpt>
      <trkpt lat="38.7056620" lon="1.4339720">
        <ele>14.1</ele>
        <time>2020-02-22T12:02:00Z</time>
      </trkpt>
      <trkpt lat="38.7056620" lon="1.4340720">
        <ele>14.1</ele>
        <time>2020-02-22T12:02:01Z</time>
      </trkpt>
      <trkpt lat="38.7056620" lon="1.4340720">
        <ele>14.1</ele>
        <time>2020-02-22T12:02:02Z</time>
      </trkpt>
      <trkpt lat="38.7056670" lon="1.4342680">
        <ele>14.1</ele>
        <time>2020-02-22T12:02:03Z</time>
      </trkpt>
      <trkpt lat="38.7056670" lon="1.4342680">
        <ele>14.1</ele>
        <time>2020-02-22T12:02:04Z</time>
      </trkpt>
      <trkpt lat="38.7056730" lon="1.4344570">
        <ele>14.1</ele>
        <time>2020-02-22T12:02:05Z</time>
      </trkpt>
      <trkpt lat="38.7056730" lon="1.4344570">
        <ele>14.1</ele>
        <time>2020-02-22T12:02:06Z</time>
      </trkpt>
      <trkpt lat="38.7056800" lon="1.4346370">
        <ele>14.1</ele>
        <time>2020-02-22T12:02:07Z</time>
      </trkpt>
      <trkpt lat="38.7056800" lon="1.4346370">
        <ele>14.1</ele>
        <time>2020-02-22T12:02:08Z</time>
      </trkpt>
      <trkpt lat="38.7056850" lon="1.4348050">
        <ele>14.1</ele>
        <time>2020-02-22T12:02:09Z</time>
      </trkpt>
      <trkpt lat="38.7056850" lon="1.4348050">
        <ele>14.1</ele>
        <time>2020-02-22T12:02:10Z</time>
      </trkpt>
      <trkpt lat="38.7056880" lon="1.4349520">
        <ele>14.1</ele>
        <time>2020-02-22T12:02:11Z</time>
      </trkpt>
      <trkpt lat="38.7056880" lon="1.4349520">
        <ele>14.1</ele>
        <time>2020-02-22T12:02:12Z</time>
      </trkpt>
      <trkpt lat="38.7056900" lon="1.4350850">
        <ele>14.1</ele>
        <time>2020-02-22T12:02:13Z</time>
      </trkpt>
      <trkpt lat="38.7056920" lon="1.4351500">
        <ele>14.1</ele>
        <time>2020-02-22T12:02:14Z</time>
      </trkpt>
      <trkpt lat="38.7056920" lon="1.4351500">
        <ele>14.1</ele>
        <time>2020-02-22T12:02:15Z</time>
      </trkpt>
      <trkpt lat="38.7056950" lon="1.4352750">
        <ele>14.1</ele>
        <time>2020-02-22T12:02:16Z</time>
      </trkpt>
      <trkpt lat="38.7056980" lon="1.4353370">
        <ele>14.1</ele>
        <time>2020-02-22T12:02:17Z</time>
      </trkpt>
      <trkpt lat="38.7056980" lon="1.4353370">
        <ele>14.1</ele>
        <time>2020-02-22T12:02:18Z</time>
      </trkpt>
      <trkpt lat="38.7057030" lon="1.4354550">
        <ele>14.1</ele>
        <time>2020-02-22T12:02:19Z</time>
      </trkpt>
      <trkpt lat="38.7057050" lon="1.4355120">
        <ele>14.1</ele>
        <time>2020-02-22T12:02:20Z</time>
      </trkpt>
      <trkpt lat="38.7057050" lon="1.4355120">
        <ele>14.1</ele>
        <time>2020-02-22T12:02:21Z</time>
      </trkpt>
      <trkpt lat="38.7057100" lon="1.4356250">
        <ele>14.1</ele>
        <time>2020-02-22T12:02:22Z</time>
      </trkpt>
      <trkpt lat="38.7057100" lon="1.4356250">
        <ele>14.1</ele>
        <time>2020-02-22T12:02:23Z</time>
      </trkpt>
      <trkpt lat="38.7057120" lon="1.4357420">
        <ele>14.1</ele>
        <time>2020-02-22T12:02:24Z</time>
      </trkpt>
      <trkpt lat="38.7057150" lon="1.4358000">
        <ele>14.1</ele>
        <time>2020-02-22T12:02:25Z</time>
      </trkpt>
      <trkpt lat="38.7057150" lon="1.4358000">
        <ele>14.1</ele>
        <time>2020-02-22T12:02:26Z</time>
      </trkpt>
      <trkpt lat="38.7057200" lon="1.4359200">
        <ele>14.1</ele>
        <time>2020-02-22T12:02:27Z</time>
      </trkpt>
      <trkpt lat="38.7057200" lon="1.4359200">
        <ele>14.1</ele>
        <time>2020-02-22T12:02:28Z</time>
      </trkpt>
      <trkpt lat="38.7057220" lon="1.4360430">
        <ele>14.1</ele>
        <time>2020-02-22T12:02:29Z</time>
      </trkpt>
      <trkpt lat="38.7057220" lon="1.4360430">
        <ele>14.1</ele>
        <time>2020-02-22T12:02:30Z</time>
      </trkpt>
      <trkpt lat="38.7057270" lon="1.4361730">
        <ele>14.1</ele>
        <time>2020-02-22T12:02:31Z</time>
      </trkpt>
      <trkpt lat="38.7057280" lon="1.4362400">
        <ele>14.1</ele>
        <time>2020-02-22T12:02:32Z</time>
      </trkpt>
      <trkpt lat="38.7057320" lon="1.4363070">
        <ele>14.1</ele>
        <time>2020-02-22T12:02:33Z</time>
      </trkpt>
      <trkpt lat="38.7057330" lon="1.4363730">
        <ele>14.1</ele>
        <time>2020-02-22T12:02:34Z</time>
      </trkpt>
      <trkpt lat="38.7057330" lon="1.4363730">
        <ele>14.1</ele>
        <time>2020-02-22T12:02:35Z</time>
      </trkpt>
      <trkpt lat="38.7057420" lon="1.4365030">
        <ele>14.1</ele>
        <time>2020-02-22T12:02:36Z</time>
      </trkpt>
      <trkpt lat="38.7057430" lon="1.4365700">
        <ele>14.1</ele>
        <time>2020-02-22T12:02:37Z</time>
      </trkpt>
      <trkpt lat="38.7057430" lon="1.4365700">
        <ele>14.1</ele>
        <time>2020-02-22T12:02:38Z</time>
      </trkpt>
      <trkpt lat="38.7057420" lon="1.4367030">
        <ele>13.1</ele>
        <time>2020-02-22T12:02:39Z</time>
      </trkpt>
      <trkpt lat="38.7057420" lon="1.4367030">
        <ele>13.1</ele>
        <time>2020-02-22T12:02:40Z</time>
      </trkpt>
      <trkpt lat="38.7057430" lon="1.4368400">
        <ele>13.1</ele>
        <time>2020-02-22T12:02:41Z</time>
      </trkpt>
      <trkpt lat="38.7057450" lon="1.4369100">
        <ele>13.1</ele>
        <time>2020-02-22T12:02:42Z</time>
      </trkpt>
      <trkpt lat="38.7057450" lon="1.4369100">
        <ele>13.1</ele>
        <time>2020-02-22T12:02:43Z</time>
      </trkpt>
      <trkpt lat="38.7057530" lon="1.4370470">
        <ele>13.1</ele>
        <time>2020-02-22T12:02:44Z</time>
      </trkpt>
      <trkpt lat="38.7057570" lon="1.4371150">
        <ele>13.1</ele>
        <time>2020-02-22T12:02:45Z</time>
      </trkpt>
      <trkpt lat="38.7057570" lon="1.4371150">
        <ele>13.1</ele>
        <time>2020-02-22T12:02:46Z</time>
      </trkpt>
      <trkpt lat="38.7057620" lon="1.4372480">
        <ele>13.1</ele>
        <time>2020-02-22T12:02:47Z</time>
      </trkpt>
      <trkpt lat="38.7057620" lon="1.4372480">
        <ele>13.1</ele>
        <time>2020-02-22T12:02:48Z</time>
      </trkpt>
      <trkpt lat="38.7057650" lon="1.4373770">
        <ele>13.1</ele>
        <time>2020-02-22T12:02:49Z</time>
      </trkpt>
      <trkpt lat="38.7057650" lon="1.4373770">
        <ele>13.1</ele>
        <time>2020-02-22T12:02:50Z</time>
      </trkpt>
      <trkpt lat="38.7057720" lon="1.4375070">
        <ele>13.1</ele>
        <time>2020-02-22T12:02:51Z</time>
      </trkpt>
      <trkpt lat="38.7057750" lon="1.4375750">
        <ele>13.1</ele>
        <time>2020-02-22T12:02:52Z</time>
      </trkpt>
      <trkpt lat="38.7057750" lon="1.4375750">
        <ele>13.1</ele>
        <time>2020-02-22T12:02:53Z</time>
      </trkpt>
      <trkpt lat="38.7057820" lon="1.4377130">
        <ele>13.1</ele>
        <time>2020-02-22T12:02:54Z</time>
      </trkpt>
      <trkpt lat="38.7057870" lon="1.4377850">
        <ele>13.1</ele>
        <time>2020-02-22T12:02:55Z</time>
      </trkpt>
      <trkpt lat="38.7057870" lon="1.4377850">
        <ele>13.1</ele>
        <time>2020-02-22T12:02:56Z</time>
      </trkpt>
      <trkpt lat="38.7058030" lon="1.4379320">
        <ele>13.1</ele>
        <time>2020-02-22T12:02:57Z</time>
      </trkpt>
      <trkpt lat="38.7058130" lon="1.4380070">
        <ele>13.1</ele>
        <time>2020-02-22T12:02:58Z</time>
      </trkpt>
      <trkpt lat="38.7058130" lon="1.4380070">
        <ele>13.1</ele>
        <time>2020-02-22T12:02:59Z</time>
      </trkpt>
      <trkpt lat="38.7058430" lon="1.4381600">
        <ele>13.1</ele>
        <time>2020-02-22T12:03:00Z</time>
      </trkpt>
      <trkpt lat="38.7058430" lon="1.4381600">
        <ele>13.1</ele>
        <time>2020-02-22T12:03:01Z</time>
      </trkpt>
      <trkpt lat="38.7058770" lon="1.4383100">
        <ele>13.1</ele>
        <time>2020-02-22T12:03:02Z</time>
      </trkpt>
      <trkpt lat="38.7058950" lon="1.4383830">
        <ele>13.1</ele>
        <time>2020-02-22T12:03:03Z</time>
      </trkpt>
      <trkpt lat="38.7058950" lon="1.4383830">
        <ele>13.1</ele>
        <time>2020-02-22T12:03:04Z</time>
      </trkpt>
      <trkpt lat="38.7059300" lon="1.4385280">
        <ele>13.1</ele>
        <time>2020-02-22T12:03:05Z</time>
      </trkpt>
      <trkpt lat="38.7059300" lon="1.4385280">
        <ele>12.1</ele>
        <time>2020-02-22T12:03:06Z</time>
      </trkpt>
      <trkpt lat="38.7059680" lon="1.4386680">
        <ele>12.1</ele>
        <time>2020-02-22T12:03:07Z</time>
      </trkpt>
      <trkpt lat="38.7059680" lon="1.4386680">
        <ele>12.1</ele>
        <time>2020-02-22T12:03:08Z</time>
      </trkpt>
      <trkpt lat="38.7060130" lon="1.4388050">
        <ele>12.1</ele>
        <time>2020-02-22T12:03:09Z</time>
      </trkpt>
      <trkpt lat="38.7060380" lon="1.4388700">
        <ele>12.1</ele>
        <time>2020-02-22T12:03:10Z</time>
      </trkpt>
      <trkpt lat="38.7060380" lon="1.4388700">
        <ele>12.1</ele>
        <time>2020-02-22T12:03:11Z</time>
      </trkpt>
      <trkpt lat="38.7060920" lon="1.4390020">
        <ele>12.1</ele>
        <time>2020-02-22T12:03:12Z</time>
      </trkpt>
      <trkpt lat="38.7061220" lon="1.4390650">
        <ele>12.1</ele>
        <time>2020-02-22T12:03:13Z</time>
      </trkpt>
      <trkpt lat="38.7061220" lon="1.4390650">
        <ele>12.1</ele>
        <time>2020-02-22T12:03:14Z</time>
      </trkpt>
      <trkpt lat="38.7061820" lon="1.4391880">
        <ele>12.1</ele>
        <time>2020-02-22T12:03:15Z</time>
      </trkpt>
      <trkpt lat="38.7061820" lon="1.4391880">
        <ele>12.1</ele>
        <time>2020-02-22T12:03:16Z</time>
      </trkpt>
      <trkpt lat="38.7062470" lon="1.4393080">
        <ele>12.1</ele>
        <time>2020-02-22T12:03:17Z</time>
      </trkpt>
      <trkpt lat="38.7062820" lon="1.4393670">
        <ele>12.1</ele>
        <time>2020-02-22T12:03:18Z</time>
      </trkpt>
      <trkpt lat="38.7063180" lon="1.4394270">
        <ele>12.1</ele>
        <time>2020-02-22T12:03:19Z</time>
      </trkpt>
      <trkpt lat="38.7063180" lon="1.4394270">
        <ele>11.1</ele>
        <time>2020-02-22T12:03:20Z</time>
      </trkpt>
      <trkpt lat="38.7063870" lon="1.4395450">
        <ele>11.1</ele>
        <time>2020-02-22T12:03:21Z</time>
      </trkpt>
      <trkpt lat="38.7063870" lon="1.4395450">
        <ele>11.1</ele>
        <time>2020-02-22T12:03:22Z</time>
      </trkpt>
      <trkpt lat="38.7064530" lon="1.4396650">
        <ele>11.1</ele>
        <time>2020-02-22T12:03:23Z</time>
      </trkpt>
      <trkpt lat="38.7064870" lon="1.4397230">
        <ele>11.1</ele>
        <time>2020-02-22T12:03:24Z</time>
      </trkpt>
      <trkpt lat="38.7064870" lon="1.4397230">
        <ele>11.1</ele>
        <time>2020-02-22T12:03:25Z</time>
      </trkpt>
      <trkpt lat="38.7065520" lon="1.4398450">
        <ele>11.1</ele>
        <time>2020-02-22T12:03:26Z</time>
      </trkpt>
      <trkpt lat="38.7065870" lon="1.4399070">
        <ele>11.1</ele>
        <time>2020-02-22T12:03:27Z</time>
      </trkpt>
      <trkpt lat="38.7065870" lon="1.4399070">
        <ele>11.1</ele>
        <time>2020-02-22T12:03:28Z</time>
      </trkpt>
      <trkpt lat="38.7066580" lon="1.4400330">
        <ele>11.1</ele>
        <time>2020-02-22T12:03:29Z</time>
      </trkpt>
      <trkpt lat="38.7066580" lon="1.4400330">
        <ele>11.1</ele>
        <time>2020-02-22T12:03:30Z</time>
      </trkpt>
      <trkpt lat="38.7067280" lon="1.4401620">
        <ele>11.1</ele>
        <time>2020-02-22T12:03:31Z</time>
      </trkpt>
      <trkpt lat="38.7067280" lon="1.4401620">
        <ele>11.1</ele>
        <time>2020-02-22T12:03:32Z</time>
      </trkpt>
      <trkpt lat="38.7068020" lon="1.4402920">
        <ele>10.1</ele>
        <time>2020-02-22T12:03:33Z</time>
      </trkpt>
      <trkpt lat="38.7068020" lon="1.4402920">
        <ele>10.1</ele>
        <time>2020-02-22T12:03:34Z</time>
      </trkpt>
      <trkpt lat="38.7068750" lon="1.4404200">
        <ele>10.1</ele>
        <time>2020-02-22T12:03:35Z</time>
      </trkpt>
      <trkpt lat="38.7069100" lon="1.4404850">
        <ele>10.1</ele>
        <time>2020-02-22T12:03:36Z</time>
      </trkpt>
      <trkpt lat="38.7069100" lon="1.4404850">
        <ele>10.1</ele>
        <time>2020-02-22T12:03:37Z</time>
      </trkpt>
      <trkpt lat="38.7069820" lon="1.4406170">
        <ele>10.1</ele>
        <time>2020-02-22T12:03:38Z</time>
      </trkpt>
      <trkpt lat="38.7069820" lon="1.4406170">
        <ele>10.1</ele>
        <time>2020-02-22T12:03:39Z</time>
      </trkpt>
      <trkpt lat="38.7070530" lon="1.4407520">
        <ele>9.1</ele>
        <time>2020-02-22T12:03:40Z</time>
      </trkpt>
      <trkpt lat="38.7070530" lon="1.4407520">
        <ele>9.1</ele>
        <time>2020-02-22T12:03:41Z</time>
      </trkpt>
      <trkpt lat="38.7071270" lon="1.4408870">
        <ele>9.1</ele>
        <time>2020-02-22T12:03:42Z</time>
      </trkpt>
      <trkpt lat="38.7071270" lon="1.4408870">
        <ele>9.1</ele>
        <time>2020-02-22T12:03:43Z</time>
      </trkpt>
      <trkpt lat="38.7071980" lon="1.4410180">
        <ele>9.1</ele>
        <time>2020-02-22T12:03:44Z</time>
      </trkpt>
      <trkpt lat="38.7072350" lon="1.4410830">
        <ele>9.1</ele>
        <time>2020-02-22T12:03:45Z</time>
      </trkpt>
      <trkpt lat="38.7072350" lon="1.4410830">
        <ele>9.1</ele>
        <time>2020-02-22T12:03:46Z</time>
      </trkpt>
      <trkpt lat="38.7073070" lon="1.4412100">
        <ele>9.1</ele>
        <time>2020-02-22T12:03:47Z</time>
      </trkpt>
      <trkpt lat="38.7073420" lon="1.4412730">
        <ele>9.1</ele>
        <time>2020-02-22T12:03:48Z</time>
      </trkpt>
      <trkpt lat="38.7073420" lon="1.4412730">
        <ele>9.1</ele>
        <time>2020-02-22T12:03:49Z</time>
      </trkpt>
      <trkpt lat="38.7074130" lon="1.4414030">
        <ele>9.1</ele>
        <time>2020-02-22T12:03:50Z</time>
      </trkpt>
      <trkpt lat="38.7074500" lon="1.4414670">
        <ele>9.1</ele>
        <time>2020-02-22T12:03:51Z</time>
      </trkpt>
      <trkpt lat="38.7074500" lon="1.4414670">
        <ele>9.1</ele>
        <time>2020-02-22T12:03:52Z</time>
      </trkpt>
      <trkpt lat="38.7075220" lon="1.4415950">
        <ele>9.1</ele>
        <time>2020-02-22T12:03:53Z</time>
      </trkpt>
      <trkpt lat="38.7075220" lon="1.4415950">
        <ele>9.1</ele>
        <time>2020-02-22T12:03:54Z</time>
      </trkpt>
      <trkpt lat="38.7075920" lon="1.4417200">
        <ele>9.1</ele>
        <time>2020-02-22T12:03:55Z</time>
      </trkpt>
      <trkpt lat="38.7075920" lon="1.4417200">
        <ele>9.1</ele>
        <time>2020-02-22T12:03:56Z</time>
      </trkpt>
      <trkpt lat="38.7076620" lon="1.4418450">
        <ele>9.1</ele>
        <time>2020-02-22T12:03:57Z</time>
      </trkpt>
      <trkpt lat="38.7076620" lon="1.4418450">
        <ele>9.1</ele>
        <time>2020-02-22T12:03:58Z</time>
      </trkpt>
      <trkpt lat="38.7077280" lon="1.4419650">
        <ele>9.1</ele>
        <time>2020-02-22T12:03:59Z</time>
      </trkpt>
      <trkpt lat="38.7077280" lon="1.4419650">
        <ele>9.1</ele>
        <time>2020-02-22T12:04:00Z</time>
      </trkpt>
      <trkpt lat="38.7077970" lon="1.4420830">
        <ele>9.1</ele>
        <time>2020-02-22T12:04:01Z</time>
      </trkpt>
      <trkpt lat="38.7077970" lon="1.4420830">
        <ele>9.1</ele>
        <time>2020-02-22T12:04:02Z</time>
      </trkpt>
      <trkpt lat="38.7078620" lon="1.4422050">
        <ele>9.1</ele>
        <time>2020-02-22T12:04:03Z</time>
      </trkpt>
      <trkpt lat="38.7078620" lon="1.4422050">
        <ele>9.1</ele>
        <time>2020-02-22T12:04:04Z</time>
      </trkpt>
      <trkpt lat="38.7079250" lon="1.4423250">
        <ele>9.1</ele>
        <time>2020-02-22T12:04:05Z</time>
      </trkpt>
      <trkpt lat="38.7079250" lon="1.4423250">
        <ele>9.1</ele>
        <time>2020-02-22T12:04:06Z</time>
      </trkpt>
      <trkpt lat="38.7079850" lon="1.4424480">
        <ele>9.1</ele>
        <time>2020-02-22T12:04:07Z</time>
      </trkpt>
      <trkpt lat="38.7079850" lon="1.4424480">
        <ele>9.1</ele>
        <time>2020-02-22T12:04:08Z</time>
      </trkpt>
      <trkpt lat="38.7080450" lon="1.4425720">
        <ele>9.1</ele>
        <time>2020-02-22T12:04:09Z</time>
      </trkpt>
      <trkpt lat="38.7080450" lon="1.4425720">
        <ele>9.1</ele>
        <time>2020-02-22T12:04:10Z</time>
      </trkpt>
      <trkpt lat="38.7081050" lon="1.4426970">
        <ele>9.1</ele>
        <time>2020-02-22T12:04:11Z</time>
      </trkpt>
      <trkpt lat="38.7081050" lon="1.4426970">
        <ele>9.1</ele>
        <time>2020-02-22T12:04:12Z</time>
      </trkpt>
      <trkpt lat="38.7081670" lon="1.4428230">
        <ele>9.1</ele>
        <time>2020-02-22T12:04:13Z</time>
      </trkpt>
      <trkpt lat="38.7081670" lon="1.4428230">
        <ele>9.1</ele>
        <time>2020-02-22T12:04:14Z</time>
      </trkpt>
      <trkpt lat="38.7082200" lon="1.4429550">
        <ele>9.1</ele>
        <time>2020-02-22T12:04:15Z</time>
      </trkpt>
      <trkpt lat="38.7082200" lon="1.4429550">
        <ele>9.1</ele>
        <time>2020-02-22T12:04:16Z</time>
      </trkpt>
      <trkpt lat="38.7082720" lon="1.4430900">
        <ele>9.1</ele>
        <time>2020-02-22T12:04:17Z</time>
      </trkpt>
      <trkpt lat="38.7082720" lon="1.4430900">
        <ele>9.1</ele>
        <time>2020-02-22T12:04:18Z</time>
      </trkpt>
      <trkpt lat="38.7083120" lon="1.4432350">
        <ele>9.1</ele>
        <time>2020-02-22T12:04:19Z</time>
      </trkpt>
      <trkpt lat="38.7083270" lon="1.4433080">
        <ele>9.1</ele>
        <time>2020-02-22T12:04:20Z</time>
      </trkpt>
      <trkpt lat="38.7083270" lon="1.4433080">
        <ele>9.1</ele>
        <time>2020-02-22T12:04:21Z</time>
      </trkpt>
      <trkpt lat="38.7083480" lon="1.4434620">
        <ele>10.1</ele>
        <time>2020-02-22T12:04:22Z</time>
      </trkpt>
      <trkpt lat="38.7083480" lon="1.4434620">
        <ele>10.1</ele>
        <time>2020-02-22T12:04:23Z</time>
      </trkpt>
      <trkpt lat="38.7083570" lon="1.4436130">
        <ele>10.1</ele>
        <time>2020-02-22T12:04:24Z</time>
      </trkpt>
      <trkpt lat="38.7083570" lon="1.4436880">
        <ele>10.1</ele>
        <time>2020-02-22T12:04:25Z</time>
      </trkpt>
      <trkpt lat="38.7083570" lon="1.4436880">
        <ele>10.1</ele>
        <time>2020-02-22T12:04:26Z</time>
      </trkpt>
      <trkpt lat="38.7083550" lon="1.4438420">
        <ele>10.1</ele>
        <time>2020-02-22T12:04:27Z</time>
      </trkpt>
      <trkpt lat="38.7083550" lon="1.4438420">
        <ele>10.1</ele>
        <time>2020-02-22T12:04:28Z</time>
      </trkpt>
      <trkpt lat="38.7083480" lon="1.4439920">
        <ele>10.1</ele>
        <time>2020-02-22T12:04:29Z</time>
      </trkpt>
      <trkpt lat="38.7083480" lon="1.4439920">
        <ele>10.1</ele>
        <time>2020-02-22T12:04:30Z</time>
      </trkpt>
      <trkpt lat="38.7083400" lon="1.4441400">
        <ele>10.1</ele>
        <time>2020-02-22T12:04:31Z</time>
      </trkpt>
      <trkpt lat="38.7083400" lon="1.4441400">
        <ele>10.1</ele>
        <time>2020-02-22T12:04:32Z</time>
      </trkpt>
      <trkpt lat="38.7083280" lon="1.4442880">
        <ele>10.1</ele>
        <time>2020-02-22T12:04:33Z</time>
      </trkpt>
      <trkpt lat="38.7083250" lon="1.4443650">
        <ele>10.1</ele>
        <time>2020-02-22T12:04:34Z</time>
      </trkpt>
      <trkpt lat="38.7083250" lon="1.4443650">
        <ele>10.1</ele>
        <time>2020-02-22T12:04:35Z</time>
      </trkpt>
      <trkpt lat="38.7083130" lon="1.4445150">
        <ele>10.1</ele>
        <time>2020-02-22T12:04:36Z</time>
      </trkpt>
      <trkpt lat="38.7083070" lon="1.4445920">
        <ele>10.1</ele>
        <time>2020-02-22T12:04:37Z</time>
      </trkpt>
      <trkpt lat="38.7083070" lon="1.4445920">
        <ele>10.1</ele>
        <time>2020-02-22T12:04:38Z</time>
      </trkpt>
      <trkpt lat="38.7082970" lon="1.4447450">
        <ele>10.1</ele>
        <time>2020-02-22T12:04:39Z</time>
      </trkpt>
      <trkpt lat="38.7082900" lon="1.4448220">
        <ele>10.1</ele>
        <time>2020-02-22T12:04:40Z</time>
      </trkpt>
      <trkpt lat="38.7082900" lon="1.4448220">
        <ele>10.1</ele>
        <time>2020-02-22T12:04:41Z</time>
      </trkpt>
      <trkpt lat="38.7082780" lon="1.4449730">
        <ele>10.1</ele>
        <time>2020-02-22T12:04:42Z</time>
      </trkpt>
      <trkpt lat="38.7082780" lon="1.4449730">
        <ele>10.1</ele>
        <time>2020-02-22T12:04:43Z</time>
      </trkpt>
      <trkpt lat="38.7082670" lon="1.4451250">
        <ele>10.1</ele>
        <time>2020-02-22T12:04:44Z</time>
      </trkpt>
      <trkpt lat="38.7082620" lon="1.4452000">
        <ele>10.1</ele>
        <time>2020-02-22T12:04:45Z</time>
      </trkpt>
      <trkpt lat="38.7082620" lon="1.4452000">
        <ele>10.1</ele>
        <time>2020-02-22T12:04:46Z</time>
      </trkpt>
      <trkpt lat="38.7082480" lon="1.4453480">
        <ele>10.1</ele>
        <time>2020-02-22T12:04:47Z</time>
      </trkpt>
      <trkpt lat="38.7082480" lon="1.4453480">
        <ele>10.1</ele>
        <time>2020-02-22T12:04:48Z</time>
      </trkpt>
      <trkpt lat="38.7082380" lon="1.4454950">
        <ele>10.1</ele>
        <time>2020-02-22T12:04:49Z</time>
      </trkpt>
      <trkpt lat="38.7082380" lon="1.4454950">
        <ele>10.1</ele>
        <time>2020-02-22T12:04:50Z</time>
      </trkpt>
      <trkpt lat="38.7082270" lon="1.4456430">
        <ele>10.1</ele>
        <time>2020-02-22T12:04:51Z</time>
      </trkpt>
      <trkpt lat="38.7082270" lon="1.4456430">
        <ele>10.1</ele>
        <time>2020-02-22T12:04:52Z</time>
      </trkpt>
      <trkpt lat="38.7082150" lon="1.4457870">
        <ele>10.1</ele>
        <time>2020-02-22T12:04:53Z</time>
      </trkpt>
      <trkpt lat="38.7082150" lon="1.4457870">
        <ele>10.1</ele>
        <time>2020-02-22T12:04:54Z</time>
      </trkpt>
      <trkpt lat="38.7082050" lon="1.4459330">
        <ele>10.1</ele>
        <time>2020-02-22T12:04:55Z</time>
      </trkpt>
      <trkpt lat="38.7082050" lon="1.4459330">
        <ele>10.1</ele>
        <time>2020-02-22T12:04:56Z</time>
      </trkpt>
      <trkpt lat="38.7081930" lon="1.4460820">
        <ele>10.1</ele>
        <time>2020-02-22T12:04:57Z</time>
      </trkpt>
      <trkpt lat="38.7081930" lon="1.4460820">
        <ele>10.1</ele>
        <time>2020-02-22T12:04:58Z</time>
      </trkpt>
      <trkpt lat="38.7081830" lon="1.4462270">
        <ele>10.1</ele>
        <time>2020-02-22T12:04:59Z</time>
      </trkpt>
      <trkpt lat="38.7081830" lon="1.4462270">
        <ele>10.1</ele>
        <time>2020-02-22T12:05:00Z</time>
      </trkpt>
      <trkpt lat="38.7081720" lon="1.4463700">
        <ele>10.1</ele>
        <time>2020-02-22T12:05:01Z</time>
      </trkpt>
      <trkpt lat="38.7081670" lon="1.4464420">
        <ele>10.1</ele>
        <time>2020-02-22T12:05:02Z</time>
      </trkpt>
      <trkpt lat="38.7081620" lon="1.4465130">
        <ele>10.1</ele>
        <time>2020-02-22T12:05:03Z</time>
      </trkpt>
      <trkpt lat="38.7081620" lon="1.4465130">
        <ele>10.1</ele>
        <time>2020-02-22T12:05:04Z</time>
      </trkpt>
      <trkpt lat="38.7081520" lon="1.4466550">
        <ele>10.1</ele>
        <time>2020-02-22T12:05:05Z</time>
      </trkpt>
      <trkpt lat="38.7081520" lon="1.4466550">
        <ele>10.1</ele>
        <time>2020-02-22T12:05:06Z</time>
      </trkpt>
      <trkpt lat="38.7081400" lon="1.4468000">
        <ele>10.1</ele>
        <time>2020-02-22T12:05:07Z</time>
      </trkpt>
      <trkpt lat="38.7081400" lon="1.4468000">
        <ele>10.1</ele>
        <time>2020-02-22T12:05:08Z</time>
      </trkpt>
      <trkpt lat="38.7081280" lon="1.4469450">
        <ele>10.1</ele>
        <time>2020-02-22T12:05:09Z</time>
      </trkpt>
      <trkpt lat="38.7081280" lon="1.4469450">
        <ele>10.1</ele>
        <time>2020-02-22T12:05:10Z</time>
      </trkpt>
      <trkpt lat="38.7081180" lon="1.4470920">
        <ele>10.1</ele>
        <time>2020-02-22T12:05:11Z</time>
      </trkpt>
      <trkpt lat="38.7081130" lon="1.4471650">
        <ele>10.1</ele>
        <time>2020-02-22T12:05:12Z</time>
      </trkpt>
      <trkpt lat="38.7081070" lon="1.4472380">
        <ele>10.1</ele>
        <time>2020-02-22T12:05:13Z</time>
      </trkpt>
      <trkpt lat="38.7081070" lon="1.4472380">
        <ele>11.1</ele>
        <time>2020-02-22T12:05:14Z</time>
      </trkpt>
      <trkpt lat="38.7080970" lon="1.4473850">
        <ele>11.1</ele>
        <time>2020-02-22T12:05:15Z</time>
      </trkpt>
      <trkpt lat="38.7080880" lon="1.4474580">
        <ele>11.1</ele>
        <time>2020-02-22T12:05:16Z</time>
      </trkpt>
      <trkpt lat="38.7080880" lon="1.4474580">
        <ele>11.1</ele>
        <time>2020-02-22T12:05:17Z</time>
      </trkpt>
      <trkpt lat="38.7080770" lon="1.4476000">
        <ele>11.1</ele>
        <time>2020-02-22T12:05:18Z</time>
      </trkpt>
      <trkpt lat="38.7080700" lon="1.4476720">
        <ele>11.1</ele>
        <time>2020-02-22T12:05:19Z</time>
      </trkpt>
      <trkpt lat="38.7080700" lon="1.4476720">
        <ele>11.1</ele>
        <time>2020-02-22T12:05:20Z</time>
      </trkpt>
      <trkpt lat="38.7080600" lon="1.4478120">
        <ele>11.1</ele>
        <time>2020-02-22T12:05:21Z</time>
      </trkpt>
      <trkpt lat="38.7080600" lon="1.4478120">
        <ele>11.1</ele>
        <time>2020-02-22T12:05:22Z</time>
      </trkpt>
      <trkpt lat="38.7080500" lon="1.4479520">
        <ele>11.1</ele>
        <time>2020-02-22T12:05:23Z</time>
      </trkpt>
      <trkpt lat="38.7080500" lon="1.4479520">
        <ele>11.1</ele>
        <time>2020-02-22T12:05:24Z</time>
      </trkpt>
      <trkpt lat="38.7080400" lon="1.4480900">
        <ele>11.1</ele>
        <time>2020-02-22T12:05:25Z</time>
      </trkpt>
      <trkpt lat="38.7080400" lon="1.4480900">
        <ele>11.1</ele>
        <time>2020-02-22T12:05:26Z</time>
      </trkpt>
      <trkpt lat="38.7080300" lon="1.4482320">
        <ele>11.1</ele>
        <time>2020-02-22T12:05:27Z</time>
      </trkpt>
      <trkpt lat="38.7080300" lon="1.4482320">
        <ele>11.1</ele>
        <time>2020-02-22T12:05:28Z</time>
      </trkpt>
      <trkpt lat="38.7080200" lon="1.4483720">
        <ele>11.1</ele>
        <time>2020-02-22T12:05:29Z</time>
      </trkpt>
      <trkpt lat="38.7080200" lon="1.4483720">
        <ele>12.1</ele>
        <time>2020-02-22T12:05:30Z</time>
      </trkpt>
      <trkpt lat="38.7080100" lon="1.4485130">
        <ele>12.1</ele>
        <time>2020-02-22T12:05:31Z</time>
      </trkpt>
      <trkpt lat="38.7080050" lon="1.4485830">
        <ele>12.1</ele>
        <time>2020-02-22T12:05:32Z</time>
      </trkpt>
      <trkpt lat="38.7080050" lon="1.4485830">
        <ele>12.1</ele>
        <time>2020-02-22T12:05:33Z</time>
      </trkpt>
      <trkpt lat="38.7079930" lon="1.4487230">
        <ele>12.1</ele>
        <time>2020-02-22T12:05:34Z</time>
      </trkpt>
      <trkpt lat="38.7079930" lon="1.4487230">
        <ele>12.1</ele>
        <time>2020-02-22T12:05:35Z</time>
      </trkpt>
      <trkpt lat="38.7079820" lon="1.4488650">
        <ele>12.1</ele>
        <time>2020-02-22T12:05:36Z</time>
      </trkpt>
      <trkpt lat="38.7079770" lon="1.4489330">
        <ele>12.1</ele>
        <time>2020-02-22T12:05:37Z</time>
      </trkpt>
      <trkpt lat="38.7079720" lon="1.4490030">
        <ele>12.1</ele>
        <time>2020-02-22T12:05:38Z</time>
      </trkpt>
      <trkpt lat="38.7079720" lon="1.4490030">
        <ele>13.1</ele>
        <time>2020-02-22T12:05:39Z</time>
      </trkpt>
      <trkpt lat="38.7079600" lon="1.4491430">
        <ele>13.1</ele>
        <time>2020-02-22T12:05:40Z</time>
      </trkpt>
      <trkpt lat="38.7079600" lon="1.4491430">
        <ele>13.1</ele>
        <time>2020-02-22T12:05:41Z</time>
      </trkpt>
      <trkpt lat="38.7079480" lon="1.4492870">
        <ele>13.1</ele>
        <time>2020-02-22T12:05:42Z</time>
      </trkpt>
      <trkpt lat="38.7079480" lon="1.4492870">
        <ele>13.1</ele>
        <time>2020-02-22T12:05:43Z</time>
      </trkpt>
      <trkpt lat="38.7079370" lon="1.4494300">
        <ele>13.1</ele>
        <time>2020-02-22T12:05:44Z</time>
      </trkpt>
      <trkpt lat="38.7079320" lon="1.4495020">
        <ele>13.1</ele>
        <time>2020-02-22T12:05:45Z</time>
      </trkpt>
      <trkpt lat="38.7079320" lon="1.4495020">
        <ele>13.1</ele>
        <time>2020-02-22T12:05:46Z</time>
      </trkpt>
      <trkpt lat="38.7079220" lon="1.4496450">
        <ele>13.1</ele>
        <time>2020-02-22T12:05:47Z</time>
      </trkpt>
      <trkpt lat="38.7079220" lon="1.4496450">
        <ele>13.1</ele>
        <time>2020-02-22T12:05:48Z</time>
      </trkpt>
      <trkpt lat="38.7079120" lon="1.4497880">
        <ele>13.1</ele>
        <time>2020-02-22T12:05:49Z</time>
      </trkpt>
      <trkpt lat="38.7079120" lon="1.4497880">
        <ele>13.1</ele>
        <time>2020-02-22T12:05:50Z</time>
      </trkpt>
      <trkpt lat="38.7079020" lon="1.4499300">
        <ele>13.1</ele>
        <time>2020-02-22T12:05:51Z</time>
      </trkpt>
      <trkpt lat="38.7079020" lon="1.4499300">
        <ele>13.1</ele>
        <time>2020-02-22T12:05:52Z</time>
      </trkpt>
      <trkpt lat="38.7078900" lon="1.4500700">
        <ele>13.1</ele>
        <time>2020-02-22T12:05:53Z</time>
      </trkpt>
      <trkpt lat="38.7078900" lon="1.4500700">
        <ele>13.1</ele>
        <time>2020-02-22T12:05:54Z</time>
      </trkpt>
      <trkpt lat="38.7078800" lon="1.4502100">
        <ele>13.1</ele>
        <time>2020-02-22T12:05:55Z</time>
      </trkpt>
      <trkpt lat="38.7078800" lon="1.4502100">
        <ele>13.1</ele>
        <time>2020-02-22T12:05:56Z</time>
      </trkpt>
      <trkpt lat="38.7078700" lon="1.4503500">
        <ele>13.1</ele>
        <time>2020-02-22T12:05:57Z</time>
      </trkpt>
      <trkpt lat="38.7078700" lon="1.4503500">
        <ele>13.1</ele>
        <time>2020-02-22T12:05:58Z</time>
      </trkpt>
      <trkpt lat="38.7078620" lon="1.4504880">
        <ele>13.1</ele>
        <time>2020-02-22T12:05:59Z</time>
      </trkpt>
      <trkpt lat="38.7078600" lon="1.4505580">
        <ele>14.1</ele>
        <time>2020-02-22T12:06:00Z</time>
      </trkpt>
      <trkpt lat="38.7078530" lon="1.4506270">
        <ele>14.1</ele>
        <time>2020-02-22T12:06:01Z</time>
      </trkpt>
      <trkpt lat="38.7078530" lon="1.4506270">
        <ele>14.1</ele>
        <time>2020-02-22T12:06:02Z</time>
      </trkpt>
      <trkpt lat="38.7078380" lon="1.4507670">
        <ele>14.1</ele>
        <time>2020-02-22T12:06:03Z</time>
      </trkpt>
      <trkpt lat="38.7078380" lon="1.4507670">
        <ele>14.1</ele>
        <time>2020-02-22T12:06:04Z</time>
      </trkpt>
      <trkpt lat="38.7078280" lon="1.4509080">
        <ele>14.1</ele>
        <time>2020-02-22T12:06:05Z</time>
      </trkpt>
      <trkpt lat="38.7078230" lon="1.4509800">
        <ele>14.1</ele>
        <time>2020-02-22T12:06:06Z</time>
      </trkpt>
      <trkpt lat="38.7078230" lon="1.4509800">
        <ele>14.1</ele>
        <time>2020-02-22T12:06:07Z</time>
      </trkpt>
      <trkpt lat="38.7078100" lon="1.4511270">
        <ele>14.1</ele>
        <time>2020-02-22T12:06:08Z</time>
      </trkpt>
      <trkpt lat="38.7078050" lon="1.4512020">
        <ele>14.1</ele>
        <time>2020-02-22T12:06:09Z</time>
      </trkpt>
      <trkpt lat="38.7077980" lon="1.4512770">
        <ele>14.1</ele>
        <time>2020-02-22T12:06:10Z</time>
      </trkpt>
      <trkpt lat="38.7077980" lon="1.4512770">
        <ele>14.1</ele>
        <time>2020-02-22T12:06:11Z</time>
      </trkpt>
      <trkpt lat="38.7077880" lon="1.4514270">
        <ele>14.1</ele>
        <time>2020-02-22T12:06:12Z</time>
      </trkpt>
      <trkpt lat="38.7077800" lon="1.4515020">
        <ele>14.1</ele>
        <time>2020-02-22T12:06:13Z</time>
      </trkpt>
      <trkpt lat="38.7077800" lon="1.4515020">
        <ele>14.1</ele>
        <time>2020-02-22T12:06:14Z</time>
      </trkpt>
      <trkpt lat="38.7077680" lon="1.4516520">
        <ele>14.1</ele>
        <time>2020-02-22T12:06:15Z</time>
      </trkpt>
      <trkpt lat="38.7077680" lon="1.4516520">
        <ele>14.1</ele>
        <time>2020-02-22T12:06:16Z</time>
      </trkpt>
      <trkpt lat="38.7077570" lon="1.4517980">
        <ele>14.1</ele>
        <time>2020-02-22T12:06:17Z</time>
      </trkpt>
      <trkpt lat="38.7077500" lon="1.4518720">
        <ele>14.1</ele>
        <time>2020-02-22T12:06:18Z</time>
      </trkpt>
      <trkpt lat="38.7077450" lon="1.4519430">
        <ele>14.1</ele>
        <time>2020-02-22T12:06:19Z</time>
      </trkpt>
      <trkpt lat="38.7077450" lon="1.4519430">
        <ele>14.1</ele>
        <time>2020-02-22T12:06:20Z</time>
      </trkpt>
      <trkpt lat="38.7077370" lon="1.4520880">
        <ele>14.1</ele>
        <time>2020-02-22T12:06:21Z</time>
      </trkpt>
      <trkpt lat="38.7077370" lon="1.4520880">
        <ele>14.1</ele>
        <time>2020-02-22T12:06:22Z</time>
      </trkpt>
      <trkpt lat="38.7077270" lon="1.4522330">
        <ele>14.1</ele>
        <time>2020-02-22T12:06:23Z</time>
      </trkpt>
      <trkpt lat="38.7077270" lon="1.4522330">
        <ele>14.1</ele>
        <time>2020-02-22T12:06:24Z</time>
      </trkpt>
      <trkpt lat="38.7077130" lon="1.4523800">
        <ele>14.1</ele>
        <time>2020-02-22T12:06:25Z</time>
      </trkpt>
      <trkpt lat="38.7077130" lon="1.4523800">
        <ele>14.1</ele>
        <time>2020-02-22T12:06:26Z</time>
      </trkpt>
      <trkpt lat="38.7077020" lon="1.4525250">
        <ele>14.1</ele>
        <time>2020-02-22T12:06:27Z</time>
      </trkpt>
      <trkpt lat="38.7077020" lon="1.4525250">
        <ele>14.1</ele>
        <time>2020-02-22T12:06:28Z</time>
      </trkpt>
      <trkpt lat="38.7076900" lon="1.4526720">
        <ele>14.1</ele>
        <time>2020-02-22T12:06:29Z</time>
      </trkpt>
      <trkpt lat="38.7076900" lon="1.4526720">
        <ele>14.1</ele>
        <time>2020-02-22T12:06:30Z</time>
      </trkpt>
      <trkpt lat="38.7076800" lon="1.4528150">
        <ele>14.1</ele>
        <time>2020-02-22T12:06:31Z</time>
      </trkpt>
      <trkpt lat="38.7076800" lon="1.4528150">
        <ele>14.1</ele>
        <time>2020-02-22T12:06:32Z</time>
      </trkpt>
      <trkpt lat="38.7076680" lon="1.4529600">
        <ele>14.1</ele>
        <time>2020-02-22T12:06:33Z</time>
      </trkpt>
      <trkpt lat="38.7076680" lon="1.4529600">
        <ele>14.1</ele>
        <time>2020-02-22T12:06:34Z</time>
      </trkpt>
      <trkpt lat="38.7076550" lon="1.4531020">
        <ele>14.1</ele>
        <time>2020-02-22T12:06:35Z</time>
      </trkpt>
      <trkpt lat="38.7076550" lon="1.4531020">
        <ele>14.1</ele>
        <time>2020-02-22T12:06:36Z</time>
      </trkpt>
      <trkpt lat="38.7076450" lon="1.4532450">
        <ele>14.1</ele>
        <time>2020-02-22T12:06:37Z</time>
      </trkpt>
      <trkpt lat="38.7076450" lon="1.4532450">
        <ele>14.1</ele>
        <time>2020-02-22T12:06:38Z</time>
      </trkpt>
      <trkpt lat="38.7076330" lon="1.4533880">
        <ele>14.1</ele>
        <time>2020-02-22T12:06:39Z</time>
      </trkpt>
      <trkpt lat="38.7076330" lon="1.4533880">
        <ele>14.1</ele>
        <time>2020-02-22T12:06:40Z</time>
      </trkpt>
      <trkpt lat="38.7076250" lon="1.4535330">
        <ele>14.1</ele>
        <time>2020-02-22T12:06:41Z</time>
      </trkpt>
      <trkpt lat="38.7076200" lon="1.4536050">
        <ele>14.1</ele>
        <time>2020-02-22T12:06:42Z</time>
      </trkpt>
      <trkpt lat="38.7076130" lon="1.4536770">
        <ele>14.1</ele>
        <time>2020-02-22T12:06:43Z</time>
      </trkpt>
      <trkpt lat="38.7076130" lon="1.4536770">
        <ele>14.1</ele>
        <time>2020-02-22T12:06:44Z</time>
      </trkpt>
      <trkpt lat="38.7075980" lon="1.4538200">
        <ele>14.1</ele>
        <time>2020-02-22T12:06:45Z</time>
      </trkpt>
      <trkpt lat="38.7075920" lon="1.4538920">
        <ele>14.1</ele>
        <time>2020-02-22T12:06:46Z</time>
      </trkpt>
      <trkpt lat="38.7075920" lon="1.4538920">
        <ele>14.1</ele>
        <time>2020-02-22T12:06:47Z</time>
      </trkpt>
      <trkpt lat="38.7075700" lon="1.4540300">
        <ele>14.1</ele>
        <time>2020-02-22T12:06:48Z</time>
      </trkpt>
      <trkpt lat="38.7075550" lon="1.4540980">
        <ele>14.1</ele>
        <time>2020-02-22T12:06:49Z</time>
      </trkpt>
      <trkpt lat="38.7075550" lon="1.4540980">
        <ele>14.1</ele>
        <time>2020-02-22T12:06:50Z</time>
      </trkpt>
      <trkpt lat="38.7075080" lon="1.4542270">
        <ele>14.1</ele>
        <time>2020-02-22T12:06:51Z</time>
      </trkpt>
      <trkpt lat="38.7074730" lon="1.4542820">
        <ele>14.1</ele>
        <time>2020-02-22T12:06:52Z</time>
      </trkpt>
      <trkpt lat="38.7074730" lon="1.4542820">
        <ele>14.1</ele>
        <time>2020-02-22T12:06:53Z</time>
      </trkpt>
      <trkpt lat="38.7074130" lon="1.4544020">
        <ele>14.1</ele>
        <time>2020-02-22T12:06:54Z</time>
      </trkpt>
      <trkpt lat="38.7074000" lon="1.4544680">
        <ele>14.1</ele>
        <time>2020-02-22T12:06:55Z</time>
      </trkpt>
      <trkpt lat="38.7074000" lon="1.4544680">
        <ele>14.1</ele>
        <time>2020-02-22T12:06:56Z</time>
      </trkpt>
      <trkpt lat="38.7073930" lon="1.4546000">
        <ele>14.1</ele>
        <time>2020-02-22T12:06:57Z</time>
      </trkpt>
      <trkpt lat="38.7073930" lon="1.4546000">
        <ele>16.1</ele>
        <time>2020-02-22T12:06:58Z</time>
      </trkpt>
      <trkpt lat="38.7073650" lon="1.4547250">
        <ele>16.1</ele>
        <time>2020-02-22T12:06:59Z</time>
      </trkpt>
      <trkpt lat="38.7073650" lon="1.4547250">
        <ele>16.1</ele>
        <time>2020-02-22T12:07:00Z</time>
      </trkpt>
      <trkpt lat="38.7073180" lon="1.4548300">
        <ele>16.1</ele>
        <time>2020-02-22T12:07:01Z</time>
      </trkpt>
      <trkpt lat="38.7073180" lon="1.4548300">
        <ele>16.1</ele>
        <time>2020-02-22T12:07:02Z</time>
      </trkpt>
      <trkpt lat="38.7072720" lon="1.4549330">
        <ele>16.1</ele>
        <time>2020-02-22T12:07:03Z</time>
      </trkpt>
      <trkpt lat="38.7072720" lon="1.4549330">
        <ele>16.1</ele>
        <time>2020-02-22T12:07:04Z</time>
      </trkpt>
      <trkpt lat="38.7072230" lon="1.4550400">
        <ele>16.1</ele>
        <time>2020-02-22T12:07:05Z</time>
      </trkpt>
      <trkpt lat="38.7072230" lon="1.4550400">
        <ele>16.1</ele>
        <time>2020-02-22T12:07:06Z</time>
      </trkpt>
      <trkpt lat="38.7071680" lon="1.4551520">
        <ele>16.1</ele>
        <time>2020-02-22T12:07:07Z</time>
      </trkpt>
      <trkpt lat="38.7071680" lon="1.4551520">
        <ele>16.1</ele>
        <time>2020-02-22T12:07:08Z</time>
      </trkpt>
      <trkpt lat="38.7071130" lon="1.4552700">
        <ele>16.1</ele>
        <time>2020-02-22T12:07:09Z</time>
      </trkpt>
      <trkpt lat="38.7071130" lon="1.4552700">
        <ele>16.1</ele>
        <time>2020-02-22T12:07:10Z</time>
      </trkpt>
      <trkpt lat="38.7070600" lon="1.4553930">
        <ele>17.1</ele>
        <time>2020-02-22T12:07:11Z</time>
      </trkpt>
      <trkpt lat="38.7070600" lon="1.4553930">
        <ele>17.1</ele>
        <time>2020-02-22T12:07:12Z</time>
      </trkpt>
      <trkpt lat="38.7070080" lon="1.4555180">
        <ele>17.1</ele>
        <time>2020-02-22T12:07:13Z</time>
      </trkpt>
      <trkpt lat="38.7070080" lon="1.4555180">
        <ele>17.1</ele>
        <time>2020-02-22T12:07:14Z</time>
      </trkpt>
      <trkpt lat="38.7069580" lon="1.4556370">
        <ele>17.1</ele>
        <time>2020-02-22T12:07:15Z</time>
      </trkpt>
      <trkpt lat="38.7069350" lon="1.4556950">
        <ele>17.1</ele>
        <time>2020-02-22T12:07:16Z</time>
      </trkpt>
      <trkpt lat="38.7069350" lon="1.4556950">
        <ele>17.1</ele>
        <time>2020-02-22T12:07:17Z</time>
      </trkpt>
      <trkpt lat="38.7068820" lon="1.4558100">
        <ele>17.1</ele>
        <time>2020-02-22T12:07:18Z</time>
      </trkpt>
      <trkpt lat="38.7068570" lon="1.4558670">
        <ele>17.1</ele>
        <time>2020-02-22T12:07:19Z</time>
      </trkpt>
      <trkpt lat="38.7068570" lon="1.4558670">
        <ele>17.1</ele>
        <time>2020-02-22T12:07:20Z</time>
      </trkpt>
      <trkpt lat="38.7068050" lon="1.4559770">
        <ele>17.1</ele>
        <time>2020-02-22T12:07:21Z</time>
      </trkpt>
      <trkpt lat="38.7068050" lon="1.4559770">
        <ele>18.1</ele>
        <time>2020-02-22T12:07:22Z</time>
      </trkpt>
      <trkpt lat="38.7067530" lon="1.4560880">
        <ele>18.1</ele>
        <time>2020-02-22T12:07:23Z</time>
      </trkpt>
      <trkpt lat="38.7067270" lon="1.4561480">
        <ele>18.1</ele>
        <time>2020-02-22T12:07:24Z</time>
      </trkpt>
      <trkpt lat="38.7067270" lon="1.4561480">
        <ele>18.1</ele>
        <time>2020-02-22T12:07:25Z</time>
      </trkpt>
      <trkpt lat="38.7066770" lon="1.4562630">
        <ele>18.1</ele>
        <time>2020-02-22T12:07:26Z</time>
      </trkpt>
      <trkpt lat="38.7066550" lon="1.4563200">
        <ele>18.1</ele>
        <time>2020-02-22T12:07:27Z</time>
      </trkpt>
      <trkpt lat="38.7066550" lon="1.4563200">
        <ele>18.1</ele>
        <time>2020-02-22T12:07:28Z</time>
      </trkpt>
      <trkpt lat="38.7066120" lon="1.4564270">
        <ele>18.1</ele>
        <time>2020-02-22T12:07:29Z</time>
      </trkpt>
      <trkpt lat="38.7066120" lon="1.4564270">
        <ele>18.1</ele>
        <time>2020-02-22T12:07:30Z</time>
      </trkpt>
      <trkpt lat="38.7065670" lon="1.4565180">
        <ele>18.1</ele>
        <time>2020-02-22T12:07:31Z</time>
      </trkpt>
      <trkpt lat="38.7065670" lon="1.4565180">
        <ele>18.1</ele>
        <time>2020-02-22T12:07:32Z</time>
      </trkpt>
      <trkpt lat="38.7065270" lon="1.4566050">
        <ele>19.1</ele>
        <time>2020-02-22T12:07:33Z</time>
      </trkpt>
      <trkpt lat="38.7065270" lon="1.4566050">
        <ele>19.1</ele>
        <time>2020-02-22T12:07:34Z</time>
      </trkpt>
      <trkpt lat="38.7064900" lon="1.4566630">
        <ele>19.1</ele>
        <time>2020-02-22T12:07:35Z</time>
      </trkpt>
      <trkpt lat="38.7064900" lon="1.4566630">
        <ele>19.1</ele>
        <time>2020-02-22T12:07:36Z</time>
      </trkpt>
      <trkpt lat="38.7064400" lon="1.4566700">
        <ele>19.1</ele>
        <time>2020-02-22T12:07:37Z</time>
      </trkpt>
      <trkpt lat="38.7064400" lon="1.4566700">
        <ele>19.1</ele>
        <time>2020-02-22T12:07:38Z</time>
      </trkpt>
      <trkpt lat="38.7064080" lon="1.4566680">
        <ele>19.1</ele>
        <time>2020-02-22T12:07:39Z</time>
      </trkpt>
      <trkpt lat="38.7064080" lon="1.4566680">
        <ele>19.1</ele>
        <time>2020-02-22T12:07:40Z</time>
      </trkpt>
      <trkpt lat="38.7064020" lon="1.4566600">
        <ele>19.1</ele>
        <time>2020-02-22T12:07:41Z</time>
      </trkpt>
      <trkpt lat="38.7064020" lon="1.4566600">
        <ele>19.1</ele>
        <time>2020-02-22T12:07:42Z</time>
      </trkpt>
      <trkpt lat="38.7064000" lon="1.4566550">
        <ele>19.1</ele>
        <time>2020-02-22T12:07:43Z</time>
      </trkpt>
      <trkpt lat="38.7064000" lon="1.4566550">
        <ele>20.1</ele>
        <time>2020-02-22T12:13:41Z</time>
      </trkpt>
      <trkpt lat="38.7064520" lon="1.4567300">
        <ele>20.1</ele>
        <time>2020-02-22T12:13:42Z</time>
      </trkpt>
      <trkpt lat="38.7064570" lon="1.4567500">
        <ele>20.1</ele>
        <time>2020-02-22T12:13:43Z</time>
      </trkpt>
      <trkpt lat="38.7064570" lon="1.4567500">
        <ele>20.1</ele>
        <time>2020-02-22T12:13:44Z</time>
      </trkpt>
      <trkpt lat="38.7064500" lon="1.4568070">
        <ele>20.1</ele>
        <time>2020-02-22T12:13:45Z</time>
      </trkpt>
      <trkpt lat="38.7064500" lon="1.4568070">
        <ele>20.1</ele>
        <time>2020-02-22T12:13:46Z</time>
      </trkpt>
      <trkpt lat="38.7064200" lon="1.4568780">
        <ele>20.1</ele>
        <time>2020-02-22T12:13:47Z</time>
      </trkpt>
      <trkpt lat="38.7064020" lon="1.4569220">
        <ele>20.1</ele>
        <time>2020-02-22T12:13:48Z</time>
      </trkpt>
      <trkpt lat="38.7064020" lon="1.4569220">
        <ele>20.1</ele>
        <time>2020-02-22T12:13:49Z</time>
      </trkpt>
      <trkpt lat="38.7063580" lon="1.4570220">
        <ele>20.1</ele>
        <time>2020-02-22T12:13:50Z</time>
      </trkpt>
      <trkpt lat="38.7063580" lon="1.4570220">
        <ele>20.1</ele>
        <time>2020-02-22T12:13:51Z</time>
      </trkpt>
      <trkpt lat="38.7063120" lon="1.4571220">
        <ele>20.1</ele>
        <time>2020-02-22T12:13:52Z</time>
      </trkpt>
      <trkpt lat="38.7062900" lon="1.4571720">
        <ele>20.1</ele>
        <time>2020-02-22T12:13:53Z</time>
      </trkpt>
      <trkpt lat="38.7062770" lon="1.4572280">
        <ele>20.1</ele>
        <time>2020-02-22T12:13:54Z</time>
      </trkpt>
      <trkpt lat="38.7062570" lon="1.4572830">
        <ele>20.1</ele>
        <time>2020-02-22T12:13:55Z</time>
      </trkpt>
      <trkpt lat="38.7062570" lon="1.4572830">
        <ele>20.1</ele>
        <time>2020-02-22T12:13:56Z</time>
      </trkpt>
      <trkpt lat="38.7062030" lon="1.4573900">
        <ele>20.1</ele>
        <time>2020-02-22T12:13:57Z</time>
      </trkpt>
      <trkpt lat="38.7062030" lon="1.4573900">
        <ele>20.1</ele>
        <time>2020-02-22T12:13:58Z</time>
      </trkpt>
      <trkpt lat="38.7061470" lon="1.4574970">
        <ele>20.1</ele>
        <time>2020-02-22T12:13:59Z</time>
      </trkpt>
      <trkpt lat="38.7061470" lon="1.4574970">
        <ele>20.1</ele>
        <time>2020-02-22T12:14:00Z</time>
      </trkpt>
      <trkpt lat="38.7061000" lon="1.4576050">
        <ele>20.1</ele>
        <time>2020-02-22T12:14:01Z</time>
      </trkpt>
      <trkpt lat="38.7061000" lon="1.4576050">
        <ele>19.1</ele>
        <time>2020-02-22T12:14:02Z</time>
      </trkpt>
      <trkpt lat="38.7060600" lon="1.4577100">
        <ele>19.1</ele>
        <time>2020-02-22T12:14:03Z</time>
      </trkpt>
      <trkpt lat="38.7060600" lon="1.4577100">
        <ele>19.1</ele>
        <time>2020-02-22T12:14:04Z</time>
      </trkpt>
      <trkpt lat="38.7060170" lon="1.4578150">
        <ele>19.1</ele>
        <time>2020-02-22T12:14:05Z</time>
      </trkpt>
      <trkpt lat="38.7059930" lon="1.4578700">
        <ele>19.1</ele>
        <time>2020-02-22T12:14:06Z</time>
      </trkpt>
      <trkpt lat="38.7059930" lon="1.4578700">
        <ele>19.1</ele>
        <time>2020-02-22T12:14:07Z</time>
      </trkpt>
      <trkpt lat="38.7059470" lon="1.4579850">
        <ele>19.1</ele>
        <time>2020-02-22T12:14:08Z</time>
      </trkpt>
      <trkpt lat="38.7059220" lon="1.4580430">
        <ele>19.1</ele>
        <time>2020-02-22T12:14:09Z</time>
      </trkpt>
      <trkpt lat="38.7059220" lon="1.4580430">
        <ele>19.1</ele>
        <time>2020-02-22T12:14:10Z</time>
      </trkpt>
      <trkpt lat="38.7058580" lon="1.4581580">
        <ele>19.1</ele>
        <time>2020-02-22T12:14:11Z</time>
      </trkpt>
      <trkpt lat="38.7058250" lon="1.4582180">
        <ele>19.1</ele>
        <time>2020-02-22T12:14:12Z</time>
      </trkpt>
      <trkpt lat="38.7058250" lon="1.4582180">
        <ele>19.1</ele>
        <time>2020-02-22T12:14:13Z</time>
      </trkpt>
      <trkpt lat="38.7057600" lon="1.4583350">
        <ele>19.1</ele>
        <time>2020-02-22T12:14:14Z</time>
      </trkpt>
      <trkpt lat="38.7057230" lon="1.4583920">
        <ele>19.1</ele>
        <time>2020-02-22T12:14:15Z</time>
      </trkpt>
      <trkpt lat="38.7057230" lon="1.4583920">
        <ele>19.1</ele>
        <time>2020-02-22T12:14:16Z</time>
      </trkpt>
      <trkpt lat="38.7056400" lon="1.4584930">
        <ele>19.1</ele>
        <time>2020-02-22T12:14:17Z</time>
      </trkpt>
      <trkpt lat="38.7056400" lon="1.4584930">
        <ele>19.1</ele>
        <time>2020-02-22T12:14:18Z</time>
      </trkpt>
      <trkpt lat="38.7055570" lon="1.4585920">
        <ele>19.1</ele>
        <time>2020-02-22T12:14:19Z</time>
      </trkpt>
      <trkpt lat="38.7055170" lon="1.4586420">
        <ele>19.1</ele>
        <time>2020-02-22T12:14:20Z</time>
      </trkpt>
      <trkpt lat="38.7055170" lon="1.4586420">
        <ele>19.1</ele>
        <time>2020-02-22T12:14:21Z</time>
      </trkpt>
      <trkpt lat="38.7054430" lon="1.4587400">
        <ele>19.1</ele>
        <time>2020-02-22T12:14:22Z</time>
      </trkpt>
      <trkpt lat="38.7054100" lon="1.4587800">
        <ele>19.1</ele>
        <time>2020-02-22T12:14:23Z</time>
      </trkpt>
      <trkpt lat="38.7054100" lon="1.4587800">
        <ele>19.1</ele>
        <time>2020-02-22T12:14:24Z</time>
      </trkpt>
      <trkpt lat="38.7053470" lon="1.4588580">
        <ele>19.1</ele>
        <time>2020-02-22T12:14:25Z</time>
      </trkpt>
      <trkpt lat="38.7053470" lon="1.4588580">
        <ele>19.1</ele>
        <time>2020-02-22T12:14:26Z</time>
      </trkpt>
      <trkpt lat="38.7052800" lon="1.4589400">
        <ele>19.1</ele>
        <time>2020-02-22T12:14:27Z</time>
      </trkpt>
      <trkpt lat="38.7052800" lon="1.4589400">
        <ele>19.1</ele>
        <time>2020-02-22T12:14:28Z</time>
      </trkpt>
      <trkpt lat="38.7052100" lon="1.4590250">
        <ele>19.1</ele>
        <time>2020-02-22T12:14:29Z</time>
      </trkpt>
      <trkpt lat="38.7052100" lon="1.4590250">
        <ele>19.1</ele>
        <time>2020-02-22T12:14:30Z</time>
      </trkpt>
      <trkpt lat="38.7051400" lon="1.4591100">
        <ele>19.1</ele>
        <time>2020-02-22T12:14:31Z</time>
      </trkpt>
      <trkpt lat="38.7051400" lon="1.4591100">
        <ele>19.1</ele>
        <time>2020-02-22T12:14:32Z</time>
      </trkpt>
      <trkpt lat="38.7050720" lon="1.4591950">
        <ele>19.1</ele>
        <time>2020-02-22T12:14:33Z</time>
      </trkpt>
      <trkpt lat="38.7050720" lon="1.4591950">
        <ele>19.1</ele>
        <time>2020-02-22T12:14:34Z</time>
      </trkpt>
      <trkpt lat="38.7050120" lon="1.4592680">
        <ele>19.1</ele>
        <time>2020-02-22T12:14:35Z</time>
      </trkpt>
      <trkpt lat="38.7050120" lon="1.4592680">
        <ele>19.1</ele>
        <time>2020-02-22T12:14:36Z</time>
      </trkpt>
      <trkpt lat="38.7049680" lon="1.4593250">
        <ele>19.1</ele>
        <time>2020-02-22T12:14:37Z</time>
      </trkpt>
      <trkpt lat="38.7049680" lon="1.4593250">
        <ele>19.1</ele>
        <time>2020-02-22T12:14:38Z</time>
      </trkpt>
      <trkpt lat="38.7049280" lon="1.4593750">
        <ele>19.1</ele>
        <time>2020-02-22T12:14:39Z</time>
      </trkpt>
      <trkpt lat="38.7049280" lon="1.4593750">
        <ele>19.1</ele>
        <time>2020-02-22T12:14:40Z</time>
      </trkpt>
      <trkpt lat="38.7048830" lon="1.4594230">
        <ele>19.1</ele>
        <time>2020-02-22T12:14:41Z</time>
      </trkpt>
      <trkpt lat="38.7048830" lon="1.4594230">
        <ele>19.1</ele>
        <time>2020-02-22T12:14:42Z</time>
      </trkpt>
      <trkpt lat="38.7048400" lon="1.4594800">
        <ele>19.1</ele>
        <time>2020-02-22T12:14:43Z</time>
      </trkpt>
      <trkpt lat="38.7048400" lon="1.4594800">
        <ele>19.1</ele>
        <time>2020-02-22T12:14:44Z</time>
      </trkpt>
      <trkpt lat="38.7047900" lon="1.4595220">
        <ele>19.1</ele>
        <time>2020-02-22T12:14:45Z</time>
      </trkpt>
      <trkpt lat="38.7047900" lon="1.4595220">
        <ele>19.1</ele>
        <time>2020-02-22T12:14:46Z</time>
      </trkpt>
      <trkpt lat="38.7047470" lon="1.4595480">
        <ele>19.1</ele>
        <time>2020-02-22T12:14:47Z</time>
      </trkpt>
      <trkpt lat="38.7047470" lon="1.4595480">
        <ele>19.1</ele>
        <time>2020-02-22T12:14:48Z</time>
      </trkpt>
      <trkpt lat="38.7047370" lon="1.4595550">
        <ele>19.1</ele>
        <time>2020-02-22T12:14:49Z</time>
      </trkpt>
      <trkpt lat="38.7047370" lon="1.4595550">
        <ele>19.1</ele>
        <time>2020-02-22T12:14:50Z</time>
      </trkpt>
      <trkpt lat="38.7047370" lon="1.4595550">
        <ele>19.1</ele>
        <time>2020-02-22T12:15:36Z</time>
      </trkpt>
      <trkpt lat="38.7047750" lon="1.4595650">
        <ele>19.1</ele>
        <time>2020-02-22T12:15:37Z</time>
      </trkpt>
      <trkpt lat="38.7047750" lon="1.4595650">
        <ele>19.1</ele>
        <time>2020-02-22T12:15:38Z</time>
      </trkpt>
      <trkpt lat="38.7047770" lon="1.4595700">
        <ele>19.1</ele>
        <time>2020-02-22T12:15:47Z</time>
      </trkpt>
      <trkpt lat="38.7047400" lon="1.4596180">
        <ele>19.1</ele>
        <time>2020-02-22T12:15:48Z</time>
      </trkpt>
      <trkpt lat="38.7047300" lon="1.4596330">
        <ele>19.1</ele>
        <time>2020-02-22T12:15:49Z</time>
      </trkpt>
      <trkpt lat="38.7047300" lon="1.4596330">
        <ele>19.1</ele>
        <time>2020-02-22T12:15:50Z</time>
      </trkpt>
      <trkpt lat="38.7047030" lon="1.4596630">
        <ele>20.1</ele>
        <time>2020-02-22T12:15:51Z</time>
      </trkpt>
      <trkpt lat="38.7047030" lon="1.4596630">
        <ele>20.1</ele>
        <time>2020-02-22T12:15:52Z</time>
      </trkpt>
      <trkpt lat="38.7046650" lon="1.4596980">
        <ele>20.1</ele>
        <time>2020-02-22T12:15:53Z</time>
      </trkpt>
      <trkpt lat="38.7046650" lon="1.4596980">
        <ele>20.1</ele>
        <time>2020-02-22T12:15:54Z</time>
      </trkpt>
      <trkpt lat="38.7046270" lon="1.4597470">
        <ele>20.1</ele>
        <time>2020-02-22T12:15:55Z</time>
      </trkpt>
      <trkpt lat="38.7046270" lon="1.4597470">
        <ele>20.1</ele>
        <time>2020-02-22T12:15:56Z</time>
      </trkpt>
      <trkpt lat="38.7045830" lon="1.4597950">
        <ele>20.1</ele>
        <time>2020-02-22T12:15:57Z</time>
      </trkpt>
      <trkpt lat="38.7045830" lon="1.4597950">
        <ele>20.1</ele>
        <time>2020-02-22T12:15:58Z</time>
      </trkpt>
      <trkpt lat="38.7045430" lon="1.4598430">
        <ele>20.1</ele>
        <time>2020-02-22T12:15:59Z</time>
      </trkpt>
      <trkpt lat="38.7045430" lon="1.4598430">
        <ele>20.1</ele>
        <time>2020-02-22T12:16:00Z</time>
      </trkpt>
      <trkpt lat="38.7044980" lon="1.4598980">
        <ele>20.1</ele>
        <time>2020-02-22T12:16:01Z</time>
      </trkpt>
      <trkpt lat="38.7044730" lon="1.4599280">
        <ele>20.1</ele>
        <time>2020-02-22T12:16:02Z</time>
      </trkpt>
      <trkpt lat="38.7044470" lon="1.4599620">
        <ele>20.1</ele>
        <time>2020-02-22T12:16:03Z</time>
      </trkpt>
      <trkpt lat="38.7044180" lon="1.4599970">
        <ele>20.1</ele>
        <time>2020-02-22T12:16:04Z</time>
      </trkpt>
      <trkpt lat="38.7044180" lon="1.4599970">
        <ele>20.1</ele>
        <time>2020-02-22T12:16:05Z</time>
      </trkpt>
      <trkpt lat="38.7043570" lon="1.4600680">
        <ele>20.1</ele>
        <time>2020-02-22T12:16:06Z</time>
      </trkpt>
      <trkpt lat="38.7043270" lon="1.4601030">
        <ele>20.1</ele>
        <time>2020-02-22T12:16:07Z</time>
      </trkpt>
      <trkpt lat="38.7043270" lon="1.4601030">
        <ele>20.1</ele>
        <time>2020-02-22T12:16:08Z</time>
      </trkpt>
      <trkpt lat="38.7042620" lon="1.4601850">
        <ele>20.1</ele>
        <time>2020-02-22T12:16:09Z</time>
      </trkpt>
      <trkpt lat="38.7042620" lon="1.4601850">
        <ele>19.1</ele>
        <time>2020-02-22T12:16:10Z</time>
      </trkpt>
      <trkpt lat="38.7041920" lon="1.4602700">
        <ele>19.1</ele>
        <time>2020-02-22T12:16:11Z</time>
      </trkpt>
      <trkpt lat="38.7041570" lon="1.4603150">
        <ele>19.1</ele>
        <time>2020-02-22T12:16:12Z</time>
      </trkpt>
      <trkpt lat="38.7041570" lon="1.4603150">
        <ele>19.1</ele>
        <time>2020-02-22T12:16:13Z</time>
      </trkpt>
      <trkpt lat="38.7040850" lon="1.4604080">
        <ele>19.1</ele>
        <time>2020-02-22T12:16:14Z</time>
      </trkpt>
      <trkpt lat="38.7040480" lon="1.4604550">
        <ele>19.1</ele>
        <time>2020-02-22T12:16:15Z</time>
      </trkpt>
      <trkpt lat="38.7040480" lon="1.4604550">
        <ele>19.1</ele>
        <time>2020-02-22T12:16:16Z</time>
      </trkpt>
      <trkpt lat="38.7039720" lon="1.4605480">
        <ele>19.1</ele>
        <time>2020-02-22T12:16:17Z</time>
      </trkpt>
      <trkpt lat="38.7039330" lon="1.4605970">
        <ele>19.1</ele>
        <time>2020-02-22T12:16:18Z</time>
      </trkpt>
      <trkpt lat="38.7039330" lon="1.4605970">
        <ele>19.1</ele>
        <time>2020-02-22T12:16:19Z</time>
      </trkpt>
      <trkpt lat="38.7038520" lon="1.4606900">
        <ele>19.1</ele>
        <time>2020-02-22T12:16:20Z</time>
      </trkpt>
      <trkpt lat="38.7038100" lon="1.4607380">
        <ele>19.1</ele>
        <time>2020-02-22T12:16:21Z</time>
      </trkpt>
      <trkpt lat="38.7038100" lon="1.4607380">
        <ele>19.1</ele>
        <time>2020-02-22T12:16:22Z</time>
      </trkpt>
      <trkpt lat="38.7037280" lon="1.4608330">
        <ele>19.1</ele>
        <time>2020-02-22T12:16:23Z</time>
      </trkpt>
      <trkpt lat="38.7036870" lon="1.4608820">
        <ele>19.1</ele>
        <time>2020-02-22T12:16:24Z</time>
      </trkpt>
      <trkpt lat="38.7036870" lon="1.4608820">
        <ele>19.1</ele>
        <time>2020-02-22T12:16:25Z</time>
      </trkpt>
      <trkpt lat="38.7036030" lon="1.4609800">
        <ele>19.1</ele>
        <time>2020-02-22T12:16:26Z</time>
      </trkpt>
      <trkpt lat="38.7035620" lon="1.4610300">
        <ele>19.1</ele>
        <time>2020-02-22T12:16:27Z</time>
      </trkpt>
      <trkpt lat="38.7035620" lon="1.4610300">
        <ele>19.1</ele>
        <time>2020-02-22T12:16:28Z</time>
      </trkpt>
      <trkpt lat="38.7034770" lon="1.4611300">
        <ele>19.1</ele>
        <time>2020-02-22T12:16:29Z</time>
      </trkpt>
      <trkpt lat="38.7034330" lon="1.4611800">
        <ele>19.1</ele>
        <time>2020-02-22T12:16:30Z</time>
      </trkpt>
      <trkpt lat="38.7034330" lon="1.4611800">
        <ele>19.1</ele>
        <time>2020-02-22T12:16:31Z</time>
      </trkpt>
      <trkpt lat="38.7033480" lon="1.4612800">
        <ele>19.1</ele>
        <time>2020-02-22T12:16:32Z</time>
      </trkpt>
      <trkpt lat="38.7033070" lon="1.4613300">
        <ele>19.1</ele>
        <time>2020-02-22T12:16:33Z</time>
      </trkpt>
      <trkpt lat="38.7033070" lon="1.4613300">
        <ele>19.1</ele>
        <time>2020-02-22T12:16:34Z</time>
      </trkpt>
      <trkpt lat="38.7032280" lon="1.4614270">
        <ele>19.1</ele>
        <time>2020-02-22T12:16:35Z</time>
      </trkpt>
      <trkpt lat="38.7032280" lon="1.4614270">
        <ele>19.1</ele>
        <time>2020-02-22T12:16:36Z</time>
      </trkpt>
      <trkpt lat="38.7031520" lon="1.4615220">
        <ele>19.1</ele>
        <time>2020-02-22T12:16:37Z</time>
      </trkpt>
      <trkpt lat="38.7031520" lon="1.4615220">
        <ele>19.1</ele>
        <time>2020-02-22T12:16:38Z</time>
      </trkpt>
      <trkpt lat="38.7030780" lon="1.4616120">
        <ele>19.1</ele>
        <time>2020-02-22T12:16:39Z</time>
      </trkpt>
      <trkpt lat="38.7030430" lon="1.4616550">
        <ele>19.1</ele>
        <time>2020-02-22T12:16:40Z</time>
      </trkpt>
      <trkpt lat="38.7030430" lon="1.4616550">
        <ele>19.1</ele>
        <time>2020-02-22T12:16:41Z</time>
      </trkpt>
      <trkpt lat="38.7029750" lon="1.4617400">
        <ele>19.1</ele>
        <time>2020-02-22T12:16:42Z</time>
      </trkpt>
      <trkpt lat="38.7029400" lon="1.4617820">
        <ele>19.1</ele>
        <time>2020-02-22T12:16:43Z</time>
      </trkpt>
      <trkpt lat="38.7029400" lon="1.4617820">
        <ele>19.1</ele>
        <time>2020-02-22T12:16:44Z</time>
      </trkpt>
      <trkpt lat="38.7028750" lon="1.4618650">
        <ele>19.1</ele>
        <time>2020-02-22T12:16:45Z</time>
      </trkpt>
      <trkpt lat="38.7028750" lon="1.4618650">
        <ele>19.1</ele>
        <time>2020-02-22T12:16:46Z</time>
      </trkpt>
      <trkpt lat="38.7028120" lon="1.4619470">
        <ele>19.1</ele>
        <time>2020-02-22T12:16:47Z</time>
      </trkpt>
      <trkpt lat="38.7027800" lon="1.4619850">
        <ele>19.1</ele>
        <time>2020-02-22T12:16:48Z</time>
      </trkpt>
      <trkpt lat="38.7027470" lon="1.4620230">
        <ele>19.1</ele>
        <time>2020-02-22T12:16:49Z</time>
      </trkpt>
      <trkpt lat="38.7027470" lon="1.4620230">
        <ele>19.1</ele>
        <time>2020-02-22T12:16:50Z</time>
      </trkpt>
      <trkpt lat="38.7026830" lon="1.4621050">
        <ele>19.1</ele>
        <time>2020-02-22T12:16:51Z</time>
      </trkpt>
      <trkpt lat="38.7026830" lon="1.4621050">
        <ele>19.1</ele>
        <time>2020-02-22T12:16:52Z</time>
      </trkpt>
      <trkpt lat="38.7026180" lon="1.4621870">
        <ele>19.1</ele>
        <time>2020-02-22T12:16:53Z</time>
      </trkpt>
      <trkpt lat="38.7026180" lon="1.4621870">
        <ele>19.1</ele>
        <time>2020-02-22T12:16:54Z</time>
      </trkpt>
      <trkpt lat="38.7025500" lon="1.4622700">
        <ele>19.1</ele>
        <time>2020-02-22T12:16:55Z</time>
      </trkpt>
      <trkpt lat="38.7025500" lon="1.4622700">
        <ele>19.1</ele>
        <time>2020-02-22T12:16:56Z</time>
      </trkpt>
      <trkpt lat="38.7024820" lon="1.4623530">
        <ele>19.1</ele>
        <time>2020-02-22T12:16:57Z</time>
      </trkpt>
      <trkpt lat="38.7024470" lon="1.4623970">
        <ele>19.1</ele>
        <time>2020-02-22T12:16:58Z</time>
      </trkpt>
      <trkpt lat="38.7024470" lon="1.4623970">
        <ele>19.1</ele>
        <time>2020-02-22T12:16:59Z</time>
      </trkpt>
      <trkpt lat="38.7023770" lon="1.4624780">
        <ele>19.1</ele>
        <time>2020-02-22T12:17:00Z</time>
      </trkpt>
      <trkpt lat="38.7023430" lon="1.4625180">
        <ele>19.1</ele>
        <time>2020-02-22T12:17:01Z</time>
      </trkpt>
      <trkpt lat="38.7023430" lon="1.4625180">
        <ele>19.1</ele>
        <time>2020-02-22T12:17:02Z</time>
      </trkpt>
      <trkpt lat="38.7022730" lon="1.4626000">
        <ele>19.1</ele>
        <time>2020-02-22T12:17:03Z</time>
      </trkpt>
      <trkpt lat="38.7022730" lon="1.4626000">
        <ele>19.1</ele>
        <time>2020-02-22T12:17:04Z</time>
      </trkpt>
      <trkpt lat="38.7022020" lon="1.4626850">
        <ele>19.1</ele>
        <time>2020-02-22T12:17:05Z</time>
      </trkpt>
      <trkpt lat="38.7021670" lon="1.4627270">
        <ele>19.1</ele>
        <time>2020-02-22T12:17:06Z</time>
      </trkpt>
      <trkpt lat="38.7021320" lon="1.4627700">
        <ele>19.1</ele>
        <time>2020-02-22T12:17:07Z</time>
      </trkpt>
      <trkpt lat="38.7021320" lon="1.4627700">
        <ele>19.1</ele>
        <time>2020-02-22T12:17:08Z</time>
      </trkpt>
      <trkpt lat="38.7020600" lon="1.4628550">
        <ele>19.1</ele>
        <time>2020-02-22T12:17:09Z</time>
      </trkpt>
      <trkpt lat="38.7020600" lon="1.4628550">
        <ele>19.1</ele>
        <time>2020-02-22T12:17:10Z</time>
      </trkpt>
      <trkpt lat="38.7019880" lon="1.4629420">
        <ele>19.1</ele>
        <time>2020-02-22T12:17:11Z</time>
      </trkpt>
      <trkpt lat="38.7019880" lon="1.4629420">
        <ele>19.1</ele>
        <time>2020-02-22T12:17:12Z</time>
      </trkpt>
      <trkpt lat="38.7019200" lon="1.4630320">
        <ele>19.1</ele>
        <time>2020-02-22T12:17:13Z</time>
      </trkpt>
      <trkpt lat="38.7018850" lon="1.4630750">
        <ele>19.1</ele>
        <time>2020-02-22T12:17:14Z</time>
      </trkpt>
      <trkpt lat="38.7018850" lon="1.4630750">
        <ele>19.1</ele>
        <time>2020-02-22T12:17:15Z</time>
      </trkpt>
      <trkpt lat="38.7018150" lon="1.4631600">
        <ele>19.1</ele>
        <time>2020-02-22T12:17:16Z</time>
      </trkpt>
      <trkpt lat="38.7018150" lon="1.4631600">
        <ele>20.1</ele>
        <time>2020-02-22T12:17:17Z</time>
      </trkpt>
      <trkpt lat="38.7017430" lon="1.4632450">
        <ele>20.1</ele>
        <time>2020-02-22T12:17:18Z</time>
      </trkpt>
      <trkpt lat="38.7017050" lon="1.4632880">
        <ele>20.1</ele>
        <time>2020-02-22T12:17:19Z</time>
      </trkpt>
      <trkpt lat="38.7017050" lon="1.4632880">
        <ele>20.1</ele>
        <time>2020-02-22T12:17:20Z</time>
      </trkpt>
      <trkpt lat="38.7016330" lon="1.4633770">
        <ele>20.1</ele>
        <time>2020-02-22T12:17:21Z</time>
      </trkpt>
      <trkpt lat="38.7016330" lon="1.4633770">
        <ele>20.1</ele>
        <time>2020-02-22T12:17:22Z</time>
      </trkpt>
      <trkpt lat="38.7015620" lon="1.4634630">
        <ele>20.1</ele>
        <time>2020-02-22T12:17:23Z</time>
      </trkpt>
      <trkpt lat="38.7015620" lon="1.4634630">
        <ele>20.1</ele>
        <time>2020-02-22T12:17:24Z</time>
      </trkpt>
      <trkpt lat="38.7014900" lon="1.4635500">
        <ele>20.1</ele>
        <time>2020-02-22T12:17:25Z</time>
      </trkpt>
      <trkpt lat="38.7014900" lon="1.4635500">
        <ele>21.1</ele>
        <time>2020-02-22T12:17:26Z</time>
      </trkpt>
      <trkpt lat="38.7014180" lon="1.4636370">
        <ele>21.1</ele>
        <time>2020-02-22T12:17:27Z</time>
      </trkpt>
      <trkpt lat="38.7014180" lon="1.4636370">
        <ele>21.1</ele>
        <time>2020-02-22T12:17:28Z</time>
      </trkpt>
      <trkpt lat="38.7013450" lon="1.4637250">
        <ele>21.1</ele>
        <time>2020-02-22T12:17:29Z</time>
      </trkpt>
      <trkpt lat="38.7013450" lon="1.4637250">
        <ele>21.1</ele>
        <time>2020-02-22T12:17:30Z</time>
      </trkpt>
      <trkpt lat="38.7012700" lon="1.4638130">
        <ele>21.1</ele>
        <time>2020-02-22T12:17:31Z</time>
      </trkpt>
      <trkpt lat="38.7012700" lon="1.4638130">
        <ele>22.1</ele>
        <time>2020-02-22T12:17:32Z</time>
      </trkpt>
      <trkpt lat="38.7011950" lon="1.4639030">
        <ele>22.1</ele>
        <time>2020-02-22T12:17:33Z</time>
      </trkpt>
      <trkpt lat="38.7011580" lon="1.4639480">
        <ele>22.1</ele>
        <time>2020-02-22T12:17:34Z</time>
      </trkpt>
      <trkpt lat="38.7011580" lon="1.4639480">
        <ele>22.1</ele>
        <time>2020-02-22T12:17:35Z</time>
      </trkpt>
      <trkpt lat="38.7010820" lon="1.4640330">
        <ele>22.1</ele>
        <time>2020-02-22T12:17:36Z</time>
      </trkpt>
      <trkpt lat="38.7010400" lon="1.4640770">
        <ele>22.1</ele>
        <time>2020-02-22T12:17:37Z</time>
      </trkpt>
      <trkpt lat="38.7010400" lon="1.4640770">
        <ele>22.1</ele>
        <time>2020-02-22T12:17:38Z</time>
      </trkpt>
      <trkpt lat="38.7009630" lon="1.4641670">
        <ele>22.1</ele>
        <time>2020-02-22T12:17:39Z</time>
      </trkpt>
      <trkpt lat="38.7009630" lon="1.4641670">
        <ele>22.1</ele>
        <time>2020-02-22T12:17:40Z</time>
      </trkpt>
      <trkpt lat="38.7008870" lon="1.4642580">
        <ele>22.1</ele>
        <time>2020-02-22T12:17:41Z</time>
      </trkpt>
      <trkpt lat="38.7008870" lon="1.4642580">
        <ele>22.1</ele>
        <time>2020-02-22T12:17:42Z</time>
      </trkpt>
      <trkpt lat="38.7008120" lon="1.4643480">
        <ele>22.1</ele>
        <time>2020-02-22T12:17:43Z</time>
      </trkpt>
      <trkpt lat="38.7008120" lon="1.4643480">
        <ele>22.1</ele>
        <time>2020-02-22T12:17:44Z</time>
      </trkpt>
      <trkpt lat="38.7007380" lon="1.4644350">
        <ele>23.1</ele>
        <time>2020-02-22T12:17:45Z</time>
      </trkpt>
      <trkpt lat="38.7007380" lon="1.4644350">
        <ele>23.1</ele>
        <time>2020-02-22T12:17:46Z</time>
      </trkpt>
      <trkpt lat="38.7006680" lon="1.4645200">
        <ele>23.1</ele>
        <time>2020-02-22T12:17:47Z</time>
      </trkpt>
      <trkpt lat="38.7006330" lon="1.4645630">
        <ele>23.1</ele>
        <time>2020-02-22T12:17:48Z</time>
      </trkpt>
      <trkpt lat="38.7006330" lon="1.4645630">
        <ele>23.1</ele>
        <time>2020-02-22T12:17:49Z</time>
      </trkpt>
      <trkpt lat="38.7005600" lon="1.4646500">
        <ele>23.1</ele>
        <time>2020-02-22T12:17:50Z</time>
      </trkpt>
      <trkpt lat="38.7005600" lon="1.4646500">
        <ele>23.1</ele>
        <time>2020-02-22T12:17:51Z</time>
      </trkpt>
      <trkpt lat="38.7004880" lon="1.4647400">
        <ele>23.1</ele>
        <time>2020-02-22T12:17:52Z</time>
      </trkpt>
      <trkpt lat="38.7004880" lon="1.4647400">
        <ele>24.1</ele>
        <time>2020-02-22T12:17:53Z</time>
      </trkpt>
      <trkpt lat="38.7004150" lon="1.4648320">
        <ele>24.1</ele>
        <time>2020-02-22T12:17:54Z</time>
      </trkpt>
      <trkpt lat="38.7003770" lon="1.4648780">
        <ele>24.1</ele>
        <time>2020-02-22T12:17:55Z</time>
      </trkpt>
      <trkpt lat="38.7003770" lon="1.4648780">
        <ele>24.1</ele>
        <time>2020-02-22T12:17:56Z</time>
      </trkpt>
      <trkpt lat="38.7002980" lon="1.4649720">
        <ele>24.1</ele>
        <time>2020-02-22T12:17:57Z</time>
      </trkpt>
      <trkpt lat="38.7002980" lon="1.4649720">
        <ele>24.1</ele>
        <time>2020-02-22T12:17:58Z</time>
      </trkpt>
      <trkpt lat="38.7002180" lon="1.4650680">
        <ele>24.1</ele>
        <time>2020-02-22T12:17:59Z</time>
      </trkpt>
      <trkpt lat="38.7002180" lon="1.4650680">
        <ele>24.1</ele>
        <time>2020-02-22T12:18:00Z</time>
      </trkpt>
      <trkpt lat="38.7001380" lon="1.4651650">
        <ele>24.1</ele>
        <time>2020-02-22T12:18:01Z</time>
      </trkpt>
      <trkpt lat="38.7000980" lon="1.4652130">
        <ele>24.1</ele>
        <time>2020-02-22T12:18:02Z</time>
      </trkpt>
      <trkpt lat="38.7000580" lon="1.4652630">
        <ele>24.1</ele>
        <time>2020-02-22T12:18:03Z</time>
      </trkpt>
      <trkpt lat="38.7000580" lon="1.4652630">
        <ele>25.1</ele>
        <time>2020-02-22T12:18:04Z</time>
      </trkpt>
      <trkpt lat="38.6999800" lon="1.4653600">
        <ele>25.1</ele>
        <time>2020-02-22T12:18:05Z</time>
      </trkpt>
      <trkpt lat="38.6999800" lon="1.4653600">
        <ele>25.1</ele>
        <time>2020-02-22T12:18:06Z</time>
      </trkpt>
      <trkpt lat="38.6999020" lon="1.4654550">
        <ele>25.1</ele>
        <time>2020-02-22T12:18:07Z</time>
      </trkpt>
      <trkpt lat="38.6999020" lon="1.4654550">
        <ele>25.1</ele>
        <time>2020-02-22T12:18:08Z</time>
      </trkpt>
      <trkpt lat="38.6998250" lon="1.4655500">
        <ele>25.1</ele>
        <time>2020-02-22T12:18:09Z</time>
      </trkpt>
      <trkpt lat="38.6998250" lon="1.4655500">
        <ele>26.1</ele>
        <time>2020-02-22T12:18:10Z</time>
      </trkpt>
      <trkpt lat="38.6997500" lon="1.4656450">
        <ele>26.1</ele>
        <time>2020-02-22T12:18:11Z</time>
      </trkpt>
      <trkpt lat="38.6997500" lon="1.4656450">
        <ele>26.1</ele>
        <time>2020-02-22T12:18:12Z</time>
      </trkpt>
      <trkpt lat="38.6996800" lon="1.4657400">
        <ele>26.1</ele>
        <time>2020-02-22T12:18:13Z</time>
      </trkpt>
      <trkpt lat="38.6996800" lon="1.4657400">
        <ele>26.1</ele>
        <time>2020-02-22T12:18:14Z</time>
      </trkpt>
      <trkpt lat="38.6996120" lon="1.4658330">
        <ele>26.1</ele>
        <time>2020-02-22T12:18:15Z</time>
      </trkpt>
      <trkpt lat="38.6995780" lon="1.4658800">
        <ele>26.1</ele>
        <time>2020-02-22T12:18:16Z</time>
      </trkpt>
      <trkpt lat="38.6995780" lon="1.4658800">
        <ele>26.1</ele>
        <time>2020-02-22T12:18:17Z</time>
      </trkpt>
      <trkpt lat="38.6995150" lon="1.4659780">
        <ele>26.1</ele>
        <time>2020-02-22T12:18:18Z</time>
      </trkpt>
      <trkpt lat="38.6994850" lon="1.4660320">
        <ele>26.1</ele>
        <time>2020-02-22T12:18:19Z</time>
      </trkpt>
      <trkpt lat="38.6994850" lon="1.4660320">
        <ele>26.1</ele>
        <time>2020-02-22T12:18:20Z</time>
      </trkpt>
      <trkpt lat="38.6994270" lon="1.4661420">
        <ele>26.1</ele>
        <time>2020-02-22T12:18:21Z</time>
      </trkpt>
      <trkpt lat="38.6993980" lon="1.4662000">
        <ele>26.1</ele>
        <time>2020-02-22T12:18:22Z</time>
      </trkpt>
      <trkpt lat="38.6993980" lon="1.4662000">
        <ele>26.1</ele>
        <time>2020-02-22T12:18:23Z</time>
      </trkpt>
      <trkpt lat="38.6993400" lon="1.4663200">
        <ele>26.1</ele>
        <time>2020-02-22T12:18:24Z</time>
      </trkpt>
      <trkpt lat="38.6993120" lon="1.4663800">
        <ele>26.1</ele>
        <time>2020-02-22T12:18:25Z</time>
      </trkpt>
      <trkpt lat="38.6992830" lon="1.4664430">
        <ele>26.1</ele>
        <time>2020-02-22T12:18:26Z</time>
      </trkpt>
      <trkpt lat="38.6992570" lon="1.4665070">
        <ele>26.1</ele>
        <time>2020-02-22T12:18:27Z</time>
      </trkpt>
      <trkpt lat="38.6992280" lon="1.4665700">
        <ele>26.1</ele>
        <time>2020-02-22T12:18:28Z</time>
      </trkpt>
      <trkpt lat="38.6992280" lon="1.4665700">
        <ele>26.1</ele>
        <time>2020-02-22T12:18:29Z</time>
      </trkpt>
      <trkpt lat="38.6991680" lon="1.4667030">
        <ele>26.1</ele>
        <time>2020-02-22T12:18:30Z</time>
      </trkpt>
      <trkpt lat="38.6991680" lon="1.4667030">
        <ele>26.1</ele>
        <time>2020-02-22T12:18:31Z</time>
      </trkpt>
      <trkpt lat="38.6991050" lon="1.4668450">
        <ele>26.1</ele>
        <time>2020-02-22T12:18:32Z</time>
      </trkpt>
      <trkpt lat="38.6990730" lon="1.4669170">
        <ele>26.1</ele>
        <time>2020-02-22T12:18:33Z</time>
      </trkpt>
      <trkpt lat="38.6990730" lon="1.4669170">
        <ele>26.1</ele>
        <time>2020-02-22T12:18:34Z</time>
      </trkpt>
      <trkpt lat="38.6990080" lon="1.4670620">
        <ele>26.1</ele>
        <time>2020-02-22T12:18:35Z</time>
      </trkpt>
      <trkpt lat="38.6989770" lon="1.4671330">
        <ele>25.1</ele>
        <time>2020-02-22T12:18:36Z</time>
      </trkpt>
      <trkpt lat="38.6989450" lon="1.4672080">
        <ele>25.1</ele>
        <time>2020-02-22T12:18:37Z</time>
      </trkpt>
      <trkpt lat="38.6989450" lon="1.4672080">
        <ele>25.1</ele>
        <time>2020-02-22T12:18:38Z</time>
      </trkpt>
      <trkpt lat="38.6988800" lon="1.4673570">
        <ele>25.1</ele>
        <time>2020-02-22T12:18:39Z</time>
      </trkpt>
      <trkpt lat="38.6988800" lon="1.4673570">
        <ele>24.1</ele>
        <time>2020-02-22T12:18:40Z</time>
      </trkpt>
      <trkpt lat="38.6988170" lon="1.4675050">
        <ele>24.1</ele>
        <time>2020-02-22T12:18:41Z</time>
      </trkpt>
      <trkpt lat="38.6987850" lon="1.4675780">
        <ele>24.1</ele>
        <time>2020-02-22T12:18:42Z</time>
      </trkpt>
      <trkpt lat="38.6987530" lon="1.4676500">
        <ele>24.1</ele>
        <time>2020-02-22T12:18:43Z</time>
      </trkpt>
      <trkpt lat="38.6987530" lon="1.4676500">
        <ele>24.1</ele>
        <time>2020-02-22T12:18:44Z</time>
      </trkpt>
      <trkpt lat="38.6986900" lon="1.4677930">
        <ele>24.1</ele>
        <time>2020-02-22T12:18:45Z</time>
      </trkpt>
      <trkpt lat="38.6986900" lon="1.4677930">
        <ele>24.1</ele>
        <time>2020-02-22T12:18:46Z</time>
      </trkpt>
      <trkpt lat="38.6986250" lon="1.4679430">
        <ele>24.1</ele>
        <time>2020-02-22T12:18:47Z</time>
      </trkpt>
      <trkpt lat="38.6986250" lon="1.4679430">
        <ele>24.1</ele>
        <time>2020-02-22T12:18:48Z</time>
      </trkpt>
      <trkpt lat="38.6985570" lon="1.4680980">
        <ele>24.1</ele>
        <time>2020-02-22T12:18:49Z</time>
      </trkpt>
      <trkpt lat="38.6985570" lon="1.4680980">
        <ele>23.1</ele>
        <time>2020-02-22T12:18:50Z</time>
      </trkpt>
      <trkpt lat="38.6984880" lon="1.4682550">
        <ele>23.1</ele>
        <time>2020-02-22T12:18:51Z</time>
      </trkpt>
      <trkpt lat="38.6984880" lon="1.4682550">
        <ele>23.1</ele>
        <time>2020-02-22T12:18:52Z</time>
      </trkpt>
      <trkpt lat="38.6984180" lon="1.4684130">
        <ele>23.1</ele>
        <time>2020-02-22T12:18:53Z</time>
      </trkpt>
      <trkpt lat="38.6984180" lon="1.4684130">
        <ele>22.1</ele>
        <time>2020-02-22T12:18:54Z</time>
      </trkpt>
      <trkpt lat="38.6983480" lon="1.4685730">
        <ele>22.1</ele>
        <time>2020-02-22T12:18:55Z</time>
      </trkpt>
      <trkpt lat="38.6983480" lon="1.4685730">
        <ele>22.1</ele>
        <time>2020-02-22T12:18:56Z</time>
      </trkpt>
      <trkpt lat="38.6982770" lon="1.4687320">
        <ele>21.1</ele>
        <time>2020-02-22T12:18:57Z</time>
      </trkpt>
      <trkpt lat="38.6982770" lon="1.4687320">
        <ele>21.1</ele>
        <time>2020-02-22T12:18:58Z</time>
      </trkpt>
      <trkpt lat="38.6982070" lon="1.4688930">
        <ele>21.1</ele>
        <time>2020-02-22T12:18:59Z</time>
      </trkpt>
      <trkpt lat="38.6982070" lon="1.4688930">
        <ele>21.1</ele>
        <time>2020-02-22T12:19:00Z</time>
      </trkpt>
      <trkpt lat="38.6981370" lon="1.4690520">
        <ele>20.1</ele>
        <time>2020-02-22T12:19:01Z</time>
      </trkpt>
      <trkpt lat="38.6981370" lon="1.4690520">
        <ele>20.1</ele>
        <time>2020-02-22T12:19:02Z</time>
      </trkpt>
      <trkpt lat="38.6980670" lon="1.4692120">
        <ele>20.1</ele>
        <time>2020-02-22T12:19:03Z</time>
      </trkpt>
      <trkpt lat="38.6980320" lon="1.4692930">
        <ele>20.1</ele>
        <time>2020-02-22T12:19:04Z</time>
      </trkpt>
      <trkpt lat="38.6980320" lon="1.4692930">
        <ele>20.1</ele>
        <time>2020-02-22T12:19:05Z</time>
      </trkpt>
      <trkpt lat="38.6979620" lon="1.4694550">
        <ele>20.1</ele>
        <time>2020-02-22T12:19:06Z</time>
      </trkpt>
      <trkpt lat="38.6979250" lon="1.4695350">
        <ele>19.1</ele>
        <time>2020-02-22T12:19:07Z</time>
      </trkpt>
      <trkpt lat="38.6979250" lon="1.4695350">
        <ele>19.1</ele>
        <time>2020-02-22T12:19:08Z</time>
      </trkpt>
      <trkpt lat="38.6978530" lon="1.4697020">
        <ele>19.1</ele>
        <time>2020-02-22T12:19:09Z</time>
      </trkpt>
      <trkpt lat="38.6978530" lon="1.4697020">
        <ele>19.1</ele>
        <time>2020-02-22T12:19:10Z</time>
      </trkpt>
      <trkpt lat="38.6977800" lon="1.4698700">
        <ele>18.1</ele>
        <time>2020-02-22T12:19:11Z</time>
      </trkpt>
      <trkpt lat="38.6977800" lon="1.4698700">
        <ele>18.1</ele>
        <time>2020-02-22T12:19:12Z</time>
      </trkpt>
      <trkpt lat="38.6977050" lon="1.4700400">
        <ele>18.1</ele>
        <time>2020-02-22T12:19:13Z</time>
      </trkpt>
      <trkpt lat="38.6977050" lon="1.4700400">
        <ele>18.1</ele>
        <time>2020-02-22T12:19:14Z</time>
      </trkpt>
      <trkpt lat="38.6976300" lon="1.4702100">
        <ele>18.1</ele>
        <time>2020-02-22T12:19:15Z</time>
      </trkpt>
      <trkpt lat="38.6976300" lon="1.4702100">
        <ele>17.1</ele>
        <time>2020-02-22T12:19:16Z</time>
      </trkpt>
      <trkpt lat="38.6975570" lon="1.4703780">
        <ele>17.1</ele>
        <time>2020-02-22T12:19:17Z</time>
      </trkpt>
      <trkpt lat="38.6975570" lon="1.4703780">
        <ele>17.1</ele>
        <time>2020-02-22T12:19:18Z</time>
      </trkpt>
      <trkpt lat="38.6974850" lon="1.4705500">
        <ele>17.1</ele>
        <time>2020-02-22T12:19:19Z</time>
      </trkpt>
      <trkpt lat="38.6974850" lon="1.4705500">
        <ele>17.1</ele>
        <time>2020-02-22T12:19:20Z</time>
      </trkpt>
      <trkpt lat="38.6974080" lon="1.4707220">
        <ele>17.1</ele>
        <time>2020-02-22T12:19:21Z</time>
      </trkpt>
      <trkpt lat="38.6974080" lon="1.4707220">
        <ele>17.1</ele>
        <time>2020-02-22T12:19:22Z</time>
      </trkpt>
      <trkpt lat="38.6973320" lon="1.4708950">
        <ele>17.1</ele>
        <time>2020-02-22T12:19:23Z</time>
      </trkpt>
      <trkpt lat="38.6973320" lon="1.4708950">
        <ele>17.1</ele>
        <time>2020-02-22T12:19:24Z</time>
      </trkpt>
      <trkpt lat="38.6972570" lon="1.4710680">
        <ele>16.1</ele>
        <time>2020-02-22T12:19:25Z</time>
      </trkpt>
      <trkpt lat="38.6972570" lon="1.4710680">
        <ele>16.1</ele>
        <time>2020-02-22T12:19:26Z</time>
      </trkpt>
      <trkpt lat="38.6971820" lon="1.4712450">
        <ele>16.1</ele>
        <time>2020-02-22T12:19:27Z</time>
      </trkpt>
      <trkpt lat="38.6971420" lon="1.4713320">
        <ele>16.1</ele>
        <time>2020-02-22T12:19:28Z</time>
      </trkpt>
      <trkpt lat="38.6971420" lon="1.4713320">
        <ele>15.1</ele>
        <time>2020-02-22T12:19:29Z</time>
      </trkpt>
      <trkpt lat="38.6970650" lon="1.4715030">
        <ele>15.1</ele>
        <time>2020-02-22T12:19:30Z</time>
      </trkpt>
      <trkpt lat="38.6970270" lon="1.4715880">
        <ele>15.1</ele>
        <time>2020-02-22T12:19:31Z</time>
      </trkpt>
      <trkpt lat="38.6970270" lon="1.4715880">
        <ele>15.1</ele>
        <time>2020-02-22T12:19:32Z</time>
      </trkpt>
      <trkpt lat="38.6969530" lon="1.4717570">
        <ele>15.1</ele>
        <time>2020-02-22T12:19:33Z</time>
      </trkpt>
      <trkpt lat="38.6969530" lon="1.4717570">
        <ele>14.1</ele>
        <time>2020-02-22T12:19:34Z</time>
      </trkpt>
      <trkpt lat="38.6968800" lon="1.4719230">
        <ele>14.1</ele>
        <time>2020-02-22T12:19:35Z</time>
      </trkpt>
      <trkpt lat="38.6968800" lon="1.4719230">
        <ele>14.1</ele>
        <time>2020-02-22T12:19:36Z</time>
      </trkpt>
      <trkpt lat="38.6968080" lon="1.4720870">
        <ele>14.1</ele>
        <time>2020-02-22T12:19:37Z</time>
      </trkpt>
      <trkpt lat="38.6968080" lon="1.4720870">
        <ele>14.1</ele>
        <time>2020-02-22T12:19:38Z</time>
      </trkpt>
      <trkpt lat="38.6967380" lon="1.4722500">
        <ele>14.1</ele>
        <time>2020-02-22T12:19:39Z</time>
      </trkpt>
      <trkpt lat="38.6967030" lon="1.4723300">
        <ele>14.1</ele>
        <time>2020-02-22T12:19:40Z</time>
      </trkpt>
      <trkpt lat="38.6967030" lon="1.4723300">
        <ele>14.1</ele>
        <time>2020-02-22T12:19:41Z</time>
      </trkpt>
      <trkpt lat="38.6966330" lon="1.4724900">
        <ele>14.1</ele>
        <time>2020-02-22T12:19:42Z</time>
      </trkpt>
      <trkpt lat="38.6966330" lon="1.4724900">
        <ele>14.1</ele>
        <time>2020-02-22T12:19:43Z</time>
      </trkpt>
      <trkpt lat="38.6965650" lon="1.4726480">
        <ele>14.1</ele>
        <time>2020-02-22T12:19:44Z</time>
      </trkpt>
      <trkpt lat="38.6965300" lon="1.4727250">
        <ele>14.1</ele>
        <time>2020-02-22T12:19:45Z</time>
      </trkpt>
      <trkpt lat="38.6965300" lon="1.4727250">
        <ele>14.1</ele>
        <time>2020-02-22T12:19:46Z</time>
      </trkpt>
      <trkpt lat="38.6964630" lon="1.4728780">
        <ele>14.1</ele>
        <time>2020-02-22T12:19:47Z</time>
      </trkpt>
      <trkpt lat="38.6964630" lon="1.4728780">
        <ele>14.1</ele>
        <time>2020-02-22T12:19:48Z</time>
      </trkpt>
      <trkpt lat="38.6963970" lon="1.4730330">
        <ele>14.1</ele>
        <time>2020-02-22T12:19:49Z</time>
      </trkpt>
      <trkpt lat="38.6963970" lon="1.4730330">
        <ele>14.1</ele>
        <time>2020-02-22T12:19:50Z</time>
      </trkpt>
      <trkpt lat="38.6963300" lon="1.4731850">
        <ele>14.1</ele>
        <time>2020-02-22T12:19:51Z</time>
      </trkpt>
      <trkpt lat="38.6963300" lon="1.4731850">
        <ele>14.1</ele>
        <time>2020-02-22T12:19:52Z</time>
      </trkpt>
      <trkpt lat="38.6962670" lon="1.4733350">
        <ele>14.1</ele>
        <time>2020-02-22T12:19:53Z</time>
      </trkpt>
      <trkpt lat="38.6962670" lon="1.4733350">
        <ele>14.1</ele>
        <time>2020-02-22T12:19:54Z</time>
      </trkpt>
      <trkpt lat="38.6962000" lon="1.4734830">
        <ele>14.1</ele>
        <time>2020-02-22T12:19:55Z</time>
      </trkpt>
      <trkpt lat="38.6961670" lon="1.4735580">
        <ele>14.1</ele>
        <time>2020-02-22T12:19:56Z</time>
      </trkpt>
      <trkpt lat="38.6961330" lon="1.4736330">
        <ele>14.1</ele>
        <time>2020-02-22T12:19:57Z</time>
      </trkpt>
      <trkpt lat="38.6961000" lon="1.4737070">
        <ele>14.1</ele>
        <time>2020-02-22T12:19:58Z</time>
      </trkpt>
      <trkpt lat="38.6961000" lon="1.4737070">
        <ele>14.1</ele>
        <time>2020-02-22T12:19:59Z</time>
      </trkpt>
      <trkpt lat="38.6960330" lon="1.4738550">
        <ele>14.1</ele>
        <time>2020-02-22T12:20:00Z</time>
      </trkpt>
      <trkpt lat="38.6960000" lon="1.4739280">
        <ele>13.1</ele>
        <time>2020-02-22T12:20:01Z</time>
      </trkpt>
      <trkpt lat="38.6960000" lon="1.4739280">
        <ele>13.1</ele>
        <time>2020-02-22T12:20:02Z</time>
      </trkpt>
      <trkpt lat="38.6959350" lon="1.4740730">
        <ele>13.1</ele>
        <time>2020-02-22T12:20:03Z</time>
      </trkpt>
      <trkpt lat="38.6959350" lon="1.4740730">
        <ele>13.1</ele>
        <time>2020-02-22T12:20:04Z</time>
      </trkpt>
      <trkpt lat="38.6958700" lon="1.4742170">
        <ele>13.1</ele>
        <time>2020-02-22T12:20:05Z</time>
      </trkpt>
      <trkpt lat="38.6958700" lon="1.4742170">
        <ele>13.1</ele>
        <time>2020-02-22T12:20:06Z</time>
      </trkpt>
      <trkpt lat="38.6958070" lon="1.4743580">
        <ele>13.1</ele>
        <time>2020-02-22T12:20:07Z</time>
      </trkpt>
      <trkpt lat="38.6958070" lon="1.4743580">
        <ele>13.1</ele>
        <time>2020-02-22T12:20:08Z</time>
      </trkpt>
      <trkpt lat="38.6957430" lon="1.4744980">
        <ele>13.1</ele>
        <time>2020-02-22T12:20:09Z</time>
      </trkpt>
      <trkpt lat="38.6957430" lon="1.4744980">
        <ele>13.1</ele>
        <time>2020-02-22T12:20:10Z</time>
      </trkpt>
      <trkpt lat="38.6956800" lon="1.4746420">
        <ele>13.1</ele>
        <time>2020-02-22T12:20:11Z</time>
      </trkpt>
      <trkpt lat="38.6956480" lon="1.4747130">
        <ele>13.1</ele>
        <time>2020-02-22T12:20:12Z</time>
      </trkpt>
      <trkpt lat="38.6956480" lon="1.4747130">
        <ele>13.1</ele>
        <time>2020-02-22T12:20:13Z</time>
      </trkpt>
      <trkpt lat="38.6955850" lon="1.4748580">
        <ele>13.1</ele>
        <time>2020-02-22T12:20:14Z</time>
      </trkpt>
      <trkpt lat="38.6955530" lon="1.4749320">
        <ele>13.1</ele>
        <time>2020-02-22T12:20:15Z</time>
      </trkpt>
      <trkpt lat="38.6955220" lon="1.4750050">
        <ele>13.1</ele>
        <time>2020-02-22T12:20:16Z</time>
      </trkpt>
      <trkpt lat="38.6955220" lon="1.4750050">
        <ele>13.1</ele>
        <time>2020-02-22T12:20:17Z</time>
      </trkpt>
      <trkpt lat="38.6954570" lon="1.4751480">
        <ele>13.1</ele>
        <time>2020-02-22T12:20:18Z</time>
      </trkpt>
      <trkpt lat="38.6954570" lon="1.4751480">
        <ele>13.1</ele>
        <time>2020-02-22T12:20:19Z</time>
      </trkpt>
      <trkpt lat="38.6953930" lon="1.4752950">
        <ele>13.1</ele>
        <time>2020-02-22T12:20:20Z</time>
      </trkpt>
      <trkpt lat="38.6953600" lon="1.4753670">
        <ele>13.1</ele>
        <time>2020-02-22T12:20:21Z</time>
      </trkpt>
      <trkpt lat="38.6953600" lon="1.4753670">
        <ele>13.1</ele>
        <time>2020-02-22T12:20:22Z</time>
      </trkpt>
      <trkpt lat="38.6953000" lon="1.4755050">
        <ele>13.1</ele>
        <time>2020-02-22T12:20:23Z</time>
      </trkpt>
      <trkpt lat="38.6953000" lon="1.4755050">
        <ele>13.1</ele>
        <time>2020-02-22T12:20:24Z</time>
      </trkpt>
      <trkpt lat="38.6952370" lon="1.4756520">
        <ele>13.1</ele>
        <time>2020-02-22T12:20:25Z</time>
      </trkpt>
      <trkpt lat="38.6952370" lon="1.4756520">
        <ele>13.1</ele>
        <time>2020-02-22T12:20:26Z</time>
      </trkpt>
      <trkpt lat="38.6951680" lon="1.4758000">
        <ele>13.1</ele>
        <time>2020-02-22T12:20:27Z</time>
      </trkpt>
      <trkpt lat="38.6951680" lon="1.4758000">
        <ele>13.1</ele>
        <time>2020-02-22T12:20:28Z</time>
      </trkpt>
      <trkpt lat="38.6951020" lon="1.4759430">
        <ele>13.1</ele>
        <time>2020-02-22T12:20:29Z</time>
      </trkpt>
      <trkpt lat="38.6951020" lon="1.4759430">
        <ele>13.1</ele>
        <time>2020-02-22T12:20:30Z</time>
      </trkpt>
      <trkpt lat="38.6950370" lon="1.4760880">
        <ele>13.1</ele>
        <time>2020-02-22T12:20:31Z</time>
      </trkpt>
      <trkpt lat="38.6950370" lon="1.4760880">
        <ele>13.1</ele>
        <time>2020-02-22T12:20:32Z</time>
      </trkpt>
      <trkpt lat="38.6949720" lon="1.4762370">
        <ele>13.1</ele>
        <time>2020-02-22T12:20:33Z</time>
      </trkpt>
      <trkpt lat="38.6949720" lon="1.4762370">
        <ele>13.1</ele>
        <time>2020-02-22T12:20:34Z</time>
      </trkpt>
      <trkpt lat="38.6949050" lon="1.4763880">
        <ele>13.1</ele>
        <time>2020-02-22T12:20:35Z</time>
      </trkpt>
      <trkpt lat="38.6949050" lon="1.4763880">
        <ele>13.1</ele>
        <time>2020-02-22T12:20:36Z</time>
      </trkpt>
      <trkpt lat="38.6948370" lon="1.4765400">
        <ele>13.1</ele>
        <time>2020-02-22T12:20:37Z</time>
      </trkpt>
      <trkpt lat="38.6948370" lon="1.4765400">
        <ele>13.1</ele>
        <time>2020-02-22T12:20:38Z</time>
      </trkpt>
      <trkpt lat="38.6947700" lon="1.4766930">
        <ele>13.1</ele>
        <time>2020-02-22T12:20:39Z</time>
      </trkpt>
      <trkpt lat="38.6947700" lon="1.4766930">
        <ele>13.1</ele>
        <time>2020-02-22T12:20:40Z</time>
      </trkpt>
      <trkpt lat="38.6947030" lon="1.4768480">
        <ele>13.1</ele>
        <time>2020-02-22T12:20:41Z</time>
      </trkpt>
      <trkpt lat="38.6947030" lon="1.4768480">
        <ele>13.1</ele>
        <time>2020-02-22T12:20:42Z</time>
      </trkpt>
      <trkpt lat="38.6946330" lon="1.4770000">
        <ele>13.1</ele>
        <time>2020-02-22T12:20:43Z</time>
      </trkpt>
      <trkpt lat="38.6946330" lon="1.4770000">
        <ele>13.1</ele>
        <time>2020-02-22T12:20:44Z</time>
      </trkpt>
      <trkpt lat="38.6945670" lon="1.4771550">
        <ele>13.1</ele>
        <time>2020-02-22T12:20:45Z</time>
      </trkpt>
      <trkpt lat="38.6945670" lon="1.4771550">
        <ele>12.1</ele>
        <time>2020-02-22T12:20:46Z</time>
      </trkpt>
      <trkpt lat="38.6945000" lon="1.4773100">
        <ele>12.1</ele>
        <time>2020-02-22T12:20:47Z</time>
      </trkpt>
      <trkpt lat="38.6945000" lon="1.4773100">
        <ele>12.1</ele>
        <time>2020-02-22T12:20:48Z</time>
      </trkpt>
      <trkpt lat="38.6944300" lon="1.4774630">
        <ele>12.1</ele>
        <time>2020-02-22T12:20:49Z</time>
      </trkpt>
      <trkpt lat="38.6944300" lon="1.4774630">
        <ele>12.1</ele>
        <time>2020-02-22T12:20:50Z</time>
      </trkpt>
      <trkpt lat="38.6943600" lon="1.4776200">
        <ele>12.1</ele>
        <time>2020-02-22T12:20:51Z</time>
      </trkpt>
      <trkpt lat="38.6943270" lon="1.4776980">
        <ele>12.1</ele>
        <time>2020-02-22T12:20:52Z</time>
      </trkpt>
      <trkpt lat="38.6943270" lon="1.4776980">
        <ele>12.1</ele>
        <time>2020-02-22T12:20:53Z</time>
      </trkpt>
      <trkpt lat="38.6942570" lon="1.4778570">
        <ele>12.1</ele>
        <time>2020-02-22T12:20:54Z</time>
      </trkpt>
      <trkpt lat="38.6942230" lon="1.4779330">
        <ele>12.1</ele>
        <time>2020-02-22T12:20:55Z</time>
      </trkpt>
      <trkpt lat="38.6942230" lon="1.4779330">
        <ele>12.1</ele>
        <time>2020-02-22T12:20:56Z</time>
      </trkpt>
      <trkpt lat="38.6941670" lon="1.4780900">
        <ele>12.1</ele>
        <time>2020-02-22T12:20:57Z</time>
      </trkpt>
      <trkpt lat="38.6941670" lon="1.4780900">
        <ele>12.1</ele>
        <time>2020-02-22T12:20:58Z</time>
      </trkpt>
      <trkpt lat="38.6940930" lon="1.4782430">
        <ele>12.1</ele>
        <time>2020-02-22T12:20:59Z</time>
      </trkpt>
      <trkpt lat="38.6940550" lon="1.4783220">
        <ele>12.1</ele>
        <time>2020-02-22T12:21:00Z</time>
      </trkpt>
      <trkpt lat="38.6940550" lon="1.4783220">
        <ele>11.1</ele>
        <time>2020-02-22T12:21:01Z</time>
      </trkpt>
      <trkpt lat="38.6939820" lon="1.4784830">
        <ele>11.1</ele>
        <time>2020-02-22T12:21:02Z</time>
      </trkpt>
      <trkpt lat="38.6939450" lon="1.4785650">
        <ele>11.1</ele>
        <time>2020-02-22T12:21:03Z</time>
      </trkpt>
      <trkpt lat="38.6939450" lon="1.4785650">
        <ele>11.1</ele>
        <time>2020-02-22T12:21:04Z</time>
      </trkpt>
      <trkpt lat="38.6938730" lon="1.4787250">
        <ele>11.1</ele>
        <time>2020-02-22T12:21:05Z</time>
      </trkpt>
      <trkpt lat="38.6938730" lon="1.4787250">
        <ele>11.1</ele>
        <time>2020-02-22T12:21:06Z</time>
      </trkpt>
      <trkpt lat="38.6938050" lon="1.4788800">
        <ele>10.1</ele>
        <time>2020-02-22T12:21:07Z</time>
      </trkpt>
      <trkpt lat="38.6938050" lon="1.4788800">
        <ele>10.1</ele>
        <time>2020-02-22T12:21:08Z</time>
      </trkpt>
      <trkpt lat="38.6937370" lon="1.4790370">
        <ele>10.1</ele>
        <time>2020-02-22T12:21:09Z</time>
      </trkpt>
      <trkpt lat="38.6937370" lon="1.4790370">
        <ele>10.1</ele>
        <time>2020-02-22T12:21:10Z</time>
      </trkpt>
      <trkpt lat="38.6936650" lon="1.4791950">
        <ele>10.1</ele>
        <time>2020-02-22T12:21:11Z</time>
      </trkpt>
      <trkpt lat="38.6936650" lon="1.4791950">
        <ele>10.1</ele>
        <time>2020-02-22T12:21:12Z</time>
      </trkpt>
      <trkpt lat="38.6935980" lon="1.4793570">
        <ele>10.1</ele>
        <time>2020-02-22T12:21:13Z</time>
      </trkpt>
      <trkpt lat="38.6935980" lon="1.4793570">
        <ele>10.1</ele>
        <time>2020-02-22T12:21:14Z</time>
      </trkpt>
      <trkpt lat="38.6935280" lon="1.4795120">
        <ele>10.1</ele>
        <time>2020-02-22T12:21:15Z</time>
      </trkpt>
      <trkpt lat="38.6935280" lon="1.4795120">
        <ele>9.1</ele>
        <time>2020-02-22T12:21:16Z</time>
      </trkpt>
      <trkpt lat="38.6934580" lon="1.4796700">
        <ele>9.1</ele>
        <time>2020-02-22T12:21:17Z</time>
      </trkpt>
      <trkpt lat="38.6934580" lon="1.4796700">
        <ele>9.1</ele>
        <time>2020-02-22T12:21:18Z</time>
      </trkpt>
      <trkpt lat="38.6933880" lon="1.4798270">
        <ele>9.1</ele>
        <time>2020-02-22T12:21:19Z</time>
      </trkpt>
      <trkpt lat="38.6933880" lon="1.4798270">
        <ele>9.1</ele>
        <time>2020-02-22T12:21:20Z</time>
      </trkpt>
      <trkpt lat="38.6933170" lon="1.4799850">
        <ele>9.1</ele>
        <time>2020-02-22T12:21:21Z</time>
      </trkpt>
      <trkpt lat="38.6933170" lon="1.4799850">
        <ele>9.1</ele>
        <time>2020-02-22T12:21:22Z</time>
      </trkpt>
      <trkpt lat="38.6932480" lon="1.4801420">
        <ele>9.1</ele>
        <time>2020-02-22T12:21:23Z</time>
      </trkpt>
      <trkpt lat="38.6932130" lon="1.4802200">
        <ele>9.1</ele>
        <time>2020-02-22T12:21:24Z</time>
      </trkpt>
      <trkpt lat="38.6932130" lon="1.4802200">
        <ele>9.1</ele>
        <time>2020-02-22T12:21:25Z</time>
      </trkpt>
      <trkpt lat="38.6931450" lon="1.4803730">
        <ele>8.1</ele>
        <time>2020-02-22T12:21:26Z</time>
      </trkpt>
      <trkpt lat="38.6931100" lon="1.4804480">
        <ele>8.1</ele>
        <time>2020-02-22T12:21:27Z</time>
      </trkpt>
      <trkpt lat="38.6931100" lon="1.4804480">
        <ele>8.1</ele>
        <time>2020-02-22T12:21:28Z</time>
      </trkpt>
      <trkpt lat="38.6930430" lon="1.4806000">
        <ele>8.1</ele>
        <time>2020-02-22T12:21:29Z</time>
      </trkpt>
      <trkpt lat="38.6930430" lon="1.4806000">
        <ele>8.1</ele>
        <time>2020-02-22T12:21:30Z</time>
      </trkpt>
      <trkpt lat="38.6929780" lon="1.4807530">
        <ele>8.1</ele>
        <time>2020-02-22T12:21:31Z</time>
      </trkpt>
      <trkpt lat="38.6929780" lon="1.4807530">
        <ele>8.1</ele>
        <time>2020-02-22T12:21:32Z</time>
      </trkpt>
      <trkpt lat="38.6929120" lon="1.4809050">
        <ele>8.1</ele>
        <time>2020-02-22T12:21:33Z</time>
      </trkpt>
      <trkpt lat="38.6929120" lon="1.4809050">
        <ele>8.1</ele>
        <time>2020-02-22T12:21:34Z</time>
      </trkpt>
      <trkpt lat="38.6928450" lon="1.4810550">
        <ele>8.1</ele>
        <time>2020-02-22T12:21:35Z</time>
      </trkpt>
      <trkpt lat="38.6928130" lon="1.4811300">
        <ele>8.1</ele>
        <time>2020-02-22T12:21:36Z</time>
      </trkpt>
      <trkpt lat="38.6928130" lon="1.4811300">
        <ele>8.1</ele>
        <time>2020-02-22T12:21:37Z</time>
      </trkpt>
      <trkpt lat="38.6927470" lon="1.4812820">
        <ele>8.1</ele>
        <time>2020-02-22T12:21:38Z</time>
      </trkpt>
      <trkpt lat="38.6927130" lon="1.4813570">
        <ele>8.1</ele>
        <time>2020-02-22T12:21:39Z</time>
      </trkpt>
      <trkpt lat="38.6927130" lon="1.4813570">
        <ele>8.1</ele>
        <time>2020-02-22T12:21:40Z</time>
      </trkpt>
      <trkpt lat="38.6926480" lon="1.4815080">
        <ele>8.1</ele>
        <time>2020-02-22T12:21:41Z</time>
      </trkpt>
      <trkpt lat="38.6926480" lon="1.4815080">
        <ele>8.1</ele>
        <time>2020-02-22T12:21:42Z</time>
      </trkpt>
      <trkpt lat="38.6925830" lon="1.4816570">
        <ele>8.1</ele>
        <time>2020-02-22T12:21:43Z</time>
      </trkpt>
      <trkpt lat="38.6925830" lon="1.4816570">
        <ele>8.1</ele>
        <time>2020-02-22T12:21:44Z</time>
      </trkpt>
      <trkpt lat="38.6925180" lon="1.4818050">
        <ele>8.1</ele>
        <time>2020-02-22T12:21:45Z</time>
      </trkpt>
      <trkpt lat="38.6924870" lon="1.4818780">
        <ele>8.1</ele>
        <time>2020-02-22T12:21:46Z</time>
      </trkpt>
      <trkpt lat="38.6924870" lon="1.4818780">
        <ele>8.1</ele>
        <time>2020-02-22T12:21:47Z</time>
      </trkpt>
      <trkpt lat="38.6924230" lon="1.4820280">
        <ele>8.1</ele>
        <time>2020-02-22T12:21:48Z</time>
      </trkpt>
      <trkpt lat="38.6923920" lon="1.4821030">
        <ele>8.1</ele>
        <time>2020-02-22T12:21:49Z</time>
      </trkpt>
      <trkpt lat="38.6923920" lon="1.4821030">
        <ele>8.1</ele>
        <time>2020-02-22T12:21:50Z</time>
      </trkpt>
      <trkpt lat="38.6923250" lon="1.4822580">
        <ele>8.1</ele>
        <time>2020-02-22T12:21:51Z</time>
      </trkpt>
      <trkpt lat="38.6923250" lon="1.4822580">
        <ele>8.1</ele>
        <time>2020-02-22T12:21:52Z</time>
      </trkpt>
      <trkpt lat="38.6922570" lon="1.4824120">
        <ele>8.1</ele>
        <time>2020-02-22T12:21:53Z</time>
      </trkpt>
      <trkpt lat="38.6922570" lon="1.4824120">
        <ele>8.1</ele>
        <time>2020-02-22T12:21:54Z</time>
      </trkpt>
      <trkpt lat="38.6921900" lon="1.4825650">
        <ele>8.1</ele>
        <time>2020-02-22T12:21:55Z</time>
      </trkpt>
      <trkpt lat="38.6921900" lon="1.4825650">
        <ele>8.1</ele>
        <time>2020-02-22T12:21:56Z</time>
      </trkpt>
      <trkpt lat="38.6921230" lon="1.4827170">
        <ele>8.1</ele>
        <time>2020-02-22T12:21:57Z</time>
      </trkpt>
      <trkpt lat="38.6921230" lon="1.4827170">
        <ele>8.1</ele>
        <time>2020-02-22T12:21:58Z</time>
      </trkpt>
      <trkpt lat="38.6920550" lon="1.4828670">
        <ele>8.1</ele>
        <time>2020-02-22T12:21:59Z</time>
      </trkpt>
      <trkpt lat="38.6920550" lon="1.4828670">
        <ele>8.1</ele>
        <time>2020-02-22T12:22:00Z</time>
      </trkpt>
      <trkpt lat="38.6919900" lon="1.4830170">
        <ele>8.1</ele>
        <time>2020-02-22T12:22:01Z</time>
      </trkpt>
      <trkpt lat="38.6919900" lon="1.4830170">
        <ele>8.1</ele>
        <time>2020-02-22T12:22:02Z</time>
      </trkpt>
      <trkpt lat="38.6919220" lon="1.4831720">
        <ele>8.1</ele>
        <time>2020-02-22T12:22:03Z</time>
      </trkpt>
      <trkpt lat="38.6918880" lon="1.4832480">
        <ele>8.1</ele>
        <time>2020-02-22T12:22:04Z</time>
      </trkpt>
      <trkpt lat="38.6918880" lon="1.4832480">
        <ele>8.1</ele>
        <time>2020-02-22T12:22:05Z</time>
      </trkpt>
      <trkpt lat="38.6918180" lon="1.4834030">
        <ele>8.1</ele>
        <time>2020-02-22T12:22:06Z</time>
      </trkpt>
      <trkpt lat="38.6917850" lon="1.4834780">
        <ele>8.1</ele>
        <time>2020-02-22T12:22:07Z</time>
      </trkpt>
      <trkpt lat="38.6917850" lon="1.4834780">
        <ele>8.1</ele>
        <time>2020-02-22T12:22:08Z</time>
      </trkpt>
      <trkpt lat="38.6917150" lon="1.4836300">
        <ele>8.1</ele>
        <time>2020-02-22T12:22:09Z</time>
      </trkpt>
      <trkpt lat="38.6917150" lon="1.4836300">
        <ele>8.1</ele>
        <time>2020-02-22T12:22:10Z</time>
      </trkpt>
      <trkpt lat="38.6916480" lon="1.4837820">
        <ele>7.1</ele>
        <time>2020-02-22T12:22:11Z</time>
      </trkpt>
      <trkpt lat="38.6916480" lon="1.4837820">
        <ele>7.1</ele>
        <time>2020-02-22T12:22:12Z</time>
      </trkpt>
      <trkpt lat="38.6915800" lon="1.4839320">
        <ele>7.1</ele>
        <time>2020-02-22T12:22:13Z</time>
      </trkpt>
      <trkpt lat="38.6915470" lon="1.4840070">
        <ele>7.1</ele>
        <time>2020-02-22T12:22:14Z</time>
      </trkpt>
      <trkpt lat="38.6915130" lon="1.4840830">
        <ele>7.1</ele>
        <time>2020-02-22T12:22:15Z</time>
      </trkpt>
      <trkpt lat="38.6915130" lon="1.4840830">
        <ele>7.1</ele>
        <time>2020-02-22T12:22:16Z</time>
      </trkpt>
      <trkpt lat="38.6914480" lon="1.4842300">
        <ele>7.1</ele>
        <time>2020-02-22T12:22:17Z</time>
      </trkpt>
      <trkpt lat="38.6914150" lon="1.4843030">
        <ele>7.1</ele>
        <time>2020-02-22T12:22:18Z</time>
      </trkpt>
      <trkpt lat="38.6913820" lon="1.4843750">
        <ele>7.1</ele>
        <time>2020-02-22T12:22:19Z</time>
      </trkpt>
      <trkpt lat="38.6913820" lon="1.4843750">
        <ele>7.1</ele>
        <time>2020-02-22T12:22:20Z</time>
      </trkpt>
      <trkpt lat="38.6913170" lon="1.4845220">
        <ele>7.1</ele>
        <time>2020-02-22T12:22:21Z</time>
      </trkpt>
      <trkpt lat="38.6912850" lon="1.4845970">
        <ele>7.1</ele>
        <time>2020-02-22T12:22:22Z</time>
      </trkpt>
      <trkpt lat="38.6912850" lon="1.4845970">
        <ele>7.1</ele>
        <time>2020-02-22T12:22:23Z</time>
      </trkpt>
      <trkpt lat="38.6912220" lon="1.4847470">
        <ele>7.1</ele>
        <time>2020-02-22T12:22:24Z</time>
      </trkpt>
      <trkpt lat="38.6911900" lon="1.4848200">
        <ele>7.1</ele>
        <time>2020-02-22T12:22:25Z</time>
      </trkpt>
      <trkpt lat="38.6911900" lon="1.4848200">
        <ele>7.1</ele>
        <time>2020-02-22T12:22:26Z</time>
      </trkpt>
      <trkpt lat="38.6911270" lon="1.4849700">
        <ele>7.1</ele>
        <time>2020-02-22T12:22:27Z</time>
      </trkpt>
      <trkpt lat="38.6911270" lon="1.4849700">
        <ele>7.1</ele>
        <time>2020-02-22T12:22:28Z</time>
      </trkpt>
      <trkpt lat="38.6910620" lon="1.4851220">
        <ele>7.1</ele>
        <time>2020-02-22T12:22:29Z</time>
      </trkpt>
      <trkpt lat="38.6910280" lon="1.4851980">
        <ele>7.1</ele>
        <time>2020-02-22T12:22:30Z</time>
      </trkpt>
      <trkpt lat="38.6909930" lon="1.4852770">
        <ele>7.1</ele>
        <time>2020-02-22T12:22:31Z</time>
      </trkpt>
      <trkpt lat="38.6909930" lon="1.4852770">
        <ele>7.1</ele>
        <time>2020-02-22T12:22:32Z</time>
      </trkpt>
      <trkpt lat="38.6909300" lon="1.4854280">
        <ele>7.1</ele>
        <time>2020-02-22T12:22:33Z</time>
      </trkpt>
      <trkpt lat="38.6908970" lon="1.4855020">
        <ele>7.1</ele>
        <time>2020-02-22T12:22:34Z</time>
      </trkpt>
      <trkpt lat="38.6908970" lon="1.4855020">
        <ele>7.1</ele>
        <time>2020-02-22T12:22:35Z</time>
      </trkpt>
      <trkpt lat="38.6908320" lon="1.4856480">
        <ele>7.1</ele>
        <time>2020-02-22T12:22:36Z</time>
      </trkpt>
      <trkpt lat="38.6908000" lon="1.4857200">
        <ele>7.1</ele>
        <time>2020-02-22T12:22:37Z</time>
      </trkpt>
      <trkpt lat="38.6908000" lon="1.4857200">
        <ele>7.1</ele>
        <time>2020-02-22T12:22:38Z</time>
      </trkpt>
      <trkpt lat="38.6907350" lon="1.4858630">
        <ele>7.1</ele>
        <time>2020-02-22T12:22:39Z</time>
      </trkpt>
      <trkpt lat="38.6907030" lon="1.4859350">
        <ele>7.1</ele>
        <time>2020-02-22T12:22:40Z</time>
      </trkpt>
      <trkpt lat="38.6907030" lon="1.4859350">
        <ele>7.1</ele>
        <time>2020-02-22T12:22:41Z</time>
      </trkpt>
      <trkpt lat="38.6906420" lon="1.4860770">
        <ele>7.1</ele>
        <time>2020-02-22T12:22:42Z</time>
      </trkpt>
      <trkpt lat="38.6906420" lon="1.4860770">
        <ele>7.1</ele>
        <time>2020-02-22T12:22:43Z</time>
      </trkpt>
      <trkpt lat="38.6905800" lon="1.4862150">
        <ele>7.1</ele>
        <time>2020-02-22T12:22:44Z</time>
      </trkpt>
      <trkpt lat="38.6905480" lon="1.4862830">
        <ele>7.1</ele>
        <time>2020-02-22T12:22:45Z</time>
      </trkpt>
      <trkpt lat="38.6905480" lon="1.4862830">
        <ele>7.1</ele>
        <time>2020-02-22T12:22:46Z</time>
      </trkpt>
      <trkpt lat="38.6904880" lon="1.4864220">
        <ele>7.1</ele>
        <time>2020-02-22T12:22:47Z</time>
      </trkpt>
      <trkpt lat="38.6904880" lon="1.4864220">
        <ele>7.1</ele>
        <time>2020-02-22T12:22:48Z</time>
      </trkpt>
      <trkpt lat="38.6904280" lon="1.4865580">
        <ele>7.1</ele>
        <time>2020-02-22T12:22:49Z</time>
      </trkpt>
      <trkpt lat="38.6903950" lon="1.4866270">
        <ele>7.1</ele>
        <time>2020-02-22T12:22:50Z</time>
      </trkpt>
      <trkpt lat="38.6903950" lon="1.4866270">
        <ele>7.1</ele>
        <time>2020-02-22T12:22:51Z</time>
      </trkpt>
      <trkpt lat="38.6903330" lon="1.4867670">
        <ele>7.1</ele>
        <time>2020-02-22T12:22:52Z</time>
      </trkpt>
      <trkpt lat="38.6903330" lon="1.4867670">
        <ele>7.1</ele>
        <time>2020-02-22T12:22:53Z</time>
      </trkpt>
      <trkpt lat="38.6902730" lon="1.4869070">
        <ele>7.1</ele>
        <time>2020-02-22T12:22:54Z</time>
      </trkpt>
      <trkpt lat="38.6902420" lon="1.4869770">
        <ele>7.1</ele>
        <time>2020-02-22T12:22:55Z</time>
      </trkpt>
      <trkpt lat="38.6902420" lon="1.4869770">
        <ele>7.1</ele>
        <time>2020-02-22T12:22:56Z</time>
      </trkpt>
      <trkpt lat="38.6901780" lon="1.4871180">
        <ele>7.1</ele>
        <time>2020-02-22T12:22:57Z</time>
      </trkpt>
      <trkpt lat="38.6901480" lon="1.4871880">
        <ele>7.1</ele>
        <time>2020-02-22T12:22:58Z</time>
      </trkpt>
      <trkpt lat="38.6901480" lon="1.4871880">
        <ele>7.1</ele>
        <time>2020-02-22T12:22:59Z</time>
      </trkpt>
      <trkpt lat="38.6900830" lon="1.4873250">
        <ele>7.1</ele>
        <time>2020-02-22T12:23:00Z</time>
      </trkpt>
      <trkpt lat="38.6900480" lon="1.4873900">
        <ele>7.1</ele>
        <time>2020-02-22T12:23:01Z</time>
      </trkpt>
      <trkpt lat="38.6900480" lon="1.4873900">
        <ele>7.1</ele>
        <time>2020-02-22T12:23:02Z</time>
      </trkpt>
      <trkpt lat="38.6899770" lon="1.4875230">
        <ele>7.1</ele>
        <time>2020-02-22T12:23:03Z</time>
      </trkpt>
      <trkpt lat="38.6899770" lon="1.4875230">
        <ele>7.1</ele>
        <time>2020-02-22T12:23:04Z</time>
      </trkpt>
      <trkpt lat="38.6899020" lon="1.4876530">
        <ele>7.1</ele>
        <time>2020-02-22T12:23:05Z</time>
      </trkpt>
      <trkpt lat="38.6899020" lon="1.4876530">
        <ele>7.1</ele>
        <time>2020-02-22T12:23:06Z</time>
      </trkpt>
      <trkpt lat="38.6898230" lon="1.4877830">
        <ele>7.1</ele>
        <time>2020-02-22T12:23:07Z</time>
      </trkpt>
      <trkpt lat="38.6898230" lon="1.4877830">
        <ele>7.1</ele>
        <time>2020-02-22T12:23:08Z</time>
      </trkpt>
      <trkpt lat="38.6897470" lon="1.4879120">
        <ele>7.1</ele>
        <time>2020-02-22T12:23:09Z</time>
      </trkpt>
      <trkpt lat="38.6897470" lon="1.4879120">
        <ele>7.1</ele>
        <time>2020-02-22T12:23:10Z</time>
      </trkpt>
      <trkpt lat="38.6896680" lon="1.4880400">
        <ele>7.1</ele>
        <time>2020-02-22T12:23:11Z</time>
      </trkpt>
      <trkpt lat="38.6896680" lon="1.4880400">
        <ele>7.1</ele>
        <time>2020-02-22T12:23:12Z</time>
      </trkpt>
      <trkpt lat="38.6895880" lon="1.4881680">
        <ele>7.1</ele>
        <time>2020-02-22T12:23:13Z</time>
      </trkpt>
      <trkpt lat="38.6895880" lon="1.4881680">
        <ele>7.1</ele>
        <time>2020-02-22T12:23:14Z</time>
      </trkpt>
      <trkpt lat="38.6895100" lon="1.4882970">
        <ele>7.1</ele>
        <time>2020-02-22T12:23:15Z</time>
      </trkpt>
      <trkpt lat="38.6895100" lon="1.4882970">
        <ele>7.1</ele>
        <time>2020-02-22T12:23:16Z</time>
      </trkpt>
      <trkpt lat="38.6894280" lon="1.4884270">
        <ele>7.1</ele>
        <time>2020-02-22T12:23:17Z</time>
      </trkpt>
      <trkpt lat="38.6894280" lon="1.4884270">
        <ele>7.1</ele>
        <time>2020-02-22T12:23:18Z</time>
      </trkpt>
      <trkpt lat="38.6893500" lon="1.4885570">
        <ele>7.1</ele>
        <time>2020-02-22T12:23:19Z</time>
      </trkpt>
      <trkpt lat="38.6893500" lon="1.4885570">
        <ele>7.1</ele>
        <time>2020-02-22T12:23:20Z</time>
      </trkpt>
      <trkpt lat="38.6892700" lon="1.4886850">
        <ele>7.1</ele>
        <time>2020-02-22T12:23:21Z</time>
      </trkpt>
      <trkpt lat="38.6892700" lon="1.4886850">
        <ele>7.1</ele>
        <time>2020-02-22T12:23:22Z</time>
      </trkpt>
      <trkpt lat="38.6891920" lon="1.4888120">
        <ele>7.1</ele>
        <time>2020-02-22T12:23:23Z</time>
      </trkpt>
      <trkpt lat="38.6891520" lon="1.4888750">
        <ele>7.1</ele>
        <time>2020-02-22T12:23:24Z</time>
      </trkpt>
      <trkpt lat="38.6891130" lon="1.4889380">
        <ele>7.1</ele>
        <time>2020-02-22T12:23:25Z</time>
      </trkpt>
      <trkpt lat="38.6891130" lon="1.4889380">
        <ele>7.1</ele>
        <time>2020-02-22T12:23:26Z</time>
      </trkpt>
      <trkpt lat="38.6890350" lon="1.4890680">
        <ele>7.1</ele>
        <time>2020-02-22T12:23:27Z</time>
      </trkpt>
      <trkpt lat="38.6889950" lon="1.4891320">
        <ele>7.1</ele>
        <time>2020-02-22T12:23:28Z</time>
      </trkpt>
      <trkpt lat="38.6889950" lon="1.4891320">
        <ele>7.1</ele>
        <time>2020-02-22T12:23:29Z</time>
      </trkpt>
      <trkpt lat="38.6889150" lon="1.4892620">
        <ele>7.1</ele>
        <time>2020-02-22T12:23:30Z</time>
      </trkpt>
      <trkpt lat="38.6888750" lon="1.4893250">
        <ele>7.1</ele>
        <time>2020-02-22T12:23:31Z</time>
      </trkpt>
      <trkpt lat="38.6888750" lon="1.4893250">
        <ele>7.1</ele>
        <time>2020-02-22T12:23:32Z</time>
      </trkpt>
      <trkpt lat="38.6887950" lon="1.4894520">
        <ele>7.1</ele>
        <time>2020-02-22T12:23:33Z</time>
      </trkpt>
      <trkpt lat="38.6887550" lon="1.4895150">
        <ele>7.1</ele>
        <time>2020-02-22T12:23:34Z</time>
      </trkpt>
      <trkpt lat="38.6887550" lon="1.4895150">
        <ele>7.1</ele>
        <time>2020-02-22T12:23:35Z</time>
      </trkpt>
      <trkpt lat="38.6886780" lon="1.4896380">
        <ele>7.1</ele>
        <time>2020-02-22T12:23:36Z</time>
      </trkpt>
      <trkpt lat="38.6886400" lon="1.4897000">
        <ele>7.1</ele>
        <time>2020-02-22T12:23:37Z</time>
      </trkpt>
      <trkpt lat="38.6886400" lon="1.4897000">
        <ele>7.1</ele>
        <time>2020-02-22T12:23:38Z</time>
      </trkpt>
      <trkpt lat="38.6885620" lon="1.4898230">
        <ele>7.1</ele>
        <time>2020-02-22T12:23:39Z</time>
      </trkpt>
      <trkpt lat="38.6885620" lon="1.4898230">
        <ele>7.1</ele>
        <time>2020-02-22T12:23:40Z</time>
      </trkpt>
      <trkpt lat="38.6884850" lon="1.4899500">
        <ele>7.1</ele>
        <time>2020-02-22T12:23:41Z</time>
      </trkpt>
      <trkpt lat="38.6884850" lon="1.4899500">
        <ele>7.1</ele>
        <time>2020-02-22T12:23:42Z</time>
      </trkpt>
      <trkpt lat="38.6884070" lon="1.4900750">
        <ele>7.1</ele>
        <time>2020-02-22T12:23:43Z</time>
      </trkpt>
      <trkpt lat="38.6884070" lon="1.4900750">
        <ele>7.1</ele>
        <time>2020-02-22T12:23:44Z</time>
      </trkpt>
      <trkpt lat="38.6883270" lon="1.4901980">
        <ele>7.1</ele>
        <time>2020-02-22T12:23:45Z</time>
      </trkpt>
      <trkpt lat="38.6883270" lon="1.4901980">
        <ele>7.1</ele>
        <time>2020-02-22T12:23:46Z</time>
      </trkpt>
      <trkpt lat="38.6882480" lon="1.4903270">
        <ele>7.1</ele>
        <time>2020-02-22T12:23:47Z</time>
      </trkpt>
      <trkpt lat="38.6882480" lon="1.4903270">
        <ele>7.1</ele>
        <time>2020-02-22T12:23:48Z</time>
      </trkpt>
      <trkpt lat="38.6881730" lon="1.4904530">
        <ele>7.1</ele>
        <time>2020-02-22T12:23:49Z</time>
      </trkpt>
      <trkpt lat="38.6881730" lon="1.4904530">
        <ele>7.1</ele>
        <time>2020-02-22T12:23:50Z</time>
      </trkpt>
      <trkpt lat="38.6880970" lon="1.4905780">
        <ele>7.1</ele>
        <time>2020-02-22T12:23:51Z</time>
      </trkpt>
      <trkpt lat="38.6880580" lon="1.4906400">
        <ele>7.1</ele>
        <time>2020-02-22T12:23:52Z</time>
      </trkpt>
      <trkpt lat="38.6880580" lon="1.4906400">
        <ele>7.1</ele>
        <time>2020-02-22T12:23:53Z</time>
      </trkpt>
      <trkpt lat="38.6879820" lon="1.4907630">
        <ele>7.1</ele>
        <time>2020-02-22T12:23:54Z</time>
      </trkpt>
      <trkpt lat="38.6879430" lon="1.4908270">
        <ele>7.1</ele>
        <time>2020-02-22T12:23:55Z</time>
      </trkpt>
      <trkpt lat="38.6879430" lon="1.4908270">
        <ele>7.1</ele>
        <time>2020-02-22T12:23:56Z</time>
      </trkpt>
      <trkpt lat="38.6878650" lon="1.4909500">
        <ele>7.1</ele>
        <time>2020-02-22T12:23:57Z</time>
      </trkpt>
      <trkpt lat="38.6878650" lon="1.4909500">
        <ele>8.1</ele>
        <time>2020-02-22T12:23:58Z</time>
      </trkpt>
      <trkpt lat="38.6877870" lon="1.4910770">
        <ele>8.1</ele>
        <time>2020-02-22T12:23:59Z</time>
      </trkpt>
      <trkpt lat="38.6877870" lon="1.4910770">
        <ele>8.1</ele>
        <time>2020-02-22T12:24:00Z</time>
      </trkpt>
      <trkpt lat="38.6877100" lon="1.4912030">
        <ele>8.1</ele>
        <time>2020-02-22T12:24:01Z</time>
      </trkpt>
      <trkpt lat="38.6877100" lon="1.4912030">
        <ele>8.1</ele>
        <time>2020-02-22T12:24:02Z</time>
      </trkpt>
      <trkpt lat="38.6876330" lon="1.4913300">
        <ele>8.1</ele>
        <time>2020-02-22T12:24:03Z</time>
      </trkpt>
      <trkpt lat="38.6876330" lon="1.4913300">
        <ele>8.1</ele>
        <time>2020-02-22T12:24:04Z</time>
      </trkpt>
      <trkpt lat="38.6875570" lon="1.4914530">
        <ele>8.1</ele>
        <time>2020-02-22T12:24:05Z</time>
      </trkpt>
      <trkpt lat="38.6875180" lon="1.4915150">
        <ele>8.1</ele>
        <time>2020-02-22T12:24:06Z</time>
      </trkpt>
      <trkpt lat="38.6875180" lon="1.4915150">
        <ele>8.1</ele>
        <time>2020-02-22T12:24:07Z</time>
      </trkpt>
      <trkpt lat="38.6874420" lon="1.4916420">
        <ele>8.1</ele>
        <time>2020-02-22T12:24:08Z</time>
      </trkpt>
      <trkpt lat="38.6874030" lon="1.4917050">
        <ele>8.1</ele>
        <time>2020-02-22T12:24:09Z</time>
      </trkpt>
      <trkpt lat="38.6873650" lon="1.4917670">
        <ele>8.1</ele>
        <time>2020-02-22T12:24:10Z</time>
      </trkpt>
      <trkpt lat="38.6873650" lon="1.4917670">
        <ele>8.1</ele>
        <time>2020-02-22T12:24:11Z</time>
      </trkpt>
      <trkpt lat="38.6872880" lon="1.4918920">
        <ele>8.1</ele>
        <time>2020-02-22T12:24:12Z</time>
      </trkpt>
      <trkpt lat="38.6872880" lon="1.4918920">
        <ele>8.1</ele>
        <time>2020-02-22T12:24:13Z</time>
      </trkpt>
      <trkpt lat="38.6872100" lon="1.4920150">
        <ele>8.1</ele>
        <time>2020-02-22T12:24:14Z</time>
      </trkpt>
      <trkpt lat="38.6871720" lon="1.4920750">
        <ele>8.1</ele>
        <time>2020-02-22T12:24:15Z</time>
      </trkpt>
      <trkpt lat="38.6871720" lon="1.4920750">
        <ele>8.1</ele>
        <time>2020-02-22T12:24:16Z</time>
      </trkpt>
      <trkpt lat="38.6870920" lon="1.4922000">
        <ele>8.1</ele>
        <time>2020-02-22T12:24:17Z</time>
      </trkpt>
      <trkpt lat="38.6870920" lon="1.4922000">
        <ele>8.1</ele>
        <time>2020-02-22T12:24:18Z</time>
      </trkpt>
      <trkpt lat="38.6870120" lon="1.4923270">
        <ele>8.1</ele>
        <time>2020-02-22T12:24:19Z</time>
      </trkpt>
      <trkpt lat="38.6870120" lon="1.4923270">
        <ele>8.1</ele>
        <time>2020-02-22T12:24:20Z</time>
      </trkpt>
      <trkpt lat="38.6869320" lon="1.4924530">
        <ele>8.1</ele>
        <time>2020-02-22T12:24:21Z</time>
      </trkpt>
      <trkpt lat="38.6869320" lon="1.4924530">
        <ele>8.1</ele>
        <time>2020-02-22T12:24:22Z</time>
      </trkpt>
      <trkpt lat="38.6868500" lon="1.4925820">
        <ele>8.1</ele>
        <time>2020-02-22T12:24:23Z</time>
      </trkpt>
      <trkpt lat="38.6868500" lon="1.4925820">
        <ele>8.1</ele>
        <time>2020-02-22T12:24:24Z</time>
      </trkpt>
      <trkpt lat="38.6867700" lon="1.4927070">
        <ele>8.1</ele>
        <time>2020-02-22T12:24:25Z</time>
      </trkpt>
      <trkpt lat="38.6867700" lon="1.4927070">
        <ele>8.1</ele>
        <time>2020-02-22T12:24:26Z</time>
      </trkpt>
      <trkpt lat="38.6866920" lon="1.4928380">
        <ele>8.1</ele>
        <time>2020-02-22T12:24:27Z</time>
      </trkpt>
      <trkpt lat="38.6866920" lon="1.4928380">
        <ele>8.1</ele>
        <time>2020-02-22T12:24:28Z</time>
      </trkpt>
      <trkpt lat="38.6866100" lon="1.4929720">
        <ele>8.1</ele>
        <time>2020-02-22T12:24:29Z</time>
      </trkpt>
      <trkpt lat="38.6866100" lon="1.4929720">
        <ele>8.1</ele>
        <time>2020-02-22T12:24:30Z</time>
      </trkpt>
      <trkpt lat="38.6865280" lon="1.4931080">
        <ele>8.1</ele>
        <time>2020-02-22T12:24:31Z</time>
      </trkpt>
      <trkpt lat="38.6865280" lon="1.4931080">
        <ele>8.1</ele>
        <time>2020-02-22T12:24:32Z</time>
      </trkpt>
      <trkpt lat="38.6864450" lon="1.4932430">
        <ele>8.1</ele>
        <time>2020-02-22T12:24:33Z</time>
      </trkpt>
      <trkpt lat="38.6864450" lon="1.4932430">
        <ele>8.1</ele>
        <time>2020-02-22T12:24:34Z</time>
      </trkpt>
      <trkpt lat="38.6863650" lon="1.4933800">
        <ele>8.1</ele>
        <time>2020-02-22T12:24:35Z</time>
      </trkpt>
      <trkpt lat="38.6863650" lon="1.4933800">
        <ele>8.1</ele>
        <time>2020-02-22T12:24:36Z</time>
      </trkpt>
      <trkpt lat="38.6862830" lon="1.4935170">
        <ele>8.1</ele>
        <time>2020-02-22T12:24:37Z</time>
      </trkpt>
      <trkpt lat="38.6862420" lon="1.4935830">
        <ele>8.1</ele>
        <time>2020-02-22T12:24:38Z</time>
      </trkpt>
      <trkpt lat="38.6862000" lon="1.4936480">
        <ele>8.1</ele>
        <time>2020-02-22T12:24:39Z</time>
      </trkpt>
      <trkpt lat="38.6862000" lon="1.4936480">
        <ele>8.1</ele>
        <time>2020-02-22T12:24:40Z</time>
      </trkpt>
      <trkpt lat="38.6861180" lon="1.4937780">
        <ele>8.1</ele>
        <time>2020-02-22T12:24:41Z</time>
      </trkpt>
      <trkpt lat="38.6861180" lon="1.4937780">
        <ele>8.1</ele>
        <time>2020-02-22T12:24:42Z</time>
      </trkpt>
      <trkpt lat="38.6860380" lon="1.4939080">
        <ele>8.1</ele>
        <time>2020-02-22T12:24:43Z</time>
      </trkpt>
      <trkpt lat="38.6860380" lon="1.4939080">
        <ele>8.1</ele>
        <time>2020-02-22T12:24:44Z</time>
      </trkpt>
      <trkpt lat="38.6859600" lon="1.4940380">
        <ele>8.1</ele>
        <time>2020-02-22T12:24:45Z</time>
      </trkpt>
      <trkpt lat="38.6859200" lon="1.4941020">
        <ele>8.1</ele>
        <time>2020-02-22T12:24:46Z</time>
      </trkpt>
      <trkpt lat="38.6859200" lon="1.4941020">
        <ele>8.1</ele>
        <time>2020-02-22T12:24:47Z</time>
      </trkpt>
      <trkpt lat="38.6858420" lon="1.4942280">
        <ele>9.1</ele>
        <time>2020-02-22T12:24:48Z</time>
      </trkpt>
      <trkpt lat="38.6858020" lon="1.4942920">
        <ele>9.1</ele>
        <time>2020-02-22T12:24:49Z</time>
      </trkpt>
      <trkpt lat="38.6858020" lon="1.4942920">
        <ele>9.1</ele>
        <time>2020-02-22T12:24:50Z</time>
      </trkpt>
      <trkpt lat="38.6857220" lon="1.4944220">
        <ele>9.1</ele>
        <time>2020-02-22T12:24:51Z</time>
      </trkpt>
      <trkpt lat="38.6857220" lon="1.4944220">
        <ele>9.1</ele>
        <time>2020-02-22T12:24:52Z</time>
      </trkpt>
      <trkpt lat="38.6856420" lon="1.4945500">
        <ele>9.1</ele>
        <time>2020-02-22T12:24:53Z</time>
      </trkpt>
      <trkpt lat="38.6856020" lon="1.4946180">
        <ele>9.1</ele>
        <time>2020-02-22T12:24:54Z</time>
      </trkpt>
      <trkpt lat="38.6856020" lon="1.4946180">
        <ele>9.1</ele>
        <time>2020-02-22T12:24:55Z</time>
      </trkpt>
      <trkpt lat="38.6855250" lon="1.4947550">
        <ele>9.1</ele>
        <time>2020-02-22T12:24:56Z</time>
      </trkpt>
      <trkpt lat="38.6854850" lon="1.4948220">
        <ele>9.1</ele>
        <time>2020-02-22T12:24:57Z</time>
      </trkpt>
      <trkpt lat="38.6854850" lon="1.4948220">
        <ele>9.1</ele>
        <time>2020-02-22T12:24:58Z</time>
      </trkpt>
      <trkpt lat="38.6854070" lon="1.4949550">
        <ele>9.1</ele>
        <time>2020-02-22T12:24:59Z</time>
      </trkpt>
      <trkpt lat="38.6854070" lon="1.4949550">
        <ele>9.1</ele>
        <time>2020-02-22T12:25:00Z</time>
      </trkpt>
      <trkpt lat="38.6853200" lon="1.4950780">
        <ele>9.1</ele>
        <time>2020-02-22T12:25:01Z</time>
      </trkpt>
      <trkpt lat="38.6853200" lon="1.4950780">
        <ele>9.1</ele>
        <time>2020-02-22T12:25:02Z</time>
      </trkpt>
      <trkpt lat="38.6852400" lon="1.4952070">
        <ele>9.1</ele>
        <time>2020-02-22T12:25:03Z</time>
      </trkpt>
      <trkpt lat="38.6852020" lon="1.4952720">
        <ele>9.1</ele>
        <time>2020-02-22T12:25:04Z</time>
      </trkpt>
      <trkpt lat="38.6852020" lon="1.4952720">
        <ele>9.1</ele>
        <time>2020-02-22T12:25:05Z</time>
      </trkpt>
      <trkpt lat="38.6851230" lon="1.4954000">
        <ele>9.1</ele>
        <time>2020-02-22T12:25:06Z</time>
      </trkpt>
      <trkpt lat="38.6850830" lon="1.4954630">
        <ele>9.1</ele>
        <time>2020-02-22T12:25:07Z</time>
      </trkpt>
      <trkpt lat="38.6850830" lon="1.4954630">
        <ele>9.1</ele>
        <time>2020-02-22T12:25:08Z</time>
      </trkpt>
      <trkpt lat="38.6850070" lon="1.4955920">
        <ele>9.1</ele>
        <time>2020-02-22T12:25:09Z</time>
      </trkpt>
      <trkpt lat="38.6850070" lon="1.4955920">
        <ele>9.1</ele>
        <time>2020-02-22T12:25:10Z</time>
      </trkpt>
      <trkpt lat="38.6849270" lon="1.4957170">
        <ele>9.1</ele>
        <time>2020-02-22T12:25:11Z</time>
      </trkpt>
      <trkpt lat="38.6848880" lon="1.4957800">
        <ele>9.1</ele>
        <time>2020-02-22T12:25:12Z</time>
      </trkpt>
      <trkpt lat="38.6848480" lon="1.4958430">
        <ele>9.1</ele>
        <time>2020-02-22T12:25:13Z</time>
      </trkpt>
      <trkpt lat="38.6848480" lon="1.4958430">
        <ele>9.1</ele>
        <time>2020-02-22T12:25:14Z</time>
      </trkpt>
      <trkpt lat="38.6847700" lon="1.4959680">
        <ele>9.1</ele>
        <time>2020-02-22T12:25:15Z</time>
      </trkpt>
      <trkpt lat="38.6847700" lon="1.4959680">
        <ele>9.1</ele>
        <time>2020-02-22T12:25:16Z</time>
      </trkpt>
      <trkpt lat="38.6846920" lon="1.4960950">
        <ele>9.1</ele>
        <time>2020-02-22T12:25:17Z</time>
      </trkpt>
      <trkpt lat="38.6846520" lon="1.4961580">
        <ele>9.1</ele>
        <time>2020-02-22T12:25:18Z</time>
      </trkpt>
      <trkpt lat="38.6846130" lon="1.4962220">
        <ele>9.1</ele>
        <time>2020-02-22T12:25:19Z</time>
      </trkpt>
      <trkpt lat="38.6846130" lon="1.4962220">
        <ele>9.1</ele>
        <time>2020-02-22T12:25:20Z</time>
      </trkpt>
      <trkpt lat="38.6845320" lon="1.4963480">
        <ele>9.1</ele>
        <time>2020-02-22T12:25:21Z</time>
      </trkpt>
      <trkpt lat="38.6844920" lon="1.4964130">
        <ele>9.1</ele>
        <time>2020-02-22T12:25:22Z</time>
      </trkpt>
      <trkpt lat="38.6844920" lon="1.4964130">
        <ele>9.1</ele>
        <time>2020-02-22T12:25:23Z</time>
      </trkpt>
      <trkpt lat="38.6844130" lon="1.4965420">
        <ele>9.1</ele>
        <time>2020-02-22T12:25:24Z</time>
      </trkpt>
      <trkpt lat="38.6843730" lon="1.4966070">
        <ele>9.1</ele>
        <time>2020-02-22T12:25:25Z</time>
      </trkpt>
      <trkpt lat="38.6843730" lon="1.4966070">
        <ele>9.1</ele>
        <time>2020-02-22T12:25:26Z</time>
      </trkpt>
      <trkpt lat="38.6842920" lon="1.4967350">
        <ele>9.1</ele>
        <time>2020-02-22T12:25:27Z</time>
      </trkpt>
      <trkpt lat="38.6842520" lon="1.4967980">
        <ele>9.1</ele>
        <time>2020-02-22T12:25:28Z</time>
      </trkpt>
      <trkpt lat="38.6842520" lon="1.4967980">
        <ele>9.1</ele>
        <time>2020-02-22T12:25:29Z</time>
      </trkpt>
      <trkpt lat="38.6841720" lon="1.4969280">
        <ele>9.1</ele>
        <time>2020-02-22T12:25:30Z</time>
      </trkpt>
      <trkpt lat="38.6841320" lon="1.4969920">
        <ele>9.1</ele>
        <time>2020-02-22T12:25:31Z</time>
      </trkpt>
      <trkpt lat="38.6841320" lon="1.4969920">
        <ele>9.1</ele>
        <time>2020-02-22T12:25:32Z</time>
      </trkpt>
      <trkpt lat="38.6840520" lon="1.4971180">
        <ele>9.1</ele>
        <time>2020-02-22T12:25:33Z</time>
      </trkpt>
      <trkpt lat="38.6840520" lon="1.4971180">
        <ele>9.1</ele>
        <time>2020-02-22T12:25:34Z</time>
      </trkpt>
      <trkpt lat="38.6839730" lon="1.4972450">
        <ele>9.1</ele>
        <time>2020-02-22T12:25:35Z</time>
      </trkpt>
      <trkpt lat="38.6839730" lon="1.4972450">
        <ele>9.1</ele>
        <time>2020-02-22T12:25:36Z</time>
      </trkpt>
      <trkpt lat="38.6838950" lon="1.4973730">
        <ele>9.1</ele>
        <time>2020-02-22T12:25:37Z</time>
      </trkpt>
      <trkpt lat="38.6838950" lon="1.4973730">
        <ele>9.1</ele>
        <time>2020-02-22T12:25:38Z</time>
      </trkpt>
      <trkpt lat="38.6838220" lon="1.4975050">
        <ele>9.1</ele>
        <time>2020-02-22T12:25:39Z</time>
      </trkpt>
      <trkpt lat="38.6838220" lon="1.4975050">
        <ele>9.1</ele>
        <time>2020-02-22T12:25:40Z</time>
      </trkpt>
      <trkpt lat="38.6837480" lon="1.4976350">
        <ele>9.1</ele>
        <time>2020-02-22T12:25:41Z</time>
      </trkpt>
      <trkpt lat="38.6837480" lon="1.4976350">
        <ele>9.1</ele>
        <time>2020-02-22T12:25:42Z</time>
      </trkpt>
      <trkpt lat="38.6836800" lon="1.4977650">
        <ele>9.1</ele>
        <time>2020-02-22T12:25:43Z</time>
      </trkpt>
      <trkpt lat="38.6836800" lon="1.4977650">
        <ele>9.1</ele>
        <time>2020-02-22T12:25:44Z</time>
      </trkpt>
      <trkpt lat="38.6836120" lon="1.4979000">
        <ele>9.1</ele>
        <time>2020-02-22T12:25:45Z</time>
      </trkpt>
      <trkpt lat="38.6836120" lon="1.4979000">
        <ele>9.1</ele>
        <time>2020-02-22T12:25:46Z</time>
      </trkpt>
      <trkpt lat="38.6835470" lon="1.4980350">
        <ele>9.1</ele>
        <time>2020-02-22T12:25:47Z</time>
      </trkpt>
      <trkpt lat="38.6835470" lon="1.4980350">
        <ele>9.1</ele>
        <time>2020-02-22T12:25:48Z</time>
      </trkpt>
      <trkpt lat="38.6834820" lon="1.4981750">
        <ele>9.1</ele>
        <time>2020-02-22T12:25:49Z</time>
      </trkpt>
      <trkpt lat="38.6834820" lon="1.4981750">
        <ele>9.1</ele>
        <time>2020-02-22T12:25:50Z</time>
      </trkpt>
      <trkpt lat="38.6834200" lon="1.4983150">
        <ele>9.1</ele>
        <time>2020-02-22T12:25:51Z</time>
      </trkpt>
      <trkpt lat="38.6834200" lon="1.4983150">
        <ele>9.1</ele>
        <time>2020-02-22T12:25:52Z</time>
      </trkpt>
      <trkpt lat="38.6833550" lon="1.4984530">
        <ele>9.1</ele>
        <time>2020-02-22T12:25:53Z</time>
      </trkpt>
      <trkpt lat="38.6833550" lon="1.4984530">
        <ele>9.1</ele>
        <time>2020-02-22T12:25:54Z</time>
      </trkpt>
      <trkpt lat="38.6832920" lon="1.4985900">
        <ele>9.1</ele>
        <time>2020-02-22T12:25:55Z</time>
      </trkpt>
      <trkpt lat="38.6832920" lon="1.4985900">
        <ele>9.1</ele>
        <time>2020-02-22T12:25:56Z</time>
      </trkpt>
      <trkpt lat="38.6832300" lon="1.4987300">
        <ele>9.1</ele>
        <time>2020-02-22T12:25:57Z</time>
      </trkpt>
      <trkpt lat="38.6832300" lon="1.4987300">
        <ele>9.1</ele>
        <time>2020-02-22T12:25:58Z</time>
      </trkpt>
      <trkpt lat="38.6831700" lon="1.4988700">
        <ele>9.1</ele>
        <time>2020-02-22T12:25:59Z</time>
      </trkpt>
      <trkpt lat="38.6831700" lon="1.4988700">
        <ele>9.1</ele>
        <time>2020-02-22T12:26:00Z</time>
      </trkpt>
      <trkpt lat="38.6831120" lon="1.4990070">
        <ele>9.1</ele>
        <time>2020-02-22T12:26:01Z</time>
      </trkpt>
      <trkpt lat="38.6831120" lon="1.4990070">
        <ele>9.1</ele>
        <time>2020-02-22T12:26:02Z</time>
      </trkpt>
      <trkpt lat="38.6830480" lon="1.4991400">
        <ele>9.1</ele>
        <time>2020-02-22T12:26:03Z</time>
      </trkpt>
      <trkpt lat="38.6830480" lon="1.4991400">
        <ele>9.1</ele>
        <time>2020-02-22T12:26:04Z</time>
      </trkpt>
      <trkpt lat="38.6829870" lon="1.4992780">
        <ele>9.1</ele>
        <time>2020-02-22T12:26:05Z</time>
      </trkpt>
      <trkpt lat="38.6829870" lon="1.4992780">
        <ele>9.1</ele>
        <time>2020-02-22T12:26:06Z</time>
      </trkpt>
      <trkpt lat="38.6829230" lon="1.4994150">
        <ele>9.1</ele>
        <time>2020-02-22T12:26:07Z</time>
      </trkpt>
      <trkpt lat="38.6829230" lon="1.4994150">
        <ele>9.1</ele>
        <time>2020-02-22T12:26:08Z</time>
      </trkpt>
      <trkpt lat="38.6828570" lon="1.4995550">
        <ele>9.1</ele>
        <time>2020-02-22T12:26:09Z</time>
      </trkpt>
      <trkpt lat="38.6828570" lon="1.4995550">
        <ele>9.1</ele>
        <time>2020-02-22T12:26:10Z</time>
      </trkpt>
      <trkpt lat="38.6827930" lon="1.4996930">
        <ele>9.1</ele>
        <time>2020-02-22T12:26:11Z</time>
      </trkpt>
      <trkpt lat="38.6827930" lon="1.4996930">
        <ele>9.1</ele>
        <time>2020-02-22T12:26:12Z</time>
      </trkpt>
      <trkpt lat="38.6827300" lon="1.4998330">
        <ele>9.1</ele>
        <time>2020-02-22T12:26:13Z</time>
      </trkpt>
      <trkpt lat="38.6827300" lon="1.4998330">
        <ele>9.1</ele>
        <time>2020-02-22T12:26:14Z</time>
      </trkpt>
      <trkpt lat="38.6826650" lon="1.4999770">
        <ele>9.1</ele>
        <time>2020-02-22T12:26:15Z</time>
      </trkpt>
      <trkpt lat="38.6826300" lon="1.5000480">
        <ele>9.1</ele>
        <time>2020-02-22T12:26:16Z</time>
      </trkpt>
      <trkpt lat="38.6826300" lon="1.5000480">
        <ele>9.1</ele>
        <time>2020-02-22T12:26:17Z</time>
      </trkpt>
      <trkpt lat="38.6825620" lon="1.5001920">
        <ele>9.1</ele>
        <time>2020-02-22T12:26:18Z</time>
      </trkpt>
      <trkpt lat="38.6825620" lon="1.5001920">
        <ele>9.1</ele>
        <time>2020-02-22T12:26:19Z</time>
      </trkpt>
      <trkpt lat="38.6824970" lon="1.5003400">
        <ele>9.1</ele>
        <time>2020-02-22T12:26:20Z</time>
      </trkpt>
      <trkpt lat="38.6824970" lon="1.5003400">
        <ele>9.1</ele>
        <time>2020-02-22T12:26:21Z</time>
      </trkpt>
      <trkpt lat="38.6824280" lon="1.5004900">
        <ele>9.1</ele>
        <time>2020-02-22T12:26:22Z</time>
      </trkpt>
      <trkpt lat="38.6824280" lon="1.5004900">
        <ele>9.1</ele>
        <time>2020-02-22T12:26:23Z</time>
      </trkpt>
      <trkpt lat="38.6823600" lon="1.5006380">
        <ele>9.1</ele>
        <time>2020-02-22T12:26:24Z</time>
      </trkpt>
      <trkpt lat="38.6823600" lon="1.5006380">
        <ele>9.1</ele>
        <time>2020-02-22T12:26:25Z</time>
      </trkpt>
      <trkpt lat="38.6822920" lon="1.5007880">
        <ele>9.1</ele>
        <time>2020-02-22T12:26:26Z</time>
      </trkpt>
      <trkpt lat="38.6822570" lon="1.5008630">
        <ele>9.1</ele>
        <time>2020-02-22T12:26:27Z</time>
      </trkpt>
      <trkpt lat="38.6822570" lon="1.5008630">
        <ele>9.1</ele>
        <time>2020-02-22T12:26:28Z</time>
      </trkpt>
      <trkpt lat="38.6821880" lon="1.5010150">
        <ele>9.1</ele>
        <time>2020-02-22T12:26:29Z</time>
      </trkpt>
      <trkpt lat="38.6821530" lon="1.5010920">
        <ele>9.1</ele>
        <time>2020-02-22T12:26:30Z</time>
      </trkpt>
      <trkpt lat="38.6821530" lon="1.5010920">
        <ele>9.1</ele>
        <time>2020-02-22T12:26:31Z</time>
      </trkpt>
      <trkpt lat="38.6820820" lon="1.5012480">
        <ele>9.1</ele>
        <time>2020-02-22T12:26:32Z</time>
      </trkpt>
      <trkpt lat="38.6820470" lon="1.5013250">
        <ele>9.1</ele>
        <time>2020-02-22T12:26:33Z</time>
      </trkpt>
      <trkpt lat="38.6820100" lon="1.5014030">
        <ele>9.1</ele>
        <time>2020-02-22T12:26:34Z</time>
      </trkpt>
      <trkpt lat="38.6820100" lon="1.5014030">
        <ele>9.1</ele>
        <time>2020-02-22T12:26:35Z</time>
      </trkpt>
      <trkpt lat="38.6819380" lon="1.5015600">
        <ele>9.1</ele>
        <time>2020-02-22T12:26:36Z</time>
      </trkpt>
      <trkpt lat="38.6819380" lon="1.5015600">
        <ele>9.1</ele>
        <time>2020-02-22T12:26:37Z</time>
      </trkpt>
      <trkpt lat="38.6818670" lon="1.5017150">
        <ele>9.1</ele>
        <time>2020-02-22T12:26:38Z</time>
      </trkpt>
      <trkpt lat="38.6818300" lon="1.5017920">
        <ele>9.1</ele>
        <time>2020-02-22T12:26:39Z</time>
      </trkpt>
      <trkpt lat="38.6818300" lon="1.5017920">
        <ele>9.1</ele>
        <time>2020-02-22T12:26:40Z</time>
      </trkpt>
      <trkpt lat="38.6817600" lon="1.5019450">
        <ele>9.1</ele>
        <time>2020-02-22T12:26:41Z</time>
      </trkpt>
      <trkpt lat="38.6817600" lon="1.5019450">
        <ele>8.1</ele>
        <time>2020-02-22T12:26:42Z</time>
      </trkpt>
      <trkpt lat="38.6816880" lon="1.5020980">
        <ele>8.1</ele>
        <time>2020-02-22T12:26:43Z</time>
      </trkpt>
      <trkpt lat="38.6816880" lon="1.5020980">
        <ele>8.1</ele>
        <time>2020-02-22T12:26:44Z</time>
      </trkpt>
      <trkpt lat="38.6816180" lon="1.5022500">
        <ele>8.1</ele>
        <time>2020-02-22T12:26:45Z</time>
      </trkpt>
      <trkpt lat="38.6816180" lon="1.5022500">
        <ele>8.1</ele>
        <time>2020-02-22T12:26:46Z</time>
      </trkpt>
      <trkpt lat="38.6815480" lon="1.5024050">
        <ele>8.1</ele>
        <time>2020-02-22T12:26:47Z</time>
      </trkpt>
      <trkpt lat="38.6815480" lon="1.5024050">
        <ele>8.1</ele>
        <time>2020-02-22T12:26:48Z</time>
      </trkpt>
      <trkpt lat="38.6814770" lon="1.5025580">
        <ele>8.1</ele>
        <time>2020-02-22T12:26:49Z</time>
      </trkpt>
      <trkpt lat="38.6814770" lon="1.5025580">
        <ele>8.1</ele>
        <time>2020-02-22T12:26:50Z</time>
      </trkpt>
      <trkpt lat="38.6814020" lon="1.5027170">
        <ele>8.1</ele>
        <time>2020-02-22T12:26:51Z</time>
      </trkpt>
      <trkpt lat="38.6813650" lon="1.5027950">
        <ele>8.1</ele>
        <time>2020-02-22T12:26:52Z</time>
      </trkpt>
      <trkpt lat="38.6813650" lon="1.5027950">
        <ele>8.1</ele>
        <time>2020-02-22T12:26:53Z</time>
      </trkpt>
      <trkpt lat="38.6812920" lon="1.5029580">
        <ele>7.1</ele>
        <time>2020-02-22T12:26:54Z</time>
      </trkpt>
      <trkpt lat="38.6812530" lon="1.5030420">
        <ele>7.1</ele>
        <time>2020-02-22T12:26:55Z</time>
      </trkpt>
      <trkpt lat="38.6812530" lon="1.5030420">
        <ele>7.1</ele>
        <time>2020-02-22T12:26:56Z</time>
      </trkpt>
      <trkpt lat="38.6811770" lon="1.5032070">
        <ele>7.1</ele>
        <time>2020-02-22T12:26:57Z</time>
      </trkpt>
      <trkpt lat="38.6811770" lon="1.5032070">
        <ele>6.1</ele>
        <time>2020-02-22T12:26:58Z</time>
      </trkpt>
      <trkpt lat="38.6811000" lon="1.5033720">
        <ele>6.1</ele>
        <time>2020-02-22T12:26:59Z</time>
      </trkpt>
      <trkpt lat="38.6811000" lon="1.5033720">
        <ele>6.1</ele>
        <time>2020-02-22T12:27:00Z</time>
      </trkpt>
      <trkpt lat="38.6810250" lon="1.5035350">
        <ele>6.1</ele>
        <time>2020-02-22T12:27:01Z</time>
      </trkpt>
      <trkpt lat="38.6809850" lon="1.5036170">
        <ele>6.1</ele>
        <time>2020-02-22T12:27:02Z</time>
      </trkpt>
      <trkpt lat="38.6809850" lon="1.5036170">
        <ele>6.1</ele>
        <time>2020-02-22T12:27:03Z</time>
      </trkpt>
      <trkpt lat="38.6809100" lon="1.5037830">
        <ele>6.1</ele>
        <time>2020-02-22T12:27:04Z</time>
      </trkpt>
      <trkpt lat="38.6809100" lon="1.5037830">
        <ele>6.1</ele>
        <time>2020-02-22T12:27:05Z</time>
      </trkpt>
      <trkpt lat="38.6808330" lon="1.5039500">
        <ele>6.1</ele>
        <time>2020-02-22T12:27:06Z</time>
      </trkpt>
      <trkpt lat="38.6807950" lon="1.5040370">
        <ele>6.1</ele>
        <time>2020-02-22T12:27:07Z</time>
      </trkpt>
      <trkpt lat="38.6807950" lon="1.5040370">
        <ele>6.1</ele>
        <time>2020-02-22T12:27:08Z</time>
      </trkpt>
      <trkpt lat="38.6807180" lon="1.5042100">
        <ele>6.1</ele>
        <time>2020-02-22T12:27:09Z</time>
      </trkpt>
      <trkpt lat="38.6806800" lon="1.5043000">
        <ele>6.1</ele>
        <time>2020-02-22T12:27:10Z</time>
      </trkpt>
      <trkpt lat="38.6806800" lon="1.5043000">
        <ele>5.1</ele>
        <time>2020-02-22T12:27:11Z</time>
      </trkpt>
      <trkpt lat="38.6806050" lon="1.5044800">
        <ele>5.1</ele>
        <time>2020-02-22T12:27:12Z</time>
      </trkpt>
      <trkpt lat="38.6805680" lon="1.5045700">
        <ele>5.1</ele>
        <time>2020-02-22T12:27:13Z</time>
      </trkpt>
      <trkpt lat="38.6805680" lon="1.5045700">
        <ele>5.1</ele>
        <time>2020-02-22T12:27:14Z</time>
      </trkpt>
      <trkpt lat="38.6805000" lon="1.5047530">
        <ele>4.1</ele>
        <time>2020-02-22T12:27:15Z</time>
      </trkpt>
      <trkpt lat="38.6805000" lon="1.5047530">
        <ele>4.1</ele>
        <time>2020-02-22T12:27:16Z</time>
      </trkpt>
      <trkpt lat="38.6804400" lon="1.5049400">
        <ele>4.1</ele>
        <time>2020-02-22T12:27:17Z</time>
      </trkpt>
      <trkpt lat="38.6804100" lon="1.5050320">
        <ele>4.1</ele>
        <time>2020-02-22T12:27:18Z</time>
      </trkpt>
      <trkpt lat="38.6803820" lon="1.5051220">
        <ele>3.1</ele>
        <time>2020-02-22T12:27:19Z</time>
      </trkpt>
      <trkpt lat="38.6803820" lon="1.5051220">
        <ele>3.1</ele>
        <time>2020-02-22T12:27:20Z</time>
      </trkpt>
      <trkpt lat="38.6803250" lon="1.5053030">
        <ele>3.1</ele>
        <time>2020-02-22T12:27:21Z</time>
      </trkpt>
      <trkpt lat="38.6803250" lon="1.5053030">
        <ele>3.1</ele>
        <time>2020-02-22T12:27:22Z</time>
      </trkpt>
      <trkpt lat="38.6802720" lon="1.5054870">
        <ele>3.1</ele>
        <time>2020-02-22T12:27:23Z</time>
      </trkpt>
      <trkpt lat="38.6802720" lon="1.5054870">
        <ele>3.1</ele>
        <time>2020-02-22T12:27:24Z</time>
      </trkpt>
      <trkpt lat="38.6802220" lon="1.5056670">
        <ele>3.1</ele>
        <time>2020-02-22T12:27:25Z</time>
      </trkpt>
      <trkpt lat="38.6802220" lon="1.5056670">
        <ele>3.1</ele>
        <time>2020-02-22T12:27:26Z</time>
      </trkpt>
      <trkpt lat="38.6801700" lon="1.5058450">
        <ele>3.1</ele>
        <time>2020-02-22T12:27:27Z</time>
      </trkpt>
      <trkpt lat="38.6801700" lon="1.5058450">
        <ele>2.1</ele>
        <time>2020-02-22T12:27:28Z</time>
      </trkpt>
      <trkpt lat="38.6801220" lon="1.5060200">
        <ele>2.1</ele>
        <time>2020-02-22T12:27:29Z</time>
      </trkpt>
      <trkpt lat="38.6801220" lon="1.5060200">
        <ele>2.1</ele>
        <time>2020-02-22T12:27:30Z</time>
      </trkpt>
      <trkpt lat="38.6800720" lon="1.5061970">
        <ele>2.1</ele>
        <time>2020-02-22T12:27:31Z</time>
      </trkpt>
      <trkpt lat="38.6800720" lon="1.5061970">
        <ele>2.1</ele>
        <time>2020-02-22T12:27:32Z</time>
      </trkpt>
      <trkpt lat="38.6800200" lon="1.5063700">
        <ele>2.1</ele>
        <time>2020-02-22T12:27:33Z</time>
      </trkpt>
      <trkpt lat="38.6800200" lon="1.5063700">
        <ele>2.1</ele>
        <time>2020-02-22T12:27:34Z</time>
      </trkpt>
      <trkpt lat="38.6799680" lon="1.5065430">
        <ele>2.1</ele>
        <time>2020-02-22T12:27:35Z</time>
      </trkpt>
      <trkpt lat="38.6799680" lon="1.5065430">
        <ele>2.1</ele>
        <time>2020-02-22T12:27:36Z</time>
      </trkpt>
      <trkpt lat="38.6799170" lon="1.5067180">
        <ele>2.1</ele>
        <time>2020-02-22T12:27:37Z</time>
      </trkpt>
      <trkpt lat="38.6799170" lon="1.5067180">
        <ele>2.1</ele>
        <time>2020-02-22T12:27:38Z</time>
      </trkpt>
      <trkpt lat="38.6798670" lon="1.5068920">
        <ele>2.1</ele>
        <time>2020-02-22T12:27:39Z</time>
      </trkpt>
      <trkpt lat="38.6798670" lon="1.5068920">
        <ele>2.1</ele>
        <time>2020-02-22T12:27:40Z</time>
      </trkpt>
      <trkpt lat="38.6798170" lon="1.5070670">
        <ele>2.1</ele>
        <time>2020-02-22T12:27:41Z</time>
      </trkpt>
      <trkpt lat="38.6798170" lon="1.5070670">
        <ele>2.1</ele>
        <time>2020-02-22T12:27:42Z</time>
      </trkpt>
      <trkpt lat="38.6797670" lon="1.5072400">
        <ele>2.1</ele>
        <time>2020-02-22T12:27:43Z</time>
      </trkpt>
      <trkpt lat="38.6797670" lon="1.5072400">
        <ele>2.1</ele>
        <time>2020-02-22T12:27:44Z</time>
      </trkpt>
      <trkpt lat="38.6797180" lon="1.5074130">
        <ele>2.1</ele>
        <time>2020-02-22T12:27:45Z</time>
      </trkpt>
      <trkpt lat="38.6797180" lon="1.5074130">
        <ele>2.1</ele>
        <time>2020-02-22T12:27:46Z</time>
      </trkpt>
      <trkpt lat="38.6796700" lon="1.5075880">
        <ele>2.1</ele>
        <time>2020-02-22T12:27:47Z</time>
      </trkpt>
      <trkpt lat="38.6796700" lon="1.5075880">
        <ele>2.1</ele>
        <time>2020-02-22T12:27:48Z</time>
      </trkpt>
      <trkpt lat="38.6796230" lon="1.5077580">
        <ele>2.1</ele>
        <time>2020-02-22T12:27:49Z</time>
      </trkpt>
      <trkpt lat="38.6796230" lon="1.5077580">
        <ele>2.1</ele>
        <time>2020-02-22T12:27:50Z</time>
      </trkpt>
      <trkpt lat="38.6795750" lon="1.5079280">
        <ele>2.1</ele>
        <time>2020-02-22T12:27:51Z</time>
      </trkpt>
      <trkpt lat="38.6795750" lon="1.5079280">
        <ele>2.1</ele>
        <time>2020-02-22T12:27:52Z</time>
      </trkpt>
      <trkpt lat="38.6795230" lon="1.5081000">
        <ele>1.1</ele>
        <time>2020-02-22T12:27:53Z</time>
      </trkpt>
      <trkpt lat="38.6795230" lon="1.5081000">
        <ele>1.1</ele>
        <time>2020-02-22T12:27:54Z</time>
      </trkpt>
      <trkpt lat="38.6794730" lon="1.5082730">
        <ele>1.1</ele>
        <time>2020-02-22T12:27:55Z</time>
      </trkpt>
      <trkpt lat="38.6794730" lon="1.5082730">
        <ele>1.1</ele>
        <time>2020-02-22T12:27:56Z</time>
      </trkpt>
      <trkpt lat="38.6794230" lon="1.5084430">
        <ele>1.1</ele>
        <time>2020-02-22T12:27:57Z</time>
      </trkpt>
      <trkpt lat="38.6793980" lon="1.5085280">
        <ele>1.1</ele>
        <time>2020-02-22T12:27:58Z</time>
      </trkpt>
      <trkpt lat="38.6793980" lon="1.5085280">
        <ele>1.1</ele>
        <time>2020-02-22T12:27:59Z</time>
      </trkpt>
      <trkpt lat="38.6793500" lon="1.5086950">
        <ele>1.1</ele>
        <time>2020-02-22T12:28:00Z</time>
      </trkpt>
      <trkpt lat="38.6793500" lon="1.5086950">
        <ele>1.1</ele>
        <time>2020-02-22T12:28:01Z</time>
      </trkpt>
      <trkpt lat="38.6793000" lon="1.5088620">
        <ele>1.1</ele>
        <time>2020-02-22T12:28:02Z</time>
      </trkpt>
      <trkpt lat="38.6793000" lon="1.5088620">
        <ele>1.1</ele>
        <time>2020-02-22T12:28:03Z</time>
      </trkpt>
      <trkpt lat="38.6792520" lon="1.5090230">
        <ele>1.1</ele>
        <time>2020-02-22T12:28:04Z</time>
      </trkpt>
      <trkpt lat="38.6792520" lon="1.5090230">
        <ele>1.1</ele>
        <time>2020-02-22T12:28:05Z</time>
      </trkpt>
      <trkpt lat="38.6792050" lon="1.5091850">
        <ele>1.1</ele>
        <time>2020-02-22T12:28:06Z</time>
      </trkpt>
      <trkpt lat="38.6791800" lon="1.5092680">
        <ele>1.1</ele>
        <time>2020-02-22T12:28:07Z</time>
      </trkpt>
      <trkpt lat="38.6791800" lon="1.5092680">
        <ele>1.1</ele>
        <time>2020-02-22T12:28:08Z</time>
      </trkpt>
      <trkpt lat="38.6791280" lon="1.5094330">
        <ele>1.1</ele>
        <time>2020-02-22T12:28:09Z</time>
      </trkpt>
      <trkpt lat="38.6791280" lon="1.5094330">
        <ele>1.1</ele>
        <time>2020-02-22T12:28:10Z</time>
      </trkpt>
      <trkpt lat="38.6790780" lon="1.5095970">
        <ele>1.1</ele>
        <time>2020-02-22T12:28:11Z</time>
      </trkpt>
      <trkpt lat="38.6790780" lon="1.5095970">
        <ele>1.1</ele>
        <time>2020-02-22T12:28:12Z</time>
      </trkpt>
      <trkpt lat="38.6790280" lon="1.5097570">
        <ele>1.1</ele>
        <time>2020-02-22T12:28:13Z</time>
      </trkpt>
      <trkpt lat="38.6790280" lon="1.5097570">
        <ele>1.1</ele>
        <time>2020-02-22T12:28:14Z</time>
      </trkpt>
      <trkpt lat="38.6789800" lon="1.5099200">
        <ele>1.1</ele>
        <time>2020-02-22T12:28:15Z</time>
      </trkpt>
      <trkpt lat="38.6789800" lon="1.5099200">
        <ele>1.1</ele>
        <time>2020-02-22T12:28:16Z</time>
      </trkpt>
      <trkpt lat="38.6789320" lon="1.5100780">
        <ele>1.1</ele>
        <time>2020-02-22T12:28:17Z</time>
      </trkpt>
      <trkpt lat="38.6789320" lon="1.5100780">
        <ele>1.1</ele>
        <time>2020-02-22T12:28:18Z</time>
      </trkpt>
      <trkpt lat="38.6788770" lon="1.5102370">
        <ele>1.1</ele>
        <time>2020-02-22T12:28:19Z</time>
      </trkpt>
      <trkpt lat="38.6788770" lon="1.5102370">
        <ele>1.1</ele>
        <time>2020-02-22T12:28:20Z</time>
      </trkpt>
      <trkpt lat="38.6788220" lon="1.5104000">
        <ele>1.1</ele>
        <time>2020-02-22T12:28:21Z</time>
      </trkpt>
      <trkpt lat="38.6788220" lon="1.5104000">
        <ele>1.1</ele>
        <time>2020-02-22T12:28:22Z</time>
      </trkpt>
      <trkpt lat="38.6787820" lon="1.5105630">
        <ele>1.1</ele>
        <time>2020-02-22T12:28:23Z</time>
      </trkpt>
      <trkpt lat="38.6787820" lon="1.5105630">
        <ele>1.1</ele>
        <time>2020-02-22T12:28:24Z</time>
      </trkpt>
      <trkpt lat="38.6787320" lon="1.5107280">
        <ele>1.1</ele>
        <time>2020-02-22T12:28:25Z</time>
      </trkpt>
      <trkpt lat="38.6787320" lon="1.5107280">
        <ele>1.1</ele>
        <time>2020-02-22T12:28:26Z</time>
      </trkpt>
      <trkpt lat="38.6786800" lon="1.5108950">
        <ele>1.1</ele>
        <time>2020-02-22T12:28:27Z</time>
      </trkpt>
      <trkpt lat="38.6786800" lon="1.5108950">
        <ele>1.1</ele>
        <time>2020-02-22T12:28:28Z</time>
      </trkpt>
      <trkpt lat="38.6786300" lon="1.5110620">
        <ele>1.1</ele>
        <time>2020-02-22T12:28:29Z</time>
      </trkpt>
      <trkpt lat="38.6786300" lon="1.5110620">
        <ele>1.1</ele>
        <time>2020-02-22T12:28:30Z</time>
      </trkpt>
      <trkpt lat="38.6785800" lon="1.5112320">
        <ele>1.1</ele>
        <time>2020-02-22T12:28:31Z</time>
      </trkpt>
      <trkpt lat="38.6785800" lon="1.5112320">
        <ele>1.1</ele>
        <time>2020-02-22T12:28:32Z</time>
      </trkpt>
      <trkpt lat="38.6785320" lon="1.5114000">
        <ele>1.1</ele>
        <time>2020-02-22T12:28:33Z</time>
      </trkpt>
      <trkpt lat="38.6785320" lon="1.5114000">
        <ele>1.1</ele>
        <time>2020-02-22T12:28:34Z</time>
      </trkpt>
      <trkpt lat="38.6784820" lon="1.5115700">
        <ele>1.1</ele>
        <time>2020-02-22T12:28:35Z</time>
      </trkpt>
      <trkpt lat="38.6784820" lon="1.5115700">
        <ele>1.1</ele>
        <time>2020-02-22T12:28:36Z</time>
      </trkpt>
      <trkpt lat="38.6784330" lon="1.5117370">
        <ele>1.1</ele>
        <time>2020-02-22T12:28:37Z</time>
      </trkpt>
      <trkpt lat="38.6784330" lon="1.5117370">
        <ele>1.1</ele>
        <time>2020-02-22T12:28:38Z</time>
      </trkpt>
      <trkpt lat="38.6783850" lon="1.5119030">
        <ele>1.1</ele>
        <time>2020-02-22T12:28:39Z</time>
      </trkpt>
      <trkpt lat="38.6783600" lon="1.5119850">
        <ele>1.1</ele>
        <time>2020-02-22T12:28:40Z</time>
      </trkpt>
      <trkpt lat="38.6783600" lon="1.5119850">
        <ele>1.1</ele>
        <time>2020-02-22T12:28:41Z</time>
      </trkpt>
      <trkpt lat="38.6783100" lon="1.5121530">
        <ele>1.1</ele>
        <time>2020-02-22T12:28:42Z</time>
      </trkpt>
      <trkpt lat="38.6782850" lon="1.5122350">
        <ele>1.1</ele>
        <time>2020-02-22T12:28:43Z</time>
      </trkpt>
      <trkpt lat="38.6782850" lon="1.5122350">
        <ele>1.1</ele>
        <time>2020-02-22T12:28:44Z</time>
      </trkpt>
      <trkpt lat="38.6782350" lon="1.5124020">
        <ele>1.1</ele>
        <time>2020-02-22T12:28:45Z</time>
      </trkpt>
      <trkpt lat="38.6782350" lon="1.5124020">
        <ele>1.1</ele>
        <time>2020-02-22T12:28:46Z</time>
      </trkpt>
      <trkpt lat="38.6781900" lon="1.5125680">
        <ele>1.1</ele>
        <time>2020-02-22T12:28:47Z</time>
      </trkpt>
      <trkpt lat="38.6781900" lon="1.5125680">
        <ele>1.1</ele>
        <time>2020-02-22T12:28:48Z</time>
      </trkpt>
      <trkpt lat="38.6781430" lon="1.5127350">
        <ele>1.1</ele>
        <time>2020-02-22T12:28:49Z</time>
      </trkpt>
      <trkpt lat="38.6781430" lon="1.5127350">
        <ele>1.1</ele>
        <time>2020-02-22T12:28:50Z</time>
      </trkpt>
      <trkpt lat="38.6780950" lon="1.5129050">
        <ele>1.1</ele>
        <time>2020-02-22T12:28:51Z</time>
      </trkpt>
      <trkpt lat="38.6780950" lon="1.5129050">
        <ele>1.1</ele>
        <time>2020-02-22T12:28:52Z</time>
      </trkpt>
      <trkpt lat="38.6780470" lon="1.5130700">
        <ele>1.1</ele>
        <time>2020-02-22T12:28:53Z</time>
      </trkpt>
      <trkpt lat="38.6780230" lon="1.5131480">
        <ele>1.1</ele>
        <time>2020-02-22T12:28:54Z</time>
      </trkpt>
      <trkpt lat="38.6780000" lon="1.5132280">
        <ele>1.1</ele>
        <time>2020-02-22T12:28:55Z</time>
      </trkpt>
      <trkpt lat="38.6780000" lon="1.5132280">
        <ele>1.1</ele>
        <time>2020-02-22T12:28:56Z</time>
      </trkpt>
      <trkpt lat="38.6779500" lon="1.5133870">
        <ele>1.1</ele>
        <time>2020-02-22T12:28:57Z</time>
      </trkpt>
      <trkpt lat="38.6779500" lon="1.5133870">
        <ele>1.1</ele>
        <time>2020-02-22T12:28:58Z</time>
      </trkpt>
      <trkpt lat="38.6779000" lon="1.5135450">
        <ele>1.1</ele>
        <time>2020-02-22T12:28:59Z</time>
      </trkpt>
      <trkpt lat="38.6779000" lon="1.5135450">
        <ele>1.1</ele>
        <time>2020-02-22T12:29:00Z</time>
      </trkpt>
      <trkpt lat="38.6778550" lon="1.5137020">
        <ele>1.1</ele>
        <time>2020-02-22T12:29:01Z</time>
      </trkpt>
      <trkpt lat="38.6778550" lon="1.5137020">
        <ele>1.1</ele>
        <time>2020-02-22T12:29:02Z</time>
      </trkpt>
      <trkpt lat="38.6778080" lon="1.5138550">
        <ele>1.1</ele>
        <time>2020-02-22T12:29:03Z</time>
      </trkpt>
      <trkpt lat="38.6778080" lon="1.5138550">
        <ele>1.1</ele>
        <time>2020-02-22T12:29:04Z</time>
      </trkpt>
      <trkpt lat="38.6777600" lon="1.5140080">
        <ele>1.1</ele>
        <time>2020-02-22T12:29:05Z</time>
      </trkpt>
      <trkpt lat="38.6777600" lon="1.5140080">
        <ele>1.1</ele>
        <time>2020-02-22T12:29:06Z</time>
      </trkpt>
      <trkpt lat="38.6777100" lon="1.5141600">
        <ele>1.1</ele>
        <time>2020-02-22T12:29:07Z</time>
      </trkpt>
      <trkpt lat="38.6777100" lon="1.5141600">
        <ele>1.1</ele>
        <time>2020-02-22T12:29:08Z</time>
      </trkpt>
      <trkpt lat="38.6776620" lon="1.5143170">
        <ele>1.1</ele>
        <time>2020-02-22T12:29:09Z</time>
      </trkpt>
      <trkpt lat="38.6776400" lon="1.5143950">
        <ele>1.1</ele>
        <time>2020-02-22T12:29:10Z</time>
      </trkpt>
      <trkpt lat="38.6776400" lon="1.5143950">
        <ele>1.1</ele>
        <time>2020-02-22T12:29:11Z</time>
      </trkpt>
      <trkpt lat="38.6775930" lon="1.5145530">
        <ele>1.1</ele>
        <time>2020-02-22T12:29:12Z</time>
      </trkpt>
      <trkpt lat="38.6775700" lon="1.5146320">
        <ele>1.1</ele>
        <time>2020-02-22T12:29:13Z</time>
      </trkpt>
      <trkpt lat="38.6775700" lon="1.5146320">
        <ele>1.1</ele>
        <time>2020-02-22T12:29:14Z</time>
      </trkpt>
      <trkpt lat="38.6775230" lon="1.5147870">
        <ele>1.1</ele>
        <time>2020-02-22T12:29:15Z</time>
      </trkpt>
      <trkpt lat="38.6775000" lon="1.5148630">
        <ele>1.1</ele>
        <time>2020-02-22T12:29:16Z</time>
      </trkpt>
      <trkpt lat="38.6775000" lon="1.5148630">
        <ele>1.1</ele>
        <time>2020-02-22T12:29:17Z</time>
      </trkpt>
      <trkpt lat="38.6774530" lon="1.5150170">
        <ele>1.1</ele>
        <time>2020-02-22T12:29:18Z</time>
      </trkpt>
      <trkpt lat="38.6774300" lon="1.5150950">
        <ele>1.1</ele>
        <time>2020-02-22T12:29:19Z</time>
      </trkpt>
      <trkpt lat="38.6774300" lon="1.5150950">
        <ele>1.1</ele>
        <time>2020-02-22T12:29:20Z</time>
      </trkpt>
      <trkpt lat="38.6773770" lon="1.5152550">
        <ele>1.1</ele>
        <time>2020-02-22T12:29:21Z</time>
      </trkpt>
      <trkpt lat="38.6773530" lon="1.5153330">
        <ele>1.1</ele>
        <time>2020-02-22T12:29:22Z</time>
      </trkpt>
      <trkpt lat="38.6773530" lon="1.5153330">
        <ele>1.1</ele>
        <time>2020-02-22T12:29:23Z</time>
      </trkpt>
      <trkpt lat="38.6773100" lon="1.5154900">
        <ele>1.1</ele>
        <time>2020-02-22T12:29:24Z</time>
      </trkpt>
      <trkpt lat="38.6773100" lon="1.5154900">
        <ele>1.1</ele>
        <time>2020-02-22T12:29:25Z</time>
      </trkpt>
      <trkpt lat="38.6772650" lon="1.5156480">
        <ele>1.1</ele>
        <time>2020-02-22T12:29:26Z</time>
      </trkpt>
      <trkpt lat="38.6772430" lon="1.5157280">
        <ele>1.1</ele>
        <time>2020-02-22T12:29:27Z</time>
      </trkpt>
      <trkpt lat="38.6772430" lon="1.5157280">
        <ele>1.1</ele>
        <time>2020-02-22T12:29:28Z</time>
      </trkpt>
      <trkpt lat="38.6771950" lon="1.5158830">
        <ele>1.1</ele>
        <time>2020-02-22T12:29:29Z</time>
      </trkpt>
      <trkpt lat="38.6771950" lon="1.5158830">
        <ele>1.1</ele>
        <time>2020-02-22T12:29:30Z</time>
      </trkpt>
      <trkpt lat="38.6771580" lon="1.5160300">
        <ele>1.1</ele>
        <time>2020-02-22T12:29:31Z</time>
      </trkpt>
      <trkpt lat="38.6771580" lon="1.5160300">
        <ele>1.1</ele>
        <time>2020-02-22T12:29:32Z</time>
      </trkpt>
      <trkpt lat="38.6771150" lon="1.5161750">
        <ele>1.1</ele>
        <time>2020-02-22T12:29:33Z</time>
      </trkpt>
      <trkpt lat="38.6771150" lon="1.5161750">
        <ele>1.1</ele>
        <time>2020-02-22T12:29:34Z</time>
      </trkpt>
      <trkpt lat="38.6770750" lon="1.5163270">
        <ele>1.1</ele>
        <time>2020-02-22T12:29:35Z</time>
      </trkpt>
      <trkpt lat="38.6770530" lon="1.5164020">
        <ele>1.1</ele>
        <time>2020-02-22T12:29:36Z</time>
      </trkpt>
      <trkpt lat="38.6770280" lon="1.5164770">
        <ele>1.1</ele>
        <time>2020-02-22T12:29:37Z</time>
      </trkpt>
      <trkpt lat="38.6770280" lon="1.5164770">
        <ele>1.1</ele>
        <time>2020-02-22T12:29:38Z</time>
      </trkpt>
      <trkpt lat="38.6769780" lon="1.5166280">
        <ele>1.1</ele>
        <time>2020-02-22T12:29:39Z</time>
      </trkpt>
      <trkpt lat="38.6769780" lon="1.5166280">
        <ele>1.1</ele>
        <time>2020-02-22T12:29:40Z</time>
      </trkpt>
      <trkpt lat="38.6769220" lon="1.5167750">
        <ele>1.1</ele>
        <time>2020-02-22T12:29:41Z</time>
      </trkpt>
      <trkpt lat="38.6769220" lon="1.5167750">
        <ele>1.1</ele>
        <time>2020-02-22T12:29:42Z</time>
      </trkpt>
      <trkpt lat="38.6768570" lon="1.5169120">
        <ele>1.1</ele>
        <time>2020-02-22T12:29:43Z</time>
      </trkpt>
      <trkpt lat="38.6768570" lon="1.5169120">
        <ele>1.1</ele>
        <time>2020-02-22T12:29:44Z</time>
      </trkpt>
      <trkpt lat="38.6767900" lon="1.5170400">
        <ele>1.1</ele>
        <time>2020-02-22T12:29:45Z</time>
      </trkpt>
      <trkpt lat="38.6767900" lon="1.5170400">
        <ele>1.1</ele>
        <time>2020-02-22T12:29:46Z</time>
      </trkpt>
      <trkpt lat="38.6767130" lon="1.5171530">
        <ele>1.1</ele>
        <time>2020-02-22T12:29:47Z</time>
      </trkpt>
      <trkpt lat="38.6767130" lon="1.5171530">
        <ele>1.1</ele>
        <time>2020-02-22T12:29:48Z</time>
      </trkpt>
      <trkpt lat="38.6766280" lon="1.5172550">
        <ele>1.1</ele>
        <time>2020-02-22T12:29:49Z</time>
      </trkpt>
      <trkpt lat="38.6766280" lon="1.5172550">
        <ele>1.1</ele>
        <time>2020-02-22T12:29:50Z</time>
      </trkpt>
      <trkpt lat="38.6765400" lon="1.5173450">
        <ele>1.1</ele>
        <time>2020-02-22T12:29:51Z</time>
      </trkpt>
      <trkpt lat="38.6764950" lon="1.5173880">
        <ele>1.1</ele>
        <time>2020-02-22T12:29:52Z</time>
      </trkpt>
      <trkpt lat="38.6764950" lon="1.5173880">
        <ele>1.1</ele>
        <time>2020-02-22T12:29:53Z</time>
      </trkpt>
      <trkpt lat="38.6764120" lon="1.5174780">
        <ele>1.1</ele>
        <time>2020-02-22T12:29:54Z</time>
      </trkpt>
      <trkpt lat="38.6763700" lon="1.5175220">
        <ele>2.1</ele>
        <time>2020-02-22T12:29:55Z</time>
      </trkpt>
      <trkpt lat="38.6763700" lon="1.5175220">
        <ele>2.1</ele>
        <time>2020-02-22T12:29:56Z</time>
      </trkpt>
      <trkpt lat="38.6762900" lon="1.5176050">
        <ele>2.1</ele>
        <time>2020-02-22T12:29:57Z</time>
      </trkpt>
      <trkpt lat="38.6762900" lon="1.5176050">
        <ele>2.1</ele>
        <time>2020-02-22T12:29:58Z</time>
      </trkpt>
      <trkpt lat="38.6762050" lon="1.5176930">
        <ele>2.1</ele>
        <time>2020-02-22T12:29:59Z</time>
      </trkpt>
      <trkpt lat="38.6762050" lon="1.5176930">
        <ele>2.1</ele>
        <time>2020-02-22T12:30:00Z</time>
      </trkpt>
      <trkpt lat="38.6761230" lon="1.5177820">
        <ele>2.1</ele>
        <time>2020-02-22T12:30:01Z</time>
      </trkpt>
      <trkpt lat="38.6761230" lon="1.5177820">
        <ele>2.1</ele>
        <time>2020-02-22T12:30:02Z</time>
      </trkpt>
      <trkpt lat="38.6760450" lon="1.5178670">
        <ele>2.1</ele>
        <time>2020-02-22T12:30:03Z</time>
      </trkpt>
      <trkpt lat="38.6760080" lon="1.5179080">
        <ele>3.1</ele>
        <time>2020-02-22T12:30:04Z</time>
      </trkpt>
      <trkpt lat="38.6760080" lon="1.5179080">
        <ele>3.1</ele>
        <time>2020-02-22T12:30:05Z</time>
      </trkpt>
      <trkpt lat="38.6759300" lon="1.5179870">
        <ele>3.1</ele>
        <time>2020-02-22T12:30:06Z</time>
      </trkpt>
      <trkpt lat="38.6759300" lon="1.5179870">
        <ele>3.1</ele>
        <time>2020-02-22T12:30:07Z</time>
      </trkpt>
      <trkpt lat="38.6758550" lon="1.5180680">
        <ele>3.1</ele>
        <time>2020-02-22T12:30:08Z</time>
      </trkpt>
      <trkpt lat="38.6758170" lon="1.5181050">
        <ele>3.1</ele>
        <time>2020-02-22T12:30:09Z</time>
      </trkpt>
      <trkpt lat="38.6758170" lon="1.5181050">
        <ele>3.1</ele>
        <time>2020-02-22T12:30:10Z</time>
      </trkpt>
      <trkpt lat="38.6757420" lon="1.5181780">
        <ele>3.1</ele>
        <time>2020-02-22T12:30:11Z</time>
      </trkpt>
      <trkpt lat="38.6757030" lon="1.5182170">
        <ele>3.1</ele>
        <time>2020-02-22T12:30:12Z</time>
      </trkpt>
      <trkpt lat="38.6757030" lon="1.5182170">
        <ele>3.1</ele>
        <time>2020-02-22T12:30:13Z</time>
      </trkpt>
      <trkpt lat="38.6756320" lon="1.5182920">
        <ele>3.1</ele>
        <time>2020-02-22T12:30:14Z</time>
      </trkpt>
      <trkpt lat="38.6755950" lon="1.5183330">
        <ele>4.1</ele>
        <time>2020-02-22T12:30:15Z</time>
      </trkpt>
      <trkpt lat="38.6755950" lon="1.5183330">
        <ele>4.1</ele>
        <time>2020-02-22T12:30:16Z</time>
      </trkpt>
      <trkpt lat="38.6755250" lon="1.5184170">
        <ele>4.1</ele>
        <time>2020-02-22T12:30:17Z</time>
      </trkpt>
      <trkpt lat="38.6754880" lon="1.5184570">
        <ele>4.1</ele>
        <time>2020-02-22T12:30:18Z</time>
      </trkpt>
      <trkpt lat="38.6754880" lon="1.5184570">
        <ele>5.1</ele>
        <time>2020-02-22T12:30:19Z</time>
      </trkpt>
      <trkpt lat="38.6754120" lon="1.5185350">
        <ele>5.1</ele>
        <time>2020-02-22T12:30:20Z</time>
      </trkpt>
      <trkpt lat="38.6753730" lon="1.5185750">
        <ele>5.1</ele>
        <time>2020-02-22T12:30:21Z</time>
      </trkpt>
      <trkpt lat="38.6753730" lon="1.5185750">
        <ele>5.1</ele>
        <time>2020-02-22T12:30:22Z</time>
      </trkpt>
      <trkpt lat="38.6753030" lon="1.5186480">
        <ele>5.1</ele>
        <time>2020-02-22T12:30:23Z</time>
      </trkpt>
      <trkpt lat="38.6753030" lon="1.5186480">
        <ele>5.1</ele>
        <time>2020-02-22T12:30:24Z</time>
      </trkpt>
      <trkpt lat="38.6752320" lon="1.5187280">
        <ele>5.1</ele>
        <time>2020-02-22T12:30:25Z</time>
      </trkpt>
      <trkpt lat="38.6752320" lon="1.5187280">
        <ele>5.1</ele>
        <time>2020-02-22T12:30:26Z</time>
      </trkpt>
      <trkpt lat="38.6751530" lon="1.5188030">
        <ele>6.1</ele>
        <time>2020-02-22T12:30:27Z</time>
      </trkpt>
      <trkpt lat="38.6751150" lon="1.5188420">
        <ele>6.1</ele>
        <time>2020-02-22T12:30:28Z</time>
      </trkpt>
      <trkpt lat="38.6751150" lon="1.5188420">
        <ele>6.1</ele>
        <time>2020-02-22T12:30:29Z</time>
      </trkpt>
      <trkpt lat="38.6750400" lon="1.5189220">
        <ele>6.1</ele>
        <time>2020-02-22T12:30:30Z</time>
      </trkpt>
      <trkpt lat="38.6750400" lon="1.5189220">
        <ele>7.1</ele>
        <time>2020-02-22T12:30:31Z</time>
      </trkpt>
      <trkpt lat="38.6749630" lon="1.5190000">
        <ele>7.1</ele>
        <time>2020-02-22T12:30:32Z</time>
      </trkpt>
      <trkpt lat="38.6749630" lon="1.5190000">
        <ele>7.1</ele>
        <time>2020-02-22T12:30:33Z</time>
      </trkpt>
      <trkpt lat="38.6748820" lon="1.5190780">
        <ele>7.1</ele>
        <time>2020-02-22T12:30:34Z</time>
      </trkpt>
      <trkpt lat="38.6748420" lon="1.5191150">
        <ele>7.1</ele>
        <time>2020-02-22T12:30:35Z</time>
      </trkpt>
      <trkpt lat="38.6748420" lon="1.5191150">
        <ele>7.1</ele>
        <time>2020-02-22T12:30:36Z</time>
      </trkpt>
      <trkpt lat="38.6747630" lon="1.5191970">
        <ele>7.1</ele>
        <time>2020-02-22T12:30:37Z</time>
      </trkpt>
      <trkpt lat="38.6747630" lon="1.5191970">
        <ele>8.1</ele>
        <time>2020-02-22T12:30:38Z</time>
      </trkpt>
      <trkpt lat="38.6746900" lon="1.5192750">
        <ele>8.1</ele>
        <time>2020-02-22T12:30:39Z</time>
      </trkpt>
      <trkpt lat="38.6746900" lon="1.5192750">
        <ele>8.1</ele>
        <time>2020-02-22T12:30:40Z</time>
      </trkpt>
      <trkpt lat="38.6746170" lon="1.5193520">
        <ele>8.1</ele>
        <time>2020-02-22T12:30:41Z</time>
      </trkpt>
      <trkpt lat="38.6745780" lon="1.5193900">
        <ele>8.1</ele>
        <time>2020-02-22T12:30:42Z</time>
      </trkpt>
      <trkpt lat="38.6745420" lon="1.5194280">
        <ele>8.1</ele>
        <time>2020-02-22T12:30:43Z</time>
      </trkpt>
      <trkpt lat="38.6745420" lon="1.5194280">
        <ele>8.1</ele>
        <time>2020-02-22T12:30:44Z</time>
      </trkpt>
      <trkpt lat="38.6744670" lon="1.5195050">
        <ele>8.1</ele>
        <time>2020-02-22T12:30:45Z</time>
      </trkpt>
      <trkpt lat="38.6744670" lon="1.5195050">
        <ele>8.1</ele>
        <time>2020-02-22T12:30:46Z</time>
      </trkpt>
      <trkpt lat="38.6743880" lon="1.5195830">
        <ele>8.1</ele>
        <time>2020-02-22T12:30:47Z</time>
      </trkpt>
      <trkpt lat="38.6743880" lon="1.5195830">
        <ele>8.1</ele>
        <time>2020-02-22T12:30:48Z</time>
      </trkpt>
      <trkpt lat="38.6743120" lon="1.5196650">
        <ele>8.1</ele>
        <time>2020-02-22T12:30:49Z</time>
      </trkpt>
      <trkpt lat="38.6743120" lon="1.5196650">
        <ele>8.1</ele>
        <time>2020-02-22T12:30:50Z</time>
      </trkpt>
      <trkpt lat="38.6742350" lon="1.5197430">
        <ele>8.1</ele>
        <time>2020-02-22T12:30:51Z</time>
      </trkpt>
      <trkpt lat="38.6742350" lon="1.5197430">
        <ele>8.1</ele>
        <time>2020-02-22T12:30:52Z</time>
      </trkpt>
      <trkpt lat="38.6741550" lon="1.5198220">
        <ele>8.1</ele>
        <time>2020-02-22T12:30:53Z</time>
      </trkpt>
      <trkpt lat="38.6741130" lon="1.5198620">
        <ele>8.1</ele>
        <time>2020-02-22T12:30:54Z</time>
      </trkpt>
      <trkpt lat="38.6740720" lon="1.5198980">
        <ele>8.1</ele>
        <time>2020-02-22T12:30:55Z</time>
      </trkpt>
      <trkpt lat="38.6740720" lon="1.5198980">
        <ele>8.1</ele>
        <time>2020-02-22T12:30:56Z</time>
      </trkpt>
      <trkpt lat="38.6739880" lon="1.5199680">
        <ele>9.1</ele>
        <time>2020-02-22T12:30:57Z</time>
      </trkpt>
      <trkpt lat="38.6739880" lon="1.5199680">
        <ele>9.1</ele>
        <time>2020-02-22T12:30:58Z</time>
      </trkpt>
      <trkpt lat="38.6739000" lon="1.5200330">
        <ele>9.1</ele>
        <time>2020-02-22T12:30:59Z</time>
      </trkpt>
      <trkpt lat="38.6738570" lon="1.5200620">
        <ele>9.1</ele>
        <time>2020-02-22T12:31:00Z</time>
      </trkpt>
      <trkpt lat="38.6738570" lon="1.5200620">
        <ele>9.1</ele>
        <time>2020-02-22T12:31:01Z</time>
      </trkpt>
      <trkpt lat="38.6737670" lon="1.5201050">
        <ele>9.1</ele>
        <time>2020-02-22T12:31:02Z</time>
      </trkpt>
      <trkpt lat="38.6737200" lon="1.5201200">
        <ele>10.1</ele>
        <time>2020-02-22T12:31:03Z</time>
      </trkpt>
      <trkpt lat="38.6737200" lon="1.5201200">
        <ele>10.1</ele>
        <time>2020-02-22T12:31:04Z</time>
      </trkpt>
      <trkpt lat="38.6736230" lon="1.5201350">
        <ele>10.1</ele>
        <time>2020-02-22T12:31:05Z</time>
      </trkpt>
      <trkpt lat="38.6736230" lon="1.5201350">
        <ele>10.1</ele>
        <time>2020-02-22T12:31:06Z</time>
      </trkpt>
      <trkpt lat="38.6735250" lon="1.5201350">
        <ele>10.1</ele>
        <time>2020-02-22T12:31:07Z</time>
      </trkpt>
      <trkpt lat="38.6735250" lon="1.5201350">
        <ele>10.1</ele>
        <time>2020-02-22T12:31:08Z</time>
      </trkpt>
      <trkpt lat="38.6734250" lon="1.5201250">
        <ele>11.1</ele>
        <time>2020-02-22T12:31:09Z</time>
      </trkpt>
      <trkpt lat="38.6734250" lon="1.5201250">
        <ele>11.1</ele>
        <time>2020-02-22T12:31:10Z</time>
      </trkpt>
      <trkpt lat="38.6733270" lon="1.5201100">
        <ele>11.1</ele>
        <time>2020-02-22T12:31:11Z</time>
      </trkpt>
      <trkpt lat="38.6733270" lon="1.5201100">
        <ele>11.1</ele>
        <time>2020-02-22T12:31:12Z</time>
      </trkpt>
      <trkpt lat="38.6732280" lon="1.5200930">
        <ele>11.1</ele>
        <time>2020-02-22T12:31:13Z</time>
      </trkpt>
      <trkpt lat="38.6732280" lon="1.5200930">
        <ele>12.1</ele>
        <time>2020-02-22T12:31:14Z</time>
      </trkpt>
      <trkpt lat="38.6731320" lon="1.5200750">
        <ele>12.1</ele>
        <time>2020-02-22T12:31:15Z</time>
      </trkpt>
      <trkpt lat="38.6731320" lon="1.5200750">
        <ele>12.1</ele>
        <time>2020-02-22T12:31:16Z</time>
      </trkpt>
      <trkpt lat="38.6730330" lon="1.5200570">
        <ele>12.1</ele>
        <time>2020-02-22T12:31:17Z</time>
      </trkpt>
      <trkpt lat="38.6729850" lon="1.5200480">
        <ele>12.1</ele>
        <time>2020-02-22T12:31:18Z</time>
      </trkpt>
      <trkpt lat="38.6729850" lon="1.5200480">
        <ele>12.1</ele>
        <time>2020-02-22T12:31:19Z</time>
      </trkpt>
      <trkpt lat="38.6728870" lon="1.5200300">
        <ele>13.1</ele>
        <time>2020-02-22T12:31:20Z</time>
      </trkpt>
      <trkpt lat="38.6728870" lon="1.5200300">
        <ele>13.1</ele>
        <time>2020-02-22T12:31:21Z</time>
      </trkpt>
      <trkpt lat="38.6727900" lon="1.5200100">
        <ele>13.1</ele>
        <time>2020-02-22T12:31:22Z</time>
      </trkpt>
      <trkpt lat="38.6727900" lon="1.5200100">
        <ele>13.1</ele>
        <time>2020-02-22T12:31:23Z</time>
      </trkpt>
      <trkpt lat="38.6726950" lon="1.5199900">
        <ele>13.1</ele>
        <time>2020-02-22T12:31:24Z</time>
      </trkpt>
      <trkpt lat="38.6726500" lon="1.5199800">
        <ele>13.1</ele>
        <time>2020-02-22T12:31:25Z</time>
      </trkpt>
      <trkpt lat="38.6726500" lon="1.5199800">
        <ele>14.1</ele>
        <time>2020-02-22T12:31:26Z</time>
      </trkpt>
      <trkpt lat="38.6725600" lon="1.5199580">
        <ele>14.1</ele>
        <time>2020-02-22T12:31:27Z</time>
      </trkpt>
      <trkpt lat="38.6725600" lon="1.5199580">
        <ele>14.1</ele>
        <time>2020-02-22T12:31:28Z</time>
      </trkpt>
      <trkpt lat="38.6724670" lon="1.5199400">
        <ele>14.1</ele>
        <time>2020-02-22T12:31:29Z</time>
      </trkpt>
      <trkpt lat="38.6724670" lon="1.5199400">
        <ele>14.1</ele>
        <time>2020-02-22T12:31:30Z</time>
      </trkpt>
      <trkpt lat="38.6723850" lon="1.5199270">
        <ele>15.1</ele>
        <time>2020-02-22T12:31:31Z</time>
      </trkpt>
      <trkpt lat="38.6723850" lon="1.5199270">
        <ele>15.1</ele>
        <time>2020-02-22T12:31:32Z</time>
      </trkpt>
      <trkpt lat="38.6723080" lon="1.5199120">
        <ele>15.1</ele>
        <time>2020-02-22T12:31:33Z</time>
      </trkpt>
      <trkpt lat="38.6723080" lon="1.5199120">
        <ele>15.1</ele>
        <time>2020-02-22T12:31:34Z</time>
      </trkpt>
      <trkpt lat="38.6722350" lon="1.5198920">
        <ele>15.1</ele>
        <time>2020-02-22T12:31:35Z</time>
      </trkpt>
      <trkpt lat="38.6722350" lon="1.5198920">
        <ele>15.1</ele>
        <time>2020-02-22T12:31:36Z</time>
      </trkpt>
      <trkpt lat="38.6721600" lon="1.5198750">
        <ele>15.1</ele>
        <time>2020-02-22T12:31:37Z</time>
      </trkpt>
      <trkpt lat="38.6721600" lon="1.5198750">
        <ele>16.1</ele>
        <time>2020-02-22T12:31:38Z</time>
      </trkpt>
      <trkpt lat="38.6720930" lon="1.5198600">
        <ele>16.1</ele>
        <time>2020-02-22T12:31:39Z</time>
      </trkpt>
      <trkpt lat="38.6720930" lon="1.5198600">
        <ele>16.1</ele>
        <time>2020-02-22T12:31:40Z</time>
      </trkpt>
      <trkpt lat="38.6720270" lon="1.5198430">
        <ele>16.1</ele>
        <time>2020-02-22T12:31:41Z</time>
      </trkpt>
      <trkpt lat="38.6719930" lon="1.5198350">
        <ele>16.1</ele>
        <time>2020-02-22T12:31:42Z</time>
      </trkpt>
      <trkpt lat="38.6719620" lon="1.5198280">
        <ele>16.1</ele>
        <time>2020-02-22T12:31:43Z</time>
      </trkpt>
      <trkpt lat="38.6719620" lon="1.5198280">
        <ele>17.1</ele>
        <time>2020-02-22T12:31:44Z</time>
      </trkpt>
      <trkpt lat="38.6718980" lon="1.5198180">
        <ele>17.1</ele>
        <time>2020-02-22T12:31:45Z</time>
      </trkpt>
      <trkpt lat="38.6718680" lon="1.5198120">
        <ele>17.1</ele>
        <time>2020-02-22T12:31:46Z</time>
      </trkpt>
      <trkpt lat="38.6718680" lon="1.5198120">
        <ele>17.1</ele>
        <time>2020-02-22T12:31:47Z</time>
      </trkpt>
      <trkpt lat="38.6718050" lon="1.5198030">
        <ele>17.1</ele>
        <time>2020-02-22T12:31:48Z</time>
      </trkpt>
      <trkpt lat="38.6718050" lon="1.5198030">
        <ele>18.1</ele>
        <time>2020-02-22T12:31:49Z</time>
      </trkpt>
      <trkpt lat="38.6717450" lon="1.5197920">
        <ele>18.1</ele>
        <time>2020-02-22T12:31:50Z</time>
      </trkpt>
      <trkpt lat="38.6717450" lon="1.5197920">
        <ele>18.1</ele>
        <time>2020-02-22T12:31:51Z</time>
      </trkpt>
      <trkpt lat="38.6716820" lon="1.5197750">
        <ele>18.1</ele>
        <time>2020-02-22T12:31:52Z</time>
      </trkpt>
      <trkpt lat="38.6716820" lon="1.5197750">
        <ele>18.1</ele>
        <time>2020-02-22T12:31:53Z</time>
      </trkpt>
      <trkpt lat="38.6716150" lon="1.5197600">
        <ele>18.1</ele>
        <time>2020-02-22T12:31:54Z</time>
      </trkpt>
      <trkpt lat="38.6715800" lon="1.5197550">
        <ele>19.1</ele>
        <time>2020-02-22T12:31:55Z</time>
      </trkpt>
      <trkpt lat="38.6715800" lon="1.5197550">
        <ele>19.1</ele>
        <time>2020-02-22T12:31:56Z</time>
      </trkpt>
      <trkpt lat="38.6715100" lon="1.5197400">
        <ele>19.1</ele>
        <time>2020-02-22T12:31:57Z</time>
      </trkpt>
      <trkpt lat="38.6715100" lon="1.5197400">
        <ele>19.1</ele>
        <time>2020-02-22T12:31:58Z</time>
      </trkpt>
      <trkpt lat="38.6714400" lon="1.5197250">
        <ele>20.1</ele>
        <time>2020-02-22T12:31:59Z</time>
      </trkpt>
      <trkpt lat="38.6714400" lon="1.5197250">
        <ele>20.1</ele>
        <time>2020-02-22T12:32:00Z</time>
      </trkpt>
      <trkpt lat="38.6713720" lon="1.5197130">
        <ele>20.1</ele>
        <time>2020-02-22T12:32:01Z</time>
      </trkpt>
      <trkpt lat="38.6713720" lon="1.5197130">
        <ele>20.1</ele>
        <time>2020-02-22T12:32:02Z</time>
      </trkpt>
      <trkpt lat="38.6713030" lon="1.5197000">
        <ele>21.1</ele>
        <time>2020-02-22T12:32:03Z</time>
      </trkpt>
      <trkpt lat="38.6713030" lon="1.5197000">
        <ele>21.1</ele>
        <time>2020-02-22T12:32:04Z</time>
      </trkpt>
      <trkpt lat="38.6712330" lon="1.5196800">
        <ele>21.1</ele>
        <time>2020-02-22T12:32:05Z</time>
      </trkpt>
      <trkpt lat="38.6712020" lon="1.5196730">
        <ele>21.1</ele>
        <time>2020-02-22T12:32:06Z</time>
      </trkpt>
      <trkpt lat="38.6712020" lon="1.5196730">
        <ele>21.1</ele>
        <time>2020-02-22T12:32:07Z</time>
      </trkpt>
      <trkpt lat="38.6711320" lon="1.5196670">
        <ele>22.1</ele>
        <time>2020-02-22T12:32:08Z</time>
      </trkpt>
      <trkpt lat="38.6710930" lon="1.5196600">
        <ele>22.1</ele>
        <time>2020-02-22T12:32:09Z</time>
      </trkpt>
      <trkpt lat="38.6710930" lon="1.5196600">
        <ele>22.1</ele>
        <time>2020-02-22T12:32:10Z</time>
      </trkpt>
      <trkpt lat="38.6710150" lon="1.5196430">
        <ele>22.1</ele>
        <time>2020-02-22T12:32:11Z</time>
      </trkpt>
      <trkpt lat="38.6709770" lon="1.5196370">
        <ele>23.1</ele>
        <time>2020-02-22T12:32:12Z</time>
      </trkpt>
      <trkpt lat="38.6709380" lon="1.5196300">
        <ele>23.1</ele>
        <time>2020-02-22T12:32:13Z</time>
      </trkpt>
      <trkpt lat="38.6709380" lon="1.5196300">
        <ele>23.1</ele>
        <time>2020-02-22T12:32:14Z</time>
      </trkpt>
      <trkpt lat="38.6708680" lon="1.5196120">
        <ele>23.1</ele>
        <time>2020-02-22T12:32:15Z</time>
      </trkpt>
      <trkpt lat="38.6708320" lon="1.5196030">
        <ele>23.1</ele>
        <time>2020-02-22T12:32:16Z</time>
      </trkpt>
      <trkpt lat="38.6708320" lon="1.5196030">
        <ele>23.1</ele>
        <time>2020-02-22T12:32:17Z</time>
      </trkpt>
      <trkpt lat="38.6707580" lon="1.5195850">
        <ele>23.1</ele>
        <time>2020-02-22T12:32:18Z</time>
      </trkpt>
      <trkpt lat="38.6707580" lon="1.5195850">
        <ele>23.1</ele>
        <time>2020-02-22T12:32:19Z</time>
      </trkpt>
      <trkpt lat="38.6706870" lon="1.5195700">
        <ele>24.1</ele>
        <time>2020-02-22T12:32:20Z</time>
      </trkpt>
      <trkpt lat="38.6706500" lon="1.5195620">
        <ele>24.1</ele>
        <time>2020-02-22T12:32:21Z</time>
      </trkpt>
      <trkpt lat="38.6706500" lon="1.5195620">
        <ele>24.1</ele>
        <time>2020-02-22T12:32:22Z</time>
      </trkpt>
      <trkpt lat="38.6705770" lon="1.5195470">
        <ele>24.1</ele>
        <time>2020-02-22T12:32:23Z</time>
      </trkpt>
      <trkpt lat="38.6705380" lon="1.5195430">
        <ele>24.1</ele>
        <time>2020-02-22T12:32:24Z</time>
      </trkpt>
      <trkpt lat="38.6704980" lon="1.5195380">
        <ele>25.1</ele>
        <time>2020-02-22T12:32:25Z</time>
      </trkpt>
      <trkpt lat="38.6704980" lon="1.5195380">
        <ele>25.1</ele>
        <time>2020-02-22T12:32:26Z</time>
      </trkpt>
      <trkpt lat="38.6704200" lon="1.5195270">
        <ele>25.1</ele>
        <time>2020-02-22T12:32:27Z</time>
      </trkpt>
      <trkpt lat="38.6704200" lon="1.5195270">
        <ele>25.1</ele>
        <time>2020-02-22T12:32:28Z</time>
      </trkpt>
      <trkpt lat="38.6703430" lon="1.5195070">
        <ele>26.1</ele>
        <time>2020-02-22T12:32:29Z</time>
      </trkpt>
      <trkpt lat="38.6703050" lon="1.5194970">
        <ele>26.1</ele>
        <time>2020-02-22T12:32:30Z</time>
      </trkpt>
      <trkpt lat="38.6703050" lon="1.5194970">
        <ele>26.1</ele>
        <time>2020-02-22T12:32:31Z</time>
      </trkpt>
      <trkpt lat="38.6702270" lon="1.5194770">
        <ele>26.1</ele>
        <time>2020-02-22T12:32:32Z</time>
      </trkpt>
      <trkpt lat="38.6702270" lon="1.5194770">
        <ele>27.1</ele>
        <time>2020-02-22T12:32:33Z</time>
      </trkpt>
      <trkpt lat="38.6701600" lon="1.5194520">
        <ele>27.1</ele>
        <time>2020-02-22T12:32:34Z</time>
      </trkpt>
      <trkpt lat="38.6701600" lon="1.5194520">
        <ele>28.1</ele>
        <time>2020-02-22T12:32:35Z</time>
      </trkpt>
      <trkpt lat="38.6700970" lon="1.5194100">
        <ele>28.1</ele>
        <time>2020-02-22T12:32:36Z</time>
      </trkpt>
      <trkpt lat="38.6700630" lon="1.5193820">
        <ele>28.1</ele>
        <time>2020-02-22T12:32:37Z</time>
      </trkpt>
      <trkpt lat="38.6700630" lon="1.5193820">
        <ele>28.1</ele>
        <time>2020-02-22T12:32:38Z</time>
      </trkpt>
      <trkpt lat="38.6700050" lon="1.5193100">
        <ele>29.1</ele>
        <time>2020-02-22T12:32:39Z</time>
      </trkpt>
      <trkpt lat="38.6700050" lon="1.5193100">
        <ele>31.1</ele>
        <time>2020-02-22T12:32:40Z</time>
      </trkpt>
      <trkpt lat="38.6699520" lon="1.5192380">
        <ele>31.1</ele>
        <time>2020-02-22T12:32:41Z</time>
      </trkpt>
      <trkpt lat="38.6699270" lon="1.5192000">
        <ele>31.1</ele>
        <time>2020-02-22T12:32:42Z</time>
      </trkpt>
      <trkpt lat="38.6699270" lon="1.5192000">
        <ele>31.1</ele>
        <time>2020-02-22T12:32:43Z</time>
      </trkpt>
      <trkpt lat="38.6698830" lon="1.5191200">
        <ele>31.1</ele>
        <time>2020-02-22T12:32:44Z</time>
      </trkpt>
      <trkpt lat="38.6698630" lon="1.5190800">
        <ele>31.1</ele>
        <time>2020-02-22T12:32:45Z</time>
      </trkpt>
      <trkpt lat="38.6698630" lon="1.5190800">
        <ele>31.1</ele>
        <time>2020-02-22T12:32:46Z</time>
      </trkpt>
      <trkpt lat="38.6698180" lon="1.5190080">
        <ele>31.1</ele>
        <time>2020-02-22T12:32:47Z</time>
      </trkpt>
      <trkpt lat="38.6697930" lon="1.5189730">
        <ele>32.1</ele>
        <time>2020-02-22T12:32:48Z</time>
      </trkpt>
      <trkpt lat="38.6697670" lon="1.5189380">
        <ele>32.1</ele>
        <time>2020-02-22T12:32:49Z</time>
      </trkpt>
      <trkpt lat="38.6697670" lon="1.5189380">
        <ele>32.1</ele>
        <time>2020-02-22T12:32:50Z</time>
      </trkpt>
      <trkpt lat="38.6696980" lon="1.5188780">
        <ele>32.1</ele>
        <time>2020-02-22T12:32:51Z</time>
      </trkpt>
      <trkpt lat="38.6696980" lon="1.5188780">
        <ele>33.1</ele>
        <time>2020-02-22T12:32:52Z</time>
      </trkpt>
      <trkpt lat="38.6696230" lon="1.5188330">
        <ele>33.1</ele>
        <time>2020-02-22T12:32:53Z</time>
      </trkpt>
      <trkpt lat="38.6695830" lon="1.5188220">
        <ele>33.1</ele>
        <time>2020-02-22T12:32:54Z</time>
      </trkpt>
      <trkpt lat="38.6695430" lon="1.5188120">
        <ele>33.1</ele>
        <time>2020-02-22T12:32:55Z</time>
      </trkpt>
      <trkpt lat="38.6695430" lon="1.5188120">
        <ele>33.1</ele>
        <time>2020-02-22T12:32:56Z</time>
      </trkpt>
      <trkpt lat="38.6694620" lon="1.5188070">
        <ele>33.1</ele>
        <time>2020-02-22T12:32:57Z</time>
      </trkpt>
      <trkpt lat="38.6694620" lon="1.5188070">
        <ele>34.1</ele>
        <time>2020-02-22T12:32:58Z</time>
      </trkpt>
      <trkpt lat="38.6693770" lon="1.5188180">
        <ele>34.1</ele>
        <time>2020-02-22T12:32:59Z</time>
      </trkpt>
      <trkpt lat="38.6693770" lon="1.5188180">
        <ele>34.1</ele>
        <time>2020-02-22T12:33:00Z</time>
      </trkpt>
      <trkpt lat="38.6692930" lon="1.5188350">
        <ele>34.1</ele>
        <time>2020-02-22T12:33:01Z</time>
      </trkpt>
      <trkpt lat="38.6692930" lon="1.5188350">
        <ele>34.1</ele>
        <time>2020-02-22T12:33:02Z</time>
      </trkpt>
      <trkpt lat="38.6692130" lon="1.5188570">
        <ele>35.1</ele>
        <time>2020-02-22T12:33:03Z</time>
      </trkpt>
      <trkpt lat="38.6691730" lon="1.5188700">
        <ele>35.1</ele>
        <time>2020-02-22T12:33:04Z</time>
      </trkpt>
      <trkpt lat="38.6691730" lon="1.5188700">
        <ele>35.1</ele>
        <time>2020-02-22T12:33:05Z</time>
      </trkpt>
      <trkpt lat="38.6691020" lon="1.5188980">
        <ele>35.1</ele>
        <time>2020-02-22T12:33:06Z</time>
      </trkpt>
      <trkpt lat="38.6690670" lon="1.5189150">
        <ele>36.1</ele>
        <time>2020-02-22T12:33:07Z</time>
      </trkpt>
      <trkpt lat="38.6690670" lon="1.5189150">
        <ele>36.1</ele>
        <time>2020-02-22T12:33:08Z</time>
      </trkpt>
      <trkpt lat="38.6689980" lon="1.5189570">
        <ele>36.1</ele>
        <time>2020-02-22T12:33:09Z</time>
      </trkpt>
      <trkpt lat="38.6689630" lon="1.5189850">
        <ele>36.1</ele>
        <time>2020-02-22T12:33:10Z</time>
      </trkpt>
      <trkpt lat="38.6689630" lon="1.5189850">
        <ele>37.1</ele>
        <time>2020-02-22T12:33:11Z</time>
      </trkpt>
      <trkpt lat="38.6688950" lon="1.5190420">
        <ele>37.1</ele>
        <time>2020-02-22T12:33:12Z</time>
      </trkpt>
      <trkpt lat="38.6688630" lon="1.5190720">
        <ele>37.1</ele>
        <time>2020-02-22T12:33:13Z</time>
      </trkpt>
      <trkpt lat="38.6688330" lon="1.5191030">
        <ele>37.1</ele>
        <time>2020-02-22T12:33:14Z</time>
      </trkpt>
      <trkpt lat="38.6688330" lon="1.5191030">
        <ele>37.1</ele>
        <time>2020-02-22T12:33:15Z</time>
      </trkpt>
      <trkpt lat="38.6687720" lon="1.5191620">
        <ele>37.1</ele>
        <time>2020-02-22T12:33:16Z</time>
      </trkpt>
      <trkpt lat="38.6687720" lon="1.5191620">
        <ele>37.1</ele>
        <time>2020-02-22T12:33:17Z</time>
      </trkpt>
      <trkpt lat="38.6687080" lon="1.5192170">
        <ele>39.1</ele>
        <time>2020-02-22T12:33:18Z</time>
      </trkpt>
      <trkpt lat="38.6687080" lon="1.5192170">
        <ele>39.1</ele>
        <time>2020-02-22T12:33:19Z</time>
      </trkpt>
      <trkpt lat="38.6686420" lon="1.5192580">
        <ele>39.1</ele>
        <time>2020-02-22T12:33:20Z</time>
      </trkpt>
      <trkpt lat="38.6686420" lon="1.5192580">
        <ele>39.1</ele>
        <time>2020-02-22T12:33:21Z</time>
      </trkpt>
      <trkpt lat="38.6685700" lon="1.5192900">
        <ele>39.1</ele>
        <time>2020-02-22T12:33:22Z</time>
      </trkpt>
      <trkpt lat="38.6685700" lon="1.5192900">
        <ele>39.1</ele>
        <time>2020-02-22T12:33:23Z</time>
      </trkpt>
      <trkpt lat="38.6684970" lon="1.5193020">
        <ele>39.1</ele>
        <time>2020-02-22T12:33:24Z</time>
      </trkpt>
      <trkpt lat="38.6684600" lon="1.5193070">
        <ele>40.1</ele>
        <time>2020-02-22T12:33:25Z</time>
      </trkpt>
      <trkpt lat="38.6684600" lon="1.5193070">
        <ele>40.1</ele>
        <time>2020-02-22T12:33:26Z</time>
      </trkpt>
      <trkpt lat="38.6683850" lon="1.5193200">
        <ele>40.1</ele>
        <time>2020-02-22T12:33:27Z</time>
      </trkpt>
      <trkpt lat="38.6683850" lon="1.5193200">
        <ele>40.1</ele>
        <time>2020-02-22T12:33:28Z</time>
      </trkpt>
      <trkpt lat="38.6683100" lon="1.5193350">
        <ele>41.1</ele>
        <time>2020-02-22T12:33:29Z</time>
      </trkpt>
      <trkpt lat="38.6683100" lon="1.5193350">
        <ele>41.1</ele>
        <time>2020-02-22T12:33:30Z</time>
      </trkpt>
      <trkpt lat="38.6682400" lon="1.5193580">
        <ele>41.1</ele>
        <time>2020-02-22T12:33:31Z</time>
      </trkpt>
      <trkpt lat="38.6682400" lon="1.5193580">
        <ele>41.1</ele>
        <time>2020-02-22T12:33:32Z</time>
      </trkpt>
      <trkpt lat="38.6681750" lon="1.5193980">
        <ele>42.1</ele>
        <time>2020-02-22T12:33:33Z</time>
      </trkpt>
      <trkpt lat="38.6681430" lon="1.5194250">
        <ele>42.1</ele>
        <time>2020-02-22T12:33:34Z</time>
      </trkpt>
      <trkpt lat="38.6681130" lon="1.5194550">
        <ele>42.1</ele>
        <time>2020-02-22T12:33:35Z</time>
      </trkpt>
      <trkpt lat="38.6681130" lon="1.5194550">
        <ele>42.1</ele>
        <time>2020-02-22T12:33:36Z</time>
      </trkpt>
      <trkpt lat="38.6680730" lon="1.5195330">
        <ele>43.1</ele>
        <time>2020-02-22T12:33:37Z</time>
      </trkpt>
      <trkpt lat="38.6680730" lon="1.5195330">
        <ele>43.1</ele>
        <time>2020-02-22T12:33:38Z</time>
      </trkpt>
      <trkpt lat="38.6680720" lon="1.5196320">
        <ele>43.1</ele>
        <time>2020-02-22T12:33:39Z</time>
      </trkpt>
      <trkpt lat="38.6680820" lon="1.5196820">
        <ele>43.1</ele>
        <time>2020-02-22T12:33:40Z</time>
      </trkpt>
      <trkpt lat="38.6680820" lon="1.5196820">
        <ele>43.1</ele>
        <time>2020-02-22T12:33:41Z</time>
      </trkpt>
      <trkpt lat="38.6681170" lon="1.5197730">
        <ele>44.1</ele>
        <time>2020-02-22T12:33:42Z</time>
      </trkpt>
      <trkpt lat="38.6681380" lon="1.5198150">
        <ele>44.1</ele>
        <time>2020-02-22T12:33:43Z</time>
      </trkpt>
      <trkpt lat="38.6681380" lon="1.5198150">
        <ele>46.1</ele>
        <time>2020-02-22T12:33:44Z</time>
      </trkpt>
      <trkpt lat="38.6681850" lon="1.5198920">
        <ele>46.1</ele>
        <time>2020-02-22T12:33:45Z</time>
      </trkpt>
      <trkpt lat="38.6681850" lon="1.5198920">
        <ele>46.1</ele>
        <time>2020-02-22T12:33:46Z</time>
      </trkpt>
      <trkpt lat="38.6682400" lon="1.5199620">
        <ele>46.1</ele>
        <time>2020-02-22T12:33:47Z</time>
      </trkpt>
      <trkpt lat="38.6682400" lon="1.5199620">
        <ele>46.1</ele>
        <time>2020-02-22T12:33:48Z</time>
      </trkpt>
      <trkpt lat="38.6682930" lon="1.5200370">
        <ele>46.1</ele>
        <time>2020-02-22T12:33:49Z</time>
      </trkpt>
      <trkpt lat="38.6682930" lon="1.5200370">
        <ele>46.1</ele>
        <time>2020-02-22T12:33:50Z</time>
      </trkpt>
      <trkpt lat="38.6683530" lon="1.5201080">
        <ele>46.1</ele>
        <time>2020-02-22T12:33:51Z</time>
      </trkpt>
      <trkpt lat="38.6683530" lon="1.5201080">
        <ele>46.1</ele>
        <time>2020-02-22T12:33:52Z</time>
      </trkpt>
      <trkpt lat="38.6684100" lon="1.5201750">
        <ele>46.1</ele>
        <time>2020-02-22T12:33:53Z</time>
      </trkpt>
      <trkpt lat="38.6684100" lon="1.5201750">
        <ele>46.1</ele>
        <time>2020-02-22T12:33:54Z</time>
      </trkpt>
      <trkpt lat="38.6684700" lon="1.5202500">
        <ele>46.1</ele>
        <time>2020-02-22T12:33:55Z</time>
      </trkpt>
      <trkpt lat="38.6684700" lon="1.5202500">
        <ele>47.1</ele>
        <time>2020-02-22T12:33:56Z</time>
      </trkpt>
      <trkpt lat="38.6685320" lon="1.5203180">
        <ele>47.1</ele>
        <time>2020-02-22T12:33:57Z</time>
      </trkpt>
      <trkpt lat="38.6685600" lon="1.5203520">
        <ele>47.1</ele>
        <time>2020-02-22T12:33:58Z</time>
      </trkpt>
      <trkpt lat="38.6685600" lon="1.5203520">
        <ele>48.1</ele>
        <time>2020-02-22T12:33:59Z</time>
      </trkpt>
      <trkpt lat="38.6686170" lon="1.5204230">
        <ele>48.1</ele>
        <time>2020-02-22T12:34:00Z</time>
      </trkpt>
      <trkpt lat="38.6686170" lon="1.5204230">
        <ele>48.1</ele>
        <time>2020-02-22T12:34:01Z</time>
      </trkpt>
      <trkpt lat="38.6686680" lon="1.5205020">
        <ele>48.1</ele>
        <time>2020-02-22T12:34:02Z</time>
      </trkpt>
      <trkpt lat="38.6686680" lon="1.5205020">
        <ele>49.1</ele>
        <time>2020-02-22T12:34:03Z</time>
      </trkpt>
      <trkpt lat="38.6687180" lon="1.5205870">
        <ele>49.1</ele>
        <time>2020-02-22T12:34:04Z</time>
      </trkpt>
      <trkpt lat="38.6687180" lon="1.5205870">
        <ele>49.1</ele>
        <time>2020-02-22T12:34:05Z</time>
      </trkpt>
      <trkpt lat="38.6687470" lon="1.5206830">
        <ele>49.1</ele>
        <time>2020-02-22T12:34:06Z</time>
      </trkpt>
      <trkpt lat="38.6687550" lon="1.5207320">
        <ele>50.1</ele>
        <time>2020-02-22T12:34:07Z</time>
      </trkpt>
      <trkpt lat="38.6687550" lon="1.5207320">
        <ele>50.1</ele>
        <time>2020-02-22T12:34:08Z</time>
      </trkpt>
      <trkpt lat="38.6687580" lon="1.5208380">
        <ele>50.1</ele>
        <time>2020-02-22T12:34:09Z</time>
      </trkpt>
      <trkpt lat="38.6687580" lon="1.5208380">
        <ele>50.1</ele>
        <time>2020-02-22T12:34:10Z</time>
      </trkpt>
      <trkpt lat="38.6687700" lon="1.5209370">
        <ele>50.1</ele>
        <time>2020-02-22T12:34:11Z</time>
      </trkpt>
      <trkpt lat="38.6687700" lon="1.5209370">
        <ele>50.1</ele>
        <time>2020-02-22T12:34:12Z</time>
      </trkpt>
      <trkpt lat="38.6687730" lon="1.5210280">
        <ele>51.1</ele>
        <time>2020-02-22T12:34:13Z</time>
      </trkpt>
      <trkpt lat="38.6687730" lon="1.5210280">
        <ele>51.1</ele>
        <time>2020-02-22T12:34:14Z</time>
      </trkpt>
      <trkpt lat="38.6687370" lon="1.5211130">
        <ele>51.1</ele>
        <time>2020-02-22T12:34:15Z</time>
      </trkpt>
      <trkpt lat="38.6687030" lon="1.5211430">
        <ele>51.1</ele>
        <time>2020-02-22T12:34:16Z</time>
      </trkpt>
      <trkpt lat="38.6687030" lon="1.5211430">
        <ele>52.1</ele>
        <time>2020-02-22T12:34:17Z</time>
      </trkpt>
      <trkpt lat="38.6686270" lon="1.5211700">
        <ele>52.1</ele>
        <time>2020-02-22T12:34:18Z</time>
      </trkpt>
      <trkpt lat="38.6685880" lon="1.5211670">
        <ele>52.1</ele>
        <time>2020-02-22T12:34:19Z</time>
      </trkpt>
      <trkpt lat="38.6685880" lon="1.5211670">
        <ele>53.1</ele>
        <time>2020-02-22T12:34:20Z</time>
      </trkpt>
      <trkpt lat="38.6685070" lon="1.5211570">
        <ele>53.1</ele>
        <time>2020-02-22T12:34:21Z</time>
      </trkpt>
      <trkpt lat="38.6684670" lon="1.5211500">
        <ele>53.1</ele>
        <time>2020-02-22T12:34:22Z</time>
      </trkpt>
      <trkpt lat="38.6684670" lon="1.5211500">
        <ele>53.1</ele>
        <time>2020-02-22T12:34:23Z</time>
      </trkpt>
      <trkpt lat="38.6683820" lon="1.5211520">
        <ele>54.1</ele>
        <time>2020-02-22T12:34:24Z</time>
      </trkpt>
      <trkpt lat="38.6683400" lon="1.5211670">
        <ele>54.1</ele>
        <time>2020-02-22T12:34:25Z</time>
      </trkpt>
      <trkpt lat="38.6683400" lon="1.5211670">
        <ele>54.1</ele>
        <time>2020-02-22T12:34:26Z</time>
      </trkpt>
      <trkpt lat="38.6682700" lon="1.5212280">
        <ele>54.1</ele>
        <time>2020-02-22T12:34:27Z</time>
      </trkpt>
      <trkpt lat="38.6682470" lon="1.5212780">
        <ele>54.1</ele>
        <time>2020-02-22T12:34:28Z</time>
      </trkpt>
      <trkpt lat="38.6682470" lon="1.5212780">
        <ele>54.1</ele>
        <time>2020-02-22T12:34:29Z</time>
      </trkpt>
      <trkpt lat="38.6682230" lon="1.5213900">
        <ele>55.1</ele>
        <time>2020-02-22T12:34:30Z</time>
      </trkpt>
      <trkpt lat="38.6682180" lon="1.5214420">
        <ele>55.1</ele>
        <time>2020-02-22T12:34:31Z</time>
      </trkpt>
      <trkpt lat="38.6682180" lon="1.5214420">
        <ele>55.1</ele>
        <time>2020-02-22T12:34:32Z</time>
      </trkpt>
      <trkpt lat="38.6682220" lon="1.5215470">
        <ele>56.1</ele>
        <time>2020-02-22T12:34:33Z</time>
      </trkpt>
      <trkpt lat="38.6682220" lon="1.5215470">
        <ele>56.1</ele>
        <time>2020-02-22T12:34:34Z</time>
      </trkpt>
      <trkpt lat="38.6682220" lon="1.5216600">
        <ele>56.1</ele>
        <time>2020-02-22T12:34:35Z</time>
      </trkpt>
      <trkpt lat="38.6682220" lon="1.5216600">
        <ele>56.1</ele>
        <time>2020-02-22T12:34:36Z</time>
      </trkpt>
      <trkpt lat="38.6682270" lon="1.5217770">
        <ele>57.1</ele>
        <time>2020-02-22T12:34:37Z</time>
      </trkpt>
      <trkpt lat="38.6682270" lon="1.5217770">
        <ele>57.1</ele>
        <time>2020-02-22T12:34:38Z</time>
      </trkpt>
      <trkpt lat="38.6682380" lon="1.5218980">
        <ele>57.1</ele>
        <time>2020-02-22T12:34:39Z</time>
      </trkpt>
      <trkpt lat="38.6682520" lon="1.5219530">
        <ele>57.1</ele>
        <time>2020-02-22T12:34:40Z</time>
      </trkpt>
      <trkpt lat="38.6682520" lon="1.5219530">
        <ele>57.1</ele>
        <time>2020-02-22T12:34:41Z</time>
      </trkpt>
      <trkpt lat="38.6682950" lon="1.5220470">
        <ele>57.1</ele>
        <time>2020-02-22T12:34:42Z</time>
      </trkpt>
      <trkpt lat="38.6683250" lon="1.5220950">
        <ele>58.1</ele>
        <time>2020-02-22T12:34:43Z</time>
      </trkpt>
      <trkpt lat="38.6683250" lon="1.5220950">
        <ele>58.1</ele>
        <time>2020-02-22T12:34:44Z</time>
      </trkpt>
      <trkpt lat="38.6683870" lon="1.5221850">
        <ele>58.1</ele>
        <time>2020-02-22T12:34:45Z</time>
      </trkpt>
      <trkpt lat="38.6683870" lon="1.5221850">
        <ele>58.1</ele>
        <time>2020-02-22T12:34:46Z</time>
      </trkpt>
      <trkpt lat="38.6684470" lon="1.5222770">
        <ele>58.1</ele>
        <time>2020-02-22T12:34:47Z</time>
      </trkpt>
      <trkpt lat="38.6684470" lon="1.5222770">
        <ele>58.1</ele>
        <time>2020-02-22T12:34:48Z</time>
      </trkpt>
      <trkpt lat="38.6685120" lon="1.5223630">
        <ele>59.1</ele>
        <time>2020-02-22T12:34:49Z</time>
      </trkpt>
      <trkpt lat="38.6685120" lon="1.5223630">
        <ele>59.1</ele>
        <time>2020-02-22T12:34:50Z</time>
      </trkpt>
      <trkpt lat="38.6685750" lon="1.5224450">
        <ele>59.1</ele>
        <time>2020-02-22T12:34:51Z</time>
      </trkpt>
      <trkpt lat="38.6685750" lon="1.5224450">
        <ele>60.1</ele>
        <time>2020-02-22T12:34:52Z</time>
      </trkpt>
      <trkpt lat="38.6686400" lon="1.5225300">
        <ele>60.1</ele>
        <time>2020-02-22T12:34:53Z</time>
      </trkpt>
      <trkpt lat="38.6686400" lon="1.5225300">
        <ele>60.1</ele>
        <time>2020-02-22T12:34:54Z</time>
      </trkpt>
      <trkpt lat="38.6687030" lon="1.5226170">
        <ele>60.1</ele>
        <time>2020-02-22T12:34:55Z</time>
      </trkpt>
      <trkpt lat="38.6687030" lon="1.5226170">
        <ele>61.1</ele>
        <time>2020-02-22T12:34:56Z</time>
      </trkpt>
      <trkpt lat="38.6687580" lon="1.5227120">
        <ele>61.1</ele>
        <time>2020-02-22T12:34:57Z</time>
      </trkpt>
      <trkpt lat="38.6687580" lon="1.5227120">
        <ele>61.1</ele>
        <time>2020-02-22T12:34:58Z</time>
      </trkpt>
      <trkpt lat="38.6688270" lon="1.5228030">
        <ele>61.1</ele>
        <time>2020-02-22T12:34:59Z</time>
      </trkpt>
      <trkpt lat="38.6688270" lon="1.5228030">
        <ele>61.1</ele>
        <time>2020-02-22T12:35:00Z</time>
      </trkpt>
      <trkpt lat="38.6688950" lon="1.5228950">
        <ele>61.1</ele>
        <time>2020-02-22T12:35:01Z</time>
      </trkpt>
      <trkpt lat="38.6688950" lon="1.5228950">
        <ele>62.1</ele>
        <time>2020-02-22T12:35:02Z</time>
      </trkpt>
      <trkpt lat="38.6689380" lon="1.5230050">
        <ele>62.1</ele>
        <time>2020-02-22T12:35:03Z</time>
      </trkpt>
      <trkpt lat="38.6689530" lon="1.5230630">
        <ele>62.1</ele>
        <time>2020-02-22T12:35:04Z</time>
      </trkpt>
      <trkpt lat="38.6689530" lon="1.5230630">
        <ele>62.1</ele>
        <time>2020-02-22T12:35:05Z</time>
      </trkpt>
      <trkpt lat="38.6689700" lon="1.5231870">
        <ele>62.1</ele>
        <time>2020-02-22T12:35:06Z</time>
      </trkpt>
      <trkpt lat="38.6689700" lon="1.5231870">
        <ele>63.1</ele>
        <time>2020-02-22T12:35:07Z</time>
      </trkpt>
      <trkpt lat="38.6689830" lon="1.5233070">
        <ele>63.1</ele>
        <time>2020-02-22T12:35:08Z</time>
      </trkpt>
      <trkpt lat="38.6689830" lon="1.5233070">
        <ele>63.1</ele>
        <time>2020-02-22T12:35:09Z</time>
      </trkpt>
      <trkpt lat="38.6690020" lon="1.5234230">
        <ele>63.1</ele>
        <time>2020-02-22T12:35:10Z</time>
      </trkpt>
      <trkpt lat="38.6690020" lon="1.5234230">
        <ele>64.1</ele>
        <time>2020-02-22T12:35:11Z</time>
      </trkpt>
      <trkpt lat="38.6690470" lon="1.5235330">
        <ele>64.1</ele>
        <time>2020-02-22T12:35:12Z</time>
      </trkpt>
      <trkpt lat="38.6690770" lon="1.5235820">
        <ele>64.1</ele>
        <time>2020-02-22T12:35:13Z</time>
      </trkpt>
      <trkpt lat="38.6690770" lon="1.5235820">
        <ele>65.1</ele>
        <time>2020-02-22T12:35:14Z</time>
      </trkpt>
      <trkpt lat="38.6691480" lon="1.5236680">
        <ele>65.1</ele>
        <time>2020-02-22T12:35:15Z</time>
      </trkpt>
      <trkpt lat="38.6691480" lon="1.5236680">
        <ele>65.1</ele>
        <time>2020-02-22T12:35:16Z</time>
      </trkpt>
      <trkpt lat="38.6692250" lon="1.5237480">
        <ele>65.1</ele>
        <time>2020-02-22T12:35:17Z</time>
      </trkpt>
      <trkpt lat="38.6692630" lon="1.5237880">
        <ele>65.1</ele>
        <time>2020-02-22T12:35:18Z</time>
      </trkpt>
      <trkpt lat="38.6693020" lon="1.5238280">
        <ele>65.1</ele>
        <time>2020-02-22T12:35:19Z</time>
      </trkpt>
      <trkpt lat="38.6693020" lon="1.5238280">
        <ele>66.1</ele>
        <time>2020-02-22T12:35:20Z</time>
      </trkpt>
      <trkpt lat="38.6693800" lon="1.5239030">
        <ele>66.1</ele>
        <time>2020-02-22T12:35:21Z</time>
      </trkpt>
      <trkpt lat="38.6693800" lon="1.5239030">
        <ele>66.1</ele>
        <time>2020-02-22T12:35:22Z</time>
      </trkpt>
      <trkpt lat="38.6694620" lon="1.5239770">
        <ele>66.1</ele>
        <time>2020-02-22T12:35:23Z</time>
      </trkpt>
      <trkpt lat="38.6694620" lon="1.5239770">
        <ele>67.1</ele>
        <time>2020-02-22T12:35:24Z</time>
      </trkpt>
      <trkpt lat="38.6695380" lon="1.5240580">
        <ele>67.1</ele>
        <time>2020-02-22T12:35:25Z</time>
      </trkpt>
      <trkpt lat="38.6695380" lon="1.5240580">
        <ele>67.1</ele>
        <time>2020-02-22T12:35:26Z</time>
      </trkpt>
      <trkpt lat="38.6696070" lon="1.5241480">
        <ele>67.1</ele>
        <time>2020-02-22T12:35:27Z</time>
      </trkpt>
      <trkpt lat="38.6696070" lon="1.5241480">
        <ele>61.1</ele>
        <time>2020-02-22T12:35:28Z</time>
      </trkpt>
      <trkpt lat="38.6696630" lon="1.5242480">
        <ele>61.1</ele>
        <time>2020-02-22T12:35:29Z</time>
      </trkpt>
      <trkpt lat="38.6696850" lon="1.5243030">
        <ele>65.1</ele>
        <time>2020-02-22T12:35:30Z</time>
      </trkpt>
      <trkpt lat="38.6696850" lon="1.5243030">
        <ele>65.1</ele>
        <time>2020-02-22T12:35:31Z</time>
      </trkpt>
      <trkpt lat="38.6697220" lon="1.5244130">
        <ele>67.1</ele>
        <time>2020-02-22T12:35:32Z</time>
      </trkpt>
      <trkpt lat="38.6697420" lon="1.5244670">
        <ele>68.1</ele>
        <time>2020-02-22T12:35:33Z</time>
      </trkpt>
      <trkpt lat="38.6697420" lon="1.5244670">
        <ele>68.1</ele>
        <time>2020-02-22T12:35:34Z</time>
      </trkpt>
      <trkpt lat="38.6697780" lon="1.5245750">
        <ele>69.1</ele>
        <time>2020-02-22T12:35:35Z</time>
      </trkpt>
      <trkpt lat="38.6697780" lon="1.5245750">
        <ele>69.1</ele>
        <time>2020-02-22T12:35:36Z</time>
      </trkpt>
      <trkpt lat="38.6698120" lon="1.5246780">
        <ele>69.1</ele>
        <time>2020-02-22T12:35:37Z</time>
      </trkpt>
      <trkpt lat="38.6698120" lon="1.5246780">
        <ele>69.1</ele>
        <time>2020-02-22T12:35:38Z</time>
      </trkpt>
      <trkpt lat="38.6698370" lon="1.5247920">
        <ele>71.1</ele>
        <time>2020-02-22T12:35:39Z</time>
      </trkpt>
      <trkpt lat="38.6698370" lon="1.5247920">
        <ele>71.1</ele>
        <time>2020-02-22T12:35:40Z</time>
      </trkpt>
      <trkpt lat="38.6698420" lon="1.5249100">
        <ele>71.1</ele>
        <time>2020-02-22T12:35:41Z</time>
      </trkpt>
      <trkpt lat="38.6698420" lon="1.5249100">
        <ele>71.1</ele>
        <time>2020-02-22T12:35:42Z</time>
      </trkpt>
      <trkpt lat="38.6698270" lon="1.5250230">
        <ele>71.1</ele>
        <time>2020-02-22T12:35:43Z</time>
      </trkpt>
      <trkpt lat="38.6698270" lon="1.5250230">
        <ele>71.1</ele>
        <time>2020-02-22T12:35:44Z</time>
      </trkpt>
      <trkpt lat="38.6698050" lon="1.5251370">
        <ele>73.1</ele>
        <time>2020-02-22T12:35:45Z</time>
      </trkpt>
      <trkpt lat="38.6698050" lon="1.5251370">
        <ele>73.1</ele>
        <time>2020-02-22T12:35:46Z</time>
      </trkpt>
      <trkpt lat="38.6697880" lon="1.5252500">
        <ele>73.1</ele>
        <time>2020-02-22T12:35:47Z</time>
      </trkpt>
      <trkpt lat="38.6697820" lon="1.5253070">
        <ele>74.1</ele>
        <time>2020-02-22T12:35:48Z</time>
      </trkpt>
      <trkpt lat="38.6697820" lon="1.5253070">
        <ele>74.1</ele>
        <time>2020-02-22T12:35:49Z</time>
      </trkpt>
      <trkpt lat="38.6697650" lon="1.5254200">
        <ele>74.1</ele>
        <time>2020-02-22T12:35:50Z</time>
      </trkpt>
      <trkpt lat="38.6697570" lon="1.5254780">
        <ele>74.1</ele>
        <time>2020-02-22T12:35:51Z</time>
      </trkpt>
      <trkpt lat="38.6697570" lon="1.5254780">
        <ele>75.1</ele>
        <time>2020-02-22T12:35:52Z</time>
      </trkpt>
      <trkpt lat="38.6697320" lon="1.5255950">
        <ele>75.1</ele>
        <time>2020-02-22T12:35:53Z</time>
      </trkpt>
      <trkpt lat="38.6697320" lon="1.5255950">
        <ele>75.1</ele>
        <time>2020-02-22T12:35:54Z</time>
      </trkpt>
      <trkpt lat="38.6697100" lon="1.5257050">
        <ele>75.1</ele>
        <time>2020-02-22T12:35:55Z</time>
      </trkpt>
      <trkpt lat="38.6697100" lon="1.5257050">
        <ele>76.1</ele>
        <time>2020-02-22T12:35:56Z</time>
      </trkpt>
      <trkpt lat="38.6696820" lon="1.5258130">
        <ele>76.1</ele>
        <time>2020-02-22T12:35:57Z</time>
      </trkpt>
      <trkpt lat="38.6696820" lon="1.5258130">
        <ele>76.1</ele>
        <time>2020-02-22T12:35:58Z</time>
      </trkpt>
      <trkpt lat="38.6696450" lon="1.5259170">
        <ele>76.1</ele>
        <time>2020-02-22T12:35:59Z</time>
      </trkpt>
      <trkpt lat="38.6696450" lon="1.5259170">
        <ele>77.1</ele>
        <time>2020-02-22T12:36:00Z</time>
      </trkpt>
      <trkpt lat="38.6696030" lon="1.5260120">
        <ele>77.1</ele>
        <time>2020-02-22T12:36:01Z</time>
      </trkpt>
      <trkpt lat="38.6696030" lon="1.5260120">
        <ele>77.1</ele>
        <time>2020-02-22T12:36:02Z</time>
      </trkpt>
      <trkpt lat="38.6695580" lon="1.5261020">
        <ele>77.1</ele>
        <time>2020-02-22T12:36:03Z</time>
      </trkpt>
      <trkpt lat="38.6695370" lon="1.5261450">
        <ele>78.1</ele>
        <time>2020-02-22T12:36:04Z</time>
      </trkpt>
      <trkpt lat="38.6695370" lon="1.5261450">
        <ele>78.1</ele>
        <time>2020-02-22T12:36:05Z</time>
      </trkpt>
      <trkpt lat="38.6694920" lon="1.5262320">
        <ele>79.1</ele>
        <time>2020-02-22T12:36:06Z</time>
      </trkpt>
      <trkpt lat="38.6694630" lon="1.5262750">
        <ele>80.1</ele>
        <time>2020-02-22T12:36:07Z</time>
      </trkpt>
      <trkpt lat="38.6694630" lon="1.5262750">
        <ele>80.1</ele>
        <time>2020-02-22T12:36:08Z</time>
      </trkpt>
      <trkpt lat="38.6694150" lon="1.5263580">
        <ele>80.1</ele>
        <time>2020-02-22T12:36:09Z</time>
      </trkpt>
      <trkpt lat="38.6694150" lon="1.5263580">
        <ele>80.1</ele>
        <time>2020-02-22T12:36:10Z</time>
      </trkpt>
      <trkpt lat="38.6693730" lon="1.5264430">
        <ele>81.1</ele>
        <time>2020-02-22T12:36:11Z</time>
      </trkpt>
      <trkpt lat="38.6693730" lon="1.5264430">
        <ele>81.1</ele>
        <time>2020-02-22T12:36:12Z</time>
      </trkpt>
      <trkpt lat="38.6693280" lon="1.5265280">
        <ele>81.1</ele>
        <time>2020-02-22T12:36:13Z</time>
      </trkpt>
      <trkpt lat="38.6693280" lon="1.5265280">
        <ele>81.1</ele>
        <time>2020-02-22T12:36:14Z</time>
      </trkpt>
      <trkpt lat="38.6692830" lon="1.5266180">
        <ele>83.1</ele>
        <time>2020-02-22T12:36:15Z</time>
      </trkpt>
      <trkpt lat="38.6692830" lon="1.5266180">
        <ele>83.1</ele>
        <time>2020-02-22T12:36:16Z</time>
      </trkpt>
      <trkpt lat="38.6692450" lon="1.5267030">
        <ele>83.1</ele>
        <time>2020-02-22T12:36:17Z</time>
      </trkpt>
      <trkpt lat="38.6692450" lon="1.5267030">
        <ele>83.1</ele>
        <time>2020-02-22T12:36:18Z</time>
      </trkpt>
      <trkpt lat="38.6691980" lon="1.5267850">
        <ele>84.1</ele>
        <time>2020-02-22T12:36:19Z</time>
      </trkpt>
      <trkpt lat="38.6691980" lon="1.5267850">
        <ele>84.1</ele>
        <time>2020-02-22T12:36:20Z</time>
      </trkpt>
      <trkpt lat="38.6691520" lon="1.5268680">
        <ele>85.1</ele>
        <time>2020-02-22T12:36:21Z</time>
      </trkpt>
      <trkpt lat="38.6691520" lon="1.5268680">
        <ele>85.1</ele>
        <time>2020-02-22T12:36:22Z</time>
      </trkpt>
      <trkpt lat="38.6691100" lon="1.5269520">
        <ele>85.1</ele>
        <time>2020-02-22T12:36:23Z</time>
      </trkpt>
      <trkpt lat="38.6691100" lon="1.5269520">
        <ele>85.1</ele>
        <time>2020-02-22T12:36:24Z</time>
      </trkpt>
      <trkpt lat="38.6690680" lon="1.5270280">
        <ele>86.1</ele>
        <time>2020-02-22T12:36:25Z</time>
      </trkpt>
      <trkpt lat="38.6690680" lon="1.5270280">
        <ele>86.1</ele>
        <time>2020-02-22T12:36:26Z</time>
      </trkpt>
      <trkpt lat="38.6690280" lon="1.5271070">
        <ele>86.1</ele>
        <time>2020-02-22T12:36:27Z</time>
      </trkpt>
      <trkpt lat="38.6690070" lon="1.5271500">
        <ele>86.1</ele>
        <time>2020-02-22T12:36:28Z</time>
      </trkpt>
      <trkpt lat="38.6689820" lon="1.5271930">
        <ele>87.1</ele>
        <time>2020-02-22T12:36:29Z</time>
      </trkpt>
      <trkpt lat="38.6689820" lon="1.5271930">
        <ele>87.1</ele>
        <time>2020-02-22T12:36:30Z</time>
      </trkpt>
      <trkpt lat="38.6689300" lon="1.5272730">
        <ele>87.1</ele>
        <time>2020-02-22T12:36:31Z</time>
      </trkpt>
      <trkpt lat="38.6689300" lon="1.5272730">
        <ele>88.1</ele>
        <time>2020-02-22T12:36:32Z</time>
      </trkpt>
      <trkpt lat="38.6688650" lon="1.5273330">
        <ele>88.1</ele>
        <time>2020-02-22T12:36:33Z</time>
      </trkpt>
      <trkpt lat="38.6688650" lon="1.5273330">
        <ele>89.1</ele>
        <time>2020-02-22T12:36:34Z</time>
      </trkpt>
      <trkpt lat="38.6687900" lon="1.5273670">
        <ele>89.1</ele>
        <time>2020-02-22T12:36:35Z</time>
      </trkpt>
      <trkpt lat="38.6687900" lon="1.5273670">
        <ele>89.1</ele>
        <time>2020-02-22T12:36:36Z</time>
      </trkpt>
      <trkpt lat="38.6687150" lon="1.5273820">
        <ele>89.1</ele>
        <time>2020-02-22T12:36:37Z</time>
      </trkpt>
      <trkpt lat="38.6687150" lon="1.5273820">
        <ele>90.1</ele>
        <time>2020-02-22T12:36:38Z</time>
      </trkpt>
      <trkpt lat="38.6686350" lon="1.5273900">
        <ele>90.1</ele>
        <time>2020-02-22T12:36:39Z</time>
      </trkpt>
      <trkpt lat="38.6686350" lon="1.5273900">
        <ele>91.1</ele>
        <time>2020-02-22T12:36:40Z</time>
      </trkpt>
      <trkpt lat="38.6685570" lon="1.5273900">
        <ele>91.1</ele>
        <time>2020-02-22T12:36:41Z</time>
      </trkpt>
      <trkpt lat="38.6685570" lon="1.5273900">
        <ele>92.1</ele>
        <time>2020-02-22T12:36:42Z</time>
      </trkpt>
      <trkpt lat="38.6684770" lon="1.5273750">
        <ele>92.1</ele>
        <time>2020-02-22T12:36:43Z</time>
      </trkpt>
      <trkpt lat="38.6684370" lon="1.5273670">
        <ele>92.1</ele>
        <time>2020-02-22T12:36:44Z</time>
      </trkpt>
      <trkpt lat="38.6684370" lon="1.5273670">
        <ele>92.1</ele>
        <time>2020-02-22T12:36:45Z</time>
      </trkpt>
      <trkpt lat="38.6683630" lon="1.5273530">
        <ele>93.1</ele>
        <time>2020-02-22T12:36:46Z</time>
      </trkpt>
      <trkpt lat="38.6683630" lon="1.5273530">
        <ele>93.1</ele>
        <time>2020-02-22T12:36:47Z</time>
      </trkpt>
      <trkpt lat="38.6682880" lon="1.5273350">
        <ele>93.1</ele>
        <time>2020-02-22T12:36:48Z</time>
      </trkpt>
      <trkpt lat="38.6682500" lon="1.5273230">
        <ele>94.1</ele>
        <time>2020-02-22T12:36:49Z</time>
      </trkpt>
      <trkpt lat="38.6682500" lon="1.5273230">
        <ele>94.1</ele>
        <time>2020-02-22T12:36:50Z</time>
      </trkpt>
      <trkpt lat="38.6681770" lon="1.5272880">
        <ele>94.1</ele>
        <time>2020-02-22T12:36:51Z</time>
      </trkpt>
      <trkpt lat="38.6681770" lon="1.5272880">
        <ele>94.1</ele>
        <time>2020-02-22T12:36:52Z</time>
      </trkpt>
      <trkpt lat="38.6681080" lon="1.5272400">
        <ele>95.1</ele>
        <time>2020-02-22T12:36:53Z</time>
      </trkpt>
      <trkpt lat="38.6681080" lon="1.5272400">
        <ele>95.1</ele>
        <time>2020-02-22T12:36:54Z</time>
      </trkpt>
      <trkpt lat="38.6680450" lon="1.5271900">
        <ele>96.1</ele>
        <time>2020-02-22T12:36:55Z</time>
      </trkpt>
      <trkpt lat="38.6680450" lon="1.5271900">
        <ele>96.1</ele>
        <time>2020-02-22T12:36:56Z</time>
      </trkpt>
      <trkpt lat="38.6679830" lon="1.5271380">
        <ele>96.1</ele>
        <time>2020-02-22T12:36:57Z</time>
      </trkpt>
      <trkpt lat="38.6679830" lon="1.5271380">
        <ele>96.1</ele>
        <time>2020-02-22T12:36:58Z</time>
      </trkpt>
      <trkpt lat="38.6679250" lon="1.5270900">
        <ele>97.1</ele>
        <time>2020-02-22T12:36:59Z</time>
      </trkpt>
      <trkpt lat="38.6679250" lon="1.5270900">
        <ele>97.1</ele>
        <time>2020-02-22T12:37:00Z</time>
      </trkpt>
      <trkpt lat="38.6678620" lon="1.5270450">
        <ele>97.1</ele>
        <time>2020-02-22T12:37:01Z</time>
      </trkpt>
      <trkpt lat="38.6678620" lon="1.5270450">
        <ele>97.1</ele>
        <time>2020-02-22T12:37:02Z</time>
      </trkpt>
      <trkpt lat="38.6677930" lon="1.5270030">
        <ele>98.1</ele>
        <time>2020-02-22T12:37:03Z</time>
      </trkpt>
      <trkpt lat="38.6677580" lon="1.5269880">
        <ele>98.1</ele>
        <time>2020-02-22T12:37:04Z</time>
      </trkpt>
      <trkpt lat="38.6677580" lon="1.5269880">
        <ele>98.1</ele>
        <time>2020-02-22T12:37:05Z</time>
      </trkpt>
      <trkpt lat="38.6676850" lon="1.5269680">
        <ele>98.1</ele>
        <time>2020-02-22T12:37:06Z</time>
      </trkpt>
      <trkpt lat="38.6676480" lon="1.5269650">
        <ele>99.1</ele>
        <time>2020-02-22T12:37:07Z</time>
      </trkpt>
      <trkpt lat="38.6676480" lon="1.5269650">
        <ele>100.1</ele>
        <time>2020-02-22T12:37:08Z</time>
      </trkpt>
      <trkpt lat="38.6675730" lon="1.5269700">
        <ele>100.1</ele>
        <time>2020-02-22T12:37:09Z</time>
      </trkpt>
      <trkpt lat="38.6675730" lon="1.5269700">
        <ele>101.1</ele>
        <time>2020-02-22T12:37:10Z</time>
      </trkpt>
      <trkpt lat="38.6675020" lon="1.5269950">
        <ele>101.1</ele>
        <time>2020-02-22T12:37:11Z</time>
      </trkpt>
      <trkpt lat="38.6675020" lon="1.5269950">
        <ele>101.1</ele>
        <time>2020-02-22T12:37:12Z</time>
      </trkpt>
      <trkpt lat="38.6674420" lon="1.5270450">
        <ele>101.1</ele>
        <time>2020-02-22T12:37:13Z</time>
      </trkpt>
      <trkpt lat="38.6674420" lon="1.5270450">
        <ele>102.1</ele>
        <time>2020-02-22T12:37:14Z</time>
      </trkpt>
      <trkpt lat="38.6673970" lon="1.5271170">
        <ele>102.1</ele>
        <time>2020-02-22T12:37:15Z</time>
      </trkpt>
      <trkpt lat="38.6673970" lon="1.5271170">
        <ele>102.1</ele>
        <time>2020-02-22T12:37:16Z</time>
      </trkpt>
      <trkpt lat="38.6673670" lon="1.5272000">
        <ele>102.1</ele>
        <time>2020-02-22T12:37:17Z</time>
      </trkpt>
      <trkpt lat="38.6673670" lon="1.5272000">
        <ele>103.1</ele>
        <time>2020-02-22T12:37:18Z</time>
      </trkpt>
      <trkpt lat="38.6673530" lon="1.5272820">
        <ele>103.1</ele>
        <time>2020-02-22T12:37:19Z</time>
      </trkpt>
      <trkpt lat="38.6673530" lon="1.5272820">
        <ele>104.1</ele>
        <time>2020-02-22T12:37:20Z</time>
      </trkpt>
      <trkpt lat="38.6673550" lon="1.5273700">
        <ele>104.1</ele>
        <time>2020-02-22T12:37:21Z</time>
      </trkpt>
      <trkpt lat="38.6673600" lon="1.5274180">
        <ele>104.1</ele>
        <time>2020-02-22T12:37:22Z</time>
      </trkpt>
      <trkpt lat="38.6673600" lon="1.5274180">
        <ele>104.1</ele>
        <time>2020-02-22T12:37:23Z</time>
      </trkpt>
      <trkpt lat="38.6673830" lon="1.5275130">
        <ele>104.1</ele>
        <time>2020-02-22T12:37:24Z</time>
      </trkpt>
      <trkpt lat="38.6674020" lon="1.5275600">
        <ele>104.1</ele>
        <time>2020-02-22T12:37:25Z</time>
      </trkpt>
      <trkpt lat="38.6674020" lon="1.5275600">
        <ele>105.1</ele>
        <time>2020-02-22T12:37:26Z</time>
      </trkpt>
      <trkpt lat="38.6674380" lon="1.5276380">
        <ele>105.1</ele>
        <time>2020-02-22T12:37:27Z</time>
      </trkpt>
      <trkpt lat="38.6674380" lon="1.5276380">
        <ele>105.1</ele>
        <time>2020-02-22T12:37:28Z</time>
      </trkpt>
      <trkpt lat="38.6674900" lon="1.5277080">
        <ele>100.1</ele>
        <time>2020-02-22T12:37:29Z</time>
      </trkpt>
      <trkpt lat="38.6674900" lon="1.5277080">
        <ele>100.1</ele>
        <time>2020-02-22T12:37:30Z</time>
      </trkpt>
      <trkpt lat="38.6675520" lon="1.5277670">
        <ele>103.1</ele>
        <time>2020-02-22T12:37:31Z</time>
      </trkpt>
      <trkpt lat="38.6675520" lon="1.5277670">
        <ele>103.1</ele>
        <time>2020-02-22T12:37:32Z</time>
      </trkpt>
      <trkpt lat="38.6676170" lon="1.5278170">
        <ele>105.1</ele>
        <time>2020-02-22T12:37:33Z</time>
      </trkpt>
      <trkpt lat="38.6676170" lon="1.5278170">
        <ele>105.1</ele>
        <time>2020-02-22T12:37:34Z</time>
      </trkpt>
      <trkpt lat="38.6676780" lon="1.5278650">
        <ele>107.1</ele>
        <time>2020-02-22T12:37:35Z</time>
      </trkpt>
      <trkpt lat="38.6676780" lon="1.5278650">
        <ele>107.1</ele>
        <time>2020-02-22T12:37:36Z</time>
      </trkpt>
      <trkpt lat="38.6677470" lon="1.5279170">
        <ele>107.1</ele>
        <time>2020-02-22T12:37:37Z</time>
      </trkpt>
      <trkpt lat="38.6677470" lon="1.5279170">
        <ele>107.1</ele>
        <time>2020-02-22T12:37:38Z</time>
      </trkpt>
      <trkpt lat="38.6678150" lon="1.5279620">
        <ele>108.1</ele>
        <time>2020-02-22T12:37:39Z</time>
      </trkpt>
      <trkpt lat="38.6678530" lon="1.5279750">
        <ele>108.1</ele>
        <time>2020-02-22T12:37:40Z</time>
      </trkpt>
      <trkpt lat="38.6678530" lon="1.5279750">
        <ele>108.1</ele>
        <time>2020-02-22T12:37:41Z</time>
      </trkpt>
      <trkpt lat="38.6679380" lon="1.5279920">
        <ele>108.1</ele>
        <time>2020-02-22T12:37:42Z</time>
      </trkpt>
      <trkpt lat="38.6679820" lon="1.5279950">
        <ele>109.1</ele>
        <time>2020-02-22T12:37:43Z</time>
      </trkpt>
      <trkpt lat="38.6679820" lon="1.5279950">
        <ele>109.1</ele>
        <time>2020-02-22T12:37:44Z</time>
      </trkpt>
      <trkpt lat="38.6680630" lon="1.5280080">
        <ele>109.1</ele>
        <time>2020-02-22T12:37:45Z</time>
      </trkpt>
      <trkpt lat="38.6680630" lon="1.5280080">
        <ele>109.1</ele>
        <time>2020-02-22T12:37:46Z</time>
      </trkpt>
      <trkpt lat="38.6681420" lon="1.5280330">
        <ele>109.1</ele>
        <time>2020-02-22T12:37:47Z</time>
      </trkpt>
      <trkpt lat="38.6681420" lon="1.5280330">
        <ele>110.1</ele>
        <time>2020-02-22T12:37:48Z</time>
      </trkpt>
      <trkpt lat="38.6682170" lon="1.5280720">
        <ele>110.1</ele>
        <time>2020-02-22T12:37:49Z</time>
      </trkpt>
      <trkpt lat="38.6682170" lon="1.5280720">
        <ele>110.1</ele>
        <time>2020-02-22T12:37:50Z</time>
      </trkpt>
      <trkpt lat="38.6682950" lon="1.5281120">
        <ele>110.1</ele>
        <time>2020-02-22T12:37:51Z</time>
      </trkpt>
      <trkpt lat="38.6683330" lon="1.5281370">
        <ele>112.1</ele>
        <time>2020-02-22T12:37:52Z</time>
      </trkpt>
      <trkpt lat="38.6683330" lon="1.5281370">
        <ele>112.1</ele>
        <time>2020-02-22T12:37:53Z</time>
      </trkpt>
      <trkpt lat="38.6684080" lon="1.5281870">
        <ele>112.1</ele>
        <time>2020-02-22T12:37:54Z</time>
      </trkpt>
      <trkpt lat="38.6684430" lon="1.5282080">
        <ele>112.1</ele>
        <time>2020-02-22T12:37:55Z</time>
      </trkpt>
      <trkpt lat="38.6684430" lon="1.5282080">
        <ele>112.1</ele>
        <time>2020-02-22T12:37:56Z</time>
      </trkpt>
      <trkpt lat="38.6685120" lon="1.5282620">
        <ele>112.1</ele>
        <time>2020-02-22T12:37:57Z</time>
      </trkpt>
      <trkpt lat="38.6685120" lon="1.5282620">
        <ele>112.1</ele>
        <time>2020-02-22T12:37:58Z</time>
      </trkpt>
      <trkpt lat="38.6685900" lon="1.5283130">
        <ele>112.1</ele>
        <time>2020-02-22T12:37:59Z</time>
      </trkpt>
      <trkpt lat="38.6685900" lon="1.5283130">
        <ele>112.1</ele>
        <time>2020-02-22T12:38:00Z</time>
      </trkpt>
      <trkpt lat="38.6686730" lon="1.5283730">
        <ele>112.1</ele>
        <time>2020-02-22T12:38:01Z</time>
      </trkpt>
      <trkpt lat="38.6686730" lon="1.5283730">
        <ele>113.1</ele>
        <time>2020-02-22T12:38:02Z</time>
      </trkpt>
      <trkpt lat="38.6687380" lon="1.5284480">
        <ele>113.1</ele>
        <time>2020-02-22T12:38:03Z</time>
      </trkpt>
      <trkpt lat="38.6687380" lon="1.5284480">
        <ele>114.1</ele>
        <time>2020-02-22T12:38:04Z</time>
      </trkpt>
      <trkpt lat="38.6688000" lon="1.5285380">
        <ele>115.1</ele>
        <time>2020-02-22T12:38:05Z</time>
      </trkpt>
      <trkpt lat="38.6688000" lon="1.5285380">
        <ele>115.1</ele>
        <time>2020-02-22T12:38:06Z</time>
      </trkpt>
      <trkpt lat="38.6688670" lon="1.5286230">
        <ele>115.1</ele>
        <time>2020-02-22T12:38:07Z</time>
      </trkpt>
      <trkpt lat="38.6688670" lon="1.5286230">
        <ele>115.1</ele>
        <time>2020-02-22T12:38:08Z</time>
      </trkpt>
      <trkpt lat="38.6689350" lon="1.5286980">
        <ele>115.1</ele>
        <time>2020-02-22T12:38:09Z</time>
      </trkpt>
      <trkpt lat="38.6689750" lon="1.5287300">
        <ele>115.1</ele>
        <time>2020-02-22T12:38:10Z</time>
      </trkpt>
      <trkpt lat="38.6689750" lon="1.5287300">
        <ele>116.1</ele>
        <time>2020-02-22T12:38:11Z</time>
      </trkpt>
      <trkpt lat="38.6690700" lon="1.5287720">
        <ele>116.1</ele>
        <time>2020-02-22T12:38:12Z</time>
      </trkpt>
      <trkpt lat="38.6691180" lon="1.5287920">
        <ele>116.1</ele>
        <time>2020-02-22T12:38:13Z</time>
      </trkpt>
      <trkpt lat="38.6691180" lon="1.5287920">
        <ele>116.1</ele>
        <time>2020-02-22T12:38:14Z</time>
      </trkpt>
      <trkpt lat="38.6692150" lon="1.5288350">
        <ele>117.1</ele>
        <time>2020-02-22T12:38:15Z</time>
      </trkpt>
      <trkpt lat="38.6692150" lon="1.5288350">
        <ele>117.1</ele>
        <time>2020-02-22T12:38:16Z</time>
      </trkpt>
      <trkpt lat="38.6693030" lon="1.5288930">
        <ele>117.1</ele>
        <time>2020-02-22T12:38:17Z</time>
      </trkpt>
      <trkpt lat="38.6693470" lon="1.5289300">
        <ele>117.1</ele>
        <time>2020-02-22T12:38:18Z</time>
      </trkpt>
      <trkpt lat="38.6693470" lon="1.5289300">
        <ele>117.1</ele>
        <time>2020-02-22T12:38:19Z</time>
      </trkpt>
      <trkpt lat="38.6694270" lon="1.5290130">
        <ele>117.1</ele>
        <time>2020-02-22T12:38:20Z</time>
      </trkpt>
      <trkpt lat="38.6694630" lon="1.5290630">
        <ele>118.1</ele>
        <time>2020-02-22T12:38:21Z</time>
      </trkpt>
      <trkpt lat="38.6694630" lon="1.5290630">
        <ele>118.1</ele>
        <time>2020-02-22T12:38:22Z</time>
      </trkpt>
      <trkpt lat="38.6695350" lon="1.5291700">
        <ele>118.1</ele>
        <time>2020-02-22T12:38:23Z</time>
      </trkpt>
      <trkpt lat="38.6695350" lon="1.5291700">
        <ele>119.1</ele>
        <time>2020-02-22T12:38:24Z</time>
      </trkpt>
      <trkpt lat="38.6696100" lon="1.5292730">
        <ele>119.1</ele>
        <time>2020-02-22T12:38:25Z</time>
      </trkpt>
      <trkpt lat="38.6696100" lon="1.5292730">
        <ele>119.1</ele>
        <time>2020-02-22T12:38:26Z</time>
      </trkpt>
      <trkpt lat="38.6696820" lon="1.5293850">
        <ele>119.1</ele>
        <time>2020-02-22T12:38:27Z</time>
      </trkpt>
      <trkpt lat="38.6697150" lon="1.5294420">
        <ele>119.1</ele>
        <time>2020-02-22T12:38:28Z</time>
      </trkpt>
      <trkpt lat="38.6697150" lon="1.5294420">
        <ele>119.1</ele>
        <time>2020-02-22T12:38:29Z</time>
      </trkpt>
      <trkpt lat="38.6697800" lon="1.5295620">
        <ele>120.1</ele>
        <time>2020-02-22T12:38:30Z</time>
      </trkpt>
      <trkpt lat="38.6698120" lon="1.5296200">
        <ele>120.1</ele>
        <time>2020-02-22T12:38:31Z</time>
      </trkpt>
      <trkpt lat="38.6698120" lon="1.5296200">
        <ele>120.1</ele>
        <time>2020-02-22T12:38:32Z</time>
      </trkpt>
      <trkpt lat="38.6698700" lon="1.5297400">
        <ele>120.1</ele>
        <time>2020-02-22T12:38:33Z</time>
      </trkpt>
      <trkpt lat="38.6698980" lon="1.5298020">
        <ele>121.1</ele>
        <time>2020-02-22T12:38:34Z</time>
      </trkpt>
      <trkpt lat="38.6698980" lon="1.5298020">
        <ele>121.1</ele>
        <time>2020-02-22T12:38:35Z</time>
      </trkpt>
      <trkpt lat="38.6699570" lon="1.5299280">
        <ele>121.1</ele>
        <time>2020-02-22T12:38:36Z</time>
      </trkpt>
      <trkpt lat="38.6699850" lon="1.5299930">
        <ele>121.1</ele>
        <time>2020-02-22T12:38:37Z</time>
      </trkpt>
      <trkpt lat="38.6699850" lon="1.5299930">
        <ele>121.1</ele>
        <time>2020-02-22T12:38:38Z</time>
      </trkpt>
      <trkpt lat="38.6700480" lon="1.5301200">
        <ele>121.1</ele>
        <time>2020-02-22T12:38:39Z</time>
      </trkpt>
      <trkpt lat="38.6700730" lon="1.5301850">
        <ele>121.1</ele>
        <time>2020-02-22T12:38:40Z</time>
      </trkpt>
      <trkpt lat="38.6700730" lon="1.5301850">
        <ele>121.1</ele>
        <time>2020-02-22T12:38:41Z</time>
      </trkpt>
      <trkpt lat="38.6701280" lon="1.5303250">
        <ele>122.1</ele>
        <time>2020-02-22T12:38:42Z</time>
      </trkpt>
      <trkpt lat="38.6701550" lon="1.5303950">
        <ele>122.1</ele>
        <time>2020-02-22T12:38:43Z</time>
      </trkpt>
      <trkpt lat="38.6701550" lon="1.5303950">
        <ele>122.1</ele>
        <time>2020-02-22T12:38:44Z</time>
      </trkpt>
      <trkpt lat="38.6702030" lon="1.5305280">
        <ele>122.1</ele>
        <time>2020-02-22T12:38:45Z</time>
      </trkpt>
      <trkpt lat="38.6702030" lon="1.5305280">
        <ele>123.1</ele>
        <time>2020-02-22T12:38:46Z</time>
      </trkpt>
      <trkpt lat="38.6702620" lon="1.5306620">
        <ele>123.1</ele>
        <time>2020-02-22T12:38:47Z</time>
      </trkpt>
      <trkpt lat="38.6702620" lon="1.5306620">
        <ele>123.1</ele>
        <time>2020-02-22T12:38:48Z</time>
      </trkpt>
      <trkpt lat="38.6703120" lon="1.5307950">
        <ele>123.1</ele>
        <time>2020-02-22T12:38:49Z</time>
      </trkpt>
      <trkpt lat="38.6703350" lon="1.5308580">
        <ele>124.1</ele>
        <time>2020-02-22T12:38:50Z</time>
      </trkpt>
      <trkpt lat="38.6703350" lon="1.5308580">
        <ele>124.1</ele>
        <time>2020-02-22T12:38:51Z</time>
      </trkpt>
      <trkpt lat="38.6703830" lon="1.5309880">
        <ele>124.1</ele>
        <time>2020-02-22T12:38:52Z</time>
      </trkpt>
      <trkpt lat="38.6703830" lon="1.5309880">
        <ele>124.1</ele>
        <time>2020-02-22T12:38:53Z</time>
      </trkpt>
      <trkpt lat="38.6704350" lon="1.5311130">
        <ele>125.1</ele>
        <time>2020-02-22T12:38:54Z</time>
      </trkpt>
      <trkpt lat="38.6704350" lon="1.5311130">
        <ele>125.1</ele>
        <time>2020-02-22T12:38:55Z</time>
      </trkpt>
      <trkpt lat="38.6704870" lon="1.5312420">
        <ele>125.1</ele>
        <time>2020-02-22T12:38:56Z</time>
      </trkpt>
      <trkpt lat="38.6705100" lon="1.5313080">
        <ele>125.1</ele>
        <time>2020-02-22T12:38:57Z</time>
      </trkpt>
      <trkpt lat="38.6705100" lon="1.5313080">
        <ele>126.1</ele>
        <time>2020-02-22T12:38:58Z</time>
      </trkpt>
      <trkpt lat="38.6705600" lon="1.5314370">
        <ele>126.1</ele>
        <time>2020-02-22T12:38:59Z</time>
      </trkpt>
      <trkpt lat="38.6705600" lon="1.5314370">
        <ele>126.1</ele>
        <time>2020-02-22T12:39:00Z</time>
      </trkpt>
      <trkpt lat="38.6706070" lon="1.5315630">
        <ele>126.1</ele>
        <time>2020-02-22T12:39:01Z</time>
      </trkpt>
      <trkpt lat="38.6706320" lon="1.5316280">
        <ele>126.1</ele>
        <time>2020-02-22T12:39:02Z</time>
      </trkpt>
      <trkpt lat="38.6706320" lon="1.5316280">
        <ele>127.1</ele>
        <time>2020-02-22T12:39:03Z</time>
      </trkpt>
      <trkpt lat="38.6706820" lon="1.5317600">
        <ele>127.1</ele>
        <time>2020-02-22T12:39:04Z</time>
      </trkpt>
      <trkpt lat="38.6706820" lon="1.5317600">
        <ele>128.1</ele>
        <time>2020-02-22T12:39:05Z</time>
      </trkpt>
      <trkpt lat="38.6707280" lon="1.5318920">
        <ele>128.1</ele>
        <time>2020-02-22T12:39:06Z</time>
      </trkpt>
      <trkpt lat="38.6707520" lon="1.5319550">
        <ele>128.1</ele>
        <time>2020-02-22T12:39:07Z</time>
      </trkpt>
      <trkpt lat="38.6707770" lon="1.5320170">
        <ele>128.1</ele>
        <time>2020-02-22T12:39:08Z</time>
      </trkpt>
      <trkpt lat="38.6707770" lon="1.5320170">
        <ele>129.1</ele>
        <time>2020-02-22T12:39:09Z</time>
      </trkpt>
      <trkpt lat="38.6708270" lon="1.5321400">
        <ele>129.1</ele>
        <time>2020-02-22T12:39:10Z</time>
      </trkpt>
      <trkpt lat="38.6708270" lon="1.5321400">
        <ele>129.1</ele>
        <time>2020-02-22T12:39:11Z</time>
      </trkpt>
      <trkpt lat="38.6708800" lon="1.5322570">
        <ele>129.1</ele>
        <time>2020-02-22T12:39:12Z</time>
      </trkpt>
      <trkpt lat="38.6709100" lon="1.5323230">
        <ele>130.1</ele>
        <time>2020-02-22T12:39:13Z</time>
      </trkpt>
      <trkpt lat="38.6709100" lon="1.5323230">
        <ele>130.1</ele>
        <time>2020-02-22T12:39:14Z</time>
      </trkpt>
      <trkpt lat="38.6709830" lon="1.5324480">
        <ele>130.1</ele>
        <time>2020-02-22T12:39:15Z</time>
      </trkpt>
      <trkpt lat="38.6710250" lon="1.5325100">
        <ele>130.1</ele>
        <time>2020-02-22T12:39:16Z</time>
      </trkpt>
      <trkpt lat="38.6710250" lon="1.5325100">
        <ele>130.1</ele>
        <time>2020-02-22T12:39:17Z</time>
      </trkpt>
      <trkpt lat="38.6711050" lon="1.5326280">
        <ele>130.1</ele>
        <time>2020-02-22T12:39:18Z</time>
      </trkpt>
      <trkpt lat="38.6711050" lon="1.5326280">
        <ele>131.1</ele>
        <time>2020-02-22T12:39:19Z</time>
      </trkpt>
      <trkpt lat="38.6711720" lon="1.5327480">
        <ele>131.1</ele>
        <time>2020-02-22T12:39:20Z</time>
      </trkpt>
      <trkpt lat="38.6711720" lon="1.5327480">
        <ele>131.1</ele>
        <time>2020-02-22T12:39:21Z</time>
      </trkpt>
      <trkpt lat="38.6712380" lon="1.5328600">
        <ele>132.1</ele>
        <time>2020-02-22T12:39:22Z</time>
      </trkpt>
      <trkpt lat="38.6712750" lon="1.5329150">
        <ele>132.1</ele>
        <time>2020-02-22T12:39:23Z</time>
      </trkpt>
      <trkpt lat="38.6713120" lon="1.5329750">
        <ele>132.1</ele>
        <time>2020-02-22T12:39:24Z</time>
      </trkpt>
      <trkpt lat="38.6713120" lon="1.5329750">
        <ele>132.1</ele>
        <time>2020-02-22T12:39:25Z</time>
      </trkpt>
      <trkpt lat="38.6713830" lon="1.5330980">
        <ele>132.1</ele>
        <time>2020-02-22T12:39:26Z</time>
      </trkpt>
      <trkpt lat="38.6713830" lon="1.5330980">
        <ele>132.1</ele>
        <time>2020-02-22T12:39:27Z</time>
      </trkpt>
      <trkpt lat="38.6714620" lon="1.5332230">
        <ele>133.1</ele>
        <time>2020-02-22T12:39:28Z</time>
      </trkpt>
      <trkpt lat="38.6714620" lon="1.5332230">
        <ele>133.1</ele>
        <time>2020-02-22T12:39:29Z</time>
      </trkpt>
      <trkpt lat="38.6715370" lon="1.5333470">
        <ele>133.1</ele>
        <time>2020-02-22T12:39:30Z</time>
      </trkpt>
      <trkpt lat="38.6715370" lon="1.5333470">
        <ele>133.1</ele>
        <time>2020-02-22T12:39:31Z</time>
      </trkpt>
      <trkpt lat="38.6716150" lon="1.5334670">
        <ele>133.1</ele>
        <time>2020-02-22T12:39:32Z</time>
      </trkpt>
      <trkpt lat="38.6716530" lon="1.5335270">
        <ele>133.1</ele>
        <time>2020-02-22T12:39:33Z</time>
      </trkpt>
      <trkpt lat="38.6716900" lon="1.5335900">
        <ele>134.1</ele>
        <time>2020-02-22T12:39:34Z</time>
      </trkpt>
      <trkpt lat="38.6716900" lon="1.5335900">
        <ele>134.1</ele>
        <time>2020-02-22T12:39:35Z</time>
      </trkpt>
      <trkpt lat="38.6717730" lon="1.5337080">
        <ele>134.1</ele>
        <time>2020-02-22T12:39:36Z</time>
      </trkpt>
      <trkpt lat="38.6717730" lon="1.5337080">
        <ele>134.1</ele>
        <time>2020-02-22T12:39:37Z</time>
      </trkpt>
      <trkpt lat="38.6718700" lon="1.5338150">
        <ele>134.1</ele>
        <time>2020-02-22T12:39:38Z</time>
      </trkpt>
      <trkpt lat="38.6719170" lon="1.5338680">
        <ele>134.1</ele>
        <time>2020-02-22T12:39:39Z</time>
      </trkpt>
      <trkpt lat="38.6719170" lon="1.5338680">
        <ele>134.1</ele>
        <time>2020-02-22T12:39:40Z</time>
      </trkpt>
      <trkpt lat="38.6720050" lon="1.5339900">
        <ele>135.1</ele>
        <time>2020-02-22T12:39:41Z</time>
      </trkpt>
      <trkpt lat="38.6720050" lon="1.5339900">
        <ele>135.1</ele>
        <time>2020-02-22T12:39:42Z</time>
      </trkpt>
      <trkpt lat="38.6720830" lon="1.5341180">
        <ele>135.1</ele>
        <time>2020-02-22T12:39:43Z</time>
      </trkpt>
      <trkpt lat="38.6721200" lon="1.5341850">
        <ele>135.1</ele>
        <time>2020-02-22T12:39:44Z</time>
      </trkpt>
      <trkpt lat="38.6721200" lon="1.5341850">
        <ele>135.1</ele>
        <time>2020-02-22T12:39:45Z</time>
      </trkpt>
      <trkpt lat="38.6721900" lon="1.5343230">
        <ele>135.1</ele>
        <time>2020-02-22T12:39:46Z</time>
      </trkpt>
      <trkpt lat="38.6721900" lon="1.5343230">
        <ele>135.1</ele>
        <time>2020-02-22T12:39:47Z</time>
      </trkpt>
      <trkpt lat="38.6722520" lon="1.5344600">
        <ele>135.1</ele>
        <time>2020-02-22T12:39:48Z</time>
      </trkpt>
      <trkpt lat="38.6722520" lon="1.5344600">
        <ele>135.1</ele>
        <time>2020-02-22T12:39:49Z</time>
      </trkpt>
      <trkpt lat="38.6723150" lon="1.5345980">
        <ele>135.1</ele>
        <time>2020-02-22T12:39:50Z</time>
      </trkpt>
      <trkpt lat="38.6723150" lon="1.5345980">
        <ele>135.1</ele>
        <time>2020-02-22T12:39:51Z</time>
      </trkpt>
      <trkpt lat="38.6723820" lon="1.5347470">
        <ele>135.1</ele>
        <time>2020-02-22T12:39:52Z</time>
      </trkpt>
      <trkpt lat="38.6723820" lon="1.5347470">
        <ele>136.1</ele>
        <time>2020-02-22T12:39:53Z</time>
      </trkpt>
      <trkpt lat="38.6724420" lon="1.5348920">
        <ele>136.1</ele>
        <time>2020-02-22T12:39:54Z</time>
      </trkpt>
      <trkpt lat="38.6724420" lon="1.5348920">
        <ele>136.1</ele>
        <time>2020-02-22T12:39:55Z</time>
      </trkpt>
      <trkpt lat="38.6724920" lon="1.5350450">
        <ele>136.1</ele>
        <time>2020-02-22T12:39:56Z</time>
      </trkpt>
      <trkpt lat="38.6725080" lon="1.5351250">
        <ele>136.1</ele>
        <time>2020-02-22T12:39:57Z</time>
      </trkpt>
      <trkpt lat="38.6725080" lon="1.5351250">
        <ele>136.1</ele>
        <time>2020-02-22T12:39:58Z</time>
      </trkpt>
      <trkpt lat="38.6725350" lon="1.5352850">
        <ele>136.1</ele>
        <time>2020-02-22T12:39:59Z</time>
      </trkpt>
      <trkpt lat="38.6725350" lon="1.5352850">
        <ele>137.1</ele>
        <time>2020-02-22T12:40:00Z</time>
      </trkpt>
      <trkpt lat="38.6725650" lon="1.5354380">
        <ele>137.1</ele>
        <time>2020-02-22T12:40:01Z</time>
      </trkpt>
      <trkpt lat="38.6725770" lon="1.5355130">
        <ele>138.1</ele>
        <time>2020-02-22T12:40:02Z</time>
      </trkpt>
      <trkpt lat="38.6725770" lon="1.5355130">
        <ele>138.1</ele>
        <time>2020-02-22T12:40:03Z</time>
      </trkpt>
      <trkpt lat="38.6726000" lon="1.5356600">
        <ele>138.1</ele>
        <time>2020-02-22T12:40:04Z</time>
      </trkpt>
      <trkpt lat="38.6726000" lon="1.5356600">
        <ele>138.1</ele>
        <time>2020-02-22T12:40:05Z</time>
      </trkpt>
      <trkpt lat="38.6726270" lon="1.5358120">
        <ele>138.1</ele>
        <time>2020-02-22T12:40:06Z</time>
      </trkpt>
      <trkpt lat="38.6726380" lon="1.5358930">
        <ele>138.1</ele>
        <time>2020-02-22T12:40:07Z</time>
      </trkpt>
      <trkpt lat="38.6726500" lon="1.5359720">
        <ele>139.1</ele>
        <time>2020-02-22T12:40:08Z</time>
      </trkpt>
      <trkpt lat="38.6726630" lon="1.5360500">
        <ele>139.1</ele>
        <time>2020-02-22T12:40:09Z</time>
      </trkpt>
      <trkpt lat="38.6726630" lon="1.5360500">
        <ele>139.1</ele>
        <time>2020-02-22T12:40:10Z</time>
      </trkpt>
      <trkpt lat="38.6726850" lon="1.5362030">
        <ele>139.1</ele>
        <time>2020-02-22T12:40:11Z</time>
      </trkpt>
      <trkpt lat="38.6726970" lon="1.5362770">
        <ele>140.1</ele>
        <time>2020-02-22T12:40:12Z</time>
      </trkpt>
      <trkpt lat="38.6726970" lon="1.5362770">
        <ele>140.1</ele>
        <time>2020-02-22T12:40:13Z</time>
      </trkpt>
      <trkpt lat="38.6727270" lon="1.5364180">
        <ele>140.1</ele>
        <time>2020-02-22T12:40:14Z</time>
      </trkpt>
      <trkpt lat="38.6727370" lon="1.5364900">
        <ele>140.1</ele>
        <time>2020-02-22T12:40:15Z</time>
      </trkpt>
      <trkpt lat="38.6727370" lon="1.5364900">
        <ele>141.1</ele>
        <time>2020-02-22T12:40:16Z</time>
      </trkpt>
      <trkpt lat="38.6727630" lon="1.5366300">
        <ele>141.1</ele>
        <time>2020-02-22T12:40:17Z</time>
      </trkpt>
      <trkpt lat="38.6727630" lon="1.5366300">
        <ele>141.1</ele>
        <time>2020-02-22T12:40:18Z</time>
      </trkpt>
      <trkpt lat="38.6727820" lon="1.5367770">
        <ele>142.1</ele>
        <time>2020-02-22T12:40:19Z</time>
      </trkpt>
      <trkpt lat="38.6727820" lon="1.5367770">
        <ele>142.1</ele>
        <time>2020-02-22T12:40:20Z</time>
      </trkpt>
      <trkpt lat="38.6728030" lon="1.5369250">
        <ele>142.1</ele>
        <time>2020-02-22T12:40:21Z</time>
      </trkpt>
      <trkpt lat="38.6728170" lon="1.5370020">
        <ele>142.1</ele>
        <time>2020-02-22T12:40:22Z</time>
      </trkpt>
      <trkpt lat="38.6728170" lon="1.5370020">
        <ele>143.1</ele>
        <time>2020-02-22T12:40:23Z</time>
      </trkpt>
      <trkpt lat="38.6728370" lon="1.5371470">
        <ele>143.1</ele>
        <time>2020-02-22T12:40:24Z</time>
      </trkpt>
      <trkpt lat="38.6728370" lon="1.5371470">
        <ele>144.1</ele>
        <time>2020-02-22T12:40:25Z</time>
      </trkpt>
      <trkpt lat="38.6728530" lon="1.5372870">
        <ele>144.1</ele>
        <time>2020-02-22T12:40:26Z</time>
      </trkpt>
      <trkpt lat="38.6728630" lon="1.5373570">
        <ele>145.1</ele>
        <time>2020-02-22T12:40:27Z</time>
      </trkpt>
      <trkpt lat="38.6728720" lon="1.5374230">
        <ele>145.1</ele>
        <time>2020-02-22T12:40:28Z</time>
      </trkpt>
      <trkpt lat="38.6728720" lon="1.5374230">
        <ele>145.1</ele>
        <time>2020-02-22T12:40:29Z</time>
      </trkpt>
      <trkpt lat="38.6728930" lon="1.5375570">
        <ele>145.1</ele>
        <time>2020-02-22T12:40:30Z</time>
      </trkpt>
      <trkpt lat="38.6729030" lon="1.5376230">
        <ele>146.1</ele>
        <time>2020-02-22T12:40:31Z</time>
      </trkpt>
      <trkpt lat="38.6729130" lon="1.5376930">
        <ele>146.1</ele>
        <time>2020-02-22T12:40:32Z</time>
      </trkpt>
      <trkpt lat="38.6729130" lon="1.5376930">
        <ele>146.1</ele>
        <time>2020-02-22T12:40:33Z</time>
      </trkpt>
      <trkpt lat="38.6729320" lon="1.5378350">
        <ele>146.1</ele>
        <time>2020-02-22T12:40:34Z</time>
      </trkpt>
      <trkpt lat="38.6729320" lon="1.5378350">
        <ele>147.1</ele>
        <time>2020-02-22T12:40:35Z</time>
      </trkpt>
      <trkpt lat="38.6729480" lon="1.5379800">
        <ele>147.1</ele>
        <time>2020-02-22T12:40:36Z</time>
      </trkpt>
      <trkpt lat="38.6729480" lon="1.5379800">
        <ele>147.1</ele>
        <time>2020-02-22T12:40:37Z</time>
      </trkpt>
      <trkpt lat="38.6729620" lon="1.5381220">
        <ele>148.1</ele>
        <time>2020-02-22T12:40:38Z</time>
      </trkpt>
      <trkpt lat="38.6729670" lon="1.5381920">
        <ele>148.1</ele>
        <time>2020-02-22T12:40:39Z</time>
      </trkpt>
      <trkpt lat="38.6729670" lon="1.5381920">
        <ele>148.1</ele>
        <time>2020-02-22T12:40:40Z</time>
      </trkpt>
      <trkpt lat="38.6729800" lon="1.5383380">
        <ele>148.1</ele>
        <time>2020-02-22T12:40:41Z</time>
      </trkpt>
      <trkpt lat="38.6729830" lon="1.5384130">
        <ele>149.1</ele>
        <time>2020-02-22T12:40:42Z</time>
      </trkpt>
      <trkpt lat="38.6729830" lon="1.5384130">
        <ele>149.1</ele>
        <time>2020-02-22T12:40:43Z</time>
      </trkpt>
      <trkpt lat="38.6729970" lon="1.5385680">
        <ele>149.1</ele>
        <time>2020-02-22T12:40:44Z</time>
      </trkpt>
      <trkpt lat="38.6730030" lon="1.5386430">
        <ele>149.1</ele>
        <time>2020-02-22T12:40:45Z</time>
      </trkpt>
      <trkpt lat="38.6730030" lon="1.5386430">
        <ele>149.1</ele>
        <time>2020-02-22T12:40:46Z</time>
      </trkpt>
      <trkpt lat="38.6730180" lon="1.5387920">
        <ele>149.1</ele>
        <time>2020-02-22T12:40:47Z</time>
      </trkpt>
      <trkpt lat="38.6730180" lon="1.5387920">
        <ele>150.1</ele>
        <time>2020-02-22T12:40:48Z</time>
      </trkpt>
      <trkpt lat="38.6730300" lon="1.5389450">
        <ele>150.1</ele>
        <time>2020-02-22T12:40:49Z</time>
      </trkpt>
      <trkpt lat="38.6730300" lon="1.5389450">
        <ele>150.1</ele>
        <time>2020-02-22T12:40:50Z</time>
      </trkpt>
      <trkpt lat="38.6730370" lon="1.5390950">
        <ele>150.1</ele>
        <time>2020-02-22T12:40:51Z</time>
      </trkpt>
      <trkpt lat="38.6730380" lon="1.5391770">
        <ele>150.1</ele>
        <time>2020-02-22T12:40:52Z</time>
      </trkpt>
      <trkpt lat="38.6730380" lon="1.5391770">
        <ele>150.1</ele>
        <time>2020-02-22T12:40:53Z</time>
      </trkpt>
      <trkpt lat="38.6730470" lon="1.5393350">
        <ele>151.1</ele>
        <time>2020-02-22T12:40:54Z</time>
      </trkpt>
      <trkpt lat="38.6730470" lon="1.5393350">
        <ele>151.1</ele>
        <time>2020-02-22T12:40:55Z</time>
      </trkpt>
      <trkpt lat="38.6730550" lon="1.5394930">
        <ele>151.1</ele>
        <time>2020-02-22T12:40:56Z</time>
      </trkpt>
      <trkpt lat="38.6730600" lon="1.5395720">
        <ele>151.1</ele>
        <time>2020-02-22T12:40:57Z</time>
      </trkpt>
      <trkpt lat="38.6730600" lon="1.5395720">
        <ele>151.1</ele>
        <time>2020-02-22T12:40:58Z</time>
      </trkpt>
      <trkpt lat="38.6730720" lon="1.5397220">
        <ele>151.1</ele>
        <time>2020-02-22T12:40:59Z</time>
      </trkpt>
      <trkpt lat="38.6730720" lon="1.5397220">
        <ele>151.1</ele>
        <time>2020-02-22T12:41:00Z</time>
      </trkpt>
      <trkpt lat="38.6730820" lon="1.5398680">
        <ele>151.1</ele>
        <time>2020-02-22T12:41:01Z</time>
      </trkpt>
      <trkpt lat="38.6730820" lon="1.5398680">
        <ele>151.1</ele>
        <time>2020-02-22T12:41:02Z</time>
      </trkpt>
      <trkpt lat="38.6730850" lon="1.5400200">
        <ele>151.1</ele>
        <time>2020-02-22T12:41:03Z</time>
      </trkpt>
      <trkpt lat="38.6730850" lon="1.5400200">
        <ele>152.1</ele>
        <time>2020-02-22T12:41:04Z</time>
      </trkpt>
      <trkpt lat="38.6730680" lon="1.5401720">
        <ele>152.1</ele>
        <time>2020-02-22T12:41:05Z</time>
      </trkpt>
      <trkpt lat="38.6730550" lon="1.5402500">
        <ele>152.1</ele>
        <time>2020-02-22T12:41:06Z</time>
      </trkpt>
      <trkpt lat="38.6730550" lon="1.5402500">
        <ele>152.1</ele>
        <time>2020-02-22T12:41:07Z</time>
      </trkpt>
      <trkpt lat="38.6730230" lon="1.5404030">
        <ele>152.1</ele>
        <time>2020-02-22T12:41:08Z</time>
      </trkpt>
      <trkpt lat="38.6730050" lon="1.5404800">
        <ele>153.1</ele>
        <time>2020-02-22T12:41:09Z</time>
      </trkpt>
      <trkpt lat="38.6730050" lon="1.5404800">
        <ele>153.1</ele>
        <time>2020-02-22T12:41:10Z</time>
      </trkpt>
      <trkpt lat="38.6729750" lon="1.5406380">
        <ele>153.1</ele>
        <time>2020-02-22T12:41:11Z</time>
      </trkpt>
      <trkpt lat="38.6729580" lon="1.5407130">
        <ele>153.1</ele>
        <time>2020-02-22T12:41:12Z</time>
      </trkpt>
      <trkpt lat="38.6729580" lon="1.5407130">
        <ele>153.1</ele>
        <time>2020-02-22T12:41:13Z</time>
      </trkpt>
      <trkpt lat="38.6729180" lon="1.5408680">
        <ele>153.1</ele>
        <time>2020-02-22T12:41:14Z</time>
      </trkpt>
      <trkpt lat="38.6729000" lon="1.5409470">
        <ele>153.1</ele>
        <time>2020-02-22T12:41:15Z</time>
      </trkpt>
      <trkpt lat="38.6729000" lon="1.5409470">
        <ele>153.1</ele>
        <time>2020-02-22T12:41:16Z</time>
      </trkpt>
      <trkpt lat="38.6728650" lon="1.5411000">
        <ele>153.1</ele>
        <time>2020-02-22T12:41:17Z</time>
      </trkpt>
      <trkpt lat="38.6728650" lon="1.5411000">
        <ele>153.1</ele>
        <time>2020-02-22T12:41:18Z</time>
      </trkpt>
      <trkpt lat="38.6728300" lon="1.5412600">
        <ele>154.1</ele>
        <time>2020-02-22T12:41:19Z</time>
      </trkpt>
      <trkpt lat="38.6728300" lon="1.5412600">
        <ele>154.1</ele>
        <time>2020-02-22T12:41:20Z</time>
      </trkpt>
      <trkpt lat="38.6727950" lon="1.5414180">
        <ele>154.1</ele>
        <time>2020-02-22T12:41:21Z</time>
      </trkpt>
      <trkpt lat="38.6727950" lon="1.5414180">
        <ele>154.1</ele>
        <time>2020-02-22T12:41:22Z</time>
      </trkpt>
      <trkpt lat="38.6727550" lon="1.5415780">
        <ele>154.1</ele>
        <time>2020-02-22T12:41:23Z</time>
      </trkpt>
      <trkpt lat="38.6727370" lon="1.5416580">
        <ele>154.1</ele>
        <time>2020-02-22T12:41:24Z</time>
      </trkpt>
      <trkpt lat="38.6727370" lon="1.5416580">
        <ele>154.1</ele>
        <time>2020-02-22T12:41:25Z</time>
      </trkpt>
      <trkpt lat="38.6727080" lon="1.5418200">
        <ele>154.1</ele>
        <time>2020-02-22T12:41:26Z</time>
      </trkpt>
      <trkpt lat="38.6727080" lon="1.5418200">
        <ele>154.1</ele>
        <time>2020-02-22T12:41:27Z</time>
      </trkpt>
      <trkpt lat="38.6726980" lon="1.5419880">
        <ele>154.1</ele>
        <time>2020-02-22T12:41:28Z</time>
      </trkpt>
      <trkpt lat="38.6727020" lon="1.5420730">
        <ele>154.1</ele>
        <time>2020-02-22T12:41:29Z</time>
      </trkpt>
      <trkpt lat="38.6727020" lon="1.5420730">
        <ele>154.1</ele>
        <time>2020-02-22T12:41:30Z</time>
      </trkpt>
      <trkpt lat="38.6727220" lon="1.5422430">
        <ele>154.1</ele>
        <time>2020-02-22T12:41:31Z</time>
      </trkpt>
      <trkpt lat="38.6727220" lon="1.5422430">
        <ele>154.1</ele>
        <time>2020-02-22T12:41:32Z</time>
      </trkpt>
      <trkpt lat="38.6727470" lon="1.5424130">
        <ele>154.1</ele>
        <time>2020-02-22T12:41:33Z</time>
      </trkpt>
      <trkpt lat="38.6727600" lon="1.5424980">
        <ele>154.1</ele>
        <time>2020-02-22T12:41:34Z</time>
      </trkpt>
      <trkpt lat="38.6727600" lon="1.5424980">
        <ele>154.1</ele>
        <time>2020-02-22T12:41:35Z</time>
      </trkpt>
      <trkpt lat="38.6727900" lon="1.5426680">
        <ele>154.1</ele>
        <time>2020-02-22T12:41:36Z</time>
      </trkpt>
      <trkpt lat="38.6727900" lon="1.5426680">
        <ele>154.1</ele>
        <time>2020-02-22T12:41:37Z</time>
      </trkpt>
      <trkpt lat="38.6728200" lon="1.5428420">
        <ele>154.1</ele>
        <time>2020-02-22T12:41:38Z</time>
      </trkpt>
      <trkpt lat="38.6728330" lon="1.5429300">
        <ele>154.1</ele>
        <time>2020-02-22T12:41:39Z</time>
      </trkpt>
      <trkpt lat="38.6728330" lon="1.5429300">
        <ele>154.1</ele>
        <time>2020-02-22T12:41:40Z</time>
      </trkpt>
      <trkpt lat="38.6728650" lon="1.5431030">
        <ele>154.1</ele>
        <time>2020-02-22T12:41:41Z</time>
      </trkpt>
      <trkpt lat="38.6728650" lon="1.5431030">
        <ele>154.1</ele>
        <time>2020-02-22T12:41:42Z</time>
      </trkpt>
      <trkpt lat="38.6728980" lon="1.5432800">
        <ele>154.1</ele>
        <time>2020-02-22T12:41:43Z</time>
      </trkpt>
      <trkpt lat="38.6729150" lon="1.5433720">
        <ele>154.1</ele>
        <time>2020-02-22T12:41:44Z</time>
      </trkpt>
      <trkpt lat="38.6729300" lon="1.5434620">
        <ele>154.1</ele>
        <time>2020-02-22T12:41:45Z</time>
      </trkpt>
      <trkpt lat="38.6729300" lon="1.5434620">
        <ele>154.1</ele>
        <time>2020-02-22T12:41:46Z</time>
      </trkpt>
      <trkpt lat="38.6729580" lon="1.5436520">
        <ele>154.1</ele>
        <time>2020-02-22T12:41:47Z</time>
      </trkpt>
      <trkpt lat="38.6729580" lon="1.5436520">
        <ele>154.1</ele>
        <time>2020-02-22T12:41:48Z</time>
      </trkpt>
      <trkpt lat="38.6729870" lon="1.5438430">
        <ele>154.1</ele>
        <time>2020-02-22T12:41:49Z</time>
      </trkpt>
      <trkpt lat="38.6730020" lon="1.5439400">
        <ele>154.1</ele>
        <time>2020-02-22T12:41:50Z</time>
      </trkpt>
      <trkpt lat="38.6730020" lon="1.5439400">
        <ele>154.1</ele>
        <time>2020-02-22T12:41:51Z</time>
      </trkpt>
      <trkpt lat="38.6730320" lon="1.5441280">
        <ele>154.1</ele>
        <time>2020-02-22T12:41:52Z</time>
      </trkpt>
      <trkpt lat="38.6730320" lon="1.5441280">
        <ele>154.1</ele>
        <time>2020-02-22T12:41:53Z</time>
      </trkpt>
      <trkpt lat="38.6730580" lon="1.5443100">
        <ele>155.1</ele>
        <time>2020-02-22T12:41:54Z</time>
      </trkpt>
      <trkpt lat="38.6730580" lon="1.5443100">
        <ele>155.1</ele>
        <time>2020-02-22T12:41:55Z</time>
      </trkpt>
      <trkpt lat="38.6730850" lon="1.5444870">
        <ele>155.1</ele>
        <time>2020-02-22T12:41:56Z</time>
      </trkpt>
      <trkpt lat="38.6730930" lon="1.5445800">
        <ele>155.1</ele>
        <time>2020-02-22T12:41:57Z</time>
      </trkpt>
      <trkpt lat="38.6730930" lon="1.5445800">
        <ele>155.1</ele>
        <time>2020-02-22T12:41:58Z</time>
      </trkpt>
      <trkpt lat="38.6731020" lon="1.5447730">
        <ele>155.1</ele>
        <time>2020-02-22T12:41:59Z</time>
      </trkpt>
      <trkpt lat="38.6731020" lon="1.5447730">
        <ele>155.1</ele>
        <time>2020-02-22T12:42:00Z</time>
      </trkpt>
      <trkpt lat="38.6730980" lon="1.5449620">
        <ele>155.1</ele>
        <time>2020-02-22T12:42:01Z</time>
      </trkpt>
      <trkpt lat="38.6730980" lon="1.5449620">
        <ele>155.1</ele>
        <time>2020-02-22T12:42:02Z</time>
      </trkpt>
      <trkpt lat="38.6730850" lon="1.5451550">
        <ele>155.1</ele>
        <time>2020-02-22T12:42:03Z</time>
      </trkpt>
      <trkpt lat="38.6730850" lon="1.5451550">
        <ele>155.1</ele>
        <time>2020-02-22T12:42:04Z</time>
      </trkpt>
      <trkpt lat="38.6730680" lon="1.5453530">
        <ele>156.1</ele>
        <time>2020-02-22T12:42:05Z</time>
      </trkpt>
      <trkpt lat="38.6730680" lon="1.5453530">
        <ele>156.1</ele>
        <time>2020-02-22T12:42:06Z</time>
      </trkpt>
      <trkpt lat="38.6730550" lon="1.5455550">
        <ele>156.1</ele>
        <time>2020-02-22T12:42:07Z</time>
      </trkpt>
      <trkpt lat="38.6730550" lon="1.5455550">
        <ele>156.1</ele>
        <time>2020-02-22T12:42:08Z</time>
      </trkpt>
      <trkpt lat="38.6730420" lon="1.5457520">
        <ele>156.1</ele>
        <time>2020-02-22T12:42:09Z</time>
      </trkpt>
      <trkpt lat="38.6730300" lon="1.5458550">
        <ele>156.1</ele>
        <time>2020-02-22T12:42:10Z</time>
      </trkpt>
      <trkpt lat="38.6730300" lon="1.5458550">
        <ele>156.1</ele>
        <time>2020-02-22T12:42:11Z</time>
      </trkpt>
      <trkpt lat="38.6730120" lon="1.5460730">
        <ele>155.1</ele>
        <time>2020-02-22T12:42:12Z</time>
      </trkpt>
      <trkpt lat="38.6730120" lon="1.5460730">
        <ele>155.1</ele>
        <time>2020-02-22T12:42:13Z</time>
      </trkpt>
      <trkpt lat="38.6729950" lon="1.5462920">
        <ele>155.1</ele>
        <time>2020-02-22T12:42:14Z</time>
      </trkpt>
      <trkpt lat="38.6729870" lon="1.5464030">
        <ele>155.1</ele>
        <time>2020-02-22T12:42:15Z</time>
      </trkpt>
      <trkpt lat="38.6729870" lon="1.5464030">
        <ele>155.1</ele>
        <time>2020-02-22T12:42:16Z</time>
      </trkpt>
      <trkpt lat="38.6729680" lon="1.5466270">
        <ele>155.1</ele>
        <time>2020-02-22T12:42:17Z</time>
      </trkpt>
      <trkpt lat="38.6729680" lon="1.5466270">
        <ele>154.1</ele>
        <time>2020-02-22T12:42:18Z</time>
      </trkpt>
      <trkpt lat="38.6729500" lon="1.5468650">
        <ele>154.1</ele>
        <time>2020-02-22T12:42:19Z</time>
      </trkpt>
      <trkpt lat="38.6729500" lon="1.5468650">
        <ele>154.1</ele>
        <time>2020-02-22T12:42:20Z</time>
      </trkpt>
      <trkpt lat="38.6729250" lon="1.5471030">
        <ele>154.1</ele>
        <time>2020-02-22T12:42:21Z</time>
      </trkpt>
      <trkpt lat="38.6729250" lon="1.5471030">
        <ele>153.1</ele>
        <time>2020-02-22T12:42:22Z</time>
      </trkpt>
      <trkpt lat="38.6728980" lon="1.5473470">
        <ele>153.1</ele>
        <time>2020-02-22T12:42:23Z</time>
      </trkpt>
      <trkpt lat="38.6728980" lon="1.5473470">
        <ele>153.1</ele>
        <time>2020-02-22T12:42:24Z</time>
      </trkpt>
      <trkpt lat="38.6728780" lon="1.5476050">
        <ele>152.1</ele>
        <time>2020-02-22T12:42:25Z</time>
      </trkpt>
      <trkpt lat="38.6728650" lon="1.5477420">
        <ele>152.1</ele>
        <time>2020-02-22T12:42:26Z</time>
      </trkpt>
      <trkpt lat="38.6728650" lon="1.5477420">
        <ele>152.1</ele>
        <time>2020-02-22T12:42:27Z</time>
      </trkpt>
      <trkpt lat="38.6728320" lon="1.5480100">
        <ele>152.1</ele>
        <time>2020-02-22T12:42:28Z</time>
      </trkpt>
      <trkpt lat="38.6728320" lon="1.5480100">
        <ele>152.1</ele>
        <time>2020-02-22T12:42:29Z</time>
      </trkpt>
      <trkpt lat="38.6727630" lon="1.5482580">
        <ele>152.1</ele>
        <time>2020-02-22T12:42:30Z</time>
      </trkpt>
      <trkpt lat="38.6727070" lon="1.5483700">
        <ele>152.1</ele>
        <time>2020-02-22T12:42:31Z</time>
      </trkpt>
      <trkpt lat="38.6727070" lon="1.5483700">
        <ele>152.1</ele>
        <time>2020-02-22T12:42:32Z</time>
      </trkpt>
      <trkpt lat="38.6725870" lon="1.5485900">
        <ele>151.1</ele>
        <time>2020-02-22T12:42:33Z</time>
      </trkpt>
      <trkpt lat="38.6725870" lon="1.5485900">
        <ele>151.1</ele>
        <time>2020-02-22T12:42:34Z</time>
      </trkpt>
      <trkpt lat="38.6724750" lon="1.5487970">
        <ele>150.1</ele>
        <time>2020-02-22T12:42:35Z</time>
      </trkpt>
      <trkpt lat="38.6724200" lon="1.5489020">
        <ele>150.1</ele>
        <time>2020-02-22T12:42:36Z</time>
      </trkpt>
      <trkpt lat="38.6724200" lon="1.5489020">
        <ele>153.1</ele>
        <time>2020-02-22T12:42:37Z</time>
      </trkpt>
      <trkpt lat="38.6723080" lon="1.5491030">
        <ele>153.1</ele>
        <time>2020-02-22T12:42:38Z</time>
      </trkpt>
      <trkpt lat="38.6722530" lon="1.5492030">
        <ele>152.1</ele>
        <time>2020-02-22T12:42:39Z</time>
      </trkpt>
      <trkpt lat="38.6722530" lon="1.5492030">
        <ele>152.1</ele>
        <time>2020-02-22T12:42:40Z</time>
      </trkpt>
      <trkpt lat="38.6721420" lon="1.5494100">
        <ele>154.1</ele>
        <time>2020-02-22T12:42:41Z</time>
      </trkpt>
      <trkpt lat="38.6720780" lon="1.5495180">
        <ele>154.1</ele>
        <time>2020-02-22T12:42:42Z</time>
      </trkpt>
      <trkpt lat="38.6720780" lon="1.5495180">
        <ele>151.1</ele>
        <time>2020-02-22T12:42:43Z</time>
      </trkpt>
      <trkpt lat="38.6719520" lon="1.5497350">
        <ele>151.1</ele>
        <time>2020-02-22T12:42:44Z</time>
      </trkpt>
      <trkpt lat="38.6718980" lon="1.5498320">
        <ele>151.1</ele>
        <time>2020-02-22T12:42:45Z</time>
      </trkpt>
      <trkpt lat="38.6718380" lon="1.5499300">
        <ele>151.1</ele>
        <time>2020-02-22T12:42:46Z</time>
      </trkpt>
      <trkpt lat="38.6718380" lon="1.5499300">
        <ele>151.1</ele>
        <time>2020-02-22T12:42:47Z</time>
      </trkpt>
      <trkpt lat="38.6717280" lon="1.5501280">
        <ele>151.1</ele>
        <time>2020-02-22T12:42:48Z</time>
      </trkpt>
      <trkpt lat="38.6716770" lon="1.5502220">
        <ele>151.1</ele>
        <time>2020-02-22T12:42:49Z</time>
      </trkpt>
      <trkpt lat="38.6716770" lon="1.5502220">
        <ele>151.1</ele>
        <time>2020-02-22T12:42:50Z</time>
      </trkpt>
      <trkpt lat="38.6715700" lon="1.5504220">
        <ele>151.1</ele>
        <time>2020-02-22T12:42:51Z</time>
      </trkpt>
      <trkpt lat="38.6715700" lon="1.5504220">
        <ele>151.1</ele>
        <time>2020-02-22T12:42:52Z</time>
      </trkpt>
      <trkpt lat="38.6714270" lon="1.5506270">
        <ele>151.1</ele>
        <time>2020-02-22T12:42:53Z</time>
      </trkpt>
      <trkpt lat="38.6714270" lon="1.5506270">
        <ele>151.1</ele>
        <time>2020-02-22T12:42:54Z</time>
      </trkpt>
      <trkpt lat="38.6713030" lon="1.5508830">
        <ele>151.1</ele>
        <time>2020-02-22T12:42:55Z</time>
      </trkpt>
      <trkpt lat="38.6712470" lon="1.5510050">
        <ele>149.1</ele>
        <time>2020-02-22T12:42:56Z</time>
      </trkpt>
      <trkpt lat="38.6712470" lon="1.5510050">
        <ele>149.1</ele>
        <time>2020-02-22T12:42:57Z</time>
      </trkpt>
      <trkpt lat="38.6711170" lon="1.5512470">
        <ele>150.1</ele>
        <time>2020-02-22T12:42:58Z</time>
      </trkpt>
      <trkpt lat="38.6710580" lon="1.5513600">
        <ele>150.1</ele>
        <time>2020-02-22T12:42:59Z</time>
      </trkpt>
      <trkpt lat="38.6710580" lon="1.5513600">
        <ele>151.1</ele>
        <time>2020-02-22T12:43:00Z</time>
      </trkpt>
      <trkpt lat="38.6709380" lon="1.5515850">
        <ele>151.1</ele>
        <time>2020-02-22T12:43:01Z</time>
      </trkpt>
      <trkpt lat="38.6709380" lon="1.5515850">
        <ele>152.1</ele>
        <time>2020-02-22T12:43:02Z</time>
      </trkpt>
      <trkpt lat="38.6708330" lon="1.5518170">
        <ele>152.1</ele>
        <time>2020-02-22T12:43:03Z</time>
      </trkpt>
      <trkpt lat="38.6707870" lon="1.5519250">
        <ele>150.1</ele>
        <time>2020-02-22T12:43:04Z</time>
      </trkpt>
      <trkpt lat="38.6707870" lon="1.5519250">
        <ele>150.1</ele>
        <time>2020-02-22T12:43:05Z</time>
      </trkpt>
      <trkpt lat="38.6706750" lon="1.5521530">
        <ele>147.1</ele>
        <time>2020-02-22T12:43:06Z</time>
      </trkpt>
      <trkpt lat="38.6706200" lon="1.5522620">
        <ele>149.1</ele>
        <time>2020-02-22T12:43:07Z</time>
      </trkpt>
      <trkpt lat="38.6706200" lon="1.5522620">
        <ele>149.1</ele>
        <time>2020-02-22T12:43:08Z</time>
      </trkpt>
      <trkpt lat="38.6705150" lon="1.5524980">
        <ele>149.1</ele>
        <time>2020-02-22T12:43:09Z</time>
      </trkpt>
      <trkpt lat="38.6705150" lon="1.5524980">
        <ele>149.1</ele>
        <time>2020-02-22T12:43:10Z</time>
      </trkpt>
      <trkpt lat="38.6704230" lon="1.5527300">
        <ele>145.1</ele>
        <time>2020-02-22T12:43:11Z</time>
      </trkpt>
      <trkpt lat="38.6704230" lon="1.5527300">
        <ele>145.1</ele>
        <time>2020-02-22T12:43:12Z</time>
      </trkpt>
      <trkpt lat="38.6703120" lon="1.5529700">
        <ele>144.1</ele>
        <time>2020-02-22T12:43:13Z</time>
      </trkpt>
      <trkpt lat="38.6703120" lon="1.5529700">
        <ele>144.1</ele>
        <time>2020-02-22T12:43:14Z</time>
      </trkpt>
      <trkpt lat="38.6702080" lon="1.5531930">
        <ele>143.1</ele>
        <time>2020-02-22T12:43:15Z</time>
      </trkpt>
      <trkpt lat="38.6702080" lon="1.5531930">
        <ele>143.1</ele>
        <time>2020-02-22T12:43:16Z</time>
      </trkpt>
      <trkpt lat="38.6701280" lon="1.5533720">
        <ele>143.1</ele>
        <time>2020-02-22T12:43:17Z</time>
      </trkpt>
      <trkpt lat="38.6701280" lon="1.5533720">
        <ele>143.1</ele>
        <time>2020-02-22T12:43:18Z</time>
      </trkpt>
      <trkpt lat="38.6700800" lon="1.5535120">
        <ele>143.1</ele>
        <time>2020-02-22T12:43:19Z</time>
      </trkpt>
      <trkpt lat="38.6700800" lon="1.5535120">
        <ele>143.1</ele>
        <time>2020-02-22T12:43:20Z</time>
      </trkpt>
      <trkpt lat="38.6700320" lon="1.5536120">
        <ele>143.1</ele>
        <time>2020-02-22T12:43:21Z</time>
      </trkpt>
      <trkpt lat="38.6700050" lon="1.5536320">
        <ele>143.1</ele>
        <time>2020-02-22T12:43:22Z</time>
      </trkpt>
      <trkpt lat="38.6700050" lon="1.5536320">
        <ele>142.1</ele>
        <time>2020-02-22T12:43:23Z</time>
      </trkpt>
      <trkpt lat="38.6700170" lon="1.5536830">
        <ele>142.1</ele>
        <time>2020-02-22T12:43:24Z</time>
      </trkpt>
      <trkpt lat="38.6700380" lon="1.5536880">
        <ele>142.1</ele>
        <time>2020-02-22T12:43:25Z</time>
      </trkpt>
      <trkpt lat="38.6700380" lon="1.5536880">
        <ele>142.1</ele>
        <time>2020-02-22T12:43:26Z</time>
      </trkpt>
      <trkpt lat="38.6700730" lon="1.5536370">
        <ele>142.1</ele>
        <time>2020-02-22T12:43:27Z</time>
      </trkpt>
      <trkpt lat="38.6700730" lon="1.5536370">
        <ele>142.1</ele>
        <time>2020-02-22T12:43:28Z</time>
      </trkpt>
      <trkpt lat="38.6701050" lon="1.5535620">
        <ele>142.1</ele>
        <time>2020-02-22T12:43:29Z</time>
      </trkpt>
      <trkpt lat="38.6701220" lon="1.5535180">
        <ele>142.1</ele>
        <time>2020-02-22T12:43:30Z</time>
      </trkpt>
      <trkpt lat="38.6701420" lon="1.5534730">
        <ele>142.1</ele>
        <time>2020-02-22T12:43:31Z</time>
      </trkpt>
      <trkpt lat="38.6701420" lon="1.5534730">
        <ele>142.1</ele>
        <time>2020-02-22T12:43:32Z</time>
      </trkpt>
      <trkpt lat="38.6701820" lon="1.5533730">
        <ele>142.1</ele>
        <time>2020-02-22T12:43:33Z</time>
      </trkpt>
      <trkpt lat="38.6701820" lon="1.5533730">
        <ele>142.1</ele>
        <time>2020-02-22T12:43:34Z</time>
      </trkpt>
      <trkpt lat="38.6702330" lon="1.5532700">
        <ele>142.1</ele>
        <time>2020-02-22T12:43:35Z</time>
      </trkpt>
      <trkpt lat="38.6702580" lon="1.5532170">
        <ele>142.1</ele>
        <time>2020-02-22T12:43:36Z</time>
      </trkpt>
      <trkpt lat="38.6702580" lon="1.5532170">
        <ele>142.1</ele>
        <time>2020-02-22T12:43:37Z</time>
      </trkpt>
      <trkpt lat="38.6703070" lon="1.5531120">
        <ele>142.1</ele>
        <time>2020-02-22T12:43:38Z</time>
      </trkpt>
      <trkpt lat="38.6703070" lon="1.5531120">
        <ele>142.1</ele>
        <time>2020-02-22T12:43:39Z</time>
      </trkpt>
      <trkpt lat="38.6703520" lon="1.5530100">
        <ele>142.1</ele>
        <time>2020-02-22T12:43:40Z</time>
      </trkpt>
      <trkpt lat="38.6703520" lon="1.5530100">
        <ele>142.1</ele>
        <time>2020-02-22T12:43:41Z</time>
      </trkpt>
      <trkpt lat="38.6703920" lon="1.5529000">
        <ele>142.1</ele>
        <time>2020-02-22T12:43:42Z</time>
      </trkpt>
      <trkpt lat="38.6703920" lon="1.5529000">
        <ele>142.1</ele>
        <time>2020-02-22T12:43:43Z</time>
      </trkpt>
      <trkpt lat="38.6704370" lon="1.5527920">
        <ele>142.1</ele>
        <time>2020-02-22T12:43:44Z</time>
      </trkpt>
      <trkpt lat="38.6704620" lon="1.5527450">
        <ele>143.1</ele>
        <time>2020-02-22T12:43:45Z</time>
      </trkpt>
      <trkpt lat="38.6704620" lon="1.5527450">
        <ele>143.1</ele>
        <time>2020-02-22T12:43:46Z</time>
      </trkpt>
      <trkpt lat="38.6705130" lon="1.5526350">
        <ele>143.1</ele>
        <time>2020-02-22T12:43:47Z</time>
      </trkpt>
      <trkpt lat="38.6705130" lon="1.5526350">
        <ele>143.1</ele>
        <time>2020-02-22T12:43:48Z</time>
      </trkpt>
      <trkpt lat="38.6705580" lon="1.5525220">
        <ele>144.1</ele>
        <time>2020-02-22T12:43:49Z</time>
      </trkpt>
      <trkpt lat="38.6705830" lon="1.5524670">
        <ele>144.1</ele>
        <time>2020-02-22T12:43:50Z</time>
      </trkpt>
      <trkpt lat="38.6706130" lon="1.5524120">
        <ele>144.1</ele>
        <time>2020-02-22T12:43:51Z</time>
      </trkpt>
      <trkpt lat="38.6706130" lon="1.5524120">
        <ele>144.1</ele>
        <time>2020-02-22T12:43:52Z</time>
      </trkpt>
      <trkpt lat="38.6706750" lon="1.5523020">
        <ele>144.1</ele>
        <time>2020-02-22T12:43:53Z</time>
      </trkpt>
      <trkpt lat="38.6706750" lon="1.5523020">
        <ele>144.1</ele>
        <time>2020-02-22T12:43:54Z</time>
      </trkpt>
      <trkpt lat="38.6707380" lon="1.5521780">
        <ele>145.1</ele>
        <time>2020-02-22T12:43:55Z</time>
      </trkpt>
      <trkpt lat="38.6707380" lon="1.5521780">
        <ele>145.1</ele>
        <time>2020-02-22T12:43:56Z</time>
      </trkpt>
      <trkpt lat="38.6708030" lon="1.5520650">
        <ele>145.1</ele>
        <time>2020-02-22T12:43:57Z</time>
      </trkpt>
      <trkpt lat="38.6708030" lon="1.5520650">
        <ele>145.1</ele>
        <time>2020-02-22T12:43:58Z</time>
      </trkpt>
      <trkpt lat="38.6708530" lon="1.5519480">
        <ele>145.1</ele>
        <time>2020-02-22T12:43:59Z</time>
      </trkpt>
      <trkpt lat="38.6708530" lon="1.5519480">
        <ele>145.1</ele>
        <time>2020-02-22T12:44:00Z</time>
      </trkpt>
      <trkpt lat="38.6709070" lon="1.5518230">
        <ele>145.1</ele>
        <time>2020-02-22T12:44:01Z</time>
      </trkpt>
      <trkpt lat="38.6709070" lon="1.5518230">
        <ele>145.1</ele>
        <time>2020-02-22T12:44:02Z</time>
      </trkpt>
      <trkpt lat="38.6709670" lon="1.5517030">
        <ele>145.1</ele>
        <time>2020-02-22T12:44:03Z</time>
      </trkpt>
      <trkpt lat="38.6709670" lon="1.5517030">
        <ele>146.1</ele>
        <time>2020-02-22T12:44:04Z</time>
      </trkpt>
      <trkpt lat="38.6710320" lon="1.5515870">
        <ele>146.1</ele>
        <time>2020-02-22T12:44:05Z</time>
      </trkpt>
      <trkpt lat="38.6710580" lon="1.5515270">
        <ele>146.1</ele>
        <time>2020-02-22T12:44:06Z</time>
      </trkpt>
      <trkpt lat="38.6710580" lon="1.5515270">
        <ele>146.1</ele>
        <time>2020-02-22T12:44:07Z</time>
      </trkpt>
      <trkpt lat="38.6711150" lon="1.5513970">
        <ele>146.1</ele>
        <time>2020-02-22T12:44:08Z</time>
      </trkpt>
      <trkpt lat="38.6711420" lon="1.5513350">
        <ele>146.1</ele>
        <time>2020-02-22T12:44:09Z</time>
      </trkpt>
      <trkpt lat="38.6711420" lon="1.5513350">
        <ele>147.1</ele>
        <time>2020-02-22T12:44:10Z</time>
      </trkpt>
      <trkpt lat="38.6711980" lon="1.5512120">
        <ele>147.1</ele>
        <time>2020-02-22T12:44:11Z</time>
      </trkpt>
      <trkpt lat="38.6712250" lon="1.5511530">
        <ele>147.1</ele>
        <time>2020-02-22T12:44:12Z</time>
      </trkpt>
      <trkpt lat="38.6712250" lon="1.5511530">
        <ele>147.1</ele>
        <time>2020-02-22T12:44:13Z</time>
      </trkpt>
      <trkpt lat="38.6712870" lon="1.5510380">
        <ele>147.1</ele>
        <time>2020-02-22T12:44:14Z</time>
      </trkpt>
      <trkpt lat="38.6713180" lon="1.5509820">
        <ele>147.1</ele>
        <time>2020-02-22T12:44:15Z</time>
      </trkpt>
      <trkpt lat="38.6713520" lon="1.5509230">
        <ele>147.1</ele>
        <time>2020-02-22T12:44:16Z</time>
      </trkpt>
      <trkpt lat="38.6713520" lon="1.5509230">
        <ele>147.1</ele>
        <time>2020-02-22T12:44:17Z</time>
      </trkpt>
      <trkpt lat="38.6714180" lon="1.5508070">
        <ele>147.1</ele>
        <time>2020-02-22T12:44:18Z</time>
      </trkpt>
      <trkpt lat="38.6714550" lon="1.5507500">
        <ele>147.1</ele>
        <time>2020-02-22T12:44:19Z</time>
      </trkpt>
      <trkpt lat="38.6714550" lon="1.5507500">
        <ele>147.1</ele>
        <time>2020-02-22T12:44:20Z</time>
      </trkpt>
      <trkpt lat="38.6715170" lon="1.5506370">
        <ele>147.1</ele>
        <time>2020-02-22T12:44:21Z</time>
      </trkpt>
      <trkpt lat="38.6715170" lon="1.5506370">
        <ele>147.1</ele>
        <time>2020-02-22T12:44:22Z</time>
      </trkpt>
      <trkpt lat="38.6715730" lon="1.5505370">
        <ele>147.1</ele>
        <time>2020-02-22T12:44:23Z</time>
      </trkpt>
      <trkpt lat="38.6715730" lon="1.5505370">
        <ele>147.1</ele>
        <time>2020-02-22T12:44:24Z</time>
      </trkpt>
      <trkpt lat="38.6716270" lon="1.5504330">
        <ele>147.1</ele>
        <time>2020-02-22T12:44:25Z</time>
      </trkpt>
      <trkpt lat="38.6716270" lon="1.5504330">
        <ele>147.1</ele>
        <time>2020-02-22T12:44:26Z</time>
      </trkpt>
      <trkpt lat="38.6716870" lon="1.5503220">
        <ele>147.1</ele>
        <time>2020-02-22T12:44:27Z</time>
      </trkpt>
      <trkpt lat="38.6716870" lon="1.5503220">
        <ele>147.1</ele>
        <time>2020-02-22T12:44:28Z</time>
      </trkpt>
      <trkpt lat="38.6717480" lon="1.5502030">
        <ele>148.1</ele>
        <time>2020-02-22T12:44:29Z</time>
      </trkpt>
      <trkpt lat="38.6717780" lon="1.5501520">
        <ele>148.1</ele>
        <time>2020-02-22T12:44:30Z</time>
      </trkpt>
      <trkpt lat="38.6717780" lon="1.5501520">
        <ele>148.1</ele>
        <time>2020-02-22T12:44:31Z</time>
      </trkpt>
      <trkpt lat="38.6718270" lon="1.5500500">
        <ele>148.1</ele>
        <time>2020-02-22T12:44:32Z</time>
      </trkpt>
      <trkpt lat="38.6718570" lon="1.5499970">
        <ele>148.1</ele>
        <time>2020-02-22T12:44:33Z</time>
      </trkpt>
      <trkpt lat="38.6718570" lon="1.5499970">
        <ele>148.1</ele>
        <time>2020-02-22T12:44:34Z</time>
      </trkpt>
      <trkpt lat="38.6719250" lon="1.5498880">
        <ele>148.1</ele>
        <time>2020-02-22T12:44:35Z</time>
      </trkpt>
      <trkpt lat="38.6719530" lon="1.5498350">
        <ele>148.1</ele>
        <time>2020-02-22T12:44:36Z</time>
      </trkpt>
      <trkpt lat="38.6719530" lon="1.5498350">
        <ele>149.1</ele>
        <time>2020-02-22T12:44:37Z</time>
      </trkpt>
      <trkpt lat="38.6720270" lon="1.5497050">
        <ele>149.1</ele>
        <time>2020-02-22T12:44:38Z</time>
      </trkpt>
      <trkpt lat="38.6720620" lon="1.5496470">
        <ele>149.1</ele>
        <time>2020-02-22T12:44:39Z</time>
      </trkpt>
      <trkpt lat="38.6720620" lon="1.5496470">
        <ele>149.1</ele>
        <time>2020-02-22T12:44:40Z</time>
      </trkpt>
      <trkpt lat="38.6721350" lon="1.5495230">
        <ele>149.1</ele>
        <time>2020-02-22T12:44:41Z</time>
      </trkpt>
      <trkpt lat="38.6721670" lon="1.5494680">
        <ele>149.1</ele>
        <time>2020-02-22T12:44:42Z</time>
      </trkpt>
      <trkpt lat="38.6721670" lon="1.5494680">
        <ele>149.1</ele>
        <time>2020-02-22T12:44:43Z</time>
      </trkpt>
      <trkpt lat="38.6722180" lon="1.5493650">
        <ele>150.1</ele>
        <time>2020-02-22T12:44:44Z</time>
      </trkpt>
      <trkpt lat="38.6722480" lon="1.5493100">
        <ele>150.1</ele>
        <time>2020-02-22T12:44:45Z</time>
      </trkpt>
      <trkpt lat="38.6722480" lon="1.5493100">
        <ele>150.1</ele>
        <time>2020-02-22T12:44:46Z</time>
      </trkpt>
      <trkpt lat="38.6723130" lon="1.5491870">
        <ele>150.1</ele>
        <time>2020-02-22T12:44:47Z</time>
      </trkpt>
      <trkpt lat="38.6723480" lon="1.5491230">
        <ele>150.1</ele>
        <time>2020-02-22T12:44:48Z</time>
      </trkpt>
      <trkpt lat="38.6723480" lon="1.5491230">
        <ele>150.1</ele>
        <time>2020-02-22T12:44:49Z</time>
      </trkpt>
      <trkpt lat="38.6724200" lon="1.5490020">
        <ele>151.1</ele>
        <time>2020-02-22T12:44:50Z</time>
      </trkpt>
      <trkpt lat="38.6724630" lon="1.5489330">
        <ele>151.1</ele>
        <time>2020-02-22T12:44:51Z</time>
      </trkpt>
      <trkpt lat="38.6725020" lon="1.5488670">
        <ele>151.1</ele>
        <time>2020-02-22T12:44:52Z</time>
      </trkpt>
      <trkpt lat="38.6725020" lon="1.5488670">
        <ele>151.1</ele>
        <time>2020-02-22T12:44:53Z</time>
      </trkpt>
      <trkpt lat="38.6725650" lon="1.5487520">
        <ele>151.1</ele>
        <time>2020-02-22T12:44:54Z</time>
      </trkpt>
      <trkpt lat="38.6725920" lon="1.5486870">
        <ele>151.1</ele>
        <time>2020-02-22T12:44:55Z</time>
      </trkpt>
      <trkpt lat="38.6725920" lon="1.5486870">
        <ele>151.1</ele>
        <time>2020-02-22T12:44:56Z</time>
      </trkpt>
      <trkpt lat="38.6726570" lon="1.5485680">
        <ele>151.1</ele>
        <time>2020-02-22T12:44:57Z</time>
      </trkpt>
      <trkpt lat="38.6726570" lon="1.5485680">
        <ele>151.1</ele>
        <time>2020-02-22T12:44:58Z</time>
      </trkpt>
      <trkpt lat="38.6727180" lon="1.5484500">
        <ele>151.1</ele>
        <time>2020-02-22T12:44:59Z</time>
      </trkpt>
      <trkpt lat="38.6727470" lon="1.5483870">
        <ele>151.1</ele>
        <time>2020-02-22T12:45:00Z</time>
      </trkpt>
      <trkpt lat="38.6727470" lon="1.5483870">
        <ele>151.1</ele>
        <time>2020-02-22T12:45:01Z</time>
      </trkpt>
      <trkpt lat="38.6727800" lon="1.5482670">
        <ele>151.1</ele>
        <time>2020-02-22T12:45:02Z</time>
      </trkpt>
      <trkpt lat="38.6727920" lon="1.5482080">
        <ele>152.1</ele>
        <time>2020-02-22T12:45:03Z</time>
      </trkpt>
      <trkpt lat="38.6727920" lon="1.5482080">
        <ele>152.1</ele>
        <time>2020-02-22T12:45:04Z</time>
      </trkpt>
      <trkpt lat="38.6728150" lon="1.5480820">
        <ele>152.1</ele>
        <time>2020-02-22T12:45:05Z</time>
      </trkpt>
      <trkpt lat="38.6728150" lon="1.5480820">
        <ele>152.1</ele>
        <time>2020-02-22T12:45:06Z</time>
      </trkpt>
      <trkpt lat="38.6728280" lon="1.5479480">
        <ele>152.1</ele>
        <time>2020-02-22T12:45:07Z</time>
      </trkpt>
      <trkpt lat="38.6728370" lon="1.5478820">
        <ele>152.1</ele>
        <time>2020-02-22T12:45:08Z</time>
      </trkpt>
      <trkpt lat="38.6728380" lon="1.5478170">
        <ele>152.1</ele>
        <time>2020-02-22T12:45:09Z</time>
      </trkpt>
      <trkpt lat="38.6728430" lon="1.5477480">
        <ele>152.1</ele>
        <time>2020-02-22T12:45:10Z</time>
      </trkpt>
      <trkpt lat="38.6728430" lon="1.5477480">
        <ele>152.1</ele>
        <time>2020-02-22T12:45:11Z</time>
      </trkpt>
      <trkpt lat="38.6728570" lon="1.5476080">
        <ele>152.1</ele>
        <time>2020-02-22T12:45:12Z</time>
      </trkpt>
      <trkpt lat="38.6728570" lon="1.5476080">
        <ele>152.1</ele>
        <time>2020-02-22T12:45:13Z</time>
      </trkpt>
      <trkpt lat="38.6728720" lon="1.5474750">
        <ele>152.1</ele>
        <time>2020-02-22T12:45:14Z</time>
      </trkpt>
      <trkpt lat="38.6728780" lon="1.5474070">
        <ele>153.1</ele>
        <time>2020-02-22T12:45:15Z</time>
      </trkpt>
      <trkpt lat="38.6728780" lon="1.5474070">
        <ele>153.1</ele>
        <time>2020-02-22T12:45:16Z</time>
      </trkpt>
      <trkpt lat="38.6728970" lon="1.5472700">
        <ele>153.1</ele>
        <time>2020-02-22T12:45:17Z</time>
      </trkpt>
      <trkpt lat="38.6728970" lon="1.5472700">
        <ele>153.1</ele>
        <time>2020-02-22T12:45:18Z</time>
      </trkpt>
      <trkpt lat="38.6729170" lon="1.5471380">
        <ele>153.1</ele>
        <time>2020-02-22T12:45:19Z</time>
      </trkpt>
      <trkpt lat="38.6729170" lon="1.5471380">
        <ele>153.1</ele>
        <time>2020-02-22T12:45:20Z</time>
      </trkpt>
      <trkpt lat="38.6729250" lon="1.5470100">
        <ele>153.1</ele>
        <time>2020-02-22T12:45:21Z</time>
      </trkpt>
      <trkpt lat="38.6729250" lon="1.5470100">
        <ele>153.1</ele>
        <time>2020-02-22T12:45:22Z</time>
      </trkpt>
      <trkpt lat="38.6729300" lon="1.5468880">
        <ele>153.1</ele>
        <time>2020-02-22T12:45:23Z</time>
      </trkpt>
      <trkpt lat="38.6729300" lon="1.5468880">
        <ele>154.1</ele>
        <time>2020-02-22T12:45:24Z</time>
      </trkpt>
      <trkpt lat="38.6729520" lon="1.5467480">
        <ele>154.1</ele>
        <time>2020-02-22T12:45:25Z</time>
      </trkpt>
      <trkpt lat="38.6729520" lon="1.5467480">
        <ele>154.1</ele>
        <time>2020-02-22T12:45:26Z</time>
      </trkpt>
      <trkpt lat="38.6729680" lon="1.5466150">
        <ele>154.1</ele>
        <time>2020-02-22T12:45:27Z</time>
      </trkpt>
      <trkpt lat="38.6729750" lon="1.5465520">
        <ele>154.1</ele>
        <time>2020-02-22T12:45:28Z</time>
      </trkpt>
      <trkpt lat="38.6729750" lon="1.5465520">
        <ele>154.1</ele>
        <time>2020-02-22T12:45:29Z</time>
      </trkpt>
      <trkpt lat="38.6729750" lon="1.5464550">
        <ele>154.1</ele>
        <time>2020-02-22T12:45:30Z</time>
      </trkpt>
      <trkpt lat="38.6729750" lon="1.5464550">
        <ele>154.1</ele>
        <time>2020-02-22T12:45:31Z</time>
      </trkpt>
      <trkpt lat="38.6729520" lon="1.5464600">
        <ele>154.1</ele>
        <time>2020-02-22T12:45:32Z</time>
      </trkpt>
      <trkpt lat="38.6729480" lon="1.5464870">
        <ele>154.1</ele>
        <time>2020-02-22T12:45:33Z</time>
      </trkpt>
      <trkpt lat="38.6729480" lon="1.5464870">
        <ele>154.1</ele>
        <time>2020-02-22T12:45:34Z</time>
      </trkpt>
      <trkpt lat="38.6729470" lon="1.5465820">
        <ele>154.1</ele>
        <time>2020-02-22T12:45:35Z</time>
      </trkpt>
      <trkpt lat="38.6729450" lon="1.5466530">
        <ele>154.1</ele>
        <time>2020-02-22T12:45:36Z</time>
      </trkpt>
      <trkpt lat="38.6729450" lon="1.5466530">
        <ele>154.1</ele>
        <time>2020-02-22T12:45:37Z</time>
      </trkpt>
      <trkpt lat="38.6729320" lon="1.5468350">
        <ele>154.1</ele>
        <time>2020-02-22T12:45:38Z</time>
      </trkpt>
      <trkpt lat="38.6729250" lon="1.5469220">
        <ele>154.1</ele>
        <time>2020-02-22T12:45:39Z</time>
      </trkpt>
      <trkpt lat="38.6729250" lon="1.5469220">
        <ele>154.1</ele>
        <time>2020-02-22T12:45:40Z</time>
      </trkpt>
      <trkpt lat="38.6729130" lon="1.5470900">
        <ele>153.1</ele>
        <time>2020-02-22T12:45:41Z</time>
      </trkpt>
      <trkpt lat="38.6729080" lon="1.5471830">
        <ele>153.1</ele>
        <time>2020-02-22T12:45:42Z</time>
      </trkpt>
      <trkpt lat="38.6729080" lon="1.5471830">
        <ele>153.1</ele>
        <time>2020-02-22T12:45:43Z</time>
      </trkpt>
      <trkpt lat="38.6728820" lon="1.5473770">
        <ele>153.1</ele>
        <time>2020-02-22T12:45:44Z</time>
      </trkpt>
      <trkpt lat="38.6728770" lon="1.5474750">
        <ele>153.1</ele>
        <time>2020-02-22T12:45:45Z</time>
      </trkpt>
      <trkpt lat="38.6728680" lon="1.5475800">
        <ele>153.1</ele>
        <time>2020-02-22T12:45:46Z</time>
      </trkpt>
      <trkpt lat="38.6728680" lon="1.5475800">
        <ele>155.1</ele>
        <time>2020-02-22T12:45:47Z</time>
      </trkpt>
      <trkpt lat="38.6728550" lon="1.5477880">
        <ele>155.1</ele>
        <time>2020-02-22T12:45:48Z</time>
      </trkpt>
      <trkpt lat="38.6728550" lon="1.5477880">
        <ele>155.1</ele>
        <time>2020-02-22T12:45:49Z</time>
      </trkpt>
      <trkpt lat="38.6728320" lon="1.5480050">
        <ele>155.1</ele>
        <time>2020-02-22T12:45:50Z</time>
      </trkpt>
      <trkpt lat="38.6728080" lon="1.5481080">
        <ele>153.1</ele>
        <time>2020-02-22T12:45:51Z</time>
      </trkpt>
      <trkpt lat="38.6728080" lon="1.5481080">
        <ele>153.1</ele>
        <time>2020-02-22T12:45:52Z</time>
      </trkpt>
      <trkpt lat="38.6727420" lon="1.5483050">
        <ele>153.1</ele>
        <time>2020-02-22T12:45:53Z</time>
      </trkpt>
      <trkpt lat="38.6727000" lon="1.5483950">
        <ele>152.1</ele>
        <time>2020-02-22T12:45:54Z</time>
      </trkpt>
      <trkpt lat="38.6727000" lon="1.5483950">
        <ele>152.1</ele>
        <time>2020-02-22T12:45:55Z</time>
      </trkpt>
      <trkpt lat="38.6725870" lon="1.5485820">
        <ele>152.1</ele>
        <time>2020-02-22T12:45:56Z</time>
      </trkpt>
      <trkpt lat="38.6725350" lon="1.5486670">
        <ele>152.1</ele>
        <time>2020-02-22T12:45:57Z</time>
      </trkpt>
      <trkpt lat="38.6725350" lon="1.5486670">
        <ele>154.1</ele>
        <time>2020-02-22T12:45:58Z</time>
      </trkpt>
      <trkpt lat="38.6724520" lon="1.5488570">
        <ele>154.1</ele>
        <time>2020-02-22T12:45:59Z</time>
      </trkpt>
      <trkpt lat="38.6724520" lon="1.5488570">
        <ele>153.1</ele>
        <time>2020-02-22T12:46:00Z</time>
      </trkpt>
      <trkpt lat="38.6723570" lon="1.5490380">
        <ele>153.1</ele>
        <time>2020-02-22T12:46:01Z</time>
      </trkpt>
      <trkpt lat="38.6723570" lon="1.5490380">
        <ele>152.1</ele>
        <time>2020-02-22T12:46:02Z</time>
      </trkpt>
      <trkpt lat="38.6722550" lon="1.5492330">
        <ele>152.1</ele>
        <time>2020-02-22T12:46:03Z</time>
      </trkpt>
      <trkpt lat="38.6722550" lon="1.5492330">
        <ele>152.1</ele>
        <time>2020-02-22T12:46:04Z</time>
      </trkpt>
      <trkpt lat="38.6721430" lon="1.5494400">
        <ele>152.1</ele>
        <time>2020-02-22T12:46:05Z</time>
      </trkpt>
      <trkpt lat="38.6721430" lon="1.5494400">
        <ele>151.1</ele>
        <time>2020-02-22T12:46:06Z</time>
      </trkpt>
      <trkpt lat="38.6720380" lon="1.5496580">
        <ele>151.1</ele>
        <time>2020-02-22T12:46:07Z</time>
      </trkpt>
      <trkpt lat="38.6720380" lon="1.5496580">
        <ele>151.1</ele>
        <time>2020-02-22T12:46:08Z</time>
      </trkpt>
      <trkpt lat="38.6719420" lon="1.5498530">
        <ele>151.1</ele>
        <time>2020-02-22T12:46:09Z</time>
      </trkpt>
      <trkpt lat="38.6719420" lon="1.5498530">
        <ele>150.1</ele>
        <time>2020-02-22T12:46:10Z</time>
      </trkpt>
      <trkpt lat="38.6718550" lon="1.5500350">
        <ele>150.1</ele>
        <time>2020-02-22T12:46:11Z</time>
      </trkpt>
      <trkpt lat="38.6718550" lon="1.5500350">
        <ele>150.1</ele>
        <time>2020-02-22T12:46:12Z</time>
      </trkpt>
      <trkpt lat="38.6717670" lon="1.5502070">
        <ele>149.1</ele>
        <time>2020-02-22T12:46:13Z</time>
      </trkpt>
      <trkpt lat="38.6717670" lon="1.5502070">
        <ele>149.1</ele>
        <time>2020-02-22T12:46:14Z</time>
      </trkpt>
      <trkpt lat="38.6716570" lon="1.5504030">
        <ele>148.1</ele>
        <time>2020-02-22T12:46:15Z</time>
      </trkpt>
      <trkpt lat="38.6716570" lon="1.5504030">
        <ele>148.1</ele>
        <time>2020-02-22T12:46:16Z</time>
      </trkpt>
      <trkpt lat="38.6715520" lon="1.5505900">
        <ele>148.1</ele>
        <time>2020-02-22T12:46:17Z</time>
      </trkpt>
      <trkpt lat="38.6715520" lon="1.5505900">
        <ele>148.1</ele>
        <time>2020-02-22T12:46:18Z</time>
      </trkpt>
      <trkpt lat="38.6714370" lon="1.5507930">
        <ele>148.1</ele>
        <time>2020-02-22T12:46:19Z</time>
      </trkpt>
      <trkpt lat="38.6713830" lon="1.5508950">
        <ele>147.1</ele>
        <time>2020-02-22T12:46:20Z</time>
      </trkpt>
      <trkpt lat="38.6713830" lon="1.5508950">
        <ele>147.1</ele>
        <time>2020-02-22T12:46:21Z</time>
      </trkpt>
      <trkpt lat="38.6712700" lon="1.5510900">
        <ele>147.1</ele>
        <time>2020-02-22T12:46:22Z</time>
      </trkpt>
      <trkpt lat="38.6712700" lon="1.5510900">
        <ele>147.1</ele>
        <time>2020-02-22T12:46:23Z</time>
      </trkpt>
      <trkpt lat="38.6711520" lon="1.5513000">
        <ele>146.1</ele>
        <time>2020-02-22T12:46:24Z</time>
      </trkpt>
      <trkpt lat="38.6710950" lon="1.5514020">
        <ele>146.1</ele>
        <time>2020-02-22T12:46:25Z</time>
      </trkpt>
      <trkpt lat="38.6710950" lon="1.5514020">
        <ele>146.1</ele>
        <time>2020-02-22T12:46:26Z</time>
      </trkpt>
      <trkpt lat="38.6709950" lon="1.5516000">
        <ele>146.1</ele>
        <time>2020-02-22T12:46:27Z</time>
      </trkpt>
      <trkpt lat="38.6709950" lon="1.5516000">
        <ele>145.1</ele>
        <time>2020-02-22T12:46:28Z</time>
      </trkpt>
      <trkpt lat="38.6708950" lon="1.5518050">
        <ele>145.1</ele>
        <time>2020-02-22T12:46:29Z</time>
      </trkpt>
      <trkpt lat="38.6708450" lon="1.5519080">
        <ele>145.1</ele>
        <time>2020-02-22T12:46:30Z</time>
      </trkpt>
      <trkpt lat="38.6708450" lon="1.5519080">
        <ele>145.1</ele>
        <time>2020-02-22T12:46:31Z</time>
      </trkpt>
      <trkpt lat="38.6707430" lon="1.5521220">
        <ele>145.1</ele>
        <time>2020-02-22T12:46:32Z</time>
      </trkpt>
      <trkpt lat="38.6706950" lon="1.5522220">
        <ele>145.1</ele>
        <time>2020-02-22T12:46:33Z</time>
      </trkpt>
      <trkpt lat="38.6706950" lon="1.5522220">
        <ele>145.1</ele>
        <time>2020-02-22T12:46:34Z</time>
      </trkpt>
      <trkpt lat="38.6706030" lon="1.5524150">
        <ele>145.1</ele>
        <time>2020-02-22T12:46:35Z</time>
      </trkpt>
      <trkpt lat="38.6706030" lon="1.5524150">
        <ele>145.1</ele>
        <time>2020-02-22T12:46:36Z</time>
      </trkpt>
      <trkpt lat="38.6705020" lon="1.5526180">
        <ele>145.1</ele>
        <time>2020-02-22T12:46:37Z</time>
      </trkpt>
      <trkpt lat="38.6705020" lon="1.5526180">
        <ele>145.1</ele>
        <time>2020-02-22T12:46:38Z</time>
      </trkpt>
      <trkpt lat="38.6704020" lon="1.5528370">
        <ele>145.1</ele>
        <time>2020-02-22T12:46:39Z</time>
      </trkpt>
      <trkpt lat="38.6703580" lon="1.5529430">
        <ele>145.1</ele>
        <time>2020-02-22T12:46:40Z</time>
      </trkpt>
      <trkpt lat="38.6703580" lon="1.5529430">
        <ele>144.1</ele>
        <time>2020-02-22T12:46:41Z</time>
      </trkpt>
      <trkpt lat="38.6702630" lon="1.5531670">
        <ele>144.1</ele>
        <time>2020-02-22T12:46:42Z</time>
      </trkpt>
      <trkpt lat="38.6702120" lon="1.5532780">
        <ele>143.1</ele>
        <time>2020-02-22T12:46:43Z</time>
      </trkpt>
      <trkpt lat="38.6702120" lon="1.5532780">
        <ele>143.1</ele>
        <time>2020-02-22T12:46:44Z</time>
      </trkpt>
      <trkpt lat="38.6701080" lon="1.5535050">
        <ele>143.1</ele>
        <time>2020-02-22T12:46:45Z</time>
      </trkpt>
      <trkpt lat="38.6701080" lon="1.5535050">
        <ele>143.1</ele>
        <time>2020-02-22T12:46:46Z</time>
      </trkpt>
      <trkpt lat="38.6700130" lon="1.5537180">
        <ele>142.1</ele>
        <time>2020-02-22T12:46:47Z</time>
      </trkpt>
      <trkpt lat="38.6700130" lon="1.5537180">
        <ele>142.1</ele>
        <time>2020-02-22T12:46:48Z</time>
      </trkpt>
      <trkpt lat="38.6699150" lon="1.5539230">
        <ele>142.1</ele>
        <time>2020-02-22T12:46:49Z</time>
      </trkpt>
      <trkpt lat="38.6698670" lon="1.5540300">
        <ele>142.1</ele>
        <time>2020-02-22T12:46:50Z</time>
      </trkpt>
      <trkpt lat="38.6698670" lon="1.5540300">
        <ele>142.1</ele>
        <time>2020-02-22T12:46:51Z</time>
      </trkpt>
      <trkpt lat="38.6697650" lon="1.5542400">
        <ele>142.1</ele>
        <time>2020-02-22T12:46:52Z</time>
      </trkpt>
      <trkpt lat="38.6697650" lon="1.5542400">
        <ele>142.1</ele>
        <time>2020-02-22T12:46:53Z</time>
      </trkpt>
      <trkpt lat="38.6696720" lon="1.5544550">
        <ele>140.1</ele>
        <time>2020-02-22T12:46:54Z</time>
      </trkpt>
      <trkpt lat="38.6696720" lon="1.5544550">
        <ele>140.1</ele>
        <time>2020-02-22T12:46:55Z</time>
      </trkpt>
      <trkpt lat="38.6695700" lon="1.5546680">
        <ele>140.1</ele>
        <time>2020-02-22T12:46:56Z</time>
      </trkpt>
      <trkpt lat="38.6695700" lon="1.5546680">
        <ele>140.1</ele>
        <time>2020-02-22T12:46:57Z</time>
      </trkpt>
      <trkpt lat="38.6694700" lon="1.5548780">
        <ele>140.1</ele>
        <time>2020-02-22T12:46:58Z</time>
      </trkpt>
      <trkpt lat="38.6694700" lon="1.5548780">
        <ele>140.1</ele>
        <time>2020-02-22T12:46:59Z</time>
      </trkpt>
      <trkpt lat="38.6693750" lon="1.5550900">
        <ele>140.1</ele>
        <time>2020-02-22T12:47:00Z</time>
      </trkpt>
      <trkpt lat="38.6693270" lon="1.5552000">
        <ele>140.1</ele>
        <time>2020-02-22T12:47:01Z</time>
      </trkpt>
      <trkpt lat="38.6692770" lon="1.5553080">
        <ele>140.1</ele>
        <time>2020-02-22T12:47:02Z</time>
      </trkpt>
      <trkpt lat="38.6692250" lon="1.5554100">
        <ele>140.1</ele>
        <time>2020-02-22T12:47:03Z</time>
      </trkpt>
      <trkpt lat="38.6692250" lon="1.5554100">
        <ele>140.1</ele>
        <time>2020-02-22T12:47:04Z</time>
      </trkpt>
      <trkpt lat="38.6691250" lon="1.5555970">
        <ele>140.1</ele>
        <time>2020-02-22T12:47:05Z</time>
      </trkpt>
      <trkpt lat="38.6691250" lon="1.5555970">
        <ele>140.1</ele>
        <time>2020-02-22T12:47:06Z</time>
      </trkpt>
      <trkpt lat="38.6690300" lon="1.5557680">
        <ele>140.1</ele>
        <time>2020-02-22T12:47:07Z</time>
      </trkpt>
      <trkpt lat="38.6689820" lon="1.5558470">
        <ele>140.1</ele>
        <time>2020-02-22T12:47:08Z</time>
      </trkpt>
      <trkpt lat="38.6689380" lon="1.5559230">
        <ele>140.1</ele>
        <time>2020-02-22T12:47:09Z</time>
      </trkpt>
      <trkpt lat="38.6689380" lon="1.5559230">
        <ele>140.1</ele>
        <time>2020-02-22T12:47:10Z</time>
      </trkpt>
      <trkpt lat="38.6688520" lon="1.5560680">
        <ele>140.1</ele>
        <time>2020-02-22T12:47:11Z</time>
      </trkpt>
      <trkpt lat="38.6688520" lon="1.5560680">
        <ele>141.1</ele>
        <time>2020-02-22T12:47:12Z</time>
      </trkpt>
      <trkpt lat="38.6687700" lon="1.5562000">
        <ele>141.1</ele>
        <time>2020-02-22T12:47:13Z</time>
      </trkpt>
      <trkpt lat="38.6687700" lon="1.5562000">
        <ele>141.1</ele>
        <time>2020-02-22T12:47:14Z</time>
      </trkpt>
      <trkpt lat="38.6687000" lon="1.5563150">
        <ele>141.1</ele>
        <time>2020-02-22T12:47:15Z</time>
      </trkpt>
      <trkpt lat="38.6686680" lon="1.5563650">
        <ele>141.1</ele>
        <time>2020-02-22T12:47:16Z</time>
      </trkpt>
      <trkpt lat="38.6686680" lon="1.5563650">
        <ele>141.1</ele>
        <time>2020-02-22T12:47:17Z</time>
      </trkpt>
      <trkpt lat="38.6686220" lon="1.5564480">
        <ele>141.1</ele>
        <time>2020-02-22T12:47:18Z</time>
      </trkpt>
      <trkpt lat="38.6686000" lon="1.5564700">
        <ele>142.1</ele>
        <time>2020-02-22T12:47:19Z</time>
      </trkpt>
      <trkpt lat="38.6686000" lon="1.5564700">
        <ele>142.1</ele>
        <time>2020-02-22T12:47:20Z</time>
      </trkpt>
      <trkpt lat="38.6685700" lon="1.5564770">
        <ele>142.1</ele>
        <time>2020-02-22T12:47:21Z</time>
      </trkpt>
      <trkpt lat="38.6685700" lon="1.5564770">
        <ele>142.1</ele>
        <time>2020-02-22T12:47:22Z</time>
      </trkpt>
      <trkpt lat="38.6685700" lon="1.5564800">
        <ele>142.1</ele>
        <time>2020-02-22T12:47:23Z</time>
      </trkpt>
      <trkpt lat="38.6685700" lon="1.5564800">
        <ele>142.1</ele>
        <time>2020-02-22T12:47:24Z</time>
      </trkpt>
      <trkpt lat="38.6685700" lon="1.5564800">
        <ele>142.1</ele>
        <time>2020-02-22T12:47:38Z</time>
      </trkpt>
      <trkpt lat="38.6685480" lon="1.5565080">
        <ele>142.1</ele>
        <time>2020-02-22T12:47:39Z</time>
      </trkpt>
      <trkpt lat="38.6685480" lon="1.5565080">
        <ele>142.1</ele>
        <time>2020-02-22T12:47:40Z</time>
      </trkpt>
      <trkpt lat="38.6685450" lon="1.5565120">
        <ele>142.1</ele>
        <time>2020-02-22T13:13:07Z</time>
      </trkpt>
      <trkpt lat="38.6685450" lon="1.5565120">
        <ele>142.1</ele>
        <time>2020-02-22T13:13:08Z</time>
      </trkpt>
      <trkpt lat="38.6685550" lon="1.5565750">
        <ele>142.1</ele>
        <time>2020-02-22T13:13:09Z</time>
      </trkpt>
      <trkpt lat="38.6685550" lon="1.5565750">
        <ele>144.1</ele>
        <time>2020-02-22T13:13:10Z</time>
      </trkpt>
      <trkpt lat="38.6685380" lon="1.5565900">
        <ele>144.1</ele>
        <time>2020-02-22T13:13:11Z</time>
      </trkpt>
      <trkpt lat="38.6685380" lon="1.5565900">
        <ele>144.1</ele>
        <time>2020-02-22T13:13:12Z</time>
      </trkpt>
      <trkpt lat="38.6685270" lon="1.5566030">
        <ele>145.1</ele>
        <time>2020-02-22T13:13:13Z</time>
      </trkpt>
      <trkpt lat="38.6685230" lon="1.5566170">
        <ele>145.1</ele>
        <time>2020-02-22T13:13:14Z</time>
      </trkpt>
      <trkpt lat="38.6685200" lon="1.5566300">
        <ele>145.1</ele>
        <time>2020-02-22T13:13:15Z</time>
      </trkpt>
      <trkpt lat="38.6685200" lon="1.5566300">
        <ele>145.1</ele>
        <time>2020-02-22T13:13:16Z</time>
      </trkpt>
      <trkpt lat="38.6685080" lon="1.5566520">
        <ele>145.1</ele>
        <time>2020-02-22T13:13:17Z</time>
      </trkpt>
      <trkpt lat="38.6685080" lon="1.5566520">
        <ele>145.1</ele>
        <time>2020-02-22T13:13:18Z</time>
      </trkpt>
      <trkpt lat="38.6685000" lon="1.5566730">
        <ele>145.1</ele>
        <time>2020-02-22T13:13:19Z</time>
      </trkpt>
      <trkpt lat="38.6685000" lon="1.5566730">
        <ele>145.1</ele>
        <time>2020-02-22T13:13:20Z</time>
      </trkpt>
      <trkpt lat="38.6684900" lon="1.5566920">
        <ele>145.1</ele>
        <time>2020-02-22T13:13:21Z</time>
      </trkpt>
      <trkpt lat="38.6684870" lon="1.5567000">
        <ele>145.1</ele>
        <time>2020-02-22T13:13:22Z</time>
      </trkpt>
      <trkpt lat="38.6684870" lon="1.5567000">
        <ele>145.1</ele>
        <time>2020-02-22T13:13:23Z</time>
      </trkpt>
      <trkpt lat="38.6684820" lon="1.5567200">
        <ele>145.1</ele>
        <time>2020-02-22T13:13:24Z</time>
      </trkpt>
      <trkpt lat="38.6684820" lon="1.5567270">
        <ele>145.1</ele>
        <time>2020-02-22T13:13:25Z</time>
      </trkpt>
      <trkpt lat="38.6684820" lon="1.5567270">
        <ele>145.1</ele>
        <time>2020-02-22T13:13:26Z</time>
      </trkpt>
      <trkpt lat="38.6684680" lon="1.5567520">
        <ele>145.1</ele>
        <time>2020-02-22T13:13:27Z</time>
      </trkpt>
      <trkpt lat="38.6684680" lon="1.5567520">
        <ele>145.1</ele>
        <time>2020-02-22T13:13:28Z</time>
      </trkpt>
      <trkpt lat="38.6684620" lon="1.5567770">
        <ele>145.1</ele>
        <time>2020-02-22T13:13:29Z</time>
      </trkpt>
      <trkpt lat="38.6684620" lon="1.5567770">
        <ele>145.1</ele>
        <time>2020-02-22T13:13:30Z</time>
      </trkpt>
      <trkpt lat="38.6684570" lon="1.5567970">
        <ele>145.1</ele>
        <time>2020-02-22T13:13:31Z</time>
      </trkpt>
      <trkpt lat="38.6684570" lon="1.5567970">
        <ele>145.1</ele>
        <time>2020-02-22T13:13:32Z</time>
      </trkpt>
      <trkpt lat="38.6684550" lon="1.5568150">
        <ele>145.1</ele>
        <time>2020-02-22T13:13:33Z</time>
      </trkpt>
      <trkpt lat="38.6684520" lon="1.5568280">
        <ele>145.1</ele>
        <time>2020-02-22T13:13:34Z</time>
      </trkpt>
      <trkpt lat="38.6684520" lon="1.5568280">
        <ele>145.1</ele>
        <time>2020-02-22T13:13:35Z</time>
      </trkpt>
      <trkpt lat="38.6684400" lon="1.5568520">
        <ele>145.1</ele>
        <time>2020-02-22T13:13:36Z</time>
      </trkpt>
      <trkpt lat="38.6684400" lon="1.5568520">
        <ele>145.1</ele>
        <time>2020-02-22T13:13:37Z</time>
      </trkpt>
      <trkpt lat="38.6684350" lon="1.5568770">
        <ele>145.1</ele>
        <time>2020-02-22T13:13:38Z</time>
      </trkpt>
      <trkpt lat="38.6684350" lon="1.5568770">
        <ele>145.1</ele>
        <time>2020-02-22T13:13:39Z</time>
      </trkpt>
      <trkpt lat="38.6684280" lon="1.5569050">
        <ele>145.1</ele>
        <time>2020-02-22T13:13:40Z</time>
      </trkpt>
      <trkpt lat="38.6684250" lon="1.5569180">
        <ele>145.1</ele>
        <time>2020-02-22T13:13:41Z</time>
      </trkpt>
      <trkpt lat="38.6684230" lon="1.5569320">
        <ele>145.1</ele>
        <time>2020-02-22T13:13:42Z</time>
      </trkpt>
      <trkpt lat="38.6684220" lon="1.5569450">
        <ele>145.1</ele>
        <time>2020-02-22T13:13:43Z</time>
      </trkpt>
      <trkpt lat="38.6684220" lon="1.5569450">
        <ele>145.1</ele>
        <time>2020-02-22T13:13:44Z</time>
      </trkpt>
      <trkpt lat="38.6684170" lon="1.5569780">
        <ele>145.1</ele>
        <time>2020-02-22T13:13:45Z</time>
      </trkpt>
      <trkpt lat="38.6684130" lon="1.5569970">
        <ele>145.1</ele>
        <time>2020-02-22T13:13:46Z</time>
      </trkpt>
      <trkpt lat="38.6684130" lon="1.5569970">
        <ele>145.1</ele>
        <time>2020-02-22T13:13:47Z</time>
      </trkpt>
      <trkpt lat="38.6684080" lon="1.5570220">
        <ele>145.1</ele>
        <time>2020-02-22T13:13:48Z</time>
      </trkpt>
      <trkpt lat="38.6684080" lon="1.5570220">
        <ele>145.1</ele>
        <time>2020-02-22T13:13:49Z</time>
      </trkpt>
      <trkpt lat="38.6684030" lon="1.5570470">
        <ele>145.1</ele>
        <time>2020-02-22T13:13:50Z</time>
      </trkpt>
      <trkpt lat="38.6684030" lon="1.5570470">
        <ele>145.1</ele>
        <time>2020-02-22T13:13:51Z</time>
      </trkpt>
      <trkpt lat="38.6683900" lon="1.5570520">
        <ele>145.1</ele>
        <time>2020-02-22T13:13:52Z</time>
      </trkpt>
      <trkpt lat="38.6683900" lon="1.5570520">
        <ele>145.1</ele>
        <time>2020-02-22T13:13:53Z</time>
      </trkpt>
      <trkpt lat="38.6683800" lon="1.5570400">
        <ele>145.1</ele>
        <time>2020-02-22T13:13:54Z</time>
      </trkpt>
      <trkpt lat="38.6683800" lon="1.5570400">
        <ele>145.1</ele>
        <time>2020-02-22T13:13:55Z</time>
      </trkpt>
      <trkpt lat="38.6683750" lon="1.5570350">
        <ele>145.1</ele>
        <time>2020-02-22T13:13:56Z</time>
      </trkpt>
      <trkpt lat="38.6683730" lon="1.5570350">
        <ele>145.1</ele>
        <time>2020-02-22T13:13:57Z</time>
      </trkpt>
      <trkpt lat="38.6683730" lon="1.5570350">
        <ele>145.1</ele>
        <time>2020-02-22T13:25:40Z</time>
      </trkpt>
      <trkpt lat="38.6683800" lon="1.5570580">
        <ele>145.1</ele>
        <time>2020-02-22T13:25:41Z</time>
      </trkpt>
      <trkpt lat="38.6683800" lon="1.5570580">
        <ele>145.1</ele>
        <time>2020-02-22T13:25:42Z</time>
      </trkpt>
      <trkpt lat="38.6683870" lon="1.5570520">
        <ele>145.1</ele>
        <time>2020-02-22T13:25:43Z</time>
      </trkpt>
      <trkpt lat="38.6683870" lon="1.5570520">
        <ele>145.1</ele>
        <time>2020-02-22T13:25:44Z</time>
      </trkpt>
      <trkpt lat="38.6683930" lon="1.5570500">
        <ele>145.1</ele>
        <time>2020-02-22T13:25:45Z</time>
      </trkpt>
      <trkpt lat="38.6683930" lon="1.5570500">
        <ele>145.1</ele>
        <time>2020-02-22T13:25:52Z</time>
      </trkpt>
      <trkpt lat="38.6683830" lon="1.5570730">
        <ele>145.1</ele>
        <time>2020-02-22T13:25:53Z</time>
      </trkpt>
      <trkpt lat="38.6683830" lon="1.5570730">
        <ele>145.1</ele>
        <time>2020-02-22T13:25:54Z</time>
      </trkpt>
      <trkpt lat="38.6683830" lon="1.5570770">
        <ele>145.1</ele>
        <time>2020-02-22T13:25:55Z</time>
      </trkpt>
      <trkpt lat="38.6683830" lon="1.5570770">
        <ele>145.1</ele>
        <time>2020-02-22T13:25:56Z</time>
      </trkpt>
      <trkpt lat="38.6683830" lon="1.5570770">
        <ele>145.1</ele>
        <time>2020-02-22T13:26:13Z</time>
      </trkpt>
      <trkpt lat="38.6683600" lon="1.5570700">
        <ele>145.1</ele>
        <time>2020-02-22T13:26:14Z</time>
      </trkpt>
      <trkpt lat="38.6683580" lon="1.5570700">
        <ele>145.1</ele>
        <time>2020-02-22T13:26:15Z</time>
      </trkpt>
      <trkpt lat="38.6683580" lon="1.5570700">
        <ele>145.1</ele>
        <time>2020-02-22T13:26:16Z</time>
      </trkpt>
      <trkpt lat="38.6683580" lon="1.5570700">
        <ele>145.1</ele>
        <time>2020-02-22T13:26:17Z</time>
      </trkpt>
      <trkpt lat="38.6683580" lon="1.5570700">
        <ele>145.1</ele>
        <time>2020-02-22T13:26:18Z</time>
      </trkpt>
      <trkpt lat="38.6683580" lon="1.5570700">
        <ele>145.1</ele>
        <time>2020-02-22T13:28:34Z</time>
      </trkpt>
      <trkpt lat="38.6683980" lon="1.5570380">
        <ele>145.1</ele>
        <time>2020-02-22T13:28:35Z</time>
      </trkpt>
      <trkpt lat="38.6684000" lon="1.5570420">
        <ele>145.1</ele>
        <time>2020-02-22T13:28:36Z</time>
      </trkpt>
      <trkpt lat="38.6684000" lon="1.5570420">
        <ele>144.1</ele>
        <time>2020-02-22T13:28:37Z</time>
      </trkpt>
      <trkpt lat="38.6684020" lon="1.5570430">
        <ele>144.1</ele>
        <time>2020-02-22T13:28:38Z</time>
      </trkpt>
      <trkpt lat="38.6684020" lon="1.5570430">
        <ele>144.1</ele>
        <time>2020-02-22T13:28:39Z</time>
      </trkpt>
      <trkpt lat="38.6684020" lon="1.5570430">
        <ele>144.1</ele>
        <time>2020-02-22T13:28:49Z</time>
      </trkpt>
      <trkpt lat="38.6683930" lon="1.5571420">
        <ele>144.1</ele>
        <time>2020-02-22T13:28:50Z</time>
      </trkpt>
      <trkpt lat="38.6683930" lon="1.5571420">
        <ele>144.1</ele>
        <time>2020-02-22T13:28:51Z</time>
      </trkpt>
      <trkpt lat="38.6683870" lon="1.5572030">
        <ele>144.1</ele>
        <time>2020-02-22T13:28:52Z</time>
      </trkpt>
      <trkpt lat="38.6683820" lon="1.5572370">
        <ele>144.1</ele>
        <time>2020-02-22T13:28:53Z</time>
      </trkpt>
      <trkpt lat="38.6683770" lon="1.5572730">
        <ele>144.1</ele>
        <time>2020-02-22T13:28:54Z</time>
      </trkpt>
      <trkpt lat="38.6683770" lon="1.5572730">
        <ele>144.1</ele>
        <time>2020-02-22T13:28:55Z</time>
      </trkpt>
      <trkpt lat="38.6683680" lon="1.5573570">
        <ele>144.1</ele>
        <time>2020-02-22T13:28:56Z</time>
      </trkpt>
      <trkpt lat="38.6683680" lon="1.5573570">
        <ele>144.1</ele>
        <time>2020-02-22T13:28:57Z</time>
      </trkpt>
      <trkpt lat="38.6683480" lon="1.5574470">
        <ele>144.1</ele>
        <time>2020-02-22T13:28:58Z</time>
      </trkpt>
      <trkpt lat="38.6683430" lon="1.5574920">
        <ele>144.1</ele>
        <time>2020-02-22T13:28:59Z</time>
      </trkpt>
      <trkpt lat="38.6683400" lon="1.5575370">
        <ele>144.1</ele>
        <time>2020-02-22T13:29:00Z</time>
      </trkpt>
      <trkpt lat="38.6683400" lon="1.5575370">
        <ele>144.1</ele>
        <time>2020-02-22T13:29:01Z</time>
      </trkpt>
      <trkpt lat="38.6683280" lon="1.5576350">
        <ele>144.1</ele>
        <time>2020-02-22T13:29:02Z</time>
      </trkpt>
      <trkpt lat="38.6683280" lon="1.5576350">
        <ele>143.1</ele>
        <time>2020-02-22T13:29:03Z</time>
      </trkpt>
      <trkpt lat="38.6683050" lon="1.5577520">
        <ele>143.1</ele>
        <time>2020-02-22T13:29:04Z</time>
      </trkpt>
      <trkpt lat="38.6682930" lon="1.5578080">
        <ele>143.1</ele>
        <time>2020-02-22T13:29:05Z</time>
      </trkpt>
      <trkpt lat="38.6682830" lon="1.5578670">
        <ele>143.1</ele>
        <time>2020-02-22T13:29:06Z</time>
      </trkpt>
      <trkpt lat="38.6682830" lon="1.5578670">
        <ele>143.1</ele>
        <time>2020-02-22T13:29:07Z</time>
      </trkpt>
      <trkpt lat="38.6682630" lon="1.5579850">
        <ele>143.1</ele>
        <time>2020-02-22T13:29:08Z</time>
      </trkpt>
      <trkpt lat="38.6682550" lon="1.5580450">
        <ele>143.1</ele>
        <time>2020-02-22T13:29:09Z</time>
      </trkpt>
      <trkpt lat="38.6682550" lon="1.5580450">
        <ele>143.1</ele>
        <time>2020-02-22T13:29:10Z</time>
      </trkpt>
      <trkpt lat="38.6682300" lon="1.5581650">
        <ele>143.1</ele>
        <time>2020-02-22T13:29:11Z</time>
      </trkpt>
      <trkpt lat="38.6682170" lon="1.5582270">
        <ele>143.1</ele>
        <time>2020-02-22T13:29:12Z</time>
      </trkpt>
      <trkpt lat="38.6682170" lon="1.5582270">
        <ele>143.1</ele>
        <time>2020-02-22T13:29:13Z</time>
      </trkpt>
      <trkpt lat="38.6681920" lon="1.5583480">
        <ele>143.1</ele>
        <time>2020-02-22T13:29:14Z</time>
      </trkpt>
      <trkpt lat="38.6681920" lon="1.5583480">
        <ele>143.1</ele>
        <time>2020-02-22T13:29:15Z</time>
      </trkpt>
      <trkpt lat="38.6681680" lon="1.5584770">
        <ele>143.1</ele>
        <time>2020-02-22T13:29:16Z</time>
      </trkpt>
      <trkpt lat="38.6681680" lon="1.5584770">
        <ele>142.1</ele>
        <time>2020-02-22T13:29:17Z</time>
      </trkpt>
      <trkpt lat="38.6681470" lon="1.5586050">
        <ele>142.1</ele>
        <time>2020-02-22T13:29:18Z</time>
      </trkpt>
      <trkpt lat="38.6681470" lon="1.5586050">
        <ele>142.1</ele>
        <time>2020-02-22T13:29:19Z</time>
      </trkpt>
      <trkpt lat="38.6681250" lon="1.5587330">
        <ele>142.1</ele>
        <time>2020-02-22T13:29:20Z</time>
      </trkpt>
      <trkpt lat="38.6681250" lon="1.5587330">
        <ele>142.1</ele>
        <time>2020-02-22T13:29:21Z</time>
      </trkpt>
      <trkpt lat="38.6681020" lon="1.5588650">
        <ele>142.1</ele>
        <time>2020-02-22T13:29:22Z</time>
      </trkpt>
      <trkpt lat="38.6681020" lon="1.5588650">
        <ele>142.1</ele>
        <time>2020-02-22T13:29:23Z</time>
      </trkpt>
      <trkpt lat="38.6680770" lon="1.5589950">
        <ele>142.1</ele>
        <time>2020-02-22T13:29:24Z</time>
      </trkpt>
      <trkpt lat="38.6680770" lon="1.5589950">
        <ele>142.1</ele>
        <time>2020-02-22T13:29:25Z</time>
      </trkpt>
      <trkpt lat="38.6680570" lon="1.5591280">
        <ele>142.1</ele>
        <time>2020-02-22T13:29:26Z</time>
      </trkpt>
      <trkpt lat="38.6680570" lon="1.5591280">
        <ele>142.1</ele>
        <time>2020-02-22T13:29:27Z</time>
      </trkpt>
      <trkpt lat="38.6680270" lon="1.5592620">
        <ele>142.1</ele>
        <time>2020-02-22T13:29:28Z</time>
      </trkpt>
      <trkpt lat="38.6680270" lon="1.5592620">
        <ele>142.1</ele>
        <time>2020-02-22T13:29:29Z</time>
      </trkpt>
      <trkpt lat="38.6679980" lon="1.5593970">
        <ele>142.1</ele>
        <time>2020-02-22T13:29:30Z</time>
      </trkpt>
      <trkpt lat="38.6679980" lon="1.5593970">
        <ele>141.1</ele>
        <time>2020-02-22T13:29:31Z</time>
      </trkpt>
      <trkpt lat="38.6679750" lon="1.5595350">
        <ele>141.1</ele>
        <time>2020-02-22T13:29:32Z</time>
      </trkpt>
      <trkpt lat="38.6679630" lon="1.5596030">
        <ele>141.1</ele>
        <time>2020-02-22T13:29:33Z</time>
      </trkpt>
      <trkpt lat="38.6679500" lon="1.5596730">
        <ele>141.1</ele>
        <time>2020-02-22T13:29:34Z</time>
      </trkpt>
      <trkpt lat="38.6679500" lon="1.5596730">
        <ele>141.1</ele>
        <time>2020-02-22T13:29:35Z</time>
      </trkpt>
      <trkpt lat="38.6679250" lon="1.5598130">
        <ele>141.1</ele>
        <time>2020-02-22T13:29:36Z</time>
      </trkpt>
      <trkpt lat="38.6679250" lon="1.5598130">
        <ele>141.1</ele>
        <time>2020-02-22T13:29:37Z</time>
      </trkpt>
      <trkpt lat="38.6678980" lon="1.5599600">
        <ele>141.1</ele>
        <time>2020-02-22T13:29:38Z</time>
      </trkpt>
      <trkpt lat="38.6678980" lon="1.5599600">
        <ele>141.1</ele>
        <time>2020-02-22T13:29:39Z</time>
      </trkpt>
      <trkpt lat="38.6678680" lon="1.5601130">
        <ele>140.1</ele>
        <time>2020-02-22T13:29:40Z</time>
      </trkpt>
      <trkpt lat="38.6678680" lon="1.5601130">
        <ele>140.1</ele>
        <time>2020-02-22T13:29:41Z</time>
      </trkpt>
      <trkpt lat="38.6678420" lon="1.5602720">
        <ele>140.1</ele>
        <time>2020-02-22T13:29:42Z</time>
      </trkpt>
      <trkpt lat="38.6678420" lon="1.5602720">
        <ele>140.1</ele>
        <time>2020-02-22T13:29:43Z</time>
      </trkpt>
      <trkpt lat="38.6678120" lon="1.5604350">
        <ele>140.1</ele>
        <time>2020-02-22T13:29:44Z</time>
      </trkpt>
      <trkpt lat="38.6678120" lon="1.5604350">
        <ele>140.1</ele>
        <time>2020-02-22T13:29:45Z</time>
      </trkpt>
      <trkpt lat="38.6677800" lon="1.5605970">
        <ele>140.1</ele>
        <time>2020-02-22T13:29:46Z</time>
      </trkpt>
      <trkpt lat="38.6677800" lon="1.5605970">
        <ele>140.1</ele>
        <time>2020-02-22T13:29:47Z</time>
      </trkpt>
      <trkpt lat="38.6677520" lon="1.5607630">
        <ele>140.1</ele>
        <time>2020-02-22T13:29:48Z</time>
      </trkpt>
      <trkpt lat="38.6677520" lon="1.5607630">
        <ele>139.1</ele>
        <time>2020-02-22T13:29:49Z</time>
      </trkpt>
      <trkpt lat="38.6677220" lon="1.5609300">
        <ele>139.1</ele>
        <time>2020-02-22T13:29:50Z</time>
      </trkpt>
      <trkpt lat="38.6677220" lon="1.5609300">
        <ele>139.1</ele>
        <time>2020-02-22T13:29:51Z</time>
      </trkpt>
      <trkpt lat="38.6676870" lon="1.5610970">
        <ele>139.1</ele>
        <time>2020-02-22T13:29:52Z</time>
      </trkpt>
      <trkpt lat="38.6676870" lon="1.5610970">
        <ele>139.1</ele>
        <time>2020-02-22T13:29:53Z</time>
      </trkpt>
      <trkpt lat="38.6676550" lon="1.5612680">
        <ele>139.1</ele>
        <time>2020-02-22T13:29:54Z</time>
      </trkpt>
      <trkpt lat="38.6676550" lon="1.5612680">
        <ele>138.1</ele>
        <time>2020-02-22T13:29:55Z</time>
      </trkpt>
      <trkpt lat="38.6676270" lon="1.5614400">
        <ele>138.1</ele>
        <time>2020-02-22T13:29:56Z</time>
      </trkpt>
      <trkpt lat="38.6676270" lon="1.5614400">
        <ele>138.1</ele>
        <time>2020-02-22T13:29:57Z</time>
      </trkpt>
      <trkpt lat="38.6675930" lon="1.5616150">
        <ele>138.1</ele>
        <time>2020-02-22T13:29:58Z</time>
      </trkpt>
      <trkpt lat="38.6675930" lon="1.5616150">
        <ele>138.1</ele>
        <time>2020-02-22T13:29:59Z</time>
      </trkpt>
      <trkpt lat="38.6675630" lon="1.5617900">
        <ele>138.1</ele>
        <time>2020-02-22T13:30:00Z</time>
      </trkpt>
      <trkpt lat="38.6675630" lon="1.5617900">
        <ele>137.1</ele>
        <time>2020-02-22T13:30:01Z</time>
      </trkpt>
      <trkpt lat="38.6675370" lon="1.5619680">
        <ele>137.1</ele>
        <time>2020-02-22T13:30:02Z</time>
      </trkpt>
      <trkpt lat="38.6675370" lon="1.5619680">
        <ele>137.1</ele>
        <time>2020-02-22T13:30:03Z</time>
      </trkpt>
      <trkpt lat="38.6675050" lon="1.5621450">
        <ele>137.1</ele>
        <time>2020-02-22T13:30:04Z</time>
      </trkpt>
      <trkpt lat="38.6675050" lon="1.5621450">
        <ele>136.1</ele>
        <time>2020-02-22T13:30:05Z</time>
      </trkpt>
      <trkpt lat="38.6674720" lon="1.5623200">
        <ele>136.1</ele>
        <time>2020-02-22T13:30:06Z</time>
      </trkpt>
      <trkpt lat="38.6674720" lon="1.5623200">
        <ele>136.1</ele>
        <time>2020-02-22T13:30:07Z</time>
      </trkpt>
      <trkpt lat="38.6674350" lon="1.5624930">
        <ele>136.1</ele>
        <time>2020-02-22T13:30:08Z</time>
      </trkpt>
      <trkpt lat="38.6674170" lon="1.5625820">
        <ele>135.1</ele>
        <time>2020-02-22T13:30:09Z</time>
      </trkpt>
      <trkpt lat="38.6674170" lon="1.5625820">
        <ele>135.1</ele>
        <time>2020-02-22T13:30:10Z</time>
      </trkpt>
      <trkpt lat="38.6673870" lon="1.5627580">
        <ele>135.1</ele>
        <time>2020-02-22T13:30:11Z</time>
      </trkpt>
      <trkpt lat="38.6673730" lon="1.5628470">
        <ele>135.1</ele>
        <time>2020-02-22T13:30:12Z</time>
      </trkpt>
      <trkpt lat="38.6673730" lon="1.5628470">
        <ele>135.1</ele>
        <time>2020-02-22T13:30:13Z</time>
      </trkpt>
      <trkpt lat="38.6673400" lon="1.5630230">
        <ele>135.1</ele>
        <time>2020-02-22T13:30:14Z</time>
      </trkpt>
      <trkpt lat="38.6673400" lon="1.5630230">
        <ele>135.1</ele>
        <time>2020-02-22T13:30:15Z</time>
      </trkpt>
      <trkpt lat="38.6673070" lon="1.5632000">
        <ele>135.1</ele>
        <time>2020-02-22T13:30:16Z</time>
      </trkpt>
      <trkpt lat="38.6673070" lon="1.5632000">
        <ele>135.1</ele>
        <time>2020-02-22T13:30:17Z</time>
      </trkpt>
      <trkpt lat="38.6672750" lon="1.5633780">
        <ele>134.1</ele>
        <time>2020-02-22T13:30:18Z</time>
      </trkpt>
      <trkpt lat="38.6672750" lon="1.5633780">
        <ele>134.1</ele>
        <time>2020-02-22T13:30:19Z</time>
      </trkpt>
      <trkpt lat="38.6672400" lon="1.5635580">
        <ele>134.1</ele>
        <time>2020-02-22T13:30:20Z</time>
      </trkpt>
      <trkpt lat="38.6672400" lon="1.5635580">
        <ele>134.1</ele>
        <time>2020-02-22T13:30:21Z</time>
      </trkpt>
      <trkpt lat="38.6672070" lon="1.5637400">
        <ele>133.1</ele>
        <time>2020-02-22T13:30:22Z</time>
      </trkpt>
      <trkpt lat="38.6672070" lon="1.5637400">
        <ele>133.1</ele>
        <time>2020-02-22T13:30:23Z</time>
      </trkpt>
      <trkpt lat="38.6671750" lon="1.5639230">
        <ele>133.1</ele>
        <time>2020-02-22T13:30:24Z</time>
      </trkpt>
      <trkpt lat="38.6671580" lon="1.5640150">
        <ele>133.1</ele>
        <time>2020-02-22T13:30:25Z</time>
      </trkpt>
      <trkpt lat="38.6671580" lon="1.5640150">
        <ele>132.1</ele>
        <time>2020-02-22T13:30:26Z</time>
      </trkpt>
      <trkpt lat="38.6671250" lon="1.5641980">
        <ele>132.1</ele>
        <time>2020-02-22T13:30:27Z</time>
      </trkpt>
      <trkpt lat="38.6671250" lon="1.5641980">
        <ele>132.1</ele>
        <time>2020-02-22T13:30:28Z</time>
      </trkpt>
      <trkpt lat="38.6670900" lon="1.5643820">
        <ele>132.1</ele>
        <time>2020-02-22T13:30:29Z</time>
      </trkpt>
      <trkpt lat="38.6670730" lon="1.5644750">
        <ele>132.1</ele>
        <time>2020-02-22T13:30:30Z</time>
      </trkpt>
      <trkpt lat="38.6670730" lon="1.5644750">
        <ele>132.1</ele>
        <time>2020-02-22T13:30:31Z</time>
      </trkpt>
      <trkpt lat="38.6670420" lon="1.5646580">
        <ele>132.1</ele>
        <time>2020-02-22T13:30:32Z</time>
      </trkpt>
      <trkpt lat="38.6670420" lon="1.5646580">
        <ele>132.1</ele>
        <time>2020-02-22T13:30:33Z</time>
      </trkpt>
      <trkpt lat="38.6670100" lon="1.5648400">
        <ele>132.1</ele>
        <time>2020-02-22T13:30:34Z</time>
      </trkpt>
      <trkpt lat="38.6670100" lon="1.5648400">
        <ele>131.1</ele>
        <time>2020-02-22T13:30:35Z</time>
      </trkpt>
      <trkpt lat="38.6669770" lon="1.5650220">
        <ele>131.1</ele>
        <time>2020-02-22T13:30:36Z</time>
      </trkpt>
      <trkpt lat="38.6669770" lon="1.5650220">
        <ele>131.1</ele>
        <time>2020-02-22T13:30:37Z</time>
      </trkpt>
      <trkpt lat="38.6669420" lon="1.5652000">
        <ele>131.1</ele>
        <time>2020-02-22T13:30:38Z</time>
      </trkpt>
      <trkpt lat="38.6669220" lon="1.5652880">
        <ele>131.1</ele>
        <time>2020-02-22T13:30:39Z</time>
      </trkpt>
      <trkpt lat="38.6669220" lon="1.5652880">
        <ele>130.1</ele>
        <time>2020-02-22T13:30:40Z</time>
      </trkpt>
      <trkpt lat="38.6668870" lon="1.5654700">
        <ele>130.1</ele>
        <time>2020-02-22T13:30:41Z</time>
      </trkpt>
      <trkpt lat="38.6668700" lon="1.5655650">
        <ele>130.1</ele>
        <time>2020-02-22T13:30:42Z</time>
      </trkpt>
      <trkpt lat="38.6668700" lon="1.5655650">
        <ele>130.1</ele>
        <time>2020-02-22T13:30:43Z</time>
      </trkpt>
      <trkpt lat="38.6668330" lon="1.5657570">
        <ele>129.1</ele>
        <time>2020-02-22T13:30:44Z</time>
      </trkpt>
      <trkpt lat="38.6668330" lon="1.5657570">
        <ele>129.1</ele>
        <time>2020-02-22T13:30:45Z</time>
      </trkpt>
      <trkpt lat="38.6668000" lon="1.5659600">
        <ele>129.1</ele>
        <time>2020-02-22T13:30:46Z</time>
      </trkpt>
      <trkpt lat="38.6668000" lon="1.5659600">
        <ele>129.1</ele>
        <time>2020-02-22T13:30:47Z</time>
      </trkpt>
      <trkpt lat="38.6667630" lon="1.5661670">
        <ele>129.1</ele>
        <time>2020-02-22T13:30:48Z</time>
      </trkpt>
      <trkpt lat="38.6667450" lon="1.5662670">
        <ele>129.1</ele>
        <time>2020-02-22T13:30:49Z</time>
      </trkpt>
      <trkpt lat="38.6667450" lon="1.5662670">
        <ele>129.1</ele>
        <time>2020-02-22T13:30:50Z</time>
      </trkpt>
      <trkpt lat="38.6667080" lon="1.5664630">
        <ele>129.1</ele>
        <time>2020-02-22T13:30:51Z</time>
      </trkpt>
      <trkpt lat="38.6666920" lon="1.5665620">
        <ele>128.1</ele>
        <time>2020-02-22T13:30:52Z</time>
      </trkpt>
      <trkpt lat="38.6666920" lon="1.5665620">
        <ele>128.1</ele>
        <time>2020-02-22T13:30:53Z</time>
      </trkpt>
      <trkpt lat="38.6666630" lon="1.5667570">
        <ele>128.1</ele>
        <time>2020-02-22T13:30:54Z</time>
      </trkpt>
      <trkpt lat="38.6666630" lon="1.5667570">
        <ele>128.1</ele>
        <time>2020-02-22T13:30:55Z</time>
      </trkpt>
      <trkpt lat="38.6666330" lon="1.5669470">
        <ele>128.1</ele>
        <time>2020-02-22T13:30:56Z</time>
      </trkpt>
      <trkpt lat="38.6666330" lon="1.5669470">
        <ele>128.1</ele>
        <time>2020-02-22T13:30:57Z</time>
      </trkpt>
      <trkpt lat="38.6666020" lon="1.5671230">
        <ele>128.1</ele>
        <time>2020-02-22T13:30:58Z</time>
      </trkpt>
      <trkpt lat="38.6665870" lon="1.5672050">
        <ele>128.1</ele>
        <time>2020-02-22T13:30:59Z</time>
      </trkpt>
      <trkpt lat="38.6665720" lon="1.5672870">
        <ele>128.1</ele>
        <time>2020-02-22T13:31:00Z</time>
      </trkpt>
      <trkpt lat="38.6665720" lon="1.5672870">
        <ele>127.1</ele>
        <time>2020-02-22T13:31:01Z</time>
      </trkpt>
      <trkpt lat="38.6665420" lon="1.5674480">
        <ele>127.1</ele>
        <time>2020-02-22T13:31:02Z</time>
      </trkpt>
      <trkpt lat="38.6665420" lon="1.5674480">
        <ele>127.1</ele>
        <time>2020-02-22T13:31:03Z</time>
      </trkpt>
      <trkpt lat="38.6665130" lon="1.5676080">
        <ele>127.1</ele>
        <time>2020-02-22T13:31:04Z</time>
      </trkpt>
      <trkpt lat="38.6665000" lon="1.5676880">
        <ele>127.1</ele>
        <time>2020-02-22T13:31:05Z</time>
      </trkpt>
      <trkpt lat="38.6665000" lon="1.5676880">
        <ele>127.1</ele>
        <time>2020-02-22T13:31:06Z</time>
      </trkpt>
      <trkpt lat="38.6664770" lon="1.5678470">
        <ele>127.1</ele>
        <time>2020-02-22T13:31:07Z</time>
      </trkpt>
      <trkpt lat="38.6664770" lon="1.5678470">
        <ele>127.1</ele>
        <time>2020-02-22T13:31:08Z</time>
      </trkpt>
      <trkpt lat="38.6664500" lon="1.5679980">
        <ele>127.1</ele>
        <time>2020-02-22T13:31:09Z</time>
      </trkpt>
      <trkpt lat="38.6664500" lon="1.5679980">
        <ele>127.1</ele>
        <time>2020-02-22T13:31:10Z</time>
      </trkpt>
      <trkpt lat="38.6664220" lon="1.5681470">
        <ele>127.1</ele>
        <time>2020-02-22T13:31:11Z</time>
      </trkpt>
      <trkpt lat="38.6664070" lon="1.5682200">
        <ele>127.1</ele>
        <time>2020-02-22T13:31:12Z</time>
      </trkpt>
      <trkpt lat="38.6664070" lon="1.5682200">
        <ele>127.1</ele>
        <time>2020-02-22T13:31:13Z</time>
      </trkpt>
      <trkpt lat="38.6663780" lon="1.5683680">
        <ele>127.1</ele>
        <time>2020-02-22T13:31:14Z</time>
      </trkpt>
      <trkpt lat="38.6663630" lon="1.5684430">
        <ele>127.1</ele>
        <time>2020-02-22T13:31:15Z</time>
      </trkpt>
      <trkpt lat="38.6663630" lon="1.5684430">
        <ele>127.1</ele>
        <time>2020-02-22T13:31:16Z</time>
      </trkpt>
      <trkpt lat="38.6663350" lon="1.5685920">
        <ele>127.1</ele>
        <time>2020-02-22T13:31:17Z</time>
      </trkpt>
      <trkpt lat="38.6663220" lon="1.5686650">
        <ele>127.1</ele>
        <time>2020-02-22T13:31:18Z</time>
      </trkpt>
      <trkpt lat="38.6663220" lon="1.5686650">
        <ele>127.1</ele>
        <time>2020-02-22T13:31:19Z</time>
      </trkpt>
      <trkpt lat="38.6662950" lon="1.5688130">
        <ele>126.1</ele>
        <time>2020-02-22T13:31:20Z</time>
      </trkpt>
      <trkpt lat="38.6662950" lon="1.5688130">
        <ele>126.1</ele>
        <time>2020-02-22T13:31:21Z</time>
      </trkpt>
      <trkpt lat="38.6662720" lon="1.5689600">
        <ele>126.1</ele>
        <time>2020-02-22T13:31:22Z</time>
      </trkpt>
      <trkpt lat="38.6662720" lon="1.5689600">
        <ele>126.1</ele>
        <time>2020-02-22T13:31:23Z</time>
      </trkpt>
      <trkpt lat="38.6662450" lon="1.5691030">
        <ele>126.1</ele>
        <time>2020-02-22T13:31:24Z</time>
      </trkpt>
      <trkpt lat="38.6662450" lon="1.5691030">
        <ele>126.1</ele>
        <time>2020-02-22T13:31:25Z</time>
      </trkpt>
      <trkpt lat="38.6662180" lon="1.5692430">
        <ele>126.1</ele>
        <time>2020-02-22T13:31:26Z</time>
      </trkpt>
      <trkpt lat="38.6662180" lon="1.5692430">
        <ele>126.1</ele>
        <time>2020-02-22T13:31:27Z</time>
      </trkpt>
      <trkpt lat="38.6661950" lon="1.5693800">
        <ele>126.1</ele>
        <time>2020-02-22T13:31:28Z</time>
      </trkpt>
      <trkpt lat="38.6661850" lon="1.5694480">
        <ele>126.1</ele>
        <time>2020-02-22T13:31:29Z</time>
      </trkpt>
      <trkpt lat="38.6661720" lon="1.5695150">
        <ele>126.1</ele>
        <time>2020-02-22T13:31:30Z</time>
      </trkpt>
      <trkpt lat="38.6661720" lon="1.5695150">
        <ele>126.1</ele>
        <time>2020-02-22T13:31:31Z</time>
      </trkpt>
      <trkpt lat="38.6661450" lon="1.5696450">
        <ele>126.1</ele>
        <time>2020-02-22T13:31:32Z</time>
      </trkpt>
      <trkpt lat="38.6661450" lon="1.5696450">
        <ele>126.1</ele>
        <time>2020-02-22T13:31:33Z</time>
      </trkpt>
      <trkpt lat="38.6661200" lon="1.5697770">
        <ele>126.1</ele>
        <time>2020-02-22T13:31:34Z</time>
      </trkpt>
      <trkpt lat="38.6661200" lon="1.5697770">
        <ele>126.1</ele>
        <time>2020-02-22T13:31:35Z</time>
      </trkpt>
      <trkpt lat="38.6660950" lon="1.5699120">
        <ele>126.1</ele>
        <time>2020-02-22T13:31:36Z</time>
      </trkpt>
      <trkpt lat="38.6660950" lon="1.5699120">
        <ele>126.1</ele>
        <time>2020-02-22T13:31:37Z</time>
      </trkpt>
      <trkpt lat="38.6660680" lon="1.5700550">
        <ele>126.1</ele>
        <time>2020-02-22T13:31:38Z</time>
      </trkpt>
      <trkpt lat="38.6660680" lon="1.5700550">
        <ele>126.1</ele>
        <time>2020-02-22T13:31:39Z</time>
      </trkpt>
      <trkpt lat="38.6660420" lon="1.5702050">
        <ele>126.1</ele>
        <time>2020-02-22T13:31:40Z</time>
      </trkpt>
      <trkpt lat="38.6660270" lon="1.5702780">
        <ele>126.1</ele>
        <time>2020-02-22T13:31:41Z</time>
      </trkpt>
      <trkpt lat="38.6660130" lon="1.5703530">
        <ele>126.1</ele>
        <time>2020-02-22T13:31:42Z</time>
      </trkpt>
      <trkpt lat="38.6660130" lon="1.5703530">
        <ele>126.1</ele>
        <time>2020-02-22T13:31:43Z</time>
      </trkpt>
      <trkpt lat="38.6659880" lon="1.5704970">
        <ele>126.1</ele>
        <time>2020-02-22T13:31:44Z</time>
      </trkpt>
      <trkpt lat="38.6659750" lon="1.5705700">
        <ele>126.1</ele>
        <time>2020-02-22T13:31:45Z</time>
      </trkpt>
      <trkpt lat="38.6659750" lon="1.5705700">
        <ele>126.1</ele>
        <time>2020-02-22T13:31:46Z</time>
      </trkpt>
      <trkpt lat="38.6659500" lon="1.5707130">
        <ele>126.1</ele>
        <time>2020-02-22T13:31:47Z</time>
      </trkpt>
      <trkpt lat="38.6659350" lon="1.5707850">
        <ele>126.1</ele>
        <time>2020-02-22T13:31:48Z</time>
      </trkpt>
      <trkpt lat="38.6659350" lon="1.5707850">
        <ele>126.1</ele>
        <time>2020-02-22T13:31:49Z</time>
      </trkpt>
      <trkpt lat="38.6659080" lon="1.5709300">
        <ele>126.1</ele>
        <time>2020-02-22T13:31:50Z</time>
      </trkpt>
      <trkpt lat="38.6659080" lon="1.5709300">
        <ele>126.1</ele>
        <time>2020-02-22T13:31:51Z</time>
      </trkpt>
      <trkpt lat="38.6658820" lon="1.5710750">
        <ele>126.1</ele>
        <time>2020-02-22T13:31:52Z</time>
      </trkpt>
      <trkpt lat="38.6658820" lon="1.5710750">
        <ele>126.1</ele>
        <time>2020-02-22T13:31:53Z</time>
      </trkpt>
      <trkpt lat="38.6658530" lon="1.5712200">
        <ele>126.1</ele>
        <time>2020-02-22T13:31:54Z</time>
      </trkpt>
      <trkpt lat="38.6658530" lon="1.5712200">
        <ele>126.1</ele>
        <time>2020-02-22T13:31:55Z</time>
      </trkpt>
      <trkpt lat="38.6658280" lon="1.5713680">
        <ele>126.1</ele>
        <time>2020-02-22T13:31:56Z</time>
      </trkpt>
      <trkpt lat="38.6658280" lon="1.5713680">
        <ele>126.1</ele>
        <time>2020-02-22T13:31:57Z</time>
      </trkpt>
      <trkpt lat="38.6658000" lon="1.5715170">
        <ele>126.1</ele>
        <time>2020-02-22T13:31:58Z</time>
      </trkpt>
      <trkpt lat="38.6657870" lon="1.5715920">
        <ele>126.1</ele>
        <time>2020-02-22T13:31:59Z</time>
      </trkpt>
      <trkpt lat="38.6657870" lon="1.5715920">
        <ele>126.1</ele>
        <time>2020-02-22T13:32:00Z</time>
      </trkpt>
      <trkpt lat="38.6657580" lon="1.5717400">
        <ele>126.1</ele>
        <time>2020-02-22T13:32:01Z</time>
      </trkpt>
      <trkpt lat="38.6657450" lon="1.5718130">
        <ele>126.1</ele>
        <time>2020-02-22T13:32:02Z</time>
      </trkpt>
      <trkpt lat="38.6657450" lon="1.5718130">
        <ele>125.1</ele>
        <time>2020-02-22T13:32:03Z</time>
      </trkpt>
      <trkpt lat="38.6657170" lon="1.5719600">
        <ele>125.1</ele>
        <time>2020-02-22T13:32:04Z</time>
      </trkpt>
      <trkpt lat="38.6657170" lon="1.5719600">
        <ele>125.1</ele>
        <time>2020-02-22T13:32:05Z</time>
      </trkpt>
      <trkpt lat="38.6656880" lon="1.5721070">
        <ele>125.1</ele>
        <time>2020-02-22T13:32:06Z</time>
      </trkpt>
      <trkpt lat="38.6656880" lon="1.5721070">
        <ele>125.1</ele>
        <time>2020-02-22T13:32:07Z</time>
      </trkpt>
      <trkpt lat="38.6656600" lon="1.5722520">
        <ele>125.1</ele>
        <time>2020-02-22T13:32:08Z</time>
      </trkpt>
      <trkpt lat="38.6656470" lon="1.5723250">
        <ele>125.1</ele>
        <time>2020-02-22T13:32:09Z</time>
      </trkpt>
      <trkpt lat="38.6656470" lon="1.5723250">
        <ele>125.1</ele>
        <time>2020-02-22T13:32:10Z</time>
      </trkpt>
      <trkpt lat="38.6656200" lon="1.5724720">
        <ele>125.1</ele>
        <time>2020-02-22T13:32:11Z</time>
      </trkpt>
      <trkpt lat="38.6656070" lon="1.5725470">
        <ele>125.1</ele>
        <time>2020-02-22T13:32:12Z</time>
      </trkpt>
      <trkpt lat="38.6656070" lon="1.5725470">
        <ele>125.1</ele>
        <time>2020-02-22T13:32:13Z</time>
      </trkpt>
      <trkpt lat="38.6655780" lon="1.5726980">
        <ele>125.1</ele>
        <time>2020-02-22T13:32:14Z</time>
      </trkpt>
      <trkpt lat="38.6655650" lon="1.5727720">
        <ele>125.1</ele>
        <time>2020-02-22T13:32:15Z</time>
      </trkpt>
      <trkpt lat="38.6655520" lon="1.5728450">
        <ele>125.1</ele>
        <time>2020-02-22T13:32:16Z</time>
      </trkpt>
      <trkpt lat="38.6655520" lon="1.5728450">
        <ele>125.1</ele>
        <time>2020-02-22T13:32:17Z</time>
      </trkpt>
      <trkpt lat="38.6655250" lon="1.5729920">
        <ele>125.1</ele>
        <time>2020-02-22T13:32:18Z</time>
      </trkpt>
      <trkpt lat="38.6655250" lon="1.5729920">
        <ele>125.1</ele>
        <time>2020-02-22T13:32:19Z</time>
      </trkpt>
      <trkpt lat="38.6654970" lon="1.5731370">
        <ele>125.1</ele>
        <time>2020-02-22T13:32:20Z</time>
      </trkpt>
      <trkpt lat="38.6654830" lon="1.5732120">
        <ele>125.1</ele>
        <time>2020-02-22T13:32:21Z</time>
      </trkpt>
      <trkpt lat="38.6654720" lon="1.5732870">
        <ele>124.1</ele>
        <time>2020-02-22T13:32:22Z</time>
      </trkpt>
      <trkpt lat="38.6654720" lon="1.5732870">
        <ele>124.1</ele>
        <time>2020-02-22T13:32:23Z</time>
      </trkpt>
      <trkpt lat="38.6654450" lon="1.5734330">
        <ele>124.1</ele>
        <time>2020-02-22T13:32:24Z</time>
      </trkpt>
      <trkpt lat="38.6654450" lon="1.5734330">
        <ele>124.1</ele>
        <time>2020-02-22T13:32:25Z</time>
      </trkpt>
      <trkpt lat="38.6654200" lon="1.5735850">
        <ele>124.1</ele>
        <time>2020-02-22T13:32:26Z</time>
      </trkpt>
      <trkpt lat="38.6654200" lon="1.5735850">
        <ele>124.1</ele>
        <time>2020-02-22T13:32:27Z</time>
      </trkpt>
      <trkpt lat="38.6653930" lon="1.5737330">
        <ele>124.1</ele>
        <time>2020-02-22T13:32:28Z</time>
      </trkpt>
      <trkpt lat="38.6653930" lon="1.5737330">
        <ele>124.1</ele>
        <time>2020-02-22T13:32:29Z</time>
      </trkpt>
      <trkpt lat="38.6653670" lon="1.5738800">
        <ele>124.1</ele>
        <time>2020-02-22T13:32:30Z</time>
      </trkpt>
      <trkpt lat="38.6653670" lon="1.5738800">
        <ele>124.1</ele>
        <time>2020-02-22T13:32:31Z</time>
      </trkpt>
      <trkpt lat="38.6653350" lon="1.5740280">
        <ele>124.1</ele>
        <time>2020-02-22T13:32:32Z</time>
      </trkpt>
      <trkpt lat="38.6653200" lon="1.5741030">
        <ele>124.1</ele>
        <time>2020-02-22T13:32:33Z</time>
      </trkpt>
      <trkpt lat="38.6653200" lon="1.5741030">
        <ele>124.1</ele>
        <time>2020-02-22T13:32:34Z</time>
      </trkpt>
      <trkpt lat="38.6652920" lon="1.5742570">
        <ele>124.1</ele>
        <time>2020-02-22T13:32:35Z</time>
      </trkpt>
      <trkpt lat="38.6652770" lon="1.5743320">
        <ele>124.1</ele>
        <time>2020-02-22T13:32:36Z</time>
      </trkpt>
      <trkpt lat="38.6652630" lon="1.5744080">
        <ele>124.1</ele>
        <time>2020-02-22T13:32:37Z</time>
      </trkpt>
      <trkpt lat="38.6652480" lon="1.5744850">
        <ele>124.1</ele>
        <time>2020-02-22T13:32:38Z</time>
      </trkpt>
      <trkpt lat="38.6652480" lon="1.5744850">
        <ele>124.1</ele>
        <time>2020-02-22T13:32:39Z</time>
      </trkpt>
      <trkpt lat="38.6652200" lon="1.5746380">
        <ele>124.1</ele>
        <time>2020-02-22T13:32:40Z</time>
      </trkpt>
      <trkpt lat="38.6652200" lon="1.5746380">
        <ele>123.1</ele>
        <time>2020-02-22T13:32:41Z</time>
      </trkpt>
      <trkpt lat="38.6651900" lon="1.5747920">
        <ele>123.1</ele>
        <time>2020-02-22T13:32:42Z</time>
      </trkpt>
      <trkpt lat="38.6651900" lon="1.5747920">
        <ele>123.1</ele>
        <time>2020-02-22T13:32:43Z</time>
      </trkpt>
      <trkpt lat="38.6651580" lon="1.5749430">
        <ele>123.1</ele>
        <time>2020-02-22T13:32:44Z</time>
      </trkpt>
      <trkpt lat="38.6651580" lon="1.5749430">
        <ele>123.1</ele>
        <time>2020-02-22T13:32:45Z</time>
      </trkpt>
      <trkpt lat="38.6651330" lon="1.5750950">
        <ele>123.1</ele>
        <time>2020-02-22T13:32:46Z</time>
      </trkpt>
      <trkpt lat="38.6651220" lon="1.5751720">
        <ele>123.1</ele>
        <time>2020-02-22T13:32:47Z</time>
      </trkpt>
      <trkpt lat="38.6651080" lon="1.5752480">
        <ele>122.1</ele>
        <time>2020-02-22T13:32:48Z</time>
      </trkpt>
      <trkpt lat="38.6651080" lon="1.5752480">
        <ele>122.1</ele>
        <time>2020-02-22T13:32:49Z</time>
      </trkpt>
      <trkpt lat="38.6650820" lon="1.5754020">
        <ele>122.1</ele>
        <time>2020-02-22T13:32:50Z</time>
      </trkpt>
      <trkpt lat="38.6650670" lon="1.5754800">
        <ele>122.1</ele>
        <time>2020-02-22T13:32:51Z</time>
      </trkpt>
      <trkpt lat="38.6650670" lon="1.5754800">
        <ele>122.1</ele>
        <time>2020-02-22T13:32:52Z</time>
      </trkpt>
      <trkpt lat="38.6650380" lon="1.5756330">
        <ele>122.1</ele>
        <time>2020-02-22T13:32:53Z</time>
      </trkpt>
      <trkpt lat="38.6650250" lon="1.5757100">
        <ele>122.1</ele>
        <time>2020-02-22T13:32:54Z</time>
      </trkpt>
      <trkpt lat="38.6650250" lon="1.5757100">
        <ele>122.1</ele>
        <time>2020-02-22T13:32:55Z</time>
      </trkpt>
      <trkpt lat="38.6649950" lon="1.5758670">
        <ele>122.1</ele>
        <time>2020-02-22T13:32:56Z</time>
      </trkpt>
      <trkpt lat="38.6649950" lon="1.5758670">
        <ele>122.1</ele>
        <time>2020-02-22T13:32:57Z</time>
      </trkpt>
      <trkpt lat="38.6649650" lon="1.5760270">
        <ele>122.1</ele>
        <time>2020-02-22T13:32:58Z</time>
      </trkpt>
      <trkpt lat="38.6649650" lon="1.5760270">
        <ele>122.1</ele>
        <time>2020-02-22T13:32:59Z</time>
      </trkpt>
      <trkpt lat="38.6649370" lon="1.5761820">
        <ele>122.1</ele>
        <time>2020-02-22T13:33:00Z</time>
      </trkpt>
      <trkpt lat="38.6649370" lon="1.5761820">
        <ele>122.1</ele>
        <time>2020-02-22T13:33:01Z</time>
      </trkpt>
      <trkpt lat="38.6649050" lon="1.5763330">
        <ele>122.1</ele>
        <time>2020-02-22T13:33:02Z</time>
      </trkpt>
      <trkpt lat="38.6648900" lon="1.5764080">
        <ele>122.1</ele>
        <time>2020-02-22T13:33:03Z</time>
      </trkpt>
      <trkpt lat="38.6648900" lon="1.5764080">
        <ele>121.1</ele>
        <time>2020-02-22T13:33:04Z</time>
      </trkpt>
      <trkpt lat="38.6648630" lon="1.5765580">
        <ele>121.1</ele>
        <time>2020-02-22T13:33:05Z</time>
      </trkpt>
      <trkpt lat="38.6648630" lon="1.5765580">
        <ele>121.1</ele>
        <time>2020-02-22T13:33:06Z</time>
      </trkpt>
      <trkpt lat="38.6648350" lon="1.5767070">
        <ele>121.1</ele>
        <time>2020-02-22T13:33:07Z</time>
      </trkpt>
      <trkpt lat="38.6648350" lon="1.5767070">
        <ele>121.1</ele>
        <time>2020-02-22T13:33:08Z</time>
      </trkpt>
      <trkpt lat="38.6648070" lon="1.5768580">
        <ele>121.1</ele>
        <time>2020-02-22T13:33:09Z</time>
      </trkpt>
      <trkpt lat="38.6648070" lon="1.5768580">
        <ele>121.1</ele>
        <time>2020-02-22T13:33:10Z</time>
      </trkpt>
      <trkpt lat="38.6647780" lon="1.5770130">
        <ele>121.1</ele>
        <time>2020-02-22T13:33:11Z</time>
      </trkpt>
      <trkpt lat="38.6647780" lon="1.5770130">
        <ele>121.1</ele>
        <time>2020-02-22T13:33:12Z</time>
      </trkpt>
      <trkpt lat="38.6647530" lon="1.5771800">
        <ele>120.1</ele>
        <time>2020-02-22T13:33:13Z</time>
      </trkpt>
      <trkpt lat="38.6647530" lon="1.5771800">
        <ele>120.1</ele>
        <time>2020-02-22T13:33:14Z</time>
      </trkpt>
      <trkpt lat="38.6647220" lon="1.5773530">
        <ele>120.1</ele>
        <time>2020-02-22T13:33:15Z</time>
      </trkpt>
      <trkpt lat="38.6647220" lon="1.5773530">
        <ele>120.1</ele>
        <time>2020-02-22T13:33:16Z</time>
      </trkpt>
      <trkpt lat="38.6646870" lon="1.5775300">
        <ele>120.1</ele>
        <time>2020-02-22T13:33:17Z</time>
      </trkpt>
      <trkpt lat="38.6646680" lon="1.5776180">
        <ele>120.1</ele>
        <time>2020-02-22T13:33:18Z</time>
      </trkpt>
      <trkpt lat="38.6646680" lon="1.5776180">
        <ele>120.1</ele>
        <time>2020-02-22T13:33:19Z</time>
      </trkpt>
      <trkpt lat="38.6646330" lon="1.5778020">
        <ele>120.1</ele>
        <time>2020-02-22T13:33:20Z</time>
      </trkpt>
      <trkpt lat="38.6646330" lon="1.5778020">
        <ele>120.1</ele>
        <time>2020-02-22T13:33:21Z</time>
      </trkpt>
      <trkpt lat="38.6646030" lon="1.5779850">
        <ele>120.1</ele>
        <time>2020-02-22T13:33:22Z</time>
      </trkpt>
      <trkpt lat="38.6646030" lon="1.5779850">
        <ele>120.1</ele>
        <time>2020-02-22T13:33:23Z</time>
      </trkpt>
      <trkpt lat="38.6645680" lon="1.5781630">
        <ele>120.1</ele>
        <time>2020-02-22T13:33:24Z</time>
      </trkpt>
      <trkpt lat="38.6645500" lon="1.5782520">
        <ele>120.1</ele>
        <time>2020-02-22T13:33:25Z</time>
      </trkpt>
      <trkpt lat="38.6645500" lon="1.5782520">
        <ele>120.1</ele>
        <time>2020-02-22T13:33:26Z</time>
      </trkpt>
      <trkpt lat="38.6645180" lon="1.5784300">
        <ele>120.1</ele>
        <time>2020-02-22T13:33:27Z</time>
      </trkpt>
      <trkpt lat="38.6645180" lon="1.5784300">
        <ele>120.1</ele>
        <time>2020-02-22T13:33:28Z</time>
      </trkpt>
      <trkpt lat="38.6644870" lon="1.5786050">
        <ele>120.1</ele>
        <time>2020-02-22T13:33:29Z</time>
      </trkpt>
      <trkpt lat="38.6644870" lon="1.5786050">
        <ele>120.1</ele>
        <time>2020-02-22T13:33:30Z</time>
      </trkpt>
      <trkpt lat="38.6644700" lon="1.5786930">
        <ele>120.1</ele>
        <time>2020-02-22T13:33:31Z</time>
      </trkpt>
      <trkpt lat="38.6644370" lon="1.5788750">
        <ele>119.1</ele>
        <time>2020-02-22T13:33:32Z</time>
      </trkpt>
      <trkpt lat="38.6644370" lon="1.5788750">
        <ele>119.1</ele>
        <time>2020-02-22T13:33:33Z</time>
      </trkpt>
      <trkpt lat="38.6644000" lon="1.5790580">
        <ele>119.1</ele>
        <time>2020-02-22T13:33:34Z</time>
      </trkpt>
      <trkpt lat="38.6644000" lon="1.5790580">
        <ele>119.1</ele>
        <time>2020-02-22T13:33:35Z</time>
      </trkpt>
      <trkpt lat="38.6643670" lon="1.5792480">
        <ele>119.1</ele>
        <time>2020-02-22T13:33:36Z</time>
      </trkpt>
      <trkpt lat="38.6643670" lon="1.5792480">
        <ele>119.1</ele>
        <time>2020-02-22T13:33:37Z</time>
      </trkpt>
      <trkpt lat="38.6643350" lon="1.5794420">
        <ele>119.1</ele>
        <time>2020-02-22T13:33:38Z</time>
      </trkpt>
      <trkpt lat="38.6643350" lon="1.5794420">
        <ele>119.1</ele>
        <time>2020-02-22T13:33:39Z</time>
      </trkpt>
      <trkpt lat="38.6643020" lon="1.5796370">
        <ele>118.1</ele>
        <time>2020-02-22T13:33:40Z</time>
      </trkpt>
      <trkpt lat="38.6643020" lon="1.5796370">
        <ele>118.1</ele>
        <time>2020-02-22T13:33:41Z</time>
      </trkpt>
      <trkpt lat="38.6642680" lon="1.5798230">
        <ele>118.1</ele>
        <time>2020-02-22T13:33:42Z</time>
      </trkpt>
      <trkpt lat="38.6642680" lon="1.5798230">
        <ele>118.1</ele>
        <time>2020-02-22T13:33:43Z</time>
      </trkpt>
      <trkpt lat="38.6642330" lon="1.5800070">
        <ele>118.1</ele>
        <time>2020-02-22T13:33:44Z</time>
      </trkpt>
      <trkpt lat="38.6642330" lon="1.5800070">
        <ele>118.1</ele>
        <time>2020-02-22T13:33:45Z</time>
      </trkpt>
      <trkpt lat="38.6642020" lon="1.5801880">
        <ele>118.1</ele>
        <time>2020-02-22T13:33:46Z</time>
      </trkpt>
      <trkpt lat="38.6642020" lon="1.5801880">
        <ele>118.1</ele>
        <time>2020-02-22T13:33:47Z</time>
      </trkpt>
      <trkpt lat="38.6641680" lon="1.5803770">
        <ele>118.1</ele>
        <time>2020-02-22T13:33:48Z</time>
      </trkpt>
      <trkpt lat="38.6641680" lon="1.5803770">
        <ele>118.1</ele>
        <time>2020-02-22T13:33:49Z</time>
      </trkpt>
      <trkpt lat="38.6641320" lon="1.5805700">
        <ele>118.1</ele>
        <time>2020-02-22T13:33:50Z</time>
      </trkpt>
      <trkpt lat="38.6641320" lon="1.5805700">
        <ele>118.1</ele>
        <time>2020-02-22T13:33:51Z</time>
      </trkpt>
      <trkpt lat="38.6641000" lon="1.5807550">
        <ele>118.1</ele>
        <time>2020-02-22T13:33:52Z</time>
      </trkpt>
      <trkpt lat="38.6640850" lon="1.5808430">
        <ele>118.1</ele>
        <time>2020-02-22T13:33:53Z</time>
      </trkpt>
      <trkpt lat="38.6640680" lon="1.5809320">
        <ele>118.1</ele>
        <time>2020-02-22T13:33:54Z</time>
      </trkpt>
      <trkpt lat="38.6640680" lon="1.5809320">
        <ele>117.1</ele>
        <time>2020-02-22T13:33:55Z</time>
      </trkpt>
      <trkpt lat="38.6640370" lon="1.5811080">
        <ele>117.1</ele>
        <time>2020-02-22T13:33:56Z</time>
      </trkpt>
      <trkpt lat="38.6640370" lon="1.5811080">
        <ele>117.1</ele>
        <time>2020-02-22T13:33:57Z</time>
      </trkpt>
      <trkpt lat="38.6640030" lon="1.5812820">
        <ele>117.1</ele>
        <time>2020-02-22T13:33:58Z</time>
      </trkpt>
      <trkpt lat="38.6640030" lon="1.5812820">
        <ele>117.1</ele>
        <time>2020-02-22T13:33:59Z</time>
      </trkpt>
      <trkpt lat="38.6639700" lon="1.5814520">
        <ele>117.1</ele>
        <time>2020-02-22T13:34:00Z</time>
      </trkpt>
      <trkpt lat="38.6639700" lon="1.5814520">
        <ele>117.1</ele>
        <time>2020-02-22T13:34:01Z</time>
      </trkpt>
      <trkpt lat="38.6639370" lon="1.5816200">
        <ele>117.1</ele>
        <time>2020-02-22T13:34:02Z</time>
      </trkpt>
      <trkpt lat="38.6639370" lon="1.5816200">
        <ele>117.1</ele>
        <time>2020-02-22T13:34:03Z</time>
      </trkpt>
      <trkpt lat="38.6639030" lon="1.5817900">
        <ele>117.1</ele>
        <time>2020-02-22T13:34:04Z</time>
      </trkpt>
      <trkpt lat="38.6639030" lon="1.5817900">
        <ele>117.1</ele>
        <time>2020-02-22T13:34:05Z</time>
      </trkpt>
      <trkpt lat="38.6638750" lon="1.5819600">
        <ele>117.1</ele>
        <time>2020-02-22T13:34:06Z</time>
      </trkpt>
      <trkpt lat="38.6638750" lon="1.5819600">
        <ele>117.1</ele>
        <time>2020-02-22T13:34:07Z</time>
      </trkpt>
      <trkpt lat="38.6638450" lon="1.5821270">
        <ele>117.1</ele>
        <time>2020-02-22T13:34:08Z</time>
      </trkpt>
      <trkpt lat="38.6638300" lon="1.5822080">
        <ele>117.1</ele>
        <time>2020-02-22T13:34:09Z</time>
      </trkpt>
      <trkpt lat="38.6638300" lon="1.5822080">
        <ele>117.1</ele>
        <time>2020-02-22T13:34:10Z</time>
      </trkpt>
      <trkpt lat="38.6638000" lon="1.5823680">
        <ele>117.1</ele>
        <time>2020-02-22T13:34:11Z</time>
      </trkpt>
      <trkpt lat="38.6637850" lon="1.5824470">
        <ele>117.1</ele>
        <time>2020-02-22T13:34:12Z</time>
      </trkpt>
      <trkpt lat="38.6637850" lon="1.5824470">
        <ele>117.1</ele>
        <time>2020-02-22T13:34:13Z</time>
      </trkpt>
      <trkpt lat="38.6637600" lon="1.5825970">
        <ele>117.1</ele>
        <time>2020-02-22T13:34:14Z</time>
      </trkpt>
      <trkpt lat="38.6637600" lon="1.5825970">
        <ele>117.1</ele>
        <time>2020-02-22T13:34:15Z</time>
      </trkpt>
      <trkpt lat="38.6637330" lon="1.5827400">
        <ele>117.1</ele>
        <time>2020-02-22T13:34:16Z</time>
      </trkpt>
      <trkpt lat="38.6637330" lon="1.5827400">
        <ele>117.1</ele>
        <time>2020-02-22T13:34:17Z</time>
      </trkpt>
      <trkpt lat="38.6637050" lon="1.5828830">
        <ele>117.1</ele>
        <time>2020-02-22T13:34:18Z</time>
      </trkpt>
      <trkpt lat="38.6637050" lon="1.5828830">
        <ele>117.1</ele>
        <time>2020-02-22T13:34:19Z</time>
      </trkpt>
      <trkpt lat="38.6636800" lon="1.5830270">
        <ele>117.1</ele>
        <time>2020-02-22T13:34:20Z</time>
      </trkpt>
      <trkpt lat="38.6636650" lon="1.5830980">
        <ele>116.1</ele>
        <time>2020-02-22T13:34:21Z</time>
      </trkpt>
      <trkpt lat="38.6636480" lon="1.5831630">
        <ele>116.1</ele>
        <time>2020-02-22T13:34:22Z</time>
      </trkpt>
      <trkpt lat="38.6636480" lon="1.5831630">
        <ele>116.1</ele>
        <time>2020-02-22T13:34:23Z</time>
      </trkpt>
      <trkpt lat="38.6636350" lon="1.5832630">
        <ele>116.1</ele>
        <time>2020-02-22T13:34:24Z</time>
      </trkpt>
      <trkpt lat="38.6636530" lon="1.5832870">
        <ele>116.1</ele>
        <time>2020-02-22T13:34:25Z</time>
      </trkpt>
      <trkpt lat="38.6636530" lon="1.5832870">
        <ele>116.1</ele>
        <time>2020-02-22T13:34:26Z</time>
      </trkpt>
      <trkpt lat="38.6636770" lon="1.5832450">
        <ele>116.1</ele>
        <time>2020-02-22T13:34:27Z</time>
      </trkpt>
      <trkpt lat="38.6636770" lon="1.5832450">
        <ele>116.1</ele>
        <time>2020-02-22T13:34:28Z</time>
      </trkpt>
      <trkpt lat="38.6636770" lon="1.5831820">
        <ele>116.1</ele>
        <time>2020-02-22T13:34:29Z</time>
      </trkpt>
      <trkpt lat="38.6636770" lon="1.5831820">
        <ele>116.1</ele>
        <time>2020-02-22T13:34:30Z</time>
      </trkpt>
      <trkpt lat="38.6636830" lon="1.5831250">
        <ele>116.1</ele>
        <time>2020-02-22T13:34:31Z</time>
      </trkpt>
      <trkpt lat="38.6636830" lon="1.5831250">
        <ele>116.1</ele>
        <time>2020-02-22T13:34:32Z</time>
      </trkpt>
      <trkpt lat="38.6636880" lon="1.5830730">
        <ele>116.1</ele>
        <time>2020-02-22T13:34:33Z</time>
      </trkpt>
      <trkpt lat="38.6636880" lon="1.5830730">
        <ele>116.1</ele>
        <time>2020-02-22T13:34:34Z</time>
      </trkpt>
      <trkpt lat="38.6636970" lon="1.5830230">
        <ele>116.1</ele>
        <time>2020-02-22T13:34:35Z</time>
      </trkpt>
      <trkpt lat="38.6636970" lon="1.5830230">
        <ele>116.1</ele>
        <time>2020-02-22T13:34:36Z</time>
      </trkpt>
      <trkpt lat="38.6637070" lon="1.5829720">
        <ele>116.1</ele>
        <time>2020-02-22T13:34:37Z</time>
      </trkpt>
      <trkpt lat="38.6637070" lon="1.5829720">
        <ele>116.1</ele>
        <time>2020-02-22T13:34:38Z</time>
      </trkpt>
      <trkpt lat="38.6637150" lon="1.5829170">
        <ele>116.1</ele>
        <time>2020-02-22T13:34:39Z</time>
      </trkpt>
      <trkpt lat="38.6637150" lon="1.5829170">
        <ele>116.1</ele>
        <time>2020-02-22T13:34:40Z</time>
      </trkpt>
      <trkpt lat="38.6637230" lon="1.5828620">
        <ele>116.1</ele>
        <time>2020-02-22T13:34:41Z</time>
      </trkpt>
      <trkpt lat="38.6637230" lon="1.5828620">
        <ele>116.1</ele>
        <time>2020-02-22T13:34:42Z</time>
      </trkpt>
      <trkpt lat="38.6637330" lon="1.5828120">
        <ele>116.1</ele>
        <time>2020-02-22T13:34:43Z</time>
      </trkpt>
      <trkpt lat="38.6637370" lon="1.5827880">
        <ele>116.1</ele>
        <time>2020-02-22T13:34:44Z</time>
      </trkpt>
      <trkpt lat="38.6637370" lon="1.5827880">
        <ele>116.1</ele>
        <time>2020-02-22T13:34:45Z</time>
      </trkpt>
      <trkpt lat="38.6637450" lon="1.5827380">
        <ele>116.1</ele>
        <time>2020-02-22T13:34:46Z</time>
      </trkpt>
      <trkpt lat="38.6637450" lon="1.5827380">
        <ele>116.1</ele>
        <time>2020-02-22T13:34:47Z</time>
      </trkpt>
      <trkpt lat="38.6637530" lon="1.5826880">
        <ele>116.1</ele>
        <time>2020-02-22T13:34:48Z</time>
      </trkpt>
      <trkpt lat="38.6637530" lon="1.5826880">
        <ele>116.1</ele>
        <time>2020-02-22T13:34:49Z</time>
      </trkpt>
      <trkpt lat="38.6637630" lon="1.5826380">
        <ele>116.1</ele>
        <time>2020-02-22T13:34:50Z</time>
      </trkpt>
      <trkpt lat="38.6637630" lon="1.5826380">
        <ele>116.1</ele>
        <time>2020-02-22T13:34:51Z</time>
      </trkpt>
      <trkpt lat="38.6637730" lon="1.5825850">
        <ele>116.1</ele>
        <time>2020-02-22T13:34:52Z</time>
      </trkpt>
      <trkpt lat="38.6637730" lon="1.5825850">
        <ele>116.1</ele>
        <time>2020-02-22T13:34:53Z</time>
      </trkpt>
      <trkpt lat="38.6637820" lon="1.5825220">
        <ele>116.1</ele>
        <time>2020-02-22T13:34:54Z</time>
      </trkpt>
      <trkpt lat="38.6637920" lon="1.5824880">
        <ele>116.1</ele>
        <time>2020-02-22T13:34:55Z</time>
      </trkpt>
      <trkpt lat="38.6637920" lon="1.5824880">
        <ele>116.1</ele>
        <time>2020-02-22T13:34:56Z</time>
      </trkpt>
      <trkpt lat="38.6638070" lon="1.5824270">
        <ele>116.1</ele>
        <time>2020-02-22T13:34:57Z</time>
      </trkpt>
      <trkpt lat="38.6638120" lon="1.5823970">
        <ele>116.1</ele>
        <time>2020-02-22T13:34:58Z</time>
      </trkpt>
      <trkpt lat="38.6638120" lon="1.5823970">
        <ele>116.1</ele>
        <time>2020-02-22T13:34:59Z</time>
      </trkpt>
      <trkpt lat="38.6638200" lon="1.5823400">
        <ele>116.1</ele>
        <time>2020-02-22T13:35:00Z</time>
      </trkpt>
      <trkpt lat="38.6638250" lon="1.5823150">
        <ele>117.1</ele>
        <time>2020-02-22T13:35:01Z</time>
      </trkpt>
      <trkpt lat="38.6638250" lon="1.5823150">
        <ele>117.1</ele>
        <time>2020-02-22T13:35:02Z</time>
      </trkpt>
      <trkpt lat="38.6638330" lon="1.5822750">
        <ele>117.1</ele>
        <time>2020-02-22T13:35:03Z</time>
      </trkpt>
      <trkpt lat="38.6638330" lon="1.5822750">
        <ele>117.1</ele>
        <time>2020-02-22T13:35:04Z</time>
      </trkpt>
      <trkpt lat="38.6638350" lon="1.5822400">
        <ele>117.1</ele>
        <time>2020-02-22T13:35:05Z</time>
      </trkpt>
      <trkpt lat="38.6638400" lon="1.5822270">
        <ele>117.1</ele>
        <time>2020-02-22T13:35:06Z</time>
      </trkpt>
      <trkpt lat="38.6638400" lon="1.5822270">
        <ele>117.1</ele>
        <time>2020-02-22T13:35:07Z</time>
      </trkpt>
      <trkpt lat="38.6638420" lon="1.5822000">
        <ele>117.1</ele>
        <time>2020-02-22T13:35:08Z</time>
      </trkpt>
      <trkpt lat="38.6638420" lon="1.5821870">
        <ele>117.1</ele>
        <time>2020-02-22T13:35:09Z</time>
      </trkpt>
      <trkpt lat="38.6638420" lon="1.5821870">
        <ele>117.1</ele>
        <time>2020-02-22T13:35:10Z</time>
      </trkpt>
      <trkpt lat="38.6638570" lon="1.5821670">
        <ele>117.1</ele>
        <time>2020-02-22T13:35:11Z</time>
      </trkpt>
      <trkpt lat="38.6638570" lon="1.5821670">
        <ele>117.1</ele>
        <time>2020-02-22T13:35:12Z</time>
      </trkpt>
      <trkpt lat="38.6638670" lon="1.5821380">
        <ele>117.1</ele>
        <time>2020-02-22T13:35:13Z</time>
      </trkpt>
      <trkpt lat="38.6638670" lon="1.5821220">
        <ele>117.1</ele>
        <time>2020-02-22T13:35:14Z</time>
      </trkpt>
      <trkpt lat="38.6638670" lon="1.5821220">
        <ele>117.1</ele>
        <time>2020-02-22T13:35:15Z</time>
      </trkpt>
      <trkpt lat="38.6638770" lon="1.5820820">
        <ele>117.1</ele>
        <time>2020-02-22T13:35:16Z</time>
      </trkpt>
      <trkpt lat="38.6638770" lon="1.5820820">
        <ele>117.1</ele>
        <time>2020-02-22T13:35:17Z</time>
      </trkpt>
      <trkpt lat="38.6638770" lon="1.5820250">
        <ele>117.1</ele>
        <time>2020-02-22T13:35:18Z</time>
      </trkpt>
      <trkpt lat="38.6638770" lon="1.5820250">
        <ele>117.1</ele>
        <time>2020-02-22T13:35:19Z</time>
      </trkpt>
      <trkpt lat="38.6638950" lon="1.5819470">
        <ele>117.1</ele>
        <time>2020-02-22T13:35:20Z</time>
      </trkpt>
      <trkpt lat="38.6638950" lon="1.5819470">
        <ele>117.1</ele>
        <time>2020-02-22T13:35:21Z</time>
      </trkpt>
      <trkpt lat="38.6639200" lon="1.5818550">
        <ele>117.1</ele>
        <time>2020-02-22T13:35:22Z</time>
      </trkpt>
      <trkpt lat="38.6639280" lon="1.5818080">
        <ele>117.1</ele>
        <time>2020-02-22T13:35:23Z</time>
      </trkpt>
      <trkpt lat="38.6639280" lon="1.5818080">
        <ele>117.1</ele>
        <time>2020-02-22T13:35:24Z</time>
      </trkpt>
      <trkpt lat="38.6639450" lon="1.5817100">
        <ele>117.1</ele>
        <time>2020-02-22T13:35:25Z</time>
      </trkpt>
      <trkpt lat="38.6639550" lon="1.5816580">
        <ele>117.1</ele>
        <time>2020-02-22T13:35:26Z</time>
      </trkpt>
      <trkpt lat="38.6639550" lon="1.5816580">
        <ele>117.1</ele>
        <time>2020-02-22T13:35:27Z</time>
      </trkpt>
      <trkpt lat="38.6639750" lon="1.5815520">
        <ele>117.1</ele>
        <time>2020-02-22T13:35:28Z</time>
      </trkpt>
      <trkpt lat="38.6639880" lon="1.5814980">
        <ele>117.1</ele>
        <time>2020-02-22T13:35:29Z</time>
      </trkpt>
      <trkpt lat="38.6639980" lon="1.5814500">
        <ele>117.1</ele>
        <time>2020-02-22T13:35:30Z</time>
      </trkpt>
      <trkpt lat="38.6639980" lon="1.5814500">
        <ele>117.1</ele>
        <time>2020-02-22T13:35:31Z</time>
      </trkpt>
      <trkpt lat="38.6640180" lon="1.5813480">
        <ele>117.1</ele>
        <time>2020-02-22T13:35:32Z</time>
      </trkpt>
      <trkpt lat="38.6640180" lon="1.5813480">
        <ele>117.1</ele>
        <time>2020-02-22T13:35:33Z</time>
      </trkpt>
      <trkpt lat="38.6640350" lon="1.5812380">
        <ele>117.1</ele>
        <time>2020-02-22T13:35:34Z</time>
      </trkpt>
      <trkpt lat="38.6640350" lon="1.5812380">
        <ele>117.1</ele>
        <time>2020-02-22T13:35:35Z</time>
      </trkpt>
      <trkpt lat="38.6640500" lon="1.5811270">
        <ele>117.1</ele>
        <time>2020-02-22T13:35:36Z</time>
      </trkpt>
      <trkpt lat="38.6640500" lon="1.5811270">
        <ele>117.1</ele>
        <time>2020-02-22T13:35:37Z</time>
      </trkpt>
      <trkpt lat="38.6640720" lon="1.5810230">
        <ele>117.1</ele>
        <time>2020-02-22T13:35:38Z</time>
      </trkpt>
      <trkpt lat="38.6640720" lon="1.5810230">
        <ele>117.1</ele>
        <time>2020-02-22T13:35:39Z</time>
      </trkpt>
      <trkpt lat="38.6640970" lon="1.5809220">
        <ele>117.1</ele>
        <time>2020-02-22T13:35:40Z</time>
      </trkpt>
      <trkpt lat="38.6640970" lon="1.5809220">
        <ele>117.1</ele>
        <time>2020-02-22T13:35:41Z</time>
      </trkpt>
      <trkpt lat="38.6641180" lon="1.5808100">
        <ele>117.1</ele>
        <time>2020-02-22T13:35:42Z</time>
      </trkpt>
      <trkpt lat="38.6641180" lon="1.5808100">
        <ele>117.1</ele>
        <time>2020-02-22T13:35:43Z</time>
      </trkpt>
      <trkpt lat="38.6641380" lon="1.5806870">
        <ele>117.1</ele>
        <time>2020-02-22T13:35:44Z</time>
      </trkpt>
      <trkpt lat="38.6641380" lon="1.5806870">
        <ele>117.1</ele>
        <time>2020-02-22T13:35:45Z</time>
      </trkpt>
      <trkpt lat="38.6641580" lon="1.5805630">
        <ele>117.1</ele>
        <time>2020-02-22T13:35:46Z</time>
      </trkpt>
      <trkpt lat="38.6641680" lon="1.5805000">
        <ele>117.1</ele>
        <time>2020-02-22T13:35:47Z</time>
      </trkpt>
      <trkpt lat="38.6641820" lon="1.5804370">
        <ele>117.1</ele>
        <time>2020-02-22T13:35:48Z</time>
      </trkpt>
      <trkpt lat="38.6641820" lon="1.5804370">
        <ele>117.1</ele>
        <time>2020-02-22T13:35:49Z</time>
      </trkpt>
      <trkpt lat="38.6642050" lon="1.5803100">
        <ele>117.1</ele>
        <time>2020-02-22T13:35:50Z</time>
      </trkpt>
      <trkpt lat="38.6642050" lon="1.5803100">
        <ele>117.1</ele>
        <time>2020-02-22T13:35:51Z</time>
      </trkpt>
      <trkpt lat="38.6642280" lon="1.5801870">
        <ele>117.1</ele>
        <time>2020-02-22T13:35:52Z</time>
      </trkpt>
      <trkpt lat="38.6642380" lon="1.5801250">
        <ele>118.1</ele>
        <time>2020-02-22T13:35:53Z</time>
      </trkpt>
      <trkpt lat="38.6642380" lon="1.5801250">
        <ele>118.1</ele>
        <time>2020-02-22T13:35:54Z</time>
      </trkpt>
      <trkpt lat="38.6642600" lon="1.5799900">
        <ele>118.1</ele>
        <time>2020-02-22T13:35:55Z</time>
      </trkpt>
      <trkpt lat="38.6642680" lon="1.5799230">
        <ele>118.1</ele>
        <time>2020-02-22T13:35:56Z</time>
      </trkpt>
      <trkpt lat="38.6642680" lon="1.5799230">
        <ele>118.1</ele>
        <time>2020-02-22T13:35:57Z</time>
      </trkpt>
      <trkpt lat="38.6642930" lon="1.5797930">
        <ele>118.1</ele>
        <time>2020-02-22T13:35:58Z</time>
      </trkpt>
      <trkpt lat="38.6642930" lon="1.5797930">
        <ele>118.1</ele>
        <time>2020-02-22T13:35:59Z</time>
      </trkpt>
      <trkpt lat="38.6643180" lon="1.5796550">
        <ele>118.1</ele>
        <time>2020-02-22T13:36:00Z</time>
      </trkpt>
      <trkpt lat="38.6643180" lon="1.5796550">
        <ele>118.1</ele>
        <time>2020-02-22T13:36:01Z</time>
      </trkpt>
      <trkpt lat="38.6643400" lon="1.5795230">
        <ele>118.1</ele>
        <time>2020-02-22T13:36:02Z</time>
      </trkpt>
      <trkpt lat="38.6643520" lon="1.5794570">
        <ele>118.1</ele>
        <time>2020-02-22T13:36:03Z</time>
      </trkpt>
      <trkpt lat="38.6643520" lon="1.5794570">
        <ele>118.1</ele>
        <time>2020-02-22T13:36:04Z</time>
      </trkpt>
      <trkpt lat="38.6643770" lon="1.5793220">
        <ele>118.1</ele>
        <time>2020-02-22T13:36:05Z</time>
      </trkpt>
      <trkpt lat="38.6643900" lon="1.5792570">
        <ele>118.1</ele>
        <time>2020-02-22T13:36:06Z</time>
      </trkpt>
      <trkpt lat="38.6643900" lon="1.5792570">
        <ele>118.1</ele>
        <time>2020-02-22T13:36:07Z</time>
      </trkpt>
      <trkpt lat="38.6644170" lon="1.5791230">
        <ele>118.1</ele>
        <time>2020-02-22T13:36:08Z</time>
      </trkpt>
      <trkpt lat="38.6644300" lon="1.5790550">
        <ele>118.1</ele>
        <time>2020-02-22T13:36:09Z</time>
      </trkpt>
      <trkpt lat="38.6644300" lon="1.5790550">
        <ele>118.1</ele>
        <time>2020-02-22T13:36:10Z</time>
      </trkpt>
      <trkpt lat="38.6644520" lon="1.5789200">
        <ele>118.1</ele>
        <time>2020-02-22T13:36:11Z</time>
      </trkpt>
      <trkpt lat="38.6644630" lon="1.5788570">
        <ele>118.1</ele>
        <time>2020-02-22T13:36:12Z</time>
      </trkpt>
      <trkpt lat="38.6644630" lon="1.5788570">
        <ele>118.1</ele>
        <time>2020-02-22T13:36:13Z</time>
      </trkpt>
      <trkpt lat="38.6644900" lon="1.5787270">
        <ele>118.1</ele>
        <time>2020-02-22T13:36:14Z</time>
      </trkpt>
      <trkpt lat="38.6644900" lon="1.5787270">
        <ele>118.1</ele>
        <time>2020-02-22T13:36:15Z</time>
      </trkpt>
      <trkpt lat="38.6645130" lon="1.5785900">
        <ele>118.1</ele>
        <time>2020-02-22T13:36:16Z</time>
      </trkpt>
      <trkpt lat="38.6645130" lon="1.5785900">
        <ele>118.1</ele>
        <time>2020-02-22T13:36:17Z</time>
      </trkpt>
      <trkpt lat="38.6645420" lon="1.5784580">
        <ele>118.1</ele>
        <time>2020-02-22T13:36:18Z</time>
      </trkpt>
      <trkpt lat="38.6645420" lon="1.5784580">
        <ele>118.1</ele>
        <time>2020-02-22T13:36:19Z</time>
      </trkpt>
      <trkpt lat="38.6645670" lon="1.5783220">
        <ele>118.1</ele>
        <time>2020-02-22T13:36:20Z</time>
      </trkpt>
      <trkpt lat="38.6645670" lon="1.5783220">
        <ele>118.1</ele>
        <time>2020-02-22T13:36:21Z</time>
      </trkpt>
      <trkpt lat="38.6645920" lon="1.5781850">
        <ele>118.1</ele>
        <time>2020-02-22T13:36:22Z</time>
      </trkpt>
      <trkpt lat="38.6645920" lon="1.5781850">
        <ele>119.1</ele>
        <time>2020-02-22T13:36:23Z</time>
      </trkpt>
      <trkpt lat="38.6646150" lon="1.5780470">
        <ele>119.1</ele>
        <time>2020-02-22T13:36:24Z</time>
      </trkpt>
      <trkpt lat="38.6646150" lon="1.5780470">
        <ele>119.1</ele>
        <time>2020-02-22T13:36:25Z</time>
      </trkpt>
      <trkpt lat="38.6646380" lon="1.5779120">
        <ele>119.1</ele>
        <time>2020-02-22T13:36:26Z</time>
      </trkpt>
      <trkpt lat="38.6646520" lon="1.5778430">
        <ele>119.1</ele>
        <time>2020-02-22T13:36:27Z</time>
      </trkpt>
      <trkpt lat="38.6646520" lon="1.5778430">
        <ele>119.1</ele>
        <time>2020-02-22T13:36:28Z</time>
      </trkpt>
      <trkpt lat="38.6646780" lon="1.5777100">
        <ele>119.1</ele>
        <time>2020-02-22T13:36:29Z</time>
      </trkpt>
      <trkpt lat="38.6646900" lon="1.5776430">
        <ele>119.1</ele>
        <time>2020-02-22T13:36:30Z</time>
      </trkpt>
      <trkpt lat="38.6646900" lon="1.5776430">
        <ele>119.1</ele>
        <time>2020-02-22T13:36:31Z</time>
      </trkpt>
      <trkpt lat="38.6647150" lon="1.5775120">
        <ele>119.1</ele>
        <time>2020-02-22T13:36:32Z</time>
      </trkpt>
      <trkpt lat="38.6647150" lon="1.5775120">
        <ele>119.1</ele>
        <time>2020-02-22T13:36:33Z</time>
      </trkpt>
      <trkpt lat="38.6647380" lon="1.5773820">
        <ele>119.1</ele>
        <time>2020-02-22T13:36:34Z</time>
      </trkpt>
      <trkpt lat="38.6647380" lon="1.5773820">
        <ele>119.1</ele>
        <time>2020-02-22T13:36:35Z</time>
      </trkpt>
      <trkpt lat="38.6647620" lon="1.5772530">
        <ele>120.1</ele>
        <time>2020-02-22T13:36:36Z</time>
      </trkpt>
      <trkpt lat="38.6647620" lon="1.5772530">
        <ele>120.1</ele>
        <time>2020-02-22T13:36:37Z</time>
      </trkpt>
      <trkpt lat="38.6647850" lon="1.5771230">
        <ele>120.1</ele>
        <time>2020-02-22T13:36:38Z</time>
      </trkpt>
      <trkpt lat="38.6647850" lon="1.5771230">
        <ele>120.1</ele>
        <time>2020-02-22T13:36:39Z</time>
      </trkpt>
      <trkpt lat="38.6648100" lon="1.5769930">
        <ele>120.1</ele>
        <time>2020-02-22T13:36:40Z</time>
      </trkpt>
      <trkpt lat="38.6648100" lon="1.5769930">
        <ele>120.1</ele>
        <time>2020-02-22T13:36:41Z</time>
      </trkpt>
      <trkpt lat="38.6648370" lon="1.5768570">
        <ele>120.1</ele>
        <time>2020-02-22T13:36:42Z</time>
      </trkpt>
      <trkpt lat="38.6648370" lon="1.5768570">
        <ele>120.1</ele>
        <time>2020-02-22T13:36:43Z</time>
      </trkpt>
      <trkpt lat="38.6648620" lon="1.5767270">
        <ele>120.1</ele>
        <time>2020-02-22T13:36:44Z</time>
      </trkpt>
      <trkpt lat="38.6648620" lon="1.5767270">
        <ele>120.1</ele>
        <time>2020-02-22T13:36:45Z</time>
      </trkpt>
      <trkpt lat="38.6648880" lon="1.5765880">
        <ele>120.1</ele>
        <time>2020-02-22T13:36:46Z</time>
      </trkpt>
      <trkpt lat="38.6648880" lon="1.5765880">
        <ele>120.1</ele>
        <time>2020-02-22T13:36:47Z</time>
      </trkpt>
      <trkpt lat="38.6649120" lon="1.5764470">
        <ele>120.1</ele>
        <time>2020-02-22T13:36:48Z</time>
      </trkpt>
      <trkpt lat="38.6649120" lon="1.5764470">
        <ele>120.1</ele>
        <time>2020-02-22T13:36:49Z</time>
      </trkpt>
      <trkpt lat="38.6649330" lon="1.5763050">
        <ele>120.1</ele>
        <time>2020-02-22T13:36:50Z</time>
      </trkpt>
      <trkpt lat="38.6649330" lon="1.5763050">
        <ele>120.1</ele>
        <time>2020-02-22T13:36:51Z</time>
      </trkpt>
      <trkpt lat="38.6649620" lon="1.5761600">
        <ele>120.1</ele>
        <time>2020-02-22T13:36:52Z</time>
      </trkpt>
      <trkpt lat="38.6649620" lon="1.5761600">
        <ele>120.1</ele>
        <time>2020-02-22T13:36:53Z</time>
      </trkpt>
      <trkpt lat="38.6649870" lon="1.5760150">
        <ele>121.1</ele>
        <time>2020-02-22T13:36:54Z</time>
      </trkpt>
      <trkpt lat="38.6649870" lon="1.5760150">
        <ele>121.1</ele>
        <time>2020-02-22T13:36:55Z</time>
      </trkpt>
      <trkpt lat="38.6650170" lon="1.5758700">
        <ele>121.1</ele>
        <time>2020-02-22T13:36:56Z</time>
      </trkpt>
      <trkpt lat="38.6650280" lon="1.5758000">
        <ele>121.1</ele>
        <time>2020-02-22T13:36:57Z</time>
      </trkpt>
      <trkpt lat="38.6650400" lon="1.5757280">
        <ele>121.1</ele>
        <time>2020-02-22T13:36:58Z</time>
      </trkpt>
      <trkpt lat="38.6650400" lon="1.5757280">
        <ele>121.1</ele>
        <time>2020-02-22T13:36:59Z</time>
      </trkpt>
      <trkpt lat="38.6650650" lon="1.5755850">
        <ele>121.1</ele>
        <time>2020-02-22T13:37:00Z</time>
      </trkpt>
      <trkpt lat="38.6650650" lon="1.5755850">
        <ele>121.1</ele>
        <time>2020-02-22T13:37:01Z</time>
      </trkpt>
      <trkpt lat="38.6650880" lon="1.5754470">
        <ele>121.1</ele>
        <time>2020-02-22T13:37:02Z</time>
      </trkpt>
      <trkpt lat="38.6650880" lon="1.5754470">
        <ele>121.1</ele>
        <time>2020-02-22T13:37:03Z</time>
      </trkpt>
      <trkpt lat="38.6651130" lon="1.5753070">
        <ele>121.1</ele>
        <time>2020-02-22T13:37:04Z</time>
      </trkpt>
      <trkpt lat="38.6651130" lon="1.5753070">
        <ele>121.1</ele>
        <time>2020-02-22T13:37:05Z</time>
      </trkpt>
      <trkpt lat="38.6651400" lon="1.5751700">
        <ele>121.1</ele>
        <time>2020-02-22T13:37:06Z</time>
      </trkpt>
      <trkpt lat="38.6651400" lon="1.5751700">
        <ele>121.1</ele>
        <time>2020-02-22T13:37:07Z</time>
      </trkpt>
      <trkpt lat="38.6651670" lon="1.5750320">
        <ele>121.1</ele>
        <time>2020-02-22T13:37:08Z</time>
      </trkpt>
      <trkpt lat="38.6651820" lon="1.5749600">
        <ele>121.1</ele>
        <time>2020-02-22T13:37:09Z</time>
      </trkpt>
      <trkpt lat="38.6651820" lon="1.5749600">
        <ele>121.1</ele>
        <time>2020-02-22T13:37:10Z</time>
      </trkpt>
      <trkpt lat="38.6652080" lon="1.5748170">
        <ele>121.1</ele>
        <time>2020-02-22T13:37:11Z</time>
      </trkpt>
      <trkpt lat="38.6652080" lon="1.5748170">
        <ele>121.1</ele>
        <time>2020-02-22T13:37:12Z</time>
      </trkpt>
      <trkpt lat="38.6652320" lon="1.5746720">
        <ele>121.1</ele>
        <time>2020-02-22T13:37:13Z</time>
      </trkpt>
      <trkpt lat="38.6652320" lon="1.5746720">
        <ele>121.1</ele>
        <time>2020-02-22T13:37:14Z</time>
      </trkpt>
      <trkpt lat="38.6652600" lon="1.5745200">
        <ele>121.1</ele>
        <time>2020-02-22T13:37:15Z</time>
      </trkpt>
      <trkpt lat="38.6652600" lon="1.5745200">
        <ele>121.1</ele>
        <time>2020-02-22T13:37:16Z</time>
      </trkpt>
      <trkpt lat="38.6652850" lon="1.5743720">
        <ele>121.1</ele>
        <time>2020-02-22T13:37:17Z</time>
      </trkpt>
      <trkpt lat="38.6652980" lon="1.5743030">
        <ele>121.1</ele>
        <time>2020-02-22T13:37:18Z</time>
      </trkpt>
      <trkpt lat="38.6652980" lon="1.5743030">
        <ele>121.1</ele>
        <time>2020-02-22T13:37:19Z</time>
      </trkpt>
      <trkpt lat="38.6653220" lon="1.5741670">
        <ele>121.1</ele>
        <time>2020-02-22T13:37:20Z</time>
      </trkpt>
      <trkpt lat="38.6653330" lon="1.5740950">
        <ele>121.1</ele>
        <time>2020-02-22T13:37:21Z</time>
      </trkpt>
      <trkpt lat="38.6653330" lon="1.5740950">
        <ele>121.1</ele>
        <time>2020-02-22T13:37:22Z</time>
      </trkpt>
      <trkpt lat="38.6653580" lon="1.5739550">
        <ele>121.1</ele>
        <time>2020-02-22T13:37:23Z</time>
      </trkpt>
      <trkpt lat="38.6653720" lon="1.5738870">
        <ele>121.1</ele>
        <time>2020-02-22T13:37:24Z</time>
      </trkpt>
      <trkpt lat="38.6653720" lon="1.5738870">
        <ele>121.1</ele>
        <time>2020-02-22T13:37:25Z</time>
      </trkpt>
      <trkpt lat="38.6653980" lon="1.5737480">
        <ele>121.1</ele>
        <time>2020-02-22T13:37:26Z</time>
      </trkpt>
      <trkpt lat="38.6653980" lon="1.5737480">
        <ele>121.1</ele>
        <time>2020-02-22T13:37:27Z</time>
      </trkpt>
      <trkpt lat="38.6654250" lon="1.5736070">
        <ele>121.1</ele>
        <time>2020-02-22T13:37:28Z</time>
      </trkpt>
      <trkpt lat="38.6654370" lon="1.5735350">
        <ele>121.1</ele>
        <time>2020-02-22T13:37:29Z</time>
      </trkpt>
      <trkpt lat="38.6654520" lon="1.5734650">
        <ele>121.1</ele>
        <time>2020-02-22T13:37:30Z</time>
      </trkpt>
      <trkpt lat="38.6654520" lon="1.5734650">
        <ele>121.1</ele>
        <time>2020-02-22T13:37:31Z</time>
      </trkpt>
      <trkpt lat="38.6654770" lon="1.5733230">
        <ele>121.1</ele>
        <time>2020-02-22T13:37:32Z</time>
      </trkpt>
      <trkpt lat="38.6654880" lon="1.5732530">
        <ele>121.1</ele>
        <time>2020-02-22T13:37:33Z</time>
      </trkpt>
      <trkpt lat="38.6654880" lon="1.5732530">
        <ele>121.1</ele>
        <time>2020-02-22T13:37:34Z</time>
      </trkpt>
      <trkpt lat="38.6655130" lon="1.5731120">
        <ele>121.1</ele>
        <time>2020-02-22T13:37:35Z</time>
      </trkpt>
      <trkpt lat="38.6655250" lon="1.5730380">
        <ele>121.1</ele>
        <time>2020-02-22T13:37:36Z</time>
      </trkpt>
      <trkpt lat="38.6655250" lon="1.5730380">
        <ele>121.1</ele>
        <time>2020-02-22T13:37:37Z</time>
      </trkpt>
      <trkpt lat="38.6655520" lon="1.5728920">
        <ele>121.1</ele>
        <time>2020-02-22T13:37:38Z</time>
      </trkpt>
      <trkpt lat="38.6655520" lon="1.5728920">
        <ele>122.1</ele>
        <time>2020-02-22T13:37:39Z</time>
      </trkpt>
      <trkpt lat="38.6655800" lon="1.5727450">
        <ele>122.1</ele>
        <time>2020-02-22T13:37:40Z</time>
      </trkpt>
      <trkpt lat="38.6655800" lon="1.5727450">
        <ele>122.1</ele>
        <time>2020-02-22T13:37:41Z</time>
      </trkpt>
      <trkpt lat="38.6656050" lon="1.5726020">
        <ele>122.1</ele>
        <time>2020-02-22T13:37:42Z</time>
      </trkpt>
      <trkpt lat="38.6656170" lon="1.5725320">
        <ele>122.1</ele>
        <time>2020-02-22T13:37:43Z</time>
      </trkpt>
      <trkpt lat="38.6656170" lon="1.5725320">
        <ele>122.1</ele>
        <time>2020-02-22T13:37:44Z</time>
      </trkpt>
      <trkpt lat="38.6656430" lon="1.5723920">
        <ele>122.1</ele>
        <time>2020-02-22T13:37:45Z</time>
      </trkpt>
      <trkpt lat="38.6656580" lon="1.5723220">
        <ele>122.1</ele>
        <time>2020-02-22T13:37:46Z</time>
      </trkpt>
      <trkpt lat="38.6656580" lon="1.5723220">
        <ele>122.1</ele>
        <time>2020-02-22T13:37:47Z</time>
      </trkpt>
      <trkpt lat="38.6656870" lon="1.5721850">
        <ele>122.1</ele>
        <time>2020-02-22T13:37:48Z</time>
      </trkpt>
      <trkpt lat="38.6656870" lon="1.5721850">
        <ele>122.1</ele>
        <time>2020-02-22T13:37:49Z</time>
      </trkpt>
      <trkpt lat="38.6657130" lon="1.5720400">
        <ele>122.1</ele>
        <time>2020-02-22T13:37:50Z</time>
      </trkpt>
      <trkpt lat="38.6657130" lon="1.5720400">
        <ele>122.1</ele>
        <time>2020-02-22T13:37:51Z</time>
      </trkpt>
      <trkpt lat="38.6657420" lon="1.5718900">
        <ele>122.1</ele>
        <time>2020-02-22T13:37:52Z</time>
      </trkpt>
      <trkpt lat="38.6657570" lon="1.5718130">
        <ele>122.1</ele>
        <time>2020-02-22T13:37:53Z</time>
      </trkpt>
      <trkpt lat="38.6657750" lon="1.5717350">
        <ele>122.1</ele>
        <time>2020-02-22T13:37:54Z</time>
      </trkpt>
      <trkpt lat="38.6657750" lon="1.5717350">
        <ele>122.1</ele>
        <time>2020-02-22T13:37:55Z</time>
      </trkpt>
      <trkpt lat="38.6658030" lon="1.5715850">
        <ele>122.1</ele>
        <time>2020-02-22T13:37:56Z</time>
      </trkpt>
      <trkpt lat="38.6658130" lon="1.5715120">
        <ele>122.1</ele>
        <time>2020-02-22T13:37:57Z</time>
      </trkpt>
      <trkpt lat="38.6658130" lon="1.5715120">
        <ele>122.1</ele>
        <time>2020-02-22T13:37:58Z</time>
      </trkpt>
      <trkpt lat="38.6658400" lon="1.5713670">
        <ele>122.1</ele>
        <time>2020-02-22T13:37:59Z</time>
      </trkpt>
      <trkpt lat="38.6658550" lon="1.5712880">
        <ele>122.1</ele>
        <time>2020-02-22T13:38:00Z</time>
      </trkpt>
      <trkpt lat="38.6658680" lon="1.5712100">
        <ele>122.1</ele>
        <time>2020-02-22T13:38:01Z</time>
      </trkpt>
      <trkpt lat="38.6658680" lon="1.5712100">
        <ele>122.1</ele>
        <time>2020-02-22T13:38:02Z</time>
      </trkpt>
      <trkpt lat="38.6658970" lon="1.5710580">
        <ele>122.1</ele>
        <time>2020-02-22T13:38:03Z</time>
      </trkpt>
      <trkpt lat="38.6658970" lon="1.5710580">
        <ele>123.1</ele>
        <time>2020-02-22T13:38:04Z</time>
      </trkpt>
      <trkpt lat="38.6659230" lon="1.5709170">
        <ele>123.1</ele>
        <time>2020-02-22T13:38:05Z</time>
      </trkpt>
      <trkpt lat="38.6659370" lon="1.5708470">
        <ele>123.1</ele>
        <time>2020-02-22T13:38:06Z</time>
      </trkpt>
      <trkpt lat="38.6659370" lon="1.5708470">
        <ele>123.1</ele>
        <time>2020-02-22T13:38:07Z</time>
      </trkpt>
      <trkpt lat="38.6659630" lon="1.5707050">
        <ele>123.1</ele>
        <time>2020-02-22T13:38:08Z</time>
      </trkpt>
      <trkpt lat="38.6659770" lon="1.5706350">
        <ele>123.1</ele>
        <time>2020-02-22T13:38:09Z</time>
      </trkpt>
      <trkpt lat="38.6659770" lon="1.5706350">
        <ele>123.1</ele>
        <time>2020-02-22T13:38:10Z</time>
      </trkpt>
      <trkpt lat="38.6660020" lon="1.5704970">
        <ele>123.1</ele>
        <time>2020-02-22T13:38:11Z</time>
      </trkpt>
      <trkpt lat="38.6660020" lon="1.5704970">
        <ele>123.1</ele>
        <time>2020-02-22T13:38:12Z</time>
      </trkpt>
      <trkpt lat="38.6660250" lon="1.5703650">
        <ele>123.1</ele>
        <time>2020-02-22T13:38:13Z</time>
      </trkpt>
      <trkpt lat="38.6660250" lon="1.5703650">
        <ele>123.1</ele>
        <time>2020-02-22T13:38:14Z</time>
      </trkpt>
      <trkpt lat="38.6660480" lon="1.5702420">
        <ele>123.1</ele>
        <time>2020-02-22T13:38:15Z</time>
      </trkpt>
      <trkpt lat="38.6660480" lon="1.5702420">
        <ele>123.1</ele>
        <time>2020-02-22T13:38:16Z</time>
      </trkpt>
      <trkpt lat="38.6660700" lon="1.5701200">
        <ele>124.1</ele>
        <time>2020-02-22T13:38:17Z</time>
      </trkpt>
      <trkpt lat="38.6660800" lon="1.5700600">
        <ele>124.1</ele>
        <time>2020-02-22T13:38:18Z</time>
      </trkpt>
      <trkpt lat="38.6660800" lon="1.5700600">
        <ele>124.1</ele>
        <time>2020-02-22T13:38:19Z</time>
      </trkpt>
      <trkpt lat="38.6661030" lon="1.5699420">
        <ele>124.1</ele>
        <time>2020-02-22T13:38:20Z</time>
      </trkpt>
      <trkpt lat="38.6661030" lon="1.5699420">
        <ele>124.1</ele>
        <time>2020-02-22T13:38:21Z</time>
      </trkpt>
      <trkpt lat="38.6661270" lon="1.5698230">
        <ele>124.1</ele>
        <time>2020-02-22T13:38:22Z</time>
      </trkpt>
      <trkpt lat="38.6661370" lon="1.5697670">
        <ele>124.1</ele>
        <time>2020-02-22T13:38:23Z</time>
      </trkpt>
      <trkpt lat="38.6661470" lon="1.5697080">
        <ele>124.1</ele>
        <time>2020-02-22T13:38:24Z</time>
      </trkpt>
      <trkpt lat="38.6661470" lon="1.5697080">
        <ele>124.1</ele>
        <time>2020-02-22T13:38:25Z</time>
      </trkpt>
      <trkpt lat="38.6661600" lon="1.5695930">
        <ele>124.1</ele>
        <time>2020-02-22T13:38:26Z</time>
      </trkpt>
      <trkpt lat="38.6661600" lon="1.5695930">
        <ele>124.1</ele>
        <time>2020-02-22T13:38:27Z</time>
      </trkpt>
      <trkpt lat="38.6661800" lon="1.5694850">
        <ele>124.1</ele>
        <time>2020-02-22T13:38:28Z</time>
      </trkpt>
      <trkpt lat="38.6661800" lon="1.5694850">
        <ele>124.1</ele>
        <time>2020-02-22T13:38:29Z</time>
      </trkpt>
      <trkpt lat="38.6662000" lon="1.5693680">
        <ele>124.1</ele>
        <time>2020-02-22T13:38:30Z</time>
      </trkpt>
      <trkpt lat="38.6662000" lon="1.5693680">
        <ele>124.1</ele>
        <time>2020-02-22T13:38:31Z</time>
      </trkpt>
      <trkpt lat="38.6662230" lon="1.5692430">
        <ele>124.1</ele>
        <time>2020-02-22T13:38:32Z</time>
      </trkpt>
      <trkpt lat="38.6662380" lon="1.5691780">
        <ele>124.1</ele>
        <time>2020-02-22T13:38:33Z</time>
      </trkpt>
      <trkpt lat="38.6662380" lon="1.5691780">
        <ele>124.1</ele>
        <time>2020-02-22T13:38:34Z</time>
      </trkpt>
      <trkpt lat="38.6662620" lon="1.5690530">
        <ele>124.1</ele>
        <time>2020-02-22T13:38:35Z</time>
      </trkpt>
      <trkpt lat="38.6662720" lon="1.5689930">
        <ele>124.1</ele>
        <time>2020-02-22T13:38:36Z</time>
      </trkpt>
      <trkpt lat="38.6662720" lon="1.5689930">
        <ele>124.1</ele>
        <time>2020-02-22T13:38:37Z</time>
      </trkpt>
      <trkpt lat="38.6662920" lon="1.5688720">
        <ele>124.1</ele>
        <time>2020-02-22T13:38:38Z</time>
      </trkpt>
      <trkpt lat="38.6663030" lon="1.5688120">
        <ele>124.1</ele>
        <time>2020-02-22T13:38:39Z</time>
      </trkpt>
      <trkpt lat="38.6663150" lon="1.5687520">
        <ele>124.1</ele>
        <time>2020-02-22T13:38:40Z</time>
      </trkpt>
      <trkpt lat="38.6663150" lon="1.5687520">
        <ele>125.1</ele>
        <time>2020-02-22T13:38:41Z</time>
      </trkpt>
      <trkpt lat="38.6663380" lon="1.5686320">
        <ele>125.1</ele>
        <time>2020-02-22T13:38:42Z</time>
      </trkpt>
      <trkpt lat="38.6663380" lon="1.5686320">
        <ele>125.1</ele>
        <time>2020-02-22T13:38:43Z</time>
      </trkpt>
      <trkpt lat="38.6663620" lon="1.5685120">
        <ele>125.1</ele>
        <time>2020-02-22T13:38:44Z</time>
      </trkpt>
      <trkpt lat="38.6663730" lon="1.5684520">
        <ele>125.1</ele>
        <time>2020-02-22T13:38:45Z</time>
      </trkpt>
      <trkpt lat="38.6663850" lon="1.5683920">
        <ele>125.1</ele>
        <time>2020-02-22T13:38:46Z</time>
      </trkpt>
      <trkpt lat="38.6663850" lon="1.5683920">
        <ele>125.1</ele>
        <time>2020-02-22T13:38:47Z</time>
      </trkpt>
      <trkpt lat="38.6664080" lon="1.5682720">
        <ele>125.1</ele>
        <time>2020-02-22T13:38:48Z</time>
      </trkpt>
      <trkpt lat="38.6664200" lon="1.5682130">
        <ele>125.1</ele>
        <time>2020-02-22T13:38:49Z</time>
      </trkpt>
      <trkpt lat="38.6664300" lon="1.5681550">
        <ele>125.1</ele>
        <time>2020-02-22T13:38:50Z</time>
      </trkpt>
      <trkpt lat="38.6664300" lon="1.5681550">
        <ele>125.1</ele>
        <time>2020-02-22T13:38:51Z</time>
      </trkpt>
      <trkpt lat="38.6664520" lon="1.5680400">
        <ele>125.1</ele>
        <time>2020-02-22T13:38:52Z</time>
      </trkpt>
      <trkpt lat="38.6664520" lon="1.5680400">
        <ele>125.1</ele>
        <time>2020-02-22T13:38:53Z</time>
      </trkpt>
      <trkpt lat="38.6664720" lon="1.5679280">
        <ele>125.1</ele>
        <time>2020-02-22T13:38:54Z</time>
      </trkpt>
      <trkpt lat="38.6664720" lon="1.5679280">
        <ele>125.1</ele>
        <time>2020-02-22T13:38:55Z</time>
      </trkpt>
      <trkpt lat="38.6664980" lon="1.5678180">
        <ele>125.1</ele>
        <time>2020-02-22T13:38:56Z</time>
      </trkpt>
      <trkpt lat="38.6664980" lon="1.5678180">
        <ele>125.1</ele>
        <time>2020-02-22T13:38:57Z</time>
      </trkpt>
      <trkpt lat="38.6665170" lon="1.5677100">
        <ele>125.1</ele>
        <time>2020-02-22T13:38:58Z</time>
      </trkpt>
      <trkpt lat="38.6665170" lon="1.5677100">
        <ele>125.1</ele>
        <time>2020-02-22T13:38:59Z</time>
      </trkpt>
      <trkpt lat="38.6665350" lon="1.5676020">
        <ele>125.1</ele>
        <time>2020-02-22T13:39:00Z</time>
      </trkpt>
      <trkpt lat="38.6665350" lon="1.5676020">
        <ele>125.1</ele>
        <time>2020-02-22T13:39:01Z</time>
      </trkpt>
      <trkpt lat="38.6665550" lon="1.5674970">
        <ele>125.1</ele>
        <time>2020-02-22T13:39:02Z</time>
      </trkpt>
      <trkpt lat="38.6665550" lon="1.5674970">
        <ele>125.1</ele>
        <time>2020-02-22T13:39:03Z</time>
      </trkpt>
      <trkpt lat="38.6665730" lon="1.5673930">
        <ele>126.1</ele>
        <time>2020-02-22T13:39:04Z</time>
      </trkpt>
      <trkpt lat="38.6665730" lon="1.5673930">
        <ele>126.1</ele>
        <time>2020-02-22T13:39:05Z</time>
      </trkpt>
      <trkpt lat="38.6665900" lon="1.5672950">
        <ele>126.1</ele>
        <time>2020-02-22T13:39:06Z</time>
      </trkpt>
      <trkpt lat="38.6665900" lon="1.5672950">
        <ele>126.1</ele>
        <time>2020-02-22T13:39:07Z</time>
      </trkpt>
      <trkpt lat="38.6666050" lon="1.5672000">
        <ele>126.1</ele>
        <time>2020-02-22T13:39:08Z</time>
      </trkpt>
      <trkpt lat="38.6666120" lon="1.5671550">
        <ele>126.1</ele>
        <time>2020-02-22T13:39:09Z</time>
      </trkpt>
      <trkpt lat="38.6666120" lon="1.5671550">
        <ele>126.1</ele>
        <time>2020-02-22T13:39:10Z</time>
      </trkpt>
      <trkpt lat="38.6666280" lon="1.5670650">
        <ele>126.1</ele>
        <time>2020-02-22T13:39:11Z</time>
      </trkpt>
      <trkpt lat="38.6666370" lon="1.5670200">
        <ele>126.1</ele>
        <time>2020-02-22T13:39:12Z</time>
      </trkpt>
      <trkpt lat="38.6666370" lon="1.5670200">
        <ele>126.1</ele>
        <time>2020-02-22T13:39:13Z</time>
      </trkpt>
      <trkpt lat="38.6666530" lon="1.5669280">
        <ele>126.1</ele>
        <time>2020-02-22T13:39:14Z</time>
      </trkpt>
      <trkpt lat="38.6666530" lon="1.5669280">
        <ele>126.1</ele>
        <time>2020-02-22T13:39:15Z</time>
      </trkpt>
      <trkpt lat="38.6666720" lon="1.5668370">
        <ele>126.1</ele>
        <time>2020-02-22T13:39:16Z</time>
      </trkpt>
      <trkpt lat="38.6666720" lon="1.5668370">
        <ele>126.1</ele>
        <time>2020-02-22T13:39:17Z</time>
      </trkpt>
      <trkpt lat="38.6666880" lon="1.5667420">
        <ele>126.1</ele>
        <time>2020-02-22T13:39:18Z</time>
      </trkpt>
      <trkpt lat="38.6666880" lon="1.5667420">
        <ele>126.1</ele>
        <time>2020-02-22T13:39:19Z</time>
      </trkpt>
      <trkpt lat="38.6667030" lon="1.5666480">
        <ele>126.1</ele>
        <time>2020-02-22T13:39:20Z</time>
      </trkpt>
      <trkpt lat="38.6667120" lon="1.5666020">
        <ele>126.1</ele>
        <time>2020-02-22T13:39:21Z</time>
      </trkpt>
      <trkpt lat="38.6667120" lon="1.5666020">
        <ele>126.1</ele>
        <time>2020-02-22T13:39:22Z</time>
      </trkpt>
      <trkpt lat="38.6667270" lon="1.5665100">
        <ele>126.1</ele>
        <time>2020-02-22T13:39:23Z</time>
      </trkpt>
      <trkpt lat="38.6667350" lon="1.5664650">
        <ele>126.1</ele>
        <time>2020-02-22T13:39:24Z</time>
      </trkpt>
      <trkpt lat="38.6667350" lon="1.5664650">
        <ele>126.1</ele>
        <time>2020-02-22T13:39:25Z</time>
      </trkpt>
      <trkpt lat="38.6667550" lon="1.5663770">
        <ele>126.1</ele>
        <time>2020-02-22T13:39:26Z</time>
      </trkpt>
      <trkpt lat="38.6667550" lon="1.5663770">
        <ele>126.1</ele>
        <time>2020-02-22T13:39:27Z</time>
      </trkpt>
      <trkpt lat="38.6667700" lon="1.5662850">
        <ele>127.1</ele>
        <time>2020-02-22T13:39:28Z</time>
      </trkpt>
      <trkpt lat="38.6667700" lon="1.5662850">
        <ele>127.1</ele>
        <time>2020-02-22T13:39:29Z</time>
      </trkpt>
      <trkpt lat="38.6667850" lon="1.5661930">
        <ele>127.1</ele>
        <time>2020-02-22T13:39:30Z</time>
      </trkpt>
      <trkpt lat="38.6667850" lon="1.5661930">
        <ele>127.1</ele>
        <time>2020-02-22T13:39:31Z</time>
      </trkpt>
      <trkpt lat="38.6668030" lon="1.5661070">
        <ele>127.1</ele>
        <time>2020-02-22T13:39:32Z</time>
      </trkpt>
      <trkpt lat="38.6668030" lon="1.5661070">
        <ele>127.1</ele>
        <time>2020-02-22T13:39:33Z</time>
      </trkpt>
      <trkpt lat="38.6668220" lon="1.5660200">
        <ele>127.1</ele>
        <time>2020-02-22T13:39:34Z</time>
      </trkpt>
      <trkpt lat="38.6668220" lon="1.5660200">
        <ele>127.1</ele>
        <time>2020-02-22T13:39:35Z</time>
      </trkpt>
      <trkpt lat="38.6668400" lon="1.5659300">
        <ele>128.1</ele>
        <time>2020-02-22T13:39:36Z</time>
      </trkpt>
      <trkpt lat="38.6668400" lon="1.5659300">
        <ele>128.1</ele>
        <time>2020-02-22T13:39:37Z</time>
      </trkpt>
      <trkpt lat="38.6668580" lon="1.5658400">
        <ele>128.1</ele>
        <time>2020-02-22T13:39:38Z</time>
      </trkpt>
      <trkpt lat="38.6668580" lon="1.5658400">
        <ele>128.1</ele>
        <time>2020-02-22T13:39:39Z</time>
      </trkpt>
      <trkpt lat="38.6668770" lon="1.5657480">
        <ele>128.1</ele>
        <time>2020-02-22T13:39:40Z</time>
      </trkpt>
      <trkpt lat="38.6668770" lon="1.5657480">
        <ele>128.1</ele>
        <time>2020-02-22T13:39:41Z</time>
      </trkpt>
      <trkpt lat="38.6668950" lon="1.5656580">
        <ele>128.1</ele>
        <time>2020-02-22T13:39:42Z</time>
      </trkpt>
      <trkpt lat="38.6668950" lon="1.5656580">
        <ele>128.1</ele>
        <time>2020-02-22T13:39:43Z</time>
      </trkpt>
      <trkpt lat="38.6669100" lon="1.5655700">
        <ele>128.1</ele>
        <time>2020-02-22T13:39:44Z</time>
      </trkpt>
      <trkpt lat="38.6669100" lon="1.5655700">
        <ele>128.1</ele>
        <time>2020-02-22T13:39:45Z</time>
      </trkpt>
      <trkpt lat="38.6669270" lon="1.5654820">
        <ele>128.1</ele>
        <time>2020-02-22T13:39:46Z</time>
      </trkpt>
      <trkpt lat="38.6669270" lon="1.5654820">
        <ele>128.1</ele>
        <time>2020-02-22T13:39:47Z</time>
      </trkpt>
      <trkpt lat="38.6669430" lon="1.5653950">
        <ele>128.1</ele>
        <time>2020-02-22T13:39:48Z</time>
      </trkpt>
      <trkpt lat="38.6669430" lon="1.5653950">
        <ele>128.1</ele>
        <time>2020-02-22T13:39:49Z</time>
      </trkpt>
      <trkpt lat="38.6669600" lon="1.5653080">
        <ele>128.1</ele>
        <time>2020-02-22T13:39:50Z</time>
      </trkpt>
      <trkpt lat="38.6669600" lon="1.5653080">
        <ele>128.1</ele>
        <time>2020-02-22T13:39:51Z</time>
      </trkpt>
      <trkpt lat="38.6669770" lon="1.5652200">
        <ele>128.1</ele>
        <time>2020-02-22T13:39:52Z</time>
      </trkpt>
      <trkpt lat="38.6669770" lon="1.5652200">
        <ele>129.1</ele>
        <time>2020-02-22T13:39:53Z</time>
      </trkpt>
      <trkpt lat="38.6669920" lon="1.5651350">
        <ele>129.1</ele>
        <time>2020-02-22T13:39:54Z</time>
      </trkpt>
      <trkpt lat="38.6669920" lon="1.5651350">
        <ele>129.1</ele>
        <time>2020-02-22T13:39:55Z</time>
      </trkpt>
      <trkpt lat="38.6670080" lon="1.5650480">
        <ele>129.1</ele>
        <time>2020-02-22T13:39:56Z</time>
      </trkpt>
      <trkpt lat="38.6670080" lon="1.5650480">
        <ele>129.1</ele>
        <time>2020-02-22T13:39:57Z</time>
      </trkpt>
      <trkpt lat="38.6670250" lon="1.5649600">
        <ele>129.1</ele>
        <time>2020-02-22T13:39:58Z</time>
      </trkpt>
      <trkpt lat="38.6670250" lon="1.5649600">
        <ele>129.1</ele>
        <time>2020-02-22T13:39:59Z</time>
      </trkpt>
      <trkpt lat="38.6670430" lon="1.5648720">
        <ele>129.1</ele>
        <time>2020-02-22T13:40:00Z</time>
      </trkpt>
      <trkpt lat="38.6670530" lon="1.5648280">
        <ele>129.1</ele>
        <time>2020-02-22T13:40:01Z</time>
      </trkpt>
      <trkpt lat="38.6670600" lon="1.5647850">
        <ele>129.1</ele>
        <time>2020-02-22T13:40:02Z</time>
      </trkpt>
      <trkpt lat="38.6670600" lon="1.5647850">
        <ele>129.1</ele>
        <time>2020-02-22T13:40:03Z</time>
      </trkpt>
      <trkpt lat="38.6670770" lon="1.5647000">
        <ele>129.1</ele>
        <time>2020-02-22T13:40:04Z</time>
      </trkpt>
      <trkpt lat="38.6670770" lon="1.5647000">
        <ele>129.1</ele>
        <time>2020-02-22T13:40:05Z</time>
      </trkpt>
      <trkpt lat="38.6670920" lon="1.5646200">
        <ele>129.1</ele>
        <time>2020-02-22T13:40:06Z</time>
      </trkpt>
      <trkpt lat="38.6670920" lon="1.5646200">
        <ele>129.1</ele>
        <time>2020-02-22T13:40:07Z</time>
      </trkpt>
      <trkpt lat="38.6671070" lon="1.5645400">
        <ele>129.1</ele>
        <time>2020-02-22T13:40:08Z</time>
      </trkpt>
      <trkpt lat="38.6671130" lon="1.5644980">
        <ele>129.1</ele>
        <time>2020-02-22T13:40:09Z</time>
      </trkpt>
      <trkpt lat="38.6671130" lon="1.5644980">
        <ele>129.1</ele>
        <time>2020-02-22T13:40:10Z</time>
      </trkpt>
      <trkpt lat="38.6671270" lon="1.5644170">
        <ele>129.1</ele>
        <time>2020-02-22T13:40:11Z</time>
      </trkpt>
      <trkpt lat="38.6671270" lon="1.5644170">
        <ele>129.1</ele>
        <time>2020-02-22T13:40:12Z</time>
      </trkpt>
      <trkpt lat="38.6671400" lon="1.5643330">
        <ele>129.1</ele>
        <time>2020-02-22T13:40:13Z</time>
      </trkpt>
      <trkpt lat="38.6671470" lon="1.5642880">
        <ele>129.1</ele>
        <time>2020-02-22T13:40:14Z</time>
      </trkpt>
      <trkpt lat="38.6671470" lon="1.5642880">
        <ele>129.1</ele>
        <time>2020-02-22T13:40:15Z</time>
      </trkpt>
      <trkpt lat="38.6671700" lon="1.5641800">
        <ele>129.1</ele>
        <time>2020-02-22T13:40:16Z</time>
      </trkpt>
      <trkpt lat="38.6671700" lon="1.5641800">
        <ele>130.1</ele>
        <time>2020-02-22T13:40:17Z</time>
      </trkpt>
      <trkpt lat="38.6671930" lon="1.5640580">
        <ele>130.1</ele>
        <time>2020-02-22T13:40:18Z</time>
      </trkpt>
      <trkpt lat="38.6671930" lon="1.5640580">
        <ele>130.1</ele>
        <time>2020-02-22T13:40:19Z</time>
      </trkpt>
      <trkpt lat="38.6672150" lon="1.5639370">
        <ele>130.1</ele>
        <time>2020-02-22T13:40:20Z</time>
      </trkpt>
      <trkpt lat="38.6672150" lon="1.5639370">
        <ele>130.1</ele>
        <time>2020-02-22T13:40:21Z</time>
      </trkpt>
      <trkpt lat="38.6672400" lon="1.5638150">
        <ele>130.1</ele>
        <time>2020-02-22T13:40:22Z</time>
      </trkpt>
      <trkpt lat="38.6672400" lon="1.5638150">
        <ele>130.1</ele>
        <time>2020-02-22T13:40:23Z</time>
      </trkpt>
      <trkpt lat="38.6672620" lon="1.5636950">
        <ele>130.1</ele>
        <time>2020-02-22T13:40:24Z</time>
      </trkpt>
      <trkpt lat="38.6672620" lon="1.5636950">
        <ele>131.1</ele>
        <time>2020-02-22T13:40:25Z</time>
      </trkpt>
      <trkpt lat="38.6672830" lon="1.5635700">
        <ele>131.1</ele>
        <time>2020-02-22T13:40:26Z</time>
      </trkpt>
      <trkpt lat="38.6672830" lon="1.5635700">
        <ele>131.1</ele>
        <time>2020-02-22T13:40:27Z</time>
      </trkpt>
      <trkpt lat="38.6673050" lon="1.5634430">
        <ele>131.1</ele>
        <time>2020-02-22T13:40:28Z</time>
      </trkpt>
      <trkpt lat="38.6673050" lon="1.5634430">
        <ele>131.1</ele>
        <time>2020-02-22T13:40:29Z</time>
      </trkpt>
      <trkpt lat="38.6673280" lon="1.5633220">
        <ele>131.1</ele>
        <time>2020-02-22T13:40:30Z</time>
      </trkpt>
      <trkpt lat="38.6673280" lon="1.5633220">
        <ele>132.1</ele>
        <time>2020-02-22T13:40:31Z</time>
      </trkpt>
      <trkpt lat="38.6673500" lon="1.5631950">
        <ele>132.1</ele>
        <time>2020-02-22T13:40:32Z</time>
      </trkpt>
      <trkpt lat="38.6673500" lon="1.5631950">
        <ele>132.1</ele>
        <time>2020-02-22T13:40:33Z</time>
      </trkpt>
      <trkpt lat="38.6673720" lon="1.5630720">
        <ele>132.1</ele>
        <time>2020-02-22T13:40:34Z</time>
      </trkpt>
      <trkpt lat="38.6673720" lon="1.5630720">
        <ele>132.1</ele>
        <time>2020-02-22T13:40:35Z</time>
      </trkpt>
      <trkpt lat="38.6673950" lon="1.5629470">
        <ele>132.1</ele>
        <time>2020-02-22T13:40:36Z</time>
      </trkpt>
      <trkpt lat="38.6673950" lon="1.5629470">
        <ele>132.1</ele>
        <time>2020-02-22T13:40:37Z</time>
      </trkpt>
      <trkpt lat="38.6674180" lon="1.5628220">
        <ele>133.1</ele>
        <time>2020-02-22T13:40:38Z</time>
      </trkpt>
      <trkpt lat="38.6674180" lon="1.5628220">
        <ele>133.1</ele>
        <time>2020-02-22T13:40:39Z</time>
      </trkpt>
      <trkpt lat="38.6674420" lon="1.5626970">
        <ele>133.1</ele>
        <time>2020-02-22T13:40:40Z</time>
      </trkpt>
      <trkpt lat="38.6674420" lon="1.5626970">
        <ele>133.1</ele>
        <time>2020-02-22T13:40:41Z</time>
      </trkpt>
      <trkpt lat="38.6674650" lon="1.5625730">
        <ele>133.1</ele>
        <time>2020-02-22T13:40:42Z</time>
      </trkpt>
      <trkpt lat="38.6674650" lon="1.5625730">
        <ele>133.1</ele>
        <time>2020-02-22T13:40:43Z</time>
      </trkpt>
      <trkpt lat="38.6674880" lon="1.5624520">
        <ele>134.1</ele>
        <time>2020-02-22T13:40:44Z</time>
      </trkpt>
      <trkpt lat="38.6674880" lon="1.5624520">
        <ele>134.1</ele>
        <time>2020-02-22T13:40:45Z</time>
      </trkpt>
      <trkpt lat="38.6675070" lon="1.5623280">
        <ele>134.1</ele>
        <time>2020-02-22T13:40:46Z</time>
      </trkpt>
      <trkpt lat="38.6675170" lon="1.5622670">
        <ele>134.1</ele>
        <time>2020-02-22T13:40:47Z</time>
      </trkpt>
      <trkpt lat="38.6675170" lon="1.5622670">
        <ele>134.1</ele>
        <time>2020-02-22T13:40:48Z</time>
      </trkpt>
      <trkpt lat="38.6675420" lon="1.5621530">
        <ele>134.1</ele>
        <time>2020-02-22T13:40:49Z</time>
      </trkpt>
      <trkpt lat="38.6675550" lon="1.5620930">
        <ele>134.1</ele>
        <time>2020-02-22T13:40:50Z</time>
      </trkpt>
      <trkpt lat="38.6675550" lon="1.5620930">
        <ele>134.1</ele>
        <time>2020-02-22T13:40:51Z</time>
      </trkpt>
      <trkpt lat="38.6675820" lon="1.5619720">
        <ele>135.1</ele>
        <time>2020-02-22T13:40:52Z</time>
      </trkpt>
      <trkpt lat="38.6675820" lon="1.5619720">
        <ele>135.1</ele>
        <time>2020-02-22T13:40:53Z</time>
      </trkpt>
      <trkpt lat="38.6676030" lon="1.5618530">
        <ele>135.1</ele>
        <time>2020-02-22T13:40:54Z</time>
      </trkpt>
      <trkpt lat="38.6676030" lon="1.5618530">
        <ele>135.1</ele>
        <time>2020-02-22T13:40:55Z</time>
      </trkpt>
      <trkpt lat="38.6676230" lon="1.5617330">
        <ele>135.1</ele>
        <time>2020-02-22T13:40:56Z</time>
      </trkpt>
      <trkpt lat="38.6676230" lon="1.5617330">
        <ele>135.1</ele>
        <time>2020-02-22T13:40:57Z</time>
      </trkpt>
      <trkpt lat="38.6676430" lon="1.5616130">
        <ele>135.1</ele>
        <time>2020-02-22T13:40:58Z</time>
      </trkpt>
      <trkpt lat="38.6676430" lon="1.5616130">
        <ele>135.1</ele>
        <time>2020-02-22T13:40:59Z</time>
      </trkpt>
      <trkpt lat="38.6676620" lon="1.5614930">
        <ele>135.1</ele>
        <time>2020-02-22T13:41:00Z</time>
      </trkpt>
      <trkpt lat="38.6676620" lon="1.5614930">
        <ele>135.1</ele>
        <time>2020-02-22T13:41:01Z</time>
      </trkpt>
      <trkpt lat="38.6676820" lon="1.5613800">
        <ele>135.1</ele>
        <time>2020-02-22T13:41:02Z</time>
      </trkpt>
      <trkpt lat="38.6676820" lon="1.5613800">
        <ele>135.1</ele>
        <time>2020-02-22T13:41:03Z</time>
      </trkpt>
      <trkpt lat="38.6677050" lon="1.5612570">
        <ele>135.1</ele>
        <time>2020-02-22T13:41:04Z</time>
      </trkpt>
      <trkpt lat="38.6677130" lon="1.5611970">
        <ele>136.1</ele>
        <time>2020-02-22T13:41:05Z</time>
      </trkpt>
      <trkpt lat="38.6677130" lon="1.5611970">
        <ele>136.1</ele>
        <time>2020-02-22T13:41:06Z</time>
      </trkpt>
      <trkpt lat="38.6677350" lon="1.5610820">
        <ele>136.1</ele>
        <time>2020-02-22T13:41:07Z</time>
      </trkpt>
      <trkpt lat="38.6677350" lon="1.5610820">
        <ele>136.1</ele>
        <time>2020-02-22T13:41:08Z</time>
      </trkpt>
      <trkpt lat="38.6677580" lon="1.5609650">
        <ele>136.1</ele>
        <time>2020-02-22T13:41:09Z</time>
      </trkpt>
      <trkpt lat="38.6677580" lon="1.5609650">
        <ele>137.1</ele>
        <time>2020-02-22T13:41:10Z</time>
      </trkpt>
      <trkpt lat="38.6677830" lon="1.5608470">
        <ele>137.1</ele>
        <time>2020-02-22T13:41:11Z</time>
      </trkpt>
      <trkpt lat="38.6677970" lon="1.5607900">
        <ele>137.1</ele>
        <time>2020-02-22T13:41:12Z</time>
      </trkpt>
      <trkpt lat="38.6677970" lon="1.5607900">
        <ele>138.1</ele>
        <time>2020-02-22T13:41:13Z</time>
      </trkpt>
      <trkpt lat="38.6678170" lon="1.5606720">
        <ele>138.1</ele>
        <time>2020-02-22T13:41:14Z</time>
      </trkpt>
      <trkpt lat="38.6678170" lon="1.5606720">
        <ele>138.1</ele>
        <time>2020-02-22T13:41:15Z</time>
      </trkpt>
      <trkpt lat="38.6678380" lon="1.5605550">
        <ele>138.1</ele>
        <time>2020-02-22T13:41:16Z</time>
      </trkpt>
      <trkpt lat="38.6678380" lon="1.5605550">
        <ele>138.1</ele>
        <time>2020-02-22T13:41:17Z</time>
      </trkpt>
      <trkpt lat="38.6678600" lon="1.5604370">
        <ele>138.1</ele>
        <time>2020-02-22T13:41:18Z</time>
      </trkpt>
      <trkpt lat="38.6678600" lon="1.5604370">
        <ele>138.1</ele>
        <time>2020-02-22T13:41:19Z</time>
      </trkpt>
      <trkpt lat="38.6678780" lon="1.5603170">
        <ele>138.1</ele>
        <time>2020-02-22T13:41:20Z</time>
      </trkpt>
      <trkpt lat="38.6678870" lon="1.5602570">
        <ele>138.1</ele>
        <time>2020-02-22T13:41:21Z</time>
      </trkpt>
      <trkpt lat="38.6678870" lon="1.5602570">
        <ele>138.1</ele>
        <time>2020-02-22T13:41:22Z</time>
      </trkpt>
      <trkpt lat="38.6679050" lon="1.5601420">
        <ele>138.1</ele>
        <time>2020-02-22T13:41:23Z</time>
      </trkpt>
      <trkpt lat="38.6679130" lon="1.5600830">
        <ele>139.1</ele>
        <time>2020-02-22T13:41:24Z</time>
      </trkpt>
      <trkpt lat="38.6679130" lon="1.5600830">
        <ele>139.1</ele>
        <time>2020-02-22T13:41:25Z</time>
      </trkpt>
      <trkpt lat="38.6679330" lon="1.5599670">
        <ele>139.1</ele>
        <time>2020-02-22T13:41:26Z</time>
      </trkpt>
      <trkpt lat="38.6679330" lon="1.5599670">
        <ele>139.1</ele>
        <time>2020-02-22T13:41:27Z</time>
      </trkpt>
      <trkpt lat="38.6679550" lon="1.5598520">
        <ele>140.1</ele>
        <time>2020-02-22T13:41:28Z</time>
      </trkpt>
      <trkpt lat="38.6679550" lon="1.5598520">
        <ele>140.1</ele>
        <time>2020-02-22T13:41:29Z</time>
      </trkpt>
      <trkpt lat="38.6679770" lon="1.5597370">
        <ele>140.1</ele>
        <time>2020-02-22T13:41:30Z</time>
      </trkpt>
      <trkpt lat="38.6679770" lon="1.5597370">
        <ele>140.1</ele>
        <time>2020-02-22T13:41:31Z</time>
      </trkpt>
      <trkpt lat="38.6679980" lon="1.5596220">
        <ele>140.1</ele>
        <time>2020-02-22T13:41:32Z</time>
      </trkpt>
      <trkpt lat="38.6679980" lon="1.5596220">
        <ele>140.1</ele>
        <time>2020-02-22T13:41:33Z</time>
      </trkpt>
      <trkpt lat="38.6680200" lon="1.5595050">
        <ele>140.1</ele>
        <time>2020-02-22T13:41:34Z</time>
      </trkpt>
      <trkpt lat="38.6680300" lon="1.5594450">
        <ele>140.1</ele>
        <time>2020-02-22T13:41:35Z</time>
      </trkpt>
      <trkpt lat="38.6680380" lon="1.5593830">
        <ele>140.1</ele>
        <time>2020-02-22T13:41:36Z</time>
      </trkpt>
      <trkpt lat="38.6680380" lon="1.5593830">
        <ele>140.1</ele>
        <time>2020-02-22T13:41:37Z</time>
      </trkpt>
      <trkpt lat="38.6680570" lon="1.5592630">
        <ele>140.1</ele>
        <time>2020-02-22T13:41:38Z</time>
      </trkpt>
      <trkpt lat="38.6680570" lon="1.5592630">
        <ele>140.1</ele>
        <time>2020-02-22T13:41:39Z</time>
      </trkpt>
      <trkpt lat="38.6680780" lon="1.5591420">
        <ele>140.1</ele>
        <time>2020-02-22T13:41:40Z</time>
      </trkpt>
      <trkpt lat="38.6680780" lon="1.5591420">
        <ele>140.1</ele>
        <time>2020-02-22T13:41:41Z</time>
      </trkpt>
      <trkpt lat="38.6681000" lon="1.5590230">
        <ele>140.1</ele>
        <time>2020-02-22T13:41:42Z</time>
      </trkpt>
      <trkpt lat="38.6681000" lon="1.5590230">
        <ele>141.1</ele>
        <time>2020-02-22T13:41:43Z</time>
      </trkpt>
      <trkpt lat="38.6681220" lon="1.5589050">
        <ele>141.1</ele>
        <time>2020-02-22T13:41:44Z</time>
      </trkpt>
      <trkpt lat="38.6681300" lon="1.5588470">
        <ele>141.1</ele>
        <time>2020-02-22T13:41:45Z</time>
      </trkpt>
      <trkpt lat="38.6681300" lon="1.5588470">
        <ele>141.1</ele>
        <time>2020-02-22T13:41:46Z</time>
      </trkpt>
      <trkpt lat="38.6681550" lon="1.5587280">
        <ele>141.1</ele>
        <time>2020-02-22T13:41:47Z</time>
      </trkpt>
      <trkpt lat="38.6681670" lon="1.5586680">
        <ele>141.1</ele>
        <time>2020-02-22T13:41:48Z</time>
      </trkpt>
      <trkpt lat="38.6681670" lon="1.5586680">
        <ele>141.1</ele>
        <time>2020-02-22T13:41:49Z</time>
      </trkpt>
      <trkpt lat="38.6681850" lon="1.5585480">
        <ele>141.1</ele>
        <time>2020-02-22T13:41:50Z</time>
      </trkpt>
      <trkpt lat="38.6681850" lon="1.5585480">
        <ele>141.1</ele>
        <time>2020-02-22T13:41:51Z</time>
      </trkpt>
      <trkpt lat="38.6682030" lon="1.5584300">
        <ele>141.1</ele>
        <time>2020-02-22T13:41:52Z</time>
      </trkpt>
      <trkpt lat="38.6682030" lon="1.5584300">
        <ele>141.1</ele>
        <time>2020-02-22T13:41:53Z</time>
      </trkpt>
      <trkpt lat="38.6682230" lon="1.5583100">
        <ele>141.1</ele>
        <time>2020-02-22T13:41:54Z</time>
      </trkpt>
      <trkpt lat="38.6682320" lon="1.5582520">
        <ele>141.1</ele>
        <time>2020-02-22T13:41:55Z</time>
      </trkpt>
      <trkpt lat="38.6682320" lon="1.5582520">
        <ele>141.1</ele>
        <time>2020-02-22T13:41:56Z</time>
      </trkpt>
      <trkpt lat="38.6682530" lon="1.5581400">
        <ele>141.1</ele>
        <time>2020-02-22T13:41:57Z</time>
      </trkpt>
      <trkpt lat="38.6682530" lon="1.5581400">
        <ele>142.1</ele>
        <time>2020-02-22T13:41:58Z</time>
      </trkpt>
      <trkpt lat="38.6682770" lon="1.5580230">
        <ele>142.1</ele>
        <time>2020-02-22T13:41:59Z</time>
      </trkpt>
      <trkpt lat="38.6682870" lon="1.5579680">
        <ele>142.1</ele>
        <time>2020-02-22T13:42:00Z</time>
      </trkpt>
      <trkpt lat="38.6682870" lon="1.5579680">
        <ele>142.1</ele>
        <time>2020-02-22T13:42:01Z</time>
      </trkpt>
      <trkpt lat="38.6683100" lon="1.5578500">
        <ele>142.1</ele>
        <time>2020-02-22T13:42:02Z</time>
      </trkpt>
      <trkpt lat="38.6683100" lon="1.5578500">
        <ele>142.1</ele>
        <time>2020-02-22T13:42:03Z</time>
      </trkpt>
      <trkpt lat="38.6683330" lon="1.5577320">
        <ele>142.1</ele>
        <time>2020-02-22T13:42:04Z</time>
      </trkpt>
      <trkpt lat="38.6683450" lon="1.5576700">
        <ele>142.1</ele>
        <time>2020-02-22T13:42:05Z</time>
      </trkpt>
      <trkpt lat="38.6683550" lon="1.5576120">
        <ele>142.1</ele>
        <time>2020-02-22T13:42:06Z</time>
      </trkpt>
      <trkpt lat="38.6683550" lon="1.5576120">
        <ele>142.1</ele>
        <time>2020-02-22T13:42:07Z</time>
      </trkpt>
      <trkpt lat="38.6683780" lon="1.5574950">
        <ele>143.1</ele>
        <time>2020-02-22T13:42:08Z</time>
      </trkpt>
      <trkpt lat="38.6683880" lon="1.5574420">
        <ele>143.1</ele>
        <time>2020-02-22T13:42:09Z</time>
      </trkpt>
      <trkpt lat="38.6683880" lon="1.5574420">
        <ele>143.1</ele>
        <time>2020-02-22T13:42:10Z</time>
      </trkpt>
      <trkpt lat="38.6684100" lon="1.5573430">
        <ele>143.1</ele>
        <time>2020-02-22T13:42:11Z</time>
      </trkpt>
      <trkpt lat="38.6684200" lon="1.5572950">
        <ele>143.1</ele>
        <time>2020-02-22T13:42:12Z</time>
      </trkpt>
      <trkpt lat="38.6684200" lon="1.5572950">
        <ele>143.1</ele>
        <time>2020-02-22T13:42:13Z</time>
      </trkpt>
      <trkpt lat="38.6684370" lon="1.5572100">
        <ele>143.1</ele>
        <time>2020-02-22T13:42:14Z</time>
      </trkpt>
      <trkpt lat="38.6684430" lon="1.5571720">
        <ele>143.1</ele>
        <time>2020-02-22T13:42:15Z</time>
      </trkpt>
      <trkpt lat="38.6684480" lon="1.5571350">
        <ele>143.1</ele>
        <time>2020-02-22T13:42:16Z</time>
      </trkpt>
      <trkpt lat="38.6684480" lon="1.5571350">
        <ele>143.1</ele>
        <time>2020-02-22T13:42:17Z</time>
      </trkpt>
      <trkpt lat="38.6684620" lon="1.5570630">
        <ele>143.1</ele>
        <time>2020-02-22T13:42:18Z</time>
      </trkpt>
      <trkpt lat="38.6684620" lon="1.5570630">
        <ele>143.1</ele>
        <time>2020-02-22T13:42:19Z</time>
      </trkpt>
      <trkpt lat="38.6684750" lon="1.5569950">
        <ele>143.1</ele>
        <time>2020-02-22T13:42:20Z</time>
      </trkpt>
      <trkpt lat="38.6684750" lon="1.5569950">
        <ele>143.1</ele>
        <time>2020-02-22T13:42:21Z</time>
      </trkpt>
      <trkpt lat="38.6684900" lon="1.5569330">
        <ele>143.1</ele>
        <time>2020-02-22T13:42:22Z</time>
      </trkpt>
      <trkpt lat="38.6684900" lon="1.5569330">
        <ele>144.1</ele>
        <time>2020-02-22T13:42:23Z</time>
      </trkpt>
      <trkpt lat="38.6685080" lon="1.5568870">
        <ele>144.1</ele>
        <time>2020-02-22T13:42:24Z</time>
      </trkpt>
      <trkpt lat="38.6685080" lon="1.5568870">
        <ele>144.1</ele>
        <time>2020-02-22T13:42:25Z</time>
      </trkpt>
      <trkpt lat="38.6685120" lon="1.5568500">
        <ele>144.1</ele>
        <time>2020-02-22T13:42:26Z</time>
      </trkpt>
      <trkpt lat="38.6685120" lon="1.5568500">
        <ele>144.1</ele>
        <time>2020-02-22T13:42:27Z</time>
      </trkpt>
      <trkpt lat="38.6685220" lon="1.5568100">
        <ele>144.1</ele>
        <time>2020-02-22T13:42:28Z</time>
      </trkpt>
      <trkpt lat="38.6685300" lon="1.5567850">
        <ele>144.1</ele>
        <time>2020-02-22T13:42:29Z</time>
      </trkpt>
      <trkpt lat="38.6685300" lon="1.5567850">
        <ele>144.1</ele>
        <time>2020-02-22T13:42:30Z</time>
      </trkpt>
      <trkpt lat="38.6685420" lon="1.5567350">
        <ele>144.1</ele>
        <time>2020-02-22T13:42:31Z</time>
      </trkpt>
      <trkpt lat="38.6685420" lon="1.5567350">
        <ele>144.1</ele>
        <time>2020-02-22T13:42:32Z</time>
      </trkpt>
      <trkpt lat="38.6685480" lon="1.5566920">
        <ele>144.1</ele>
        <time>2020-02-22T13:42:33Z</time>
      </trkpt>
      <trkpt lat="38.6685480" lon="1.5566920">
        <ele>144.1</ele>
        <time>2020-02-22T13:42:34Z</time>
      </trkpt>
      <trkpt lat="38.6685630" lon="1.5566580">
        <ele>144.1</ele>
        <time>2020-02-22T13:42:35Z</time>
      </trkpt>
      <trkpt lat="38.6685730" lon="1.5566380">
        <ele>144.1</ele>
        <time>2020-02-22T13:42:36Z</time>
      </trkpt>
      <trkpt lat="38.6685730" lon="1.5566380">
        <ele>144.1</ele>
        <time>2020-02-22T13:42:37Z</time>
      </trkpt>
      <trkpt lat="38.6685950" lon="1.5565950">
        <ele>144.1</ele>
        <time>2020-02-22T13:42:38Z</time>
      </trkpt>
      <trkpt lat="38.6685950" lon="1.5565950">
        <ele>144.1</ele>
        <time>2020-02-22T13:42:39Z</time>
      </trkpt>
      <trkpt lat="38.6686170" lon="1.5565550">
        <ele>144.1</ele>
        <time>2020-02-22T13:42:40Z</time>
      </trkpt>
      <trkpt lat="38.6686270" lon="1.5565370">
        <ele>144.1</ele>
        <time>2020-02-22T13:42:41Z</time>
      </trkpt>
      <trkpt lat="38.6686380" lon="1.5565170">
        <ele>144.1</ele>
        <time>2020-02-22T13:42:42Z</time>
      </trkpt>
      <trkpt lat="38.6686380" lon="1.5565170">
        <ele>144.1</ele>
        <time>2020-02-22T13:42:43Z</time>
      </trkpt>
      <trkpt lat="38.6686550" lon="1.5564700">
        <ele>144.1</ele>
        <time>2020-02-22T13:42:44Z</time>
      </trkpt>
      <trkpt lat="38.6686550" lon="1.5564700">
        <ele>144.1</ele>
        <time>2020-02-22T13:42:45Z</time>
      </trkpt>
      <trkpt lat="38.6686800" lon="1.5564280">
        <ele>144.1</ele>
        <time>2020-02-22T13:42:46Z</time>
      </trkpt>
      <trkpt lat="38.6686800" lon="1.5564280">
        <ele>144.1</ele>
        <time>2020-02-22T13:42:47Z</time>
      </trkpt>
      <trkpt lat="38.6687150" lon="1.5563870">
        <ele>144.1</ele>
        <time>2020-02-22T13:42:48Z</time>
      </trkpt>
      <trkpt lat="38.6687150" lon="1.5563870">
        <ele>144.1</ele>
        <time>2020-02-22T13:42:49Z</time>
      </trkpt>
      <trkpt lat="38.6687520" lon="1.5563380">
        <ele>144.1</ele>
        <time>2020-02-22T13:42:50Z</time>
      </trkpt>
      <trkpt lat="38.6687520" lon="1.5563380">
        <ele>144.1</ele>
        <time>2020-02-22T13:42:51Z</time>
      </trkpt>
      <trkpt lat="38.6687900" lon="1.5562850">
        <ele>144.1</ele>
        <time>2020-02-22T13:42:52Z</time>
      </trkpt>
      <trkpt lat="38.6687900" lon="1.5562850">
        <ele>144.1</ele>
        <time>2020-02-22T13:42:53Z</time>
      </trkpt>
      <trkpt lat="38.6688200" lon="1.5562150">
        <ele>144.1</ele>
        <time>2020-02-22T13:42:54Z</time>
      </trkpt>
      <trkpt lat="38.6688200" lon="1.5562150">
        <ele>144.1</ele>
        <time>2020-02-22T13:42:55Z</time>
      </trkpt>
      <trkpt lat="38.6688580" lon="1.5561470">
        <ele>144.1</ele>
        <time>2020-02-22T13:42:56Z</time>
      </trkpt>
      <trkpt lat="38.6688580" lon="1.5561470">
        <ele>144.1</ele>
        <time>2020-02-22T13:42:57Z</time>
      </trkpt>
      <trkpt lat="38.6689000" lon="1.5560680">
        <ele>144.1</ele>
        <time>2020-02-22T13:42:58Z</time>
      </trkpt>
      <trkpt lat="38.6689170" lon="1.5560250">
        <ele>144.1</ele>
        <time>2020-02-22T13:42:59Z</time>
      </trkpt>
      <trkpt lat="38.6689420" lon="1.5559870">
        <ele>144.1</ele>
        <time>2020-02-22T13:43:00Z</time>
      </trkpt>
      <trkpt lat="38.6689420" lon="1.5559870">
        <ele>144.1</ele>
        <time>2020-02-22T13:43:01Z</time>
      </trkpt>
      <trkpt lat="38.6689980" lon="1.5559070">
        <ele>144.1</ele>
        <time>2020-02-22T13:43:02Z</time>
      </trkpt>
      <trkpt lat="38.6689980" lon="1.5559070">
        <ele>144.1</ele>
        <time>2020-02-22T13:43:03Z</time>
      </trkpt>
      <trkpt lat="38.6690530" lon="1.5558250">
        <ele>143.1</ele>
        <time>2020-02-22T13:43:04Z</time>
      </trkpt>
      <trkpt lat="38.6690530" lon="1.5558250">
        <ele>143.1</ele>
        <time>2020-02-22T13:43:05Z</time>
      </trkpt>
      <trkpt lat="38.6691030" lon="1.5557400">
        <ele>143.1</ele>
        <time>2020-02-22T13:43:06Z</time>
      </trkpt>
      <trkpt lat="38.6691030" lon="1.5557400">
        <ele>143.1</ele>
        <time>2020-02-22T13:43:07Z</time>
      </trkpt>
      <trkpt lat="38.6691520" lon="1.5556500">
        <ele>143.1</ele>
        <time>2020-02-22T13:43:08Z</time>
      </trkpt>
      <trkpt lat="38.6691770" lon="1.5556050">
        <ele>143.1</ele>
        <time>2020-02-22T13:43:09Z</time>
      </trkpt>
      <trkpt lat="38.6691770" lon="1.5556050">
        <ele>143.1</ele>
        <time>2020-02-22T13:43:10Z</time>
      </trkpt>
      <trkpt lat="38.6692220" lon="1.5555150">
        <ele>143.1</ele>
        <time>2020-02-22T13:43:11Z</time>
      </trkpt>
      <trkpt lat="38.6692430" lon="1.5554680">
        <ele>143.1</ele>
        <time>2020-02-22T13:43:12Z</time>
      </trkpt>
      <trkpt lat="38.6692430" lon="1.5554680">
        <ele>143.1</ele>
        <time>2020-02-22T13:43:13Z</time>
      </trkpt>
      <trkpt lat="38.6692880" lon="1.5553730">
        <ele>143.1</ele>
        <time>2020-02-22T13:43:14Z</time>
      </trkpt>
      <trkpt lat="38.6692880" lon="1.5553730">
        <ele>143.1</ele>
        <time>2020-02-22T13:43:15Z</time>
      </trkpt>
      <trkpt lat="38.6693300" lon="1.5552820">
        <ele>142.1</ele>
        <time>2020-02-22T13:43:16Z</time>
      </trkpt>
      <trkpt lat="38.6693300" lon="1.5552820">
        <ele>142.1</ele>
        <time>2020-02-22T13:43:17Z</time>
      </trkpt>
      <trkpt lat="38.6693680" lon="1.5551930">
        <ele>142.1</ele>
        <time>2020-02-22T13:43:18Z</time>
      </trkpt>
      <trkpt lat="38.6693680" lon="1.5551930">
        <ele>142.1</ele>
        <time>2020-02-22T13:43:19Z</time>
      </trkpt>
      <trkpt lat="38.6694120" lon="1.5551020">
        <ele>142.1</ele>
        <time>2020-02-22T13:43:20Z</time>
      </trkpt>
      <trkpt lat="38.6694120" lon="1.5551020">
        <ele>142.1</ele>
        <time>2020-02-22T13:43:21Z</time>
      </trkpt>
      <trkpt lat="38.6694500" lon="1.5550100">
        <ele>142.1</ele>
        <time>2020-02-22T13:43:22Z</time>
      </trkpt>
      <trkpt lat="38.6694500" lon="1.5550100">
        <ele>142.1</ele>
        <time>2020-02-22T13:43:23Z</time>
      </trkpt>
      <trkpt lat="38.6694920" lon="1.5549200">
        <ele>142.1</ele>
        <time>2020-02-22T13:43:24Z</time>
      </trkpt>
      <trkpt lat="38.6694920" lon="1.5549200">
        <ele>143.1</ele>
        <time>2020-02-22T13:43:25Z</time>
      </trkpt>
      <trkpt lat="38.6695320" lon="1.5548370">
        <ele>143.1</ele>
        <time>2020-02-22T13:43:26Z</time>
      </trkpt>
      <trkpt lat="38.6695480" lon="1.5547900">
        <ele>143.1</ele>
        <time>2020-02-22T13:43:27Z</time>
      </trkpt>
      <trkpt lat="38.6695480" lon="1.5547900">
        <ele>143.1</ele>
        <time>2020-02-22T13:43:28Z</time>
      </trkpt>
      <trkpt lat="38.6695870" lon="1.5547050">
        <ele>143.1</ele>
        <time>2020-02-22T13:43:29Z</time>
      </trkpt>
      <trkpt lat="38.6696070" lon="1.5546620">
        <ele>143.1</ele>
        <time>2020-02-22T13:43:30Z</time>
      </trkpt>
      <trkpt lat="38.6696070" lon="1.5546620">
        <ele>143.1</ele>
        <time>2020-02-22T13:43:31Z</time>
      </trkpt>
      <trkpt lat="38.6696470" lon="1.5545750">
        <ele>143.1</ele>
        <time>2020-02-22T13:43:32Z</time>
      </trkpt>
      <trkpt lat="38.6696470" lon="1.5545750">
        <ele>143.1</ele>
        <time>2020-02-22T13:43:33Z</time>
      </trkpt>
      <trkpt lat="38.6696830" lon="1.5544900">
        <ele>143.1</ele>
        <time>2020-02-22T13:43:34Z</time>
      </trkpt>
      <trkpt lat="38.6697020" lon="1.5544500">
        <ele>143.1</ele>
        <time>2020-02-22T13:43:35Z</time>
      </trkpt>
      <trkpt lat="38.6697220" lon="1.5544080">
        <ele>143.1</ele>
        <time>2020-02-22T13:43:36Z</time>
      </trkpt>
      <trkpt lat="38.6697220" lon="1.5544080">
        <ele>143.1</ele>
        <time>2020-02-22T13:43:37Z</time>
      </trkpt>
      <trkpt lat="38.6697630" lon="1.5543270">
        <ele>143.1</ele>
        <time>2020-02-22T13:43:38Z</time>
      </trkpt>
      <trkpt lat="38.6697630" lon="1.5543270">
        <ele>143.1</ele>
        <time>2020-02-22T13:43:39Z</time>
      </trkpt>
      <trkpt lat="38.6697980" lon="1.5542380">
        <ele>143.1</ele>
        <time>2020-02-22T13:43:40Z</time>
      </trkpt>
      <trkpt lat="38.6697980" lon="1.5542380">
        <ele>143.1</ele>
        <time>2020-02-22T13:43:41Z</time>
      </trkpt>
      <trkpt lat="38.6698370" lon="1.5541530">
        <ele>143.1</ele>
        <time>2020-02-22T13:43:42Z</time>
      </trkpt>
      <trkpt lat="38.6698370" lon="1.5541530">
        <ele>143.1</ele>
        <time>2020-02-22T13:43:43Z</time>
      </trkpt>
      <trkpt lat="38.6698730" lon="1.5540650">
        <ele>143.1</ele>
        <time>2020-02-22T13:43:44Z</time>
      </trkpt>
      <trkpt lat="38.6698730" lon="1.5540650">
        <ele>144.1</ele>
        <time>2020-02-22T13:43:45Z</time>
      </trkpt>
      <trkpt lat="38.6699170" lon="1.5539850">
        <ele>144.1</ele>
        <time>2020-02-22T13:43:46Z</time>
      </trkpt>
      <trkpt lat="38.6699170" lon="1.5539850">
        <ele>144.1</ele>
        <time>2020-02-22T13:43:47Z</time>
      </trkpt>
      <trkpt lat="38.6699520" lon="1.5539070">
        <ele>144.1</ele>
        <time>2020-02-22T13:43:48Z</time>
      </trkpt>
      <trkpt lat="38.6699520" lon="1.5539070">
        <ele>144.1</ele>
        <time>2020-02-22T13:43:49Z</time>
      </trkpt>
      <trkpt lat="38.6699920" lon="1.5538280">
        <ele>144.1</ele>
        <time>2020-02-22T13:43:50Z</time>
      </trkpt>
      <trkpt lat="38.6699920" lon="1.5538280">
        <ele>144.1</ele>
        <time>2020-02-22T13:43:51Z</time>
      </trkpt>
      <trkpt lat="38.6699820" lon="1.5537450">
        <ele>144.1</ele>
        <time>2020-02-22T13:43:52Z</time>
      </trkpt>
      <trkpt lat="38.6699820" lon="1.5537450">
        <ele>144.1</ele>
        <time>2020-02-22T13:43:53Z</time>
      </trkpt>
      <trkpt lat="38.6699300" lon="1.5536780">
        <ele>144.1</ele>
        <time>2020-02-22T13:43:54Z</time>
      </trkpt>
      <trkpt lat="38.6699300" lon="1.5536780">
        <ele>144.1</ele>
        <time>2020-02-22T13:43:55Z</time>
      </trkpt>
      <trkpt lat="38.6698770" lon="1.5536200">
        <ele>144.1</ele>
        <time>2020-02-22T13:43:56Z</time>
      </trkpt>
      <trkpt lat="38.6698770" lon="1.5536200">
        <ele>144.1</ele>
        <time>2020-02-22T13:43:57Z</time>
      </trkpt>
      <trkpt lat="38.6698250" lon="1.5535680">
        <ele>144.1</ele>
        <time>2020-02-22T13:43:58Z</time>
      </trkpt>
      <trkpt lat="38.6698250" lon="1.5535680">
        <ele>144.1</ele>
        <time>2020-02-22T13:43:59Z</time>
      </trkpt>
      <trkpt lat="38.6697720" lon="1.5535200">
        <ele>144.1</ele>
        <time>2020-02-22T13:44:00Z</time>
      </trkpt>
      <trkpt lat="38.6697720" lon="1.5535200">
        <ele>144.1</ele>
        <time>2020-02-22T13:44:01Z</time>
      </trkpt>
      <trkpt lat="38.6697170" lon="1.5534830">
        <ele>144.1</ele>
        <time>2020-02-22T13:44:02Z</time>
      </trkpt>
      <trkpt lat="38.6697170" lon="1.5534830">
        <ele>144.1</ele>
        <time>2020-02-22T13:44:03Z</time>
      </trkpt>
      <trkpt lat="38.6696580" lon="1.5534320">
        <ele>144.1</ele>
        <time>2020-02-22T13:44:04Z</time>
      </trkpt>
      <trkpt lat="38.6696280" lon="1.5534070">
        <ele>144.1</ele>
        <time>2020-02-22T13:44:05Z</time>
      </trkpt>
      <trkpt lat="38.6696280" lon="1.5534070">
        <ele>145.1</ele>
        <time>2020-02-22T13:44:06Z</time>
      </trkpt>
      <trkpt lat="38.6695650" lon="1.5533520">
        <ele>145.1</ele>
        <time>2020-02-22T13:44:07Z</time>
      </trkpt>
      <trkpt lat="38.6695650" lon="1.5533520">
        <ele>145.1</ele>
        <time>2020-02-22T13:44:08Z</time>
      </trkpt>
      <trkpt lat="38.6695020" lon="1.5532970">
        <ele>145.1</ele>
        <time>2020-02-22T13:44:09Z</time>
      </trkpt>
      <trkpt lat="38.6694700" lon="1.5532700">
        <ele>145.1</ele>
        <time>2020-02-22T13:44:10Z</time>
      </trkpt>
      <trkpt lat="38.6694700" lon="1.5532700">
        <ele>145.1</ele>
        <time>2020-02-22T13:44:11Z</time>
      </trkpt>
      <trkpt lat="38.6694030" lon="1.5532200">
        <ele>146.1</ele>
        <time>2020-02-22T13:44:12Z</time>
      </trkpt>
      <trkpt lat="38.6694030" lon="1.5532200">
        <ele>146.1</ele>
        <time>2020-02-22T13:44:13Z</time>
      </trkpt>
      <trkpt lat="38.6693420" lon="1.5531700">
        <ele>146.1</ele>
        <time>2020-02-22T13:44:14Z</time>
      </trkpt>
      <trkpt lat="38.6693420" lon="1.5531700">
        <ele>146.1</ele>
        <time>2020-02-22T13:44:15Z</time>
      </trkpt>
      <trkpt lat="38.6692930" lon="1.5531300">
        <ele>146.1</ele>
        <time>2020-02-22T13:44:16Z</time>
      </trkpt>
      <trkpt lat="38.6692770" lon="1.5531050">
        <ele>146.1</ele>
        <time>2020-02-22T13:44:17Z</time>
      </trkpt>
      <trkpt lat="38.6692570" lon="1.5530820">
        <ele>147.1</ele>
        <time>2020-02-22T13:44:18Z</time>
      </trkpt>
      <trkpt lat="38.6692570" lon="1.5530820">
        <ele>147.1</ele>
        <time>2020-02-22T13:44:19Z</time>
      </trkpt>
      <trkpt lat="38.6692230" lon="1.5531100">
        <ele>147.1</ele>
        <time>2020-02-22T13:44:20Z</time>
      </trkpt>
      <trkpt lat="38.6692230" lon="1.5531100">
        <ele>147.1</ele>
        <time>2020-02-22T13:44:21Z</time>
      </trkpt>
      <trkpt lat="38.6692380" lon="1.5531570">
        <ele>147.1</ele>
        <time>2020-02-22T13:44:22Z</time>
      </trkpt>
      <trkpt lat="38.6692380" lon="1.5531570">
        <ele>147.1</ele>
        <time>2020-02-22T13:44:23Z</time>
      </trkpt>
      <trkpt lat="38.6692820" lon="1.5531630">
        <ele>147.1</ele>
        <time>2020-02-22T13:44:24Z</time>
      </trkpt>
      <trkpt lat="38.6692820" lon="1.5531630">
        <ele>147.1</ele>
        <time>2020-02-22T13:44:25Z</time>
      </trkpt>
      <trkpt lat="38.6693320" lon="1.5531730">
        <ele>147.1</ele>
        <time>2020-02-22T13:44:26Z</time>
      </trkpt>
      <trkpt lat="38.6693320" lon="1.5531730">
        <ele>147.1</ele>
        <time>2020-02-22T13:44:27Z</time>
      </trkpt>
      <trkpt lat="38.6693900" lon="1.5531980">
        <ele>147.1</ele>
        <time>2020-02-22T13:44:28Z</time>
      </trkpt>
      <trkpt lat="38.6693900" lon="1.5531980">
        <ele>147.1</ele>
        <time>2020-02-22T13:44:29Z</time>
      </trkpt>
      <trkpt lat="38.6694500" lon="1.5532470">
        <ele>147.1</ele>
        <time>2020-02-22T13:44:30Z</time>
      </trkpt>
      <trkpt lat="38.6694500" lon="1.5532470">
        <ele>147.1</ele>
        <time>2020-02-22T13:44:31Z</time>
      </trkpt>
      <trkpt lat="38.6695200" lon="1.5532980">
        <ele>147.1</ele>
        <time>2020-02-22T13:44:32Z</time>
      </trkpt>
      <trkpt lat="38.6695200" lon="1.5532980">
        <ele>147.1</ele>
        <time>2020-02-22T13:44:33Z</time>
      </trkpt>
      <trkpt lat="38.6695980" lon="1.5533650">
        <ele>147.1</ele>
        <time>2020-02-22T13:44:34Z</time>
      </trkpt>
      <trkpt lat="38.6695980" lon="1.5533650">
        <ele>147.1</ele>
        <time>2020-02-22T13:44:35Z</time>
      </trkpt>
      <trkpt lat="38.6696880" lon="1.5534470">
        <ele>147.1</ele>
        <time>2020-02-22T13:44:36Z</time>
      </trkpt>
      <trkpt lat="38.6696880" lon="1.5534470">
        <ele>146.1</ele>
        <time>2020-02-22T13:44:37Z</time>
      </trkpt>
      <trkpt lat="38.6697850" lon="1.5535420">
        <ele>146.1</ele>
        <time>2020-02-22T13:44:38Z</time>
      </trkpt>
      <trkpt lat="38.6697850" lon="1.5535420">
        <ele>146.1</ele>
        <time>2020-02-22T13:44:39Z</time>
      </trkpt>
      <trkpt lat="38.6698730" lon="1.5536300">
        <ele>144.1</ele>
        <time>2020-02-22T13:44:40Z</time>
      </trkpt>
      <trkpt lat="38.6699080" lon="1.5536600">
        <ele>144.1</ele>
        <time>2020-02-22T13:44:41Z</time>
      </trkpt>
      <trkpt lat="38.6699080" lon="1.5536600">
        <ele>144.1</ele>
        <time>2020-02-22T13:44:42Z</time>
      </trkpt>
      <trkpt lat="38.6699550" lon="1.5537100">
        <ele>144.1</ele>
        <time>2020-02-22T13:44:43Z</time>
      </trkpt>
      <trkpt lat="38.6699550" lon="1.5537100">
        <ele>144.1</ele>
        <time>2020-02-22T13:44:44Z</time>
      </trkpt>
      <trkpt lat="38.6699730" lon="1.5537480">
        <ele>144.1</ele>
        <time>2020-02-22T13:44:45Z</time>
      </trkpt>
      <trkpt lat="38.6699730" lon="1.5537480">
        <ele>144.1</ele>
        <time>2020-02-22T13:44:46Z</time>
      </trkpt>
      <trkpt lat="38.6699600" lon="1.5538120">
        <ele>144.1</ele>
        <time>2020-02-22T13:44:47Z</time>
      </trkpt>
      <trkpt lat="38.6699450" lon="1.5538530">
        <ele>144.1</ele>
        <time>2020-02-22T13:44:48Z</time>
      </trkpt>
      <trkpt lat="38.6699450" lon="1.5538530">
        <ele>144.1</ele>
        <time>2020-02-22T13:44:49Z</time>
      </trkpt>
      <trkpt lat="38.6699050" lon="1.5539330">
        <ele>144.1</ele>
        <time>2020-02-22T13:44:50Z</time>
      </trkpt>
      <trkpt lat="38.6699050" lon="1.5539330">
        <ele>144.1</ele>
        <time>2020-02-22T13:44:51Z</time>
      </trkpt>
      <trkpt lat="38.6698630" lon="1.5540230">
        <ele>144.1</ele>
        <time>2020-02-22T13:44:52Z</time>
      </trkpt>
      <trkpt lat="38.6698430" lon="1.5540750">
        <ele>144.1</ele>
        <time>2020-02-22T13:44:53Z</time>
      </trkpt>
      <trkpt lat="38.6698230" lon="1.5541270">
        <ele>144.1</ele>
        <time>2020-02-22T13:44:54Z</time>
      </trkpt>
      <trkpt lat="38.6698230" lon="1.5541270">
        <ele>144.1</ele>
        <time>2020-02-22T13:44:55Z</time>
      </trkpt>
      <trkpt lat="38.6697780" lon="1.5542330">
        <ele>144.1</ele>
        <time>2020-02-22T13:44:56Z</time>
      </trkpt>
      <trkpt lat="38.6697780" lon="1.5542330">
        <ele>144.1</ele>
        <time>2020-02-22T13:44:57Z</time>
      </trkpt>
      <trkpt lat="38.6697300" lon="1.5543420">
        <ele>144.1</ele>
        <time>2020-02-22T13:44:58Z</time>
      </trkpt>
      <trkpt lat="38.6697300" lon="1.5543420">
        <ele>144.1</ele>
        <time>2020-02-22T13:44:59Z</time>
      </trkpt>
      <trkpt lat="38.6696780" lon="1.5544430">
        <ele>144.1</ele>
        <time>2020-02-22T13:45:00Z</time>
      </trkpt>
      <trkpt lat="38.6696780" lon="1.5544430">
        <ele>144.1</ele>
        <time>2020-02-22T13:45:01Z</time>
      </trkpt>
      <trkpt lat="38.6696280" lon="1.5545530">
        <ele>144.1</ele>
        <time>2020-02-22T13:45:02Z</time>
      </trkpt>
      <trkpt lat="38.6696280" lon="1.5545530">
        <ele>144.1</ele>
        <time>2020-02-22T13:45:03Z</time>
      </trkpt>
      <trkpt lat="38.6695800" lon="1.5546630">
        <ele>144.1</ele>
        <time>2020-02-22T13:45:04Z</time>
      </trkpt>
      <trkpt lat="38.6695800" lon="1.5546630">
        <ele>144.1</ele>
        <time>2020-02-22T13:45:05Z</time>
      </trkpt>
      <trkpt lat="38.6695330" lon="1.5547730">
        <ele>144.1</ele>
        <time>2020-02-22T13:45:06Z</time>
      </trkpt>
      <trkpt lat="38.6695330" lon="1.5547730">
        <ele>144.1</ele>
        <time>2020-02-22T13:45:07Z</time>
      </trkpt>
      <trkpt lat="38.6694820" lon="1.5548800">
        <ele>143.1</ele>
        <time>2020-02-22T13:45:08Z</time>
      </trkpt>
      <trkpt lat="38.6694550" lon="1.5549320">
        <ele>143.1</ele>
        <time>2020-02-22T13:45:09Z</time>
      </trkpt>
      <trkpt lat="38.6694550" lon="1.5549320">
        <ele>143.1</ele>
        <time>2020-02-22T13:45:10Z</time>
      </trkpt>
      <trkpt lat="38.6694080" lon="1.5550370">
        <ele>143.1</ele>
        <time>2020-02-22T13:45:11Z</time>
      </trkpt>
      <trkpt lat="38.6693830" lon="1.5550880">
        <ele>143.1</ele>
        <time>2020-02-22T13:45:12Z</time>
      </trkpt>
      <trkpt lat="38.6693830" lon="1.5550880">
        <ele>143.1</ele>
        <time>2020-02-22T13:45:13Z</time>
      </trkpt>
      <trkpt lat="38.6693330" lon="1.5551920">
        <ele>143.1</ele>
        <time>2020-02-22T13:45:14Z</time>
      </trkpt>
      <trkpt lat="38.6693330" lon="1.5551920">
        <ele>143.1</ele>
        <time>2020-02-22T13:45:15Z</time>
      </trkpt>
      <trkpt lat="38.6692820" lon="1.5552970">
        <ele>143.1</ele>
        <time>2020-02-22T13:45:16Z</time>
      </trkpt>
      <trkpt lat="38.6692820" lon="1.5552970">
        <ele>143.1</ele>
        <time>2020-02-22T13:45:17Z</time>
      </trkpt>
      <trkpt lat="38.6692330" lon="1.5554050">
        <ele>143.1</ele>
        <time>2020-02-22T13:45:18Z</time>
      </trkpt>
      <trkpt lat="38.6692330" lon="1.5554050">
        <ele>143.1</ele>
        <time>2020-02-22T13:45:19Z</time>
      </trkpt>
      <trkpt lat="38.6691800" lon="1.5555080">
        <ele>143.1</ele>
        <time>2020-02-22T13:45:20Z</time>
      </trkpt>
      <trkpt lat="38.6691800" lon="1.5555080">
        <ele>143.1</ele>
        <time>2020-02-22T13:45:21Z</time>
      </trkpt>
      <trkpt lat="38.6691230" lon="1.5556120">
        <ele>143.1</ele>
        <time>2020-02-22T13:45:22Z</time>
      </trkpt>
      <trkpt lat="38.6691230" lon="1.5556120">
        <ele>143.1</ele>
        <time>2020-02-22T13:45:23Z</time>
      </trkpt>
      <trkpt lat="38.6690680" lon="1.5557080">
        <ele>143.1</ele>
        <time>2020-02-22T13:45:24Z</time>
      </trkpt>
      <trkpt lat="38.6690680" lon="1.5557080">
        <ele>143.1</ele>
        <time>2020-02-22T13:45:25Z</time>
      </trkpt>
      <trkpt lat="38.6690150" lon="1.5558000">
        <ele>143.1</ele>
        <time>2020-02-22T13:45:26Z</time>
      </trkpt>
      <trkpt lat="38.6689900" lon="1.5558420">
        <ele>143.1</ele>
        <time>2020-02-22T13:45:27Z</time>
      </trkpt>
      <trkpt lat="38.6689650" lon="1.5558830">
        <ele>143.1</ele>
        <time>2020-02-22T13:45:28Z</time>
      </trkpt>
      <trkpt lat="38.6689650" lon="1.5558830">
        <ele>143.1</ele>
        <time>2020-02-22T13:45:29Z</time>
      </trkpt>
      <trkpt lat="38.6689150" lon="1.5559650">
        <ele>143.1</ele>
        <time>2020-02-22T13:45:30Z</time>
      </trkpt>
      <trkpt lat="38.6689150" lon="1.5559650">
        <ele>143.1</ele>
        <time>2020-02-22T13:45:31Z</time>
      </trkpt>
      <trkpt lat="38.6688600" lon="1.5560400">
        <ele>143.1</ele>
        <time>2020-02-22T13:45:32Z</time>
      </trkpt>
      <trkpt lat="38.6688600" lon="1.5560400">
        <ele>143.1</ele>
        <time>2020-02-22T13:45:33Z</time>
      </trkpt>
      <trkpt lat="38.6688170" lon="1.5561230">
        <ele>143.1</ele>
        <time>2020-02-22T13:45:34Z</time>
      </trkpt>
      <trkpt lat="38.6687920" lon="1.5561720">
        <ele>143.1</ele>
        <time>2020-02-22T13:45:35Z</time>
      </trkpt>
      <trkpt lat="38.6687920" lon="1.5561720">
        <ele>143.1</ele>
        <time>2020-02-22T13:45:36Z</time>
      </trkpt>
      <trkpt lat="38.6687450" lon="1.5562530">
        <ele>143.1</ele>
        <time>2020-02-22T13:45:37Z</time>
      </trkpt>
      <trkpt lat="38.6687230" lon="1.5562930">
        <ele>143.1</ele>
        <time>2020-02-22T13:45:38Z</time>
      </trkpt>
      <trkpt lat="38.6687230" lon="1.5562930">
        <ele>143.1</ele>
        <time>2020-02-22T13:45:39Z</time>
      </trkpt>
      <trkpt lat="38.6686730" lon="1.5563720">
        <ele>143.1</ele>
        <time>2020-02-22T13:45:40Z</time>
      </trkpt>
      <trkpt lat="38.6686730" lon="1.5563720">
        <ele>144.1</ele>
        <time>2020-02-22T13:45:41Z</time>
      </trkpt>
      <trkpt lat="38.6686330" lon="1.5564570">
        <ele>144.1</ele>
        <time>2020-02-22T13:45:42Z</time>
      </trkpt>
      <trkpt lat="38.6686330" lon="1.5564570">
        <ele>144.1</ele>
        <time>2020-02-22T13:45:43Z</time>
      </trkpt>
      <trkpt lat="38.6685930" lon="1.5565400">
        <ele>144.1</ele>
        <time>2020-02-22T13:45:44Z</time>
      </trkpt>
      <trkpt lat="38.6685930" lon="1.5565400">
        <ele>144.1</ele>
        <time>2020-02-22T13:45:45Z</time>
      </trkpt>
      <trkpt lat="38.6685530" lon="1.5566270">
        <ele>144.1</ele>
        <time>2020-02-22T13:45:46Z</time>
      </trkpt>
      <trkpt lat="38.6685400" lon="1.5566750">
        <ele>144.1</ele>
        <time>2020-02-22T13:45:47Z</time>
      </trkpt>
      <trkpt lat="38.6685400" lon="1.5566750">
        <ele>144.1</ele>
        <time>2020-02-22T13:45:48Z</time>
      </trkpt>
      <trkpt lat="38.6685130" lon="1.5567750">
        <ele>144.1</ele>
        <time>2020-02-22T13:45:49Z</time>
      </trkpt>
      <trkpt lat="38.6685020" lon="1.5568250">
        <ele>144.1</ele>
        <time>2020-02-22T13:45:50Z</time>
      </trkpt>
      <trkpt lat="38.6685020" lon="1.5568250">
        <ele>144.1</ele>
        <time>2020-02-22T13:45:51Z</time>
      </trkpt>
      <trkpt lat="38.6684700" lon="1.5569320">
        <ele>144.1</ele>
        <time>2020-02-22T13:45:52Z</time>
      </trkpt>
      <trkpt lat="38.6684500" lon="1.5569730">
        <ele>144.1</ele>
        <time>2020-02-22T13:45:53Z</time>
      </trkpt>
      <trkpt lat="38.6684400" lon="1.5570030">
        <ele>144.1</ele>
        <time>2020-02-22T13:45:54Z</time>
      </trkpt>
      <trkpt lat="38.6684400" lon="1.5570030">
        <ele>144.1</ele>
        <time>2020-02-22T13:45:55Z</time>
      </trkpt>
      <trkpt lat="38.6684270" lon="1.5570620">
        <ele>144.1</ele>
        <time>2020-02-22T13:45:56Z</time>
      </trkpt>
      <trkpt lat="38.6684180" lon="1.5570930">
        <ele>144.1</ele>
        <time>2020-02-22T13:45:57Z</time>
      </trkpt>
      <trkpt lat="38.6684180" lon="1.5570930">
        <ele>144.1</ele>
        <time>2020-02-22T13:45:58Z</time>
      </trkpt>
      <trkpt lat="38.6684100" lon="1.5571600">
        <ele>144.1</ele>
        <time>2020-02-22T13:45:59Z</time>
      </trkpt>
      <trkpt lat="38.6684050" lon="1.5571980">
        <ele>144.1</ele>
        <time>2020-02-22T13:46:00Z</time>
      </trkpt>
      <trkpt lat="38.6684050" lon="1.5571980">
        <ele>144.1</ele>
        <time>2020-02-22T13:46:01Z</time>
      </trkpt>
      <trkpt lat="38.6683920" lon="1.5572880">
        <ele>144.1</ele>
        <time>2020-02-22T13:46:02Z</time>
      </trkpt>
      <trkpt lat="38.6683920" lon="1.5572880">
        <ele>144.1</ele>
        <time>2020-02-22T13:46:03Z</time>
      </trkpt>
      <trkpt lat="38.6683700" lon="1.5573930">
        <ele>144.1</ele>
        <time>2020-02-22T13:46:04Z</time>
      </trkpt>
      <trkpt lat="38.6683700" lon="1.5573930">
        <ele>144.1</ele>
        <time>2020-02-22T13:46:05Z</time>
      </trkpt>
      <trkpt lat="38.6683500" lon="1.5575070">
        <ele>144.1</ele>
        <time>2020-02-22T13:46:06Z</time>
      </trkpt>
      <trkpt lat="38.6683500" lon="1.5575070">
        <ele>144.1</ele>
        <time>2020-02-22T13:46:07Z</time>
      </trkpt>
      <trkpt lat="38.6683300" lon="1.5576180">
        <ele>144.1</ele>
        <time>2020-02-22T13:46:08Z</time>
      </trkpt>
      <trkpt lat="38.6683230" lon="1.5576770">
        <ele>144.1</ele>
        <time>2020-02-22T13:46:09Z</time>
      </trkpt>
      <trkpt lat="38.6683230" lon="1.5576770">
        <ele>144.1</ele>
        <time>2020-02-22T13:46:10Z</time>
      </trkpt>
      <trkpt lat="38.6683000" lon="1.5577880">
        <ele>144.1</ele>
        <time>2020-02-22T13:46:11Z</time>
      </trkpt>
      <trkpt lat="38.6682900" lon="1.5578470">
        <ele>144.1</ele>
        <time>2020-02-22T13:46:12Z</time>
      </trkpt>
      <trkpt lat="38.6682900" lon="1.5578470">
        <ele>143.1</ele>
        <time>2020-02-22T13:46:13Z</time>
      </trkpt>
      <trkpt lat="38.6682670" lon="1.5579670">
        <ele>143.1</ele>
        <time>2020-02-22T13:46:14Z</time>
      </trkpt>
      <trkpt lat="38.6682670" lon="1.5579670">
        <ele>143.1</ele>
        <time>2020-02-22T13:46:15Z</time>
      </trkpt>
      <trkpt lat="38.6682450" lon="1.5580830">
        <ele>143.1</ele>
        <time>2020-02-22T13:46:16Z</time>
      </trkpt>
      <trkpt lat="38.6682350" lon="1.5581430">
        <ele>143.1</ele>
        <time>2020-02-22T13:46:17Z</time>
      </trkpt>
      <trkpt lat="38.6682250" lon="1.5582030">
        <ele>143.1</ele>
        <time>2020-02-22T13:46:18Z</time>
      </trkpt>
      <trkpt lat="38.6682130" lon="1.5582670">
        <ele>143.1</ele>
        <time>2020-02-22T13:46:19Z</time>
      </trkpt>
      <trkpt lat="38.6682130" lon="1.5582670">
        <ele>143.1</ele>
        <time>2020-02-22T13:46:20Z</time>
      </trkpt>
      <trkpt lat="38.6681950" lon="1.5583870">
        <ele>142.1</ele>
        <time>2020-02-22T13:46:21Z</time>
      </trkpt>
      <trkpt lat="38.6681950" lon="1.5583870">
        <ele>142.1</ele>
        <time>2020-02-22T13:46:22Z</time>
      </trkpt>
      <trkpt lat="38.6681720" lon="1.5585050">
        <ele>142.1</ele>
        <time>2020-02-22T13:46:23Z</time>
      </trkpt>
      <trkpt lat="38.6681600" lon="1.5585650">
        <ele>142.1</ele>
        <time>2020-02-22T13:46:24Z</time>
      </trkpt>
      <trkpt lat="38.6681600" lon="1.5585650">
        <ele>142.1</ele>
        <time>2020-02-22T13:46:25Z</time>
      </trkpt>
      <trkpt lat="38.6681380" lon="1.5586870">
        <ele>142.1</ele>
        <time>2020-02-22T13:46:26Z</time>
      </trkpt>
      <trkpt lat="38.6681380" lon="1.5586870">
        <ele>142.1</ele>
        <time>2020-02-22T13:46:27Z</time>
      </trkpt>
      <trkpt lat="38.6681130" lon="1.5588050">
        <ele>142.1</ele>
        <time>2020-02-22T13:46:28Z</time>
      </trkpt>
      <trkpt lat="38.6681130" lon="1.5588050">
        <ele>142.1</ele>
        <time>2020-02-22T13:46:29Z</time>
      </trkpt>
      <trkpt lat="38.6680880" lon="1.5589230">
        <ele>142.1</ele>
        <time>2020-02-22T13:46:30Z</time>
      </trkpt>
      <trkpt lat="38.6680880" lon="1.5589230">
        <ele>142.1</ele>
        <time>2020-02-22T13:46:31Z</time>
      </trkpt>
      <trkpt lat="38.6680630" lon="1.5590400">
        <ele>142.1</ele>
        <time>2020-02-22T13:46:32Z</time>
      </trkpt>
      <trkpt lat="38.6680630" lon="1.5590400">
        <ele>142.1</ele>
        <time>2020-02-22T13:46:33Z</time>
      </trkpt>
      <trkpt lat="38.6680400" lon="1.5591580">
        <ele>142.1</ele>
        <time>2020-02-22T13:46:34Z</time>
      </trkpt>
      <trkpt lat="38.6680400" lon="1.5591580">
        <ele>141.1</ele>
        <time>2020-02-22T13:46:35Z</time>
      </trkpt>
      <trkpt lat="38.6680150" lon="1.5592780">
        <ele>141.1</ele>
        <time>2020-02-22T13:46:36Z</time>
      </trkpt>
      <trkpt lat="38.6680150" lon="1.5592780">
        <ele>141.1</ele>
        <time>2020-02-22T13:46:37Z</time>
      </trkpt>
      <trkpt lat="38.6679930" lon="1.5594020">
        <ele>141.1</ele>
        <time>2020-02-22T13:46:38Z</time>
      </trkpt>
      <trkpt lat="38.6679930" lon="1.5594020">
        <ele>141.1</ele>
        <time>2020-02-22T13:46:39Z</time>
      </trkpt>
      <trkpt lat="38.6679730" lon="1.5595250">
        <ele>141.1</ele>
        <time>2020-02-22T13:46:40Z</time>
      </trkpt>
      <trkpt lat="38.6679730" lon="1.5595250">
        <ele>141.1</ele>
        <time>2020-02-22T13:46:41Z</time>
      </trkpt>
      <trkpt lat="38.6679520" lon="1.5596480">
        <ele>141.1</ele>
        <time>2020-02-22T13:46:42Z</time>
      </trkpt>
      <trkpt lat="38.6679520" lon="1.5596480">
        <ele>141.1</ele>
        <time>2020-02-22T13:46:43Z</time>
      </trkpt>
      <trkpt lat="38.6679320" lon="1.5597730">
        <ele>141.1</ele>
        <time>2020-02-22T13:46:44Z</time>
      </trkpt>
      <trkpt lat="38.6679320" lon="1.5597730">
        <ele>141.1</ele>
        <time>2020-02-22T13:46:45Z</time>
      </trkpt>
      <trkpt lat="38.6679220" lon="1.5598980">
        <ele>141.1</ele>
        <time>2020-02-22T13:46:46Z</time>
      </trkpt>
      <trkpt lat="38.6679220" lon="1.5598980">
        <ele>140.1</ele>
        <time>2020-02-22T13:46:47Z</time>
      </trkpt>
      <trkpt lat="38.6679030" lon="1.5600170">
        <ele>140.1</ele>
        <time>2020-02-22T13:46:48Z</time>
      </trkpt>
      <trkpt lat="38.6679030" lon="1.5600170">
        <ele>140.1</ele>
        <time>2020-02-22T13:46:49Z</time>
      </trkpt>
      <trkpt lat="38.6678800" lon="1.5601370">
        <ele>140.1</ele>
        <time>2020-02-22T13:46:50Z</time>
      </trkpt>
      <trkpt lat="38.6678800" lon="1.5601370">
        <ele>140.1</ele>
        <time>2020-02-22T13:46:51Z</time>
      </trkpt>
      <trkpt lat="38.6678530" lon="1.5602620">
        <ele>140.1</ele>
        <time>2020-02-22T13:46:52Z</time>
      </trkpt>
      <trkpt lat="38.6678420" lon="1.5603280">
        <ele>140.1</ele>
        <time>2020-02-22T13:46:53Z</time>
      </trkpt>
      <trkpt lat="38.6678420" lon="1.5603280">
        <ele>140.1</ele>
        <time>2020-02-22T13:46:54Z</time>
      </trkpt>
      <trkpt lat="38.6678180" lon="1.5604650">
        <ele>140.1</ele>
        <time>2020-02-22T13:46:55Z</time>
      </trkpt>
      <trkpt lat="38.6678050" lon="1.5605370">
        <ele>140.1</ele>
        <time>2020-02-22T13:46:56Z</time>
      </trkpt>
      <trkpt lat="38.6678050" lon="1.5605370">
        <ele>140.1</ele>
        <time>2020-02-22T13:46:57Z</time>
      </trkpt>
      <trkpt lat="38.6677770" lon="1.5606830">
        <ele>139.1</ele>
        <time>2020-02-22T13:46:58Z</time>
      </trkpt>
      <trkpt lat="38.6677630" lon="1.5607580">
        <ele>139.1</ele>
        <time>2020-02-22T13:46:59Z</time>
      </trkpt>
      <trkpt lat="38.6677480" lon="1.5608370">
        <ele>139.1</ele>
        <time>2020-02-22T13:47:00Z</time>
      </trkpt>
      <trkpt lat="38.6677480" lon="1.5608370">
        <ele>139.1</ele>
        <time>2020-02-22T13:47:01Z</time>
      </trkpt>
      <trkpt lat="38.6677180" lon="1.5609970">
        <ele>139.1</ele>
        <time>2020-02-22T13:47:02Z</time>
      </trkpt>
      <trkpt lat="38.6677180" lon="1.5609970">
        <ele>139.1</ele>
        <time>2020-02-22T13:47:03Z</time>
      </trkpt>
      <trkpt lat="38.6676870" lon="1.5611650">
        <ele>138.1</ele>
        <time>2020-02-22T13:47:04Z</time>
      </trkpt>
      <trkpt lat="38.6676870" lon="1.5611650">
        <ele>138.1</ele>
        <time>2020-02-22T13:47:05Z</time>
      </trkpt>
      <trkpt lat="38.6676520" lon="1.5613470">
        <ele>138.1</ele>
        <time>2020-02-22T13:47:06Z</time>
      </trkpt>
      <trkpt lat="38.6676520" lon="1.5613470">
        <ele>138.1</ele>
        <time>2020-02-22T13:47:07Z</time>
      </trkpt>
      <trkpt lat="38.6676170" lon="1.5615370">
        <ele>138.1</ele>
        <time>2020-02-22T13:47:08Z</time>
      </trkpt>
      <trkpt lat="38.6675980" lon="1.5616330">
        <ele>137.1</ele>
        <time>2020-02-22T13:47:09Z</time>
      </trkpt>
      <trkpt lat="38.6675800" lon="1.5617320">
        <ele>137.1</ele>
        <time>2020-02-22T13:47:10Z</time>
      </trkpt>
      <trkpt lat="38.6675800" lon="1.5617320">
        <ele>137.1</ele>
        <time>2020-02-22T13:47:11Z</time>
      </trkpt>
      <trkpt lat="38.6675470" lon="1.5619370">
        <ele>137.1</ele>
        <time>2020-02-22T13:47:12Z</time>
      </trkpt>
      <trkpt lat="38.6675470" lon="1.5619370">
        <ele>136.1</ele>
        <time>2020-02-22T13:47:13Z</time>
      </trkpt>
      <trkpt lat="38.6675080" lon="1.5621430">
        <ele>136.1</ele>
        <time>2020-02-22T13:47:14Z</time>
      </trkpt>
      <trkpt lat="38.6675080" lon="1.5621430">
        <ele>136.1</ele>
        <time>2020-02-22T13:47:15Z</time>
      </trkpt>
      <trkpt lat="38.6674680" lon="1.5623550">
        <ele>136.1</ele>
        <time>2020-02-22T13:47:16Z</time>
      </trkpt>
      <trkpt lat="38.6674680" lon="1.5623550">
        <ele>135.1</ele>
        <time>2020-02-22T13:47:17Z</time>
      </trkpt>
      <trkpt lat="38.6674320" lon="1.5625680">
        <ele>135.1</ele>
        <time>2020-02-22T13:47:18Z</time>
      </trkpt>
      <trkpt lat="38.6674320" lon="1.5625680">
        <ele>135.1</ele>
        <time>2020-02-22T13:47:19Z</time>
      </trkpt>
      <trkpt lat="38.6673930" lon="1.5627830">
        <ele>135.1</ele>
        <time>2020-02-22T13:47:20Z</time>
      </trkpt>
      <trkpt lat="38.6673930" lon="1.5627830">
        <ele>135.1</ele>
        <time>2020-02-22T13:47:21Z</time>
      </trkpt>
      <trkpt lat="38.6673570" lon="1.5630020">
        <ele>135.1</ele>
        <time>2020-02-22T13:47:22Z</time>
      </trkpt>
      <trkpt lat="38.6673370" lon="1.5631120">
        <ele>135.1</ele>
        <time>2020-02-22T13:47:23Z</time>
      </trkpt>
      <trkpt lat="38.6673180" lon="1.5632220">
        <ele>135.1</ele>
        <time>2020-02-22T13:47:24Z</time>
      </trkpt>
      <trkpt lat="38.6673180" lon="1.5632220">
        <ele>134.1</ele>
        <time>2020-02-22T13:47:25Z</time>
      </trkpt>
      <trkpt lat="38.6672780" lon="1.5634450">
        <ele>134.1</ele>
        <time>2020-02-22T13:47:26Z</time>
      </trkpt>
      <trkpt lat="38.6672780" lon="1.5634450">
        <ele>133.1</ele>
        <time>2020-02-22T13:47:27Z</time>
      </trkpt>
      <trkpt lat="38.6672370" lon="1.5636750">
        <ele>134.1</ele>
        <time>2020-02-22T13:47:28Z</time>
      </trkpt>
      <trkpt lat="38.6672370" lon="1.5636750">
        <ele>134.1</ele>
        <time>2020-02-22T13:47:29Z</time>
      </trkpt>
      <trkpt lat="38.6671970" lon="1.5639020">
        <ele>133.1</ele>
        <time>2020-02-22T13:47:30Z</time>
      </trkpt>
      <trkpt lat="38.6671970" lon="1.5639020">
        <ele>133.1</ele>
        <time>2020-02-22T13:47:31Z</time>
      </trkpt>
      <trkpt lat="38.6671580" lon="1.5641280">
        <ele>134.1</ele>
        <time>2020-02-22T13:47:32Z</time>
      </trkpt>
      <trkpt lat="38.6671580" lon="1.5641280">
        <ele>134.1</ele>
        <time>2020-02-22T13:47:33Z</time>
      </trkpt>
      <trkpt lat="38.6671200" lon="1.5643500">
        <ele>132.1</ele>
        <time>2020-02-22T13:47:34Z</time>
      </trkpt>
      <trkpt lat="38.6671200" lon="1.5643500">
        <ele>132.1</ele>
        <time>2020-02-22T13:47:35Z</time>
      </trkpt>
      <trkpt lat="38.6670730" lon="1.5645670">
        <ele>131.1</ele>
        <time>2020-02-22T13:47:36Z</time>
      </trkpt>
      <trkpt lat="38.6670730" lon="1.5645670">
        <ele>131.1</ele>
        <time>2020-02-22T13:47:37Z</time>
      </trkpt>
      <trkpt lat="38.6670280" lon="1.5647850">
        <ele>131.1</ele>
        <time>2020-02-22T13:47:38Z</time>
      </trkpt>
      <trkpt lat="38.6670280" lon="1.5647850">
        <ele>131.1</ele>
        <time>2020-02-22T13:47:39Z</time>
      </trkpt>
      <trkpt lat="38.6669850" lon="1.5650050">
        <ele>131.1</ele>
        <time>2020-02-22T13:47:40Z</time>
      </trkpt>
      <trkpt lat="38.6669850" lon="1.5650050">
        <ele>131.1</ele>
        <time>2020-02-22T13:47:41Z</time>
      </trkpt>
      <trkpt lat="38.6669450" lon="1.5652270">
        <ele>130.1</ele>
        <time>2020-02-22T13:47:42Z</time>
      </trkpt>
      <trkpt lat="38.6669450" lon="1.5652270">
        <ele>130.1</ele>
        <time>2020-02-22T13:47:43Z</time>
      </trkpt>
      <trkpt lat="38.6669030" lon="1.5654470">
        <ele>130.1</ele>
        <time>2020-02-22T13:47:44Z</time>
      </trkpt>
      <trkpt lat="38.6669030" lon="1.5654470">
        <ele>130.1</ele>
        <time>2020-02-22T13:47:45Z</time>
      </trkpt>
      <trkpt lat="38.6668630" lon="1.5656700">
        <ele>129.1</ele>
        <time>2020-02-22T13:47:46Z</time>
      </trkpt>
      <trkpt lat="38.6668630" lon="1.5656700">
        <ele>129.1</ele>
        <time>2020-02-22T13:47:47Z</time>
      </trkpt>
      <trkpt lat="38.6668230" lon="1.5658920">
        <ele>129.1</ele>
        <time>2020-02-22T13:47:48Z</time>
      </trkpt>
      <trkpt lat="38.6668230" lon="1.5658920">
        <ele>129.1</ele>
        <time>2020-02-22T13:47:49Z</time>
      </trkpt>
      <trkpt lat="38.6667820" lon="1.5661150">
        <ele>129.1</ele>
        <time>2020-02-22T13:47:50Z</time>
      </trkpt>
      <trkpt lat="38.6667820" lon="1.5661150">
        <ele>129.1</ele>
        <time>2020-02-22T13:47:51Z</time>
      </trkpt>
      <trkpt lat="38.6667420" lon="1.5663420">
        <ele>129.1</ele>
        <time>2020-02-22T13:47:52Z</time>
      </trkpt>
      <trkpt lat="38.6667200" lon="1.5664550">
        <ele>128.1</ele>
        <time>2020-02-22T13:47:53Z</time>
      </trkpt>
      <trkpt lat="38.6666980" lon="1.5665670">
        <ele>128.1</ele>
        <time>2020-02-22T13:47:54Z</time>
      </trkpt>
      <trkpt lat="38.6666980" lon="1.5665670">
        <ele>128.1</ele>
        <time>2020-02-22T13:47:55Z</time>
      </trkpt>
      <trkpt lat="38.6666580" lon="1.5667870">
        <ele>128.1</ele>
        <time>2020-02-22T13:47:56Z</time>
      </trkpt>
      <trkpt lat="38.6666580" lon="1.5667870">
        <ele>128.1</ele>
        <time>2020-02-22T13:47:57Z</time>
      </trkpt>
      <trkpt lat="38.6666250" lon="1.5670070">
        <ele>128.1</ele>
        <time>2020-02-22T13:47:58Z</time>
      </trkpt>
      <trkpt lat="38.6666020" lon="1.5671120">
        <ele>128.1</ele>
        <time>2020-02-22T13:47:59Z</time>
      </trkpt>
      <trkpt lat="38.6665770" lon="1.5672170">
        <ele>128.1</ele>
        <time>2020-02-22T13:48:00Z</time>
      </trkpt>
      <trkpt lat="38.6665770" lon="1.5672170">
        <ele>127.1</ele>
        <time>2020-02-22T13:48:01Z</time>
      </trkpt>
      <trkpt lat="38.6665370" lon="1.5674300">
        <ele>127.1</ele>
        <time>2020-02-22T13:48:02Z</time>
      </trkpt>
      <trkpt lat="38.6665180" lon="1.5675370">
        <ele>127.1</ele>
        <time>2020-02-22T13:48:03Z</time>
      </trkpt>
      <trkpt lat="38.6665180" lon="1.5675370">
        <ele>127.1</ele>
        <time>2020-02-22T13:48:04Z</time>
      </trkpt>
      <trkpt lat="38.6664800" lon="1.5677500">
        <ele>127.1</ele>
        <time>2020-02-22T13:48:05Z</time>
      </trkpt>
      <trkpt lat="38.6664600" lon="1.5678570">
        <ele>126.1</ele>
        <time>2020-02-22T13:48:06Z</time>
      </trkpt>
      <trkpt lat="38.6664600" lon="1.5678570">
        <ele>126.1</ele>
        <time>2020-02-22T13:48:07Z</time>
      </trkpt>
      <trkpt lat="38.6664180" lon="1.5680650">
        <ele>126.1</ele>
        <time>2020-02-22T13:48:08Z</time>
      </trkpt>
      <trkpt lat="38.6663980" lon="1.5681700">
        <ele>126.1</ele>
        <time>2020-02-22T13:48:09Z</time>
      </trkpt>
      <trkpt lat="38.6663780" lon="1.5682730">
        <ele>126.1</ele>
        <time>2020-02-22T13:48:10Z</time>
      </trkpt>
      <trkpt lat="38.6663780" lon="1.5682730">
        <ele>126.1</ele>
        <time>2020-02-22T13:48:11Z</time>
      </trkpt>
      <trkpt lat="38.6663400" lon="1.5684750">
        <ele>126.1</ele>
        <time>2020-02-22T13:48:12Z</time>
      </trkpt>
      <trkpt lat="38.6663400" lon="1.5684750">
        <ele>126.1</ele>
        <time>2020-02-22T13:48:13Z</time>
      </trkpt>
      <trkpt lat="38.6663000" lon="1.5686650">
        <ele>125.1</ele>
        <time>2020-02-22T13:48:14Z</time>
      </trkpt>
      <trkpt lat="38.6663000" lon="1.5686650">
        <ele>125.1</ele>
        <time>2020-02-22T13:48:15Z</time>
      </trkpt>
      <trkpt lat="38.6662670" lon="1.5688370">
        <ele>125.1</ele>
        <time>2020-02-22T13:48:16Z</time>
      </trkpt>
      <trkpt lat="38.6662670" lon="1.5688370">
        <ele>125.1</ele>
        <time>2020-02-22T13:48:17Z</time>
      </trkpt>
      <trkpt lat="38.6662500" lon="1.5689580">
        <ele>125.1</ele>
        <time>2020-02-22T13:48:18Z</time>
      </trkpt>
      <trkpt lat="38.6662500" lon="1.5689580">
        <ele>125.1</ele>
        <time>2020-02-22T13:48:19Z</time>
      </trkpt>
      <trkpt lat="38.6662730" lon="1.5689770">
        <ele>125.1</ele>
        <time>2020-02-22T13:48:20Z</time>
      </trkpt>
      <trkpt lat="38.6662730" lon="1.5689770">
        <ele>125.1</ele>
        <time>2020-02-22T13:48:21Z</time>
      </trkpt>
      <trkpt lat="38.6662800" lon="1.5689230">
        <ele>125.1</ele>
        <time>2020-02-22T13:48:22Z</time>
      </trkpt>
      <trkpt lat="38.6662800" lon="1.5689230">
        <ele>126.1</ele>
        <time>2020-02-22T13:48:23Z</time>
      </trkpt>
      <trkpt lat="38.6663000" lon="1.5688530">
        <ele>126.1</ele>
        <time>2020-02-22T13:48:24Z</time>
      </trkpt>
      <trkpt lat="38.6663000" lon="1.5688530">
        <ele>126.1</ele>
        <time>2020-02-22T13:48:25Z</time>
      </trkpt>
      <trkpt lat="38.6663170" lon="1.5687800">
        <ele>126.1</ele>
        <time>2020-02-22T13:48:26Z</time>
      </trkpt>
      <trkpt lat="38.6663170" lon="1.5687800">
        <ele>126.1</ele>
        <time>2020-02-22T13:48:27Z</time>
      </trkpt>
      <trkpt lat="38.6663320" lon="1.5687000">
        <ele>126.1</ele>
        <time>2020-02-22T13:48:28Z</time>
      </trkpt>
      <trkpt lat="38.6663320" lon="1.5687000">
        <ele>126.1</ele>
        <time>2020-02-22T13:48:29Z</time>
      </trkpt>
      <trkpt lat="38.6663520" lon="1.5685900">
        <ele>126.1</ele>
        <time>2020-02-22T13:48:30Z</time>
      </trkpt>
      <trkpt lat="38.6663520" lon="1.5685900">
        <ele>126.1</ele>
        <time>2020-02-22T13:48:31Z</time>
      </trkpt>
      <trkpt lat="38.6663800" lon="1.5684530">
        <ele>126.1</ele>
        <time>2020-02-22T13:48:32Z</time>
      </trkpt>
      <trkpt lat="38.6663800" lon="1.5684530">
        <ele>126.1</ele>
        <time>2020-02-22T13:48:33Z</time>
      </trkpt>
      <trkpt lat="38.6664050" lon="1.5683120">
        <ele>126.1</ele>
        <time>2020-02-22T13:48:34Z</time>
      </trkpt>
      <trkpt lat="38.6664050" lon="1.5683120">
        <ele>126.1</ele>
        <time>2020-02-22T13:48:35Z</time>
      </trkpt>
      <trkpt lat="38.6664280" lon="1.5681730">
        <ele>126.1</ele>
        <time>2020-02-22T13:48:36Z</time>
      </trkpt>
      <trkpt lat="38.6664280" lon="1.5681730">
        <ele>126.1</ele>
        <time>2020-02-22T13:48:37Z</time>
      </trkpt>
      <trkpt lat="38.6664550" lon="1.5680370">
        <ele>126.1</ele>
        <time>2020-02-22T13:48:38Z</time>
      </trkpt>
      <trkpt lat="38.6664670" lon="1.5679670">
        <ele>126.1</ele>
        <time>2020-02-22T13:48:39Z</time>
      </trkpt>
      <trkpt lat="38.6664800" lon="1.5678980">
        <ele>126.1</ele>
        <time>2020-02-22T13:48:40Z</time>
      </trkpt>
      <trkpt lat="38.6664800" lon="1.5678980">
        <ele>126.1</ele>
        <time>2020-02-22T13:48:41Z</time>
      </trkpt>
      <trkpt lat="38.6665070" lon="1.5677580">
        <ele>126.1</ele>
        <time>2020-02-22T13:48:42Z</time>
      </trkpt>
      <trkpt lat="38.6665070" lon="1.5677580">
        <ele>126.1</ele>
        <time>2020-02-22T13:48:43Z</time>
      </trkpt>
      <trkpt lat="38.6665350" lon="1.5676220">
        <ele>126.1</ele>
        <time>2020-02-22T13:48:44Z</time>
      </trkpt>
      <trkpt lat="38.6665470" lon="1.5675520">
        <ele>126.1</ele>
        <time>2020-02-22T13:48:45Z</time>
      </trkpt>
      <trkpt lat="38.6665580" lon="1.5674820">
        <ele>126.1</ele>
        <time>2020-02-22T13:48:46Z</time>
      </trkpt>
      <trkpt lat="38.6665580" lon="1.5674820">
        <ele>126.1</ele>
        <time>2020-02-22T13:48:47Z</time>
      </trkpt>
      <trkpt lat="38.6665830" lon="1.5673450">
        <ele>127.1</ele>
        <time>2020-02-22T13:48:48Z</time>
      </trkpt>
      <trkpt lat="38.6665830" lon="1.5673450">
        <ele>127.1</ele>
        <time>2020-02-22T13:48:49Z</time>
      </trkpt>
      <trkpt lat="38.6666080" lon="1.5672070">
        <ele>127.1</ele>
        <time>2020-02-22T13:48:50Z</time>
      </trkpt>
      <trkpt lat="38.6666080" lon="1.5672070">
        <ele>127.1</ele>
        <time>2020-02-22T13:48:51Z</time>
      </trkpt>
      <trkpt lat="38.6666330" lon="1.5670700">
        <ele>127.1</ele>
        <time>2020-02-22T13:48:52Z</time>
      </trkpt>
      <trkpt lat="38.6666330" lon="1.5670700">
        <ele>127.1</ele>
        <time>2020-02-22T13:48:53Z</time>
      </trkpt>
      <trkpt lat="38.6666600" lon="1.5669320">
        <ele>127.1</ele>
        <time>2020-02-22T13:48:54Z</time>
      </trkpt>
      <trkpt lat="38.6666600" lon="1.5669320">
        <ele>127.1</ele>
        <time>2020-02-22T13:48:55Z</time>
      </trkpt>
      <trkpt lat="38.6666850" lon="1.5667930">
        <ele>128.1</ele>
        <time>2020-02-22T13:48:56Z</time>
      </trkpt>
      <trkpt lat="38.6666980" lon="1.5667250">
        <ele>128.1</ele>
        <time>2020-02-22T13:48:57Z</time>
      </trkpt>
      <trkpt lat="38.6667100" lon="1.5666550">
        <ele>128.1</ele>
        <time>2020-02-22T13:48:58Z</time>
      </trkpt>
      <trkpt lat="38.6667100" lon="1.5666550">
        <ele>128.1</ele>
        <time>2020-02-22T13:48:59Z</time>
      </trkpt>
      <trkpt lat="38.6667350" lon="1.5665130">
        <ele>128.1</ele>
        <time>2020-02-22T13:49:00Z</time>
      </trkpt>
      <trkpt lat="38.6667350" lon="1.5665130">
        <ele>128.1</ele>
        <time>2020-02-22T13:49:01Z</time>
      </trkpt>
      <trkpt lat="38.6667620" lon="1.5663730">
        <ele>128.1</ele>
        <time>2020-02-22T13:49:02Z</time>
      </trkpt>
      <trkpt lat="38.6667620" lon="1.5663730">
        <ele>128.1</ele>
        <time>2020-02-22T13:49:03Z</time>
      </trkpt>
      <trkpt lat="38.6667870" lon="1.5662350">
        <ele>128.1</ele>
        <time>2020-02-22T13:49:04Z</time>
      </trkpt>
      <trkpt lat="38.6667870" lon="1.5662350">
        <ele>128.1</ele>
        <time>2020-02-22T13:49:05Z</time>
      </trkpt>
      <trkpt lat="38.6668080" lon="1.5660970">
        <ele>128.1</ele>
        <time>2020-02-22T13:49:06Z</time>
      </trkpt>
      <trkpt lat="38.6668080" lon="1.5660970">
        <ele>128.1</ele>
        <time>2020-02-22T13:49:07Z</time>
      </trkpt>
      <trkpt lat="38.6668320" lon="1.5659620">
        <ele>128.1</ele>
        <time>2020-02-22T13:49:08Z</time>
      </trkpt>
      <trkpt lat="38.6668450" lon="1.5658950">
        <ele>128.1</ele>
        <time>2020-02-22T13:49:09Z</time>
      </trkpt>
      <trkpt lat="38.6668450" lon="1.5658950">
        <ele>128.1</ele>
        <time>2020-02-22T13:49:10Z</time>
      </trkpt>
      <trkpt lat="38.6668700" lon="1.5657550">
        <ele>128.1</ele>
        <time>2020-02-22T13:49:11Z</time>
      </trkpt>
      <trkpt lat="38.6668850" lon="1.5656830">
        <ele>128.1</ele>
        <time>2020-02-22T13:49:12Z</time>
      </trkpt>
      <trkpt lat="38.6668850" lon="1.5656830">
        <ele>128.1</ele>
        <time>2020-02-22T13:49:13Z</time>
      </trkpt>
      <trkpt lat="38.6669170" lon="1.5655330">
        <ele>128.1</ele>
        <time>2020-02-22T13:49:14Z</time>
      </trkpt>
      <trkpt lat="38.6669170" lon="1.5655330">
        <ele>128.1</ele>
        <time>2020-02-22T13:49:15Z</time>
      </trkpt>
      <trkpt lat="38.6669450" lon="1.5653730">
        <ele>128.1</ele>
        <time>2020-02-22T13:49:16Z</time>
      </trkpt>
      <trkpt lat="38.6669450" lon="1.5653730">
        <ele>128.1</ele>
        <time>2020-02-22T13:49:17Z</time>
      </trkpt>
      <trkpt lat="38.6669770" lon="1.5652150">
        <ele>128.1</ele>
        <time>2020-02-22T13:49:18Z</time>
      </trkpt>
      <trkpt lat="38.6669900" lon="1.5651380">
        <ele>129.1</ele>
        <time>2020-02-22T13:49:19Z</time>
      </trkpt>
      <trkpt lat="38.6670030" lon="1.5650650">
        <ele>129.1</ele>
        <time>2020-02-22T13:49:20Z</time>
      </trkpt>
      <trkpt lat="38.6670030" lon="1.5650650">
        <ele>129.1</ele>
        <time>2020-02-22T13:49:21Z</time>
      </trkpt>
      <trkpt lat="38.6670270" lon="1.5649200">
        <ele>129.1</ele>
        <time>2020-02-22T13:49:22Z</time>
      </trkpt>
      <trkpt lat="38.6670270" lon="1.5649200">
        <ele>129.1</ele>
        <time>2020-02-22T13:49:23Z</time>
      </trkpt>
      <trkpt lat="38.6670470" lon="1.5647800">
        <ele>130.1</ele>
        <time>2020-02-22T13:49:24Z</time>
      </trkpt>
      <trkpt lat="38.6670470" lon="1.5647800">
        <ele>130.1</ele>
        <time>2020-02-22T13:49:25Z</time>
      </trkpt>
      <trkpt lat="38.6670750" lon="1.5646380">
        <ele>130.1</ele>
        <time>2020-02-22T13:49:26Z</time>
      </trkpt>
      <trkpt lat="38.6670750" lon="1.5646380">
        <ele>130.1</ele>
        <time>2020-02-22T13:49:27Z</time>
      </trkpt>
      <trkpt lat="38.6671050" lon="1.5644930">
        <ele>130.1</ele>
        <time>2020-02-22T13:49:28Z</time>
      </trkpt>
      <trkpt lat="38.6671200" lon="1.5644180">
        <ele>131.1</ele>
        <time>2020-02-22T13:49:29Z</time>
      </trkpt>
      <trkpt lat="38.6671330" lon="1.5643450">
        <ele>131.1</ele>
        <time>2020-02-22T13:49:30Z</time>
      </trkpt>
      <trkpt lat="38.6671330" lon="1.5643450">
        <ele>131.1</ele>
        <time>2020-02-22T13:49:31Z</time>
      </trkpt>
      <trkpt lat="38.6671630" lon="1.5642020">
        <ele>131.1</ele>
        <time>2020-02-22T13:49:32Z</time>
      </trkpt>
      <trkpt lat="38.6671630" lon="1.5642020">
        <ele>131.1</ele>
        <time>2020-02-22T13:49:33Z</time>
      </trkpt>
      <trkpt lat="38.6671900" lon="1.5640620">
        <ele>131.1</ele>
        <time>2020-02-22T13:49:34Z</time>
      </trkpt>
      <trkpt lat="38.6671900" lon="1.5640620">
        <ele>131.1</ele>
        <time>2020-02-22T13:49:35Z</time>
      </trkpt>
      <trkpt lat="38.6672170" lon="1.5639320">
        <ele>131.1</ele>
        <time>2020-02-22T13:49:36Z</time>
      </trkpt>
      <trkpt lat="38.6672170" lon="1.5639320">
        <ele>132.1</ele>
        <time>2020-02-22T13:49:37Z</time>
      </trkpt>
      <trkpt lat="38.6672380" lon="1.5638150">
        <ele>132.1</ele>
        <time>2020-02-22T13:49:38Z</time>
      </trkpt>
      <trkpt lat="38.6672480" lon="1.5637580">
        <ele>132.1</ele>
        <time>2020-02-22T13:49:39Z</time>
      </trkpt>
      <trkpt lat="38.6672480" lon="1.5637580">
        <ele>132.1</ele>
        <time>2020-02-22T13:49:40Z</time>
      </trkpt>
      <trkpt lat="38.6672680" lon="1.5636380">
        <ele>132.1</ele>
        <time>2020-02-22T13:49:41Z</time>
      </trkpt>
      <trkpt lat="38.6672800" lon="1.5635780">
        <ele>132.1</ele>
        <time>2020-02-22T13:49:42Z</time>
      </trkpt>
      <trkpt lat="38.6672800" lon="1.5635780">
        <ele>132.1</ele>
        <time>2020-02-22T13:49:43Z</time>
      </trkpt>
      <trkpt lat="38.6673000" lon="1.5634670">
        <ele>133.1</ele>
        <time>2020-02-22T13:49:44Z</time>
      </trkpt>
      <trkpt lat="38.6673000" lon="1.5634670">
        <ele>133.1</ele>
        <time>2020-02-22T13:49:45Z</time>
      </trkpt>
      <trkpt lat="38.6673180" lon="1.5633570">
        <ele>133.1</ele>
        <time>2020-02-22T13:49:46Z</time>
      </trkpt>
      <trkpt lat="38.6673180" lon="1.5633570">
        <ele>133.1</ele>
        <time>2020-02-22T13:49:47Z</time>
      </trkpt>
      <trkpt lat="38.6673430" lon="1.5632400">
        <ele>133.1</ele>
        <time>2020-02-22T13:49:48Z</time>
      </trkpt>
      <trkpt lat="38.6673530" lon="1.5631780">
        <ele>133.1</ele>
        <time>2020-02-22T13:49:49Z</time>
      </trkpt>
      <trkpt lat="38.6673630" lon="1.5631170">
        <ele>133.1</ele>
        <time>2020-02-22T13:49:50Z</time>
      </trkpt>
      <trkpt lat="38.6673630" lon="1.5631170">
        <ele>133.1</ele>
        <time>2020-02-22T13:49:51Z</time>
      </trkpt>
      <trkpt lat="38.6673870" lon="1.5629920">
        <ele>133.1</ele>
        <time>2020-02-22T13:49:52Z</time>
      </trkpt>
      <trkpt lat="38.6673980" lon="1.5629280">
        <ele>133.1</ele>
        <time>2020-02-22T13:49:53Z</time>
      </trkpt>
      <trkpt lat="38.6673980" lon="1.5629280">
        <ele>133.1</ele>
        <time>2020-02-22T13:49:54Z</time>
      </trkpt>
      <trkpt lat="38.6674220" lon="1.5628020">
        <ele>133.1</ele>
        <time>2020-02-22T13:49:55Z</time>
      </trkpt>
      <trkpt lat="38.6674220" lon="1.5628020">
        <ele>133.1</ele>
        <time>2020-02-22T13:49:56Z</time>
      </trkpt>
      <trkpt lat="38.6674430" lon="1.5626730">
        <ele>133.1</ele>
        <time>2020-02-22T13:49:57Z</time>
      </trkpt>
      <trkpt lat="38.6674430" lon="1.5626730">
        <ele>134.1</ele>
        <time>2020-02-22T13:49:58Z</time>
      </trkpt>
      <trkpt lat="38.6674670" lon="1.5625500">
        <ele>134.1</ele>
        <time>2020-02-22T13:49:59Z</time>
      </trkpt>
      <trkpt lat="38.6674820" lon="1.5624900">
        <ele>134.1</ele>
        <time>2020-02-22T13:50:00Z</time>
      </trkpt>
      <trkpt lat="38.6674820" lon="1.5624900">
        <ele>134.1</ele>
        <time>2020-02-22T13:50:01Z</time>
      </trkpt>
      <trkpt lat="38.6675020" lon="1.5623830">
        <ele>134.1</ele>
        <time>2020-02-22T13:50:02Z</time>
      </trkpt>
      <trkpt lat="38.6675020" lon="1.5623830">
        <ele>134.1</ele>
        <time>2020-02-22T13:50:03Z</time>
      </trkpt>
      <trkpt lat="38.6675220" lon="1.5622820">
        <ele>135.1</ele>
        <time>2020-02-22T13:50:04Z</time>
      </trkpt>
      <trkpt lat="38.6675220" lon="1.5622820">
        <ele>135.1</ele>
        <time>2020-02-22T13:50:05Z</time>
      </trkpt>
      <trkpt lat="38.6675300" lon="1.5621820">
        <ele>135.1</ele>
        <time>2020-02-22T13:50:06Z</time>
      </trkpt>
      <trkpt lat="38.6675300" lon="1.5621820">
        <ele>135.1</ele>
        <time>2020-02-22T13:50:07Z</time>
      </trkpt>
      <trkpt lat="38.6675480" lon="1.5620950">
        <ele>135.1</ele>
        <time>2020-02-22T13:50:08Z</time>
      </trkpt>
      <trkpt lat="38.6675620" lon="1.5620520">
        <ele>135.1</ele>
        <time>2020-02-22T13:50:09Z</time>
      </trkpt>
      <trkpt lat="38.6675620" lon="1.5620520">
        <ele>136.1</ele>
        <time>2020-02-22T13:50:10Z</time>
      </trkpt>
      <trkpt lat="38.6675730" lon="1.5619600">
        <ele>136.1</ele>
        <time>2020-02-22T13:50:11Z</time>
      </trkpt>
      <trkpt lat="38.6675800" lon="1.5619130">
        <ele>136.1</ele>
        <time>2020-02-22T13:50:12Z</time>
      </trkpt>
      <trkpt lat="38.6675800" lon="1.5619130">
        <ele>136.1</ele>
        <time>2020-02-22T13:50:13Z</time>
      </trkpt>
      <trkpt lat="38.6675900" lon="1.5618170">
        <ele>136.1</ele>
        <time>2020-02-22T13:50:14Z</time>
      </trkpt>
      <trkpt lat="38.6675900" lon="1.5618170">
        <ele>136.1</ele>
        <time>2020-02-22T13:50:15Z</time>
      </trkpt>
      <trkpt lat="38.6676070" lon="1.5617200">
        <ele>136.1</ele>
        <time>2020-02-22T13:50:16Z</time>
      </trkpt>
      <trkpt lat="38.6676070" lon="1.5617200">
        <ele>136.1</ele>
        <time>2020-02-22T13:50:17Z</time>
      </trkpt>
      <trkpt lat="38.6676280" lon="1.5616200">
        <ele>136.1</ele>
        <time>2020-02-22T13:50:18Z</time>
      </trkpt>
      <trkpt lat="38.6676280" lon="1.5616200">
        <ele>136.1</ele>
        <time>2020-02-22T13:50:19Z</time>
      </trkpt>
      <trkpt lat="38.6676480" lon="1.5615220">
        <ele>136.1</ele>
        <time>2020-02-22T13:50:20Z</time>
      </trkpt>
      <trkpt lat="38.6676480" lon="1.5615220">
        <ele>136.1</ele>
        <time>2020-02-22T13:50:21Z</time>
      </trkpt>
      <trkpt lat="38.6676670" lon="1.5614250">
        <ele>136.1</ele>
        <time>2020-02-22T13:50:22Z</time>
      </trkpt>
      <trkpt lat="38.6676670" lon="1.5614250">
        <ele>136.1</ele>
        <time>2020-02-22T13:50:23Z</time>
      </trkpt>
      <trkpt lat="38.6676850" lon="1.5613220">
        <ele>136.1</ele>
        <time>2020-02-22T13:50:24Z</time>
      </trkpt>
      <trkpt lat="38.6676850" lon="1.5613220">
        <ele>136.1</ele>
        <time>2020-02-22T13:50:25Z</time>
      </trkpt>
      <trkpt lat="38.6677050" lon="1.5612080">
        <ele>136.1</ele>
        <time>2020-02-22T13:50:26Z</time>
      </trkpt>
      <trkpt lat="38.6677050" lon="1.5612080">
        <ele>136.1</ele>
        <time>2020-02-22T13:50:27Z</time>
      </trkpt>
      <trkpt lat="38.6677230" lon="1.5610920">
        <ele>136.1</ele>
        <time>2020-02-22T13:50:28Z</time>
      </trkpt>
      <trkpt lat="38.6677230" lon="1.5610920">
        <ele>138.1</ele>
        <time>2020-02-22T13:50:29Z</time>
      </trkpt>
      <trkpt lat="38.6677430" lon="1.5609770">
        <ele>138.1</ele>
        <time>2020-02-22T13:50:30Z</time>
      </trkpt>
      <trkpt lat="38.6677430" lon="1.5609770">
        <ele>138.1</ele>
        <time>2020-02-22T13:50:31Z</time>
      </trkpt>
      <trkpt lat="38.6677630" lon="1.5608630">
        <ele>138.1</ele>
        <time>2020-02-22T13:50:32Z</time>
      </trkpt>
      <trkpt lat="38.6677630" lon="1.5608630">
        <ele>138.1</ele>
        <time>2020-02-22T13:50:33Z</time>
      </trkpt>
      <trkpt lat="38.6677830" lon="1.5607500">
        <ele>138.1</ele>
        <time>2020-02-22T13:50:34Z</time>
      </trkpt>
      <trkpt lat="38.6677830" lon="1.5607500">
        <ele>138.1</ele>
        <time>2020-02-22T13:50:35Z</time>
      </trkpt>
      <trkpt lat="38.6678020" lon="1.5606350">
        <ele>139.1</ele>
        <time>2020-02-22T13:50:36Z</time>
      </trkpt>
      <trkpt lat="38.6678020" lon="1.5606350">
        <ele>139.1</ele>
        <time>2020-02-22T13:50:37Z</time>
      </trkpt>
      <trkpt lat="38.6678220" lon="1.5605200">
        <ele>139.1</ele>
        <time>2020-02-22T13:50:38Z</time>
      </trkpt>
      <trkpt lat="38.6678220" lon="1.5605200">
        <ele>139.1</ele>
        <time>2020-02-22T13:50:39Z</time>
      </trkpt>
      <trkpt lat="38.6678420" lon="1.5604030">
        <ele>139.1</ele>
        <time>2020-02-22T13:50:40Z</time>
      </trkpt>
      <trkpt lat="38.6678420" lon="1.5604030">
        <ele>139.1</ele>
        <time>2020-02-22T13:50:41Z</time>
      </trkpt>
      <trkpt lat="38.6678670" lon="1.5602850">
        <ele>139.1</ele>
        <time>2020-02-22T13:50:42Z</time>
      </trkpt>
      <trkpt lat="38.6678670" lon="1.5602850">
        <ele>139.1</ele>
        <time>2020-02-22T13:50:43Z</time>
      </trkpt>
      <trkpt lat="38.6678930" lon="1.5601630">
        <ele>139.1</ele>
        <time>2020-02-22T13:50:44Z</time>
      </trkpt>
      <trkpt lat="38.6678930" lon="1.5601630">
        <ele>139.1</ele>
        <time>2020-02-22T13:50:45Z</time>
      </trkpt>
      <trkpt lat="38.6679180" lon="1.5600420">
        <ele>139.1</ele>
        <time>2020-02-22T13:50:46Z</time>
      </trkpt>
      <trkpt lat="38.6679280" lon="1.5599820">
        <ele>139.1</ele>
        <time>2020-02-22T13:50:47Z</time>
      </trkpt>
      <trkpt lat="38.6679280" lon="1.5599820">
        <ele>139.1</ele>
        <time>2020-02-22T13:50:48Z</time>
      </trkpt>
      <trkpt lat="38.6679500" lon="1.5598630">
        <ele>139.1</ele>
        <time>2020-02-22T13:50:49Z</time>
      </trkpt>
      <trkpt lat="38.6679600" lon="1.5598050">
        <ele>140.1</ele>
        <time>2020-02-22T13:50:50Z</time>
      </trkpt>
      <trkpt lat="38.6679600" lon="1.5598050">
        <ele>140.1</ele>
        <time>2020-02-22T13:50:51Z</time>
      </trkpt>
      <trkpt lat="38.6679850" lon="1.5596870">
        <ele>140.1</ele>
        <time>2020-02-22T13:50:52Z</time>
      </trkpt>
      <trkpt lat="38.6679850" lon="1.5596870">
        <ele>140.1</ele>
        <time>2020-02-22T13:50:53Z</time>
      </trkpt>
      <trkpt lat="38.6680070" lon="1.5595670">
        <ele>140.1</ele>
        <time>2020-02-22T13:50:54Z</time>
      </trkpt>
      <trkpt lat="38.6680070" lon="1.5595670">
        <ele>140.1</ele>
        <time>2020-02-22T13:50:55Z</time>
      </trkpt>
      <trkpt lat="38.6680270" lon="1.5594470">
        <ele>140.1</ele>
        <time>2020-02-22T13:50:56Z</time>
      </trkpt>
      <trkpt lat="38.6680270" lon="1.5594470">
        <ele>141.1</ele>
        <time>2020-02-22T13:50:57Z</time>
      </trkpt>
      <trkpt lat="38.6680470" lon="1.5593250">
        <ele>141.1</ele>
        <time>2020-02-22T13:50:58Z</time>
      </trkpt>
      <trkpt lat="38.6680580" lon="1.5592630">
        <ele>141.1</ele>
        <time>2020-02-22T13:50:59Z</time>
      </trkpt>
      <trkpt lat="38.6680680" lon="1.5592020">
        <ele>141.1</ele>
        <time>2020-02-22T13:51:00Z</time>
      </trkpt>
      <trkpt lat="38.6680680" lon="1.5592020">
        <ele>141.1</ele>
        <time>2020-02-22T13:51:01Z</time>
      </trkpt>
      <trkpt lat="38.6680900" lon="1.5590820">
        <ele>141.1</ele>
        <time>2020-02-22T13:51:02Z</time>
      </trkpt>
      <trkpt lat="38.6681020" lon="1.5590230">
        <ele>141.1</ele>
        <time>2020-02-22T13:51:03Z</time>
      </trkpt>
      <trkpt lat="38.6681020" lon="1.5590230">
        <ele>141.1</ele>
        <time>2020-02-22T13:51:04Z</time>
      </trkpt>
      <trkpt lat="38.6681250" lon="1.5589070">
        <ele>141.1</ele>
        <time>2020-02-22T13:51:05Z</time>
      </trkpt>
      <trkpt lat="38.6681250" lon="1.5589070">
        <ele>141.1</ele>
        <time>2020-02-22T13:51:06Z</time>
      </trkpt>
      <trkpt lat="38.6681470" lon="1.5587900">
        <ele>141.1</ele>
        <time>2020-02-22T13:51:07Z</time>
      </trkpt>
      <trkpt lat="38.6681470" lon="1.5587900">
        <ele>141.1</ele>
        <time>2020-02-22T13:51:08Z</time>
      </trkpt>
      <trkpt lat="38.6681680" lon="1.5586720">
        <ele>142.1</ele>
        <time>2020-02-22T13:51:09Z</time>
      </trkpt>
      <trkpt lat="38.6681800" lon="1.5586120">
        <ele>142.1</ele>
        <time>2020-02-22T13:51:10Z</time>
      </trkpt>
      <trkpt lat="38.6681800" lon="1.5586120">
        <ele>142.1</ele>
        <time>2020-02-22T13:51:11Z</time>
      </trkpt>
      <trkpt lat="38.6682020" lon="1.5584920">
        <ele>142.1</ele>
        <time>2020-02-22T13:51:12Z</time>
      </trkpt>
      <trkpt lat="38.6682020" lon="1.5584920">
        <ele>142.1</ele>
        <time>2020-02-22T13:51:13Z</time>
      </trkpt>
      <trkpt lat="38.6682230" lon="1.5583700">
        <ele>142.1</ele>
        <time>2020-02-22T13:51:14Z</time>
      </trkpt>
      <trkpt lat="38.6682230" lon="1.5583700">
        <ele>142.1</ele>
        <time>2020-02-22T13:51:15Z</time>
      </trkpt>
      <trkpt lat="38.6682420" lon="1.5582500">
        <ele>142.1</ele>
        <time>2020-02-22T13:51:16Z</time>
      </trkpt>
      <trkpt lat="38.6682420" lon="1.5582500">
        <ele>142.1</ele>
        <time>2020-02-22T13:51:17Z</time>
      </trkpt>
      <trkpt lat="38.6682630" lon="1.5581350">
        <ele>142.1</ele>
        <time>2020-02-22T13:51:18Z</time>
      </trkpt>
      <trkpt lat="38.6682630" lon="1.5581350">
        <ele>142.1</ele>
        <time>2020-02-22T13:51:19Z</time>
      </trkpt>
      <trkpt lat="38.6682850" lon="1.5580230">
        <ele>142.1</ele>
        <time>2020-02-22T13:51:20Z</time>
      </trkpt>
      <trkpt lat="38.6682850" lon="1.5580230">
        <ele>142.1</ele>
        <time>2020-02-22T13:51:21Z</time>
      </trkpt>
      <trkpt lat="38.6683070" lon="1.5579070">
        <ele>142.1</ele>
        <time>2020-02-22T13:51:22Z</time>
      </trkpt>
      <trkpt lat="38.6683070" lon="1.5579070">
        <ele>142.1</ele>
        <time>2020-02-22T13:51:23Z</time>
      </trkpt>
      <trkpt lat="38.6683320" lon="1.5577880">
        <ele>143.1</ele>
        <time>2020-02-22T13:51:24Z</time>
      </trkpt>
      <trkpt lat="38.6683320" lon="1.5577880">
        <ele>143.1</ele>
        <time>2020-02-22T13:51:25Z</time>
      </trkpt>
      <trkpt lat="38.6683570" lon="1.5576650">
        <ele>143.1</ele>
        <time>2020-02-22T13:51:26Z</time>
      </trkpt>
      <trkpt lat="38.6683680" lon="1.5576030">
        <ele>143.1</ele>
        <time>2020-02-22T13:51:27Z</time>
      </trkpt>
      <trkpt lat="38.6683680" lon="1.5576030">
        <ele>143.1</ele>
        <time>2020-02-22T13:51:28Z</time>
      </trkpt>
      <trkpt lat="38.6683880" lon="1.5574750">
        <ele>143.1</ele>
        <time>2020-02-22T13:51:29Z</time>
      </trkpt>
      <trkpt lat="38.6684000" lon="1.5574120">
        <ele>143.1</ele>
        <time>2020-02-22T13:51:30Z</time>
      </trkpt>
      <trkpt lat="38.6684000" lon="1.5574120">
        <ele>143.1</ele>
        <time>2020-02-22T13:51:31Z</time>
      </trkpt>
      <trkpt lat="38.6684220" lon="1.5572950">
        <ele>143.1</ele>
        <time>2020-02-22T13:51:32Z</time>
      </trkpt>
      <trkpt lat="38.6684220" lon="1.5572950">
        <ele>143.1</ele>
        <time>2020-02-22T13:51:33Z</time>
      </trkpt>
      <trkpt lat="38.6684420" lon="1.5571770">
        <ele>143.1</ele>
        <time>2020-02-22T13:51:34Z</time>
      </trkpt>
      <trkpt lat="38.6684480" lon="1.5571130">
        <ele>143.1</ele>
        <time>2020-02-22T13:51:35Z</time>
      </trkpt>
      <trkpt lat="38.6684480" lon="1.5571130">
        <ele>143.1</ele>
        <time>2020-02-22T13:51:36Z</time>
      </trkpt>
      <trkpt lat="38.6684670" lon="1.5570070">
        <ele>143.1</ele>
        <time>2020-02-22T13:51:37Z</time>
      </trkpt>
      <trkpt lat="38.6684750" lon="1.5569620">
        <ele>143.1</ele>
        <time>2020-02-22T13:51:38Z</time>
      </trkpt>
      <trkpt lat="38.6684750" lon="1.5569620">
        <ele>143.1</ele>
        <time>2020-02-22T13:51:39Z</time>
      </trkpt>
      <trkpt lat="38.6684950" lon="1.5568830">
        <ele>143.1</ele>
        <time>2020-02-22T13:51:40Z</time>
      </trkpt>
      <trkpt lat="38.6684950" lon="1.5568830">
        <ele>144.1</ele>
        <time>2020-02-22T13:51:41Z</time>
      </trkpt>
      <trkpt lat="38.6685130" lon="1.5568100">
        <ele>144.1</ele>
        <time>2020-02-22T13:51:42Z</time>
      </trkpt>
      <trkpt lat="38.6685130" lon="1.5568100">
        <ele>144.1</ele>
        <time>2020-02-22T13:51:43Z</time>
      </trkpt>
      <trkpt lat="38.6685300" lon="1.5567480">
        <ele>144.1</ele>
        <time>2020-02-22T13:51:44Z</time>
      </trkpt>
      <trkpt lat="38.6685300" lon="1.5567480">
        <ele>144.1</ele>
        <time>2020-02-22T13:51:45Z</time>
      </trkpt>
      <trkpt lat="38.6685300" lon="1.5566950">
        <ele>144.1</ele>
        <time>2020-02-22T13:51:46Z</time>
      </trkpt>
      <trkpt lat="38.6685300" lon="1.5566730">
        <ele>144.1</ele>
        <time>2020-02-22T13:51:47Z</time>
      </trkpt>
      <trkpt lat="38.6685280" lon="1.5566530">
        <ele>144.1</ele>
        <time>2020-02-22T13:51:48Z</time>
      </trkpt>
      <trkpt lat="38.6685280" lon="1.5566530">
        <ele>144.1</ele>
        <time>2020-02-22T13:51:49Z</time>
      </trkpt>
      <trkpt lat="38.6685280" lon="1.5566180">
        <ele>144.1</ele>
        <time>2020-02-22T13:51:50Z</time>
      </trkpt>
      <trkpt lat="38.6685280" lon="1.5566180">
        <ele>144.1</ele>
        <time>2020-02-22T13:51:51Z</time>
      </trkpt>
      <trkpt lat="38.6685350" lon="1.5565920">
        <ele>144.1</ele>
        <time>2020-02-22T13:51:52Z</time>
      </trkpt>
      <trkpt lat="38.6685350" lon="1.5565920">
        <ele>144.1</ele>
        <time>2020-02-22T13:51:53Z</time>
      </trkpt>
      <trkpt lat="38.6685350" lon="1.5565870">
        <ele>144.1</ele>
        <time>2020-02-22T13:51:54Z</time>
      </trkpt>
      <trkpt lat="38.6685520" lon="1.5565530">
        <ele>144.1</ele>
        <time>2020-02-22T13:52:10Z</time>
      </trkpt>
      <trkpt lat="38.6685520" lon="1.5565530">
        <ele>144.1</ele>
        <time>2020-02-22T13:52:11Z</time>
      </trkpt>
      <trkpt lat="38.6685580" lon="1.5565380">
        <ele>144.1</ele>
        <time>2020-02-22T13:52:12Z</time>
      </trkpt>
      <trkpt lat="38.6685580" lon="1.5565380">
        <ele>144.1</ele>
        <time>2020-02-22T13:52:13Z</time>
      </trkpt>
      <trkpt lat="38.6685580" lon="1.5565350">
        <ele>144.1</ele>
        <time>2020-02-22T13:52:14Z</time>
      </trkpt>
      <trkpt lat="38.6685580" lon="1.5565350">
        <ele>144.1</ele>
        <time>2020-02-22T13:52:15Z</time>
      </trkpt>
      <trkpt lat="38.6695350" lon="1.5547530">
        <ele>148.1</ele>
        <time>2020-02-22T14:02:42Z</time>
      </trkpt>
      <trkpt lat="38.6695700" lon="1.5546800">
        <ele>148.1</ele>
        <time>2020-02-22T14:02:43Z</time>
      </trkpt>
      <trkpt lat="38.6695700" lon="1.5546800">
        <ele>145.1</ele>
        <time>2020-02-22T14:02:44Z</time>
      </trkpt>
      <trkpt lat="38.6696380" lon="1.5545330">
        <ele>145.1</ele>
        <time>2020-02-22T14:02:45Z</time>
      </trkpt>
      <trkpt lat="38.6696720" lon="1.5544570">
        <ele>144.1</ele>
        <time>2020-02-22T14:02:46Z</time>
      </trkpt>
      <trkpt lat="38.6696720" lon="1.5544570">
        <ele>144.1</ele>
        <time>2020-02-22T14:02:47Z</time>
      </trkpt>
      <trkpt lat="38.6697370" lon="1.5543020">
        <ele>144.1</ele>
        <time>2020-02-22T14:02:48Z</time>
      </trkpt>
      <trkpt lat="38.6697720" lon="1.5542230">
        <ele>144.1</ele>
        <time>2020-02-22T14:02:49Z</time>
      </trkpt>
      <trkpt lat="38.6697720" lon="1.5542230">
        <ele>144.1</ele>
        <time>2020-02-22T14:02:50Z</time>
      </trkpt>
      <trkpt lat="38.6698430" lon="1.5540670">
        <ele>144.1</ele>
        <time>2020-02-22T14:02:51Z</time>
      </trkpt>
      <trkpt lat="38.6698430" lon="1.5540670">
        <ele>144.1</ele>
        <time>2020-02-22T14:02:52Z</time>
      </trkpt>
      <trkpt lat="38.6699150" lon="1.5539120">
        <ele>144.1</ele>
        <time>2020-02-22T14:02:53Z</time>
      </trkpt>
      <trkpt lat="38.6699150" lon="1.5539120">
        <ele>144.1</ele>
        <time>2020-02-22T14:02:54Z</time>
      </trkpt>
      <trkpt lat="38.6699850" lon="1.5537670">
        <ele>144.1</ele>
        <time>2020-02-22T14:02:55Z</time>
      </trkpt>
      <trkpt lat="38.6699850" lon="1.5537670">
        <ele>144.1</ele>
        <time>2020-02-22T14:02:56Z</time>
      </trkpt>
      <trkpt lat="38.6700500" lon="1.5536250">
        <ele>144.1</ele>
        <time>2020-02-22T14:02:57Z</time>
      </trkpt>
      <trkpt lat="38.6700800" lon="1.5535570">
        <ele>144.1</ele>
        <time>2020-02-22T14:02:58Z</time>
      </trkpt>
      <trkpt lat="38.6700800" lon="1.5535570">
        <ele>145.1</ele>
        <time>2020-02-22T14:02:59Z</time>
      </trkpt>
      <trkpt lat="38.6701450" lon="1.5534180">
        <ele>145.1</ele>
        <time>2020-02-22T14:03:00Z</time>
      </trkpt>
      <trkpt lat="38.6701450" lon="1.5534180">
        <ele>145.1</ele>
        <time>2020-02-22T14:03:01Z</time>
      </trkpt>
      <trkpt lat="38.6702170" lon="1.5532670">
        <ele>145.1</ele>
        <time>2020-02-22T14:03:02Z</time>
      </trkpt>
      <trkpt lat="38.6702170" lon="1.5532670">
        <ele>145.1</ele>
        <time>2020-02-22T14:03:03Z</time>
      </trkpt>
      <trkpt lat="38.6702830" lon="1.5531030">
        <ele>145.1</ele>
        <time>2020-02-22T14:03:04Z</time>
      </trkpt>
      <trkpt lat="38.6702830" lon="1.5531030">
        <ele>145.1</ele>
        <time>2020-02-22T14:03:05Z</time>
      </trkpt>
      <trkpt lat="38.6703620" lon="1.5529470">
        <ele>145.1</ele>
        <time>2020-02-22T14:03:06Z</time>
      </trkpt>
      <trkpt lat="38.6703980" lon="1.5528750">
        <ele>145.1</ele>
        <time>2020-02-22T14:03:07Z</time>
      </trkpt>
      <trkpt lat="38.6704330" lon="1.5528130">
        <ele>145.1</ele>
        <time>2020-02-22T14:03:08Z</time>
      </trkpt>
      <trkpt lat="38.6704330" lon="1.5528130">
        <ele>145.1</ele>
        <time>2020-02-22T14:03:09Z</time>
      </trkpt>
      <trkpt lat="38.6705050" lon="1.5527000">
        <ele>145.1</ele>
        <time>2020-02-22T14:03:10Z</time>
      </trkpt>
      <trkpt lat="38.6705050" lon="1.5527000">
        <ele>145.1</ele>
        <time>2020-02-22T14:03:11Z</time>
      </trkpt>
      <trkpt lat="38.6705650" lon="1.5525680">
        <ele>146.1</ele>
        <time>2020-02-22T14:03:12Z</time>
      </trkpt>
      <trkpt lat="38.6705970" lon="1.5524980">
        <ele>146.1</ele>
        <time>2020-02-22T14:03:13Z</time>
      </trkpt>
      <trkpt lat="38.6705970" lon="1.5524980">
        <ele>146.1</ele>
        <time>2020-02-22T14:03:14Z</time>
      </trkpt>
      <trkpt lat="38.6706550" lon="1.5523600">
        <ele>146.1</ele>
        <time>2020-02-22T14:03:15Z</time>
      </trkpt>
      <trkpt lat="38.6706550" lon="1.5523600">
        <ele>147.1</ele>
        <time>2020-02-22T14:03:16Z</time>
      </trkpt>
      <trkpt lat="38.6707180" lon="1.5522150">
        <ele>147.1</ele>
        <time>2020-02-22T14:03:17Z</time>
      </trkpt>
      <trkpt lat="38.6707180" lon="1.5522150">
        <ele>147.1</ele>
        <time>2020-02-22T14:03:18Z</time>
      </trkpt>
      <trkpt lat="38.6707850" lon="1.5520750">
        <ele>147.1</ele>
        <time>2020-02-22T14:03:19Z</time>
      </trkpt>
      <trkpt lat="38.6707850" lon="1.5520750">
        <ele>147.1</ele>
        <time>2020-02-22T14:03:20Z</time>
      </trkpt>
      <trkpt lat="38.6708530" lon="1.5519370">
        <ele>147.1</ele>
        <time>2020-02-22T14:03:21Z</time>
      </trkpt>
      <trkpt lat="38.6708530" lon="1.5519370">
        <ele>147.1</ele>
        <time>2020-02-22T14:03:22Z</time>
      </trkpt>
      <trkpt lat="38.6709150" lon="1.5518050">
        <ele>147.1</ele>
        <time>2020-02-22T14:03:23Z</time>
      </trkpt>
      <trkpt lat="38.6709150" lon="1.5518050">
        <ele>147.1</ele>
        <time>2020-02-22T14:03:24Z</time>
      </trkpt>
      <trkpt lat="38.6709870" lon="1.5517050">
        <ele>147.1</ele>
        <time>2020-02-22T14:03:25Z</time>
      </trkpt>
      <trkpt lat="38.6709870" lon="1.5517050">
        <ele>147.1</ele>
        <time>2020-02-22T14:03:26Z</time>
      </trkpt>
      <trkpt lat="38.6710770" lon="1.5515600">
        <ele>148.1</ele>
        <time>2020-02-22T14:03:27Z</time>
      </trkpt>
      <trkpt lat="38.6710770" lon="1.5515600">
        <ele>148.1</ele>
        <time>2020-02-22T14:03:28Z</time>
      </trkpt>
      <trkpt lat="38.6711680" lon="1.5514150">
        <ele>148.1</ele>
        <time>2020-02-22T14:03:29Z</time>
      </trkpt>
      <trkpt lat="38.6711680" lon="1.5514150">
        <ele>148.1</ele>
        <time>2020-02-22T14:03:30Z</time>
      </trkpt>
      <trkpt lat="38.6712620" lon="1.5512480">
        <ele>148.1</ele>
        <time>2020-02-22T14:03:31Z</time>
      </trkpt>
      <trkpt lat="38.6713080" lon="1.5511580">
        <ele>148.1</ele>
        <time>2020-02-22T14:03:32Z</time>
      </trkpt>
      <trkpt lat="38.6713080" lon="1.5511580">
        <ele>148.1</ele>
        <time>2020-02-22T14:03:33Z</time>
      </trkpt>
      <trkpt lat="38.6714030" lon="1.5509780">
        <ele>148.1</ele>
        <time>2020-02-22T14:03:34Z</time>
      </trkpt>
      <trkpt lat="38.6714030" lon="1.5509780">
        <ele>149.1</ele>
        <time>2020-02-22T14:03:35Z</time>
      </trkpt>
      <trkpt lat="38.6715100" lon="1.5507600">
        <ele>149.1</ele>
        <time>2020-02-22T14:03:36Z</time>
      </trkpt>
      <trkpt lat="38.6715100" lon="1.5507600">
        <ele>149.1</ele>
        <time>2020-02-22T14:03:37Z</time>
      </trkpt>
      <trkpt lat="38.6715920" lon="1.5505830">
        <ele>149.1</ele>
        <time>2020-02-22T14:03:38Z</time>
      </trkpt>
      <trkpt lat="38.6716320" lon="1.5505070">
        <ele>149.1</ele>
        <time>2020-02-22T14:03:39Z</time>
      </trkpt>
      <trkpt lat="38.6716320" lon="1.5505070">
        <ele>149.1</ele>
        <time>2020-02-22T14:03:40Z</time>
      </trkpt>
      <trkpt lat="38.6716950" lon="1.5503620">
        <ele>149.1</ele>
        <time>2020-02-22T14:03:41Z</time>
      </trkpt>
      <trkpt lat="38.6716950" lon="1.5503620">
        <ele>150.1</ele>
        <time>2020-02-22T14:03:42Z</time>
      </trkpt>
      <trkpt lat="38.6717550" lon="1.5502370">
        <ele>150.1</ele>
        <time>2020-02-22T14:03:43Z</time>
      </trkpt>
      <trkpt lat="38.6717850" lon="1.5501670">
        <ele>150.1</ele>
        <time>2020-02-22T14:03:44Z</time>
      </trkpt>
      <trkpt lat="38.6717850" lon="1.5501670">
        <ele>150.1</ele>
        <time>2020-02-22T14:03:45Z</time>
      </trkpt>
      <trkpt lat="38.6718400" lon="1.5500380">
        <ele>151.1</ele>
        <time>2020-02-22T14:03:46Z</time>
      </trkpt>
      <trkpt lat="38.6718400" lon="1.5500380">
        <ele>151.1</ele>
        <time>2020-02-22T14:03:47Z</time>
      </trkpt>
      <trkpt lat="38.6719120" lon="1.5498930">
        <ele>151.1</ele>
        <time>2020-02-22T14:03:48Z</time>
      </trkpt>
      <trkpt lat="38.6719120" lon="1.5498930">
        <ele>151.1</ele>
        <time>2020-02-22T14:03:49Z</time>
      </trkpt>
      <trkpt lat="38.6720000" lon="1.5497280">
        <ele>151.1</ele>
        <time>2020-02-22T14:03:50Z</time>
      </trkpt>
      <trkpt lat="38.6720000" lon="1.5497280">
        <ele>151.1</ele>
        <time>2020-02-22T14:03:51Z</time>
      </trkpt>
      <trkpt lat="38.6720920" lon="1.5495820">
        <ele>152.1</ele>
        <time>2020-02-22T14:03:52Z</time>
      </trkpt>
      <trkpt lat="38.6720920" lon="1.5495820">
        <ele>152.1</ele>
        <time>2020-02-22T14:03:53Z</time>
      </trkpt>
      <trkpt lat="38.6721830" lon="1.5494220">
        <ele>152.1</ele>
        <time>2020-02-22T14:03:54Z</time>
      </trkpt>
      <trkpt lat="38.6722220" lon="1.5493530">
        <ele>152.1</ele>
        <time>2020-02-22T14:03:55Z</time>
      </trkpt>
      <trkpt lat="38.6722220" lon="1.5493530">
        <ele>152.1</ele>
        <time>2020-02-22T14:03:56Z</time>
      </trkpt>
      <trkpt lat="38.6723070" lon="1.5492100">
        <ele>152.1</ele>
        <time>2020-02-22T14:03:57Z</time>
      </trkpt>
      <trkpt lat="38.6723430" lon="1.5491420">
        <ele>152.1</ele>
        <time>2020-02-22T14:03:58Z</time>
      </trkpt>
      <trkpt lat="38.6723920" lon="1.5490630">
        <ele>152.1</ele>
        <time>2020-02-22T14:03:59Z</time>
      </trkpt>
      <trkpt lat="38.6723920" lon="1.5490630">
        <ele>152.1</ele>
        <time>2020-02-22T14:04:00Z</time>
      </trkpt>
      <trkpt lat="38.6724730" lon="1.5489330">
        <ele>152.1</ele>
        <time>2020-02-22T14:04:01Z</time>
      </trkpt>
      <trkpt lat="38.6724730" lon="1.5489330">
        <ele>152.1</ele>
        <time>2020-02-22T14:04:02Z</time>
      </trkpt>
      <trkpt lat="38.6725570" lon="1.5487850">
        <ele>152.1</ele>
        <time>2020-02-22T14:04:03Z</time>
      </trkpt>
      <trkpt lat="38.6725570" lon="1.5487850">
        <ele>152.1</ele>
        <time>2020-02-22T14:04:04Z</time>
      </trkpt>
      <trkpt lat="38.6726330" lon="1.5486270">
        <ele>153.1</ele>
        <time>2020-02-22T14:04:05Z</time>
      </trkpt>
      <trkpt lat="38.6726330" lon="1.5486270">
        <ele>153.1</ele>
        <time>2020-02-22T14:04:06Z</time>
      </trkpt>
      <trkpt lat="38.6727380" lon="1.5484000">
        <ele>153.1</ele>
        <time>2020-02-22T14:04:07Z</time>
      </trkpt>
      <trkpt lat="38.6727380" lon="1.5484000">
        <ele>153.1</ele>
        <time>2020-02-22T14:04:08Z</time>
      </trkpt>
      <trkpt lat="38.6727970" lon="1.5482130">
        <ele>153.1</ele>
        <time>2020-02-22T14:04:09Z</time>
      </trkpt>
      <trkpt lat="38.6727970" lon="1.5482130">
        <ele>153.1</ele>
        <time>2020-02-22T14:04:10Z</time>
      </trkpt>
      <trkpt lat="38.6728330" lon="1.5480170">
        <ele>154.1</ele>
        <time>2020-02-22T14:04:11Z</time>
      </trkpt>
      <trkpt lat="38.6728520" lon="1.5479130">
        <ele>154.1</ele>
        <time>2020-02-22T14:04:12Z</time>
      </trkpt>
      <trkpt lat="38.6728680" lon="1.5478120">
        <ele>154.1</ele>
        <time>2020-02-22T14:04:13Z</time>
      </trkpt>
      <trkpt lat="38.6728680" lon="1.5478120">
        <ele>154.1</ele>
        <time>2020-02-22T14:04:14Z</time>
      </trkpt>
      <trkpt lat="38.6728950" lon="1.5476070">
        <ele>154.1</ele>
        <time>2020-02-22T14:04:15Z</time>
      </trkpt>
      <trkpt lat="38.6728950" lon="1.5476070">
        <ele>154.1</ele>
        <time>2020-02-22T14:04:16Z</time>
      </trkpt>
      <trkpt lat="38.6729150" lon="1.5474100">
        <ele>154.1</ele>
        <time>2020-02-22T14:04:17Z</time>
      </trkpt>
      <trkpt lat="38.6729150" lon="1.5474100">
        <ele>155.1</ele>
        <time>2020-02-22T14:04:18Z</time>
      </trkpt>
      <trkpt lat="38.6729380" lon="1.5472180">
        <ele>155.1</ele>
        <time>2020-02-22T14:04:19Z</time>
      </trkpt>
      <trkpt lat="38.6729500" lon="1.5471250">
        <ele>155.1</ele>
        <time>2020-02-22T14:04:20Z</time>
      </trkpt>
      <trkpt lat="38.6729500" lon="1.5471250">
        <ele>155.1</ele>
        <time>2020-02-22T14:04:21Z</time>
      </trkpt>
      <trkpt lat="38.6729670" lon="1.5469400">
        <ele>155.1</ele>
        <time>2020-02-22T14:04:22Z</time>
      </trkpt>
      <trkpt lat="38.6729700" lon="1.5468430">
        <ele>155.1</ele>
        <time>2020-02-22T14:04:23Z</time>
      </trkpt>
      <trkpt lat="38.6729700" lon="1.5468430">
        <ele>156.1</ele>
        <time>2020-02-22T14:04:24Z</time>
      </trkpt>
      <trkpt lat="38.6729880" lon="1.5466580">
        <ele>156.1</ele>
        <time>2020-02-22T14:04:25Z</time>
      </trkpt>
      <trkpt lat="38.6729880" lon="1.5466580">
        <ele>156.1</ele>
        <time>2020-02-22T14:04:26Z</time>
      </trkpt>
      <trkpt lat="38.6730070" lon="1.5464770">
        <ele>156.1</ele>
        <time>2020-02-22T14:04:27Z</time>
      </trkpt>
      <trkpt lat="38.6730180" lon="1.5463870">
        <ele>156.1</ele>
        <time>2020-02-22T14:04:28Z</time>
      </trkpt>
      <trkpt lat="38.6730330" lon="1.5462980">
        <ele>156.1</ele>
        <time>2020-02-22T14:04:29Z</time>
      </trkpt>
      <trkpt lat="38.6730330" lon="1.5462980">
        <ele>156.1</ele>
        <time>2020-02-22T14:04:30Z</time>
      </trkpt>
      <trkpt lat="38.6730520" lon="1.5461170">
        <ele>156.1</ele>
        <time>2020-02-22T14:04:31Z</time>
      </trkpt>
      <trkpt lat="38.6730520" lon="1.5461170">
        <ele>156.1</ele>
        <time>2020-02-22T14:04:32Z</time>
      </trkpt>
      <trkpt lat="38.6730730" lon="1.5459270">
        <ele>156.1</ele>
        <time>2020-02-22T14:04:33Z</time>
      </trkpt>
      <trkpt lat="38.6730730" lon="1.5459270">
        <ele>156.1</ele>
        <time>2020-02-22T14:04:34Z</time>
      </trkpt>
      <trkpt lat="38.6730880" lon="1.5457330">
        <ele>156.1</ele>
        <time>2020-02-22T14:04:35Z</time>
      </trkpt>
      <trkpt lat="38.6730880" lon="1.5457330">
        <ele>156.1</ele>
        <time>2020-02-22T14:04:36Z</time>
      </trkpt>
      <trkpt lat="38.6731050" lon="1.5455320">
        <ele>157.1</ele>
        <time>2020-02-22T14:04:37Z</time>
      </trkpt>
      <trkpt lat="38.6731080" lon="1.5454280">
        <ele>157.1</ele>
        <time>2020-02-22T14:04:38Z</time>
      </trkpt>
      <trkpt lat="38.6731080" lon="1.5454280">
        <ele>157.1</ele>
        <time>2020-02-22T14:04:39Z</time>
      </trkpt>
      <trkpt lat="38.6731200" lon="1.5452270">
        <ele>157.1</ele>
        <time>2020-02-22T14:04:40Z</time>
      </trkpt>
      <trkpt lat="38.6731200" lon="1.5452270">
        <ele>157.1</ele>
        <time>2020-02-22T14:04:41Z</time>
      </trkpt>
      <trkpt lat="38.6731280" lon="1.5450320">
        <ele>157.1</ele>
        <time>2020-02-22T14:04:42Z</time>
      </trkpt>
      <trkpt lat="38.6731350" lon="1.5449320">
        <ele>157.1</ele>
        <time>2020-02-22T14:04:43Z</time>
      </trkpt>
      <trkpt lat="38.6731350" lon="1.5449320">
        <ele>157.1</ele>
        <time>2020-02-22T14:04:44Z</time>
      </trkpt>
      <trkpt lat="38.6731370" lon="1.5447220">
        <ele>157.1</ele>
        <time>2020-02-22T14:04:45Z</time>
      </trkpt>
      <trkpt lat="38.6731370" lon="1.5447220">
        <ele>157.1</ele>
        <time>2020-02-22T14:04:46Z</time>
      </trkpt>
      <trkpt lat="38.6731220" lon="1.5445130">
        <ele>157.1</ele>
        <time>2020-02-22T14:04:47Z</time>
      </trkpt>
      <trkpt lat="38.6731220" lon="1.5445130">
        <ele>157.1</ele>
        <time>2020-02-22T14:04:48Z</time>
      </trkpt>
      <trkpt lat="38.6730930" lon="1.5443070">
        <ele>157.1</ele>
        <time>2020-02-22T14:04:49Z</time>
      </trkpt>
      <trkpt lat="38.6730930" lon="1.5443070">
        <ele>157.1</ele>
        <time>2020-02-22T14:04:50Z</time>
      </trkpt>
      <trkpt lat="38.6730620" lon="1.5440980">
        <ele>157.1</ele>
        <time>2020-02-22T14:04:51Z</time>
      </trkpt>
      <trkpt lat="38.6730620" lon="1.5440980">
        <ele>157.1</ele>
        <time>2020-02-22T14:04:52Z</time>
      </trkpt>
      <trkpt lat="38.6730270" lon="1.5438850">
        <ele>157.1</ele>
        <time>2020-02-22T14:04:53Z</time>
      </trkpt>
      <trkpt lat="38.6730270" lon="1.5438850">
        <ele>157.1</ele>
        <time>2020-02-22T14:04:54Z</time>
      </trkpt>
      <trkpt lat="38.6729900" lon="1.5436730">
        <ele>157.1</ele>
        <time>2020-02-22T14:04:55Z</time>
      </trkpt>
      <trkpt lat="38.6729720" lon="1.5435630">
        <ele>157.1</ele>
        <time>2020-02-22T14:04:56Z</time>
      </trkpt>
      <trkpt lat="38.6729720" lon="1.5435630">
        <ele>157.1</ele>
        <time>2020-02-22T14:04:57Z</time>
      </trkpt>
      <trkpt lat="38.6729370" lon="1.5433420">
        <ele>157.1</ele>
        <time>2020-02-22T14:04:58Z</time>
      </trkpt>
      <trkpt lat="38.6729370" lon="1.5433420">
        <ele>157.1</ele>
        <time>2020-02-22T14:04:59Z</time>
      </trkpt>
      <trkpt lat="38.6729000" lon="1.5431200">
        <ele>157.1</ele>
        <time>2020-02-22T14:05:00Z</time>
      </trkpt>
      <trkpt lat="38.6728830" lon="1.5430050">
        <ele>157.1</ele>
        <time>2020-02-22T14:05:01Z</time>
      </trkpt>
      <trkpt lat="38.6728830" lon="1.5430050">
        <ele>156.1</ele>
        <time>2020-02-22T14:05:02Z</time>
      </trkpt>
      <trkpt lat="38.6728520" lon="1.5427770">
        <ele>156.1</ele>
        <time>2020-02-22T14:05:03Z</time>
      </trkpt>
      <trkpt lat="38.6728520" lon="1.5427770">
        <ele>156.1</ele>
        <time>2020-02-22T14:05:04Z</time>
      </trkpt>
      <trkpt lat="38.6728170" lon="1.5425470">
        <ele>156.1</ele>
        <time>2020-02-22T14:05:05Z</time>
      </trkpt>
      <trkpt lat="38.6727980" lon="1.5424320">
        <ele>156.1</ele>
        <time>2020-02-22T14:05:06Z</time>
      </trkpt>
      <trkpt lat="38.6727820" lon="1.5423150">
        <ele>156.1</ele>
        <time>2020-02-22T14:05:07Z</time>
      </trkpt>
      <trkpt lat="38.6727650" lon="1.5421970">
        <ele>156.1</ele>
        <time>2020-02-22T14:05:08Z</time>
      </trkpt>
      <trkpt lat="38.6727520" lon="1.5420770">
        <ele>156.1</ele>
        <time>2020-02-22T14:05:09Z</time>
      </trkpt>
      <trkpt lat="38.6727520" lon="1.5420770">
        <ele>156.1</ele>
        <time>2020-02-22T14:05:10Z</time>
      </trkpt>
      <trkpt lat="38.6727480" lon="1.5418370">
        <ele>156.1</ele>
        <time>2020-02-22T14:05:11Z</time>
      </trkpt>
      <trkpt lat="38.6727480" lon="1.5418370">
        <ele>156.1</ele>
        <time>2020-02-22T14:05:12Z</time>
      </trkpt>
      <trkpt lat="38.6727820" lon="1.5415980">
        <ele>156.1</ele>
        <time>2020-02-22T14:05:13Z</time>
      </trkpt>
      <trkpt lat="38.6728080" lon="1.5414820">
        <ele>156.1</ele>
        <time>2020-02-22T14:05:14Z</time>
      </trkpt>
      <trkpt lat="38.6728350" lon="1.5413670">
        <ele>156.1</ele>
        <time>2020-02-22T14:05:15Z</time>
      </trkpt>
      <trkpt lat="38.6728350" lon="1.5413670">
        <ele>155.1</ele>
        <time>2020-02-22T14:05:16Z</time>
      </trkpt>
      <trkpt lat="38.6728880" lon="1.5411400">
        <ele>155.1</ele>
        <time>2020-02-22T14:05:17Z</time>
      </trkpt>
      <trkpt lat="38.6728880" lon="1.5411400">
        <ele>155.1</ele>
        <time>2020-02-22T14:05:18Z</time>
      </trkpt>
      <trkpt lat="38.6729430" lon="1.5409130">
        <ele>155.1</ele>
        <time>2020-02-22T14:05:19Z</time>
      </trkpt>
      <trkpt lat="38.6729430" lon="1.5409130">
        <ele>155.1</ele>
        <time>2020-02-22T14:05:20Z</time>
      </trkpt>
      <trkpt lat="38.6730000" lon="1.5406830">
        <ele>155.1</ele>
        <time>2020-02-22T14:05:21Z</time>
      </trkpt>
      <trkpt lat="38.6730000" lon="1.5406830">
        <ele>155.1</ele>
        <time>2020-02-22T14:05:22Z</time>
      </trkpt>
      <trkpt lat="38.6730570" lon="1.5404500">
        <ele>155.1</ele>
        <time>2020-02-22T14:05:23Z</time>
      </trkpt>
      <trkpt lat="38.6730570" lon="1.5404500">
        <ele>155.1</ele>
        <time>2020-02-22T14:05:24Z</time>
      </trkpt>
      <trkpt lat="38.6731070" lon="1.5402150">
        <ele>155.1</ele>
        <time>2020-02-22T14:05:25Z</time>
      </trkpt>
      <trkpt lat="38.6731070" lon="1.5402150">
        <ele>155.1</ele>
        <time>2020-02-22T14:05:26Z</time>
      </trkpt>
      <trkpt lat="38.6731330" lon="1.5399750">
        <ele>155.1</ele>
        <time>2020-02-22T14:05:27Z</time>
      </trkpt>
      <trkpt lat="38.6731330" lon="1.5399750">
        <ele>155.1</ele>
        <time>2020-02-22T14:05:28Z</time>
      </trkpt>
      <trkpt lat="38.6731320" lon="1.5397250">
        <ele>154.1</ele>
        <time>2020-02-22T14:05:29Z</time>
      </trkpt>
      <trkpt lat="38.6731320" lon="1.5397250">
        <ele>154.1</ele>
        <time>2020-02-22T14:05:30Z</time>
      </trkpt>
      <trkpt lat="38.6731220" lon="1.5394650">
        <ele>154.1</ele>
        <time>2020-02-22T14:05:31Z</time>
      </trkpt>
      <trkpt lat="38.6731220" lon="1.5394650">
        <ele>154.1</ele>
        <time>2020-02-22T14:05:32Z</time>
      </trkpt>
      <trkpt lat="38.6731030" lon="1.5392000">
        <ele>154.1</ele>
        <time>2020-02-22T14:05:33Z</time>
      </trkpt>
      <trkpt lat="38.6730920" lon="1.5390670">
        <ele>154.1</ele>
        <time>2020-02-22T14:05:34Z</time>
      </trkpt>
      <trkpt lat="38.6730920" lon="1.5390670">
        <ele>152.1</ele>
        <time>2020-02-22T14:05:35Z</time>
      </trkpt>
      <trkpt lat="38.6730750" lon="1.5388030">
        <ele>152.1</ele>
        <time>2020-02-22T14:05:36Z</time>
      </trkpt>
      <trkpt lat="38.6730750" lon="1.5388030">
        <ele>152.1</ele>
        <time>2020-02-22T14:05:37Z</time>
      </trkpt>
      <trkpt lat="38.6730580" lon="1.5385350">
        <ele>152.1</ele>
        <time>2020-02-22T14:05:38Z</time>
      </trkpt>
      <trkpt lat="38.6730500" lon="1.5384030">
        <ele>151.1</ele>
        <time>2020-02-22T14:05:39Z</time>
      </trkpt>
      <trkpt lat="38.6730500" lon="1.5384030">
        <ele>151.1</ele>
        <time>2020-02-22T14:05:40Z</time>
      </trkpt>
      <trkpt lat="38.6730300" lon="1.5381300">
        <ele>151.1</ele>
        <time>2020-02-22T14:05:41Z</time>
      </trkpt>
      <trkpt lat="38.6730300" lon="1.5381300">
        <ele>151.1</ele>
        <time>2020-02-22T14:05:42Z</time>
      </trkpt>
      <trkpt lat="38.6730000" lon="1.5378530">
        <ele>150.1</ele>
        <time>2020-02-22T14:05:43Z</time>
      </trkpt>
      <trkpt lat="38.6730000" lon="1.5378530">
        <ele>150.1</ele>
        <time>2020-02-22T14:05:44Z</time>
      </trkpt>
      <trkpt lat="38.6729550" lon="1.5375700">
        <ele>150.1</ele>
        <time>2020-02-22T14:05:45Z</time>
      </trkpt>
      <trkpt lat="38.6729550" lon="1.5375700">
        <ele>150.1</ele>
        <time>2020-02-22T14:05:46Z</time>
      </trkpt>
      <trkpt lat="38.6729080" lon="1.5372750">
        <ele>149.1</ele>
        <time>2020-02-22T14:05:47Z</time>
      </trkpt>
      <trkpt lat="38.6729080" lon="1.5372750">
        <ele>148.1</ele>
        <time>2020-02-22T14:05:48Z</time>
      </trkpt>
      <trkpt lat="38.6728620" lon="1.5369770">
        <ele>148.1</ele>
        <time>2020-02-22T14:05:49Z</time>
      </trkpt>
      <trkpt lat="38.6728400" lon="1.5368250">
        <ele>147.1</ele>
        <time>2020-02-22T14:05:50Z</time>
      </trkpt>
      <trkpt lat="38.6728180" lon="1.5366770">
        <ele>147.1</ele>
        <time>2020-02-22T14:05:51Z</time>
      </trkpt>
      <trkpt lat="38.6728180" lon="1.5366770">
        <ele>145.1</ele>
        <time>2020-02-22T14:05:52Z</time>
      </trkpt>
      <trkpt lat="38.6727700" lon="1.5363670">
        <ele>145.1</ele>
        <time>2020-02-22T14:05:53Z</time>
      </trkpt>
      <trkpt lat="38.6727450" lon="1.5362100">
        <ele>144.1</ele>
        <time>2020-02-22T14:05:54Z</time>
      </trkpt>
      <trkpt lat="38.6727450" lon="1.5362100">
        <ele>144.1</ele>
        <time>2020-02-22T14:05:55Z</time>
      </trkpt>
      <trkpt lat="38.6726950" lon="1.5358950">
        <ele>143.1</ele>
        <time>2020-02-22T14:05:56Z</time>
      </trkpt>
      <trkpt lat="38.6726700" lon="1.5357380">
        <ele>143.1</ele>
        <time>2020-02-22T14:05:57Z</time>
      </trkpt>
      <trkpt lat="38.6726700" lon="1.5357380">
        <ele>142.1</ele>
        <time>2020-02-22T14:05:58Z</time>
      </trkpt>
      <trkpt lat="38.6726230" lon="1.5354230">
        <ele>142.1</ele>
        <time>2020-02-22T14:05:59Z</time>
      </trkpt>
      <trkpt lat="38.6725950" lon="1.5352650">
        <ele>141.1</ele>
        <time>2020-02-22T14:06:00Z</time>
      </trkpt>
      <trkpt lat="38.6725950" lon="1.5352650">
        <ele>141.1</ele>
        <time>2020-02-22T14:06:01Z</time>
      </trkpt>
      <trkpt lat="38.6725230" lon="1.5349450">
        <ele>140.1</ele>
        <time>2020-02-22T14:06:02Z</time>
      </trkpt>
      <trkpt lat="38.6725230" lon="1.5349450">
        <ele>140.1</ele>
        <time>2020-02-22T14:06:03Z</time>
      </trkpt>
      <trkpt lat="38.6724150" lon="1.5346600">
        <ele>140.1</ele>
        <time>2020-02-22T14:06:04Z</time>
      </trkpt>
      <trkpt lat="38.6723550" lon="1.5345300">
        <ele>140.1</ele>
        <time>2020-02-22T14:06:05Z</time>
      </trkpt>
      <trkpt lat="38.6723550" lon="1.5345300">
        <ele>139.1</ele>
        <time>2020-02-22T14:06:06Z</time>
      </trkpt>
      <trkpt lat="38.6722380" lon="1.5342850">
        <ele>139.1</ele>
        <time>2020-02-22T14:06:07Z</time>
      </trkpt>
      <trkpt lat="38.6721830" lon="1.5341720">
        <ele>139.1</ele>
        <time>2020-02-22T14:06:08Z</time>
      </trkpt>
      <trkpt lat="38.6721830" lon="1.5341720">
        <ele>137.1</ele>
        <time>2020-02-22T14:06:09Z</time>
      </trkpt>
      <trkpt lat="38.6720670" lon="1.5339700">
        <ele>137.1</ele>
        <time>2020-02-22T14:06:10Z</time>
      </trkpt>
      <trkpt lat="38.6720670" lon="1.5339700">
        <ele>137.1</ele>
        <time>2020-02-22T14:06:11Z</time>
      </trkpt>
      <trkpt lat="38.6719230" lon="1.5338020">
        <ele>137.1</ele>
        <time>2020-02-22T14:06:12Z</time>
      </trkpt>
      <trkpt lat="38.6718500" lon="1.5337250">
        <ele>137.1</ele>
        <time>2020-02-22T14:06:13Z</time>
      </trkpt>
      <trkpt lat="38.6717830" lon="1.5336480">
        <ele>137.1</ele>
        <time>2020-02-22T14:06:14Z</time>
      </trkpt>
      <trkpt lat="38.6717830" lon="1.5336480">
        <ele>136.1</ele>
        <time>2020-02-22T14:06:15Z</time>
      </trkpt>
      <trkpt lat="38.6716620" lon="1.5334700">
        <ele>136.1</ele>
        <time>2020-02-22T14:06:16Z</time>
      </trkpt>
      <trkpt lat="38.6716620" lon="1.5334700">
        <ele>136.1</ele>
        <time>2020-02-22T14:06:17Z</time>
      </trkpt>
      <trkpt lat="38.6715500" lon="1.5332750">
        <ele>136.1</ele>
        <time>2020-02-22T14:06:18Z</time>
      </trkpt>
      <trkpt lat="38.6714930" lon="1.5331770">
        <ele>136.1</ele>
        <time>2020-02-22T14:06:19Z</time>
      </trkpt>
      <trkpt lat="38.6714930" lon="1.5331770">
        <ele>136.1</ele>
        <time>2020-02-22T14:06:20Z</time>
      </trkpt>
      <trkpt lat="38.6713730" lon="1.5329770">
        <ele>136.1</ele>
        <time>2020-02-22T14:06:21Z</time>
      </trkpt>
      <trkpt lat="38.6713100" lon="1.5328750">
        <ele>136.1</ele>
        <time>2020-02-22T14:06:22Z</time>
      </trkpt>
      <trkpt lat="38.6712500" lon="1.5327750">
        <ele>136.1</ele>
        <time>2020-02-22T14:06:23Z</time>
      </trkpt>
      <trkpt lat="38.6712500" lon="1.5327750">
        <ele>136.1</ele>
        <time>2020-02-22T14:06:24Z</time>
      </trkpt>
      <trkpt lat="38.6711350" lon="1.5325850">
        <ele>136.1</ele>
        <time>2020-02-22T14:06:25Z</time>
      </trkpt>
      <trkpt lat="38.6711350" lon="1.5325850">
        <ele>135.1</ele>
        <time>2020-02-22T14:06:26Z</time>
      </trkpt>
      <trkpt lat="38.6710170" lon="1.5323930">
        <ele>135.1</ele>
        <time>2020-02-22T14:06:27Z</time>
      </trkpt>
      <trkpt lat="38.6709620" lon="1.5322970">
        <ele>135.1</ele>
        <time>2020-02-22T14:06:28Z</time>
      </trkpt>
      <trkpt lat="38.6709120" lon="1.5321950">
        <ele>135.1</ele>
        <time>2020-02-22T14:06:29Z</time>
      </trkpt>
      <trkpt lat="38.6709120" lon="1.5321950">
        <ele>135.1</ele>
        <time>2020-02-22T14:06:30Z</time>
      </trkpt>
      <trkpt lat="38.6708300" lon="1.5319750">
        <ele>134.1</ele>
        <time>2020-02-22T14:06:31Z</time>
      </trkpt>
      <trkpt lat="38.6708300" lon="1.5319750">
        <ele>134.1</ele>
        <time>2020-02-22T14:06:32Z</time>
      </trkpt>
      <trkpt lat="38.6707470" lon="1.5317480">
        <ele>133.1</ele>
        <time>2020-02-22T14:06:33Z</time>
      </trkpt>
      <trkpt lat="38.6707030" lon="1.5316330">
        <ele>133.1</ele>
        <time>2020-02-22T14:06:34Z</time>
      </trkpt>
      <trkpt lat="38.6707030" lon="1.5316330">
        <ele>132.1</ele>
        <time>2020-02-22T14:06:35Z</time>
      </trkpt>
      <trkpt lat="38.6706120" lon="1.5314150">
        <ele>132.1</ele>
        <time>2020-02-22T14:06:36Z</time>
      </trkpt>
      <trkpt lat="38.6705650" lon="1.5313030">
        <ele>132.1</ele>
        <time>2020-02-22T14:06:37Z</time>
      </trkpt>
      <trkpt lat="38.6705200" lon="1.5311900">
        <ele>132.1</ele>
        <time>2020-02-22T14:06:38Z</time>
      </trkpt>
      <trkpt lat="38.6705200" lon="1.5311900">
        <ele>131.1</ele>
        <time>2020-02-22T14:06:39Z</time>
      </trkpt>
      <trkpt lat="38.6704230" lon="1.5309570">
        <ele>131.1</ele>
        <time>2020-02-22T14:06:40Z</time>
      </trkpt>
      <trkpt lat="38.6703730" lon="1.5308450">
        <ele>130.1</ele>
        <time>2020-02-22T14:06:41Z</time>
      </trkpt>
      <trkpt lat="38.6703730" lon="1.5308450">
        <ele>130.1</ele>
        <time>2020-02-22T14:06:42Z</time>
      </trkpt>
      <trkpt lat="38.6702800" lon="1.5306230">
        <ele>129.1</ele>
        <time>2020-02-22T14:06:43Z</time>
      </trkpt>
      <trkpt lat="38.6702800" lon="1.5306230">
        <ele>129.1</ele>
        <time>2020-02-22T14:06:44Z</time>
      </trkpt>
      <trkpt lat="38.6701850" lon="1.5303970">
        <ele>128.1</ele>
        <time>2020-02-22T14:06:45Z</time>
      </trkpt>
      <trkpt lat="38.6701380" lon="1.5302820">
        <ele>127.1</ele>
        <time>2020-02-22T14:06:46Z</time>
      </trkpt>
      <trkpt lat="38.6701380" lon="1.5302820">
        <ele>127.1</ele>
        <time>2020-02-22T14:06:47Z</time>
      </trkpt>
      <trkpt lat="38.6700470" lon="1.5300520">
        <ele>126.1</ele>
        <time>2020-02-22T14:06:48Z</time>
      </trkpt>
      <trkpt lat="38.6700470" lon="1.5300520">
        <ele>126.1</ele>
        <time>2020-02-22T14:06:49Z</time>
      </trkpt>
      <trkpt lat="38.6699470" lon="1.5298350">
        <ele>126.1</ele>
        <time>2020-02-22T14:06:50Z</time>
      </trkpt>
      <trkpt lat="38.6699470" lon="1.5298350">
        <ele>126.1</ele>
        <time>2020-02-22T14:06:51Z</time>
      </trkpt>
      <trkpt lat="38.6698480" lon="1.5296400">
        <ele>125.1</ele>
        <time>2020-02-22T14:06:52Z</time>
      </trkpt>
      <trkpt lat="38.6698480" lon="1.5296400">
        <ele>125.1</ele>
        <time>2020-02-22T14:06:53Z</time>
      </trkpt>
      <trkpt lat="38.6697450" lon="1.5294500">
        <ele>125.1</ele>
        <time>2020-02-22T14:06:54Z</time>
      </trkpt>
      <trkpt lat="38.6697450" lon="1.5294500">
        <ele>125.1</ele>
        <time>2020-02-22T14:06:55Z</time>
      </trkpt>
      <trkpt lat="38.6696400" lon="1.5292730">
        <ele>125.1</ele>
        <time>2020-02-22T14:06:56Z</time>
      </trkpt>
      <trkpt lat="38.6696400" lon="1.5292730">
        <ele>124.1</ele>
        <time>2020-02-22T14:06:57Z</time>
      </trkpt>
      <trkpt lat="38.6695280" lon="1.5291150">
        <ele>124.1</ele>
        <time>2020-02-22T14:06:58Z</time>
      </trkpt>
      <trkpt lat="38.6695280" lon="1.5291150">
        <ele>124.1</ele>
        <time>2020-02-22T14:06:59Z</time>
      </trkpt>
      <trkpt lat="38.6694070" lon="1.5289700">
        <ele>124.1</ele>
        <time>2020-02-22T14:07:00Z</time>
      </trkpt>
      <trkpt lat="38.6693420" lon="1.5289070">
        <ele>124.1</ele>
        <time>2020-02-22T14:07:01Z</time>
      </trkpt>
      <trkpt lat="38.6693420" lon="1.5289070">
        <ele>123.1</ele>
        <time>2020-02-22T14:07:02Z</time>
      </trkpt>
      <trkpt lat="38.6691970" lon="1.5288030">
        <ele>123.1</ele>
        <time>2020-02-22T14:07:03Z</time>
      </trkpt>
      <trkpt lat="38.6691970" lon="1.5288030">
        <ele>123.1</ele>
        <time>2020-02-22T14:07:04Z</time>
      </trkpt>
      <trkpt lat="38.6690430" lon="1.5287270">
        <ele>121.1</ele>
        <time>2020-02-22T14:07:05Z</time>
      </trkpt>
      <trkpt lat="38.6690430" lon="1.5287270">
        <ele>121.1</ele>
        <time>2020-02-22T14:07:06Z</time>
      </trkpt>
      <trkpt lat="38.6689000" lon="1.5285920">
        <ele>121.1</ele>
        <time>2020-02-22T14:07:07Z</time>
      </trkpt>
      <trkpt lat="38.6689000" lon="1.5285920">
        <ele>121.1</ele>
        <time>2020-02-22T14:07:08Z</time>
      </trkpt>
      <trkpt lat="38.6687730" lon="1.5284370">
        <ele>120.1</ele>
        <time>2020-02-22T14:07:09Z</time>
      </trkpt>
      <trkpt lat="38.6687020" lon="1.5283650">
        <ele>120.1</ele>
        <time>2020-02-22T14:07:10Z</time>
      </trkpt>
      <trkpt lat="38.6687020" lon="1.5283650">
        <ele>119.1</ele>
        <time>2020-02-22T14:07:11Z</time>
      </trkpt>
      <trkpt lat="38.6685520" lon="1.5282450">
        <ele>119.1</ele>
        <time>2020-02-22T14:07:12Z</time>
      </trkpt>
      <trkpt lat="38.6685520" lon="1.5282450">
        <ele>118.1</ele>
        <time>2020-02-22T14:07:13Z</time>
      </trkpt>
      <trkpt lat="38.6683930" lon="1.5281330">
        <ele>118.1</ele>
        <time>2020-02-22T14:07:14Z</time>
      </trkpt>
      <trkpt lat="38.6683930" lon="1.5281330">
        <ele>117.1</ele>
        <time>2020-02-22T14:07:15Z</time>
      </trkpt>
      <trkpt lat="38.6682330" lon="1.5280380">
        <ele>117.1</ele>
        <time>2020-02-22T14:07:16Z</time>
      </trkpt>
      <trkpt lat="38.6682330" lon="1.5280380">
        <ele>116.1</ele>
        <time>2020-02-22T14:07:17Z</time>
      </trkpt>
      <trkpt lat="38.6680720" lon="1.5279870">
        <ele>116.1</ele>
        <time>2020-02-22T14:07:18Z</time>
      </trkpt>
      <trkpt lat="38.6679930" lon="1.5279780">
        <ele>114.1</ele>
        <time>2020-02-22T14:07:19Z</time>
      </trkpt>
      <trkpt lat="38.6679130" lon="1.5279680">
        <ele>114.1</ele>
        <time>2020-02-22T14:07:20Z</time>
      </trkpt>
      <trkpt lat="38.6679130" lon="1.5279680">
        <ele>113.1</ele>
        <time>2020-02-22T14:07:21Z</time>
      </trkpt>
      <trkpt lat="38.6677680" lon="1.5279080">
        <ele>113.1</ele>
        <time>2020-02-22T14:07:22Z</time>
      </trkpt>
      <trkpt lat="38.6677020" lon="1.5278600">
        <ele>112.1</ele>
        <time>2020-02-22T14:07:23Z</time>
      </trkpt>
      <trkpt lat="38.6677020" lon="1.5278600">
        <ele>111.1</ele>
        <time>2020-02-22T14:07:24Z</time>
      </trkpt>
      <trkpt lat="38.6675650" lon="1.5277480">
        <ele>111.1</ele>
        <time>2020-02-22T14:07:25Z</time>
      </trkpt>
      <trkpt lat="38.6675030" lon="1.5276870">
        <ele>110.1</ele>
        <time>2020-02-22T14:07:26Z</time>
      </trkpt>
      <trkpt lat="38.6674450" lon="1.5276180">
        <ele>110.1</ele>
        <time>2020-02-22T14:07:27Z</time>
      </trkpt>
      <trkpt lat="38.6674450" lon="1.5276180">
        <ele>109.1</ele>
        <time>2020-02-22T14:07:28Z</time>
      </trkpt>
      <trkpt lat="38.6673900" lon="1.5274430">
        <ele>109.1</ele>
        <time>2020-02-22T14:07:29Z</time>
      </trkpt>
      <trkpt lat="38.6673850" lon="1.5273550">
        <ele>108.1</ele>
        <time>2020-02-22T14:07:30Z</time>
      </trkpt>
      <trkpt lat="38.6673850" lon="1.5273550">
        <ele>108.1</ele>
        <time>2020-02-22T14:07:31Z</time>
      </trkpt>
      <trkpt lat="38.6674130" lon="1.5271820">
        <ele>107.1</ele>
        <time>2020-02-22T14:07:32Z</time>
      </trkpt>
      <trkpt lat="38.6674130" lon="1.5271820">
        <ele>107.1</ele>
        <time>2020-02-22T14:07:33Z</time>
      </trkpt>
      <trkpt lat="38.6675370" lon="1.5270650">
        <ele>105.1</ele>
        <time>2020-02-22T14:07:34Z</time>
      </trkpt>
      <trkpt lat="38.6675370" lon="1.5270650">
        <ele>105.1</ele>
        <time>2020-02-22T14:07:35Z</time>
      </trkpt>
      <trkpt lat="38.6676930" lon="1.5270320">
        <ele>104.1</ele>
        <time>2020-02-22T14:07:36Z</time>
      </trkpt>
      <trkpt lat="38.6677700" lon="1.5270470">
        <ele>104.1</ele>
        <time>2020-02-22T14:07:37Z</time>
      </trkpt>
      <trkpt lat="38.6678420" lon="1.5270820">
        <ele>103.1</ele>
        <time>2020-02-22T14:07:38Z</time>
      </trkpt>
      <trkpt lat="38.6678420" lon="1.5270820">
        <ele>103.1</ele>
        <time>2020-02-22T14:07:39Z</time>
      </trkpt>
      <trkpt lat="38.6679870" lon="1.5271980">
        <ele>101.1</ele>
        <time>2020-02-22T14:07:40Z</time>
      </trkpt>
      <trkpt lat="38.6679870" lon="1.5271980">
        <ele>101.1</ele>
        <time>2020-02-22T14:07:41Z</time>
      </trkpt>
      <trkpt lat="38.6681420" lon="1.5273280">
        <ele>100.1</ele>
        <time>2020-02-22T14:07:42Z</time>
      </trkpt>
      <trkpt lat="38.6681420" lon="1.5273280">
        <ele>99.1</ele>
        <time>2020-02-22T14:07:43Z</time>
      </trkpt>
      <trkpt lat="38.6683230" lon="1.5274150">
        <ele>99.1</ele>
        <time>2020-02-22T14:07:44Z</time>
      </trkpt>
      <trkpt lat="38.6683230" lon="1.5274150">
        <ele>97.1</ele>
        <time>2020-02-22T14:07:45Z</time>
      </trkpt>
      <trkpt lat="38.6685180" lon="1.5274380">
        <ele>97.1</ele>
        <time>2020-02-22T14:07:46Z</time>
      </trkpt>
      <trkpt lat="38.6685180" lon="1.5274380">
        <ele>96.1</ele>
        <time>2020-02-22T14:07:47Z</time>
      </trkpt>
      <trkpt lat="38.6687070" lon="1.5274470">
        <ele>96.1</ele>
        <time>2020-02-22T14:07:48Z</time>
      </trkpt>
      <trkpt lat="38.6687930" lon="1.5274420">
        <ele>94.1</ele>
        <time>2020-02-22T14:07:49Z</time>
      </trkpt>
      <trkpt lat="38.6687930" lon="1.5274420">
        <ele>94.1</ele>
        <time>2020-02-22T14:07:50Z</time>
      </trkpt>
      <trkpt lat="38.6689370" lon="1.5273600">
        <ele>92.1</ele>
        <time>2020-02-22T14:07:51Z</time>
      </trkpt>
      <trkpt lat="38.6689920" lon="1.5272770">
        <ele>92.1</ele>
        <time>2020-02-22T14:07:52Z</time>
      </trkpt>
      <trkpt lat="38.6689920" lon="1.5272770">
        <ele>91.1</ele>
        <time>2020-02-22T14:07:53Z</time>
      </trkpt>
      <trkpt lat="38.6690970" lon="1.5270830">
        <ele>91.1</ele>
        <time>2020-02-22T14:07:54Z</time>
      </trkpt>
      <trkpt lat="38.6690970" lon="1.5270830">
        <ele>90.1</ele>
        <time>2020-02-22T14:07:55Z</time>
      </trkpt>
      <trkpt lat="38.6692020" lon="1.5268720">
        <ele>90.1</ele>
        <time>2020-02-22T14:07:56Z</time>
      </trkpt>
      <trkpt lat="38.6692020" lon="1.5268720">
        <ele>88.1</ele>
        <time>2020-02-22T14:07:57Z</time>
      </trkpt>
      <trkpt lat="38.6693130" lon="1.5266530">
        <ele>88.1</ele>
        <time>2020-02-22T14:07:58Z</time>
      </trkpt>
      <trkpt lat="38.6693130" lon="1.5266530">
        <ele>87.1</ele>
        <time>2020-02-22T14:07:59Z</time>
      </trkpt>
      <trkpt lat="38.6694300" lon="1.5264280">
        <ele>87.1</ele>
        <time>2020-02-22T14:08:00Z</time>
      </trkpt>
      <trkpt lat="38.6694300" lon="1.5264280">
        <ele>85.1</ele>
        <time>2020-02-22T14:08:01Z</time>
      </trkpt>
      <trkpt lat="38.6695450" lon="1.5262080">
        <ele>84.1</ele>
        <time>2020-02-22T14:08:02Z</time>
      </trkpt>
      <trkpt lat="38.6696020" lon="1.5260950">
        <ele>84.1</ele>
        <time>2020-02-22T14:08:03Z</time>
      </trkpt>
      <trkpt lat="38.6696020" lon="1.5260950">
        <ele>82.1</ele>
        <time>2020-02-22T14:08:04Z</time>
      </trkpt>
      <trkpt lat="38.6696980" lon="1.5258530">
        <ele>82.1</ele>
        <time>2020-02-22T14:08:05Z</time>
      </trkpt>
      <trkpt lat="38.6697330" lon="1.5257270">
        <ele>81.1</ele>
        <time>2020-02-22T14:08:06Z</time>
      </trkpt>
      <trkpt lat="38.6697330" lon="1.5257270">
        <ele>81.1</ele>
        <time>2020-02-22T14:08:07Z</time>
      </trkpt>
      <trkpt lat="38.6697820" lon="1.5254630">
        <ele>79.1</ele>
        <time>2020-02-22T14:08:08Z</time>
      </trkpt>
      <trkpt lat="38.6697820" lon="1.5254630">
        <ele>79.1</ele>
        <time>2020-02-22T14:08:09Z</time>
      </trkpt>
      <trkpt lat="38.6698250" lon="1.5252120">
        <ele>78.1</ele>
        <time>2020-02-22T14:08:10Z</time>
      </trkpt>
      <trkpt lat="38.6698250" lon="1.5252120">
        <ele>78.1</ele>
        <time>2020-02-22T14:08:11Z</time>
      </trkpt>
      <trkpt lat="38.6698630" lon="1.5249650">
        <ele>78.1</ele>
        <time>2020-02-22T14:08:12Z</time>
      </trkpt>
      <trkpt lat="38.6698630" lon="1.5249650">
        <ele>78.1</ele>
        <time>2020-02-22T14:08:13Z</time>
      </trkpt>
      <trkpt lat="38.6698630" lon="1.5247270">
        <ele>76.1</ele>
        <time>2020-02-22T14:08:14Z</time>
      </trkpt>
      <trkpt lat="38.6698630" lon="1.5247270">
        <ele>76.1</ele>
        <time>2020-02-22T14:08:15Z</time>
      </trkpt>
      <trkpt lat="38.6698050" lon="1.5244900">
        <ele>75.1</ele>
        <time>2020-02-22T14:08:16Z</time>
      </trkpt>
      <trkpt lat="38.6698050" lon="1.5244900">
        <ele>75.1</ele>
        <time>2020-02-22T14:08:17Z</time>
      </trkpt>
      <trkpt lat="38.6697170" lon="1.5242580">
        <ele>74.1</ele>
        <time>2020-02-22T14:08:18Z</time>
      </trkpt>
      <trkpt lat="38.6697170" lon="1.5242580">
        <ele>74.1</ele>
        <time>2020-02-22T14:08:19Z</time>
      </trkpt>
      <trkpt lat="38.6695970" lon="1.5240470">
        <ele>72.1</ele>
        <time>2020-02-22T14:08:20Z</time>
      </trkpt>
      <trkpt lat="38.6695180" lon="1.5239580">
        <ele>72.1</ele>
        <time>2020-02-22T14:08:21Z</time>
      </trkpt>
      <trkpt lat="38.6695180" lon="1.5239580">
        <ele>72.1</ele>
        <time>2020-02-22T14:08:22Z</time>
      </trkpt>
      <trkpt lat="38.6693480" lon="1.5237980">
        <ele>71.1</ele>
        <time>2020-02-22T14:08:23Z</time>
      </trkpt>
      <trkpt lat="38.6693480" lon="1.5237980">
        <ele>71.1</ele>
        <time>2020-02-22T14:08:24Z</time>
      </trkpt>
      <trkpt lat="38.6691900" lon="1.5236420">
        <ele>70.1</ele>
        <time>2020-02-22T14:08:25Z</time>
      </trkpt>
      <trkpt lat="38.6691900" lon="1.5236420">
        <ele>70.1</ele>
        <time>2020-02-22T14:08:26Z</time>
      </trkpt>
      <trkpt lat="38.6690700" lon="1.5234670">
        <ele>70.1</ele>
        <time>2020-02-22T14:08:27Z</time>
      </trkpt>
      <trkpt lat="38.6690700" lon="1.5234670">
        <ele>70.1</ele>
        <time>2020-02-22T14:08:28Z</time>
      </trkpt>
      <trkpt lat="38.6690170" lon="1.5232550">
        <ele>69.1</ele>
        <time>2020-02-22T14:08:29Z</time>
      </trkpt>
      <trkpt lat="38.6690050" lon="1.5231420">
        <ele>69.1</ele>
        <time>2020-02-22T14:08:30Z</time>
      </trkpt>
      <trkpt lat="38.6689870" lon="1.5230280">
        <ele>69.1</ele>
        <time>2020-02-22T14:08:31Z</time>
      </trkpt>
      <trkpt lat="38.6689870" lon="1.5230280">
        <ele>69.1</ele>
        <time>2020-02-22T14:08:32Z</time>
      </trkpt>
      <trkpt lat="38.6689070" lon="1.5228200">
        <ele>67.1</ele>
        <time>2020-02-22T14:08:33Z</time>
      </trkpt>
      <trkpt lat="38.6689070" lon="1.5228200">
        <ele>67.1</ele>
        <time>2020-02-22T14:08:34Z</time>
      </trkpt>
      <trkpt lat="38.6687830" lon="1.5226430">
        <ele>65.1</ele>
        <time>2020-02-22T14:08:35Z</time>
      </trkpt>
      <trkpt lat="38.6687830" lon="1.5226430">
        <ele>65.1</ele>
        <time>2020-02-22T14:08:36Z</time>
      </trkpt>
      <trkpt lat="38.6686500" lon="1.5224680">
        <ele>65.1</ele>
        <time>2020-02-22T14:08:37Z</time>
      </trkpt>
      <trkpt lat="38.6685800" lon="1.5223770">
        <ele>65.1</ele>
        <time>2020-02-22T14:08:38Z</time>
      </trkpt>
      <trkpt lat="38.6685800" lon="1.5223770">
        <ele>65.1</ele>
        <time>2020-02-22T14:08:39Z</time>
      </trkpt>
      <trkpt lat="38.6684420" lon="1.5221970">
        <ele>63.1</ele>
        <time>2020-02-22T14:08:40Z</time>
      </trkpt>
      <trkpt lat="38.6684420" lon="1.5221970">
        <ele>63.1</ele>
        <time>2020-02-22T14:08:41Z</time>
      </trkpt>
      <trkpt lat="38.6683220" lon="1.5220100">
        <ele>62.1</ele>
        <time>2020-02-22T14:08:42Z</time>
      </trkpt>
      <trkpt lat="38.6682850" lon="1.5219030">
        <ele>62.1</ele>
        <time>2020-02-22T14:08:43Z</time>
      </trkpt>
      <trkpt lat="38.6682630" lon="1.5217920">
        <ele>61.1</ele>
        <time>2020-02-22T14:08:44Z</time>
      </trkpt>
      <trkpt lat="38.6682630" lon="1.5217920">
        <ele>61.1</ele>
        <time>2020-02-22T14:08:45Z</time>
      </trkpt>
      <trkpt lat="38.6682550" lon="1.5215820">
        <ele>61.1</ele>
        <time>2020-02-22T14:08:46Z</time>
      </trkpt>
      <trkpt lat="38.6682530" lon="1.5214850">
        <ele>61.1</ele>
        <time>2020-02-22T14:08:47Z</time>
      </trkpt>
      <trkpt lat="38.6682530" lon="1.5214850">
        <ele>60.1</ele>
        <time>2020-02-22T14:08:48Z</time>
      </trkpt>
      <trkpt lat="38.6682750" lon="1.5213150">
        <ele>60.1</ele>
        <time>2020-02-22T14:08:49Z</time>
      </trkpt>
      <trkpt lat="38.6683170" lon="1.5212550">
        <ele>59.1</ele>
        <time>2020-02-22T14:08:50Z</time>
      </trkpt>
      <trkpt lat="38.6683170" lon="1.5212550">
        <ele>59.1</ele>
        <time>2020-02-22T14:08:51Z</time>
      </trkpt>
      <trkpt lat="38.6684480" lon="1.5212180">
        <ele>59.1</ele>
        <time>2020-02-22T14:08:52Z</time>
      </trkpt>
      <trkpt lat="38.6685200" lon="1.5212350">
        <ele>59.1</ele>
        <time>2020-02-22T14:08:53Z</time>
      </trkpt>
      <trkpt lat="38.6685200" lon="1.5212350">
        <ele>58.1</ele>
        <time>2020-02-22T14:08:54Z</time>
      </trkpt>
      <trkpt lat="38.6686550" lon="1.5212370">
        <ele>58.1</ele>
        <time>2020-02-22T14:08:55Z</time>
      </trkpt>
      <trkpt lat="38.6686550" lon="1.5212370">
        <ele>58.1</ele>
        <time>2020-02-22T14:08:56Z</time>
      </trkpt>
      <trkpt lat="38.6687680" lon="1.5211500">
        <ele>58.1</ele>
        <time>2020-02-22T14:08:57Z</time>
      </trkpt>
      <trkpt lat="38.6688030" lon="1.5210720">
        <ele>57.1</ele>
        <time>2020-02-22T14:08:58Z</time>
      </trkpt>
      <trkpt lat="38.6688030" lon="1.5210720">
        <ele>57.1</ele>
        <time>2020-02-22T14:08:59Z</time>
      </trkpt>
      <trkpt lat="38.6688220" lon="1.5208800">
        <ele>57.1</ele>
        <time>2020-02-22T14:09:00Z</time>
      </trkpt>
      <trkpt lat="38.6688150" lon="1.5207780">
        <ele>55.1</ele>
        <time>2020-02-22T14:09:01Z</time>
      </trkpt>
      <trkpt lat="38.6688150" lon="1.5207780">
        <ele>55.1</ele>
        <time>2020-02-22T14:09:02Z</time>
      </trkpt>
      <trkpt lat="38.6687880" lon="1.5205750">
        <ele>55.1</ele>
        <time>2020-02-22T14:09:03Z</time>
      </trkpt>
      <trkpt lat="38.6687520" lon="1.5204800">
        <ele>55.1</ele>
        <time>2020-02-22T14:09:04Z</time>
      </trkpt>
      <trkpt lat="38.6687520" lon="1.5204800">
        <ele>54.1</ele>
        <time>2020-02-22T14:09:05Z</time>
      </trkpt>
      <trkpt lat="38.6686330" lon="1.5203220">
        <ele>54.1</ele>
        <time>2020-02-22T14:09:06Z</time>
      </trkpt>
      <trkpt lat="38.6686330" lon="1.5203220">
        <ele>53.1</ele>
        <time>2020-02-22T14:09:07Z</time>
      </trkpt>
      <trkpt lat="38.6684930" lon="1.5201680">
        <ele>53.1</ele>
        <time>2020-02-22T14:09:08Z</time>
      </trkpt>
      <trkpt lat="38.6684230" lon="1.5200900">
        <ele>52.1</ele>
        <time>2020-02-22T14:09:09Z</time>
      </trkpt>
      <trkpt lat="38.6684230" lon="1.5200900">
        <ele>52.1</ele>
        <time>2020-02-22T14:09:10Z</time>
      </trkpt>
      <trkpt lat="38.6682870" lon="1.5199370">
        <ele>51.1</ele>
        <time>2020-02-22T14:09:11Z</time>
      </trkpt>
      <trkpt lat="38.6682270" lon="1.5198650">
        <ele>51.1</ele>
        <time>2020-02-22T14:09:12Z</time>
      </trkpt>
      <trkpt lat="38.6681780" lon="1.5198020">
        <ele>50.1</ele>
        <time>2020-02-22T14:09:13Z</time>
      </trkpt>
      <trkpt lat="38.6681780" lon="1.5198020">
        <ele>50.1</ele>
        <time>2020-02-22T14:09:14Z</time>
      </trkpt>
      <trkpt lat="38.6681170" lon="1.5196730">
        <ele>49.1</ele>
        <time>2020-02-22T14:09:15Z</time>
      </trkpt>
      <trkpt lat="38.6681170" lon="1.5196730">
        <ele>49.1</ele>
        <time>2020-02-22T14:09:16Z</time>
      </trkpt>
      <trkpt lat="38.6681350" lon="1.5195380">
        <ele>48.1</ele>
        <time>2020-02-22T14:09:17Z</time>
      </trkpt>
      <trkpt lat="38.6681350" lon="1.5195380">
        <ele>48.1</ele>
        <time>2020-02-22T14:09:18Z</time>
      </trkpt>
      <trkpt lat="38.6682470" lon="1.5194370">
        <ele>48.1</ele>
        <time>2020-02-22T14:09:19Z</time>
      </trkpt>
      <trkpt lat="38.6682470" lon="1.5194370">
        <ele>47.1</ele>
        <time>2020-02-22T14:09:20Z</time>
      </trkpt>
      <trkpt lat="38.6683880" lon="1.5193870">
        <ele>47.1</ele>
        <time>2020-02-22T14:09:21Z</time>
      </trkpt>
      <trkpt lat="38.6683880" lon="1.5193870">
        <ele>46.1</ele>
        <time>2020-02-22T14:09:22Z</time>
      </trkpt>
      <trkpt lat="38.6685570" lon="1.5193600">
        <ele>46.1</ele>
        <time>2020-02-22T14:09:23Z</time>
      </trkpt>
      <trkpt lat="38.6685570" lon="1.5193600">
        <ele>45.1</ele>
        <time>2020-02-22T14:09:24Z</time>
      </trkpt>
      <trkpt lat="38.6687270" lon="1.5192870">
        <ele>45.1</ele>
        <time>2020-02-22T14:09:25Z</time>
      </trkpt>
      <trkpt lat="38.6687270" lon="1.5192870">
        <ele>44.1</ele>
        <time>2020-02-22T14:09:26Z</time>
      </trkpt>
      <trkpt lat="38.6688800" lon="1.5191580">
        <ele>44.1</ele>
        <time>2020-02-22T14:09:27Z</time>
      </trkpt>
      <trkpt lat="38.6688800" lon="1.5191580">
        <ele>43.1</ele>
        <time>2020-02-22T14:09:28Z</time>
      </trkpt>
      <trkpt lat="38.6690350" lon="1.5190230">
        <ele>43.1</ele>
        <time>2020-02-22T14:09:29Z</time>
      </trkpt>
      <trkpt lat="38.6690350" lon="1.5190230">
        <ele>42.1</ele>
        <time>2020-02-22T14:09:30Z</time>
      </trkpt>
      <trkpt lat="38.6692050" lon="1.5189270">
        <ele>42.1</ele>
        <time>2020-02-22T14:09:31Z</time>
      </trkpt>
      <trkpt lat="38.6692050" lon="1.5189270">
        <ele>40.1</ele>
        <time>2020-02-22T14:09:32Z</time>
      </trkpt>
      <trkpt lat="38.6693770" lon="1.5188720">
        <ele>40.1</ele>
        <time>2020-02-22T14:09:33Z</time>
      </trkpt>
      <trkpt lat="38.6693770" lon="1.5188720">
        <ele>39.1</ele>
        <time>2020-02-22T14:09:34Z</time>
      </trkpt>
      <trkpt lat="38.6695420" lon="1.5188570">
        <ele>39.1</ele>
        <time>2020-02-22T14:09:35Z</time>
      </trkpt>
      <trkpt lat="38.6695420" lon="1.5188570">
        <ele>38.1</ele>
        <time>2020-02-22T14:09:36Z</time>
      </trkpt>
      <trkpt lat="38.6696950" lon="1.5189180">
        <ele>38.1</ele>
        <time>2020-02-22T14:09:37Z</time>
      </trkpt>
      <trkpt lat="38.6696950" lon="1.5189180">
        <ele>38.1</ele>
        <time>2020-02-22T14:09:38Z</time>
      </trkpt>
      <trkpt lat="38.6698150" lon="1.5190550">
        <ele>37.1</ele>
        <time>2020-02-22T14:09:39Z</time>
      </trkpt>
      <trkpt lat="38.6698150" lon="1.5190550">
        <ele>37.1</ele>
        <time>2020-02-22T14:09:40Z</time>
      </trkpt>
      <trkpt lat="38.6699280" lon="1.5192380">
        <ele>37.1</ele>
        <time>2020-02-22T14:09:41Z</time>
      </trkpt>
      <trkpt lat="38.6699280" lon="1.5192380">
        <ele>37.1</ele>
        <time>2020-02-22T14:09:42Z</time>
      </trkpt>
      <trkpt lat="38.6700600" lon="1.5194150">
        <ele>35.1</ele>
        <time>2020-02-22T14:09:43Z</time>
      </trkpt>
      <trkpt lat="38.6701380" lon="1.5194820">
        <ele>35.1</ele>
        <time>2020-02-22T14:09:44Z</time>
      </trkpt>
      <trkpt lat="38.6701380" lon="1.5194820">
        <ele>34.1</ele>
        <time>2020-02-22T14:09:45Z</time>
      </trkpt>
      <trkpt lat="38.6703170" lon="1.5195620">
        <ele>34.1</ele>
        <time>2020-02-22T14:09:46Z</time>
      </trkpt>
      <trkpt lat="38.6703170" lon="1.5195620">
        <ele>33.1</ele>
        <time>2020-02-22T14:09:47Z</time>
      </trkpt>
      <trkpt lat="38.6705150" lon="1.5196020">
        <ele>33.1</ele>
        <time>2020-02-22T14:09:48Z</time>
      </trkpt>
      <trkpt lat="38.6706220" lon="1.5196200">
        <ele>31.1</ele>
        <time>2020-02-22T14:09:49Z</time>
      </trkpt>
      <trkpt lat="38.6706220" lon="1.5196200">
        <ele>31.1</ele>
        <time>2020-02-22T14:09:50Z</time>
      </trkpt>
      <trkpt lat="38.6708350" lon="1.5196620">
        <ele>30.1</ele>
        <time>2020-02-22T14:09:51Z</time>
      </trkpt>
      <trkpt lat="38.6709450" lon="1.5196870">
        <ele>30.1</ele>
        <time>2020-02-22T14:09:52Z</time>
      </trkpt>
      <trkpt lat="38.6710570" lon="1.5197100">
        <ele>28.1</ele>
        <time>2020-02-22T14:09:53Z</time>
      </trkpt>
      <trkpt lat="38.6711680" lon="1.5197300">
        <ele>28.1</ele>
        <time>2020-02-22T14:09:54Z</time>
      </trkpt>
      <trkpt lat="38.6711680" lon="1.5197300">
        <ele>27.1</ele>
        <time>2020-02-22T14:09:55Z</time>
      </trkpt>
      <trkpt lat="38.6713920" lon="1.5197770">
        <ele>26.1</ele>
        <time>2020-02-22T14:09:56Z</time>
      </trkpt>
      <trkpt lat="38.6715030" lon="1.5197970">
        <ele>26.1</ele>
        <time>2020-02-22T14:09:57Z</time>
      </trkpt>
      <trkpt lat="38.6715030" lon="1.5197970">
        <ele>24.1</ele>
        <time>2020-02-22T14:09:58Z</time>
      </trkpt>
      <trkpt lat="38.6717330" lon="1.5198420">
        <ele>24.1</ele>
        <time>2020-02-22T14:09:59Z</time>
      </trkpt>
      <trkpt lat="38.6717330" lon="1.5198420">
        <ele>23.1</ele>
        <time>2020-02-22T14:10:00Z</time>
      </trkpt>
      <trkpt lat="38.6719680" lon="1.5198870">
        <ele>23.1</ele>
        <time>2020-02-22T14:10:01Z</time>
      </trkpt>
      <trkpt lat="38.6719680" lon="1.5198870">
        <ele>21.1</ele>
        <time>2020-02-22T14:10:02Z</time>
      </trkpt>
      <trkpt lat="38.6722050" lon="1.5199320">
        <ele>21.1</ele>
        <time>2020-02-22T14:10:03Z</time>
      </trkpt>
      <trkpt lat="38.6723230" lon="1.5199600">
        <ele>20.1</ele>
        <time>2020-02-22T14:10:04Z</time>
      </trkpt>
      <trkpt lat="38.6723230" lon="1.5199600">
        <ele>20.1</ele>
        <time>2020-02-22T14:10:05Z</time>
      </trkpt>
      <trkpt lat="38.6725650" lon="1.5200080">
        <ele>19.1</ele>
        <time>2020-02-22T14:10:06Z</time>
      </trkpt>
      <trkpt lat="38.6726820" lon="1.5200300">
        <ele>19.1</ele>
        <time>2020-02-22T14:10:07Z</time>
      </trkpt>
      <trkpt lat="38.6726820" lon="1.5200300">
        <ele>17.1</ele>
        <time>2020-02-22T14:10:08Z</time>
      </trkpt>
      <trkpt lat="38.6729170" lon="1.5200750">
        <ele>17.1</ele>
        <time>2020-02-22T14:10:09Z</time>
      </trkpt>
      <trkpt lat="38.6729170" lon="1.5200750">
        <ele>16.1</ele>
        <time>2020-02-22T14:10:10Z</time>
      </trkpt>
      <trkpt lat="38.6731470" lon="1.5201200">
        <ele>16.1</ele>
        <time>2020-02-22T14:10:11Z</time>
      </trkpt>
      <trkpt lat="38.6731470" lon="1.5201200">
        <ele>16.1</ele>
        <time>2020-02-22T14:10:12Z</time>
      </trkpt>
      <trkpt lat="38.6733700" lon="1.5201580">
        <ele>16.1</ele>
        <time>2020-02-22T14:10:13Z</time>
      </trkpt>
      <trkpt lat="38.6733700" lon="1.5201580">
        <ele>16.1</ele>
        <time>2020-02-22T14:10:14Z</time>
      </trkpt>
      <trkpt lat="38.6735980" lon="1.5201830">
        <ele>15.1</ele>
        <time>2020-02-22T14:10:15Z</time>
      </trkpt>
      <trkpt lat="38.6735980" lon="1.5201830">
        <ele>15.1</ele>
        <time>2020-02-22T14:10:16Z</time>
      </trkpt>
      <trkpt lat="38.6738270" lon="1.5201570">
        <ele>14.1</ele>
        <time>2020-02-22T14:10:17Z</time>
      </trkpt>
      <trkpt lat="38.6739350" lon="1.5201150">
        <ele>14.1</ele>
        <time>2020-02-22T14:10:18Z</time>
      </trkpt>
      <trkpt lat="38.6739350" lon="1.5201150">
        <ele>14.1</ele>
        <time>2020-02-22T14:10:19Z</time>
      </trkpt>
      <trkpt lat="38.6741330" lon="1.5199770">
        <ele>14.1</ele>
        <time>2020-02-22T14:10:20Z</time>
      </trkpt>
      <trkpt lat="38.6741330" lon="1.5199770">
        <ele>13.1</ele>
        <time>2020-02-22T14:10:21Z</time>
      </trkpt>
      <trkpt lat="38.6743120" lon="1.5198050">
        <ele>13.1</ele>
        <time>2020-02-22T14:10:22Z</time>
      </trkpt>
      <trkpt lat="38.6743120" lon="1.5198050">
        <ele>12.1</ele>
        <time>2020-02-22T14:10:23Z</time>
      </trkpt>
      <trkpt lat="38.6744830" lon="1.5196250">
        <ele>12.1</ele>
        <time>2020-02-22T14:10:24Z</time>
      </trkpt>
      <trkpt lat="38.6745700" lon="1.5195350">
        <ele>12.1</ele>
        <time>2020-02-22T14:10:25Z</time>
      </trkpt>
      <trkpt lat="38.6745700" lon="1.5195350">
        <ele>12.1</ele>
        <time>2020-02-22T14:10:26Z</time>
      </trkpt>
      <trkpt lat="38.6747400" lon="1.5193530">
        <ele>11.1</ele>
        <time>2020-02-22T14:10:27Z</time>
      </trkpt>
      <trkpt lat="38.6747400" lon="1.5193530">
        <ele>11.1</ele>
        <time>2020-02-22T14:10:28Z</time>
      </trkpt>
      <trkpt lat="38.6749070" lon="1.5191770">
        <ele>11.1</ele>
        <time>2020-02-22T14:10:29Z</time>
      </trkpt>
      <trkpt lat="38.6749070" lon="1.5191770">
        <ele>11.1</ele>
        <time>2020-02-22T14:10:30Z</time>
      </trkpt>
      <trkpt lat="38.6750680" lon="1.5190050">
        <ele>10.1</ele>
        <time>2020-02-22T14:10:31Z</time>
      </trkpt>
      <trkpt lat="38.6751500" lon="1.5189230">
        <ele>10.1</ele>
        <time>2020-02-22T14:10:32Z</time>
      </trkpt>
      <trkpt lat="38.6752280" lon="1.5188400">
        <ele>10.1</ele>
        <time>2020-02-22T14:10:33Z</time>
      </trkpt>
      <trkpt lat="38.6752280" lon="1.5188400">
        <ele>9.1</ele>
        <time>2020-02-22T14:10:34Z</time>
      </trkpt>
      <trkpt lat="38.6753800" lon="1.5186800">
        <ele>9.1</ele>
        <time>2020-02-22T14:10:35Z</time>
      </trkpt>
      <trkpt lat="38.6754520" lon="1.5185970">
        <ele>9.1</ele>
        <time>2020-02-22T14:10:36Z</time>
      </trkpt>
      <trkpt lat="38.6755230" lon="1.5185200">
        <ele>9.1</ele>
        <time>2020-02-22T14:10:37Z</time>
      </trkpt>
      <trkpt lat="38.6755230" lon="1.5185200">
        <ele>8.1</ele>
        <time>2020-02-22T14:10:38Z</time>
      </trkpt>
      <trkpt lat="38.6756600" lon="1.5183800">
        <ele>8.1</ele>
        <time>2020-02-22T14:10:39Z</time>
      </trkpt>
      <trkpt lat="38.6756600" lon="1.5183800">
        <ele>8.1</ele>
        <time>2020-02-22T14:10:40Z</time>
      </trkpt>
      <trkpt lat="38.6757900" lon="1.5182470">
        <ele>8.1</ele>
        <time>2020-02-22T14:10:41Z</time>
      </trkpt>
      <trkpt lat="38.6757900" lon="1.5182470">
        <ele>8.1</ele>
        <time>2020-02-22T14:10:42Z</time>
      </trkpt>
      <trkpt lat="38.6759020" lon="1.5181230">
        <ele>8.1</ele>
        <time>2020-02-22T14:10:43Z</time>
      </trkpt>
      <trkpt lat="38.6759520" lon="1.5180630">
        <ele>7.1</ele>
        <time>2020-02-22T14:10:44Z</time>
      </trkpt>
      <trkpt lat="38.6759520" lon="1.5180630">
        <ele>7.1</ele>
        <time>2020-02-22T14:10:45Z</time>
      </trkpt>
      <trkpt lat="38.6760450" lon="1.5179750">
        <ele>7.1</ele>
        <time>2020-02-22T14:10:46Z</time>
      </trkpt>
      <trkpt lat="38.6760450" lon="1.5179750">
        <ele>7.1</ele>
        <time>2020-02-22T14:10:47Z</time>
      </trkpt>
      <trkpt lat="38.6761180" lon="1.5178970">
        <ele>6.1</ele>
        <time>2020-02-22T14:10:48Z</time>
      </trkpt>
      <trkpt lat="38.6761180" lon="1.5178970">
        <ele>6.1</ele>
        <time>2020-02-22T14:10:49Z</time>
      </trkpt>
      <trkpt lat="38.6761950" lon="1.5178130">
        <ele>6.1</ele>
        <time>2020-02-22T14:10:50Z</time>
      </trkpt>
      <trkpt lat="38.6762400" lon="1.5177650">
        <ele>6.1</ele>
        <time>2020-02-22T14:10:51Z</time>
      </trkpt>
      <trkpt lat="38.6762400" lon="1.5177650">
        <ele>6.1</ele>
        <time>2020-02-22T14:10:52Z</time>
      </trkpt>
      <trkpt lat="38.6763330" lon="1.5176470">
        <ele>6.1</ele>
        <time>2020-02-22T14:10:53Z</time>
      </trkpt>
      <trkpt lat="38.6763330" lon="1.5176470">
        <ele>5.1</ele>
        <time>2020-02-22T14:10:54Z</time>
      </trkpt>
      <trkpt lat="38.6764400" lon="1.5175130">
        <ele>5.1</ele>
        <time>2020-02-22T14:10:55Z</time>
      </trkpt>
      <trkpt lat="38.6765000" lon="1.5174500">
        <ele>5.1</ele>
        <time>2020-02-22T14:10:56Z</time>
      </trkpt>
      <trkpt lat="38.6765600" lon="1.5173870">
        <ele>5.1</ele>
        <time>2020-02-22T14:10:57Z</time>
      </trkpt>
      <trkpt lat="38.6765600" lon="1.5173870">
        <ele>5.1</ele>
        <time>2020-02-22T14:10:58Z</time>
      </trkpt>
      <trkpt lat="38.6766800" lon="1.5172580">
        <ele>5.1</ele>
        <time>2020-02-22T14:10:59Z</time>
      </trkpt>
      <trkpt lat="38.6766800" lon="1.5172580">
        <ele>5.1</ele>
        <time>2020-02-22T14:11:00Z</time>
      </trkpt>
      <trkpt lat="38.6767850" lon="1.5171170">
        <ele>4.1</ele>
        <time>2020-02-22T14:11:01Z</time>
      </trkpt>
      <trkpt lat="38.6767850" lon="1.5171170">
        <ele>4.1</ele>
        <time>2020-02-22T14:11:02Z</time>
      </trkpt>
      <trkpt lat="38.6768800" lon="1.5169630">
        <ele>4.1</ele>
        <time>2020-02-22T14:11:03Z</time>
      </trkpt>
      <trkpt lat="38.6768800" lon="1.5169630">
        <ele>4.1</ele>
        <time>2020-02-22T14:11:04Z</time>
      </trkpt>
      <trkpt lat="38.6769630" lon="1.5167970">
        <ele>4.1</ele>
        <time>2020-02-22T14:11:05Z</time>
      </trkpt>
      <trkpt lat="38.6769630" lon="1.5167970">
        <ele>4.1</ele>
        <time>2020-02-22T14:11:06Z</time>
      </trkpt>
      <trkpt lat="38.6770280" lon="1.5166200">
        <ele>4.1</ele>
        <time>2020-02-22T14:11:07Z</time>
      </trkpt>
      <trkpt lat="38.6770280" lon="1.5166200">
        <ele>4.1</ele>
        <time>2020-02-22T14:11:08Z</time>
      </trkpt>
      <trkpt lat="38.6770870" lon="1.5164400">
        <ele>4.1</ele>
        <time>2020-02-22T14:11:09Z</time>
      </trkpt>
      <trkpt lat="38.6770870" lon="1.5164400">
        <ele>4.1</ele>
        <time>2020-02-22T14:11:10Z</time>
      </trkpt>
      <trkpt lat="38.6771400" lon="1.5162670">
        <ele>3.1</ele>
        <time>2020-02-22T14:11:11Z</time>
      </trkpt>
      <trkpt lat="38.6771630" lon="1.5161880">
        <ele>3.1</ele>
        <time>2020-02-22T14:11:12Z</time>
      </trkpt>
      <trkpt lat="38.6771630" lon="1.5161880">
        <ele>3.1</ele>
        <time>2020-02-22T14:11:13Z</time>
      </trkpt>
      <trkpt lat="38.6772020" lon="1.5160450">
        <ele>3.1</ele>
        <time>2020-02-22T14:11:14Z</time>
      </trkpt>
      <trkpt lat="38.6772220" lon="1.5159800">
        <ele>3.1</ele>
        <time>2020-02-22T14:11:15Z</time>
      </trkpt>
      <trkpt lat="38.6772220" lon="1.5159800">
        <ele>3.1</ele>
        <time>2020-02-22T14:11:16Z</time>
      </trkpt>
      <trkpt lat="38.6772670" lon="1.5158230">
        <ele>3.1</ele>
        <time>2020-02-22T14:11:17Z</time>
      </trkpt>
      <trkpt lat="38.6772670" lon="1.5158230">
        <ele>3.1</ele>
        <time>2020-02-22T14:11:18Z</time>
      </trkpt>
      <trkpt lat="38.6773270" lon="1.5156220">
        <ele>3.1</ele>
        <time>2020-02-22T14:11:19Z</time>
      </trkpt>
      <trkpt lat="38.6773270" lon="1.5156220">
        <ele>3.1</ele>
        <time>2020-02-22T14:11:20Z</time>
      </trkpt>
      <trkpt lat="38.6773930" lon="1.5153820">
        <ele>3.1</ele>
        <time>2020-02-22T14:11:21Z</time>
      </trkpt>
      <trkpt lat="38.6773930" lon="1.5153820">
        <ele>3.1</ele>
        <time>2020-02-22T14:11:22Z</time>
      </trkpt>
      <trkpt lat="38.6774680" lon="1.5151180">
        <ele>3.1</ele>
        <time>2020-02-22T14:11:23Z</time>
      </trkpt>
      <trkpt lat="38.6774680" lon="1.5151180">
        <ele>3.1</ele>
        <time>2020-02-22T14:11:24Z</time>
      </trkpt>
      <trkpt lat="38.6775670" lon="1.5148300">
        <ele>3.1</ele>
        <time>2020-02-22T14:11:25Z</time>
      </trkpt>
      <trkpt lat="38.6775670" lon="1.5148300">
        <ele>3.1</ele>
        <time>2020-02-22T14:11:26Z</time>
      </trkpt>
      <trkpt lat="38.6776630" lon="1.5145320">
        <ele>3.1</ele>
        <time>2020-02-22T14:11:27Z</time>
      </trkpt>
      <trkpt lat="38.6776630" lon="1.5145320">
        <ele>3.1</ele>
        <time>2020-02-22T14:11:28Z</time>
      </trkpt>
      <trkpt lat="38.6777550" lon="1.5142270">
        <ele>3.1</ele>
        <time>2020-02-22T14:11:29Z</time>
      </trkpt>
      <trkpt lat="38.6777550" lon="1.5142270">
        <ele>3.1</ele>
        <time>2020-02-22T14:11:30Z</time>
      </trkpt>
      <trkpt lat="38.6778420" lon="1.5139150">
        <ele>3.1</ele>
        <time>2020-02-22T14:11:31Z</time>
      </trkpt>
      <trkpt lat="38.6778870" lon="1.5137600">
        <ele>3.1</ele>
        <time>2020-02-22T14:11:32Z</time>
      </trkpt>
      <trkpt lat="38.6778870" lon="1.5137600">
        <ele>3.1</ele>
        <time>2020-02-22T14:11:33Z</time>
      </trkpt>
      <trkpt lat="38.6779780" lon="1.5134570">
        <ele>3.1</ele>
        <time>2020-02-22T14:11:34Z</time>
      </trkpt>
      <trkpt lat="38.6779780" lon="1.5134570">
        <ele>3.1</ele>
        <time>2020-02-22T14:11:35Z</time>
      </trkpt>
      <trkpt lat="38.6780700" lon="1.5131520">
        <ele>3.1</ele>
        <time>2020-02-22T14:11:36Z</time>
      </trkpt>
      <trkpt lat="38.6780700" lon="1.5131520">
        <ele>3.1</ele>
        <time>2020-02-22T14:11:37Z</time>
      </trkpt>
      <trkpt lat="38.6781600" lon="1.5128620">
        <ele>3.1</ele>
        <time>2020-02-22T14:11:38Z</time>
      </trkpt>
      <trkpt lat="38.6782030" lon="1.5127180">
        <ele>3.1</ele>
        <time>2020-02-22T14:11:39Z</time>
      </trkpt>
      <trkpt lat="38.6782030" lon="1.5127180">
        <ele>3.1</ele>
        <time>2020-02-22T14:11:40Z</time>
      </trkpt>
      <trkpt lat="38.6782920" lon="1.5124230">
        <ele>3.1</ele>
        <time>2020-02-22T14:11:41Z</time>
      </trkpt>
      <trkpt lat="38.6782920" lon="1.5124230">
        <ele>3.1</ele>
        <time>2020-02-22T14:11:42Z</time>
      </trkpt>
      <trkpt lat="38.6783780" lon="1.5121230">
        <ele>3.1</ele>
        <time>2020-02-22T14:11:43Z</time>
      </trkpt>
      <trkpt lat="38.6783780" lon="1.5121230">
        <ele>3.1</ele>
        <time>2020-02-22T14:11:44Z</time>
      </trkpt>
      <trkpt lat="38.6784650" lon="1.5118220">
        <ele>5.1</ele>
        <time>2020-02-22T14:11:45Z</time>
      </trkpt>
      <trkpt lat="38.6784650" lon="1.5118220">
        <ele>5.1</ele>
        <time>2020-02-22T14:11:46Z</time>
      </trkpt>
      <trkpt lat="38.6785600" lon="1.5115180">
        <ele>5.1</ele>
        <time>2020-02-22T14:11:47Z</time>
      </trkpt>
      <trkpt lat="38.6785600" lon="1.5115180">
        <ele>5.1</ele>
        <time>2020-02-22T14:11:48Z</time>
      </trkpt>
      <trkpt lat="38.6786520" lon="1.5112130">
        <ele>5.1</ele>
        <time>2020-02-22T14:11:49Z</time>
      </trkpt>
      <trkpt lat="38.6786970" lon="1.5110620">
        <ele>5.1</ele>
        <time>2020-02-22T14:11:50Z</time>
      </trkpt>
      <trkpt lat="38.6786970" lon="1.5110620">
        <ele>5.1</ele>
        <time>2020-02-22T14:11:51Z</time>
      </trkpt>
      <trkpt lat="38.6787880" lon="1.5107580">
        <ele>5.1</ele>
        <time>2020-02-22T14:11:52Z</time>
      </trkpt>
      <trkpt lat="38.6787880" lon="1.5107580">
        <ele>5.1</ele>
        <time>2020-02-22T14:11:53Z</time>
      </trkpt>
      <trkpt lat="38.6788720" lon="1.5104550">
        <ele>5.1</ele>
        <time>2020-02-22T14:11:54Z</time>
      </trkpt>
      <trkpt lat="38.6788720" lon="1.5104550">
        <ele>5.1</ele>
        <time>2020-02-22T14:11:55Z</time>
      </trkpt>
      <trkpt lat="38.6789620" lon="1.5101500">
        <ele>5.1</ele>
        <time>2020-02-22T14:11:56Z</time>
      </trkpt>
      <trkpt lat="38.6790070" lon="1.5100020">
        <ele>5.1</ele>
        <time>2020-02-22T14:11:57Z</time>
      </trkpt>
      <trkpt lat="38.6790070" lon="1.5100020">
        <ele>4.1</ele>
        <time>2020-02-22T14:11:58Z</time>
      </trkpt>
      <trkpt lat="38.6790980" lon="1.5097030">
        <ele>4.1</ele>
        <time>2020-02-22T14:11:59Z</time>
      </trkpt>
      <trkpt lat="38.6791450" lon="1.5095580">
        <ele>4.1</ele>
        <time>2020-02-22T14:12:00Z</time>
      </trkpt>
      <trkpt lat="38.6791930" lon="1.5094130">
        <ele>4.1</ele>
        <time>2020-02-22T14:12:01Z</time>
      </trkpt>
      <trkpt lat="38.6791930" lon="1.5094130">
        <ele>4.1</ele>
        <time>2020-02-22T14:12:02Z</time>
      </trkpt>
      <trkpt lat="38.6792850" lon="1.5091200">
        <ele>4.1</ele>
        <time>2020-02-22T14:12:03Z</time>
      </trkpt>
      <trkpt lat="38.6792850" lon="1.5091200">
        <ele>4.1</ele>
        <time>2020-02-22T14:12:04Z</time>
      </trkpt>
      <trkpt lat="38.6793730" lon="1.5088280">
        <ele>4.1</ele>
        <time>2020-02-22T14:12:05Z</time>
      </trkpt>
      <trkpt lat="38.6793730" lon="1.5088280">
        <ele>4.1</ele>
        <time>2020-02-22T14:12:06Z</time>
      </trkpt>
      <trkpt lat="38.6794570" lon="1.5085330">
        <ele>4.1</ele>
        <time>2020-02-22T14:12:07Z</time>
      </trkpt>
      <trkpt lat="38.6794570" lon="1.5085330">
        <ele>3.1</ele>
        <time>2020-02-22T14:12:08Z</time>
      </trkpt>
      <trkpt lat="38.6795400" lon="1.5082470">
        <ele>3.1</ele>
        <time>2020-02-22T14:12:09Z</time>
      </trkpt>
      <trkpt lat="38.6795400" lon="1.5082470">
        <ele>3.1</ele>
        <time>2020-02-22T14:12:10Z</time>
      </trkpt>
      <trkpt lat="38.6796250" lon="1.5079670">
        <ele>3.1</ele>
        <time>2020-02-22T14:12:11Z</time>
      </trkpt>
      <trkpt lat="38.6796250" lon="1.5079670">
        <ele>3.1</ele>
        <time>2020-02-22T14:12:12Z</time>
      </trkpt>
      <trkpt lat="38.6797080" lon="1.5076920">
        <ele>3.1</ele>
        <time>2020-02-22T14:12:13Z</time>
      </trkpt>
      <trkpt lat="38.6797080" lon="1.5076920">
        <ele>3.1</ele>
        <time>2020-02-22T14:12:14Z</time>
      </trkpt>
      <trkpt lat="38.6797870" lon="1.5074170">
        <ele>3.1</ele>
        <time>2020-02-22T14:12:15Z</time>
      </trkpt>
      <trkpt lat="38.6797870" lon="1.5074170">
        <ele>3.1</ele>
        <time>2020-02-22T14:12:16Z</time>
      </trkpt>
      <trkpt lat="38.6798550" lon="1.5071450">
        <ele>3.1</ele>
        <time>2020-02-22T14:12:17Z</time>
      </trkpt>
      <trkpt lat="38.6798550" lon="1.5071450">
        <ele>4.1</ele>
        <time>2020-02-22T14:12:18Z</time>
      </trkpt>
      <trkpt lat="38.6799270" lon="1.5068770">
        <ele>4.1</ele>
        <time>2020-02-22T14:12:19Z</time>
      </trkpt>
      <trkpt lat="38.6799270" lon="1.5068770">
        <ele>4.1</ele>
        <time>2020-02-22T14:12:20Z</time>
      </trkpt>
      <trkpt lat="38.6800070" lon="1.5066150">
        <ele>4.1</ele>
        <time>2020-02-22T14:12:21Z</time>
      </trkpt>
      <trkpt lat="38.6800070" lon="1.5066150">
        <ele>4.1</ele>
        <time>2020-02-22T14:12:22Z</time>
      </trkpt>
      <trkpt lat="38.6800880" lon="1.5063580">
        <ele>4.1</ele>
        <time>2020-02-22T14:12:23Z</time>
      </trkpt>
      <trkpt lat="38.6800880" lon="1.5063580">
        <ele>4.1</ele>
        <time>2020-02-22T14:12:24Z</time>
      </trkpt>
      <trkpt lat="38.6801680" lon="1.5061030">
        <ele>4.1</ele>
        <time>2020-02-22T14:12:25Z</time>
      </trkpt>
      <trkpt lat="38.6802070" lon="1.5059770">
        <ele>4.1</ele>
        <time>2020-02-22T14:12:26Z</time>
      </trkpt>
      <trkpt lat="38.6802070" lon="1.5059770">
        <ele>4.1</ele>
        <time>2020-02-22T14:12:27Z</time>
      </trkpt>
      <trkpt lat="38.6802830" lon="1.5057250">
        <ele>4.1</ele>
        <time>2020-02-22T14:12:28Z</time>
      </trkpt>
      <trkpt lat="38.6802830" lon="1.5057250">
        <ele>4.1</ele>
        <time>2020-02-22T14:12:29Z</time>
      </trkpt>
      <trkpt lat="38.6803600" lon="1.5054730">
        <ele>4.1</ele>
        <time>2020-02-22T14:12:30Z</time>
      </trkpt>
      <trkpt lat="38.6803970" lon="1.5053480">
        <ele>4.1</ele>
        <time>2020-02-22T14:12:31Z</time>
      </trkpt>
      <trkpt lat="38.6803970" lon="1.5053480">
        <ele>4.1</ele>
        <time>2020-02-22T14:12:32Z</time>
      </trkpt>
      <trkpt lat="38.6804720" lon="1.5051020">
        <ele>4.1</ele>
        <time>2020-02-22T14:12:33Z</time>
      </trkpt>
      <trkpt lat="38.6804720" lon="1.5051020">
        <ele>5.1</ele>
        <time>2020-02-22T14:12:34Z</time>
      </trkpt>
      <trkpt lat="38.6805500" lon="1.5048600">
        <ele>5.1</ele>
        <time>2020-02-22T14:12:35Z</time>
      </trkpt>
      <trkpt lat="38.6805500" lon="1.5048600">
        <ele>5.1</ele>
        <time>2020-02-22T14:12:36Z</time>
      </trkpt>
      <trkpt lat="38.6806350" lon="1.5046300">
        <ele>5.1</ele>
        <time>2020-02-22T14:12:37Z</time>
      </trkpt>
      <trkpt lat="38.6806350" lon="1.5046300">
        <ele>5.1</ele>
        <time>2020-02-22T14:12:38Z</time>
      </trkpt>
      <trkpt lat="38.6807200" lon="1.5044080">
        <ele>6.1</ele>
        <time>2020-02-22T14:12:39Z</time>
      </trkpt>
      <trkpt lat="38.6807200" lon="1.5044080">
        <ele>6.1</ele>
        <time>2020-02-22T14:12:40Z</time>
      </trkpt>
      <trkpt lat="38.6808100" lon="1.5041930">
        <ele>6.1</ele>
        <time>2020-02-22T14:12:41Z</time>
      </trkpt>
      <trkpt lat="38.6808100" lon="1.5041930">
        <ele>6.1</ele>
        <time>2020-02-22T14:12:42Z</time>
      </trkpt>
      <trkpt lat="38.6809000" lon="1.5039880">
        <ele>6.1</ele>
        <time>2020-02-22T14:12:43Z</time>
      </trkpt>
      <trkpt lat="38.6809000" lon="1.5039880">
        <ele>6.1</ele>
        <time>2020-02-22T14:12:44Z</time>
      </trkpt>
      <trkpt lat="38.6809880" lon="1.5037730">
        <ele>7.1</ele>
        <time>2020-02-22T14:12:45Z</time>
      </trkpt>
      <trkpt lat="38.6809880" lon="1.5037730">
        <ele>8.1</ele>
        <time>2020-02-22T14:12:46Z</time>
      </trkpt>
      <trkpt lat="38.6810920" lon="1.5035600">
        <ele>8.1</ele>
        <time>2020-02-22T14:12:47Z</time>
      </trkpt>
      <trkpt lat="38.6810920" lon="1.5035600">
        <ele>8.1</ele>
        <time>2020-02-22T14:12:48Z</time>
      </trkpt>
      <trkpt lat="38.6811920" lon="1.5033470">
        <ele>8.1</ele>
        <time>2020-02-22T14:12:49Z</time>
      </trkpt>
      <trkpt lat="38.6812420" lon="1.5032420">
        <ele>8.1</ele>
        <time>2020-02-22T14:12:50Z</time>
      </trkpt>
      <trkpt lat="38.6812920" lon="1.5031370">
        <ele>8.1</ele>
        <time>2020-02-22T14:12:51Z</time>
      </trkpt>
      <trkpt lat="38.6812920" lon="1.5031370">
        <ele>8.1</ele>
        <time>2020-02-22T14:12:52Z</time>
      </trkpt>
      <trkpt lat="38.6813930" lon="1.5029300">
        <ele>8.1</ele>
        <time>2020-02-22T14:12:53Z</time>
      </trkpt>
      <trkpt lat="38.6813930" lon="1.5029300">
        <ele>8.1</ele>
        <time>2020-02-22T14:12:54Z</time>
      </trkpt>
      <trkpt lat="38.6814950" lon="1.5027250">
        <ele>8.1</ele>
        <time>2020-02-22T14:12:55Z</time>
      </trkpt>
      <trkpt lat="38.6814950" lon="1.5027250">
        <ele>8.1</ele>
        <time>2020-02-22T14:12:56Z</time>
      </trkpt>
      <trkpt lat="38.6815900" lon="1.5025200">
        <ele>8.1</ele>
        <time>2020-02-22T14:12:57Z</time>
      </trkpt>
      <trkpt lat="38.6815900" lon="1.5025200">
        <ele>8.1</ele>
        <time>2020-02-22T14:12:58Z</time>
      </trkpt>
      <trkpt lat="38.6816870" lon="1.5023170">
        <ele>9.1</ele>
        <time>2020-02-22T14:12:59Z</time>
      </trkpt>
      <trkpt lat="38.6816870" lon="1.5023170">
        <ele>9.1</ele>
        <time>2020-02-22T14:13:00Z</time>
      </trkpt>
      <trkpt lat="38.6817820" lon="1.5021120">
        <ele>9.1</ele>
        <time>2020-02-22T14:13:01Z</time>
      </trkpt>
      <trkpt lat="38.6817820" lon="1.5021120">
        <ele>9.1</ele>
        <time>2020-02-22T14:13:02Z</time>
      </trkpt>
      <trkpt lat="38.6818800" lon="1.5019050">
        <ele>9.1</ele>
        <time>2020-02-22T14:13:03Z</time>
      </trkpt>
      <trkpt lat="38.6818800" lon="1.5019050">
        <ele>9.1</ele>
        <time>2020-02-22T14:13:04Z</time>
      </trkpt>
      <trkpt lat="38.6819730" lon="1.5016930">
        <ele>10.1</ele>
        <time>2020-02-22T14:13:05Z</time>
      </trkpt>
      <trkpt lat="38.6819730" lon="1.5016930">
        <ele>10.1</ele>
        <time>2020-02-22T14:13:06Z</time>
      </trkpt>
      <trkpt lat="38.6820700" lon="1.5014830">
        <ele>10.1</ele>
        <time>2020-02-22T14:13:07Z</time>
      </trkpt>
      <trkpt lat="38.6820700" lon="1.5014830">
        <ele>10.1</ele>
        <time>2020-02-22T14:13:08Z</time>
      </trkpt>
      <trkpt lat="38.6821680" lon="1.5012750">
        <ele>10.1</ele>
        <time>2020-02-22T14:13:09Z</time>
      </trkpt>
      <trkpt lat="38.6821680" lon="1.5012750">
        <ele>10.1</ele>
        <time>2020-02-22T14:13:10Z</time>
      </trkpt>
      <trkpt lat="38.6822630" lon="1.5010680">
        <ele>10.1</ele>
        <time>2020-02-22T14:13:11Z</time>
      </trkpt>
      <trkpt lat="38.6822630" lon="1.5010680">
        <ele>10.1</ele>
        <time>2020-02-22T14:13:12Z</time>
      </trkpt>
      <trkpt lat="38.6823570" lon="1.5008700">
        <ele>10.1</ele>
        <time>2020-02-22T14:13:13Z</time>
      </trkpt>
      <trkpt lat="38.6823570" lon="1.5008700">
        <ele>10.1</ele>
        <time>2020-02-22T14:13:14Z</time>
      </trkpt>
      <trkpt lat="38.6824480" lon="1.5006700">
        <ele>10.1</ele>
        <time>2020-02-22T14:13:15Z</time>
      </trkpt>
      <trkpt lat="38.6824480" lon="1.5006700">
        <ele>11.1</ele>
        <time>2020-02-22T14:13:16Z</time>
      </trkpt>
      <trkpt lat="38.6825420" lon="1.5004720">
        <ele>11.1</ele>
        <time>2020-02-22T14:13:17Z</time>
      </trkpt>
      <trkpt lat="38.6825420" lon="1.5004720">
        <ele>11.1</ele>
        <time>2020-02-22T14:13:18Z</time>
      </trkpt>
      <trkpt lat="38.6826300" lon="1.5002820">
        <ele>11.1</ele>
        <time>2020-02-22T14:13:19Z</time>
      </trkpt>
      <trkpt lat="38.6826730" lon="1.5001900">
        <ele>11.1</ele>
        <time>2020-02-22T14:13:20Z</time>
      </trkpt>
      <trkpt lat="38.6826730" lon="1.5001900">
        <ele>11.1</ele>
        <time>2020-02-22T14:13:21Z</time>
      </trkpt>
      <trkpt lat="38.6827550" lon="1.5000050">
        <ele>11.1</ele>
        <time>2020-02-22T14:13:22Z</time>
      </trkpt>
      <trkpt lat="38.6827550" lon="1.5000050">
        <ele>11.1</ele>
        <time>2020-02-22T14:13:23Z</time>
      </trkpt>
      <trkpt lat="38.6828420" lon="1.4998170">
        <ele>11.1</ele>
        <time>2020-02-22T14:13:24Z</time>
      </trkpt>
      <trkpt lat="38.6828420" lon="1.4998170">
        <ele>11.1</ele>
        <time>2020-02-22T14:13:25Z</time>
      </trkpt>
      <trkpt lat="38.6829280" lon="1.4996220">
        <ele>11.1</ele>
        <time>2020-02-22T14:13:26Z</time>
      </trkpt>
      <trkpt lat="38.6829750" lon="1.4995230">
        <ele>11.1</ele>
        <time>2020-02-22T14:13:27Z</time>
      </trkpt>
      <trkpt lat="38.6829750" lon="1.4995230">
        <ele>11.1</ele>
        <time>2020-02-22T14:13:28Z</time>
      </trkpt>
      <trkpt lat="38.6830670" lon="1.4993250">
        <ele>12.1</ele>
        <time>2020-02-22T14:13:29Z</time>
      </trkpt>
      <trkpt lat="38.6830670" lon="1.4993250">
        <ele>12.1</ele>
        <time>2020-02-22T14:13:30Z</time>
      </trkpt>
      <trkpt lat="38.6831570" lon="1.4991250">
        <ele>12.1</ele>
        <time>2020-02-22T14:13:31Z</time>
      </trkpt>
      <trkpt lat="38.6831570" lon="1.4991250">
        <ele>12.1</ele>
        <time>2020-02-22T14:13:32Z</time>
      </trkpt>
      <trkpt lat="38.6832480" lon="1.4989180">
        <ele>12.1</ele>
        <time>2020-02-22T14:13:33Z</time>
      </trkpt>
      <trkpt lat="38.6832480" lon="1.4989180">
        <ele>12.1</ele>
        <time>2020-02-22T14:13:34Z</time>
      </trkpt>
      <trkpt lat="38.6833430" lon="1.4987070">
        <ele>12.1</ele>
        <time>2020-02-22T14:13:35Z</time>
      </trkpt>
      <trkpt lat="38.6833430" lon="1.4987070">
        <ele>12.1</ele>
        <time>2020-02-22T14:13:36Z</time>
      </trkpt>
      <trkpt lat="38.6834430" lon="1.4984850">
        <ele>12.1</ele>
        <time>2020-02-22T14:13:37Z</time>
      </trkpt>
      <trkpt lat="38.6834430" lon="1.4984850">
        <ele>12.1</ele>
        <time>2020-02-22T14:13:38Z</time>
      </trkpt>
      <trkpt lat="38.6835450" lon="1.4982630">
        <ele>12.1</ele>
        <time>2020-02-22T14:13:39Z</time>
      </trkpt>
      <trkpt lat="38.6835450" lon="1.4982630">
        <ele>12.1</ele>
        <time>2020-02-22T14:13:40Z</time>
      </trkpt>
      <trkpt lat="38.6836500" lon="1.4980450">
        <ele>12.1</ele>
        <time>2020-02-22T14:13:41Z</time>
      </trkpt>
      <trkpt lat="38.6836500" lon="1.4980450">
        <ele>12.1</ele>
        <time>2020-02-22T14:13:42Z</time>
      </trkpt>
      <trkpt lat="38.6837580" lon="1.4978270">
        <ele>12.1</ele>
        <time>2020-02-22T14:13:43Z</time>
      </trkpt>
      <trkpt lat="38.6837580" lon="1.4978270">
        <ele>12.1</ele>
        <time>2020-02-22T14:13:44Z</time>
      </trkpt>
      <trkpt lat="38.6838720" lon="1.4976070">
        <ele>12.1</ele>
        <time>2020-02-22T14:13:45Z</time>
      </trkpt>
      <trkpt lat="38.6838720" lon="1.4976070">
        <ele>12.1</ele>
        <time>2020-02-22T14:13:46Z</time>
      </trkpt>
      <trkpt lat="38.6839930" lon="1.4973900">
        <ele>12.1</ele>
        <time>2020-02-22T14:13:47Z</time>
      </trkpt>
      <trkpt lat="38.6839930" lon="1.4973900">
        <ele>12.1</ele>
        <time>2020-02-22T14:13:48Z</time>
      </trkpt>
      <trkpt lat="38.6841280" lon="1.4971800">
        <ele>12.1</ele>
        <time>2020-02-22T14:13:49Z</time>
      </trkpt>
      <trkpt lat="38.6841280" lon="1.4971800">
        <ele>12.1</ele>
        <time>2020-02-22T14:13:50Z</time>
      </trkpt>
      <trkpt lat="38.6842620" lon="1.4969650">
        <ele>12.1</ele>
        <time>2020-02-22T14:13:51Z</time>
      </trkpt>
      <trkpt lat="38.6842620" lon="1.4969650">
        <ele>12.1</ele>
        <time>2020-02-22T14:13:52Z</time>
      </trkpt>
      <trkpt lat="38.6843920" lon="1.4967550">
        <ele>12.1</ele>
        <time>2020-02-22T14:13:53Z</time>
      </trkpt>
      <trkpt lat="38.6843920" lon="1.4967550">
        <ele>12.1</ele>
        <time>2020-02-22T14:13:54Z</time>
      </trkpt>
      <trkpt lat="38.6845150" lon="1.4965470">
        <ele>12.1</ele>
        <time>2020-02-22T14:13:55Z</time>
      </trkpt>
      <trkpt lat="38.6845150" lon="1.4965470">
        <ele>12.1</ele>
        <time>2020-02-22T14:13:56Z</time>
      </trkpt>
      <trkpt lat="38.6846450" lon="1.4963370">
        <ele>12.1</ele>
        <time>2020-02-22T14:13:57Z</time>
      </trkpt>
      <trkpt lat="38.6846450" lon="1.4963370">
        <ele>12.1</ele>
        <time>2020-02-22T14:13:58Z</time>
      </trkpt>
      <trkpt lat="38.6847750" lon="1.4961300">
        <ele>12.1</ele>
        <time>2020-02-22T14:13:59Z</time>
      </trkpt>
      <trkpt lat="38.6847750" lon="1.4961300">
        <ele>12.1</ele>
        <time>2020-02-22T14:14:00Z</time>
      </trkpt>
      <trkpt lat="38.6849020" lon="1.4959370">
        <ele>12.1</ele>
        <time>2020-02-22T14:14:01Z</time>
      </trkpt>
      <trkpt lat="38.6849020" lon="1.4959370">
        <ele>12.1</ele>
        <time>2020-02-22T14:14:02Z</time>
      </trkpt>
      <trkpt lat="38.6850180" lon="1.4957480">
        <ele>12.1</ele>
        <time>2020-02-22T14:14:03Z</time>
      </trkpt>
      <trkpt lat="38.6850180" lon="1.4957480">
        <ele>12.1</ele>
        <time>2020-02-22T14:14:04Z</time>
      </trkpt>
      <trkpt lat="38.6851370" lon="1.4955530">
        <ele>12.1</ele>
        <time>2020-02-22T14:14:05Z</time>
      </trkpt>
      <trkpt lat="38.6851370" lon="1.4955530">
        <ele>12.1</ele>
        <time>2020-02-22T14:14:06Z</time>
      </trkpt>
      <trkpt lat="38.6852530" lon="1.4953580">
        <ele>12.1</ele>
        <time>2020-02-22T14:14:07Z</time>
      </trkpt>
      <trkpt lat="38.6852530" lon="1.4953580">
        <ele>12.1</ele>
        <time>2020-02-22T14:14:08Z</time>
      </trkpt>
      <trkpt lat="38.6853700" lon="1.4951720">
        <ele>12.1</ele>
        <time>2020-02-22T14:14:09Z</time>
      </trkpt>
      <trkpt lat="38.6853700" lon="1.4951720">
        <ele>12.1</ele>
        <time>2020-02-22T14:14:10Z</time>
      </trkpt>
      <trkpt lat="38.6854830" lon="1.4949900">
        <ele>12.1</ele>
        <time>2020-02-22T14:14:11Z</time>
      </trkpt>
      <trkpt lat="38.6854830" lon="1.4949900">
        <ele>12.1</ele>
        <time>2020-02-22T14:14:12Z</time>
      </trkpt>
      <trkpt lat="38.6855930" lon="1.4948130">
        <ele>12.1</ele>
        <time>2020-02-22T14:14:13Z</time>
      </trkpt>
      <trkpt lat="38.6855930" lon="1.4948130">
        <ele>13.1</ele>
        <time>2020-02-22T14:14:14Z</time>
      </trkpt>
      <trkpt lat="38.6857000" lon="1.4946380">
        <ele>13.1</ele>
        <time>2020-02-22T14:14:15Z</time>
      </trkpt>
      <trkpt lat="38.6857000" lon="1.4946380">
        <ele>13.1</ele>
        <time>2020-02-22T14:14:16Z</time>
      </trkpt>
      <trkpt lat="38.6858050" lon="1.4944620">
        <ele>13.1</ele>
        <time>2020-02-22T14:14:17Z</time>
      </trkpt>
      <trkpt lat="38.6858050" lon="1.4944620">
        <ele>13.1</ele>
        <time>2020-02-22T14:14:18Z</time>
      </trkpt>
      <trkpt lat="38.6859120" lon="1.4942880">
        <ele>13.1</ele>
        <time>2020-02-22T14:14:19Z</time>
      </trkpt>
      <trkpt lat="38.6859120" lon="1.4942880">
        <ele>13.1</ele>
        <time>2020-02-22T14:14:20Z</time>
      </trkpt>
      <trkpt lat="38.6860220" lon="1.4941170">
        <ele>13.1</ele>
        <time>2020-02-22T14:14:21Z</time>
      </trkpt>
      <trkpt lat="38.6860220" lon="1.4941170">
        <ele>13.1</ele>
        <time>2020-02-22T14:14:22Z</time>
      </trkpt>
      <trkpt lat="38.6861370" lon="1.4939470">
        <ele>13.1</ele>
        <time>2020-02-22T14:14:23Z</time>
      </trkpt>
      <trkpt lat="38.6861370" lon="1.4939470">
        <ele>13.1</ele>
        <time>2020-02-22T14:14:24Z</time>
      </trkpt>
      <trkpt lat="38.6862480" lon="1.4937730">
        <ele>13.1</ele>
        <time>2020-02-22T14:14:25Z</time>
      </trkpt>
      <trkpt lat="38.6862480" lon="1.4937730">
        <ele>13.1</ele>
        <time>2020-02-22T14:14:26Z</time>
      </trkpt>
      <trkpt lat="38.6863580" lon="1.4935980">
        <ele>12.1</ele>
        <time>2020-02-22T14:14:27Z</time>
      </trkpt>
      <trkpt lat="38.6863580" lon="1.4935980">
        <ele>12.1</ele>
        <time>2020-02-22T14:14:28Z</time>
      </trkpt>
      <trkpt lat="38.6864630" lon="1.4934150">
        <ele>12.1</ele>
        <time>2020-02-22T14:14:29Z</time>
      </trkpt>
      <trkpt lat="38.6864630" lon="1.4934150">
        <ele>12.1</ele>
        <time>2020-02-22T14:14:30Z</time>
      </trkpt>
      <trkpt lat="38.6865750" lon="1.4932280">
        <ele>12.1</ele>
        <time>2020-02-22T14:14:31Z</time>
      </trkpt>
      <trkpt lat="38.6866330" lon="1.4931330">
        <ele>12.1</ele>
        <time>2020-02-22T14:14:32Z</time>
      </trkpt>
      <trkpt lat="38.6866330" lon="1.4931330">
        <ele>12.1</ele>
        <time>2020-02-22T14:14:33Z</time>
      </trkpt>
      <trkpt lat="38.6867530" lon="1.4929420">
        <ele>12.1</ele>
        <time>2020-02-22T14:14:34Z</time>
      </trkpt>
      <trkpt lat="38.6868130" lon="1.4928500">
        <ele>12.1</ele>
        <time>2020-02-22T14:14:35Z</time>
      </trkpt>
      <trkpt lat="38.6868130" lon="1.4928500">
        <ele>12.1</ele>
        <time>2020-02-22T14:14:36Z</time>
      </trkpt>
      <trkpt lat="38.6869230" lon="1.4926620">
        <ele>12.1</ele>
        <time>2020-02-22T14:14:37Z</time>
      </trkpt>
      <trkpt lat="38.6869230" lon="1.4926620">
        <ele>12.1</ele>
        <time>2020-02-22T14:14:38Z</time>
      </trkpt>
      <trkpt lat="38.6870370" lon="1.4924720">
        <ele>12.1</ele>
        <time>2020-02-22T14:14:39Z</time>
      </trkpt>
      <trkpt lat="38.6870370" lon="1.4924720">
        <ele>12.1</ele>
        <time>2020-02-22T14:14:40Z</time>
      </trkpt>
      <trkpt lat="38.6871550" lon="1.4922830">
        <ele>12.1</ele>
        <time>2020-02-22T14:14:41Z</time>
      </trkpt>
      <trkpt lat="38.6872130" lon="1.4921880">
        <ele>12.1</ele>
        <time>2020-02-22T14:14:42Z</time>
      </trkpt>
      <trkpt lat="38.6872130" lon="1.4921880">
        <ele>12.1</ele>
        <time>2020-02-22T14:14:43Z</time>
      </trkpt>
      <trkpt lat="38.6873270" lon="1.4919980">
        <ele>12.1</ele>
        <time>2020-02-22T14:14:44Z</time>
      </trkpt>
      <trkpt lat="38.6873850" lon="1.4919030">
        <ele>12.1</ele>
        <time>2020-02-22T14:14:45Z</time>
      </trkpt>
      <trkpt lat="38.6873850" lon="1.4919030">
        <ele>12.1</ele>
        <time>2020-02-22T14:14:46Z</time>
      </trkpt>
      <trkpt lat="38.6875100" lon="1.4917130">
        <ele>12.1</ele>
        <time>2020-02-22T14:14:47Z</time>
      </trkpt>
      <trkpt lat="38.6875730" lon="1.4916170">
        <ele>12.1</ele>
        <time>2020-02-22T14:14:48Z</time>
      </trkpt>
      <trkpt lat="38.6875730" lon="1.4916170">
        <ele>12.1</ele>
        <time>2020-02-22T14:14:49Z</time>
      </trkpt>
      <trkpt lat="38.6876980" lon="1.4914170">
        <ele>12.1</ele>
        <time>2020-02-22T14:14:50Z</time>
      </trkpt>
      <trkpt lat="38.6876980" lon="1.4914170">
        <ele>12.1</ele>
        <time>2020-02-22T14:14:51Z</time>
      </trkpt>
      <trkpt lat="38.6878250" lon="1.4912100">
        <ele>12.1</ele>
        <time>2020-02-22T14:14:52Z</time>
      </trkpt>
      <trkpt lat="38.6878250" lon="1.4912100">
        <ele>12.1</ele>
        <time>2020-02-22T14:14:53Z</time>
      </trkpt>
      <trkpt lat="38.6879530" lon="1.4910070">
        <ele>12.1</ele>
        <time>2020-02-22T14:14:54Z</time>
      </trkpt>
      <trkpt lat="38.6880170" lon="1.4909070">
        <ele>12.1</ele>
        <time>2020-02-22T14:14:55Z</time>
      </trkpt>
      <trkpt lat="38.6880170" lon="1.4909070">
        <ele>12.1</ele>
        <time>2020-02-22T14:14:56Z</time>
      </trkpt>
      <trkpt lat="38.6881450" lon="1.4907000">
        <ele>12.1</ele>
        <time>2020-02-22T14:14:57Z</time>
      </trkpt>
      <trkpt lat="38.6881450" lon="1.4907000">
        <ele>12.1</ele>
        <time>2020-02-22T14:14:58Z</time>
      </trkpt>
      <trkpt lat="38.6882750" lon="1.4904920">
        <ele>12.1</ele>
        <time>2020-02-22T14:14:59Z</time>
      </trkpt>
      <trkpt lat="38.6883400" lon="1.4903870">
        <ele>12.1</ele>
        <time>2020-02-22T14:15:00Z</time>
      </trkpt>
      <trkpt lat="38.6884050" lon="1.4902830">
        <ele>12.1</ele>
        <time>2020-02-22T14:15:01Z</time>
      </trkpt>
      <trkpt lat="38.6884050" lon="1.4902830">
        <ele>12.1</ele>
        <time>2020-02-22T14:15:02Z</time>
      </trkpt>
      <trkpt lat="38.6885280" lon="1.4900770">
        <ele>12.1</ele>
        <time>2020-02-22T14:15:03Z</time>
      </trkpt>
      <trkpt lat="38.6885280" lon="1.4900770">
        <ele>12.1</ele>
        <time>2020-02-22T14:15:04Z</time>
      </trkpt>
      <trkpt lat="38.6886520" lon="1.4898750">
        <ele>12.1</ele>
        <time>2020-02-22T14:15:05Z</time>
      </trkpt>
      <trkpt lat="38.6887170" lon="1.4897750">
        <ele>12.1</ele>
        <time>2020-02-22T14:15:06Z</time>
      </trkpt>
      <trkpt lat="38.6887170" lon="1.4897750">
        <ele>12.1</ele>
        <time>2020-02-22T14:15:07Z</time>
      </trkpt>
      <trkpt lat="38.6888420" lon="1.4895700">
        <ele>12.1</ele>
        <time>2020-02-22T14:15:08Z</time>
      </trkpt>
      <trkpt lat="38.6888420" lon="1.4895700">
        <ele>12.1</ele>
        <time>2020-02-22T14:15:09Z</time>
      </trkpt>
      <trkpt lat="38.6889680" lon="1.4893670">
        <ele>12.1</ele>
        <time>2020-02-22T14:15:10Z</time>
      </trkpt>
      <trkpt lat="38.6890330" lon="1.4892650">
        <ele>12.1</ele>
        <time>2020-02-22T14:15:11Z</time>
      </trkpt>
      <trkpt lat="38.6890330" lon="1.4892650">
        <ele>12.1</ele>
        <time>2020-02-22T14:15:12Z</time>
      </trkpt>
      <trkpt lat="38.6891620" lon="1.4890580">
        <ele>12.1</ele>
        <time>2020-02-22T14:15:13Z</time>
      </trkpt>
      <trkpt lat="38.6891620" lon="1.4890580">
        <ele>12.1</ele>
        <time>2020-02-22T14:15:14Z</time>
      </trkpt>
      <trkpt lat="38.6892850" lon="1.4888550">
        <ele>12.1</ele>
        <time>2020-02-22T14:15:15Z</time>
      </trkpt>
      <trkpt lat="38.6892850" lon="1.4888550">
        <ele>12.1</ele>
        <time>2020-02-22T14:15:16Z</time>
      </trkpt>
      <trkpt lat="38.6894100" lon="1.4886500">
        <ele>12.1</ele>
        <time>2020-02-22T14:15:17Z</time>
      </trkpt>
      <trkpt lat="38.6894100" lon="1.4886500">
        <ele>12.1</ele>
        <time>2020-02-22T14:15:18Z</time>
      </trkpt>
      <trkpt lat="38.6895380" lon="1.4884470">
        <ele>12.1</ele>
        <time>2020-02-22T14:15:19Z</time>
      </trkpt>
      <trkpt lat="38.6895380" lon="1.4884470">
        <ele>12.1</ele>
        <time>2020-02-22T14:15:20Z</time>
      </trkpt>
      <trkpt lat="38.6896650" lon="1.4882420">
        <ele>12.1</ele>
        <time>2020-02-22T14:15:21Z</time>
      </trkpt>
      <trkpt lat="38.6896650" lon="1.4882420">
        <ele>12.1</ele>
        <time>2020-02-22T14:15:22Z</time>
      </trkpt>
      <trkpt lat="38.6897880" lon="1.4880350">
        <ele>12.1</ele>
        <time>2020-02-22T14:15:23Z</time>
      </trkpt>
      <trkpt lat="38.6898520" lon="1.4879350">
        <ele>12.1</ele>
        <time>2020-02-22T14:15:24Z</time>
      </trkpt>
      <trkpt lat="38.6898520" lon="1.4879350">
        <ele>12.1</ele>
        <time>2020-02-22T14:15:25Z</time>
      </trkpt>
      <trkpt lat="38.6899750" lon="1.4877350">
        <ele>12.1</ele>
        <time>2020-02-22T14:15:26Z</time>
      </trkpt>
      <trkpt lat="38.6900320" lon="1.4876350">
        <ele>12.1</ele>
        <time>2020-02-22T14:15:27Z</time>
      </trkpt>
      <trkpt lat="38.6900320" lon="1.4876350">
        <ele>12.1</ele>
        <time>2020-02-22T14:15:28Z</time>
      </trkpt>
      <trkpt lat="38.6901470" lon="1.4874330">
        <ele>12.1</ele>
        <time>2020-02-22T14:15:29Z</time>
      </trkpt>
      <trkpt lat="38.6901980" lon="1.4873300">
        <ele>12.1</ele>
        <time>2020-02-22T14:15:30Z</time>
      </trkpt>
      <trkpt lat="38.6902500" lon="1.4872230">
        <ele>12.1</ele>
        <time>2020-02-22T14:15:31Z</time>
      </trkpt>
      <trkpt lat="38.6902500" lon="1.4872230">
        <ele>12.1</ele>
        <time>2020-02-22T14:15:32Z</time>
      </trkpt>
      <trkpt lat="38.6903500" lon="1.4870130">
        <ele>12.1</ele>
        <time>2020-02-22T14:15:33Z</time>
      </trkpt>
      <trkpt lat="38.6903500" lon="1.4870130">
        <ele>12.1</ele>
        <time>2020-02-22T14:15:34Z</time>
      </trkpt>
      <trkpt lat="38.6904480" lon="1.4867970">
        <ele>12.1</ele>
        <time>2020-02-22T14:15:35Z</time>
      </trkpt>
      <trkpt lat="38.6904480" lon="1.4867970">
        <ele>12.1</ele>
        <time>2020-02-22T14:15:36Z</time>
      </trkpt>
      <trkpt lat="38.6905420" lon="1.4865750">
        <ele>12.1</ele>
        <time>2020-02-22T14:15:37Z</time>
      </trkpt>
      <trkpt lat="38.6905420" lon="1.4865750">
        <ele>12.1</ele>
        <time>2020-02-22T14:15:38Z</time>
      </trkpt>
      <trkpt lat="38.6906380" lon="1.4863500">
        <ele>12.1</ele>
        <time>2020-02-22T14:15:39Z</time>
      </trkpt>
      <trkpt lat="38.6906380" lon="1.4863500">
        <ele>12.1</ele>
        <time>2020-02-22T14:15:40Z</time>
      </trkpt>
      <trkpt lat="38.6907380" lon="1.4861250">
        <ele>11.1</ele>
        <time>2020-02-22T14:15:41Z</time>
      </trkpt>
      <trkpt lat="38.6907380" lon="1.4861250">
        <ele>11.1</ele>
        <time>2020-02-22T14:15:42Z</time>
      </trkpt>
      <trkpt lat="38.6908370" lon="1.4858950">
        <ele>11.1</ele>
        <time>2020-02-22T14:15:43Z</time>
      </trkpt>
      <trkpt lat="38.6908370" lon="1.4858950">
        <ele>11.1</ele>
        <time>2020-02-22T14:15:44Z</time>
      </trkpt>
      <trkpt lat="38.6909400" lon="1.4856650">
        <ele>11.1</ele>
        <time>2020-02-22T14:15:45Z</time>
      </trkpt>
      <trkpt lat="38.6909900" lon="1.4855480">
        <ele>11.1</ele>
        <time>2020-02-22T14:15:46Z</time>
      </trkpt>
      <trkpt lat="38.6909900" lon="1.4855480">
        <ele>11.1</ele>
        <time>2020-02-22T14:15:47Z</time>
      </trkpt>
      <trkpt lat="38.6910900" lon="1.4853150">
        <ele>11.1</ele>
        <time>2020-02-22T14:15:48Z</time>
      </trkpt>
      <trkpt lat="38.6911400" lon="1.4851950">
        <ele>11.1</ele>
        <time>2020-02-22T14:15:49Z</time>
      </trkpt>
      <trkpt lat="38.6911400" lon="1.4851950">
        <ele>11.1</ele>
        <time>2020-02-22T14:15:50Z</time>
      </trkpt>
      <trkpt lat="38.6912400" lon="1.4849630">
        <ele>11.1</ele>
        <time>2020-02-22T14:15:51Z</time>
      </trkpt>
      <trkpt lat="38.6912400" lon="1.4849630">
        <ele>11.1</ele>
        <time>2020-02-22T14:15:52Z</time>
      </trkpt>
      <trkpt lat="38.6913400" lon="1.4847380">
        <ele>11.1</ele>
        <time>2020-02-22T14:15:53Z</time>
      </trkpt>
      <trkpt lat="38.6913400" lon="1.4847380">
        <ele>11.1</ele>
        <time>2020-02-22T14:15:54Z</time>
      </trkpt>
      <trkpt lat="38.6914350" lon="1.4845150">
        <ele>11.1</ele>
        <time>2020-02-22T14:15:55Z</time>
      </trkpt>
      <trkpt lat="38.6914350" lon="1.4845150">
        <ele>11.1</ele>
        <time>2020-02-22T14:15:56Z</time>
      </trkpt>
      <trkpt lat="38.6915300" lon="1.4842980">
        <ele>11.1</ele>
        <time>2020-02-22T14:15:57Z</time>
      </trkpt>
      <trkpt lat="38.6915300" lon="1.4842980">
        <ele>11.1</ele>
        <time>2020-02-22T14:15:58Z</time>
      </trkpt>
      <trkpt lat="38.6916200" lon="1.4840870">
        <ele>11.1</ele>
        <time>2020-02-22T14:15:59Z</time>
      </trkpt>
      <trkpt lat="38.6916200" lon="1.4840870">
        <ele>11.1</ele>
        <time>2020-02-22T14:16:00Z</time>
      </trkpt>
      <trkpt lat="38.6917130" lon="1.4838770">
        <ele>11.1</ele>
        <time>2020-02-22T14:16:01Z</time>
      </trkpt>
      <trkpt lat="38.6917130" lon="1.4838770">
        <ele>12.1</ele>
        <time>2020-02-22T14:16:02Z</time>
      </trkpt>
      <trkpt lat="38.6918030" lon="1.4836680">
        <ele>12.1</ele>
        <time>2020-02-22T14:16:03Z</time>
      </trkpt>
      <trkpt lat="38.6918470" lon="1.4835670">
        <ele>12.1</ele>
        <time>2020-02-22T14:16:04Z</time>
      </trkpt>
      <trkpt lat="38.6918470" lon="1.4835670">
        <ele>12.1</ele>
        <time>2020-02-22T14:16:05Z</time>
      </trkpt>
      <trkpt lat="38.6919380" lon="1.4833580">
        <ele>12.1</ele>
        <time>2020-02-22T14:16:06Z</time>
      </trkpt>
      <trkpt lat="38.6919870" lon="1.4832530">
        <ele>12.1</ele>
        <time>2020-02-22T14:16:07Z</time>
      </trkpt>
      <trkpt lat="38.6919870" lon="1.4832530">
        <ele>13.1</ele>
        <time>2020-02-22T14:16:08Z</time>
      </trkpt>
      <trkpt lat="38.6920820" lon="1.4830400">
        <ele>13.1</ele>
        <time>2020-02-22T14:16:09Z</time>
      </trkpt>
      <trkpt lat="38.6920820" lon="1.4830400">
        <ele>13.1</ele>
        <time>2020-02-22T14:16:10Z</time>
      </trkpt>
      <trkpt lat="38.6921770" lon="1.4828180">
        <ele>13.1</ele>
        <time>2020-02-22T14:16:11Z</time>
      </trkpt>
      <trkpt lat="38.6922250" lon="1.4827080">
        <ele>13.1</ele>
        <time>2020-02-22T14:16:12Z</time>
      </trkpt>
      <trkpt lat="38.6922730" lon="1.4825980">
        <ele>13.1</ele>
        <time>2020-02-22T14:16:13Z</time>
      </trkpt>
      <trkpt lat="38.6922730" lon="1.4825980">
        <ele>13.1</ele>
        <time>2020-02-22T14:16:14Z</time>
      </trkpt>
      <trkpt lat="38.6923680" lon="1.4823820">
        <ele>13.1</ele>
        <time>2020-02-22T14:16:15Z</time>
      </trkpt>
      <trkpt lat="38.6923680" lon="1.4823820">
        <ele>13.1</ele>
        <time>2020-02-22T14:16:16Z</time>
      </trkpt>
      <trkpt lat="38.6924620" lon="1.4821680">
        <ele>13.1</ele>
        <time>2020-02-22T14:16:17Z</time>
      </trkpt>
      <trkpt lat="38.6924620" lon="1.4821680">
        <ele>13.1</ele>
        <time>2020-02-22T14:16:18Z</time>
      </trkpt>
      <trkpt lat="38.6925520" lon="1.4819570">
        <ele>13.1</ele>
        <time>2020-02-22T14:16:19Z</time>
      </trkpt>
      <trkpt lat="38.6925520" lon="1.4819570">
        <ele>13.1</ele>
        <time>2020-02-22T14:16:20Z</time>
      </trkpt>
      <trkpt lat="38.6926480" lon="1.4817420">
        <ele>13.1</ele>
        <time>2020-02-22T14:16:21Z</time>
      </trkpt>
      <trkpt lat="38.6926480" lon="1.4817420">
        <ele>13.1</ele>
        <time>2020-02-22T14:16:22Z</time>
      </trkpt>
      <trkpt lat="38.6927430" lon="1.4815280">
        <ele>13.1</ele>
        <time>2020-02-22T14:16:23Z</time>
      </trkpt>
      <trkpt lat="38.6927430" lon="1.4815280">
        <ele>13.1</ele>
        <time>2020-02-22T14:16:24Z</time>
      </trkpt>
      <trkpt lat="38.6928400" lon="1.4813150">
        <ele>13.1</ele>
        <time>2020-02-22T14:16:25Z</time>
      </trkpt>
      <trkpt lat="38.6928400" lon="1.4813150">
        <ele>13.1</ele>
        <time>2020-02-22T14:16:26Z</time>
      </trkpt>
      <trkpt lat="38.6929370" lon="1.4810970">
        <ele>13.1</ele>
        <time>2020-02-22T14:16:27Z</time>
      </trkpt>
      <trkpt lat="38.6929370" lon="1.4810970">
        <ele>13.1</ele>
        <time>2020-02-22T14:16:28Z</time>
      </trkpt>
      <trkpt lat="38.6930350" lon="1.4808850">
        <ele>13.1</ele>
        <time>2020-02-22T14:16:29Z</time>
      </trkpt>
      <trkpt lat="38.6930820" lon="1.4807780">
        <ele>13.1</ele>
        <time>2020-02-22T14:16:30Z</time>
      </trkpt>
      <trkpt lat="38.6931280" lon="1.4806680">
        <ele>13.1</ele>
        <time>2020-02-22T14:16:31Z</time>
      </trkpt>
      <trkpt lat="38.6931280" lon="1.4806680">
        <ele>13.1</ele>
        <time>2020-02-22T14:16:32Z</time>
      </trkpt>
      <trkpt lat="38.6932250" lon="1.4804470">
        <ele>13.1</ele>
        <time>2020-02-22T14:16:33Z</time>
      </trkpt>
      <trkpt lat="38.6932250" lon="1.4804470">
        <ele>13.1</ele>
        <time>2020-02-22T14:16:34Z</time>
      </trkpt>
      <trkpt lat="38.6933230" lon="1.4802320">
        <ele>13.1</ele>
        <time>2020-02-22T14:16:35Z</time>
      </trkpt>
      <trkpt lat="38.6933230" lon="1.4802320">
        <ele>13.1</ele>
        <time>2020-02-22T14:16:36Z</time>
      </trkpt>
      <trkpt lat="38.6934180" lon="1.4800170">
        <ele>13.1</ele>
        <time>2020-02-22T14:16:37Z</time>
      </trkpt>
      <trkpt lat="38.6934650" lon="1.4799100">
        <ele>14.1</ele>
        <time>2020-02-22T14:16:38Z</time>
      </trkpt>
      <trkpt lat="38.6934650" lon="1.4799100">
        <ele>14.1</ele>
        <time>2020-02-22T14:16:39Z</time>
      </trkpt>
      <trkpt lat="38.6935570" lon="1.4796950">
        <ele>14.1</ele>
        <time>2020-02-22T14:16:40Z</time>
      </trkpt>
      <trkpt lat="38.6935570" lon="1.4796950">
        <ele>14.1</ele>
        <time>2020-02-22T14:16:41Z</time>
      </trkpt>
      <trkpt lat="38.6936470" lon="1.4794870">
        <ele>14.1</ele>
        <time>2020-02-22T14:16:42Z</time>
      </trkpt>
      <trkpt lat="38.6936470" lon="1.4794870">
        <ele>14.1</ele>
        <time>2020-02-22T14:16:43Z</time>
      </trkpt>
      <trkpt lat="38.6937350" lon="1.4792820">
        <ele>14.1</ele>
        <time>2020-02-22T14:16:44Z</time>
      </trkpt>
      <trkpt lat="38.6937800" lon="1.4791780">
        <ele>14.1</ele>
        <time>2020-02-22T14:16:45Z</time>
      </trkpt>
      <trkpt lat="38.6937800" lon="1.4791780">
        <ele>14.1</ele>
        <time>2020-02-22T14:16:46Z</time>
      </trkpt>
      <trkpt lat="38.6938750" lon="1.4789720">
        <ele>14.1</ele>
        <time>2020-02-22T14:16:47Z</time>
      </trkpt>
      <trkpt lat="38.6939200" lon="1.4788670">
        <ele>14.1</ele>
        <time>2020-02-22T14:16:48Z</time>
      </trkpt>
      <trkpt lat="38.6939670" lon="1.4787620">
        <ele>14.1</ele>
        <time>2020-02-22T14:16:49Z</time>
      </trkpt>
      <trkpt lat="38.6939670" lon="1.4787620">
        <ele>14.1</ele>
        <time>2020-02-22T14:16:50Z</time>
      </trkpt>
      <trkpt lat="38.6940570" lon="1.4785570">
        <ele>14.1</ele>
        <time>2020-02-22T14:16:51Z</time>
      </trkpt>
      <trkpt lat="38.6940570" lon="1.4785570">
        <ele>14.1</ele>
        <time>2020-02-22T14:16:52Z</time>
      </trkpt>
      <trkpt lat="38.6941470" lon="1.4783550">
        <ele>14.1</ele>
        <time>2020-02-22T14:16:53Z</time>
      </trkpt>
      <trkpt lat="38.6941470" lon="1.4783550">
        <ele>14.1</ele>
        <time>2020-02-22T14:16:54Z</time>
      </trkpt>
      <trkpt lat="38.6942370" lon="1.4781530">
        <ele>15.1</ele>
        <time>2020-02-22T14:16:55Z</time>
      </trkpt>
      <trkpt lat="38.6942370" lon="1.4781530">
        <ele>15.1</ele>
        <time>2020-02-22T14:16:56Z</time>
      </trkpt>
      <trkpt lat="38.6943230" lon="1.4779580">
        <ele>15.1</ele>
        <time>2020-02-22T14:16:57Z</time>
      </trkpt>
      <trkpt lat="38.6943230" lon="1.4779580">
        <ele>15.1</ele>
        <time>2020-02-22T14:16:58Z</time>
      </trkpt>
      <trkpt lat="38.6944150" lon="1.4777600">
        <ele>16.1</ele>
        <time>2020-02-22T14:16:59Z</time>
      </trkpt>
      <trkpt lat="38.6944150" lon="1.4777600">
        <ele>16.1</ele>
        <time>2020-02-22T14:17:00Z</time>
      </trkpt>
      <trkpt lat="38.6945050" lon="1.4775620">
        <ele>16.1</ele>
        <time>2020-02-22T14:17:01Z</time>
      </trkpt>
      <trkpt lat="38.6945050" lon="1.4775620">
        <ele>16.1</ele>
        <time>2020-02-22T14:17:02Z</time>
      </trkpt>
      <trkpt lat="38.6945920" lon="1.4773680">
        <ele>16.1</ele>
        <time>2020-02-22T14:17:03Z</time>
      </trkpt>
      <trkpt lat="38.6945920" lon="1.4773680">
        <ele>16.1</ele>
        <time>2020-02-22T14:17:04Z</time>
      </trkpt>
      <trkpt lat="38.6946800" lon="1.4771750">
        <ele>16.1</ele>
        <time>2020-02-22T14:17:05Z</time>
      </trkpt>
      <trkpt lat="38.6946800" lon="1.4771750">
        <ele>16.1</ele>
        <time>2020-02-22T14:17:06Z</time>
      </trkpt>
      <trkpt lat="38.6947650" lon="1.4769770">
        <ele>16.1</ele>
        <time>2020-02-22T14:17:07Z</time>
      </trkpt>
      <trkpt lat="38.6947650" lon="1.4769770">
        <ele>16.1</ele>
        <time>2020-02-22T14:17:08Z</time>
      </trkpt>
      <trkpt lat="38.6948500" lon="1.4767780">
        <ele>16.1</ele>
        <time>2020-02-22T14:17:09Z</time>
      </trkpt>
      <trkpt lat="38.6948500" lon="1.4767780">
        <ele>16.1</ele>
        <time>2020-02-22T14:17:10Z</time>
      </trkpt>
      <trkpt lat="38.6949350" lon="1.4765870">
        <ele>17.1</ele>
        <time>2020-02-22T14:17:11Z</time>
      </trkpt>
      <trkpt lat="38.6949350" lon="1.4765870">
        <ele>17.1</ele>
        <time>2020-02-22T14:17:12Z</time>
      </trkpt>
      <trkpt lat="38.6950200" lon="1.4763980">
        <ele>17.1</ele>
        <time>2020-02-22T14:17:13Z</time>
      </trkpt>
      <trkpt lat="38.6950200" lon="1.4763980">
        <ele>17.1</ele>
        <time>2020-02-22T14:17:14Z</time>
      </trkpt>
      <trkpt lat="38.6951030" lon="1.4762050">
        <ele>17.1</ele>
        <time>2020-02-22T14:17:15Z</time>
      </trkpt>
      <trkpt lat="38.6951030" lon="1.4762050">
        <ele>19.1</ele>
        <time>2020-02-22T14:17:16Z</time>
      </trkpt>
      <trkpt lat="38.6951900" lon="1.4760120">
        <ele>19.1</ele>
        <time>2020-02-22T14:17:17Z</time>
      </trkpt>
      <trkpt lat="38.6951900" lon="1.4760120">
        <ele>19.1</ele>
        <time>2020-02-22T14:17:18Z</time>
      </trkpt>
      <trkpt lat="38.6952770" lon="1.4758120">
        <ele>19.1</ele>
        <time>2020-02-22T14:17:19Z</time>
      </trkpt>
      <trkpt lat="38.6952770" lon="1.4758120">
        <ele>19.1</ele>
        <time>2020-02-22T14:17:20Z</time>
      </trkpt>
      <trkpt lat="38.6953620" lon="1.4756130">
        <ele>19.1</ele>
        <time>2020-02-22T14:17:21Z</time>
      </trkpt>
      <trkpt lat="38.6953620" lon="1.4756130">
        <ele>19.1</ele>
        <time>2020-02-22T14:17:22Z</time>
      </trkpt>
      <trkpt lat="38.6954470" lon="1.4754130">
        <ele>19.1</ele>
        <time>2020-02-22T14:17:23Z</time>
      </trkpt>
      <trkpt lat="38.6954470" lon="1.4754130">
        <ele>19.1</ele>
        <time>2020-02-22T14:17:24Z</time>
      </trkpt>
      <trkpt lat="38.6955370" lon="1.4752120">
        <ele>19.1</ele>
        <time>2020-02-22T14:17:25Z</time>
      </trkpt>
      <trkpt lat="38.6955370" lon="1.4752120">
        <ele>19.1</ele>
        <time>2020-02-22T14:17:26Z</time>
      </trkpt>
      <trkpt lat="38.6956250" lon="1.4750120">
        <ele>19.1</ele>
        <time>2020-02-22T14:17:27Z</time>
      </trkpt>
      <trkpt lat="38.6956680" lon="1.4749100">
        <ele>19.1</ele>
        <time>2020-02-22T14:17:28Z</time>
      </trkpt>
      <trkpt lat="38.6956680" lon="1.4749100">
        <ele>19.1</ele>
        <time>2020-02-22T14:17:29Z</time>
      </trkpt>
      <trkpt lat="38.6957620" lon="1.4747080">
        <ele>19.1</ele>
        <time>2020-02-22T14:17:30Z</time>
      </trkpt>
      <trkpt lat="38.6958070" lon="1.4746050">
        <ele>19.1</ele>
        <time>2020-02-22T14:17:31Z</time>
      </trkpt>
      <trkpt lat="38.6958070" lon="1.4746050">
        <ele>19.1</ele>
        <time>2020-02-22T14:17:32Z</time>
      </trkpt>
      <trkpt lat="38.6958970" lon="1.4744000">
        <ele>19.1</ele>
        <time>2020-02-22T14:17:33Z</time>
      </trkpt>
      <trkpt lat="38.6958970" lon="1.4744000">
        <ele>19.1</ele>
        <time>2020-02-22T14:17:34Z</time>
      </trkpt>
      <trkpt lat="38.6959820" lon="1.4741950">
        <ele>19.1</ele>
        <time>2020-02-22T14:17:35Z</time>
      </trkpt>
      <trkpt lat="38.6959820" lon="1.4741950">
        <ele>19.1</ele>
        <time>2020-02-22T14:17:36Z</time>
      </trkpt>
      <trkpt lat="38.6960750" lon="1.4739770">
        <ele>19.1</ele>
        <time>2020-02-22T14:17:37Z</time>
      </trkpt>
      <trkpt lat="38.6960750" lon="1.4739770">
        <ele>19.1</ele>
        <time>2020-02-22T14:17:38Z</time>
      </trkpt>
      <trkpt lat="38.6961720" lon="1.4737580">
        <ele>19.1</ele>
        <time>2020-02-22T14:17:39Z</time>
      </trkpt>
      <trkpt lat="38.6961720" lon="1.4737580">
        <ele>19.1</ele>
        <time>2020-02-22T14:17:40Z</time>
      </trkpt>
      <trkpt lat="38.6962670" lon="1.4735450">
        <ele>19.1</ele>
        <time>2020-02-22T14:17:41Z</time>
      </trkpt>
      <trkpt lat="38.6963120" lon="1.4734400">
        <ele>19.1</ele>
        <time>2020-02-22T14:17:42Z</time>
      </trkpt>
      <trkpt lat="38.6963580" lon="1.4733370">
        <ele>19.1</ele>
        <time>2020-02-22T14:17:43Z</time>
      </trkpt>
      <trkpt lat="38.6963580" lon="1.4733370">
        <ele>19.1</ele>
        <time>2020-02-22T14:17:44Z</time>
      </trkpt>
      <trkpt lat="38.6964500" lon="1.4731270">
        <ele>19.1</ele>
        <time>2020-02-22T14:17:45Z</time>
      </trkpt>
      <trkpt lat="38.6964500" lon="1.4731270">
        <ele>19.1</ele>
        <time>2020-02-22T14:17:46Z</time>
      </trkpt>
      <trkpt lat="38.6965450" lon="1.4729150">
        <ele>19.1</ele>
        <time>2020-02-22T14:17:47Z</time>
      </trkpt>
      <trkpt lat="38.6965920" lon="1.4728070">
        <ele>19.1</ele>
        <time>2020-02-22T14:17:48Z</time>
      </trkpt>
      <trkpt lat="38.6966400" lon="1.4726970">
        <ele>20.1</ele>
        <time>2020-02-22T14:17:49Z</time>
      </trkpt>
      <trkpt lat="38.6966400" lon="1.4726970">
        <ele>20.1</ele>
        <time>2020-02-22T14:17:50Z</time>
      </trkpt>
      <trkpt lat="38.6967400" lon="1.4724720">
        <ele>20.1</ele>
        <time>2020-02-22T14:17:51Z</time>
      </trkpt>
      <trkpt lat="38.6967920" lon="1.4723570">
        <ele>20.1</ele>
        <time>2020-02-22T14:17:52Z</time>
      </trkpt>
      <trkpt lat="38.6967920" lon="1.4723570">
        <ele>20.1</ele>
        <time>2020-02-22T14:17:53Z</time>
      </trkpt>
      <trkpt lat="38.6968950" lon="1.4721180">
        <ele>20.1</ele>
        <time>2020-02-22T14:17:54Z</time>
      </trkpt>
      <trkpt lat="38.6969450" lon="1.4719980">
        <ele>20.1</ele>
        <time>2020-02-22T14:17:55Z</time>
      </trkpt>
      <trkpt lat="38.6969450" lon="1.4719980">
        <ele>20.1</ele>
        <time>2020-02-22T14:17:56Z</time>
      </trkpt>
      <trkpt lat="38.6970450" lon="1.4717580">
        <ele>20.1</ele>
        <time>2020-02-22T14:17:57Z</time>
      </trkpt>
      <trkpt lat="38.6970450" lon="1.4717580">
        <ele>20.1</ele>
        <time>2020-02-22T14:17:58Z</time>
      </trkpt>
      <trkpt lat="38.6971470" lon="1.4715220">
        <ele>20.1</ele>
        <time>2020-02-22T14:17:59Z</time>
      </trkpt>
      <trkpt lat="38.6971470" lon="1.4715220">
        <ele>20.1</ele>
        <time>2020-02-22T14:18:00Z</time>
      </trkpt>
      <trkpt lat="38.6972480" lon="1.4712830">
        <ele>20.1</ele>
        <time>2020-02-22T14:18:01Z</time>
      </trkpt>
      <trkpt lat="38.6972480" lon="1.4712830">
        <ele>20.1</ele>
        <time>2020-02-22T14:18:02Z</time>
      </trkpt>
      <trkpt lat="38.6973520" lon="1.4710450">
        <ele>20.1</ele>
        <time>2020-02-22T14:18:03Z</time>
      </trkpt>
      <trkpt lat="38.6973520" lon="1.4710450">
        <ele>20.1</ele>
        <time>2020-02-22T14:18:04Z</time>
      </trkpt>
      <trkpt lat="38.6974520" lon="1.4708130">
        <ele>20.1</ele>
        <time>2020-02-22T14:18:05Z</time>
      </trkpt>
      <trkpt lat="38.6974520" lon="1.4708130">
        <ele>20.1</ele>
        <time>2020-02-22T14:18:06Z</time>
      </trkpt>
      <trkpt lat="38.6975480" lon="1.4705880">
        <ele>20.1</ele>
        <time>2020-02-22T14:18:07Z</time>
      </trkpt>
      <trkpt lat="38.6975480" lon="1.4705880">
        <ele>22.1</ele>
        <time>2020-02-22T14:18:08Z</time>
      </trkpt>
      <trkpt lat="38.6976450" lon="1.4703720">
        <ele>22.1</ele>
        <time>2020-02-22T14:18:09Z</time>
      </trkpt>
      <trkpt lat="38.6976450" lon="1.4703720">
        <ele>22.1</ele>
        <time>2020-02-22T14:18:10Z</time>
      </trkpt>
      <trkpt lat="38.6977430" lon="1.4701520">
        <ele>23.1</ele>
        <time>2020-02-22T14:18:11Z</time>
      </trkpt>
      <trkpt lat="38.6977430" lon="1.4701520">
        <ele>23.1</ele>
        <time>2020-02-22T14:18:12Z</time>
      </trkpt>
      <trkpt lat="38.6978400" lon="1.4699270">
        <ele>23.1</ele>
        <time>2020-02-22T14:18:13Z</time>
      </trkpt>
      <trkpt lat="38.6978400" lon="1.4699270">
        <ele>23.1</ele>
        <time>2020-02-22T14:18:14Z</time>
      </trkpt>
      <trkpt lat="38.6979350" lon="1.4697070">
        <ele>23.1</ele>
        <time>2020-02-22T14:18:15Z</time>
      </trkpt>
      <trkpt lat="38.6979350" lon="1.4697070">
        <ele>23.1</ele>
        <time>2020-02-22T14:18:16Z</time>
      </trkpt>
      <trkpt lat="38.6980320" lon="1.4694970">
        <ele>24.1</ele>
        <time>2020-02-22T14:18:17Z</time>
      </trkpt>
      <trkpt lat="38.6980320" lon="1.4694970">
        <ele>24.1</ele>
        <time>2020-02-22T14:18:18Z</time>
      </trkpt>
      <trkpt lat="38.6981200" lon="1.4692950">
        <ele>24.1</ele>
        <time>2020-02-22T14:18:19Z</time>
      </trkpt>
      <trkpt lat="38.6981200" lon="1.4692950">
        <ele>24.1</ele>
        <time>2020-02-22T14:18:20Z</time>
      </trkpt>
      <trkpt lat="38.6982050" lon="1.4691000">
        <ele>25.1</ele>
        <time>2020-02-22T14:18:21Z</time>
      </trkpt>
      <trkpt lat="38.6982050" lon="1.4691000">
        <ele>25.1</ele>
        <time>2020-02-22T14:18:22Z</time>
      </trkpt>
      <trkpt lat="38.6982880" lon="1.4689070">
        <ele>25.1</ele>
        <time>2020-02-22T14:18:23Z</time>
      </trkpt>
      <trkpt lat="38.6983300" lon="1.4688120">
        <ele>25.1</ele>
        <time>2020-02-22T14:18:24Z</time>
      </trkpt>
      <trkpt lat="38.6983300" lon="1.4688120">
        <ele>26.1</ele>
        <time>2020-02-22T14:18:25Z</time>
      </trkpt>
      <trkpt lat="38.6984170" lon="1.4686230">
        <ele>26.1</ele>
        <time>2020-02-22T14:18:26Z</time>
      </trkpt>
      <trkpt lat="38.6984170" lon="1.4686230">
        <ele>26.1</ele>
        <time>2020-02-22T14:18:27Z</time>
      </trkpt>
      <trkpt lat="38.6984970" lon="1.4684370">
        <ele>26.1</ele>
        <time>2020-02-22T14:18:28Z</time>
      </trkpt>
      <trkpt lat="38.6984970" lon="1.4684370">
        <ele>26.1</ele>
        <time>2020-02-22T14:18:29Z</time>
      </trkpt>
      <trkpt lat="38.6985770" lon="1.4682570">
        <ele>26.1</ele>
        <time>2020-02-22T14:18:30Z</time>
      </trkpt>
      <trkpt lat="38.6986180" lon="1.4681650">
        <ele>26.1</ele>
        <time>2020-02-22T14:18:31Z</time>
      </trkpt>
      <trkpt lat="38.6986180" lon="1.4681650">
        <ele>27.1</ele>
        <time>2020-02-22T14:18:32Z</time>
      </trkpt>
      <trkpt lat="38.6987020" lon="1.4679800">
        <ele>27.1</ele>
        <time>2020-02-22T14:18:33Z</time>
      </trkpt>
      <trkpt lat="38.6987450" lon="1.4678870">
        <ele>27.1</ele>
        <time>2020-02-22T14:18:34Z</time>
      </trkpt>
      <trkpt lat="38.6987880" lon="1.4677930">
        <ele>27.1</ele>
        <time>2020-02-22T14:18:35Z</time>
      </trkpt>
      <trkpt lat="38.6987880" lon="1.4677930">
        <ele>28.1</ele>
        <time>2020-02-22T14:18:36Z</time>
      </trkpt>
      <trkpt lat="38.6988730" lon="1.4676030">
        <ele>28.1</ele>
        <time>2020-02-22T14:18:37Z</time>
      </trkpt>
      <trkpt lat="38.6988730" lon="1.4676030">
        <ele>28.1</ele>
        <time>2020-02-22T14:18:38Z</time>
      </trkpt>
      <trkpt lat="38.6989600" lon="1.4674050">
        <ele>28.1</ele>
        <time>2020-02-22T14:18:39Z</time>
      </trkpt>
      <trkpt lat="38.6989600" lon="1.4674050">
        <ele>28.1</ele>
        <time>2020-02-22T14:18:40Z</time>
      </trkpt>
      <trkpt lat="38.6990520" lon="1.4672070">
        <ele>28.1</ele>
        <time>2020-02-22T14:18:41Z</time>
      </trkpt>
      <trkpt lat="38.6990520" lon="1.4672070">
        <ele>29.1</ele>
        <time>2020-02-22T14:18:42Z</time>
      </trkpt>
      <trkpt lat="38.6991380" lon="1.4670070">
        <ele>29.1</ele>
        <time>2020-02-22T14:18:43Z</time>
      </trkpt>
      <trkpt lat="38.6991380" lon="1.4670070">
        <ele>29.1</ele>
        <time>2020-02-22T14:18:44Z</time>
      </trkpt>
      <trkpt lat="38.6992220" lon="1.4668170">
        <ele>29.1</ele>
        <time>2020-02-22T14:18:45Z</time>
      </trkpt>
      <trkpt lat="38.6992220" lon="1.4668170">
        <ele>30.1</ele>
        <time>2020-02-22T14:18:46Z</time>
      </trkpt>
      <trkpt lat="38.6993070" lon="1.4666270">
        <ele>30.1</ele>
        <time>2020-02-22T14:18:47Z</time>
      </trkpt>
      <trkpt lat="38.6993500" lon="1.4665320">
        <ele>30.1</ele>
        <time>2020-02-22T14:18:48Z</time>
      </trkpt>
      <trkpt lat="38.6993920" lon="1.4664380">
        <ele>31.1</ele>
        <time>2020-02-22T14:18:49Z</time>
      </trkpt>
      <trkpt lat="38.6993920" lon="1.4664380">
        <ele>31.1</ele>
        <time>2020-02-22T14:18:50Z</time>
      </trkpt>
      <trkpt lat="38.6994820" lon="1.4662470">
        <ele>31.1</ele>
        <time>2020-02-22T14:18:51Z</time>
      </trkpt>
      <trkpt lat="38.6994820" lon="1.4662470">
        <ele>31.1</ele>
        <time>2020-02-22T14:18:52Z</time>
      </trkpt>
      <trkpt lat="38.6995780" lon="1.4660520">
        <ele>31.1</ele>
        <time>2020-02-22T14:18:53Z</time>
      </trkpt>
      <trkpt lat="38.6995780" lon="1.4660520">
        <ele>31.1</ele>
        <time>2020-02-22T14:18:54Z</time>
      </trkpt>
      <trkpt lat="38.6996900" lon="1.4658600">
        <ele>31.1</ele>
        <time>2020-02-22T14:18:55Z</time>
      </trkpt>
      <trkpt lat="38.6996900" lon="1.4658600">
        <ele>31.1</ele>
        <time>2020-02-22T14:18:56Z</time>
      </trkpt>
      <trkpt lat="38.6998180" lon="1.4656800">
        <ele>31.1</ele>
        <time>2020-02-22T14:18:57Z</time>
      </trkpt>
      <trkpt lat="38.6998180" lon="1.4656800">
        <ele>31.1</ele>
        <time>2020-02-22T14:18:58Z</time>
      </trkpt>
      <trkpt lat="38.6999680" lon="1.4655000">
        <ele>31.1</ele>
        <time>2020-02-22T14:18:59Z</time>
      </trkpt>
      <trkpt lat="38.6999680" lon="1.4655000">
        <ele>31.1</ele>
        <time>2020-02-22T14:19:00Z</time>
      </trkpt>
      <trkpt lat="38.7001230" lon="1.4653150">
        <ele>31.1</ele>
        <time>2020-02-22T14:19:01Z</time>
      </trkpt>
      <trkpt lat="38.7001230" lon="1.4653150">
        <ele>31.1</ele>
        <time>2020-02-22T14:19:02Z</time>
      </trkpt>
      <trkpt lat="38.7002800" lon="1.4651200">
        <ele>31.1</ele>
        <time>2020-02-22T14:19:03Z</time>
      </trkpt>
      <trkpt lat="38.7002800" lon="1.4651200">
        <ele>31.1</ele>
        <time>2020-02-22T14:19:04Z</time>
      </trkpt>
      <trkpt lat="38.7004400" lon="1.4649220">
        <ele>30.1</ele>
        <time>2020-02-22T14:19:05Z</time>
      </trkpt>
      <trkpt lat="38.7004400" lon="1.4649220">
        <ele>30.1</ele>
        <time>2020-02-22T14:19:06Z</time>
      </trkpt>
      <trkpt lat="38.7006050" lon="1.4647280">
        <ele>30.1</ele>
        <time>2020-02-22T14:19:07Z</time>
      </trkpt>
      <trkpt lat="38.7006050" lon="1.4647280">
        <ele>30.1</ele>
        <time>2020-02-22T14:19:08Z</time>
      </trkpt>
      <trkpt lat="38.7007700" lon="1.4645300">
        <ele>30.1</ele>
        <time>2020-02-22T14:19:09Z</time>
      </trkpt>
      <trkpt lat="38.7007700" lon="1.4645300">
        <ele>29.1</ele>
        <time>2020-02-22T14:19:10Z</time>
      </trkpt>
      <trkpt lat="38.7009350" lon="1.4643280">
        <ele>29.1</ele>
        <time>2020-02-22T14:19:11Z</time>
      </trkpt>
      <trkpt lat="38.7009350" lon="1.4643280">
        <ele>29.1</ele>
        <time>2020-02-22T14:19:12Z</time>
      </trkpt>
      <trkpt lat="38.7011080" lon="1.4641280">
        <ele>29.1</ele>
        <time>2020-02-22T14:19:13Z</time>
      </trkpt>
      <trkpt lat="38.7011080" lon="1.4641280">
        <ele>29.1</ele>
        <time>2020-02-22T14:19:14Z</time>
      </trkpt>
      <trkpt lat="38.7012830" lon="1.4639280">
        <ele>29.1</ele>
        <time>2020-02-22T14:19:15Z</time>
      </trkpt>
      <trkpt lat="38.7012830" lon="1.4639280">
        <ele>28.1</ele>
        <time>2020-02-22T14:19:16Z</time>
      </trkpt>
      <trkpt lat="38.7014570" lon="1.4637230">
        <ele>28.1</ele>
        <time>2020-02-22T14:19:17Z</time>
      </trkpt>
      <trkpt lat="38.7014570" lon="1.4637230">
        <ele>28.1</ele>
        <time>2020-02-22T14:19:18Z</time>
      </trkpt>
      <trkpt lat="38.7016250" lon="1.4635200">
        <ele>28.1</ele>
        <time>2020-02-22T14:19:19Z</time>
      </trkpt>
      <trkpt lat="38.7017080" lon="1.4634180">
        <ele>27.1</ele>
        <time>2020-02-22T14:19:20Z</time>
      </trkpt>
      <trkpt lat="38.7017080" lon="1.4634180">
        <ele>27.1</ele>
        <time>2020-02-22T14:19:21Z</time>
      </trkpt>
      <trkpt lat="38.7018700" lon="1.4632150">
        <ele>27.1</ele>
        <time>2020-02-22T14:19:22Z</time>
      </trkpt>
      <trkpt lat="38.7018700" lon="1.4632150">
        <ele>27.1</ele>
        <time>2020-02-22T14:19:23Z</time>
      </trkpt>
      <trkpt lat="38.7020330" lon="1.4630130">
        <ele>26.1</ele>
        <time>2020-02-22T14:19:24Z</time>
      </trkpt>
      <trkpt lat="38.7021150" lon="1.4629130">
        <ele>26.1</ele>
        <time>2020-02-22T14:19:25Z</time>
      </trkpt>
      <trkpt lat="38.7021150" lon="1.4629130">
        <ele>26.1</ele>
        <time>2020-02-22T14:19:26Z</time>
      </trkpt>
      <trkpt lat="38.7022780" lon="1.4627150">
        <ele>26.1</ele>
        <time>2020-02-22T14:19:27Z</time>
      </trkpt>
      <trkpt lat="38.7022780" lon="1.4627150">
        <ele>26.1</ele>
        <time>2020-02-22T14:19:28Z</time>
      </trkpt>
      <trkpt lat="38.7024450" lon="1.4625200">
        <ele>26.1</ele>
        <time>2020-02-22T14:19:29Z</time>
      </trkpt>
      <trkpt lat="38.7024450" lon="1.4625200">
        <ele>26.1</ele>
        <time>2020-02-22T14:19:30Z</time>
      </trkpt>
      <trkpt lat="38.7026120" lon="1.4623200">
        <ele>26.1</ele>
        <time>2020-02-22T14:19:31Z</time>
      </trkpt>
      <trkpt lat="38.7026120" lon="1.4623200">
        <ele>26.1</ele>
        <time>2020-02-22T14:19:32Z</time>
      </trkpt>
      <trkpt lat="38.7027750" lon="1.4621230">
        <ele>25.1</ele>
        <time>2020-02-22T14:19:33Z</time>
      </trkpt>
      <trkpt lat="38.7028570" lon="1.4620270">
        <ele>25.1</ele>
        <time>2020-02-22T14:19:34Z</time>
      </trkpt>
      <trkpt lat="38.7028570" lon="1.4620270">
        <ele>25.1</ele>
        <time>2020-02-22T14:19:35Z</time>
      </trkpt>
      <trkpt lat="38.7030170" lon="1.4618350">
        <ele>25.1</ele>
        <time>2020-02-22T14:19:36Z</time>
      </trkpt>
      <trkpt lat="38.7030970" lon="1.4617370">
        <ele>25.1</ele>
        <time>2020-02-22T14:19:37Z</time>
      </trkpt>
      <trkpt lat="38.7030970" lon="1.4617370">
        <ele>25.1</ele>
        <time>2020-02-22T14:19:38Z</time>
      </trkpt>
      <trkpt lat="38.7032600" lon="1.4615370">
        <ele>25.1</ele>
        <time>2020-02-22T14:19:39Z</time>
      </trkpt>
      <trkpt lat="38.7032600" lon="1.4615370">
        <ele>25.1</ele>
        <time>2020-02-22T14:19:40Z</time>
      </trkpt>
      <trkpt lat="38.7034270" lon="1.4613370">
        <ele>25.1</ele>
        <time>2020-02-22T14:19:41Z</time>
      </trkpt>
      <trkpt lat="38.7034270" lon="1.4613370">
        <ele>25.1</ele>
        <time>2020-02-22T14:19:42Z</time>
      </trkpt>
      <trkpt lat="38.7035920" lon="1.4611380">
        <ele>25.1</ele>
        <time>2020-02-22T14:19:43Z</time>
      </trkpt>
      <trkpt lat="38.7035920" lon="1.4611380">
        <ele>25.1</ele>
        <time>2020-02-22T14:19:44Z</time>
      </trkpt>
      <trkpt lat="38.7037520" lon="1.4609450">
        <ele>25.1</ele>
        <time>2020-02-22T14:19:45Z</time>
      </trkpt>
      <trkpt lat="38.7037520" lon="1.4609450">
        <ele>25.1</ele>
        <time>2020-02-22T14:19:46Z</time>
      </trkpt>
      <trkpt lat="38.7039150" lon="1.4607530">
        <ele>25.1</ele>
        <time>2020-02-22T14:19:47Z</time>
      </trkpt>
      <trkpt lat="38.7039150" lon="1.4607530">
        <ele>25.1</ele>
        <time>2020-02-22T14:19:48Z</time>
      </trkpt>
      <trkpt lat="38.7040670" lon="1.4605750">
        <ele>25.1</ele>
        <time>2020-02-22T14:19:49Z</time>
      </trkpt>
      <trkpt lat="38.7040670" lon="1.4605750">
        <ele>25.1</ele>
        <time>2020-02-22T14:19:50Z</time>
      </trkpt>
      <trkpt lat="38.7042130" lon="1.4603970">
        <ele>25.1</ele>
        <time>2020-02-22T14:19:51Z</time>
      </trkpt>
      <trkpt lat="38.7042130" lon="1.4603970">
        <ele>25.1</ele>
        <time>2020-02-22T14:19:52Z</time>
      </trkpt>
      <trkpt lat="38.7043620" lon="1.4602150">
        <ele>25.1</ele>
        <time>2020-02-22T14:19:53Z</time>
      </trkpt>
      <trkpt lat="38.7043620" lon="1.4602150">
        <ele>25.1</ele>
        <time>2020-02-22T14:19:54Z</time>
      </trkpt>
      <trkpt lat="38.7045170" lon="1.4600280">
        <ele>25.1</ele>
        <time>2020-02-22T14:19:55Z</time>
      </trkpt>
      <trkpt lat="38.7045170" lon="1.4600280">
        <ele>25.1</ele>
        <time>2020-02-22T14:19:56Z</time>
      </trkpt>
      <trkpt lat="38.7046730" lon="1.4598300">
        <ele>25.1</ele>
        <time>2020-02-22T14:19:57Z</time>
      </trkpt>
      <trkpt lat="38.7046730" lon="1.4598300">
        <ele>25.1</ele>
        <time>2020-02-22T14:19:58Z</time>
      </trkpt>
      <trkpt lat="38.7048300" lon="1.4596280">
        <ele>25.1</ele>
        <time>2020-02-22T14:19:59Z</time>
      </trkpt>
      <trkpt lat="38.7048300" lon="1.4596280">
        <ele>24.1</ele>
        <time>2020-02-22T14:20:00Z</time>
      </trkpt>
      <trkpt lat="38.7049870" lon="1.4594370">
        <ele>24.1</ele>
        <time>2020-02-22T14:20:01Z</time>
      </trkpt>
      <trkpt lat="38.7049870" lon="1.4594370">
        <ele>24.1</ele>
        <time>2020-02-22T14:20:02Z</time>
      </trkpt>
      <trkpt lat="38.7051330" lon="1.4592400">
        <ele>24.1</ele>
        <time>2020-02-22T14:20:03Z</time>
      </trkpt>
      <trkpt lat="38.7051330" lon="1.4592400">
        <ele>24.1</ele>
        <time>2020-02-22T14:20:04Z</time>
      </trkpt>
      <trkpt lat="38.7052780" lon="1.4590570">
        <ele>24.1</ele>
        <time>2020-02-22T14:20:05Z</time>
      </trkpt>
      <trkpt lat="38.7052780" lon="1.4590570">
        <ele>24.1</ele>
        <time>2020-02-22T14:20:06Z</time>
      </trkpt>
      <trkpt lat="38.7054230" lon="1.4588730">
        <ele>24.1</ele>
        <time>2020-02-22T14:20:07Z</time>
      </trkpt>
      <trkpt lat="38.7054230" lon="1.4588730">
        <ele>24.1</ele>
        <time>2020-02-22T14:20:08Z</time>
      </trkpt>
      <trkpt lat="38.7055630" lon="1.4586930">
        <ele>24.1</ele>
        <time>2020-02-22T14:20:09Z</time>
      </trkpt>
      <trkpt lat="38.7055630" lon="1.4586930">
        <ele>24.1</ele>
        <time>2020-02-22T14:20:10Z</time>
      </trkpt>
      <trkpt lat="38.7056930" lon="1.4585080">
        <ele>24.1</ele>
        <time>2020-02-22T14:20:11Z</time>
      </trkpt>
      <trkpt lat="38.7057550" lon="1.4584130">
        <ele>24.1</ele>
        <time>2020-02-22T14:20:12Z</time>
      </trkpt>
      <trkpt lat="38.7057550" lon="1.4584130">
        <ele>24.1</ele>
        <time>2020-02-22T14:20:13Z</time>
      </trkpt>
      <trkpt lat="38.7058700" lon="1.4582150">
        <ele>24.1</ele>
        <time>2020-02-22T14:20:14Z</time>
      </trkpt>
      <trkpt lat="38.7059220" lon="1.4581100">
        <ele>24.1</ele>
        <time>2020-02-22T14:20:15Z</time>
      </trkpt>
      <trkpt lat="38.7059220" lon="1.4581100">
        <ele>24.1</ele>
        <time>2020-02-22T14:20:16Z</time>
      </trkpt>
      <trkpt lat="38.7060180" lon="1.4578980">
        <ele>24.1</ele>
        <time>2020-02-22T14:20:17Z</time>
      </trkpt>
      <trkpt lat="38.7060670" lon="1.4577920">
        <ele>24.1</ele>
        <time>2020-02-22T14:20:18Z</time>
      </trkpt>
      <trkpt lat="38.7061150" lon="1.4576900">
        <ele>24.1</ele>
        <time>2020-02-22T14:20:19Z</time>
      </trkpt>
      <trkpt lat="38.7061150" lon="1.4576900">
        <ele>24.1</ele>
        <time>2020-02-22T14:20:20Z</time>
      </trkpt>
      <trkpt lat="38.7062050" lon="1.4574930">
        <ele>24.1</ele>
        <time>2020-02-22T14:20:21Z</time>
      </trkpt>
      <trkpt lat="38.7062050" lon="1.4574930">
        <ele>24.1</ele>
        <time>2020-02-22T14:20:22Z</time>
      </trkpt>
      <trkpt lat="38.7062950" lon="1.4572900">
        <ele>25.1</ele>
        <time>2020-02-22T14:20:23Z</time>
      </trkpt>
      <trkpt lat="38.7062950" lon="1.4572900">
        <ele>25.1</ele>
        <time>2020-02-22T14:20:24Z</time>
      </trkpt>
      <trkpt lat="38.7063950" lon="1.4570750">
        <ele>25.1</ele>
        <time>2020-02-22T14:20:25Z</time>
      </trkpt>
      <trkpt lat="38.7063950" lon="1.4570750">
        <ele>25.1</ele>
        <time>2020-02-22T14:20:26Z</time>
      </trkpt>
      <trkpt lat="38.7065020" lon="1.4568380">
        <ele>25.1</ele>
        <time>2020-02-22T14:20:27Z</time>
      </trkpt>
      <trkpt lat="38.7065550" lon="1.4567120">
        <ele>25.1</ele>
        <time>2020-02-22T14:20:28Z</time>
      </trkpt>
      <trkpt lat="38.7065550" lon="1.4567120">
        <ele>25.1</ele>
        <time>2020-02-22T14:20:29Z</time>
      </trkpt>
      <trkpt lat="38.7066680" lon="1.4564520">
        <ele>25.1</ele>
        <time>2020-02-22T14:20:30Z</time>
      </trkpt>
      <trkpt lat="38.7067250" lon="1.4563200">
        <ele>24.1</ele>
        <time>2020-02-22T14:20:31Z</time>
      </trkpt>
      <trkpt lat="38.7067800" lon="1.4561880">
        <ele>24.1</ele>
        <time>2020-02-22T14:20:32Z</time>
      </trkpt>
      <trkpt lat="38.7067800" lon="1.4561880">
        <ele>24.1</ele>
        <time>2020-02-22T14:20:33Z</time>
      </trkpt>
      <trkpt lat="38.7068970" lon="1.4559330">
        <ele>24.1</ele>
        <time>2020-02-22T14:20:34Z</time>
      </trkpt>
      <trkpt lat="38.7068970" lon="1.4559330">
        <ele>24.1</ele>
        <time>2020-02-22T14:20:35Z</time>
      </trkpt>
      <trkpt lat="38.7070120" lon="1.4556750">
        <ele>24.1</ele>
        <time>2020-02-22T14:20:36Z</time>
      </trkpt>
      <trkpt lat="38.7070680" lon="1.4555430">
        <ele>24.1</ele>
        <time>2020-02-22T14:20:37Z</time>
      </trkpt>
      <trkpt lat="38.7070680" lon="1.4555430">
        <ele>24.1</ele>
        <time>2020-02-22T14:20:38Z</time>
      </trkpt>
      <trkpt lat="38.7071730" lon="1.4552800">
        <ele>24.1</ele>
        <time>2020-02-22T14:20:39Z</time>
      </trkpt>
      <trkpt lat="38.7071730" lon="1.4552800">
        <ele>24.1</ele>
        <time>2020-02-22T14:20:40Z</time>
      </trkpt>
      <trkpt lat="38.7072650" lon="1.4550130">
        <ele>24.1</ele>
        <time>2020-02-22T14:20:41Z</time>
      </trkpt>
      <trkpt lat="38.7072650" lon="1.4550130">
        <ele>24.1</ele>
        <time>2020-02-22T14:20:42Z</time>
      </trkpt>
      <trkpt lat="38.7073820" lon="1.4547880">
        <ele>23.1</ele>
        <time>2020-02-22T14:20:43Z</time>
      </trkpt>
      <trkpt lat="38.7073820" lon="1.4547880">
        <ele>23.1</ele>
        <time>2020-02-22T14:20:44Z</time>
      </trkpt>
      <trkpt lat="38.7075320" lon="1.4546420">
        <ele>23.1</ele>
        <time>2020-02-22T14:20:45Z</time>
      </trkpt>
      <trkpt lat="38.7075320" lon="1.4546420">
        <ele>23.1</ele>
        <time>2020-02-22T14:20:46Z</time>
      </trkpt>
      <trkpt lat="38.7076970" lon="1.4545130">
        <ele>22.1</ele>
        <time>2020-02-22T14:20:47Z</time>
      </trkpt>
      <trkpt lat="38.7076970" lon="1.4545130">
        <ele>22.1</ele>
        <time>2020-02-22T14:20:48Z</time>
      </trkpt>
      <trkpt lat="38.7078650" lon="1.4544780">
        <ele>22.1</ele>
        <time>2020-02-22T14:20:49Z</time>
      </trkpt>
      <trkpt lat="38.7079470" lon="1.4545070">
        <ele>22.1</ele>
        <time>2020-02-22T14:20:50Z</time>
      </trkpt>
      <trkpt lat="38.7079470" lon="1.4545070">
        <ele>22.1</ele>
        <time>2020-02-22T14:20:51Z</time>
      </trkpt>
      <trkpt lat="38.7080870" lon="1.4546450">
        <ele>22.1</ele>
        <time>2020-02-22T14:20:52Z</time>
      </trkpt>
      <trkpt lat="38.7080870" lon="1.4546450">
        <ele>22.1</ele>
        <time>2020-02-22T14:20:53Z</time>
      </trkpt>
      <trkpt lat="38.7081920" lon="1.4548470">
        <ele>22.1</ele>
        <time>2020-02-22T14:20:54Z</time>
      </trkpt>
      <trkpt lat="38.7082380" lon="1.4549580">
        <ele>22.1</ele>
        <time>2020-02-22T14:20:55Z</time>
      </trkpt>
      <trkpt lat="38.7082380" lon="1.4549580">
        <ele>22.1</ele>
        <time>2020-02-22T14:20:56Z</time>
      </trkpt>
      <trkpt lat="38.7083230" lon="1.4551920">
        <ele>22.1</ele>
        <time>2020-02-22T14:20:57Z</time>
      </trkpt>
      <trkpt lat="38.7083670" lon="1.4553070">
        <ele>23.1</ele>
        <time>2020-02-22T14:20:58Z</time>
      </trkpt>
      <trkpt lat="38.7083670" lon="1.4553070">
        <ele>23.1</ele>
        <time>2020-02-22T14:20:59Z</time>
      </trkpt>
      <trkpt lat="38.7084550" lon="1.4555400">
        <ele>23.1</ele>
        <time>2020-02-22T14:21:00Z</time>
      </trkpt>
      <trkpt lat="38.7085020" lon="1.4556550">
        <ele>23.1</ele>
        <time>2020-02-22T14:21:01Z</time>
      </trkpt>
      <trkpt lat="38.7085020" lon="1.4556550">
        <ele>23.1</ele>
        <time>2020-02-22T14:21:02Z</time>
      </trkpt>
      <trkpt lat="38.7085920" lon="1.4558780">
        <ele>23.1</ele>
        <time>2020-02-22T14:21:03Z</time>
      </trkpt>
      <trkpt lat="38.7086370" lon="1.4559900">
        <ele>23.1</ele>
        <time>2020-02-22T14:21:04Z</time>
      </trkpt>
      <trkpt lat="38.7086800" lon="1.4560980">
        <ele>23.1</ele>
        <time>2020-02-22T14:21:05Z</time>
      </trkpt>
      <trkpt lat="38.7086800" lon="1.4560980">
        <ele>22.1</ele>
        <time>2020-02-22T14:21:06Z</time>
      </trkpt>
      <trkpt lat="38.7087730" lon="1.4563220">
        <ele>22.1</ele>
        <time>2020-02-22T14:21:07Z</time>
      </trkpt>
      <trkpt lat="38.7088170" lon="1.4564300">
        <ele>22.1</ele>
        <time>2020-02-22T14:21:08Z</time>
      </trkpt>
      <trkpt lat="38.7088170" lon="1.4564300">
        <ele>22.1</ele>
        <time>2020-02-22T14:21:09Z</time>
      </trkpt>
      <trkpt lat="38.7089000" lon="1.4566500">
        <ele>22.1</ele>
        <time>2020-02-22T14:21:10Z</time>
      </trkpt>
      <trkpt lat="38.7089000" lon="1.4566500">
        <ele>22.1</ele>
        <time>2020-02-22T14:21:11Z</time>
      </trkpt>
      <trkpt lat="38.7089870" lon="1.4568700">
        <ele>22.1</ele>
        <time>2020-02-22T14:21:12Z</time>
      </trkpt>
      <trkpt lat="38.7090280" lon="1.4569800">
        <ele>22.1</ele>
        <time>2020-02-22T14:21:13Z</time>
      </trkpt>
      <trkpt lat="38.7090280" lon="1.4569800">
        <ele>22.1</ele>
        <time>2020-02-22T14:21:14Z</time>
      </trkpt>
      <trkpt lat="38.7091200" lon="1.4571980">
        <ele>22.1</ele>
        <time>2020-02-22T14:21:15Z</time>
      </trkpt>
      <trkpt lat="38.7091200" lon="1.4571980">
        <ele>22.1</ele>
        <time>2020-02-22T14:21:16Z</time>
      </trkpt>
      <trkpt lat="38.7092170" lon="1.4574170">
        <ele>22.1</ele>
        <time>2020-02-22T14:21:17Z</time>
      </trkpt>
      <trkpt lat="38.7092170" lon="1.4574170">
        <ele>23.1</ele>
        <time>2020-02-22T14:21:18Z</time>
      </trkpt>
      <trkpt lat="38.7093020" lon="1.4576270">
        <ele>23.1</ele>
        <time>2020-02-22T14:21:19Z</time>
      </trkpt>
      <trkpt lat="38.7093020" lon="1.4576270">
        <ele>23.1</ele>
        <time>2020-02-22T14:21:20Z</time>
      </trkpt>
      <trkpt lat="38.7093800" lon="1.4578300">
        <ele>23.1</ele>
        <time>2020-02-22T14:21:21Z</time>
      </trkpt>
      <trkpt lat="38.7093800" lon="1.4578300">
        <ele>23.1</ele>
        <time>2020-02-22T14:21:22Z</time>
      </trkpt>
      <trkpt lat="38.7094370" lon="1.4580350">
        <ele>23.1</ele>
        <time>2020-02-22T14:21:23Z</time>
      </trkpt>
      <trkpt lat="38.7094370" lon="1.4580350">
        <ele>25.1</ele>
        <time>2020-02-22T14:21:24Z</time>
      </trkpt>
      <trkpt lat="38.7095220" lon="1.4582170">
        <ele>25.1</ele>
        <time>2020-02-22T14:21:25Z</time>
      </trkpt>
      <trkpt lat="38.7095830" lon="1.4582700">
        <ele>25.1</ele>
        <time>2020-02-22T14:21:26Z</time>
      </trkpt>
      <trkpt lat="38.7095830" lon="1.4582700">
        <ele>25.1</ele>
        <time>2020-02-22T14:21:27Z</time>
      </trkpt>
      <trkpt lat="38.7097380" lon="1.4583370">
        <ele>25.1</ele>
        <time>2020-02-22T14:21:28Z</time>
      </trkpt>
      <trkpt lat="38.7097380" lon="1.4583370">
        <ele>25.1</ele>
        <time>2020-02-22T14:21:29Z</time>
      </trkpt>
      <trkpt lat="38.7098970" lon="1.4584200">
        <ele>25.1</ele>
        <time>2020-02-22T14:21:30Z</time>
      </trkpt>
      <trkpt lat="38.7098970" lon="1.4584200">
        <ele>26.1</ele>
        <time>2020-02-22T14:21:31Z</time>
      </trkpt>
      <trkpt lat="38.7100630" lon="1.4585130">
        <ele>26.1</ele>
        <time>2020-02-22T14:21:32Z</time>
      </trkpt>
      <trkpt lat="38.7101500" lon="1.4585620">
        <ele>26.1</ele>
        <time>2020-02-22T14:21:33Z</time>
      </trkpt>
      <trkpt lat="38.7101500" lon="1.4585620">
        <ele>26.1</ele>
        <time>2020-02-22T14:21:34Z</time>
      </trkpt>
      <trkpt lat="38.7103270" lon="1.4586650">
        <ele>26.1</ele>
        <time>2020-02-22T14:21:35Z</time>
      </trkpt>
      <trkpt lat="38.7103270" lon="1.4586650">
        <ele>26.1</ele>
        <time>2020-02-22T14:21:36Z</time>
      </trkpt>
      <trkpt lat="38.7105070" lon="1.4587680">
        <ele>26.1</ele>
        <time>2020-02-22T14:21:37Z</time>
      </trkpt>
      <trkpt lat="38.7105070" lon="1.4587680">
        <ele>26.1</ele>
        <time>2020-02-22T14:21:38Z</time>
      </trkpt>
      <trkpt lat="38.7106900" lon="1.4588730">
        <ele>26.1</ele>
        <time>2020-02-22T14:21:39Z</time>
      </trkpt>
      <trkpt lat="38.7106900" lon="1.4588730">
        <ele>25.1</ele>
        <time>2020-02-22T14:21:40Z</time>
      </trkpt>
      <trkpt lat="38.7108700" lon="1.4589730">
        <ele>25.1</ele>
        <time>2020-02-22T14:21:41Z</time>
      </trkpt>
      <trkpt lat="38.7108700" lon="1.4589730">
        <ele>25.1</ele>
        <time>2020-02-22T14:21:42Z</time>
      </trkpt>
      <trkpt lat="38.7110450" lon="1.4590730">
        <ele>25.1</ele>
        <time>2020-02-22T14:21:43Z</time>
      </trkpt>
      <trkpt lat="38.7110450" lon="1.4590730">
        <ele>25.1</ele>
        <time>2020-02-22T14:21:44Z</time>
      </trkpt>
      <trkpt lat="38.7112080" lon="1.4591700">
        <ele>25.1</ele>
        <time>2020-02-22T14:21:45Z</time>
      </trkpt>
      <trkpt lat="38.7112080" lon="1.4591700">
        <ele>25.1</ele>
        <time>2020-02-22T14:21:46Z</time>
      </trkpt>
      <trkpt lat="38.7113720" lon="1.4592650">
        <ele>25.1</ele>
        <time>2020-02-22T14:21:47Z</time>
      </trkpt>
      <trkpt lat="38.7114550" lon="1.4593120">
        <ele>24.1</ele>
        <time>2020-02-22T14:21:48Z</time>
      </trkpt>
      <trkpt lat="38.7115370" lon="1.4593580">
        <ele>24.1</ele>
        <time>2020-02-22T14:21:49Z</time>
      </trkpt>
      <trkpt lat="38.7115370" lon="1.4593580">
        <ele>24.1</ele>
        <time>2020-02-22T14:21:50Z</time>
      </trkpt>
      <trkpt lat="38.7116980" lon="1.4594470">
        <ele>24.1</ele>
        <time>2020-02-22T14:21:51Z</time>
      </trkpt>
      <trkpt lat="38.7116980" lon="1.4594470">
        <ele>24.1</ele>
        <time>2020-02-22T14:21:52Z</time>
      </trkpt>
      <trkpt lat="38.7118630" lon="1.4595330">
        <ele>24.1</ele>
        <time>2020-02-22T14:21:53Z</time>
      </trkpt>
      <trkpt lat="38.7118630" lon="1.4595330">
        <ele>24.1</ele>
        <time>2020-02-22T14:21:54Z</time>
      </trkpt>
      <trkpt lat="38.7120320" lon="1.4596280">
        <ele>24.1</ele>
        <time>2020-02-22T14:21:55Z</time>
      </trkpt>
      <trkpt lat="38.7120320" lon="1.4596280">
        <ele>24.1</ele>
        <time>2020-02-22T14:21:56Z</time>
      </trkpt>
      <trkpt lat="38.7122020" lon="1.4597180">
        <ele>24.1</ele>
        <time>2020-02-22T14:21:57Z</time>
      </trkpt>
      <trkpt lat="38.7122880" lon="1.4597650">
        <ele>24.1</ele>
        <time>2020-02-22T14:21:58Z</time>
      </trkpt>
      <trkpt lat="38.7122880" lon="1.4597650">
        <ele>24.1</ele>
        <time>2020-02-22T14:21:59Z</time>
      </trkpt>
      <trkpt lat="38.7124580" lon="1.4598570">
        <ele>24.1</ele>
        <time>2020-02-22T14:22:00Z</time>
      </trkpt>
      <trkpt lat="38.7124580" lon="1.4598570">
        <ele>24.1</ele>
        <time>2020-02-22T14:22:01Z</time>
      </trkpt>
      <trkpt lat="38.7126320" lon="1.4599420">
        <ele>24.1</ele>
        <time>2020-02-22T14:22:02Z</time>
      </trkpt>
      <trkpt lat="38.7126320" lon="1.4599420">
        <ele>24.1</ele>
        <time>2020-02-22T14:22:03Z</time>
      </trkpt>
      <trkpt lat="38.7128100" lon="1.4600150">
        <ele>24.1</ele>
        <time>2020-02-22T14:22:04Z</time>
      </trkpt>
      <trkpt lat="38.7128100" lon="1.4600150">
        <ele>24.1</ele>
        <time>2020-02-22T14:22:05Z</time>
      </trkpt>
      <trkpt lat="38.7129900" lon="1.4600730">
        <ele>24.1</ele>
        <time>2020-02-22T14:22:06Z</time>
      </trkpt>
      <trkpt lat="38.7130800" lon="1.4601000">
        <ele>24.1</ele>
        <time>2020-02-22T14:22:07Z</time>
      </trkpt>
      <trkpt lat="38.7130800" lon="1.4601000">
        <ele>24.1</ele>
        <time>2020-02-22T14:22:08Z</time>
      </trkpt>
      <trkpt lat="38.7132580" lon="1.4601670">
        <ele>25.1</ele>
        <time>2020-02-22T14:22:09Z</time>
      </trkpt>
      <trkpt lat="38.7132580" lon="1.4601670">
        <ele>25.1</ele>
        <time>2020-02-22T14:22:10Z</time>
      </trkpt>
      <trkpt lat="38.7134470" lon="1.4602350">
        <ele>25.1</ele>
        <time>2020-02-22T14:22:11Z</time>
      </trkpt>
      <trkpt lat="38.7134470" lon="1.4602350">
        <ele>25.1</ele>
        <time>2020-02-22T14:22:12Z</time>
      </trkpt>
      <trkpt lat="38.7136330" lon="1.4603100">
        <ele>24.1</ele>
        <time>2020-02-22T14:22:13Z</time>
      </trkpt>
      <trkpt lat="38.7136330" lon="1.4603100">
        <ele>24.1</ele>
        <time>2020-02-22T14:22:14Z</time>
      </trkpt>
      <trkpt lat="38.7138180" lon="1.4604030">
        <ele>24.1</ele>
        <time>2020-02-22T14:22:15Z</time>
      </trkpt>
      <trkpt lat="38.7138180" lon="1.4604030">
        <ele>23.1</ele>
        <time>2020-02-22T14:22:16Z</time>
      </trkpt>
      <trkpt lat="38.7140000" lon="1.4605080">
        <ele>23.1</ele>
        <time>2020-02-22T14:22:17Z</time>
      </trkpt>
      <trkpt lat="38.7140000" lon="1.4605080">
        <ele>23.1</ele>
        <time>2020-02-22T14:22:18Z</time>
      </trkpt>
      <trkpt lat="38.7141900" lon="1.4606120">
        <ele>23.1</ele>
        <time>2020-02-22T14:22:19Z</time>
      </trkpt>
      <trkpt lat="38.7142930" lon="1.4606530">
        <ele>22.1</ele>
        <time>2020-02-22T14:22:20Z</time>
      </trkpt>
      <trkpt lat="38.7142930" lon="1.4606530">
        <ele>22.1</ele>
        <time>2020-02-22T14:22:21Z</time>
      </trkpt>
      <trkpt lat="38.7145050" lon="1.4606780">
        <ele>22.1</ele>
        <time>2020-02-22T14:22:22Z</time>
      </trkpt>
      <trkpt lat="38.7145050" lon="1.4606780">
        <ele>22.1</ele>
        <time>2020-02-22T14:22:23Z</time>
      </trkpt>
      <trkpt lat="38.7147200" lon="1.4606220">
        <ele>21.1</ele>
        <time>2020-02-22T14:22:24Z</time>
      </trkpt>
      <trkpt lat="38.7148200" lon="1.4605800">
        <ele>21.1</ele>
        <time>2020-02-22T14:22:25Z</time>
      </trkpt>
      <trkpt lat="38.7148200" lon="1.4605800">
        <ele>21.1</ele>
        <time>2020-02-22T14:22:26Z</time>
      </trkpt>
      <trkpt lat="38.7150130" lon="1.4604600">
        <ele>21.1</ele>
        <time>2020-02-22T14:22:27Z</time>
      </trkpt>
      <trkpt lat="38.7151050" lon="1.4603820">
        <ele>20.1</ele>
        <time>2020-02-22T14:22:28Z</time>
      </trkpt>
      <trkpt lat="38.7151050" lon="1.4603820">
        <ele>20.1</ele>
        <time>2020-02-22T14:22:29Z</time>
      </trkpt>
      <trkpt lat="38.7152720" lon="1.4601970">
        <ele>20.1</ele>
        <time>2020-02-22T14:22:30Z</time>
      </trkpt>
      <trkpt lat="38.7153530" lon="1.4601020">
        <ele>20.1</ele>
        <time>2020-02-22T14:22:31Z</time>
      </trkpt>
      <trkpt lat="38.7153530" lon="1.4601020">
        <ele>19.1</ele>
        <time>2020-02-22T14:22:32Z</time>
      </trkpt>
      <trkpt lat="38.7155150" lon="1.4599070">
        <ele>19.1</ele>
        <time>2020-02-22T14:22:33Z</time>
      </trkpt>
      <trkpt lat="38.7155150" lon="1.4599070">
        <ele>19.1</ele>
        <time>2020-02-22T14:22:34Z</time>
      </trkpt>
      <trkpt lat="38.7156880" lon="1.4597170">
        <ele>19.1</ele>
        <time>2020-02-22T14:22:35Z</time>
      </trkpt>
      <trkpt lat="38.7156880" lon="1.4597170">
        <ele>18.1</ele>
        <time>2020-02-22T14:22:36Z</time>
      </trkpt>
      <trkpt lat="38.7158750" lon="1.4595470">
        <ele>18.1</ele>
        <time>2020-02-22T14:22:37Z</time>
      </trkpt>
      <trkpt lat="38.7158750" lon="1.4595470">
        <ele>18.1</ele>
        <time>2020-02-22T14:22:38Z</time>
      </trkpt>
      <trkpt lat="38.7160720" lon="1.4593970">
        <ele>18.1</ele>
        <time>2020-02-22T14:22:39Z</time>
      </trkpt>
      <trkpt lat="38.7160720" lon="1.4593970">
        <ele>18.1</ele>
        <time>2020-02-22T14:22:40Z</time>
      </trkpt>
      <trkpt lat="38.7162670" lon="1.4592470">
        <ele>17.1</ele>
        <time>2020-02-22T14:22:41Z</time>
      </trkpt>
      <trkpt lat="38.7162670" lon="1.4592470">
        <ele>17.1</ele>
        <time>2020-02-22T14:22:42Z</time>
      </trkpt>
      <trkpt lat="38.7164670" lon="1.4590850">
        <ele>17.1</ele>
        <time>2020-02-22T14:22:43Z</time>
      </trkpt>
      <trkpt lat="38.7164670" lon="1.4590850">
        <ele>17.1</ele>
        <time>2020-02-22T14:22:44Z</time>
      </trkpt>
      <trkpt lat="38.7166720" lon="1.4589270">
        <ele>16.1</ele>
        <time>2020-02-22T14:22:45Z</time>
      </trkpt>
      <trkpt lat="38.7166720" lon="1.4589270">
        <ele>16.1</ele>
        <time>2020-02-22T14:22:46Z</time>
      </trkpt>
      <trkpt lat="38.7168770" lon="1.4587630">
        <ele>15.1</ele>
        <time>2020-02-22T14:22:47Z</time>
      </trkpt>
      <trkpt lat="38.7168770" lon="1.4587630">
        <ele>15.1</ele>
        <time>2020-02-22T14:22:48Z</time>
      </trkpt>
      <trkpt lat="38.7170780" lon="1.4586120">
        <ele>14.1</ele>
        <time>2020-02-22T14:22:49Z</time>
      </trkpt>
      <trkpt lat="38.7170780" lon="1.4586120">
        <ele>14.1</ele>
        <time>2020-02-22T14:22:50Z</time>
      </trkpt>
      <trkpt lat="38.7172770" lon="1.4584570">
        <ele>13.1</ele>
        <time>2020-02-22T14:22:51Z</time>
      </trkpt>
      <trkpt lat="38.7172770" lon="1.4584570">
        <ele>13.1</ele>
        <time>2020-02-22T14:22:52Z</time>
      </trkpt>
      <trkpt lat="38.7174770" lon="1.4583020">
        <ele>13.1</ele>
        <time>2020-02-22T14:22:53Z</time>
      </trkpt>
      <trkpt lat="38.7174770" lon="1.4583020">
        <ele>13.1</ele>
        <time>2020-02-22T14:22:54Z</time>
      </trkpt>
      <trkpt lat="38.7176720" lon="1.4581500">
        <ele>13.1</ele>
        <time>2020-02-22T14:22:55Z</time>
      </trkpt>
      <trkpt lat="38.7177680" lon="1.4580770">
        <ele>12.1</ele>
        <time>2020-02-22T14:22:56Z</time>
      </trkpt>
      <trkpt lat="38.7177680" lon="1.4580770">
        <ele>12.1</ele>
        <time>2020-02-22T14:22:57Z</time>
      </trkpt>
      <trkpt lat="38.7179530" lon="1.4579280">
        <ele>12.1</ele>
        <time>2020-02-22T14:22:58Z</time>
      </trkpt>
      <trkpt lat="38.7179530" lon="1.4579280">
        <ele>12.1</ele>
        <time>2020-02-22T14:22:59Z</time>
      </trkpt>
      <trkpt lat="38.7181430" lon="1.4577780">
        <ele>12.1</ele>
        <time>2020-02-22T14:23:00Z</time>
      </trkpt>
      <trkpt lat="38.7182370" lon="1.4577080">
        <ele>12.1</ele>
        <time>2020-02-22T14:23:01Z</time>
      </trkpt>
      <trkpt lat="38.7182370" lon="1.4577080">
        <ele>12.1</ele>
        <time>2020-02-22T14:23:02Z</time>
      </trkpt>
      <trkpt lat="38.7184200" lon="1.4575600">
        <ele>12.1</ele>
        <time>2020-02-22T14:23:03Z</time>
      </trkpt>
      <trkpt lat="38.7185130" lon="1.4574900">
        <ele>10.1</ele>
        <time>2020-02-22T14:23:04Z</time>
      </trkpt>
      <trkpt lat="38.7185130" lon="1.4574900">
        <ele>10.1</ele>
        <time>2020-02-22T14:23:05Z</time>
      </trkpt>
      <trkpt lat="38.7186980" lon="1.4573450">
        <ele>10.1</ele>
        <time>2020-02-22T14:23:06Z</time>
      </trkpt>
      <trkpt lat="38.7186980" lon="1.4573450">
        <ele>10.1</ele>
        <time>2020-02-22T14:23:07Z</time>
      </trkpt>
      <trkpt lat="38.7188850" lon="1.4572020">
        <ele>9.1</ele>
        <time>2020-02-22T14:23:08Z</time>
      </trkpt>
      <trkpt lat="38.7188850" lon="1.4572020">
        <ele>9.1</ele>
        <time>2020-02-22T14:23:09Z</time>
      </trkpt>
      <trkpt lat="38.7190650" lon="1.4570600">
        <ele>9.1</ele>
        <time>2020-02-22T14:23:10Z</time>
      </trkpt>
      <trkpt lat="38.7190650" lon="1.4570600">
        <ele>9.1</ele>
        <time>2020-02-22T14:23:11Z</time>
      </trkpt>
      <trkpt lat="38.7192350" lon="1.4569270">
        <ele>8.1</ele>
        <time>2020-02-22T14:23:12Z</time>
      </trkpt>
      <trkpt lat="38.7193220" lon="1.4568600">
        <ele>8.1</ele>
        <time>2020-02-22T14:23:13Z</time>
      </trkpt>
      <trkpt lat="38.7193220" lon="1.4568600">
        <ele>8.1</ele>
        <time>2020-02-22T14:23:14Z</time>
      </trkpt>
      <trkpt lat="38.7195050" lon="1.4567430">
        <ele>8.1</ele>
        <time>2020-02-22T14:23:15Z</time>
      </trkpt>
      <trkpt lat="38.7195050" lon="1.4567430">
        <ele>8.1</ele>
        <time>2020-02-22T14:23:16Z</time>
      </trkpt>
      <trkpt lat="38.7197280" lon="1.4567080">
        <ele>8.1</ele>
        <time>2020-02-22T14:23:17Z</time>
      </trkpt>
      <trkpt lat="38.7197280" lon="1.4567080">
        <ele>6.1</ele>
        <time>2020-02-22T14:23:18Z</time>
      </trkpt>
      <trkpt lat="38.7199580" lon="1.4567270">
        <ele>6.1</ele>
        <time>2020-02-22T14:23:19Z</time>
      </trkpt>
      <trkpt lat="38.7200700" lon="1.4567380">
        <ele>6.1</ele>
        <time>2020-02-22T14:23:20Z</time>
      </trkpt>
      <trkpt lat="38.7200700" lon="1.4567380">
        <ele>6.1</ele>
        <time>2020-02-22T14:23:21Z</time>
      </trkpt>
      <trkpt lat="38.7202830" lon="1.4567650">
        <ele>6.1</ele>
        <time>2020-02-22T14:23:22Z</time>
      </trkpt>
      <trkpt lat="38.7203850" lon="1.4567830">
        <ele>6.1</ele>
        <time>2020-02-22T14:23:23Z</time>
      </trkpt>
      <trkpt lat="38.7203850" lon="1.4567830">
        <ele>5.1</ele>
        <time>2020-02-22T14:23:24Z</time>
      </trkpt>
      <trkpt lat="38.7205880" lon="1.4568150">
        <ele>5.1</ele>
        <time>2020-02-22T14:23:25Z</time>
      </trkpt>
      <trkpt lat="38.7205880" lon="1.4568150">
        <ele>5.1</ele>
        <time>2020-02-22T14:23:26Z</time>
      </trkpt>
      <trkpt lat="38.7207700" lon="1.4567950">
        <ele>5.1</ele>
        <time>2020-02-22T14:23:27Z</time>
      </trkpt>
      <trkpt lat="38.7207700" lon="1.4567950">
        <ele>5.1</ele>
        <time>2020-02-22T14:23:28Z</time>
      </trkpt>
      <trkpt lat="38.7209200" lon="1.4567200">
        <ele>5.1</ele>
        <time>2020-02-22T14:23:29Z</time>
      </trkpt>
      <trkpt lat="38.7209200" lon="1.4567200">
        <ele>5.1</ele>
        <time>2020-02-22T14:23:30Z</time>
      </trkpt>
      <trkpt lat="38.7210180" lon="1.4565720">
        <ele>4.1</ele>
        <time>2020-02-22T14:23:31Z</time>
      </trkpt>
      <trkpt lat="38.7210180" lon="1.4565720">
        <ele>4.1</ele>
        <time>2020-02-22T14:23:32Z</time>
      </trkpt>
      <trkpt lat="38.7210430" lon="1.4563170">
        <ele>3.1</ele>
        <time>2020-02-22T14:23:33Z</time>
      </trkpt>
      <trkpt lat="38.7210430" lon="1.4563170">
        <ele>3.1</ele>
        <time>2020-02-22T14:23:34Z</time>
      </trkpt>
      <trkpt lat="38.7210620" lon="1.4560430">
        <ele>2.1</ele>
        <time>2020-02-22T14:23:35Z</time>
      </trkpt>
      <trkpt lat="38.7210620" lon="1.4560430">
        <ele>2.1</ele>
        <time>2020-02-22T14:23:36Z</time>
      </trkpt>
      <trkpt lat="38.7210750" lon="1.4557400">
        <ele>2.1</ele>
        <time>2020-02-22T14:23:37Z</time>
      </trkpt>
      <trkpt lat="38.7210750" lon="1.4557400">
        <ele>2.1</ele>
        <time>2020-02-22T14:23:38Z</time>
      </trkpt>
      <trkpt lat="38.7211070" lon="1.4554430">
        <ele>1.1</ele>
        <time>2020-02-22T14:23:39Z</time>
      </trkpt>
      <trkpt lat="38.7211070" lon="1.4554430">
        <ele>1.1</ele>
        <time>2020-02-22T14:23:40Z</time>
      </trkpt>
      <trkpt lat="38.7211420" lon="1.4551420">
        <ele>1.1</ele>
        <time>2020-02-22T14:23:41Z</time>
      </trkpt>
      <trkpt lat="38.7211420" lon="1.4551420">
        <ele>1.1</ele>
        <time>2020-02-22T14:23:42Z</time>
      </trkpt>
      <trkpt lat="38.7211850" lon="1.4548480">
        <ele>0.1</ele>
        <time>2020-02-22T14:23:43Z</time>
      </trkpt>
      <trkpt lat="38.7211850" lon="1.4548480">
        <ele>0.1</ele>
        <time>2020-02-22T14:23:44Z</time>
      </trkpt>
      <trkpt lat="38.7212220" lon="1.4545620">
        <ele>0.1</ele>
        <time>2020-02-22T14:23:45Z</time>
      </trkpt>
      <trkpt lat="38.7212220" lon="1.4545620">
        <ele>0.1</ele>
        <time>2020-02-22T14:23:46Z</time>
      </trkpt>
      <trkpt lat="38.7212630" lon="1.4542800">
        <ele>0.1</ele>
        <time>2020-02-22T14:23:47Z</time>
      </trkpt>
      <trkpt lat="38.7212920" lon="1.4541450">
        <ele>0.1</ele>
        <time>2020-02-22T14:23:48Z</time>
      </trkpt>
      <trkpt lat="38.7212920" lon="1.4541450">
        <ele>0.1</ele>
        <time>2020-02-22T14:23:49Z</time>
      </trkpt>
      <trkpt lat="38.7213630" lon="1.4538850">
        <ele>0.1</ele>
        <time>2020-02-22T14:23:50Z</time>
      </trkpt>
      <trkpt lat="38.7214070" lon="1.4537650">
        <ele>0.1</ele>
        <time>2020-02-22T14:23:51Z</time>
      </trkpt>
      <trkpt lat="38.7214070" lon="1.4537650">
        <ele>0.1</ele>
        <time>2020-02-22T14:23:52Z</time>
      </trkpt>
      <trkpt lat="38.7215180" lon="1.4535500">
        <ele>0.1</ele>
        <time>2020-02-22T14:23:53Z</time>
      </trkpt>
      <trkpt lat="38.7215180" lon="1.4535500">
        <ele>-0.9</ele>
        <time>2020-02-22T14:23:54Z</time>
      </trkpt>
      <trkpt lat="38.7216400" lon="1.4533520">
        <ele>-0.9</ele>
        <time>2020-02-22T14:23:55Z</time>
      </trkpt>
      <trkpt lat="38.7216400" lon="1.4533520">
        <ele>-0.9</ele>
        <time>2020-02-22T14:23:56Z</time>
      </trkpt>
      <trkpt lat="38.7217620" lon="1.4531570">
        <ele>-0.9</ele>
        <time>2020-02-22T14:23:57Z</time>
      </trkpt>
      <trkpt lat="38.7217620" lon="1.4531570">
        <ele>-0.9</ele>
        <time>2020-02-22T14:23:58Z</time>
      </trkpt>
      <trkpt lat="38.7218720" lon="1.4529620">
        <ele>-0.9</ele>
        <time>2020-02-22T14:23:59Z</time>
      </trkpt>
      <trkpt lat="38.7218720" lon="1.4529620">
        <ele>-0.9</ele>
        <time>2020-02-22T14:24:00Z</time>
      </trkpt>
      <trkpt lat="38.7219870" lon="1.4527700">
        <ele>-0.9</ele>
        <time>2020-02-22T14:24:01Z</time>
      </trkpt>
      <trkpt lat="38.7219870" lon="1.4527700">
        <ele>-0.9</ele>
        <time>2020-02-22T14:24:02Z</time>
      </trkpt>
      <trkpt lat="38.7221050" lon="1.4525880">
        <ele>-0.9</ele>
        <time>2020-02-22T14:24:03Z</time>
      </trkpt>
      <trkpt lat="38.7221050" lon="1.4525880">
        <ele>-0.9</ele>
        <time>2020-02-22T14:24:04Z</time>
      </trkpt>
      <trkpt lat="38.7222170" lon="1.4524020">
        <ele>-0.9</ele>
        <time>2020-02-22T14:24:05Z</time>
      </trkpt>
      <trkpt lat="38.7222170" lon="1.4524020">
        <ele>-0.9</ele>
        <time>2020-02-22T14:24:06Z</time>
      </trkpt>
      <trkpt lat="38.7223450" lon="1.4522380">
        <ele>-0.9</ele>
        <time>2020-02-22T14:24:07Z</time>
      </trkpt>
      <trkpt lat="38.7223450" lon="1.4522380">
        <ele>-0.9</ele>
        <time>2020-02-22T14:24:08Z</time>
      </trkpt>
      <trkpt lat="38.7225080" lon="1.4521550">
        <ele>-0.9</ele>
        <time>2020-02-22T14:24:09Z</time>
      </trkpt>
      <trkpt lat="38.7225080" lon="1.4521550">
        <ele>-0.9</ele>
        <time>2020-02-22T14:24:10Z</time>
      </trkpt>
      <trkpt lat="38.7226800" lon="1.4521380">
        <ele>-0.9</ele>
        <time>2020-02-22T14:24:11Z</time>
      </trkpt>
      <trkpt lat="38.7227650" lon="1.4521330">
        <ele>-0.9</ele>
        <time>2020-02-22T14:24:12Z</time>
      </trkpt>
      <trkpt lat="38.7228470" lon="1.4521270">
        <ele>-0.9</ele>
        <time>2020-02-22T14:24:13Z</time>
      </trkpt>
      <trkpt lat="38.7228470" lon="1.4521270">
        <ele>-0.9</ele>
        <time>2020-02-22T14:24:14Z</time>
      </trkpt>
      <trkpt lat="38.7230050" lon="1.4521080">
        <ele>0.1</ele>
        <time>2020-02-22T14:24:15Z</time>
      </trkpt>
      <trkpt lat="38.7230050" lon="1.4521080">
        <ele>0.1</ele>
        <time>2020-02-22T14:24:16Z</time>
      </trkpt>
      <trkpt lat="38.7231520" lon="1.4520770">
        <ele>1.1</ele>
        <time>2020-02-22T14:24:17Z</time>
      </trkpt>
      <trkpt lat="38.7232220" lon="1.4520550">
        <ele>1.1</ele>
        <time>2020-02-22T14:24:18Z</time>
      </trkpt>
      <trkpt lat="38.7232920" lon="1.4520450">
        <ele>1.1</ele>
        <time>2020-02-22T14:24:19Z</time>
      </trkpt>
      <trkpt lat="38.7232920" lon="1.4520450">
        <ele>1.1</ele>
        <time>2020-02-22T14:24:20Z</time>
      </trkpt>
      <trkpt lat="38.7234300" lon="1.4520820">
        <ele>3.1</ele>
        <time>2020-02-22T14:24:21Z</time>
      </trkpt>
      <trkpt lat="38.7234300" lon="1.4520820">
        <ele>3.1</ele>
        <time>2020-02-22T14:24:22Z</time>
      </trkpt>
      <trkpt lat="38.7235600" lon="1.4520520">
        <ele>4.1</ele>
        <time>2020-02-22T14:24:23Z</time>
      </trkpt>
      <trkpt lat="38.7235600" lon="1.4520520">
        <ele>4.1</ele>
        <time>2020-02-22T14:24:24Z</time>
      </trkpt>
      <trkpt lat="38.7236770" lon="1.4519320">
        <ele>4.1</ele>
        <time>2020-02-22T14:24:25Z</time>
      </trkpt>
      <trkpt lat="38.7236770" lon="1.4519320">
        <ele>4.1</ele>
        <time>2020-02-22T14:24:26Z</time>
      </trkpt>
      <trkpt lat="38.7237880" lon="1.4517770">
        <ele>4.1</ele>
        <time>2020-02-22T14:24:27Z</time>
      </trkpt>
      <trkpt lat="38.7237880" lon="1.4517770">
        <ele>4.1</ele>
        <time>2020-02-22T14:24:28Z</time>
      </trkpt>
      <trkpt lat="38.7239050" lon="1.4516100">
        <ele>4.1</ele>
        <time>2020-02-22T14:24:29Z</time>
      </trkpt>
      <trkpt lat="38.7239050" lon="1.4516100">
        <ele>4.1</ele>
        <time>2020-02-22T14:24:30Z</time>
      </trkpt>
      <trkpt lat="38.7240280" lon="1.4514330">
        <ele>4.1</ele>
        <time>2020-02-22T14:24:31Z</time>
      </trkpt>
      <trkpt lat="38.7240280" lon="1.4514330">
        <ele>4.1</ele>
        <time>2020-02-22T14:24:32Z</time>
      </trkpt>
      <trkpt lat="38.7241530" lon="1.4512520">
        <ele>4.1</ele>
        <time>2020-02-22T14:24:33Z</time>
      </trkpt>
      <trkpt lat="38.7241530" lon="1.4512520">
        <ele>3.1</ele>
        <time>2020-02-22T14:24:34Z</time>
      </trkpt>
      <trkpt lat="38.7242830" lon="1.4510650">
        <ele>3.1</ele>
        <time>2020-02-22T14:24:35Z</time>
      </trkpt>
      <trkpt lat="38.7242830" lon="1.4510650">
        <ele>3.1</ele>
        <time>2020-02-22T14:24:36Z</time>
      </trkpt>
      <trkpt lat="38.7244170" lon="1.4508720">
        <ele>3.1</ele>
        <time>2020-02-22T14:24:37Z</time>
      </trkpt>
      <trkpt lat="38.7244170" lon="1.4508720">
        <ele>3.1</ele>
        <time>2020-02-22T14:24:38Z</time>
      </trkpt>
      <trkpt lat="38.7245550" lon="1.4506700">
        <ele>2.1</ele>
        <time>2020-02-22T14:24:39Z</time>
      </trkpt>
      <trkpt lat="38.7245550" lon="1.4506700">
        <ele>2.1</ele>
        <time>2020-02-22T14:24:40Z</time>
      </trkpt>
      <trkpt lat="38.7246920" lon="1.4504670">
        <ele>1.1</ele>
        <time>2020-02-22T14:24:41Z</time>
      </trkpt>
      <trkpt lat="38.7247650" lon="1.4503680">
        <ele>1.1</ele>
        <time>2020-02-22T14:24:42Z</time>
      </trkpt>
      <trkpt lat="38.7247650" lon="1.4503680">
        <ele>0.1</ele>
        <time>2020-02-22T14:24:43Z</time>
      </trkpt>
      <trkpt lat="38.7249070" lon="1.4501670">
        <ele>0.1</ele>
        <time>2020-02-22T14:24:44Z</time>
      </trkpt>
      <trkpt lat="38.7249770" lon="1.4500620">
        <ele>0.1</ele>
        <time>2020-02-22T14:24:45Z</time>
      </trkpt>
      <trkpt lat="38.7249770" lon="1.4500620">
        <ele>-0.9</ele>
        <time>2020-02-22T14:24:46Z</time>
      </trkpt>
      <trkpt lat="38.7251200" lon="1.4498530">
        <ele>-0.9</ele>
        <time>2020-02-22T14:24:47Z</time>
      </trkpt>
      <trkpt lat="38.7251200" lon="1.4498530">
        <ele>-0.9</ele>
        <time>2020-02-22T14:24:48Z</time>
      </trkpt>
      <trkpt lat="38.7252580" lon="1.4496450">
        <ele>-0.9</ele>
        <time>2020-02-22T14:24:49Z</time>
      </trkpt>
      <trkpt lat="38.7252580" lon="1.4496450">
        <ele>-0.9</ele>
        <time>2020-02-22T14:24:50Z</time>
      </trkpt>
      <trkpt lat="38.7253950" lon="1.4494420">
        <ele>-0.9</ele>
        <time>2020-02-22T14:24:51Z</time>
      </trkpt>
      <trkpt lat="38.7253950" lon="1.4494420">
        <ele>-0.9</ele>
        <time>2020-02-22T14:24:52Z</time>
      </trkpt>
      <trkpt lat="38.7255300" lon="1.4492380">
        <ele>-0.9</ele>
        <time>2020-02-22T14:24:53Z</time>
      </trkpt>
      <trkpt lat="38.7255300" lon="1.4492380">
        <ele>-1.9</ele>
        <time>2020-02-22T14:24:54Z</time>
      </trkpt>
      <trkpt lat="38.7256700" lon="1.4490420">
        <ele>-1.9</ele>
        <time>2020-02-22T14:24:55Z</time>
      </trkpt>
      <trkpt lat="38.7256700" lon="1.4490420">
        <ele>-1.9</ele>
        <time>2020-02-22T14:24:56Z</time>
      </trkpt>
      <trkpt lat="38.7258100" lon="1.4488400">
        <ele>-1.9</ele>
        <time>2020-02-22T14:24:57Z</time>
      </trkpt>
      <trkpt lat="38.7258770" lon="1.4487400">
        <ele>-1.9</ele>
        <time>2020-02-22T14:24:58Z</time>
      </trkpt>
      <trkpt lat="38.7258770" lon="1.4487400">
        <ele>-1.9</ele>
        <time>2020-02-22T14:24:59Z</time>
      </trkpt>
      <trkpt lat="38.7260170" lon="1.4485500">
        <ele>-1.9</ele>
        <time>2020-02-22T14:25:00Z</time>
      </trkpt>
      <trkpt lat="38.7260920" lon="1.4484650">
        <ele>-1.9</ele>
        <time>2020-02-22T14:25:01Z</time>
      </trkpt>
      <trkpt lat="38.7261650" lon="1.4483870">
        <ele>-1.9</ele>
        <time>2020-02-22T14:25:02Z</time>
      </trkpt>
      <trkpt lat="38.7261650" lon="1.4483870">
        <ele>-1.9</ele>
        <time>2020-02-22T14:25:03Z</time>
      </trkpt>
      <trkpt lat="38.7263180" lon="1.4482450">
        <ele>-1.9</ele>
        <time>2020-02-22T14:25:04Z</time>
      </trkpt>
      <trkpt lat="38.7263180" lon="1.4482450">
        <ele>-1.9</ele>
        <time>2020-02-22T14:25:05Z</time>
      </trkpt>
      <trkpt lat="38.7264750" lon="1.4481120">
        <ele>-1.9</ele>
        <time>2020-02-22T14:25:06Z</time>
      </trkpt>
      <trkpt lat="38.7264750" lon="1.4481120">
        <ele>-1.9</ele>
        <time>2020-02-22T14:25:07Z</time>
      </trkpt>
      <trkpt lat="38.7266280" lon="1.4479880">
        <ele>-0.9</ele>
        <time>2020-02-22T14:25:08Z</time>
      </trkpt>
      <trkpt lat="38.7266280" lon="1.4479880">
        <ele>-0.9</ele>
        <time>2020-02-22T14:25:09Z</time>
      </trkpt>
      <trkpt lat="38.7267780" lon="1.4478720">
        <ele>-0.9</ele>
        <time>2020-02-22T14:25:10Z</time>
      </trkpt>
      <trkpt lat="38.7267780" lon="1.4478720">
        <ele>0.1</ele>
        <time>2020-02-22T14:25:11Z</time>
      </trkpt>
      <trkpt lat="38.7269270" lon="1.4477550">
        <ele>0.1</ele>
        <time>2020-02-22T14:25:12Z</time>
      </trkpt>
      <trkpt lat="38.7270000" lon="1.4476970">
        <ele>1.1</ele>
        <time>2020-02-22T14:25:13Z</time>
      </trkpt>
      <trkpt lat="38.7270000" lon="1.4476970">
        <ele>1.1</ele>
        <time>2020-02-22T14:25:14Z</time>
      </trkpt>
      <trkpt lat="38.7271400" lon="1.4475800">
        <ele>1.1</ele>
        <time>2020-02-22T14:25:15Z</time>
      </trkpt>
      <trkpt lat="38.7271400" lon="1.4475800">
        <ele>1.1</ele>
        <time>2020-02-22T14:25:16Z</time>
      </trkpt>
      <trkpt lat="38.7272850" lon="1.4474680">
        <ele>1.1</ele>
        <time>2020-02-22T14:25:17Z</time>
      </trkpt>
      <trkpt lat="38.7273620" lon="1.4474150">
        <ele>1.1</ele>
        <time>2020-02-22T14:25:18Z</time>
      </trkpt>
      <trkpt lat="38.7273620" lon="1.4474150">
        <ele>2.1</ele>
        <time>2020-02-22T14:25:19Z</time>
      </trkpt>
      <trkpt lat="38.7275220" lon="1.4473020">
        <ele>2.1</ele>
        <time>2020-02-22T14:25:20Z</time>
      </trkpt>
      <trkpt lat="38.7275220" lon="1.4473020">
        <ele>2.1</ele>
        <time>2020-02-22T14:25:21Z</time>
      </trkpt>
      <trkpt lat="38.7276870" lon="1.4471780">
        <ele>2.1</ele>
        <time>2020-02-22T14:25:22Z</time>
      </trkpt>
      <trkpt lat="38.7276870" lon="1.4471780">
        <ele>2.1</ele>
        <time>2020-02-22T14:25:23Z</time>
      </trkpt>
      <trkpt lat="38.7278600" lon="1.4470530">
        <ele>1.1</ele>
        <time>2020-02-22T14:25:24Z</time>
      </trkpt>
      <trkpt lat="38.7279520" lon="1.4469920">
        <ele>1.1</ele>
        <time>2020-02-22T14:25:25Z</time>
      </trkpt>
      <trkpt lat="38.7279520" lon="1.4469920">
        <ele>0.1</ele>
        <time>2020-02-22T14:25:26Z</time>
      </trkpt>
      <trkpt lat="38.7281370" lon="1.4468630">
        <ele>0.1</ele>
        <time>2020-02-22T14:25:27Z</time>
      </trkpt>
      <trkpt lat="38.7281370" lon="1.4468630">
        <ele>0.1</ele>
        <time>2020-02-22T14:25:28Z</time>
      </trkpt>
      <trkpt lat="38.7283200" lon="1.4467330">
        <ele>0.1</ele>
        <time>2020-02-22T14:25:29Z</time>
      </trkpt>
      <trkpt lat="38.7284120" lon="1.4466680">
        <ele>-0.9</ele>
        <time>2020-02-22T14:25:30Z</time>
      </trkpt>
      <trkpt lat="38.7285020" lon="1.4466050">
        <ele>-0.9</ele>
        <time>2020-02-22T14:25:31Z</time>
      </trkpt>
      <trkpt lat="38.7285020" lon="1.4466050">
        <ele>-0.9</ele>
        <time>2020-02-22T14:25:32Z</time>
      </trkpt>
      <trkpt lat="38.7286770" lon="1.4464830">
        <ele>-0.9</ele>
        <time>2020-02-22T14:25:33Z</time>
      </trkpt>
      <trkpt lat="38.7287620" lon="1.4464250">
        <ele>-0.9</ele>
        <time>2020-02-22T14:25:34Z</time>
      </trkpt>
      <trkpt lat="38.7288450" lon="1.4463630">
        <ele>-0.9</ele>
        <time>2020-02-22T14:25:35Z</time>
      </trkpt>
      <trkpt lat="38.7288450" lon="1.4463630">
        <ele>-1.9</ele>
        <time>2020-02-22T14:25:36Z</time>
      </trkpt>
      <trkpt lat="38.7290120" lon="1.4462470">
        <ele>-1.9</ele>
        <time>2020-02-22T14:25:37Z</time>
      </trkpt>
      <trkpt lat="38.7290970" lon="1.4461850">
        <ele>-1.9</ele>
        <time>2020-02-22T14:25:38Z</time>
      </trkpt>
      <trkpt lat="38.7290970" lon="1.4461850">
        <ele>-1.9</ele>
        <time>2020-02-22T14:25:39Z</time>
      </trkpt>
      <trkpt lat="38.7292630" lon="1.4460620">
        <ele>-1.9</ele>
        <time>2020-02-22T14:25:40Z</time>
      </trkpt>
      <trkpt lat="38.7292630" lon="1.4460620">
        <ele>-1.9</ele>
        <time>2020-02-22T14:25:41Z</time>
      </trkpt>
      <trkpt lat="38.7294320" lon="1.4459370">
        <ele>-1.9</ele>
        <time>2020-02-22T14:25:42Z</time>
      </trkpt>
      <trkpt lat="38.7295120" lon="1.4458680">
        <ele>-1.9</ele>
        <time>2020-02-22T14:25:43Z</time>
      </trkpt>
      <trkpt lat="38.7295120" lon="1.4458680">
        <ele>-1.9</ele>
        <time>2020-02-22T14:25:44Z</time>
      </trkpt>
      <trkpt lat="38.7296650" lon="1.4457270">
        <ele>-1.9</ele>
        <time>2020-02-22T14:25:45Z</time>
      </trkpt>
      <trkpt lat="38.7296650" lon="1.4457270">
        <ele>-1.9</ele>
        <time>2020-02-22T14:25:46Z</time>
      </trkpt>
      <trkpt lat="38.7298100" lon="1.4455680">
        <ele>-1.9</ele>
        <time>2020-02-22T14:25:47Z</time>
      </trkpt>
      <trkpt lat="38.7298100" lon="1.4455680">
        <ele>-1.9</ele>
        <time>2020-02-22T14:25:48Z</time>
      </trkpt>
      <trkpt lat="38.7299370" lon="1.4453820">
        <ele>-1.9</ele>
        <time>2020-02-22T14:25:49Z</time>
      </trkpt>
      <trkpt lat="38.7299370" lon="1.4453820">
        <ele>-1.9</ele>
        <time>2020-02-22T14:25:50Z</time>
      </trkpt>
      <trkpt lat="38.7300370" lon="1.4451730">
        <ele>-1.9</ele>
        <time>2020-02-22T14:25:51Z</time>
      </trkpt>
      <trkpt lat="38.7300370" lon="1.4451730">
        <ele>-1.9</ele>
        <time>2020-02-22T14:25:52Z</time>
      </trkpt>
      <trkpt lat="38.7301270" lon="1.4449700">
        <ele>-1.9</ele>
        <time>2020-02-22T14:25:53Z</time>
      </trkpt>
      <trkpt lat="38.7301270" lon="1.4449700">
        <ele>-1.9</ele>
        <time>2020-02-22T14:25:54Z</time>
      </trkpt>
      <trkpt lat="38.7302220" lon="1.4447700">
        <ele>-1.9</ele>
        <time>2020-02-22T14:25:55Z</time>
      </trkpt>
      <trkpt lat="38.7302720" lon="1.4446700">
        <ele>-1.9</ele>
        <time>2020-02-22T14:25:56Z</time>
      </trkpt>
      <trkpt lat="38.7302720" lon="1.4446700">
        <ele>-1.9</ele>
        <time>2020-02-22T14:25:57Z</time>
      </trkpt>
      <trkpt lat="38.7303880" lon="1.4444900">
        <ele>-1.9</ele>
        <time>2020-02-22T14:25:58Z</time>
      </trkpt>
      <trkpt lat="38.7303880" lon="1.4444900">
        <ele>-1.9</ele>
        <time>2020-02-22T14:25:59Z</time>
      </trkpt>
      <trkpt lat="38.7305250" lon="1.4443320">
        <ele>-1.9</ele>
        <time>2020-02-22T14:26:00Z</time>
      </trkpt>
      <trkpt lat="38.7305950" lon="1.4442550">
        <ele>-1.9</ele>
        <time>2020-02-22T14:26:01Z</time>
      </trkpt>
      <trkpt lat="38.7305950" lon="1.4442550">
        <ele>-1.9</ele>
        <time>2020-02-22T14:26:02Z</time>
      </trkpt>
      <trkpt lat="38.7307420" lon="1.4440970">
        <ele>-1.9</ele>
        <time>2020-02-22T14:26:03Z</time>
      </trkpt>
      <trkpt lat="38.7308150" lon="1.4440170">
        <ele>-1.9</ele>
        <time>2020-02-22T14:26:04Z</time>
      </trkpt>
      <trkpt lat="38.7308150" lon="1.4440170">
        <ele>-1.9</ele>
        <time>2020-02-22T14:26:05Z</time>
      </trkpt>
      <trkpt lat="38.7309580" lon="1.4438600">
        <ele>-1.9</ele>
        <time>2020-02-22T14:26:06Z</time>
      </trkpt>
      <trkpt lat="38.7310320" lon="1.4437820">
        <ele>-1.9</ele>
        <time>2020-02-22T14:26:07Z</time>
      </trkpt>
      <trkpt lat="38.7310320" lon="1.4437820">
        <ele>-1.9</ele>
        <time>2020-02-22T14:26:08Z</time>
      </trkpt>
      <trkpt lat="38.7311830" lon="1.4436250">
        <ele>-1.9</ele>
        <time>2020-02-22T14:26:09Z</time>
      </trkpt>
      <trkpt lat="38.7311830" lon="1.4436250">
        <ele>-1.9</ele>
        <time>2020-02-22T14:26:10Z</time>
      </trkpt>
      <trkpt lat="38.7313380" lon="1.4434680">
        <ele>-1.9</ele>
        <time>2020-02-22T14:26:11Z</time>
      </trkpt>
      <trkpt lat="38.7314180" lon="1.4433830">
        <ele>-1.9</ele>
        <time>2020-02-22T14:26:12Z</time>
      </trkpt>
      <trkpt lat="38.7314180" lon="1.4433830">
        <ele>-1.9</ele>
        <time>2020-02-22T14:26:13Z</time>
      </trkpt>
      <trkpt lat="38.7315730" lon="1.4432170">
        <ele>-1.9</ele>
        <time>2020-02-22T14:26:14Z</time>
      </trkpt>
      <trkpt lat="38.7316480" lon="1.4431300">
        <ele>-1.9</ele>
        <time>2020-02-22T14:26:15Z</time>
      </trkpt>
      <trkpt lat="38.7316480" lon="1.4431300">
        <ele>-1.9</ele>
        <time>2020-02-22T14:26:16Z</time>
      </trkpt>
      <trkpt lat="38.7317920" lon="1.4429470">
        <ele>-1.9</ele>
        <time>2020-02-22T14:26:17Z</time>
      </trkpt>
      <trkpt lat="38.7317920" lon="1.4429470">
        <ele>-1.9</ele>
        <time>2020-02-22T14:26:18Z</time>
      </trkpt>
      <trkpt lat="38.7319280" lon="1.4427550">
        <ele>-1.9</ele>
        <time>2020-02-22T14:26:19Z</time>
      </trkpt>
      <trkpt lat="38.7319280" lon="1.4427550">
        <ele>-1.9</ele>
        <time>2020-02-22T14:26:20Z</time>
      </trkpt>
      <trkpt lat="38.7320420" lon="1.4425380">
        <ele>-1.9</ele>
        <time>2020-02-22T14:26:21Z</time>
      </trkpt>
      <trkpt lat="38.7320420" lon="1.4425380">
        <ele>-1.9</ele>
        <time>2020-02-22T14:26:22Z</time>
      </trkpt>
      <trkpt lat="38.7320930" lon="1.4422900">
        <ele>-1.9</ele>
        <time>2020-02-22T14:26:23Z</time>
      </trkpt>
      <trkpt lat="38.7320930" lon="1.4422900">
        <ele>-1.9</ele>
        <time>2020-02-22T14:26:24Z</time>
      </trkpt>
      <trkpt lat="38.7321000" lon="1.4420330">
        <ele>-1.9</ele>
        <time>2020-02-22T14:26:25Z</time>
      </trkpt>
      <trkpt lat="38.7321000" lon="1.4420330">
        <ele>-1.9</ele>
        <time>2020-02-22T14:26:26Z</time>
      </trkpt>
      <trkpt lat="38.7320850" lon="1.4417850">
        <ele>-1.9</ele>
        <time>2020-02-22T14:26:27Z</time>
      </trkpt>
      <trkpt lat="38.7320770" lon="1.4416650">
        <ele>-1.9</ele>
        <time>2020-02-22T14:26:28Z</time>
      </trkpt>
      <trkpt lat="38.7320770" lon="1.4416650">
        <ele>-1.9</ele>
        <time>2020-02-22T14:26:29Z</time>
      </trkpt>
      <trkpt lat="38.7320720" lon="1.4414300">
        <ele>-1.9</ele>
        <time>2020-02-22T14:26:30Z</time>
      </trkpt>
      <trkpt lat="38.7320720" lon="1.4414300">
        <ele>-1.9</ele>
        <time>2020-02-22T14:26:31Z</time>
      </trkpt>
      <trkpt lat="38.7320920" lon="1.4412020">
        <ele>-1.9</ele>
        <time>2020-02-22T14:26:32Z</time>
      </trkpt>
      <trkpt lat="38.7320920" lon="1.4412020">
        <ele>-1.9</ele>
        <time>2020-02-22T14:26:33Z</time>
      </trkpt>
      <trkpt lat="38.7321480" lon="1.4409830">
        <ele>-1.9</ele>
        <time>2020-02-22T14:26:34Z</time>
      </trkpt>
      <trkpt lat="38.7321480" lon="1.4409830">
        <ele>-1.9</ele>
        <time>2020-02-22T14:26:35Z</time>
      </trkpt>
      <trkpt lat="38.7322330" lon="1.4407870">
        <ele>-1.9</ele>
        <time>2020-02-22T14:26:36Z</time>
      </trkpt>
      <trkpt lat="38.7322820" lon="1.4406930">
        <ele>-1.9</ele>
        <time>2020-02-22T14:26:37Z</time>
      </trkpt>
      <trkpt lat="38.7322820" lon="1.4406930">
        <ele>-1.9</ele>
        <time>2020-02-22T14:26:38Z</time>
      </trkpt>
      <trkpt lat="38.7323800" lon="1.4405030">
        <ele>-1.9</ele>
        <time>2020-02-22T14:26:39Z</time>
      </trkpt>
      <trkpt lat="38.7324320" lon="1.4404120">
        <ele>-1.9</ele>
        <time>2020-02-22T14:26:40Z</time>
      </trkpt>
      <trkpt lat="38.7324870" lon="1.4403270">
        <ele>-1.9</ele>
        <time>2020-02-22T14:26:41Z</time>
      </trkpt>
      <trkpt lat="38.7324870" lon="1.4403270">
        <ele>-1.9</ele>
        <time>2020-02-22T14:26:42Z</time>
      </trkpt>
      <trkpt lat="38.7326230" lon="1.4401880">
        <ele>-1.9</ele>
        <time>2020-02-22T14:26:43Z</time>
      </trkpt>
      <trkpt lat="38.7326230" lon="1.4401880">
        <ele>-1.9</ele>
        <time>2020-02-22T14:26:44Z</time>
      </trkpt>
      <trkpt lat="38.7327820" lon="1.4400880">
        <ele>-1.9</ele>
        <time>2020-02-22T14:26:45Z</time>
      </trkpt>
      <trkpt lat="38.7327820" lon="1.4400880">
        <ele>-1.9</ele>
        <time>2020-02-22T14:26:46Z</time>
      </trkpt>
      <trkpt lat="38.7329430" lon="1.4399930">
        <ele>-1.9</ele>
        <time>2020-02-22T14:26:47Z</time>
      </trkpt>
      <trkpt lat="38.7329430" lon="1.4399930">
        <ele>-1.9</ele>
        <time>2020-02-22T14:26:48Z</time>
      </trkpt>
      <trkpt lat="38.7330900" lon="1.4398730">
        <ele>-1.9</ele>
        <time>2020-02-22T14:26:49Z</time>
      </trkpt>
      <trkpt lat="38.7331570" lon="1.4398000">
        <ele>-1.9</ele>
        <time>2020-02-22T14:26:50Z</time>
      </trkpt>
      <trkpt lat="38.7331570" lon="1.4398000">
        <ele>-1.9</ele>
        <time>2020-02-22T14:26:51Z</time>
      </trkpt>
      <trkpt lat="38.7332830" lon="1.4396480">
        <ele>-1.9</ele>
        <time>2020-02-22T14:26:52Z</time>
      </trkpt>
      <trkpt lat="38.7332830" lon="1.4396480">
        <ele>-1.9</ele>
        <time>2020-02-22T14:26:53Z</time>
      </trkpt>
      <trkpt lat="38.7334130" lon="1.4395050">
        <ele>-1.9</ele>
        <time>2020-02-22T14:26:54Z</time>
      </trkpt>
      <trkpt lat="38.7334830" lon="1.4394420">
        <ele>-1.9</ele>
        <time>2020-02-22T14:26:55Z</time>
      </trkpt>
      <trkpt lat="38.7334830" lon="1.4394420">
        <ele>-1.9</ele>
        <time>2020-02-22T14:26:56Z</time>
      </trkpt>
      <trkpt lat="38.7336300" lon="1.4393350">
        <ele>-1.9</ele>
        <time>2020-02-22T14:26:57Z</time>
      </trkpt>
      <trkpt lat="38.7337080" lon="1.4393000">
        <ele>-1.9</ele>
        <time>2020-02-22T14:26:58Z</time>
      </trkpt>
      <trkpt lat="38.7337080" lon="1.4393000">
        <ele>-1.9</ele>
        <time>2020-02-22T14:26:59Z</time>
      </trkpt>
      <trkpt lat="38.7338730" lon="1.4392670">
        <ele>-1.9</ele>
        <time>2020-02-22T14:27:00Z</time>
      </trkpt>
      <trkpt lat="38.7339580" lon="1.4392580">
        <ele>-1.9</ele>
        <time>2020-02-22T14:27:01Z</time>
      </trkpt>
      <trkpt lat="38.7339580" lon="1.4392580">
        <ele>-0.9</ele>
        <time>2020-02-22T14:27:02Z</time>
      </trkpt>
      <trkpt lat="38.7341270" lon="1.4392430">
        <ele>-0.9</ele>
        <time>2020-02-22T14:27:03Z</time>
      </trkpt>
      <trkpt lat="38.7342120" lon="1.4392300">
        <ele>-0.9</ele>
        <time>2020-02-22T14:27:04Z</time>
      </trkpt>
      <trkpt lat="38.7342120" lon="1.4392300">
        <ele>-0.9</ele>
        <time>2020-02-22T14:27:05Z</time>
      </trkpt>
      <trkpt lat="38.7343780" lon="1.4391780">
        <ele>-0.9</ele>
        <time>2020-02-22T14:27:06Z</time>
      </trkpt>
      <trkpt lat="38.7344580" lon="1.4391400">
        <ele>-0.9</ele>
        <time>2020-02-22T14:27:07Z</time>
      </trkpt>
      <trkpt lat="38.7344580" lon="1.4391400">
        <ele>-0.9</ele>
        <time>2020-02-22T14:27:08Z</time>
      </trkpt>
      <trkpt lat="38.7346130" lon="1.4390450">
        <ele>-0.9</ele>
        <time>2020-02-22T14:27:09Z</time>
      </trkpt>
      <trkpt lat="38.7346130" lon="1.4390450">
        <ele>-0.9</ele>
        <time>2020-02-22T14:27:10Z</time>
      </trkpt>
      <trkpt lat="38.7347630" lon="1.4389350">
        <ele>-0.9</ele>
        <time>2020-02-22T14:27:11Z</time>
      </trkpt>
      <trkpt lat="38.7347630" lon="1.4389350">
        <ele>-0.9</ele>
        <time>2020-02-22T14:27:12Z</time>
      </trkpt>
      <trkpt lat="38.7349100" lon="1.4388170">
        <ele>-0.9</ele>
        <time>2020-02-22T14:27:13Z</time>
      </trkpt>
      <trkpt lat="38.7349100" lon="1.4388170">
        <ele>-0.9</ele>
        <time>2020-02-22T14:27:14Z</time>
      </trkpt>
      <trkpt lat="38.7350550" lon="1.4386930">
        <ele>-0.9</ele>
        <time>2020-02-22T14:27:15Z</time>
      </trkpt>
      <trkpt lat="38.7350550" lon="1.4386930">
        <ele>-0.9</ele>
        <time>2020-02-22T14:27:16Z</time>
      </trkpt>
      <trkpt lat="38.7352030" lon="1.4385630">
        <ele>-0.9</ele>
        <time>2020-02-22T14:27:17Z</time>
      </trkpt>
      <trkpt lat="38.7352030" lon="1.4385630">
        <ele>-0.9</ele>
        <time>2020-02-22T14:27:18Z</time>
      </trkpt>
      <trkpt lat="38.7353480" lon="1.4384370">
        <ele>-0.9</ele>
        <time>2020-02-22T14:27:19Z</time>
      </trkpt>
      <trkpt lat="38.7353480" lon="1.4384370">
        <ele>-0.9</ele>
        <time>2020-02-22T14:27:20Z</time>
      </trkpt>
      <trkpt lat="38.7354930" lon="1.4383170">
        <ele>-0.9</ele>
        <time>2020-02-22T14:27:21Z</time>
      </trkpt>
      <trkpt lat="38.7354930" lon="1.4383170">
        <ele>-0.9</ele>
        <time>2020-02-22T14:27:22Z</time>
      </trkpt>
      <trkpt lat="38.7356370" lon="1.4381930">
        <ele>-0.9</ele>
        <time>2020-02-22T14:27:23Z</time>
      </trkpt>
      <trkpt lat="38.7356370" lon="1.4381930">
        <ele>-0.9</ele>
        <time>2020-02-22T14:27:24Z</time>
      </trkpt>
      <trkpt lat="38.7357800" lon="1.4380700">
        <ele>-0.9</ele>
        <time>2020-02-22T14:27:25Z</time>
      </trkpt>
      <trkpt lat="38.7358520" lon="1.4380050">
        <ele>-0.9</ele>
        <time>2020-02-22T14:27:26Z</time>
      </trkpt>
      <trkpt lat="38.7358520" lon="1.4380050">
        <ele>-0.9</ele>
        <time>2020-02-22T14:27:27Z</time>
      </trkpt>
      <trkpt lat="38.7359970" lon="1.4378730">
        <ele>-0.9</ele>
        <time>2020-02-22T14:27:28Z</time>
      </trkpt>
      <trkpt lat="38.7359970" lon="1.4378730">
        <ele>-0.9</ele>
        <time>2020-02-22T14:27:29Z</time>
      </trkpt>
      <trkpt lat="38.7361370" lon="1.4377480">
        <ele>-0.9</ele>
        <time>2020-02-22T14:27:30Z</time>
      </trkpt>
      <trkpt lat="38.7361370" lon="1.4377480">
        <ele>-0.9</ele>
        <time>2020-02-22T14:27:31Z</time>
      </trkpt>
      <trkpt lat="38.7362730" lon="1.4376180">
        <ele>-0.9</ele>
        <time>2020-02-22T14:27:32Z</time>
      </trkpt>
      <trkpt lat="38.7363380" lon="1.4375480">
        <ele>-0.9</ele>
        <time>2020-02-22T14:27:33Z</time>
      </trkpt>
      <trkpt lat="38.7363380" lon="1.4375480">
        <ele>-0.9</ele>
        <time>2020-02-22T14:27:34Z</time>
      </trkpt>
      <trkpt lat="38.7364580" lon="1.4373900">
        <ele>-0.9</ele>
        <time>2020-02-22T14:27:35Z</time>
      </trkpt>
      <trkpt lat="38.7364580" lon="1.4373900">
        <ele>-0.9</ele>
        <time>2020-02-22T14:27:36Z</time>
      </trkpt>
      <trkpt lat="38.7365680" lon="1.4372170">
        <ele>-0.9</ele>
        <time>2020-02-22T14:27:37Z</time>
      </trkpt>
      <trkpt lat="38.7365680" lon="1.4372170">
        <ele>-0.9</ele>
        <time>2020-02-22T14:27:38Z</time>
      </trkpt>
      <trkpt lat="38.7366700" lon="1.4370450">
        <ele>-0.9</ele>
        <time>2020-02-22T14:27:39Z</time>
      </trkpt>
      <trkpt lat="38.7366700" lon="1.4370450">
        <ele>-0.9</ele>
        <time>2020-02-22T14:27:40Z</time>
      </trkpt>
      <trkpt lat="38.7367730" lon="1.4368670">
        <ele>-0.9</ele>
        <time>2020-02-22T14:27:41Z</time>
      </trkpt>
      <trkpt lat="38.7367730" lon="1.4368670">
        <ele>-0.9</ele>
        <time>2020-02-22T14:27:42Z</time>
      </trkpt>
      <trkpt lat="38.7368780" lon="1.4366880">
        <ele>-0.9</ele>
        <time>2020-02-22T14:27:43Z</time>
      </trkpt>
      <trkpt lat="38.7369300" lon="1.4366020">
        <ele>-0.9</ele>
        <time>2020-02-22T14:27:44Z</time>
      </trkpt>
      <trkpt lat="38.7369300" lon="1.4366020">
        <ele>-0.9</ele>
        <time>2020-02-22T14:27:45Z</time>
      </trkpt>
      <trkpt lat="38.7370320" lon="1.4364220">
        <ele>-0.9</ele>
        <time>2020-02-22T14:27:46Z</time>
      </trkpt>
      <trkpt lat="38.7370320" lon="1.4364220">
        <ele>-0.9</ele>
        <time>2020-02-22T14:27:47Z</time>
      </trkpt>
      <trkpt lat="38.7371530" lon="1.4362580">
        <ele>-0.9</ele>
        <time>2020-02-22T14:27:48Z</time>
      </trkpt>
      <trkpt lat="38.7372220" lon="1.4361880">
        <ele>-0.9</ele>
        <time>2020-02-22T14:27:49Z</time>
      </trkpt>
      <trkpt lat="38.7372220" lon="1.4361880">
        <ele>-0.9</ele>
        <time>2020-02-22T14:27:50Z</time>
      </trkpt>
      <trkpt lat="38.7373630" lon="1.4360720">
        <ele>-0.9</ele>
        <time>2020-02-22T14:27:51Z</time>
      </trkpt>
      <trkpt lat="38.7373630" lon="1.4360720">
        <ele>-0.9</ele>
        <time>2020-02-22T14:27:52Z</time>
      </trkpt>
      <trkpt lat="38.7375100" lon="1.4359620">
        <ele>-0.9</ele>
        <time>2020-02-22T14:27:53Z</time>
      </trkpt>
      <trkpt lat="38.7375830" lon="1.4359100">
        <ele>-0.9</ele>
        <time>2020-02-22T14:27:54Z</time>
      </trkpt>
      <trkpt lat="38.7376550" lon="1.4358570">
        <ele>-0.9</ele>
        <time>2020-02-22T14:27:55Z</time>
      </trkpt>
      <trkpt lat="38.7376550" lon="1.4358570">
        <ele>-0.9</ele>
        <time>2020-02-22T14:27:56Z</time>
      </trkpt>
      <trkpt lat="38.7378020" lon="1.4357500">
        <ele>-0.9</ele>
        <time>2020-02-22T14:27:57Z</time>
      </trkpt>
      <trkpt lat="38.7378020" lon="1.4357500">
        <ele>-0.9</ele>
        <time>2020-02-22T14:27:58Z</time>
      </trkpt>
      <trkpt lat="38.7379530" lon="1.4356370">
        <ele>-0.9</ele>
        <time>2020-02-22T14:27:59Z</time>
      </trkpt>
      <trkpt lat="38.7379530" lon="1.4356370">
        <ele>-0.9</ele>
        <time>2020-02-22T14:28:00Z</time>
      </trkpt>
      <trkpt lat="38.7381050" lon="1.4355150">
        <ele>-0.9</ele>
        <time>2020-02-22T14:28:01Z</time>
      </trkpt>
      <trkpt lat="38.7381800" lon="1.4354500">
        <ele>-0.9</ele>
        <time>2020-02-22T14:28:02Z</time>
      </trkpt>
      <trkpt lat="38.7381800" lon="1.4354500">
        <ele>-0.9</ele>
        <time>2020-02-22T14:28:03Z</time>
      </trkpt>
      <trkpt lat="38.7383070" lon="1.4352770">
        <ele>-0.9</ele>
        <time>2020-02-22T14:28:04Z</time>
      </trkpt>
      <trkpt lat="38.7383070" lon="1.4352770">
        <ele>-0.9</ele>
        <time>2020-02-22T14:28:05Z</time>
      </trkpt>
      <trkpt lat="38.7383900" lon="1.4350650">
        <ele>-0.9</ele>
        <time>2020-02-22T14:28:06Z</time>
      </trkpt>
      <trkpt lat="38.7383900" lon="1.4350650">
        <ele>-0.9</ele>
        <time>2020-02-22T14:28:07Z</time>
      </trkpt>
      <trkpt lat="38.7384580" lon="1.4348480">
        <ele>-0.9</ele>
        <time>2020-02-22T14:28:08Z</time>
      </trkpt>
      <trkpt lat="38.7384580" lon="1.4348480">
        <ele>-0.9</ele>
        <time>2020-02-22T14:28:09Z</time>
      </trkpt>
      <trkpt lat="38.7385230" lon="1.4346380">
        <ele>-0.9</ele>
        <time>2020-02-22T14:28:10Z</time>
      </trkpt>
      <trkpt lat="38.7385230" lon="1.4346380">
        <ele>-0.9</ele>
        <time>2020-02-22T14:28:11Z</time>
      </trkpt>
      <trkpt lat="38.7385970" lon="1.4344320">
        <ele>-0.9</ele>
        <time>2020-02-22T14:28:12Z</time>
      </trkpt>
      <trkpt lat="38.7386350" lon="1.4343320">
        <ele>-1.9</ele>
        <time>2020-02-22T14:28:13Z</time>
      </trkpt>
      <trkpt lat="38.7386350" lon="1.4343320">
        <ele>-1.9</ele>
        <time>2020-02-22T14:28:14Z</time>
      </trkpt>
      <trkpt lat="38.7387070" lon="1.4341330">
        <ele>-1.9</ele>
        <time>2020-02-22T14:28:15Z</time>
      </trkpt>
      <trkpt lat="38.7387450" lon="1.4340370">
        <ele>-1.9</ele>
        <time>2020-02-22T14:28:16Z</time>
      </trkpt>
      <trkpt lat="38.7387450" lon="1.4340370">
        <ele>-1.9</ele>
        <time>2020-02-22T14:28:17Z</time>
      </trkpt>
      <trkpt lat="38.7388170" lon="1.4338350">
        <ele>-1.9</ele>
        <time>2020-02-22T14:28:18Z</time>
      </trkpt>
      <trkpt lat="38.7388530" lon="1.4337380">
        <ele>-1.9</ele>
        <time>2020-02-22T14:28:19Z</time>
      </trkpt>
      <trkpt lat="38.7388900" lon="1.4336450">
        <ele>-1.9</ele>
        <time>2020-02-22T14:28:20Z</time>
      </trkpt>
      <trkpt lat="38.7388900" lon="1.4336450">
        <ele>-1.9</ele>
        <time>2020-02-22T14:28:21Z</time>
      </trkpt>
      <trkpt lat="38.7389550" lon="1.4334530">
        <ele>-1.9</ele>
        <time>2020-02-22T14:28:22Z</time>
      </trkpt>
      <trkpt lat="38.7389550" lon="1.4334530">
        <ele>-1.9</ele>
        <time>2020-02-22T14:28:23Z</time>
      </trkpt>
      <trkpt lat="38.7390070" lon="1.4332530">
        <ele>-1.9</ele>
        <time>2020-02-22T14:28:24Z</time>
      </trkpt>
      <trkpt lat="38.7390320" lon="1.4331470">
        <ele>-1.9</ele>
        <time>2020-02-22T14:28:25Z</time>
      </trkpt>
      <trkpt lat="38.7390320" lon="1.4331470">
        <ele>-1.9</ele>
        <time>2020-02-22T14:28:26Z</time>
      </trkpt>
      <trkpt lat="38.7390420" lon="1.4329220">
        <ele>-1.9</ele>
        <time>2020-02-22T14:28:27Z</time>
      </trkpt>
      <trkpt lat="38.7390420" lon="1.4329220">
        <ele>-1.9</ele>
        <time>2020-02-22T14:28:28Z</time>
      </trkpt>
      <trkpt lat="38.7390020" lon="1.4327070">
        <ele>-1.9</ele>
        <time>2020-02-22T14:28:29Z</time>
      </trkpt>
      <trkpt lat="38.7390020" lon="1.4327070">
        <ele>-1.9</ele>
        <time>2020-02-22T14:28:30Z</time>
      </trkpt>
      <trkpt lat="38.7389120" lon="1.4325180">
        <ele>-1.9</ele>
        <time>2020-02-22T14:28:31Z</time>
      </trkpt>
      <trkpt lat="38.7389120" lon="1.4325180">
        <ele>-1.9</ele>
        <time>2020-02-22T14:28:32Z</time>
      </trkpt>
      <trkpt lat="38.7387820" lon="1.4323570">
        <ele>-1.9</ele>
        <time>2020-02-22T14:28:33Z</time>
      </trkpt>
      <trkpt lat="38.7387820" lon="1.4323570">
        <ele>-1.9</ele>
        <time>2020-02-22T14:28:34Z</time>
      </trkpt>
      <trkpt lat="38.7386400" lon="1.4322150">
        <ele>-1.9</ele>
        <time>2020-02-22T14:28:35Z</time>
      </trkpt>
      <trkpt lat="38.7386400" lon="1.4322150">
        <ele>-1.9</ele>
        <time>2020-02-22T14:28:36Z</time>
      </trkpt>
      <trkpt lat="38.7384930" lon="1.4320770">
        <ele>-1.9</ele>
        <time>2020-02-22T14:28:37Z</time>
      </trkpt>
      <trkpt lat="38.7384930" lon="1.4320770">
        <ele>-1.9</ele>
        <time>2020-02-22T14:28:38Z</time>
      </trkpt>
      <trkpt lat="38.7383320" lon="1.4319350">
        <ele>-1.9</ele>
        <time>2020-02-22T14:28:39Z</time>
      </trkpt>
      <trkpt lat="38.7383320" lon="1.4319350">
        <ele>-1.9</ele>
        <time>2020-02-22T14:28:40Z</time>
      </trkpt>
      <trkpt lat="38.7381680" lon="1.4317930">
        <ele>-1.9</ele>
        <time>2020-02-22T14:28:41Z</time>
      </trkpt>
      <trkpt lat="38.7381680" lon="1.4317930">
        <ele>-1.9</ele>
        <time>2020-02-22T14:28:42Z</time>
      </trkpt>
      <trkpt lat="38.7380080" lon="1.4316570">
        <ele>-1.9</ele>
        <time>2020-02-22T14:28:43Z</time>
      </trkpt>
      <trkpt lat="38.7380080" lon="1.4316570">
        <ele>-1.9</ele>
        <time>2020-02-22T14:28:44Z</time>
      </trkpt>
      <trkpt lat="38.7378500" lon="1.4315300">
        <ele>-1.9</ele>
        <time>2020-02-22T14:28:45Z</time>
      </trkpt>
      <trkpt lat="38.7378500" lon="1.4315300">
        <ele>-1.9</ele>
        <time>2020-02-22T14:28:46Z</time>
      </trkpt>
      <trkpt lat="38.7376930" lon="1.4314100">
        <ele>-1.9</ele>
        <time>2020-02-22T14:28:47Z</time>
      </trkpt>
      <trkpt lat="38.7376930" lon="1.4314100">
        <ele>-1.9</ele>
        <time>2020-02-22T14:28:48Z</time>
      </trkpt>
      <trkpt lat="38.7375350" lon="1.4312830">
        <ele>-1.9</ele>
        <time>2020-02-22T14:28:49Z</time>
      </trkpt>
      <trkpt lat="38.7375350" lon="1.4312830">
        <ele>-1.9</ele>
        <time>2020-02-22T14:28:50Z</time>
      </trkpt>
      <trkpt lat="38.7373730" lon="1.4311570">
        <ele>-1.9</ele>
        <time>2020-02-22T14:28:51Z</time>
      </trkpt>
      <trkpt lat="38.7373730" lon="1.4311570">
        <ele>-1.9</ele>
        <time>2020-02-22T14:28:52Z</time>
      </trkpt>
      <trkpt lat="38.7372170" lon="1.4310330">
        <ele>-1.9</ele>
        <time>2020-02-22T14:28:53Z</time>
      </trkpt>
      <trkpt lat="38.7372170" lon="1.4310330">
        <ele>-1.9</ele>
        <time>2020-02-22T14:28:54Z</time>
      </trkpt>
      <trkpt lat="38.7370620" lon="1.4309120">
        <ele>-1.9</ele>
        <time>2020-02-22T14:28:55Z</time>
      </trkpt>
      <trkpt lat="38.7370620" lon="1.4309120">
        <ele>-1.9</ele>
        <time>2020-02-22T14:28:56Z</time>
      </trkpt>
      <trkpt lat="38.7369120" lon="1.4307880">
        <ele>-1.9</ele>
        <time>2020-02-22T14:28:57Z</time>
      </trkpt>
      <trkpt lat="38.7368350" lon="1.4307250">
        <ele>-1.9</ele>
        <time>2020-02-22T14:28:58Z</time>
      </trkpt>
      <trkpt lat="38.7368350" lon="1.4307250">
        <ele>-1.9</ele>
        <time>2020-02-22T14:28:59Z</time>
      </trkpt>
      <trkpt lat="38.7366880" lon="1.4305800">
        <ele>-1.9</ele>
        <time>2020-02-22T14:29:00Z</time>
      </trkpt>
      <trkpt lat="38.7366880" lon="1.4305800">
        <ele>-1.9</ele>
        <time>2020-02-22T14:29:01Z</time>
      </trkpt>
      <trkpt lat="38.7365720" lon="1.4303970">
        <ele>-1.9</ele>
        <time>2020-02-22T14:29:02Z</time>
      </trkpt>
      <trkpt lat="38.7365720" lon="1.4303970">
        <ele>-1.9</ele>
        <time>2020-02-22T14:29:03Z</time>
      </trkpt>
      <trkpt lat="38.7364870" lon="1.4301870">
        <ele>-1.9</ele>
        <time>2020-02-22T14:29:04Z</time>
      </trkpt>
      <trkpt lat="38.7364520" lon="1.4300780">
        <ele>-1.9</ele>
        <time>2020-02-22T14:29:05Z</time>
      </trkpt>
      <trkpt lat="38.7364520" lon="1.4300780">
        <ele>-1.9</ele>
        <time>2020-02-22T14:29:06Z</time>
      </trkpt>
      <trkpt lat="38.7363880" lon="1.4298570">
        <ele>-1.9</ele>
        <time>2020-02-22T14:29:07Z</time>
      </trkpt>
      <trkpt lat="38.7363880" lon="1.4298570">
        <ele>-1.9</ele>
        <time>2020-02-22T14:29:08Z</time>
      </trkpt>
      <trkpt lat="38.7363230" lon="1.4296300">
        <ele>-1.9</ele>
        <time>2020-02-22T14:29:09Z</time>
      </trkpt>
      <trkpt lat="38.7363230" lon="1.4296300">
        <ele>-1.9</ele>
        <time>2020-02-22T14:29:10Z</time>
      </trkpt>
      <trkpt lat="38.7362580" lon="1.4293980">
        <ele>-1.9</ele>
        <time>2020-02-22T14:29:11Z</time>
      </trkpt>
      <trkpt lat="38.7362270" lon="1.4292830">
        <ele>-1.9</ele>
        <time>2020-02-22T14:29:12Z</time>
      </trkpt>
      <trkpt lat="38.7362270" lon="1.4292830">
        <ele>-1.9</ele>
        <time>2020-02-22T14:29:13Z</time>
      </trkpt>
      <trkpt lat="38.7361620" lon="1.4290530">
        <ele>-1.9</ele>
        <time>2020-02-22T14:29:14Z</time>
      </trkpt>
      <trkpt lat="38.7361620" lon="1.4290530">
        <ele>-1.9</ele>
        <time>2020-02-22T14:29:15Z</time>
      </trkpt>
      <trkpt lat="38.7360770" lon="1.4288450">
        <ele>-1.9</ele>
        <time>2020-02-22T14:29:16Z</time>
      </trkpt>
      <trkpt lat="38.7360770" lon="1.4288450">
        <ele>-1.9</ele>
        <time>2020-02-22T14:29:17Z</time>
      </trkpt>
      <trkpt lat="38.7359630" lon="1.4286570">
        <ele>-1.9</ele>
        <time>2020-02-22T14:29:18Z</time>
      </trkpt>
      <trkpt lat="38.7359030" lon="1.4285730">
        <ele>-1.9</ele>
        <time>2020-02-22T14:29:19Z</time>
      </trkpt>
      <trkpt lat="38.7359030" lon="1.4285730">
        <ele>-1.9</ele>
        <time>2020-02-22T14:29:20Z</time>
      </trkpt>
      <trkpt lat="38.7357680" lon="1.4284230">
        <ele>-1.9</ele>
        <time>2020-02-22T14:29:21Z</time>
      </trkpt>
      <trkpt lat="38.7357680" lon="1.4284230">
        <ele>-1.9</ele>
        <time>2020-02-22T14:29:22Z</time>
      </trkpt>
      <trkpt lat="38.7356320" lon="1.4282750">
        <ele>-1.9</ele>
        <time>2020-02-22T14:29:23Z</time>
      </trkpt>
      <trkpt lat="38.7356320" lon="1.4282750">
        <ele>-1.9</ele>
        <time>2020-02-22T14:29:24Z</time>
      </trkpt>
      <trkpt lat="38.7354930" lon="1.4281280">
        <ele>-1.9</ele>
        <time>2020-02-22T14:29:25Z</time>
      </trkpt>
      <trkpt lat="38.7354930" lon="1.4281280">
        <ele>-1.9</ele>
        <time>2020-02-22T14:29:26Z</time>
      </trkpt>
      <trkpt lat="38.7353570" lon="1.4279830">
        <ele>-1.9</ele>
        <time>2020-02-22T14:29:27Z</time>
      </trkpt>
      <trkpt lat="38.7352880" lon="1.4279100">
        <ele>-1.9</ele>
        <time>2020-02-22T14:29:28Z</time>
      </trkpt>
      <trkpt lat="38.7352880" lon="1.4279100">
        <ele>-1.9</ele>
        <time>2020-02-22T14:29:29Z</time>
      </trkpt>
      <trkpt lat="38.7351550" lon="1.4277630">
        <ele>-1.9</ele>
        <time>2020-02-22T14:29:30Z</time>
      </trkpt>
      <trkpt lat="38.7350870" lon="1.4276900">
        <ele>-1.9</ele>
        <time>2020-02-22T14:29:31Z</time>
      </trkpt>
      <trkpt lat="38.7350180" lon="1.4276170">
        <ele>-1.9</ele>
        <time>2020-02-22T14:29:32Z</time>
      </trkpt>
      <trkpt lat="38.7350180" lon="1.4276170">
        <ele>-1.9</ele>
        <time>2020-02-22T14:29:33Z</time>
      </trkpt>
      <trkpt lat="38.7348870" lon="1.4274680">
        <ele>-1.9</ele>
        <time>2020-02-22T14:29:34Z</time>
      </trkpt>
      <trkpt lat="38.7348870" lon="1.4274680">
        <ele>-1.9</ele>
        <time>2020-02-22T14:29:35Z</time>
      </trkpt>
      <trkpt lat="38.7347530" lon="1.4273170">
        <ele>-1.9</ele>
        <time>2020-02-22T14:29:36Z</time>
      </trkpt>
      <trkpt lat="38.7346880" lon="1.4272370">
        <ele>-1.9</ele>
        <time>2020-02-22T14:29:37Z</time>
      </trkpt>
      <trkpt lat="38.7346250" lon="1.4271550">
        <ele>-1.9</ele>
        <time>2020-02-22T14:29:38Z</time>
      </trkpt>
      <trkpt lat="38.7346250" lon="1.4271550">
        <ele>-1.9</ele>
        <time>2020-02-22T14:29:39Z</time>
      </trkpt>
      <trkpt lat="38.7344970" lon="1.4269850">
        <ele>-1.9</ele>
        <time>2020-02-22T14:29:40Z</time>
      </trkpt>
      <trkpt lat="38.7344970" lon="1.4269850">
        <ele>-1.9</ele>
        <time>2020-02-22T14:29:41Z</time>
      </trkpt>
      <trkpt lat="38.7343770" lon="1.4268100">
        <ele>-1.9</ele>
        <time>2020-02-22T14:29:42Z</time>
      </trkpt>
      <trkpt lat="38.7343170" lon="1.4267200">
        <ele>-1.9</ele>
        <time>2020-02-22T14:29:43Z</time>
      </trkpt>
      <trkpt lat="38.7343170" lon="1.4267200">
        <ele>-1.9</ele>
        <time>2020-02-22T14:29:44Z</time>
      </trkpt>
      <trkpt lat="38.7342000" lon="1.4265380">
        <ele>-1.9</ele>
        <time>2020-02-22T14:29:45Z</time>
      </trkpt>
      <trkpt lat="38.7342000" lon="1.4265380">
        <ele>-0.9</ele>
        <time>2020-02-22T14:29:46Z</time>
      </trkpt>
      <trkpt lat="38.7340850" lon="1.4263570">
        <ele>-0.9</ele>
        <time>2020-02-22T14:29:47Z</time>
      </trkpt>
      <trkpt lat="38.7340850" lon="1.4263570">
        <ele>-0.9</ele>
        <time>2020-02-22T14:29:48Z</time>
      </trkpt>
      <trkpt lat="38.7339730" lon="1.4261800">
        <ele>-0.9</ele>
        <time>2020-02-22T14:29:49Z</time>
      </trkpt>
      <trkpt lat="38.7339180" lon="1.4260920">
        <ele>-0.9</ele>
        <time>2020-02-22T14:29:50Z</time>
      </trkpt>
      <trkpt lat="38.7339180" lon="1.4260920">
        <ele>-0.9</ele>
        <time>2020-02-22T14:29:51Z</time>
      </trkpt>
      <trkpt lat="38.7338100" lon="1.4259230">
        <ele>-0.9</ele>
        <time>2020-02-22T14:29:52Z</time>
      </trkpt>
      <trkpt lat="38.7337580" lon="1.4258370">
        <ele>0.1</ele>
        <time>2020-02-22T14:29:53Z</time>
      </trkpt>
      <trkpt lat="38.7337580" lon="1.4258370">
        <ele>0.1</ele>
        <time>2020-02-22T14:29:54Z</time>
      </trkpt>
      <trkpt lat="38.7336680" lon="1.4256500">
        <ele>0.1</ele>
        <time>2020-02-22T14:29:55Z</time>
      </trkpt>
      <trkpt lat="38.7336680" lon="1.4256500">
        <ele>0.1</ele>
        <time>2020-02-22T14:29:56Z</time>
      </trkpt>
      <trkpt lat="38.7336080" lon="1.4254420">
        <ele>0.1</ele>
        <time>2020-02-22T14:29:57Z</time>
      </trkpt>
      <trkpt lat="38.7336080" lon="1.4254420">
        <ele>0.1</ele>
        <time>2020-02-22T14:29:58Z</time>
      </trkpt>
      <trkpt lat="38.7335650" lon="1.4252150">
        <ele>0.1</ele>
        <time>2020-02-22T14:29:59Z</time>
      </trkpt>
      <trkpt lat="38.7335450" lon="1.4251020">
        <ele>0.1</ele>
        <time>2020-02-22T14:30:00Z</time>
      </trkpt>
      <trkpt lat="38.7335450" lon="1.4251020">
        <ele>0.1</ele>
        <time>2020-02-22T14:30:01Z</time>
      </trkpt>
      <trkpt lat="38.7335020" lon="1.4248780">
        <ele>0.1</ele>
        <time>2020-02-22T14:30:02Z</time>
      </trkpt>
      <trkpt lat="38.7334800" lon="1.4247670">
        <ele>0.1</ele>
        <time>2020-02-22T14:30:03Z</time>
      </trkpt>
      <trkpt lat="38.7334800" lon="1.4247670">
        <ele>0.1</ele>
        <time>2020-02-22T14:30:04Z</time>
      </trkpt>
      <trkpt lat="38.7334280" lon="1.4245430">
        <ele>0.1</ele>
        <time>2020-02-22T14:30:05Z</time>
      </trkpt>
      <trkpt lat="38.7334280" lon="1.4245430">
        <ele>0.1</ele>
        <time>2020-02-22T14:30:06Z</time>
      </trkpt>
      <trkpt lat="38.7333350" lon="1.4243370">
        <ele>0.1</ele>
        <time>2020-02-22T14:30:07Z</time>
      </trkpt>
      <trkpt lat="38.7333350" lon="1.4243370">
        <ele>0.1</ele>
        <time>2020-02-22T14:30:08Z</time>
      </trkpt>
      <trkpt lat="38.7332030" lon="1.4241520">
        <ele>0.1</ele>
        <time>2020-02-22T14:30:09Z</time>
      </trkpt>
      <trkpt lat="38.7332030" lon="1.4241520">
        <ele>0.1</ele>
        <time>2020-02-22T14:30:10Z</time>
      </trkpt>
      <trkpt lat="38.7330630" lon="1.4239720">
        <ele>0.1</ele>
        <time>2020-02-22T14:30:11Z</time>
      </trkpt>
      <trkpt lat="38.7330630" lon="1.4239720">
        <ele>0.1</ele>
        <time>2020-02-22T14:30:12Z</time>
      </trkpt>
      <trkpt lat="38.7329200" lon="1.4237970">
        <ele>0.1</ele>
        <time>2020-02-22T14:30:13Z</time>
      </trkpt>
      <trkpt lat="38.7329200" lon="1.4237970">
        <ele>0.1</ele>
        <time>2020-02-22T14:30:14Z</time>
      </trkpt>
      <trkpt lat="38.7327730" lon="1.4236250">
        <ele>-0.9</ele>
        <time>2020-02-22T14:30:15Z</time>
      </trkpt>
      <trkpt lat="38.7327730" lon="1.4236250">
        <ele>-0.9</ele>
        <time>2020-02-22T14:30:16Z</time>
      </trkpt>
      <trkpt lat="38.7326230" lon="1.4234550">
        <ele>-0.9</ele>
        <time>2020-02-22T14:30:17Z</time>
      </trkpt>
      <trkpt lat="38.7326230" lon="1.4234550">
        <ele>-0.9</ele>
        <time>2020-02-22T14:30:18Z</time>
      </trkpt>
      <trkpt lat="38.7324750" lon="1.4232820">
        <ele>-0.9</ele>
        <time>2020-02-22T14:30:19Z</time>
      </trkpt>
      <trkpt lat="38.7324750" lon="1.4232820">
        <ele>-0.9</ele>
        <time>2020-02-22T14:30:20Z</time>
      </trkpt>
      <trkpt lat="38.7323280" lon="1.4231100">
        <ele>-0.9</ele>
        <time>2020-02-22T14:30:21Z</time>
      </trkpt>
      <trkpt lat="38.7323280" lon="1.4231100">
        <ele>-0.9</ele>
        <time>2020-02-22T14:30:22Z</time>
      </trkpt>
      <trkpt lat="38.7321930" lon="1.4229280">
        <ele>-0.9</ele>
        <time>2020-02-22T14:30:23Z</time>
      </trkpt>
      <trkpt lat="38.7321930" lon="1.4229280">
        <ele>-0.9</ele>
        <time>2020-02-22T14:30:24Z</time>
      </trkpt>
      <trkpt lat="38.7320780" lon="1.4227280">
        <ele>-0.9</ele>
        <time>2020-02-22T14:30:25Z</time>
      </trkpt>
      <trkpt lat="38.7320250" lon="1.4226250">
        <ele>-0.9</ele>
        <time>2020-02-22T14:30:26Z</time>
      </trkpt>
      <trkpt lat="38.7320250" lon="1.4226250">
        <ele>-0.9</ele>
        <time>2020-02-22T14:30:27Z</time>
      </trkpt>
      <trkpt lat="38.7319100" lon="1.4224250">
        <ele>-0.9</ele>
        <time>2020-02-22T14:30:28Z</time>
      </trkpt>
      <trkpt lat="38.7319100" lon="1.4224250">
        <ele>-0.9</ele>
        <time>2020-02-22T14:30:29Z</time>
      </trkpt>
      <trkpt lat="38.7317830" lon="1.4222400">
        <ele>-0.9</ele>
        <time>2020-02-22T14:30:30Z</time>
      </trkpt>
      <trkpt lat="38.7317130" lon="1.4221550">
        <ele>-0.9</ele>
        <time>2020-02-22T14:30:31Z</time>
      </trkpt>
      <trkpt lat="38.7317130" lon="1.4221550">
        <ele>-0.9</ele>
        <time>2020-02-22T14:30:32Z</time>
      </trkpt>
      <trkpt lat="38.7315680" lon="1.4219950">
        <ele>0.1</ele>
        <time>2020-02-22T14:30:33Z</time>
      </trkpt>
      <trkpt lat="38.7315680" lon="1.4219950">
        <ele>0.1</ele>
        <time>2020-02-22T14:30:34Z</time>
      </trkpt>
      <trkpt lat="38.7314150" lon="1.4218470">
        <ele>0.1</ele>
        <time>2020-02-22T14:30:35Z</time>
      </trkpt>
      <trkpt lat="38.7314150" lon="1.4218470">
        <ele>0.1</ele>
        <time>2020-02-22T14:30:36Z</time>
      </trkpt>
      <trkpt lat="38.7312500" lon="1.4217150">
        <ele>0.1</ele>
        <time>2020-02-22T14:30:37Z</time>
      </trkpt>
      <trkpt lat="38.7312500" lon="1.4217150">
        <ele>0.1</ele>
        <time>2020-02-22T14:30:38Z</time>
      </trkpt>
      <trkpt lat="38.7310720" lon="1.4216000">
        <ele>0.1</ele>
        <time>2020-02-22T14:30:39Z</time>
      </trkpt>
      <trkpt lat="38.7309780" lon="1.4215520">
        <ele>0.1</ele>
        <time>2020-02-22T14:30:40Z</time>
      </trkpt>
      <trkpt lat="38.7309780" lon="1.4215520">
        <ele>0.1</ele>
        <time>2020-02-22T14:30:41Z</time>
      </trkpt>
      <trkpt lat="38.7307830" lon="1.4214700">
        <ele>0.1</ele>
        <time>2020-02-22T14:30:42Z</time>
      </trkpt>
      <trkpt lat="38.7306850" lon="1.4214350">
        <ele>0.1</ele>
        <time>2020-02-22T14:30:43Z</time>
      </trkpt>
      <trkpt lat="38.7305880" lon="1.4214020">
        <ele>0.1</ele>
        <time>2020-02-22T14:30:44Z</time>
      </trkpt>
      <trkpt lat="38.7304900" lon="1.4213730">
        <ele>0.1</ele>
        <time>2020-02-22T14:30:45Z</time>
      </trkpt>
      <trkpt lat="38.7304900" lon="1.4213730">
        <ele>-0.9</ele>
        <time>2020-02-22T14:30:46Z</time>
      </trkpt>
      <trkpt lat="38.7302930" lon="1.4213230">
        <ele>-0.9</ele>
        <time>2020-02-22T14:30:47Z</time>
      </trkpt>
      <trkpt lat="38.7302930" lon="1.4213230">
        <ele>-0.9</ele>
        <time>2020-02-22T14:30:48Z</time>
      </trkpt>
      <trkpt lat="38.7300950" lon="1.4212900">
        <ele>-0.9</ele>
        <time>2020-02-22T14:30:49Z</time>
      </trkpt>
      <trkpt lat="38.7299980" lon="1.4212780">
        <ele>-0.9</ele>
        <time>2020-02-22T14:30:50Z</time>
      </trkpt>
      <trkpt lat="38.7299000" lon="1.4212700">
        <ele>-0.9</ele>
        <time>2020-02-22T14:30:51Z</time>
      </trkpt>
      <trkpt lat="38.7299000" lon="1.4212700">
        <ele>-0.9</ele>
        <time>2020-02-22T14:30:52Z</time>
      </trkpt>
      <trkpt lat="38.7297050" lon="1.4212450">
        <ele>-0.9</ele>
        <time>2020-02-22T14:30:53Z</time>
      </trkpt>
      <trkpt lat="38.7297050" lon="1.4212450">
        <ele>-0.9</ele>
        <time>2020-02-22T14:30:54Z</time>
      </trkpt>
      <trkpt lat="38.7295100" lon="1.4212030">
        <ele>-0.9</ele>
        <time>2020-02-22T14:30:55Z</time>
      </trkpt>
      <trkpt lat="38.7295100" lon="1.4212030">
        <ele>-0.9</ele>
        <time>2020-02-22T14:30:56Z</time>
      </trkpt>
      <trkpt lat="38.7293270" lon="1.4211170">
        <ele>-0.9</ele>
        <time>2020-02-22T14:30:57Z</time>
      </trkpt>
      <trkpt lat="38.7292420" lon="1.4210500">
        <ele>-0.9</ele>
        <time>2020-02-22T14:30:58Z</time>
      </trkpt>
      <trkpt lat="38.7292420" lon="1.4210500">
        <ele>-0.9</ele>
        <time>2020-02-22T14:30:59Z</time>
      </trkpt>
      <trkpt lat="38.7290950" lon="1.4208780">
        <ele>-0.9</ele>
        <time>2020-02-22T14:31:00Z</time>
      </trkpt>
      <trkpt lat="38.7290950" lon="1.4208780">
        <ele>-0.9</ele>
        <time>2020-02-22T14:31:01Z</time>
      </trkpt>
      <trkpt lat="38.7289820" lon="1.4206570">
        <ele>-0.9</ele>
        <time>2020-02-22T14:31:02Z</time>
      </trkpt>
      <trkpt lat="38.7289320" lon="1.4205380">
        <ele>-0.9</ele>
        <time>2020-02-22T14:31:03Z</time>
      </trkpt>
      <trkpt lat="38.7288830" lon="1.4204170">
        <ele>-0.9</ele>
        <time>2020-02-22T14:31:04Z</time>
      </trkpt>
      <trkpt lat="38.7288370" lon="1.4202930">
        <ele>-0.9</ele>
        <time>2020-02-22T14:31:05Z</time>
      </trkpt>
      <trkpt lat="38.7288370" lon="1.4202930">
        <ele>-0.9</ele>
        <time>2020-02-22T14:31:06Z</time>
      </trkpt>
      <trkpt lat="38.7287470" lon="1.4200420">
        <ele>-0.9</ele>
        <time>2020-02-22T14:31:07Z</time>
      </trkpt>
      <trkpt lat="38.7287470" lon="1.4200420">
        <ele>-0.9</ele>
        <time>2020-02-22T14:31:08Z</time>
      </trkpt>
      <trkpt lat="38.7286620" lon="1.4197980">
        <ele>-0.9</ele>
        <time>2020-02-22T14:31:09Z</time>
      </trkpt>
      <trkpt lat="38.7286230" lon="1.4196820">
        <ele>-0.9</ele>
        <time>2020-02-22T14:31:10Z</time>
      </trkpt>
      <trkpt lat="38.7286230" lon="1.4196820">
        <ele>-0.9</ele>
        <time>2020-02-22T14:31:11Z</time>
      </trkpt>
      <trkpt lat="38.7285550" lon="1.4194620">
        <ele>-0.9</ele>
        <time>2020-02-22T14:31:12Z</time>
      </trkpt>
      <trkpt lat="38.7285220" lon="1.4193550">
        <ele>-0.9</ele>
        <time>2020-02-22T14:31:13Z</time>
      </trkpt>
      <trkpt lat="38.7284870" lon="1.4192500">
        <ele>-0.9</ele>
        <time>2020-02-22T14:31:14Z</time>
      </trkpt>
      <trkpt lat="38.7284870" lon="1.4192500">
        <ele>-0.9</ele>
        <time>2020-02-22T14:31:15Z</time>
      </trkpt>
      <trkpt lat="38.7284180" lon="1.4190550">
        <ele>-0.9</ele>
        <time>2020-02-22T14:31:16Z</time>
      </trkpt>
      <trkpt lat="38.7283880" lon="1.4189680">
        <ele>0.1</ele>
        <time>2020-02-22T14:31:17Z</time>
      </trkpt>
      <trkpt lat="38.7283880" lon="1.4189680">
        <ele>0.1</ele>
        <time>2020-02-22T14:31:18Z</time>
      </trkpt>
      <trkpt lat="38.7283300" lon="1.4188350">
        <ele>1.1</ele>
        <time>2020-02-22T14:31:19Z</time>
      </trkpt>
      <trkpt lat="38.7282820" lon="1.4187970">
        <ele>1.1</ele>
        <time>2020-02-22T14:31:20Z</time>
      </trkpt>
      <trkpt lat="38.7282820" lon="1.4187970">
        <ele>1.1</ele>
        <time>2020-02-22T14:31:21Z</time>
      </trkpt>
      <trkpt lat="38.7281600" lon="1.4188150">
        <ele>1.1</ele>
        <time>2020-02-22T14:31:22Z</time>
      </trkpt>
      <trkpt lat="38.7281600" lon="1.4188150">
        <ele>1.1</ele>
        <time>2020-02-22T14:31:23Z</time>
      </trkpt>
      <trkpt lat="38.7280220" lon="1.4189030">
        <ele>1.1</ele>
        <time>2020-02-22T14:31:24Z</time>
      </trkpt>
      <trkpt lat="38.7279450" lon="1.4189570">
        <ele>1.1</ele>
        <time>2020-02-22T14:31:25Z</time>
      </trkpt>
      <trkpt lat="38.7279450" lon="1.4189570">
        <ele>1.1</ele>
        <time>2020-02-22T14:31:26Z</time>
      </trkpt>
      <trkpt lat="38.7277870" lon="1.4190650">
        <ele>1.1</ele>
        <time>2020-02-22T14:31:27Z</time>
      </trkpt>
      <trkpt lat="38.7277870" lon="1.4190650">
        <ele>1.1</ele>
        <time>2020-02-22T14:31:28Z</time>
      </trkpt>
      <trkpt lat="38.7276200" lon="1.4191670">
        <ele>1.1</ele>
        <time>2020-02-22T14:31:29Z</time>
      </trkpt>
      <trkpt lat="38.7275380" lon="1.4192200">
        <ele>1.1</ele>
        <time>2020-02-22T14:31:30Z</time>
      </trkpt>
      <trkpt lat="38.7275380" lon="1.4192200">
        <ele>1.1</ele>
        <time>2020-02-22T14:31:31Z</time>
      </trkpt>
      <trkpt lat="38.7273770" lon="1.4193230">
        <ele>1.1</ele>
        <time>2020-02-22T14:31:32Z</time>
      </trkpt>
      <trkpt lat="38.7272980" lon="1.4193720">
        <ele>1.1</ele>
        <time>2020-02-22T14:31:33Z</time>
      </trkpt>
      <trkpt lat="38.7272980" lon="1.4193720">
        <ele>1.1</ele>
        <time>2020-02-22T14:31:34Z</time>
      </trkpt>
      <trkpt lat="38.7271430" lon="1.4194620">
        <ele>1.1</ele>
        <time>2020-02-22T14:31:35Z</time>
      </trkpt>
      <trkpt lat="38.7271430" lon="1.4194620">
        <ele>1.1</ele>
        <time>2020-02-22T14:31:36Z</time>
      </trkpt>
      <trkpt lat="38.7269920" lon="1.4195450">
        <ele>1.1</ele>
        <time>2020-02-22T14:31:37Z</time>
      </trkpt>
      <trkpt lat="38.7269180" lon="1.4195830">
        <ele>1.1</ele>
        <time>2020-02-22T14:31:38Z</time>
      </trkpt>
      <trkpt lat="38.7269180" lon="1.4195830">
        <ele>1.1</ele>
        <time>2020-02-22T14:31:39Z</time>
      </trkpt>
      <trkpt lat="38.7267650" lon="1.4196650">
        <ele>1.1</ele>
        <time>2020-02-22T14:31:40Z</time>
      </trkpt>
      <trkpt lat="38.7267650" lon="1.4196650">
        <ele>1.1</ele>
        <time>2020-02-22T14:31:41Z</time>
      </trkpt>
      <trkpt lat="38.7266120" lon="1.4197470">
        <ele>1.1</ele>
        <time>2020-02-22T14:31:42Z</time>
      </trkpt>
      <trkpt lat="38.7265350" lon="1.4197920">
        <ele>1.1</ele>
        <time>2020-02-22T14:31:43Z</time>
      </trkpt>
      <trkpt lat="38.7265350" lon="1.4197920">
        <ele>1.1</ele>
        <time>2020-02-22T14:31:44Z</time>
      </trkpt>
      <trkpt lat="38.7263770" lon="1.4198780">
        <ele>1.1</ele>
        <time>2020-02-22T14:31:45Z</time>
      </trkpt>
      <trkpt lat="38.7263770" lon="1.4198780">
        <ele>1.1</ele>
        <time>2020-02-22T14:31:46Z</time>
      </trkpt>
      <trkpt lat="38.7262150" lon="1.4199700">
        <ele>1.1</ele>
        <time>2020-02-22T14:31:47Z</time>
      </trkpt>
      <trkpt lat="38.7262150" lon="1.4199700">
        <ele>1.1</ele>
        <time>2020-02-22T14:31:48Z</time>
      </trkpt>
      <trkpt lat="38.7260530" lon="1.4200620">
        <ele>1.1</ele>
        <time>2020-02-22T14:31:49Z</time>
      </trkpt>
      <trkpt lat="38.7260530" lon="1.4200620">
        <ele>1.1</ele>
        <time>2020-02-22T14:31:50Z</time>
      </trkpt>
      <trkpt lat="38.7258920" lon="1.4201570">
        <ele>1.1</ele>
        <time>2020-02-22T14:31:51Z</time>
      </trkpt>
      <trkpt lat="38.7258920" lon="1.4201570">
        <ele>1.1</ele>
        <time>2020-02-22T14:31:52Z</time>
      </trkpt>
      <trkpt lat="38.7257330" lon="1.4202530">
        <ele>1.1</ele>
        <time>2020-02-22T14:31:53Z</time>
      </trkpt>
      <trkpt lat="38.7256530" lon="1.4203020">
        <ele>1.1</ele>
        <time>2020-02-22T14:31:54Z</time>
      </trkpt>
      <trkpt lat="38.7255730" lon="1.4203470">
        <ele>1.1</ele>
        <time>2020-02-22T14:31:55Z</time>
      </trkpt>
      <trkpt lat="38.7255730" lon="1.4203470">
        <ele>1.1</ele>
        <time>2020-02-22T14:31:56Z</time>
      </trkpt>
      <trkpt lat="38.7254070" lon="1.4204420">
        <ele>2.1</ele>
        <time>2020-02-22T14:31:57Z</time>
      </trkpt>
      <trkpt lat="38.7254070" lon="1.4204420">
        <ele>2.1</ele>
        <time>2020-02-22T14:31:58Z</time>
      </trkpt>
      <trkpt lat="38.7252380" lon="1.4205370">
        <ele>2.1</ele>
        <time>2020-02-22T14:31:59Z</time>
      </trkpt>
      <trkpt lat="38.7252380" lon="1.4205370">
        <ele>2.1</ele>
        <time>2020-02-22T14:32:00Z</time>
      </trkpt>
      <trkpt lat="38.7250670" lon="1.4206180">
        <ele>2.1</ele>
        <time>2020-02-22T14:32:01Z</time>
      </trkpt>
      <trkpt lat="38.7249820" lon="1.4206600">
        <ele>1.1</ele>
        <time>2020-02-22T14:32:02Z</time>
      </trkpt>
      <trkpt lat="38.7249820" lon="1.4206600">
        <ele>1.1</ele>
        <time>2020-02-22T14:32:03Z</time>
      </trkpt>
      <trkpt lat="38.7248130" lon="1.4207570">
        <ele>1.1</ele>
        <time>2020-02-22T14:32:04Z</time>
      </trkpt>
      <trkpt lat="38.7248130" lon="1.4207570">
        <ele>1.1</ele>
        <time>2020-02-22T14:32:05Z</time>
      </trkpt>
      <trkpt lat="38.7246500" lon="1.4208550">
        <ele>1.1</ele>
        <time>2020-02-22T14:32:06Z</time>
      </trkpt>
      <trkpt lat="38.7245680" lon="1.4209030">
        <ele>1.1</ele>
        <time>2020-02-22T14:32:07Z</time>
      </trkpt>
      <trkpt lat="38.7245680" lon="1.4209030">
        <ele>1.1</ele>
        <time>2020-02-22T14:32:08Z</time>
      </trkpt>
      <trkpt lat="38.7244030" lon="1.4209980">
        <ele>1.1</ele>
        <time>2020-02-22T14:32:09Z</time>
      </trkpt>
      <trkpt lat="38.7244030" lon="1.4209980">
        <ele>1.1</ele>
        <time>2020-02-22T14:32:10Z</time>
      </trkpt>
      <trkpt lat="38.7242350" lon="1.4210920">
        <ele>1.1</ele>
        <time>2020-02-22T14:32:11Z</time>
      </trkpt>
      <trkpt lat="38.7242350" lon="1.4210920">
        <ele>1.1</ele>
        <time>2020-02-22T14:32:12Z</time>
      </trkpt>
      <trkpt lat="38.7240670" lon="1.4211870">
        <ele>1.1</ele>
        <time>2020-02-22T14:32:13Z</time>
      </trkpt>
      <trkpt lat="38.7239830" lon="1.4212370">
        <ele>1.1</ele>
        <time>2020-02-22T14:32:14Z</time>
      </trkpt>
      <trkpt lat="38.7239830" lon="1.4212370">
        <ele>1.1</ele>
        <time>2020-02-22T14:32:15Z</time>
      </trkpt>
      <trkpt lat="38.7238120" lon="1.4213330">
        <ele>1.1</ele>
        <time>2020-02-22T14:32:16Z</time>
      </trkpt>
      <trkpt lat="38.7238120" lon="1.4213330">
        <ele>1.1</ele>
        <time>2020-02-22T14:32:17Z</time>
      </trkpt>
      <trkpt lat="38.7236400" lon="1.4214320">
        <ele>1.1</ele>
        <time>2020-02-22T14:32:18Z</time>
      </trkpt>
      <trkpt lat="38.7235530" lon="1.4214820">
        <ele>1.1</ele>
        <time>2020-02-22T14:32:19Z</time>
      </trkpt>
      <trkpt lat="38.7235530" lon="1.4214820">
        <ele>1.1</ele>
        <time>2020-02-22T14:32:20Z</time>
      </trkpt>
      <trkpt lat="38.7233780" lon="1.4215820">
        <ele>1.1</ele>
        <time>2020-02-22T14:32:21Z</time>
      </trkpt>
      <trkpt lat="38.7233780" lon="1.4215820">
        <ele>1.1</ele>
        <time>2020-02-22T14:32:22Z</time>
      </trkpt>
      <trkpt lat="38.7232020" lon="1.4216870">
        <ele>1.1</ele>
        <time>2020-02-22T14:32:23Z</time>
      </trkpt>
      <trkpt lat="38.7232020" lon="1.4216870">
        <ele>1.1</ele>
        <time>2020-02-22T14:32:24Z</time>
      </trkpt>
      <trkpt lat="38.7230230" lon="1.4217900">
        <ele>1.1</ele>
        <time>2020-02-22T14:32:25Z</time>
      </trkpt>
      <trkpt lat="38.7230230" lon="1.4217900">
        <ele>1.1</ele>
        <time>2020-02-22T14:32:26Z</time>
      </trkpt>
      <trkpt lat="38.7228480" lon="1.4218920">
        <ele>1.1</ele>
        <time>2020-02-22T14:32:27Z</time>
      </trkpt>
      <trkpt lat="38.7228480" lon="1.4218920">
        <ele>1.1</ele>
        <time>2020-02-22T14:32:28Z</time>
      </trkpt>
      <trkpt lat="38.7226750" lon="1.4219970">
        <ele>1.1</ele>
        <time>2020-02-22T14:32:29Z</time>
      </trkpt>
      <trkpt lat="38.7225900" lon="1.4220480">
        <ele>1.1</ele>
        <time>2020-02-22T14:32:30Z</time>
      </trkpt>
      <trkpt lat="38.7225020" lon="1.4221000">
        <ele>1.1</ele>
        <time>2020-02-22T14:32:31Z</time>
      </trkpt>
      <trkpt lat="38.7225020" lon="1.4221000">
        <ele>2.1</ele>
        <time>2020-02-22T14:32:32Z</time>
      </trkpt>
      <trkpt lat="38.7223270" lon="1.4222020">
        <ele>2.1</ele>
        <time>2020-02-22T14:32:33Z</time>
      </trkpt>
      <trkpt lat="38.7222400" lon="1.4222530">
        <ele>2.1</ele>
        <time>2020-02-22T14:32:34Z</time>
      </trkpt>
      <trkpt lat="38.7222400" lon="1.4222530">
        <ele>2.1</ele>
        <time>2020-02-22T14:32:35Z</time>
      </trkpt>
      <trkpt lat="38.7220670" lon="1.4223630">
        <ele>2.1</ele>
        <time>2020-02-22T14:32:36Z</time>
      </trkpt>
      <trkpt lat="38.7219730" lon="1.4224150">
        <ele>2.1</ele>
        <time>2020-02-22T14:32:37Z</time>
      </trkpt>
      <trkpt lat="38.7219730" lon="1.4224150">
        <ele>2.1</ele>
        <time>2020-02-22T14:32:38Z</time>
      </trkpt>
      <trkpt lat="38.7217850" lon="1.4225180">
        <ele>2.1</ele>
        <time>2020-02-22T14:32:39Z</time>
      </trkpt>
      <trkpt lat="38.7216920" lon="1.4225720">
        <ele>2.1</ele>
        <time>2020-02-22T14:32:40Z</time>
      </trkpt>
      <trkpt lat="38.7215970" lon="1.4226270">
        <ele>2.1</ele>
        <time>2020-02-22T14:32:41Z</time>
      </trkpt>
      <trkpt lat="38.7215970" lon="1.4226270">
        <ele>3.1</ele>
        <time>2020-02-22T14:32:42Z</time>
      </trkpt>
      <trkpt lat="38.7214050" lon="1.4227380">
        <ele>3.1</ele>
        <time>2020-02-22T14:32:43Z</time>
      </trkpt>
      <trkpt lat="38.7214050" lon="1.4227380">
        <ele>3.1</ele>
        <time>2020-02-22T14:32:44Z</time>
      </trkpt>
      <trkpt lat="38.7212150" lon="1.4228500">
        <ele>3.1</ele>
        <time>2020-02-22T14:32:45Z</time>
      </trkpt>
      <trkpt lat="38.7212150" lon="1.4228500">
        <ele>3.1</ele>
        <time>2020-02-22T14:32:46Z</time>
      </trkpt>
      <trkpt lat="38.7210250" lon="1.4229630">
        <ele>3.1</ele>
        <time>2020-02-22T14:32:47Z</time>
      </trkpt>
      <trkpt lat="38.7209320" lon="1.4230220">
        <ele>3.1</ele>
        <time>2020-02-22T14:32:48Z</time>
      </trkpt>
      <trkpt lat="38.7208370" lon="1.4230770">
        <ele>3.1</ele>
        <time>2020-02-22T14:32:49Z</time>
      </trkpt>
      <trkpt lat="38.7207450" lon="1.4231320">
        <ele>3.1</ele>
        <time>2020-02-22T14:32:50Z</time>
      </trkpt>
      <trkpt lat="38.7207450" lon="1.4231320">
        <ele>3.1</ele>
        <time>2020-02-22T14:32:51Z</time>
      </trkpt>
      <trkpt lat="38.7205600" lon="1.4232380">
        <ele>3.1</ele>
        <time>2020-02-22T14:32:52Z</time>
      </trkpt>
      <trkpt lat="38.7205600" lon="1.4232380">
        <ele>3.1</ele>
        <time>2020-02-22T14:32:53Z</time>
      </trkpt>
      <trkpt lat="38.7203770" lon="1.4233430">
        <ele>3.1</ele>
        <time>2020-02-22T14:32:54Z</time>
      </trkpt>
      <trkpt lat="38.7202870" lon="1.4233950">
        <ele>3.1</ele>
        <time>2020-02-22T14:32:55Z</time>
      </trkpt>
      <trkpt lat="38.7202870" lon="1.4233950">
        <ele>3.1</ele>
        <time>2020-02-22T14:32:56Z</time>
      </trkpt>
      <trkpt lat="38.7201080" lon="1.4234970">
        <ele>4.1</ele>
        <time>2020-02-22T14:32:57Z</time>
      </trkpt>
      <trkpt lat="38.7201080" lon="1.4234970">
        <ele>4.1</ele>
        <time>2020-02-22T14:32:58Z</time>
      </trkpt>
      <trkpt lat="38.7199330" lon="1.4235970">
        <ele>4.1</ele>
        <time>2020-02-22T14:32:59Z</time>
      </trkpt>
      <trkpt lat="38.7199330" lon="1.4235970">
        <ele>4.1</ele>
        <time>2020-02-22T14:33:00Z</time>
      </trkpt>
      <trkpt lat="38.7197620" lon="1.4236980">
        <ele>4.1</ele>
        <time>2020-02-22T14:33:01Z</time>
      </trkpt>
      <trkpt lat="38.7197620" lon="1.4236980">
        <ele>4.1</ele>
        <time>2020-02-22T14:33:02Z</time>
      </trkpt>
      <trkpt lat="38.7195900" lon="1.4237970">
        <ele>4.1</ele>
        <time>2020-02-22T14:33:03Z</time>
      </trkpt>
      <trkpt lat="38.7195900" lon="1.4237970">
        <ele>4.1</ele>
        <time>2020-02-22T14:33:04Z</time>
      </trkpt>
      <trkpt lat="38.7194170" lon="1.4238970">
        <ele>4.1</ele>
        <time>2020-02-22T14:33:05Z</time>
      </trkpt>
      <trkpt lat="38.7193270" lon="1.4239500">
        <ele>4.1</ele>
        <time>2020-02-22T14:33:06Z</time>
      </trkpt>
      <trkpt lat="38.7192350" lon="1.4240030">
        <ele>4.1</ele>
        <time>2020-02-22T14:33:07Z</time>
      </trkpt>
      <trkpt lat="38.7192350" lon="1.4240030">
        <ele>4.1</ele>
        <time>2020-02-22T14:33:08Z</time>
      </trkpt>
      <trkpt lat="38.7190520" lon="1.4241120">
        <ele>4.1</ele>
        <time>2020-02-22T14:33:09Z</time>
      </trkpt>
      <trkpt lat="38.7189600" lon="1.4241650">
        <ele>4.1</ele>
        <time>2020-02-22T14:33:10Z</time>
      </trkpt>
      <trkpt lat="38.7188680" lon="1.4242170">
        <ele>4.1</ele>
        <time>2020-02-22T14:33:11Z</time>
      </trkpt>
      <trkpt lat="38.7188680" lon="1.4242170">
        <ele>4.1</ele>
        <time>2020-02-22T14:33:12Z</time>
      </trkpt>
      <trkpt lat="38.7186900" lon="1.4243250">
        <ele>4.1</ele>
        <time>2020-02-22T14:33:13Z</time>
      </trkpt>
      <trkpt lat="38.7186900" lon="1.4243250">
        <ele>4.1</ele>
        <time>2020-02-22T14:33:14Z</time>
      </trkpt>
      <trkpt lat="38.7185080" lon="1.4244320">
        <ele>4.1</ele>
        <time>2020-02-22T14:33:15Z</time>
      </trkpt>
      <trkpt lat="38.7185080" lon="1.4244320">
        <ele>4.1</ele>
        <time>2020-02-22T14:33:16Z</time>
      </trkpt>
      <trkpt lat="38.7183270" lon="1.4245400">
        <ele>5.1</ele>
        <time>2020-02-22T14:33:17Z</time>
      </trkpt>
      <trkpt lat="38.7183270" lon="1.4245400">
        <ele>5.1</ele>
        <time>2020-02-22T14:33:18Z</time>
      </trkpt>
      <trkpt lat="38.7181470" lon="1.4246480">
        <ele>5.1</ele>
        <time>2020-02-22T14:33:19Z</time>
      </trkpt>
      <trkpt lat="38.7181470" lon="1.4246480">
        <ele>5.1</ele>
        <time>2020-02-22T14:33:20Z</time>
      </trkpt>
      <trkpt lat="38.7179680" lon="1.4247550">
        <ele>5.1</ele>
        <time>2020-02-22T14:33:21Z</time>
      </trkpt>
      <trkpt lat="38.7179680" lon="1.4247550">
        <ele>5.1</ele>
        <time>2020-02-22T14:33:22Z</time>
      </trkpt>
      <trkpt lat="38.7177900" lon="1.4248580">
        <ele>5.1</ele>
        <time>2020-02-22T14:33:23Z</time>
      </trkpt>
      <trkpt lat="38.7177900" lon="1.4248580">
        <ele>5.1</ele>
        <time>2020-02-22T14:33:24Z</time>
      </trkpt>
      <trkpt lat="38.7176080" lon="1.4249650">
        <ele>5.1</ele>
        <time>2020-02-22T14:33:25Z</time>
      </trkpt>
      <trkpt lat="38.7175180" lon="1.4250170">
        <ele>5.1</ele>
        <time>2020-02-22T14:33:26Z</time>
      </trkpt>
      <trkpt lat="38.7175180" lon="1.4250170">
        <ele>5.1</ele>
        <time>2020-02-22T14:33:27Z</time>
      </trkpt>
      <trkpt lat="38.7173350" lon="1.4251220">
        <ele>5.1</ele>
        <time>2020-02-22T14:33:28Z</time>
      </trkpt>
      <trkpt lat="38.7173350" lon="1.4251220">
        <ele>5.1</ele>
        <time>2020-02-22T14:33:29Z</time>
      </trkpt>
      <trkpt lat="38.7171550" lon="1.4252250">
        <ele>5.1</ele>
        <time>2020-02-22T14:33:30Z</time>
      </trkpt>
      <trkpt lat="38.7170680" lon="1.4252730">
        <ele>6.1</ele>
        <time>2020-02-22T14:33:31Z</time>
      </trkpt>
      <trkpt lat="38.7170680" lon="1.4252730">
        <ele>6.1</ele>
        <time>2020-02-22T14:33:32Z</time>
      </trkpt>
      <trkpt lat="38.7169000" lon="1.4253700">
        <ele>6.1</ele>
        <time>2020-02-22T14:33:33Z</time>
      </trkpt>
      <trkpt lat="38.7168180" lon="1.4254180">
        <ele>6.1</ele>
        <time>2020-02-22T14:33:34Z</time>
      </trkpt>
      <trkpt lat="38.7168180" lon="1.4254180">
        <ele>6.1</ele>
        <time>2020-02-22T14:33:35Z</time>
      </trkpt>
      <trkpt lat="38.7166570" lon="1.4255150">
        <ele>6.1</ele>
        <time>2020-02-22T14:33:36Z</time>
      </trkpt>
      <trkpt lat="38.7165770" lon="1.4255620">
        <ele>6.1</ele>
        <time>2020-02-22T14:33:37Z</time>
      </trkpt>
      <trkpt lat="38.7165770" lon="1.4255620">
        <ele>6.1</ele>
        <time>2020-02-22T14:33:38Z</time>
      </trkpt>
      <trkpt lat="38.7164080" lon="1.4256580">
        <ele>6.1</ele>
        <time>2020-02-22T14:33:39Z</time>
      </trkpt>
      <trkpt lat="38.7164080" lon="1.4256580">
        <ele>7.1</ele>
        <time>2020-02-22T14:33:40Z</time>
      </trkpt>
      <trkpt lat="38.7162300" lon="1.4257620">
        <ele>7.1</ele>
        <time>2020-02-22T14:33:41Z</time>
      </trkpt>
      <trkpt lat="38.7162300" lon="1.4257620">
        <ele>7.1</ele>
        <time>2020-02-22T14:33:42Z</time>
      </trkpt>
      <trkpt lat="38.7160530" lon="1.4258620">
        <ele>7.1</ele>
        <time>2020-02-22T14:33:43Z</time>
      </trkpt>
      <trkpt lat="38.7160530" lon="1.4258620">
        <ele>7.1</ele>
        <time>2020-02-22T14:33:44Z</time>
      </trkpt>
      <trkpt lat="38.7158820" lon="1.4259620">
        <ele>7.1</ele>
        <time>2020-02-22T14:33:45Z</time>
      </trkpt>
      <trkpt lat="38.7158820" lon="1.4259620">
        <ele>8.1</ele>
        <time>2020-02-22T14:33:46Z</time>
      </trkpt>
      <trkpt lat="38.7157200" lon="1.4260620">
        <ele>8.1</ele>
        <time>2020-02-22T14:33:47Z</time>
      </trkpt>
      <trkpt lat="38.7156400" lon="1.4261120">
        <ele>8.1</ele>
        <time>2020-02-22T14:33:48Z</time>
      </trkpt>
      <trkpt lat="38.7155580" lon="1.4261570">
        <ele>8.1</ele>
        <time>2020-02-22T14:33:49Z</time>
      </trkpt>
      <trkpt lat="38.7155580" lon="1.4261570">
        <ele>9.1</ele>
        <time>2020-02-22T14:33:50Z</time>
      </trkpt>
      <trkpt lat="38.7153970" lon="1.4262470">
        <ele>9.1</ele>
        <time>2020-02-22T14:33:51Z</time>
      </trkpt>
      <trkpt lat="38.7153970" lon="1.4262470">
        <ele>9.1</ele>
        <time>2020-02-22T14:33:52Z</time>
      </trkpt>
      <trkpt lat="38.7152350" lon="1.4263380">
        <ele>9.1</ele>
        <time>2020-02-22T14:33:53Z</time>
      </trkpt>
      <trkpt lat="38.7152350" lon="1.4263380">
        <ele>10.1</ele>
        <time>2020-02-22T14:33:54Z</time>
      </trkpt>
      <trkpt lat="38.7150720" lon="1.4264280">
        <ele>10.1</ele>
        <time>2020-02-22T14:33:55Z</time>
      </trkpt>
      <trkpt lat="38.7150720" lon="1.4264280">
        <ele>10.1</ele>
        <time>2020-02-22T14:33:56Z</time>
      </trkpt>
      <trkpt lat="38.7149130" lon="1.4265200">
        <ele>10.1</ele>
        <time>2020-02-22T14:33:57Z</time>
      </trkpt>
      <trkpt lat="38.7149130" lon="1.4265200">
        <ele>10.1</ele>
        <time>2020-02-22T14:33:58Z</time>
      </trkpt>
      <trkpt lat="38.7147580" lon="1.4266100">
        <ele>10.1</ele>
        <time>2020-02-22T14:33:59Z</time>
      </trkpt>
      <trkpt lat="38.7147580" lon="1.4266100">
        <ele>10.1</ele>
        <time>2020-02-22T14:34:00Z</time>
      </trkpt>
      <trkpt lat="38.7146070" lon="1.4266970">
        <ele>12.1</ele>
        <time>2020-02-22T14:34:01Z</time>
      </trkpt>
      <trkpt lat="38.7145320" lon="1.4267370">
        <ele>12.1</ele>
        <time>2020-02-22T14:34:02Z</time>
      </trkpt>
      <trkpt lat="38.7145320" lon="1.4267370">
        <ele>12.1</ele>
        <time>2020-02-22T14:34:03Z</time>
      </trkpt>
      <trkpt lat="38.7143830" lon="1.4268230">
        <ele>12.1</ele>
        <time>2020-02-22T14:34:04Z</time>
      </trkpt>
      <trkpt lat="38.7143830" lon="1.4268230">
        <ele>13.1</ele>
        <time>2020-02-22T14:34:05Z</time>
      </trkpt>
      <trkpt lat="38.7142370" lon="1.4269100">
        <ele>13.1</ele>
        <time>2020-02-22T14:34:06Z</time>
      </trkpt>
      <trkpt lat="38.7141670" lon="1.4269530">
        <ele>13.1</ele>
        <time>2020-02-22T14:34:07Z</time>
      </trkpt>
      <trkpt lat="38.7141670" lon="1.4269530">
        <ele>13.1</ele>
        <time>2020-02-22T14:34:08Z</time>
      </trkpt>
      <trkpt lat="38.7140250" lon="1.4270420">
        <ele>14.1</ele>
        <time>2020-02-22T14:34:09Z</time>
      </trkpt>
      <trkpt lat="38.7140250" lon="1.4270420">
        <ele>14.1</ele>
        <time>2020-02-22T14:34:10Z</time>
      </trkpt>
      <trkpt lat="38.7138830" lon="1.4271320">
        <ele>14.1</ele>
        <time>2020-02-22T14:34:11Z</time>
      </trkpt>
      <trkpt lat="38.7138830" lon="1.4271320">
        <ele>14.1</ele>
        <time>2020-02-22T14:34:12Z</time>
      </trkpt>
      <trkpt lat="38.7137370" lon="1.4272170">
        <ele>14.1</ele>
        <time>2020-02-22T14:34:13Z</time>
      </trkpt>
      <trkpt lat="38.7137370" lon="1.4272170">
        <ele>14.1</ele>
        <time>2020-02-22T14:34:14Z</time>
      </trkpt>
      <trkpt lat="38.7135920" lon="1.4273020">
        <ele>15.1</ele>
        <time>2020-02-22T14:34:15Z</time>
      </trkpt>
      <trkpt lat="38.7135920" lon="1.4273020">
        <ele>15.1</ele>
        <time>2020-02-22T14:34:16Z</time>
      </trkpt>
      <trkpt lat="38.7134420" lon="1.4273830">
        <ele>15.1</ele>
        <time>2020-02-22T14:34:17Z</time>
      </trkpt>
      <trkpt lat="38.7134420" lon="1.4273830">
        <ele>15.1</ele>
        <time>2020-02-22T14:34:18Z</time>
      </trkpt>
      <trkpt lat="38.7132850" lon="1.4274670">
        <ele>15.1</ele>
        <time>2020-02-22T14:34:19Z</time>
      </trkpt>
      <trkpt lat="38.7132050" lon="1.4275080">
        <ele>15.1</ele>
        <time>2020-02-22T14:34:20Z</time>
      </trkpt>
      <trkpt lat="38.7132050" lon="1.4275080">
        <ele>16.1</ele>
        <time>2020-02-22T14:34:21Z</time>
      </trkpt>
      <trkpt lat="38.7130430" lon="1.4275980">
        <ele>16.1</ele>
        <time>2020-02-22T14:34:22Z</time>
      </trkpt>
      <trkpt lat="38.7130430" lon="1.4275980">
        <ele>17.1</ele>
        <time>2020-02-22T14:34:23Z</time>
      </trkpt>
      <trkpt lat="38.7128850" lon="1.4276880">
        <ele>17.1</ele>
        <time>2020-02-22T14:34:24Z</time>
      </trkpt>
      <trkpt lat="38.7128070" lon="1.4277350">
        <ele>17.1</ele>
        <time>2020-02-22T14:34:25Z</time>
      </trkpt>
      <trkpt lat="38.7128070" lon="1.4277350">
        <ele>17.1</ele>
        <time>2020-02-22T14:34:26Z</time>
      </trkpt>
      <trkpt lat="38.7126480" lon="1.4278320">
        <ele>17.1</ele>
        <time>2020-02-22T14:34:27Z</time>
      </trkpt>
      <trkpt lat="38.7126480" lon="1.4278320">
        <ele>17.1</ele>
        <time>2020-02-22T14:34:28Z</time>
      </trkpt>
      <trkpt lat="38.7124870" lon="1.4279250">
        <ele>18.1</ele>
        <time>2020-02-22T14:34:29Z</time>
      </trkpt>
      <trkpt lat="38.7124070" lon="1.4279730">
        <ele>18.1</ele>
        <time>2020-02-22T14:34:30Z</time>
      </trkpt>
      <trkpt lat="38.7123270" lon="1.4280230">
        <ele>18.1</ele>
        <time>2020-02-22T14:34:31Z</time>
      </trkpt>
      <trkpt lat="38.7123270" lon="1.4280230">
        <ele>18.1</ele>
        <time>2020-02-22T14:34:32Z</time>
      </trkpt>
      <trkpt lat="38.7121650" lon="1.4281220">
        <ele>19.1</ele>
        <time>2020-02-22T14:34:33Z</time>
      </trkpt>
      <trkpt lat="38.7121650" lon="1.4281220">
        <ele>19.1</ele>
        <time>2020-02-22T14:34:34Z</time>
      </trkpt>
      <trkpt lat="38.7119980" lon="1.4282200">
        <ele>19.1</ele>
        <time>2020-02-22T14:34:35Z</time>
      </trkpt>
      <trkpt lat="38.7119980" lon="1.4282200">
        <ele>19.1</ele>
        <time>2020-02-22T14:34:36Z</time>
      </trkpt>
      <trkpt lat="38.7118300" lon="1.4283230">
        <ele>19.1</ele>
        <time>2020-02-22T14:34:37Z</time>
      </trkpt>
      <trkpt lat="38.7117450" lon="1.4283770">
        <ele>19.1</ele>
        <time>2020-02-22T14:34:38Z</time>
      </trkpt>
      <trkpt lat="38.7117450" lon="1.4283770">
        <ele>19.1</ele>
        <time>2020-02-22T14:34:39Z</time>
      </trkpt>
      <trkpt lat="38.7115750" lon="1.4284800">
        <ele>19.1</ele>
        <time>2020-02-22T14:34:40Z</time>
      </trkpt>
      <trkpt lat="38.7115750" lon="1.4284800">
        <ele>19.1</ele>
        <time>2020-02-22T14:34:41Z</time>
      </trkpt>
      <trkpt lat="38.7114020" lon="1.4285800">
        <ele>19.1</ele>
        <time>2020-02-22T14:34:42Z</time>
      </trkpt>
      <trkpt lat="38.7113150" lon="1.4286320">
        <ele>19.1</ele>
        <time>2020-02-22T14:34:43Z</time>
      </trkpt>
      <trkpt lat="38.7112280" lon="1.4286800">
        <ele>19.1</ele>
        <time>2020-02-22T14:34:44Z</time>
      </trkpt>
      <trkpt lat="38.7112280" lon="1.4286800">
        <ele>19.1</ele>
        <time>2020-02-22T14:34:45Z</time>
      </trkpt>
      <trkpt lat="38.7110530" lon="1.4287830">
        <ele>19.1</ele>
        <time>2020-02-22T14:34:46Z</time>
      </trkpt>
      <trkpt lat="38.7110530" lon="1.4287830">
        <ele>19.1</ele>
        <time>2020-02-22T14:34:47Z</time>
      </trkpt>
      <trkpt lat="38.7108750" lon="1.4288830">
        <ele>19.1</ele>
        <time>2020-02-22T14:34:48Z</time>
      </trkpt>
      <trkpt lat="38.7107850" lon="1.4289320">
        <ele>19.1</ele>
        <time>2020-02-22T14:34:49Z</time>
      </trkpt>
      <trkpt lat="38.7107850" lon="1.4289320">
        <ele>19.1</ele>
        <time>2020-02-22T14:34:50Z</time>
      </trkpt>
      <trkpt lat="38.7106030" lon="1.4290230">
        <ele>19.1</ele>
        <time>2020-02-22T14:34:51Z</time>
      </trkpt>
      <trkpt lat="38.7106030" lon="1.4290230">
        <ele>19.1</ele>
        <time>2020-02-22T14:34:52Z</time>
      </trkpt>
      <trkpt lat="38.7104280" lon="1.4291220">
        <ele>20.1</ele>
        <time>2020-02-22T14:34:53Z</time>
      </trkpt>
      <trkpt lat="38.7103420" lon="1.4291720">
        <ele>20.1</ele>
        <time>2020-02-22T14:34:54Z</time>
      </trkpt>
      <trkpt lat="38.7102570" lon="1.4292220">
        <ele>20.1</ele>
        <time>2020-02-22T14:34:55Z</time>
      </trkpt>
      <trkpt lat="38.7101720" lon="1.4292750">
        <ele>21.1</ele>
        <time>2020-02-22T14:34:56Z</time>
      </trkpt>
      <trkpt lat="38.7101720" lon="1.4292750">
        <ele>21.1</ele>
        <time>2020-02-22T14:34:57Z</time>
      </trkpt>
      <trkpt lat="38.7100000" lon="1.4293800">
        <ele>22.1</ele>
        <time>2020-02-22T14:34:58Z</time>
      </trkpt>
      <trkpt lat="38.7100000" lon="1.4293800">
        <ele>22.1</ele>
        <time>2020-02-22T14:34:59Z</time>
      </trkpt>
      <trkpt lat="38.7098250" lon="1.4294780">
        <ele>23.1</ele>
        <time>2020-02-22T14:35:00Z</time>
      </trkpt>
      <trkpt lat="38.7097380" lon="1.4295250">
        <ele>23.1</ele>
        <time>2020-02-22T14:35:01Z</time>
      </trkpt>
      <trkpt lat="38.7097380" lon="1.4295250">
        <ele>23.1</ele>
        <time>2020-02-22T14:35:02Z</time>
      </trkpt>
      <trkpt lat="38.7095720" lon="1.4296120">
        <ele>23.1</ele>
        <time>2020-02-22T14:35:03Z</time>
      </trkpt>
      <trkpt lat="38.7095720" lon="1.4296120">
        <ele>23.1</ele>
        <time>2020-02-22T14:35:04Z</time>
      </trkpt>
      <trkpt lat="38.7094070" lon="1.4297030">
        <ele>24.1</ele>
        <time>2020-02-22T14:35:05Z</time>
      </trkpt>
      <trkpt lat="38.7094070" lon="1.4297030">
        <ele>24.1</ele>
        <time>2020-02-22T14:35:06Z</time>
      </trkpt>
      <trkpt lat="38.7092480" lon="1.4297950">
        <ele>24.1</ele>
        <time>2020-02-22T14:35:07Z</time>
      </trkpt>
      <trkpt lat="38.7092480" lon="1.4297950">
        <ele>24.1</ele>
        <time>2020-02-22T14:35:08Z</time>
      </trkpt>
      <trkpt lat="38.7090900" lon="1.4298920">
        <ele>24.1</ele>
        <time>2020-02-22T14:35:09Z</time>
      </trkpt>
      <trkpt lat="38.7090900" lon="1.4298920">
        <ele>24.1</ele>
        <time>2020-02-22T14:35:10Z</time>
      </trkpt>
      <trkpt lat="38.7089320" lon="1.4299880">
        <ele>26.1</ele>
        <time>2020-02-22T14:35:11Z</time>
      </trkpt>
      <trkpt lat="38.7088520" lon="1.4300400">
        <ele>26.1</ele>
        <time>2020-02-22T14:35:12Z</time>
      </trkpt>
      <trkpt lat="38.7087730" lon="1.4300920">
        <ele>27.1</ele>
        <time>2020-02-22T14:35:13Z</time>
      </trkpt>
      <trkpt lat="38.7087730" lon="1.4300920">
        <ele>27.1</ele>
        <time>2020-02-22T14:35:14Z</time>
      </trkpt>
      <trkpt lat="38.7086170" lon="1.4301880">
        <ele>27.1</ele>
        <time>2020-02-22T14:35:15Z</time>
      </trkpt>
      <trkpt lat="38.7086170" lon="1.4301880">
        <ele>27.1</ele>
        <time>2020-02-22T14:35:16Z</time>
      </trkpt>
      <trkpt lat="38.7084580" lon="1.4302880">
        <ele>28.1</ele>
        <time>2020-02-22T14:35:17Z</time>
      </trkpt>
      <trkpt lat="38.7084580" lon="1.4302880">
        <ele>28.1</ele>
        <time>2020-02-22T14:35:18Z</time>
      </trkpt>
      <trkpt lat="38.7082980" lon="1.4303900">
        <ele>28.1</ele>
        <time>2020-02-22T14:35:19Z</time>
      </trkpt>
      <trkpt lat="38.7082980" lon="1.4303900">
        <ele>28.1</ele>
        <time>2020-02-22T14:35:20Z</time>
      </trkpt>
      <trkpt lat="38.7081330" lon="1.4304820">
        <ele>28.1</ele>
        <time>2020-02-22T14:35:21Z</time>
      </trkpt>
      <trkpt lat="38.7081330" lon="1.4304820">
        <ele>28.1</ele>
        <time>2020-02-22T14:35:22Z</time>
      </trkpt>
      <trkpt lat="38.7079650" lon="1.4305730">
        <ele>28.1</ele>
        <time>2020-02-22T14:35:23Z</time>
      </trkpt>
      <trkpt lat="38.7078820" lon="1.4306230">
        <ele>28.1</ele>
        <time>2020-02-22T14:35:24Z</time>
      </trkpt>
      <trkpt lat="38.7077970" lon="1.4306750">
        <ele>28.1</ele>
        <time>2020-02-22T14:35:25Z</time>
      </trkpt>
      <trkpt lat="38.7077970" lon="1.4306750">
        <ele>28.1</ele>
        <time>2020-02-22T14:35:26Z</time>
      </trkpt>
      <trkpt lat="38.7076300" lon="1.4307820">
        <ele>28.1</ele>
        <time>2020-02-22T14:35:27Z</time>
      </trkpt>
      <trkpt lat="38.7076300" lon="1.4307820">
        <ele>28.1</ele>
        <time>2020-02-22T14:35:28Z</time>
      </trkpt>
      <trkpt lat="38.7074700" lon="1.4308900">
        <ele>28.1</ele>
        <time>2020-02-22T14:35:29Z</time>
      </trkpt>
      <trkpt lat="38.7074700" lon="1.4308900">
        <ele>28.1</ele>
        <time>2020-02-22T14:35:30Z</time>
      </trkpt>
      <trkpt lat="38.7073080" lon="1.4309900">
        <ele>28.1</ele>
        <time>2020-02-22T14:35:31Z</time>
      </trkpt>
      <trkpt lat="38.7072320" lon="1.4310450">
        <ele>28.1</ele>
        <time>2020-02-22T14:35:32Z</time>
      </trkpt>
      <trkpt lat="38.7072320" lon="1.4310450">
        <ele>28.1</ele>
        <time>2020-02-22T14:35:33Z</time>
      </trkpt>
      <trkpt lat="38.7070680" lon="1.4311470">
        <ele>28.1</ele>
        <time>2020-02-22T14:35:34Z</time>
      </trkpt>
      <trkpt lat="38.7070680" lon="1.4311470">
        <ele>28.1</ele>
        <time>2020-02-22T14:35:35Z</time>
      </trkpt>
      <trkpt lat="38.7068930" lon="1.4312300">
        <ele>28.1</ele>
        <time>2020-02-22T14:35:36Z</time>
      </trkpt>
      <trkpt lat="38.7068050" lon="1.4312770">
        <ele>28.1</ele>
        <time>2020-02-22T14:35:37Z</time>
      </trkpt>
      <trkpt lat="38.7068050" lon="1.4312770">
        <ele>28.1</ele>
        <time>2020-02-22T14:35:38Z</time>
      </trkpt>
      <trkpt lat="38.7066320" lon="1.4313980">
        <ele>28.1</ele>
        <time>2020-02-22T14:35:39Z</time>
      </trkpt>
      <trkpt lat="38.7065450" lon="1.4314700">
        <ele>28.1</ele>
        <time>2020-02-22T14:35:40Z</time>
      </trkpt>
      <trkpt lat="38.7064570" lon="1.4315480">
        <ele>28.1</ele>
        <time>2020-02-22T14:35:41Z</time>
      </trkpt>
      <trkpt lat="38.7064570" lon="1.4315480">
        <ele>27.1</ele>
        <time>2020-02-22T14:35:42Z</time>
      </trkpt>
      <trkpt lat="38.7062830" lon="1.4317220">
        <ele>27.1</ele>
        <time>2020-02-22T14:35:43Z</time>
      </trkpt>
      <trkpt lat="38.7062830" lon="1.4317220">
        <ele>27.1</ele>
        <time>2020-02-22T14:35:44Z</time>
      </trkpt>
      <trkpt lat="38.7061150" lon="1.4319320">
        <ele>27.1</ele>
        <time>2020-02-22T14:35:45Z</time>
      </trkpt>
      <trkpt lat="38.7060370" lon="1.4320530">
        <ele>26.1</ele>
        <time>2020-02-22T14:35:46Z</time>
      </trkpt>
      <trkpt lat="38.7060370" lon="1.4320530">
        <ele>26.1</ele>
        <time>2020-02-22T14:35:47Z</time>
      </trkpt>
      <trkpt lat="38.7059080" lon="1.4323070">
        <ele>26.1</ele>
        <time>2020-02-22T14:35:48Z</time>
      </trkpt>
      <trkpt lat="38.7058630" lon="1.4324350">
        <ele>26.1</ele>
        <time>2020-02-22T14:35:49Z</time>
      </trkpt>
      <trkpt lat="38.7058320" lon="1.4325580">
        <ele>24.1</ele>
        <time>2020-02-22T14:35:50Z</time>
      </trkpt>
      <trkpt lat="38.7058320" lon="1.4325580">
        <ele>24.1</ele>
        <time>2020-02-22T14:35:51Z</time>
      </trkpt>
      <trkpt lat="38.7058270" lon="1.4328220">
        <ele>24.1</ele>
        <time>2020-02-22T14:35:52Z</time>
      </trkpt>
      <trkpt lat="38.7058250" lon="1.4329500">
        <ele>22.1</ele>
        <time>2020-02-22T14:35:53Z</time>
      </trkpt>
      <trkpt lat="38.7058250" lon="1.4329500">
        <ele>22.1</ele>
        <time>2020-02-22T14:35:54Z</time>
      </trkpt>
      <trkpt lat="38.7057620" lon="1.4331900">
        <ele>22.1</ele>
        <time>2020-02-22T14:35:55Z</time>
      </trkpt>
      <trkpt lat="38.7057620" lon="1.4331900">
        <ele>22.1</ele>
        <time>2020-02-22T14:35:56Z</time>
      </trkpt>
      <trkpt lat="38.7057150" lon="1.4334420">
        <ele>21.1</ele>
        <time>2020-02-22T14:35:57Z</time>
      </trkpt>
      <trkpt lat="38.7057150" lon="1.4334420">
        <ele>21.1</ele>
        <time>2020-02-22T14:35:58Z</time>
      </trkpt>
      <trkpt lat="38.7057080" lon="1.4337250">
        <ele>20.1</ele>
        <time>2020-02-22T14:35:59Z</time>
      </trkpt>
      <trkpt lat="38.7057080" lon="1.4337250">
        <ele>20.1</ele>
        <time>2020-02-22T14:36:00Z</time>
      </trkpt>
      <trkpt lat="38.7056970" lon="1.4340230">
        <ele>20.1</ele>
        <time>2020-02-22T14:36:01Z</time>
      </trkpt>
      <trkpt lat="38.7056970" lon="1.4340230">
        <ele>20.1</ele>
        <time>2020-02-22T14:36:02Z</time>
      </trkpt>
      <trkpt lat="38.7057020" lon="1.4343330">
        <ele>20.1</ele>
        <time>2020-02-22T14:36:03Z</time>
      </trkpt>
      <trkpt lat="38.7057020" lon="1.4343330">
        <ele>20.1</ele>
        <time>2020-02-22T14:36:04Z</time>
      </trkpt>
      <trkpt lat="38.7057070" lon="1.4346500">
        <ele>20.1</ele>
        <time>2020-02-22T14:36:05Z</time>
      </trkpt>
      <trkpt lat="38.7057070" lon="1.4346500">
        <ele>20.1</ele>
        <time>2020-02-22T14:36:06Z</time>
      </trkpt>
      <trkpt lat="38.7057130" lon="1.4349620">
        <ele>20.1</ele>
        <time>2020-02-22T14:36:07Z</time>
      </trkpt>
      <trkpt lat="38.7057180" lon="1.4351170">
        <ele>20.1</ele>
        <time>2020-02-22T14:36:08Z</time>
      </trkpt>
      <trkpt lat="38.7057180" lon="1.4351170">
        <ele>20.1</ele>
        <time>2020-02-22T14:36:09Z</time>
      </trkpt>
      <trkpt lat="38.7057300" lon="1.4354220">
        <ele>20.1</ele>
        <time>2020-02-22T14:36:10Z</time>
      </trkpt>
      <trkpt lat="38.7057300" lon="1.4354220">
        <ele>20.1</ele>
        <time>2020-02-22T14:36:11Z</time>
      </trkpt>
      <trkpt lat="38.7057380" lon="1.4357150">
        <ele>20.1</ele>
        <time>2020-02-22T14:36:12Z</time>
      </trkpt>
      <trkpt lat="38.7057420" lon="1.4358620">
        <ele>20.1</ele>
        <time>2020-02-22T14:36:13Z</time>
      </trkpt>
      <trkpt lat="38.7057420" lon="1.4358620">
        <ele>20.1</ele>
        <time>2020-02-22T14:36:14Z</time>
      </trkpt>
      <trkpt lat="38.7057500" lon="1.4361620">
        <ele>20.1</ele>
        <time>2020-02-22T14:36:15Z</time>
      </trkpt>
      <trkpt lat="38.7057570" lon="1.4363180">
        <ele>20.1</ele>
        <time>2020-02-22T14:36:16Z</time>
      </trkpt>
      <trkpt lat="38.7057650" lon="1.4364780">
        <ele>20.1</ele>
        <time>2020-02-22T14:36:17Z</time>
      </trkpt>
      <trkpt lat="38.7057730" lon="1.4366380">
        <ele>20.1</ele>
        <time>2020-02-22T14:36:18Z</time>
      </trkpt>
      <trkpt lat="38.7057730" lon="1.4366380">
        <ele>20.1</ele>
        <time>2020-02-22T14:36:19Z</time>
      </trkpt>
      <trkpt lat="38.7057820" lon="1.4369570">
        <ele>19.1</ele>
        <time>2020-02-22T14:36:20Z</time>
      </trkpt>
      <trkpt lat="38.7057820" lon="1.4369570">
        <ele>19.1</ele>
        <time>2020-02-22T14:36:21Z</time>
      </trkpt>
      <trkpt lat="38.7058050" lon="1.4372720">
        <ele>19.1</ele>
        <time>2020-02-22T14:36:22Z</time>
      </trkpt>
      <trkpt lat="38.7058150" lon="1.4374280">
        <ele>19.1</ele>
        <time>2020-02-22T14:36:23Z</time>
      </trkpt>
      <trkpt lat="38.7058250" lon="1.4375830">
        <ele>18.1</ele>
        <time>2020-02-22T14:36:24Z</time>
      </trkpt>
      <trkpt lat="38.7058250" lon="1.4375830">
        <ele>18.1</ele>
        <time>2020-02-22T14:36:25Z</time>
      </trkpt>
      <trkpt lat="38.7058570" lon="1.4378870">
        <ele>18.1</ele>
        <time>2020-02-22T14:36:26Z</time>
      </trkpt>
      <trkpt lat="38.7058570" lon="1.4378870">
        <ele>18.1</ele>
        <time>2020-02-22T14:36:27Z</time>
      </trkpt>
      <trkpt lat="38.7059080" lon="1.4381820">
        <ele>17.1</ele>
        <time>2020-02-22T14:36:28Z</time>
      </trkpt>
      <trkpt lat="38.7059080" lon="1.4381820">
        <ele>17.1</ele>
        <time>2020-02-22T14:36:29Z</time>
      </trkpt>
      <trkpt lat="38.7059750" lon="1.4384700">
        <ele>17.1</ele>
        <time>2020-02-22T14:36:30Z</time>
      </trkpt>
      <trkpt lat="38.7060150" lon="1.4386100">
        <ele>17.1</ele>
        <time>2020-02-22T14:36:31Z</time>
      </trkpt>
      <trkpt lat="38.7060150" lon="1.4386100">
        <ele>17.1</ele>
        <time>2020-02-22T14:36:32Z</time>
      </trkpt>
      <trkpt lat="38.7061100" lon="1.4388800">
        <ele>17.1</ele>
        <time>2020-02-22T14:36:33Z</time>
      </trkpt>
      <trkpt lat="38.7061630" lon="1.4390100">
        <ele>17.1</ele>
        <time>2020-02-22T14:36:34Z</time>
      </trkpt>
      <trkpt lat="38.7061630" lon="1.4390100">
        <ele>17.1</ele>
        <time>2020-02-22T14:36:35Z</time>
      </trkpt>
      <trkpt lat="38.7062800" lon="1.4392470">
        <ele>17.1</ele>
        <time>2020-02-22T14:36:36Z</time>
      </trkpt>
      <trkpt lat="38.7063400" lon="1.4393580">
        <ele>17.1</ele>
        <time>2020-02-22T14:36:37Z</time>
      </trkpt>
      <trkpt lat="38.7063400" lon="1.4393580">
        <ele>17.1</ele>
        <time>2020-02-22T14:36:38Z</time>
      </trkpt>
      <trkpt lat="38.7064550" lon="1.4395830">
        <ele>17.1</ele>
        <time>2020-02-22T14:36:39Z</time>
      </trkpt>
      <trkpt lat="38.7064550" lon="1.4395830">
        <ele>17.1</ele>
        <time>2020-02-22T14:36:40Z</time>
      </trkpt>
      <trkpt lat="38.7065730" lon="1.4398050">
        <ele>17.1</ele>
        <time>2020-02-22T14:36:41Z</time>
      </trkpt>
      <trkpt lat="38.7065730" lon="1.4398050">
        <ele>17.1</ele>
        <time>2020-02-22T14:36:42Z</time>
      </trkpt>
      <trkpt lat="38.7066920" lon="1.4400270">
        <ele>17.1</ele>
        <time>2020-02-22T14:36:43Z</time>
      </trkpt>
      <trkpt lat="38.7066920" lon="1.4400270">
        <ele>17.1</ele>
        <time>2020-02-22T14:36:44Z</time>
      </trkpt>
      <trkpt lat="38.7068120" lon="1.4402450">
        <ele>17.1</ele>
        <time>2020-02-22T14:36:45Z</time>
      </trkpt>
      <trkpt lat="38.7068120" lon="1.4402450">
        <ele>17.1</ele>
        <time>2020-02-22T14:36:46Z</time>
      </trkpt>
      <trkpt lat="38.7069320" lon="1.4404600">
        <ele>17.1</ele>
        <time>2020-02-22T14:36:47Z</time>
      </trkpt>
      <trkpt lat="38.7069320" lon="1.4404600">
        <ele>17.1</ele>
        <time>2020-02-22T14:36:48Z</time>
      </trkpt>
      <trkpt lat="38.7070530" lon="1.4406770">
        <ele>15.1</ele>
        <time>2020-02-22T14:36:49Z</time>
      </trkpt>
      <trkpt lat="38.7070530" lon="1.4406770">
        <ele>15.1</ele>
        <time>2020-02-22T14:36:50Z</time>
      </trkpt>
      <trkpt lat="38.7071730" lon="1.4408980">
        <ele>15.1</ele>
        <time>2020-02-22T14:36:51Z</time>
      </trkpt>
      <trkpt lat="38.7071730" lon="1.4408980">
        <ele>15.1</ele>
        <time>2020-02-22T14:36:52Z</time>
      </trkpt>
      <trkpt lat="38.7072950" lon="1.4411230">
        <ele>15.1</ele>
        <time>2020-02-22T14:36:53Z</time>
      </trkpt>
      <trkpt lat="38.7073580" lon="1.4412370">
        <ele>15.1</ele>
        <time>2020-02-22T14:36:54Z</time>
      </trkpt>
      <trkpt lat="38.7074220" lon="1.4413520">
        <ele>15.1</ele>
        <time>2020-02-22T14:36:55Z</time>
      </trkpt>
      <trkpt lat="38.7074220" lon="1.4413520">
        <ele>15.1</ele>
        <time>2020-02-22T14:36:56Z</time>
      </trkpt>
      <trkpt lat="38.7075480" lon="1.4415770">
        <ele>15.1</ele>
        <time>2020-02-22T14:36:57Z</time>
      </trkpt>
      <trkpt lat="38.7075480" lon="1.4415770">
        <ele>15.1</ele>
        <time>2020-02-22T14:36:58Z</time>
      </trkpt>
      <trkpt lat="38.7076700" lon="1.4418020">
        <ele>15.1</ele>
        <time>2020-02-22T14:36:59Z</time>
      </trkpt>
      <trkpt lat="38.7076700" lon="1.4418020">
        <ele>15.1</ele>
        <time>2020-02-22T14:37:00Z</time>
      </trkpt>
      <trkpt lat="38.7077950" lon="1.4420250">
        <ele>15.1</ele>
        <time>2020-02-22T14:37:01Z</time>
      </trkpt>
      <trkpt lat="38.7078570" lon="1.4421330">
        <ele>15.1</ele>
        <time>2020-02-22T14:37:02Z</time>
      </trkpt>
      <trkpt lat="38.7078570" lon="1.4421330">
        <ele>15.1</ele>
        <time>2020-02-22T14:37:03Z</time>
      </trkpt>
      <trkpt lat="38.7079770" lon="1.4423520">
        <ele>15.1</ele>
        <time>2020-02-22T14:37:04Z</time>
      </trkpt>
      <trkpt lat="38.7079770" lon="1.4423520">
        <ele>15.1</ele>
        <time>2020-02-22T14:37:05Z</time>
      </trkpt>
      <trkpt lat="38.7080920" lon="1.4425730">
        <ele>15.1</ele>
        <time>2020-02-22T14:37:06Z</time>
      </trkpt>
      <trkpt lat="38.7081470" lon="1.4426850">
        <ele>15.1</ele>
        <time>2020-02-22T14:37:07Z</time>
      </trkpt>
      <trkpt lat="38.7081470" lon="1.4426850">
        <ele>15.1</ele>
        <time>2020-02-22T14:37:08Z</time>
      </trkpt>
      <trkpt lat="38.7082520" lon="1.4429100">
        <ele>15.1</ele>
        <time>2020-02-22T14:37:09Z</time>
      </trkpt>
      <trkpt lat="38.7082520" lon="1.4429100">
        <ele>15.1</ele>
        <time>2020-02-22T14:37:10Z</time>
      </trkpt>
      <trkpt lat="38.7083400" lon="1.4431420">
        <ele>15.1</ele>
        <time>2020-02-22T14:37:11Z</time>
      </trkpt>
      <trkpt lat="38.7083400" lon="1.4431420">
        <ele>15.1</ele>
        <time>2020-02-22T14:37:12Z</time>
      </trkpt>
      <trkpt lat="38.7083930" lon="1.4433970">
        <ele>15.1</ele>
        <time>2020-02-22T14:37:13Z</time>
      </trkpt>
      <trkpt lat="38.7084030" lon="1.4435330">
        <ele>15.1</ele>
        <time>2020-02-22T14:37:14Z</time>
      </trkpt>
      <trkpt lat="38.7084030" lon="1.4435330">
        <ele>15.1</ele>
        <time>2020-02-22T14:37:15Z</time>
      </trkpt>
      <trkpt lat="38.7084050" lon="1.4438030">
        <ele>15.1</ele>
        <time>2020-02-22T14:37:16Z</time>
      </trkpt>
      <trkpt lat="38.7084020" lon="1.4439380">
        <ele>15.1</ele>
        <time>2020-02-22T14:37:17Z</time>
      </trkpt>
      <trkpt lat="38.7084020" lon="1.4439380">
        <ele>15.1</ele>
        <time>2020-02-22T14:37:18Z</time>
      </trkpt>
      <trkpt lat="38.7083930" lon="1.4442020">
        <ele>15.1</ele>
        <time>2020-02-22T14:37:19Z</time>
      </trkpt>
      <trkpt lat="38.7083930" lon="1.4442020">
        <ele>15.1</ele>
        <time>2020-02-22T14:37:20Z</time>
      </trkpt>
      <trkpt lat="38.7083720" lon="1.4444650">
        <ele>15.1</ele>
        <time>2020-02-22T14:37:21Z</time>
      </trkpt>
      <trkpt lat="38.7083720" lon="1.4444650">
        <ele>15.1</ele>
        <time>2020-02-22T14:37:22Z</time>
      </trkpt>
      <trkpt lat="38.7083480" lon="1.4447300">
        <ele>15.1</ele>
        <time>2020-02-22T14:37:23Z</time>
      </trkpt>
      <trkpt lat="38.7083480" lon="1.4447300">
        <ele>15.1</ele>
        <time>2020-02-22T14:37:24Z</time>
      </trkpt>
      <trkpt lat="38.7083280" lon="1.4449980">
        <ele>15.1</ele>
        <time>2020-02-22T14:37:25Z</time>
      </trkpt>
      <trkpt lat="38.7083280" lon="1.4449980">
        <ele>16.1</ele>
        <time>2020-02-22T14:37:26Z</time>
      </trkpt>
      <trkpt lat="38.7083100" lon="1.4452680">
        <ele>16.1</ele>
        <time>2020-02-22T14:37:27Z</time>
      </trkpt>
      <trkpt lat="38.7083000" lon="1.4454000">
        <ele>16.1</ele>
        <time>2020-02-22T14:37:28Z</time>
      </trkpt>
      <trkpt lat="38.7083000" lon="1.4454000">
        <ele>16.1</ele>
        <time>2020-02-22T14:37:29Z</time>
      </trkpt>
      <trkpt lat="38.7082780" lon="1.4456600">
        <ele>16.1</ele>
        <time>2020-02-22T14:37:30Z</time>
      </trkpt>
      <trkpt lat="38.7082650" lon="1.4457870">
        <ele>16.1</ele>
        <time>2020-02-22T14:37:31Z</time>
      </trkpt>
      <trkpt lat="38.7082650" lon="1.4457870">
        <ele>16.1</ele>
        <time>2020-02-22T14:37:32Z</time>
      </trkpt>
      <trkpt lat="38.7082420" lon="1.4460420">
        <ele>16.1</ele>
        <time>2020-02-22T14:37:33Z</time>
      </trkpt>
      <trkpt lat="38.7082420" lon="1.4460420">
        <ele>16.1</ele>
        <time>2020-02-22T14:37:34Z</time>
      </trkpt>
      <trkpt lat="38.7082250" lon="1.4462980">
        <ele>16.1</ele>
        <time>2020-02-22T14:37:35Z</time>
      </trkpt>
      <trkpt lat="38.7082180" lon="1.4464270">
        <ele>16.1</ele>
        <time>2020-02-22T14:37:36Z</time>
      </trkpt>
      <trkpt lat="38.7082180" lon="1.4464270">
        <ele>16.1</ele>
        <time>2020-02-22T14:37:37Z</time>
      </trkpt>
      <trkpt lat="38.7082020" lon="1.4466820">
        <ele>16.1</ele>
        <time>2020-02-22T14:37:38Z</time>
      </trkpt>
      <trkpt lat="38.7081920" lon="1.4468080">
        <ele>16.1</ele>
        <time>2020-02-22T14:37:39Z</time>
      </trkpt>
      <trkpt lat="38.7081920" lon="1.4468080">
        <ele>16.1</ele>
        <time>2020-02-22T14:37:40Z</time>
      </trkpt>
      <trkpt lat="38.7081730" lon="1.4470630">
        <ele>16.1</ele>
        <time>2020-02-22T14:37:41Z</time>
      </trkpt>
      <trkpt lat="38.7081630" lon="1.4471920">
        <ele>16.1</ele>
        <time>2020-02-22T14:37:42Z</time>
      </trkpt>
      <trkpt lat="38.7081550" lon="1.4473200">
        <ele>17.1</ele>
        <time>2020-02-22T14:37:43Z</time>
      </trkpt>
      <trkpt lat="38.7081550" lon="1.4473200">
        <ele>17.1</ele>
        <time>2020-02-22T14:37:44Z</time>
      </trkpt>
      <trkpt lat="38.7081380" lon="1.4475750">
        <ele>17.1</ele>
        <time>2020-02-22T14:37:45Z</time>
      </trkpt>
      <trkpt lat="38.7081380" lon="1.4475750">
        <ele>17.1</ele>
        <time>2020-02-22T14:37:46Z</time>
      </trkpt>
      <trkpt lat="38.7081150" lon="1.4478220">
        <ele>17.1</ele>
        <time>2020-02-22T14:37:47Z</time>
      </trkpt>
      <trkpt lat="38.7081050" lon="1.4479450">
        <ele>17.1</ele>
        <time>2020-02-22T14:37:48Z</time>
      </trkpt>
      <trkpt lat="38.7081050" lon="1.4479450">
        <ele>17.1</ele>
        <time>2020-02-22T14:37:49Z</time>
      </trkpt>
      <trkpt lat="38.7080870" lon="1.4481920">
        <ele>17.1</ele>
        <time>2020-02-22T14:37:50Z</time>
      </trkpt>
      <trkpt lat="38.7080870" lon="1.4481920">
        <ele>17.1</ele>
        <time>2020-02-22T14:37:51Z</time>
      </trkpt>
      <trkpt lat="38.7080720" lon="1.4484320">
        <ele>17.1</ele>
        <time>2020-02-22T14:37:52Z</time>
      </trkpt>
      <trkpt lat="38.7080720" lon="1.4484320">
        <ele>17.1</ele>
        <time>2020-02-22T14:37:53Z</time>
      </trkpt>
      <trkpt lat="38.7080520" lon="1.4486670">
        <ele>17.1</ele>
        <time>2020-02-22T14:37:54Z</time>
      </trkpt>
      <trkpt lat="38.7080520" lon="1.4486670">
        <ele>17.1</ele>
        <time>2020-02-22T14:37:55Z</time>
      </trkpt>
      <trkpt lat="38.7080350" lon="1.4488980">
        <ele>18.1</ele>
        <time>2020-02-22T14:37:56Z</time>
      </trkpt>
      <trkpt lat="38.7080350" lon="1.4488980">
        <ele>18.1</ele>
        <time>2020-02-22T14:37:57Z</time>
      </trkpt>
      <trkpt lat="38.7080180" lon="1.4491250">
        <ele>18.1</ele>
        <time>2020-02-22T14:37:58Z</time>
      </trkpt>
      <trkpt lat="38.7080180" lon="1.4491250">
        <ele>18.1</ele>
        <time>2020-02-22T14:37:59Z</time>
      </trkpt>
      <trkpt lat="38.7080000" lon="1.4493500">
        <ele>18.1</ele>
        <time>2020-02-22T14:38:00Z</time>
      </trkpt>
      <trkpt lat="38.7079880" lon="1.4494680">
        <ele>18.1</ele>
        <time>2020-02-22T14:38:01Z</time>
      </trkpt>
      <trkpt lat="38.7079880" lon="1.4494680">
        <ele>18.1</ele>
        <time>2020-02-22T14:38:02Z</time>
      </trkpt>
      <trkpt lat="38.7079700" lon="1.4497020">
        <ele>18.1</ele>
        <time>2020-02-22T14:38:03Z</time>
      </trkpt>
      <trkpt lat="38.7079700" lon="1.4497020">
        <ele>18.1</ele>
        <time>2020-02-22T14:38:04Z</time>
      </trkpt>
      <trkpt lat="38.7079530" lon="1.4499420">
        <ele>19.1</ele>
        <time>2020-02-22T14:38:05Z</time>
      </trkpt>
      <trkpt lat="38.7079450" lon="1.4500620">
        <ele>19.1</ele>
        <time>2020-02-22T14:38:06Z</time>
      </trkpt>
      <trkpt lat="38.7079370" lon="1.4501800">
        <ele>19.1</ele>
        <time>2020-02-22T14:38:07Z</time>
      </trkpt>
      <trkpt lat="38.7079370" lon="1.4501800">
        <ele>19.1</ele>
        <time>2020-02-22T14:38:08Z</time>
      </trkpt>
      <trkpt lat="38.7079200" lon="1.4504120">
        <ele>19.1</ele>
        <time>2020-02-22T14:38:09Z</time>
      </trkpt>
      <trkpt lat="38.7079200" lon="1.4504120">
        <ele>19.1</ele>
        <time>2020-02-22T14:38:10Z</time>
      </trkpt>
      <trkpt lat="38.7079020" lon="1.4506430">
        <ele>19.1</ele>
        <time>2020-02-22T14:38:11Z</time>
      </trkpt>
      <trkpt lat="38.7079020" lon="1.4506430">
        <ele>19.1</ele>
        <time>2020-02-22T14:38:12Z</time>
      </trkpt>
      <trkpt lat="38.7078850" lon="1.4508770">
        <ele>19.1</ele>
        <time>2020-02-22T14:38:13Z</time>
      </trkpt>
      <trkpt lat="38.7078750" lon="1.4509950">
        <ele>19.1</ele>
        <time>2020-02-22T14:38:14Z</time>
      </trkpt>
      <trkpt lat="38.7078750" lon="1.4509950">
        <ele>20.1</ele>
        <time>2020-02-22T14:38:15Z</time>
      </trkpt>
      <trkpt lat="38.7078550" lon="1.4512380">
        <ele>20.1</ele>
        <time>2020-02-22T14:38:16Z</time>
      </trkpt>
      <trkpt lat="38.7078550" lon="1.4512380">
        <ele>20.1</ele>
        <time>2020-02-22T14:38:17Z</time>
      </trkpt>
      <trkpt lat="38.7078330" lon="1.4514870">
        <ele>20.1</ele>
        <time>2020-02-22T14:38:18Z</time>
      </trkpt>
      <trkpt lat="38.7078230" lon="1.4516130">
        <ele>20.1</ele>
        <time>2020-02-22T14:38:19Z</time>
      </trkpt>
      <trkpt lat="38.7078230" lon="1.4516130">
        <ele>20.1</ele>
        <time>2020-02-22T14:38:20Z</time>
      </trkpt>
      <trkpt lat="38.7078030" lon="1.4518700">
        <ele>20.1</ele>
        <time>2020-02-22T14:38:21Z</time>
      </trkpt>
      <trkpt lat="38.7078030" lon="1.4518700">
        <ele>20.1</ele>
        <time>2020-02-22T14:38:22Z</time>
      </trkpt>
      <trkpt lat="38.7077850" lon="1.4521300">
        <ele>20.1</ele>
        <time>2020-02-22T14:38:23Z</time>
      </trkpt>
      <trkpt lat="38.7077850" lon="1.4521300">
        <ele>20.1</ele>
        <time>2020-02-22T14:38:24Z</time>
      </trkpt>
      <trkpt lat="38.7077670" lon="1.4523900">
        <ele>20.1</ele>
        <time>2020-02-22T14:38:25Z</time>
      </trkpt>
      <trkpt lat="38.7077670" lon="1.4523900">
        <ele>20.1</ele>
        <time>2020-02-22T14:38:26Z</time>
      </trkpt>
      <trkpt lat="38.7077480" lon="1.4526520">
        <ele>20.1</ele>
        <time>2020-02-22T14:38:27Z</time>
      </trkpt>
      <trkpt lat="38.7077480" lon="1.4526520">
        <ele>20.1</ele>
        <time>2020-02-22T14:38:28Z</time>
      </trkpt>
      <trkpt lat="38.7077320" lon="1.4529080">
        <ele>20.1</ele>
        <time>2020-02-22T14:38:29Z</time>
      </trkpt>
      <trkpt lat="38.7077320" lon="1.4529080">
        <ele>20.1</ele>
        <time>2020-02-22T14:38:30Z</time>
      </trkpt>
      <trkpt lat="38.7077180" lon="1.4531650">
        <ele>20.1</ele>
        <time>2020-02-22T14:38:31Z</time>
      </trkpt>
      <trkpt lat="38.7077180" lon="1.4531650">
        <ele>20.1</ele>
        <time>2020-02-22T14:38:32Z</time>
      </trkpt>
      <trkpt lat="38.7077030" lon="1.4534180">
        <ele>20.1</ele>
        <time>2020-02-22T14:38:33Z</time>
      </trkpt>
      <trkpt lat="38.7077030" lon="1.4534180">
        <ele>20.1</ele>
        <time>2020-02-22T14:38:34Z</time>
      </trkpt>
      <trkpt lat="38.7076900" lon="1.4536670">
        <ele>20.1</ele>
        <time>2020-02-22T14:38:35Z</time>
      </trkpt>
      <trkpt lat="38.7076800" lon="1.4537850">
        <ele>21.1</ele>
        <time>2020-02-22T14:38:36Z</time>
      </trkpt>
      <trkpt lat="38.7076800" lon="1.4537850">
        <ele>21.1</ele>
        <time>2020-02-22T14:38:37Z</time>
      </trkpt>
      <trkpt lat="38.7076570" lon="1.4540020">
        <ele>21.1</ele>
        <time>2020-02-22T14:38:38Z</time>
      </trkpt>
      <trkpt lat="38.7076520" lon="1.4541000">
        <ele>21.1</ele>
        <time>2020-02-22T14:38:39Z</time>
      </trkpt>
      <trkpt lat="38.7076520" lon="1.4541000">
        <ele>21.1</ele>
        <time>2020-02-22T14:38:40Z</time>
      </trkpt>
      <trkpt lat="38.7076630" lon="1.4542720">
        <ele>21.1</ele>
        <time>2020-02-22T14:38:41Z</time>
      </trkpt>
      <trkpt lat="38.7076630" lon="1.4542720">
        <ele>21.1</ele>
        <time>2020-02-22T14:38:42Z</time>
      </trkpt>
      <trkpt lat="38.7077400" lon="1.4544000">
        <ele>21.1</ele>
        <time>2020-02-22T14:38:43Z</time>
      </trkpt>
      <trkpt lat="38.7077400" lon="1.4544000">
        <ele>21.1</ele>
        <time>2020-02-22T14:38:44Z</time>
      </trkpt>
      <trkpt lat="38.7078820" lon="1.4544770">
        <ele>21.1</ele>
        <time>2020-02-22T14:38:45Z</time>
      </trkpt>
      <trkpt lat="38.7078820" lon="1.4544770">
        <ele>21.1</ele>
        <time>2020-02-22T14:38:46Z</time>
      </trkpt>
      <trkpt lat="38.7080380" lon="1.4545870">
        <ele>21.1</ele>
        <time>2020-02-22T14:38:47Z</time>
      </trkpt>
      <trkpt lat="38.7081020" lon="1.4546720">
        <ele>21.1</ele>
        <time>2020-02-22T14:38:48Z</time>
      </trkpt>
      <trkpt lat="38.7081620" lon="1.4547720">
        <ele>20.1</ele>
        <time>2020-02-22T14:38:49Z</time>
      </trkpt>
      <trkpt lat="38.7082130" lon="1.4548830">
        <ele>20.1</ele>
        <time>2020-02-22T14:38:50Z</time>
      </trkpt>
      <trkpt lat="38.7082130" lon="1.4548830">
        <ele>20.1</ele>
        <time>2020-02-22T14:38:51Z</time>
      </trkpt>
      <trkpt lat="38.7083030" lon="1.4551220">
        <ele>20.1</ele>
        <time>2020-02-22T14:38:52Z</time>
      </trkpt>
      <trkpt lat="38.7083470" lon="1.4552430">
        <ele>20.1</ele>
        <time>2020-02-22T14:38:53Z</time>
      </trkpt>
      <trkpt lat="38.7083470" lon="1.4552430">
        <ele>20.1</ele>
        <time>2020-02-22T14:38:54Z</time>
      </trkpt>
      <trkpt lat="38.7084380" lon="1.4554850">
        <ele>20.1</ele>
        <time>2020-02-22T14:38:55Z</time>
      </trkpt>
      <trkpt lat="38.7084380" lon="1.4554850">
        <ele>20.1</ele>
        <time>2020-02-22T14:38:56Z</time>
      </trkpt>
      <trkpt lat="38.7085370" lon="1.4557270">
        <ele>20.1</ele>
        <time>2020-02-22T14:38:57Z</time>
      </trkpt>
      <trkpt lat="38.7085370" lon="1.4557270">
        <ele>20.1</ele>
        <time>2020-02-22T14:38:58Z</time>
      </trkpt>
      <trkpt lat="38.7086350" lon="1.4559700">
        <ele>20.1</ele>
        <time>2020-02-22T14:38:59Z</time>
      </trkpt>
      <trkpt lat="38.7086350" lon="1.4559700">
        <ele>20.1</ele>
        <time>2020-02-22T14:39:00Z</time>
      </trkpt>
      <trkpt lat="38.7087300" lon="1.4562150">
        <ele>20.1</ele>
        <time>2020-02-22T14:39:01Z</time>
      </trkpt>
      <trkpt lat="38.7087300" lon="1.4562150">
        <ele>20.1</ele>
        <time>2020-02-22T14:39:02Z</time>
      </trkpt>
      <trkpt lat="38.7088300" lon="1.4564530">
        <ele>20.1</ele>
        <time>2020-02-22T14:39:03Z</time>
      </trkpt>
      <trkpt lat="38.7088300" lon="1.4564530">
        <ele>20.1</ele>
        <time>2020-02-22T14:39:04Z</time>
      </trkpt>
      <trkpt lat="38.7089280" lon="1.4566870">
        <ele>20.1</ele>
        <time>2020-02-22T14:39:05Z</time>
      </trkpt>
      <trkpt lat="38.7089280" lon="1.4566870">
        <ele>20.1</ele>
        <time>2020-02-22T14:39:06Z</time>
      </trkpt>
      <trkpt lat="38.7090220" lon="1.4569170">
        <ele>20.1</ele>
        <time>2020-02-22T14:39:07Z</time>
      </trkpt>
      <trkpt lat="38.7090670" lon="1.4570300">
        <ele>20.1</ele>
        <time>2020-02-22T14:39:08Z</time>
      </trkpt>
      <trkpt lat="38.7091100" lon="1.4571380">
        <ele>20.1</ele>
        <time>2020-02-22T14:39:09Z</time>
      </trkpt>
      <trkpt lat="38.7091100" lon="1.4571380">
        <ele>20.1</ele>
        <time>2020-02-22T14:39:10Z</time>
      </trkpt>
      <trkpt lat="38.7091950" lon="1.4573430">
        <ele>21.1</ele>
        <time>2020-02-22T14:39:11Z</time>
      </trkpt>
      <trkpt lat="38.7091950" lon="1.4573430">
        <ele>21.1</ele>
        <time>2020-02-22T14:39:12Z</time>
      </trkpt>
      <trkpt lat="38.7092730" lon="1.4575370">
        <ele>21.1</ele>
        <time>2020-02-22T14:39:13Z</time>
      </trkpt>
      <trkpt lat="38.7092730" lon="1.4575370">
        <ele>21.1</ele>
        <time>2020-02-22T14:39:14Z</time>
      </trkpt>
      <trkpt lat="38.7093500" lon="1.4577220">
        <ele>22.1</ele>
        <time>2020-02-22T14:39:15Z</time>
      </trkpt>
      <trkpt lat="38.7093500" lon="1.4577220">
        <ele>22.1</ele>
        <time>2020-02-22T14:39:16Z</time>
      </trkpt>
      <trkpt lat="38.7094400" lon="1.4578830">
        <ele>22.1</ele>
        <time>2020-02-22T14:39:17Z</time>
      </trkpt>
      <trkpt lat="38.7095020" lon="1.4579320">
        <ele>22.1</ele>
        <time>2020-02-22T14:39:18Z</time>
      </trkpt>
      <trkpt lat="38.7095020" lon="1.4579320">
        <ele>23.1</ele>
        <time>2020-02-22T14:39:19Z</time>
      </trkpt>
      <trkpt lat="38.7096330" lon="1.4580130">
        <ele>23.1</ele>
        <time>2020-02-22T14:39:20Z</time>
      </trkpt>
      <trkpt lat="38.7096330" lon="1.4580130">
        <ele>23.1</ele>
        <time>2020-02-22T14:39:21Z</time>
      </trkpt>
      <trkpt lat="38.7096920" lon="1.4581730">
        <ele>23.1</ele>
        <time>2020-02-22T14:39:22Z</time>
      </trkpt>
      <trkpt lat="38.7096920" lon="1.4581730">
        <ele>23.1</ele>
        <time>2020-02-22T14:39:23Z</time>
      </trkpt>
      <trkpt lat="38.7097920" lon="1.4583230">
        <ele>24.1</ele>
        <time>2020-02-22T14:39:24Z</time>
      </trkpt>
      <trkpt lat="38.7098670" lon="1.4583750">
        <ele>24.1</ele>
        <time>2020-02-22T14:39:25Z</time>
      </trkpt>
      <trkpt lat="38.7099470" lon="1.4584250">
        <ele>24.1</ele>
        <time>2020-02-22T14:39:26Z</time>
      </trkpt>
      <trkpt lat="38.7099470" lon="1.4584250">
        <ele>24.1</ele>
        <time>2020-02-22T14:39:27Z</time>
      </trkpt>
      <trkpt lat="38.7101130" lon="1.4585250">
        <ele>25.1</ele>
        <time>2020-02-22T14:39:28Z</time>
      </trkpt>
      <trkpt lat="38.7101130" lon="1.4585250">
        <ele>25.1</ele>
        <time>2020-02-22T14:39:29Z</time>
      </trkpt>
      <trkpt lat="38.7102900" lon="1.4586270">
        <ele>25.1</ele>
        <time>2020-02-22T14:39:30Z</time>
      </trkpt>
      <trkpt lat="38.7102900" lon="1.4586270">
        <ele>25.1</ele>
        <time>2020-02-22T14:39:31Z</time>
      </trkpt>
      <trkpt lat="38.7104750" lon="1.4587330">
        <ele>24.1</ele>
        <time>2020-02-22T14:39:32Z</time>
      </trkpt>
      <trkpt lat="38.7105700" lon="1.4587920">
        <ele>24.1</ele>
        <time>2020-02-22T14:39:33Z</time>
      </trkpt>
      <trkpt lat="38.7105700" lon="1.4587920">
        <ele>24.1</ele>
        <time>2020-02-22T14:39:34Z</time>
      </trkpt>
      <trkpt lat="38.7107670" lon="1.4589050">
        <ele>24.1</ele>
        <time>2020-02-22T14:39:35Z</time>
      </trkpt>
      <trkpt lat="38.7107670" lon="1.4589050">
        <ele>23.1</ele>
        <time>2020-02-22T14:39:36Z</time>
      </trkpt>
      <trkpt lat="38.7109630" lon="1.4590200">
        <ele>23.1</ele>
        <time>2020-02-22T14:39:37Z</time>
      </trkpt>
      <trkpt lat="38.7109630" lon="1.4590200">
        <ele>23.1</ele>
        <time>2020-02-22T14:39:38Z</time>
      </trkpt>
      <trkpt lat="38.7111630" lon="1.4591320">
        <ele>23.1</ele>
        <time>2020-02-22T14:39:39Z</time>
      </trkpt>
      <trkpt lat="38.7111630" lon="1.4591320">
        <ele>23.1</ele>
        <time>2020-02-22T14:39:40Z</time>
      </trkpt>
      <trkpt lat="38.7113630" lon="1.4592370">
        <ele>23.1</ele>
        <time>2020-02-22T14:39:41Z</time>
      </trkpt>
      <trkpt lat="38.7113630" lon="1.4592370">
        <ele>23.1</ele>
        <time>2020-02-22T14:39:42Z</time>
      </trkpt>
      <trkpt lat="38.7115650" lon="1.4593430">
        <ele>23.1</ele>
        <time>2020-02-22T14:39:43Z</time>
      </trkpt>
      <trkpt lat="38.7115650" lon="1.4593430">
        <ele>23.1</ele>
        <time>2020-02-22T14:39:44Z</time>
      </trkpt>
      <trkpt lat="38.7117670" lon="1.4594480">
        <ele>23.1</ele>
        <time>2020-02-22T14:39:45Z</time>
      </trkpt>
      <trkpt lat="38.7117670" lon="1.4594480">
        <ele>23.1</ele>
        <time>2020-02-22T14:39:46Z</time>
      </trkpt>
      <trkpt lat="38.7119700" lon="1.4595620">
        <ele>23.1</ele>
        <time>2020-02-22T14:39:47Z</time>
      </trkpt>
      <trkpt lat="38.7119700" lon="1.4595620">
        <ele>23.1</ele>
        <time>2020-02-22T14:39:48Z</time>
      </trkpt>
      <trkpt lat="38.7121720" lon="1.4596750">
        <ele>23.1</ele>
        <time>2020-02-22T14:39:49Z</time>
      </trkpt>
      <trkpt lat="38.7121720" lon="1.4596750">
        <ele>23.1</ele>
        <time>2020-02-22T14:39:50Z</time>
      </trkpt>
      <trkpt lat="38.7123730" lon="1.4597780">
        <ele>23.1</ele>
        <time>2020-02-22T14:39:51Z</time>
      </trkpt>
      <trkpt lat="38.7123730" lon="1.4597780">
        <ele>23.1</ele>
        <time>2020-02-22T14:39:52Z</time>
      </trkpt>
      <trkpt lat="38.7125820" lon="1.4598750">
        <ele>23.1</ele>
        <time>2020-02-22T14:39:53Z</time>
      </trkpt>
      <trkpt lat="38.7126870" lon="1.4599220">
        <ele>23.1</ele>
        <time>2020-02-22T14:39:54Z</time>
      </trkpt>
      <trkpt lat="38.7126870" lon="1.4599220">
        <ele>23.1</ele>
        <time>2020-02-22T14:39:55Z</time>
      </trkpt>
      <trkpt lat="38.7128900" lon="1.4600050">
        <ele>23.1</ele>
        <time>2020-02-22T14:39:56Z</time>
      </trkpt>
      <trkpt lat="38.7128900" lon="1.4600050">
        <ele>23.1</ele>
        <time>2020-02-22T14:39:57Z</time>
      </trkpt>
      <trkpt lat="38.7130920" lon="1.4600780">
        <ele>23.1</ele>
        <time>2020-02-22T14:39:58Z</time>
      </trkpt>
      <trkpt lat="38.7130920" lon="1.4600780">
        <ele>23.1</ele>
        <time>2020-02-22T14:39:59Z</time>
      </trkpt>
      <trkpt lat="38.7132930" lon="1.4601480">
        <ele>23.1</ele>
        <time>2020-02-22T14:40:00Z</time>
      </trkpt>
      <trkpt lat="38.7132930" lon="1.4601480">
        <ele>23.1</ele>
        <time>2020-02-22T14:40:01Z</time>
      </trkpt>
      <trkpt lat="38.7134970" lon="1.4602250">
        <ele>22.1</ele>
        <time>2020-02-22T14:40:02Z</time>
      </trkpt>
      <trkpt lat="38.7134970" lon="1.4602250">
        <ele>22.1</ele>
        <time>2020-02-22T14:40:03Z</time>
      </trkpt>
      <trkpt lat="38.7137100" lon="1.4603180">
        <ele>22.1</ele>
        <time>2020-02-22T14:40:04Z</time>
      </trkpt>
      <trkpt lat="38.7137100" lon="1.4603180">
        <ele>22.1</ele>
        <time>2020-02-22T14:40:05Z</time>
      </trkpt>
      <trkpt lat="38.7139200" lon="1.4604300">
        <ele>22.1</ele>
        <time>2020-02-22T14:40:06Z</time>
      </trkpt>
      <trkpt lat="38.7139200" lon="1.4604300">
        <ele>22.1</ele>
        <time>2020-02-22T14:40:07Z</time>
      </trkpt>
      <trkpt lat="38.7141270" lon="1.4605470">
        <ele>22.1</ele>
        <time>2020-02-22T14:40:08Z</time>
      </trkpt>
      <trkpt lat="38.7142350" lon="1.4605970">
        <ele>22.1</ele>
        <time>2020-02-22T14:40:09Z</time>
      </trkpt>
      <trkpt lat="38.7142350" lon="1.4605970">
        <ele>21.1</ele>
        <time>2020-02-22T14:40:10Z</time>
      </trkpt>
      <trkpt lat="38.7144650" lon="1.4606550">
        <ele>21.1</ele>
        <time>2020-02-22T14:40:11Z</time>
      </trkpt>
      <trkpt lat="38.7145850" lon="1.4606570">
        <ele>21.1</ele>
        <time>2020-02-22T14:40:12Z</time>
      </trkpt>
      <trkpt lat="38.7145850" lon="1.4606570">
        <ele>21.1</ele>
        <time>2020-02-22T14:40:13Z</time>
      </trkpt>
      <trkpt lat="38.7148150" lon="1.4606030">
        <ele>20.1</ele>
        <time>2020-02-22T14:40:14Z</time>
      </trkpt>
      <trkpt lat="38.7149250" lon="1.4605470">
        <ele>20.1</ele>
        <time>2020-02-22T14:40:15Z</time>
      </trkpt>
      <trkpt lat="38.7150280" lon="1.4604700">
        <ele>20.1</ele>
        <time>2020-02-22T14:40:16Z</time>
      </trkpt>
      <trkpt lat="38.7150280" lon="1.4604700">
        <ele>20.1</ele>
        <time>2020-02-22T14:40:17Z</time>
      </trkpt>
      <trkpt lat="38.7152250" lon="1.4602780">
        <ele>18.1</ele>
        <time>2020-02-22T14:40:18Z</time>
      </trkpt>
      <trkpt lat="38.7153170" lon="1.4601770">
        <ele>18.1</ele>
        <time>2020-02-22T14:40:19Z</time>
      </trkpt>
      <trkpt lat="38.7154080" lon="1.4600720">
        <ele>18.1</ele>
        <time>2020-02-22T14:40:20Z</time>
      </trkpt>
      <trkpt lat="38.7154080" lon="1.4600720">
        <ele>18.1</ele>
        <time>2020-02-22T14:40:21Z</time>
      </trkpt>
      <trkpt lat="38.7155920" lon="1.4598530">
        <ele>18.1</ele>
        <time>2020-02-22T14:40:22Z</time>
      </trkpt>
      <trkpt lat="38.7155920" lon="1.4598530">
        <ele>18.1</ele>
        <time>2020-02-22T14:40:23Z</time>
      </trkpt>
      <trkpt lat="38.7157850" lon="1.4596400">
        <ele>18.1</ele>
        <time>2020-02-22T14:40:24Z</time>
      </trkpt>
      <trkpt lat="38.7158920" lon="1.4595430">
        <ele>18.1</ele>
        <time>2020-02-22T14:40:25Z</time>
      </trkpt>
      <trkpt lat="38.7158920" lon="1.4595430">
        <ele>17.1</ele>
        <time>2020-02-22T14:40:26Z</time>
      </trkpt>
      <trkpt lat="38.7161170" lon="1.4593630">
        <ele>17.1</ele>
        <time>2020-02-22T14:40:27Z</time>
      </trkpt>
      <trkpt lat="38.7161170" lon="1.4593630">
        <ele>16.1</ele>
        <time>2020-02-22T14:40:28Z</time>
      </trkpt>
      <trkpt lat="38.7163420" lon="1.4591780">
        <ele>16.1</ele>
        <time>2020-02-22T14:40:29Z</time>
      </trkpt>
      <trkpt lat="38.7164550" lon="1.4590880">
        <ele>16.1</ele>
        <time>2020-02-22T14:40:30Z</time>
      </trkpt>
      <trkpt lat="38.7165680" lon="1.4590000">
        <ele>16.1</ele>
        <time>2020-02-22T14:40:31Z</time>
      </trkpt>
      <trkpt lat="38.7165680" lon="1.4590000">
        <ele>14.1</ele>
        <time>2020-02-22T14:40:32Z</time>
      </trkpt>
      <trkpt lat="38.7168000" lon="1.4588250">
        <ele>14.1</ele>
        <time>2020-02-22T14:40:33Z</time>
      </trkpt>
      <trkpt lat="38.7168000" lon="1.4588250">
        <ele>14.1</ele>
        <time>2020-02-22T14:40:34Z</time>
      </trkpt>
      <trkpt lat="38.7170300" lon="1.4586430">
        <ele>14.1</ele>
        <time>2020-02-22T14:40:35Z</time>
      </trkpt>
      <trkpt lat="38.7170300" lon="1.4586430">
        <ele>14.1</ele>
        <time>2020-02-22T14:40:36Z</time>
      </trkpt>
      <trkpt lat="38.7172570" lon="1.4584600">
        <ele>12.1</ele>
        <time>2020-02-22T14:40:37Z</time>
      </trkpt>
      <trkpt lat="38.7173700" lon="1.4583700">
        <ele>12.1</ele>
        <time>2020-02-22T14:40:38Z</time>
      </trkpt>
      <trkpt lat="38.7173700" lon="1.4583700">
        <ele>12.1</ele>
        <time>2020-02-22T14:40:39Z</time>
      </trkpt>
      <trkpt lat="38.7175920" lon="1.4581920">
        <ele>12.1</ele>
        <time>2020-02-22T14:40:40Z</time>
      </trkpt>
      <trkpt lat="38.7175920" lon="1.4581920">
        <ele>11.1</ele>
        <time>2020-02-22T14:40:41Z</time>
      </trkpt>
      <trkpt lat="38.7178100" lon="1.4580150">
        <ele>11.1</ele>
        <time>2020-02-22T14:40:42Z</time>
      </trkpt>
      <trkpt lat="38.7179130" lon="1.4579300">
        <ele>11.1</ele>
        <time>2020-02-22T14:40:43Z</time>
      </trkpt>
      <trkpt lat="38.7180130" lon="1.4578470">
        <ele>10.1</ele>
        <time>2020-02-22T14:40:44Z</time>
      </trkpt>
      <trkpt lat="38.7180130" lon="1.4578470">
        <ele>10.1</ele>
        <time>2020-02-22T14:40:45Z</time>
      </trkpt>
      <trkpt lat="38.7182020" lon="1.4576970">
        <ele>10.1</ele>
        <time>2020-02-22T14:40:46Z</time>
      </trkpt>
      <trkpt lat="38.7182970" lon="1.4576250">
        <ele>10.1</ele>
        <time>2020-02-22T14:40:47Z</time>
      </trkpt>
      <trkpt lat="38.7182970" lon="1.4576250">
        <ele>10.1</ele>
        <time>2020-02-22T14:40:48Z</time>
      </trkpt>
      <trkpt lat="38.7184900" lon="1.4574820">
        <ele>10.1</ele>
        <time>2020-02-22T14:40:49Z</time>
      </trkpt>
      <trkpt lat="38.7185880" lon="1.4574070">
        <ele>10.1</ele>
        <time>2020-02-22T14:40:50Z</time>
      </trkpt>
      <trkpt lat="38.7186850" lon="1.4573300">
        <ele>10.1</ele>
        <time>2020-02-22T14:40:51Z</time>
      </trkpt>
      <trkpt lat="38.7186850" lon="1.4573300">
        <ele>10.1</ele>
        <time>2020-02-22T14:40:52Z</time>
      </trkpt>
      <trkpt lat="38.7188750" lon="1.4571770">
        <ele>10.1</ele>
        <time>2020-02-22T14:40:53Z</time>
      </trkpt>
      <trkpt lat="38.7188750" lon="1.4571770">
        <ele>9.1</ele>
        <time>2020-02-22T14:40:54Z</time>
      </trkpt>
      <trkpt lat="38.7190620" lon="1.4570280">
        <ele>9.1</ele>
        <time>2020-02-22T14:40:55Z</time>
      </trkpt>
      <trkpt lat="38.7191530" lon="1.4569570">
        <ele>8.1</ele>
        <time>2020-02-22T14:40:56Z</time>
      </trkpt>
      <trkpt lat="38.7191530" lon="1.4569570">
        <ele>8.1</ele>
        <time>2020-02-22T14:40:57Z</time>
      </trkpt>
      <trkpt lat="38.7193330" lon="1.4568200">
        <ele>8.1</ele>
        <time>2020-02-22T14:40:58Z</time>
      </trkpt>
      <trkpt lat="38.7193330" lon="1.4568200">
        <ele>7.1</ele>
        <time>2020-02-22T14:40:59Z</time>
      </trkpt>
      <trkpt lat="38.7195230" lon="1.4567200">
        <ele>7.1</ele>
        <time>2020-02-22T14:41:00Z</time>
      </trkpt>
      <trkpt lat="38.7195230" lon="1.4567200">
        <ele>7.1</ele>
        <time>2020-02-22T14:41:01Z</time>
      </trkpt>
      <trkpt lat="38.7197370" lon="1.4567100">
        <ele>7.1</ele>
        <time>2020-02-22T14:41:02Z</time>
      </trkpt>
      <trkpt lat="38.7198450" lon="1.4567250">
        <ele>7.1</ele>
        <time>2020-02-22T14:41:03Z</time>
      </trkpt>
      <trkpt lat="38.7198450" lon="1.4567250">
        <ele>7.1</ele>
        <time>2020-02-22T14:41:04Z</time>
      </trkpt>
      <trkpt lat="38.7200530" lon="1.4567470">
        <ele>7.1</ele>
        <time>2020-02-22T14:41:05Z</time>
      </trkpt>
      <trkpt lat="38.7201520" lon="1.4567580">
        <ele>7.1</ele>
        <time>2020-02-22T14:41:06Z</time>
      </trkpt>
      <trkpt lat="38.7202500" lon="1.4567670">
        <ele>7.1</ele>
        <time>2020-02-22T14:41:07Z</time>
      </trkpt>
      <trkpt lat="38.7202500" lon="1.4567670">
        <ele>7.1</ele>
        <time>2020-02-22T14:41:08Z</time>
      </trkpt>
      <trkpt lat="38.7204430" lon="1.4567950">
        <ele>6.1</ele>
        <time>2020-02-22T14:41:09Z</time>
      </trkpt>
      <trkpt lat="38.7204430" lon="1.4567950">
        <ele>6.1</ele>
        <time>2020-02-22T14:41:10Z</time>
      </trkpt>
      <trkpt lat="38.7206200" lon="1.4568180">
        <ele>5.1</ele>
        <time>2020-02-22T14:41:11Z</time>
      </trkpt>
      <trkpt lat="38.7207000" lon="1.4568100">
        <ele>5.1</ele>
        <time>2020-02-22T14:41:12Z</time>
      </trkpt>
      <trkpt lat="38.7207000" lon="1.4568100">
        <ele>5.1</ele>
        <time>2020-02-22T14:41:13Z</time>
      </trkpt>
      <trkpt lat="38.7208530" lon="1.4567520">
        <ele>5.1</ele>
        <time>2020-02-22T14:41:14Z</time>
      </trkpt>
      <trkpt lat="38.7208530" lon="1.4567520">
        <ele>5.1</ele>
        <time>2020-02-22T14:41:15Z</time>
      </trkpt>
      <trkpt lat="38.7209800" lon="1.4566430">
        <ele>5.1</ele>
        <time>2020-02-22T14:41:16Z</time>
      </trkpt>
      <trkpt lat="38.7210220" lon="1.4565480">
        <ele>5.1</ele>
        <time>2020-02-22T14:41:17Z</time>
      </trkpt>
      <trkpt lat="38.7210220" lon="1.4565480">
        <ele>5.1</ele>
        <time>2020-02-22T14:41:18Z</time>
      </trkpt>
      <trkpt lat="38.7210500" lon="1.4563120">
        <ele>4.1</ele>
        <time>2020-02-22T14:41:19Z</time>
      </trkpt>
      <trkpt lat="38.7210620" lon="1.4561800">
        <ele>4.1</ele>
        <time>2020-02-22T14:41:20Z</time>
      </trkpt>
      <trkpt lat="38.7210720" lon="1.4560430">
        <ele>3.1</ele>
        <time>2020-02-22T14:41:21Z</time>
      </trkpt>
      <trkpt lat="38.7210720" lon="1.4560430">
        <ele>3.1</ele>
        <time>2020-02-22T14:41:22Z</time>
      </trkpt>
      <trkpt lat="38.7210870" lon="1.4557530">
        <ele>3.1</ele>
        <time>2020-02-22T14:41:23Z</time>
      </trkpt>
      <trkpt lat="38.7210870" lon="1.4557530">
        <ele>3.1</ele>
        <time>2020-02-22T14:41:24Z</time>
      </trkpt>
      <trkpt lat="38.7211100" lon="1.4554480">
        <ele>2.1</ele>
        <time>2020-02-22T14:41:25Z</time>
      </trkpt>
      <trkpt lat="38.7211100" lon="1.4554480">
        <ele>2.1</ele>
        <time>2020-02-22T14:41:26Z</time>
      </trkpt>
      <trkpt lat="38.7211400" lon="1.4551280">
        <ele>2.1</ele>
        <time>2020-02-22T14:41:27Z</time>
      </trkpt>
      <trkpt lat="38.7211400" lon="1.4551280">
        <ele>2.1</ele>
        <time>2020-02-22T14:41:28Z</time>
      </trkpt>
      <trkpt lat="38.7211700" lon="1.4548070">
        <ele>2.1</ele>
        <time>2020-02-22T14:41:29Z</time>
      </trkpt>
      <trkpt lat="38.7211700" lon="1.4548070">
        <ele>2.1</ele>
        <time>2020-02-22T14:41:30Z</time>
      </trkpt>
      <trkpt lat="38.7212050" lon="1.4544930">
        <ele>2.1</ele>
        <time>2020-02-22T14:41:31Z</time>
      </trkpt>
      <trkpt lat="38.7212270" lon="1.4543380">
        <ele>2.1</ele>
        <time>2020-02-22T14:41:32Z</time>
      </trkpt>
      <trkpt lat="38.7212270" lon="1.4543380">
        <ele>2.1</ele>
        <time>2020-02-22T14:41:33Z</time>
      </trkpt>
      <trkpt lat="38.7212850" lon="1.4540530">
        <ele>2.1</ele>
        <time>2020-02-22T14:41:34Z</time>
      </trkpt>
      <trkpt lat="38.7213250" lon="1.4539230">
        <ele>2.1</ele>
        <time>2020-02-22T14:41:35Z</time>
      </trkpt>
      <trkpt lat="38.7213250" lon="1.4539230">
        <ele>2.1</ele>
        <time>2020-02-22T14:41:36Z</time>
      </trkpt>
      <trkpt lat="38.7214180" lon="1.4536720">
        <ele>2.1</ele>
        <time>2020-02-22T14:41:37Z</time>
      </trkpt>
      <trkpt lat="38.7214180" lon="1.4536720">
        <ele>2.1</ele>
        <time>2020-02-22T14:41:38Z</time>
      </trkpt>
      <trkpt lat="38.7215400" lon="1.4534430">
        <ele>2.1</ele>
        <time>2020-02-22T14:41:39Z</time>
      </trkpt>
      <trkpt lat="38.7215400" lon="1.4534430">
        <ele>1.1</ele>
        <time>2020-02-22T14:41:40Z</time>
      </trkpt>
      <trkpt lat="38.7216650" lon="1.4532330">
        <ele>1.1</ele>
        <time>2020-02-22T14:41:41Z</time>
      </trkpt>
      <trkpt lat="38.7216650" lon="1.4532330">
        <ele>1.1</ele>
        <time>2020-02-22T14:41:42Z</time>
      </trkpt>
      <trkpt lat="38.7217900" lon="1.4530270">
        <ele>1.1</ele>
        <time>2020-02-22T14:41:43Z</time>
      </trkpt>
      <trkpt lat="38.7217900" lon="1.4530270">
        <ele>1.1</ele>
        <time>2020-02-22T14:41:44Z</time>
      </trkpt>
      <trkpt lat="38.7219100" lon="1.4528180">
        <ele>1.1</ele>
        <time>2020-02-22T14:41:45Z</time>
      </trkpt>
      <trkpt lat="38.7219100" lon="1.4528180">
        <ele>1.1</ele>
        <time>2020-02-22T14:41:46Z</time>
      </trkpt>
      <trkpt lat="38.7220300" lon="1.4526150">
        <ele>1.1</ele>
        <time>2020-02-22T14:41:47Z</time>
      </trkpt>
      <trkpt lat="38.7220300" lon="1.4526150">
        <ele>1.1</ele>
        <time>2020-02-22T14:41:48Z</time>
      </trkpt>
      <trkpt lat="38.7221530" lon="1.4524170">
        <ele>1.1</ele>
        <time>2020-02-22T14:41:49Z</time>
      </trkpt>
      <trkpt lat="38.7221530" lon="1.4524170">
        <ele>1.1</ele>
        <time>2020-02-22T14:41:50Z</time>
      </trkpt>
      <trkpt lat="38.7222850" lon="1.4522250">
        <ele>1.1</ele>
        <time>2020-02-22T14:41:51Z</time>
      </trkpt>
      <trkpt lat="38.7222850" lon="1.4522250">
        <ele>0.1</ele>
        <time>2020-02-22T14:41:52Z</time>
      </trkpt>
      <trkpt lat="38.7224570" lon="1.4521000">
        <ele>0.1</ele>
        <time>2020-02-22T14:41:53Z</time>
      </trkpt>
      <trkpt lat="38.7224570" lon="1.4521000">
        <ele>0.1</ele>
        <time>2020-02-22T14:41:54Z</time>
      </trkpt>
      <trkpt lat="38.7226420" lon="1.4520480">
        <ele>0.1</ele>
        <time>2020-02-22T14:41:55Z</time>
      </trkpt>
      <trkpt lat="38.7226420" lon="1.4520480">
        <ele>0.1</ele>
        <time>2020-02-22T14:41:56Z</time>
      </trkpt>
      <trkpt lat="38.7228150" lon="1.4520380">
        <ele>1.1</ele>
        <time>2020-02-22T14:41:57Z</time>
      </trkpt>
      <trkpt lat="38.7228150" lon="1.4520380">
        <ele>1.1</ele>
        <time>2020-02-22T14:41:58Z</time>
      </trkpt>
      <trkpt lat="38.7229720" lon="1.4520350">
        <ele>2.1</ele>
        <time>2020-02-22T14:41:59Z</time>
      </trkpt>
      <trkpt lat="38.7230450" lon="1.4520350">
        <ele>2.1</ele>
        <time>2020-02-22T14:42:00Z</time>
      </trkpt>
      <trkpt lat="38.7230450" lon="1.4520350">
        <ele>2.1</ele>
        <time>2020-02-22T14:42:01Z</time>
      </trkpt>
      <trkpt lat="38.7231800" lon="1.4520200">
        <ele>2.1</ele>
        <time>2020-02-22T14:42:02Z</time>
      </trkpt>
      <trkpt lat="38.7232470" lon="1.4520020">
        <ele>3.1</ele>
        <time>2020-02-22T14:42:03Z</time>
      </trkpt>
      <trkpt lat="38.7232470" lon="1.4520020">
        <ele>3.1</ele>
        <time>2020-02-22T14:42:04Z</time>
      </trkpt>
      <trkpt lat="38.7233730" lon="1.4520200">
        <ele>4.1</ele>
        <time>2020-02-22T14:42:05Z</time>
      </trkpt>
      <trkpt lat="38.7234250" lon="1.4520430">
        <ele>4.1</ele>
        <time>2020-02-22T14:42:06Z</time>
      </trkpt>
      <trkpt lat="38.7234250" lon="1.4520430">
        <ele>4.1</ele>
        <time>2020-02-22T14:42:07Z</time>
      </trkpt>
      <trkpt lat="38.7235270" lon="1.4520330">
        <ele>4.1</ele>
        <time>2020-02-22T14:42:08Z</time>
      </trkpt>
      <trkpt lat="38.7235770" lon="1.4519870">
        <ele>5.1</ele>
        <time>2020-02-22T14:42:09Z</time>
      </trkpt>
      <trkpt lat="38.7235770" lon="1.4519870">
        <ele>5.1</ele>
        <time>2020-02-22T14:42:10Z</time>
      </trkpt>
      <trkpt lat="38.7236850" lon="1.4518580">
        <ele>5.1</ele>
        <time>2020-02-22T14:42:11Z</time>
      </trkpt>
      <trkpt lat="38.7236850" lon="1.4518580">
        <ele>5.1</ele>
        <time>2020-02-22T14:42:12Z</time>
      </trkpt>
      <trkpt lat="38.7238070" lon="1.4516930">
        <ele>5.1</ele>
        <time>2020-02-22T14:42:13Z</time>
      </trkpt>
      <trkpt lat="38.7238070" lon="1.4516930">
        <ele>4.1</ele>
        <time>2020-02-22T14:42:14Z</time>
      </trkpt>
      <trkpt lat="38.7239430" lon="1.4515050">
        <ele>4.1</ele>
        <time>2020-02-22T14:42:15Z</time>
      </trkpt>
      <trkpt lat="38.7240170" lon="1.4514000">
        <ele>4.1</ele>
        <time>2020-02-22T14:42:16Z</time>
      </trkpt>
      <trkpt lat="38.7240170" lon="1.4514000">
        <ele>4.1</ele>
        <time>2020-02-22T14:42:17Z</time>
      </trkpt>
      <trkpt lat="38.7241700" lon="1.4511800">
        <ele>4.1</ele>
        <time>2020-02-22T14:42:18Z</time>
      </trkpt>
      <trkpt lat="38.7242480" lon="1.4510680">
        <ele>4.1</ele>
        <time>2020-02-22T14:42:19Z</time>
      </trkpt>
      <trkpt lat="38.7242480" lon="1.4510680">
        <ele>4.1</ele>
        <time>2020-02-22T14:42:20Z</time>
      </trkpt>
      <trkpt lat="38.7244070" lon="1.4508380">
        <ele>3.1</ele>
        <time>2020-02-22T14:42:21Z</time>
      </trkpt>
      <trkpt lat="38.7244070" lon="1.4508380">
        <ele>3.1</ele>
        <time>2020-02-22T14:42:22Z</time>
      </trkpt>
      <trkpt lat="38.7245680" lon="1.4506050">
        <ele>2.1</ele>
        <time>2020-02-22T14:42:23Z</time>
      </trkpt>
      <trkpt lat="38.7245680" lon="1.4506050">
        <ele>2.1</ele>
        <time>2020-02-22T14:42:24Z</time>
      </trkpt>
      <trkpt lat="38.7247300" lon="1.4503720">
        <ele>1.1</ele>
        <time>2020-02-22T14:42:25Z</time>
      </trkpt>
      <trkpt lat="38.7248080" lon="1.4502550">
        <ele>1.1</ele>
        <time>2020-02-22T14:42:26Z</time>
      </trkpt>
      <trkpt lat="38.7248080" lon="1.4502550">
        <ele>1.1</ele>
        <time>2020-02-22T14:42:27Z</time>
      </trkpt>
      <trkpt lat="38.7249550" lon="1.4500220">
        <ele>0.1</ele>
        <time>2020-02-22T14:42:28Z</time>
      </trkpt>
      <trkpt lat="38.7249550" lon="1.4500220">
        <ele>0.1</ele>
        <time>2020-02-22T14:42:29Z</time>
      </trkpt>
      <trkpt lat="38.7251070" lon="1.4498030">
        <ele>0.1</ele>
        <time>2020-02-22T14:42:30Z</time>
      </trkpt>
      <trkpt lat="38.7251830" lon="1.4496950">
        <ele>0.1</ele>
        <time>2020-02-22T14:42:31Z</time>
      </trkpt>
      <trkpt lat="38.7251830" lon="1.4496950">
        <ele>0.1</ele>
        <time>2020-02-22T14:42:32Z</time>
      </trkpt>
      <trkpt lat="38.7253330" lon="1.4494820">
        <ele>0.1</ele>
        <time>2020-02-22T14:42:33Z</time>
      </trkpt>
      <trkpt lat="38.7253330" lon="1.4494820">
        <ele>-0.9</ele>
        <time>2020-02-22T14:42:34Z</time>
      </trkpt>
      <trkpt lat="38.7254750" lon="1.4492700">
        <ele>-0.9</ele>
        <time>2020-02-22T14:42:35Z</time>
      </trkpt>
      <trkpt lat="38.7255470" lon="1.4491680">
        <ele>-0.9</ele>
        <time>2020-02-22T14:42:36Z</time>
      </trkpt>
      <trkpt lat="38.7256180" lon="1.4490650">
        <ele>-0.9</ele>
        <time>2020-02-22T14:42:37Z</time>
      </trkpt>
      <trkpt lat="38.7256180" lon="1.4490650">
        <ele>-0.9</ele>
        <time>2020-02-22T14:42:38Z</time>
      </trkpt>
      <trkpt lat="38.7257570" lon="1.4488620">
        <ele>-0.9</ele>
        <time>2020-02-22T14:42:39Z</time>
      </trkpt>
      <trkpt lat="38.7257570" lon="1.4488620">
        <ele>-0.9</ele>
        <time>2020-02-22T14:42:40Z</time>
      </trkpt>
      <trkpt lat="38.7258950" lon="1.4486650">
        <ele>-0.9</ele>
        <time>2020-02-22T14:42:41Z</time>
      </trkpt>
      <trkpt lat="38.7258950" lon="1.4486650">
        <ele>-0.9</ele>
        <time>2020-02-22T14:42:42Z</time>
      </trkpt>
      <trkpt lat="38.7260420" lon="1.4484770">
        <ele>-0.9</ele>
        <time>2020-02-22T14:42:43Z</time>
      </trkpt>
      <trkpt lat="38.7261220" lon="1.4483930">
        <ele>-0.9</ele>
        <time>2020-02-22T14:42:44Z</time>
      </trkpt>
      <trkpt lat="38.7261220" lon="1.4483930">
        <ele>-0.9</ele>
        <time>2020-02-22T14:42:45Z</time>
      </trkpt>
      <trkpt lat="38.7262880" lon="1.4482420">
        <ele>-0.9</ele>
        <time>2020-02-22T14:42:46Z</time>
      </trkpt>
      <trkpt lat="38.7262880" lon="1.4482420">
        <ele>-0.9</ele>
        <time>2020-02-22T14:42:47Z</time>
      </trkpt>
      <trkpt lat="38.7264570" lon="1.4480980">
        <ele>1.1</ele>
        <time>2020-02-22T14:42:48Z</time>
      </trkpt>
      <trkpt lat="38.7265380" lon="1.4480320">
        <ele>1.1</ele>
        <time>2020-02-22T14:42:49Z</time>
      </trkpt>
      <trkpt lat="38.7265380" lon="1.4480320">
        <ele>1.1</ele>
        <time>2020-02-22T14:42:50Z</time>
      </trkpt>
      <trkpt lat="38.7266970" lon="1.4478980">
        <ele>1.1</ele>
        <time>2020-02-22T14:42:51Z</time>
      </trkpt>
      <trkpt lat="38.7266970" lon="1.4478980">
        <ele>1.1</ele>
        <time>2020-02-22T14:42:52Z</time>
      </trkpt>
      <trkpt lat="38.7268450" lon="1.4477800">
        <ele>2.1</ele>
        <time>2020-02-22T14:42:53Z</time>
      </trkpt>
      <trkpt lat="38.7268450" lon="1.4477800">
        <ele>2.1</ele>
        <time>2020-02-22T14:42:54Z</time>
      </trkpt>
      <trkpt lat="38.7269880" lon="1.4476650">
        <ele>2.1</ele>
        <time>2020-02-22T14:42:55Z</time>
      </trkpt>
      <trkpt lat="38.7269880" lon="1.4476650">
        <ele>2.1</ele>
        <time>2020-02-22T14:42:56Z</time>
      </trkpt>
      <trkpt lat="38.7271280" lon="1.4475530">
        <ele>2.1</ele>
        <time>2020-02-22T14:42:57Z</time>
      </trkpt>
      <trkpt lat="38.7271280" lon="1.4475530">
        <ele>2.1</ele>
        <time>2020-02-22T14:42:58Z</time>
      </trkpt>
      <trkpt lat="38.7272680" lon="1.4474430">
        <ele>3.1</ele>
        <time>2020-02-22T14:42:59Z</time>
      </trkpt>
      <trkpt lat="38.7272680" lon="1.4474430">
        <ele>3.1</ele>
        <time>2020-02-22T14:43:00Z</time>
      </trkpt>
      <trkpt lat="38.7274130" lon="1.4473350">
        <ele>3.1</ele>
        <time>2020-02-22T14:43:01Z</time>
      </trkpt>
      <trkpt lat="38.7274920" lon="1.4472780">
        <ele>3.1</ele>
        <time>2020-02-22T14:43:02Z</time>
      </trkpt>
      <trkpt lat="38.7274920" lon="1.4472780">
        <ele>3.1</ele>
        <time>2020-02-22T14:43:03Z</time>
      </trkpt>
      <trkpt lat="38.7276580" lon="1.4471580">
        <ele>3.1</ele>
        <time>2020-02-22T14:43:04Z</time>
      </trkpt>
      <trkpt lat="38.7276580" lon="1.4471580">
        <ele>3.1</ele>
        <time>2020-02-22T14:43:05Z</time>
      </trkpt>
      <trkpt lat="38.7278370" lon="1.4470280">
        <ele>3.1</ele>
        <time>2020-02-22T14:43:06Z</time>
      </trkpt>
      <trkpt lat="38.7279300" lon="1.4469630">
        <ele>3.1</ele>
        <time>2020-02-22T14:43:07Z</time>
      </trkpt>
      <trkpt lat="38.7279300" lon="1.4469630">
        <ele>3.1</ele>
        <time>2020-02-22T14:43:08Z</time>
      </trkpt>
      <trkpt lat="38.7281220" lon="1.4468300">
        <ele>2.1</ele>
        <time>2020-02-22T14:43:09Z</time>
      </trkpt>
      <trkpt lat="38.7281220" lon="1.4468300">
        <ele>2.1</ele>
        <time>2020-02-22T14:43:10Z</time>
      </trkpt>
      <trkpt lat="38.7283100" lon="1.4466950">
        <ele>2.1</ele>
        <time>2020-02-22T14:43:11Z</time>
      </trkpt>
      <trkpt lat="38.7283100" lon="1.4466950">
        <ele>1.1</ele>
        <time>2020-02-22T14:43:12Z</time>
      </trkpt>
      <trkpt lat="38.7284930" lon="1.4465570">
        <ele>1.1</ele>
        <time>2020-02-22T14:43:13Z</time>
      </trkpt>
      <trkpt lat="38.7284930" lon="1.4465570">
        <ele>1.1</ele>
        <time>2020-02-22T14:43:14Z</time>
      </trkpt>
      <trkpt lat="38.7286730" lon="1.4464250">
        <ele>1.1</ele>
        <time>2020-02-22T14:43:15Z</time>
      </trkpt>
      <trkpt lat="38.7286730" lon="1.4464250">
        <ele>1.1</ele>
        <time>2020-02-22T14:43:16Z</time>
      </trkpt>
      <trkpt lat="38.7288500" lon="1.4463020">
        <ele>1.1</ele>
        <time>2020-02-22T14:43:17Z</time>
      </trkpt>
      <trkpt lat="38.7288500" lon="1.4463020">
        <ele>0.1</ele>
        <time>2020-02-22T14:43:18Z</time>
      </trkpt>
      <trkpt lat="38.7290280" lon="1.4461780">
        <ele>0.1</ele>
        <time>2020-02-22T14:43:19Z</time>
      </trkpt>
      <trkpt lat="38.7291170" lon="1.4461170">
        <ele>0.1</ele>
        <time>2020-02-22T14:43:20Z</time>
      </trkpt>
      <trkpt lat="38.7291170" lon="1.4461170">
        <ele>0.1</ele>
        <time>2020-02-22T14:43:21Z</time>
      </trkpt>
      <trkpt lat="38.7292930" lon="1.4459850">
        <ele>-0.9</ele>
        <time>2020-02-22T14:43:22Z</time>
      </trkpt>
      <trkpt lat="38.7292930" lon="1.4459850">
        <ele>-0.9</ele>
        <time>2020-02-22T14:43:23Z</time>
      </trkpt>
      <trkpt lat="38.7294670" lon="1.4458500">
        <ele>-0.9</ele>
        <time>2020-02-22T14:43:24Z</time>
      </trkpt>
      <trkpt lat="38.7295500" lon="1.4457780">
        <ele>-0.9</ele>
        <time>2020-02-22T14:43:25Z</time>
      </trkpt>
      <trkpt lat="38.7295500" lon="1.4457780">
        <ele>-0.9</ele>
        <time>2020-02-22T14:43:26Z</time>
      </trkpt>
      <trkpt lat="38.7297070" lon="1.4456170">
        <ele>-0.9</ele>
        <time>2020-02-22T14:43:27Z</time>
      </trkpt>
      <trkpt lat="38.7297070" lon="1.4456170">
        <ele>-0.9</ele>
        <time>2020-02-22T14:43:28Z</time>
      </trkpt>
      <trkpt lat="38.7298380" lon="1.4454330">
        <ele>-0.9</ele>
        <time>2020-02-22T14:43:29Z</time>
      </trkpt>
      <trkpt lat="38.7298980" lon="1.4453330">
        <ele>-0.9</ele>
        <time>2020-02-22T14:43:30Z</time>
      </trkpt>
      <trkpt lat="38.7298980" lon="1.4453330">
        <ele>-0.9</ele>
        <time>2020-02-22T14:43:31Z</time>
      </trkpt>
      <trkpt lat="38.7300080" lon="1.4451280">
        <ele>-0.9</ele>
        <time>2020-02-22T14:43:32Z</time>
      </trkpt>
      <trkpt lat="38.7300600" lon="1.4450200">
        <ele>-0.9</ele>
        <time>2020-02-22T14:43:33Z</time>
      </trkpt>
      <trkpt lat="38.7300600" lon="1.4450200">
        <ele>-0.9</ele>
        <time>2020-02-22T14:43:34Z</time>
      </trkpt>
      <trkpt lat="38.7301630" lon="1.4448020">
        <ele>-0.9</ele>
        <time>2020-02-22T14:43:35Z</time>
      </trkpt>
      <trkpt lat="38.7302170" lon="1.4446900">
        <ele>-0.9</ele>
        <time>2020-02-22T14:43:36Z</time>
      </trkpt>
      <trkpt lat="38.7302770" lon="1.4445830">
        <ele>0.1</ele>
        <time>2020-02-22T14:43:37Z</time>
      </trkpt>
      <trkpt lat="38.7303420" lon="1.4444850">
        <ele>0.1</ele>
        <time>2020-02-22T14:43:38Z</time>
      </trkpt>
      <trkpt lat="38.7303420" lon="1.4444850">
        <ele>0.1</ele>
        <time>2020-02-22T14:43:39Z</time>
      </trkpt>
      <trkpt lat="38.7304850" lon="1.4443030">
        <ele>0.1</ele>
        <time>2020-02-22T14:43:40Z</time>
      </trkpt>
      <trkpt lat="38.7305600" lon="1.4442170">
        <ele>0.1</ele>
        <time>2020-02-22T14:43:41Z</time>
      </trkpt>
      <trkpt lat="38.7305600" lon="1.4442170">
        <ele>0.1</ele>
        <time>2020-02-22T14:43:42Z</time>
      </trkpt>
      <trkpt lat="38.7307100" lon="1.4440480">
        <ele>0.1</ele>
        <time>2020-02-22T14:43:43Z</time>
      </trkpt>
      <trkpt lat="38.7307100" lon="1.4440480">
        <ele>0.1</ele>
        <time>2020-02-22T14:43:44Z</time>
      </trkpt>
      <trkpt lat="38.7308570" lon="1.4438900">
        <ele>0.1</ele>
        <time>2020-02-22T14:43:45Z</time>
      </trkpt>
      <trkpt lat="38.7308570" lon="1.4438900">
        <ele>0.1</ele>
        <time>2020-02-22T14:43:46Z</time>
      </trkpt>
      <trkpt lat="38.7310000" lon="1.4437450">
        <ele>0.1</ele>
        <time>2020-02-22T14:43:47Z</time>
      </trkpt>
      <trkpt lat="38.7310000" lon="1.4437450">
        <ele>0.1</ele>
        <time>2020-02-22T14:43:48Z</time>
      </trkpt>
      <trkpt lat="38.7311420" lon="1.4436050">
        <ele>0.1</ele>
        <time>2020-02-22T14:43:49Z</time>
      </trkpt>
      <trkpt lat="38.7312120" lon="1.4435350">
        <ele>0.1</ele>
        <time>2020-02-22T14:43:50Z</time>
      </trkpt>
      <trkpt lat="38.7312850" lon="1.4434670">
        <ele>0.1</ele>
        <time>2020-02-22T14:43:51Z</time>
      </trkpt>
      <trkpt lat="38.7312850" lon="1.4434670">
        <ele>0.1</ele>
        <time>2020-02-22T14:43:52Z</time>
      </trkpt>
      <trkpt lat="38.7314270" lon="1.4433230">
        <ele>0.1</ele>
        <time>2020-02-22T14:43:53Z</time>
      </trkpt>
      <trkpt lat="38.7314270" lon="1.4433230">
        <ele>0.1</ele>
        <time>2020-02-22T14:43:54Z</time>
      </trkpt>
      <trkpt lat="38.7315580" lon="1.4431730">
        <ele>0.1</ele>
        <time>2020-02-22T14:43:55Z</time>
      </trkpt>
      <trkpt lat="38.7316220" lon="1.4431000">
        <ele>0.1</ele>
        <time>2020-02-22T14:43:56Z</time>
      </trkpt>
      <trkpt lat="38.7316220" lon="1.4431000">
        <ele>0.1</ele>
        <time>2020-02-22T14:43:57Z</time>
      </trkpt>
      <trkpt lat="38.7317430" lon="1.4429450">
        <ele>0.1</ele>
        <time>2020-02-22T14:43:58Z</time>
      </trkpt>
      <trkpt lat="38.7317430" lon="1.4429450">
        <ele>0.1</ele>
        <time>2020-02-22T14:43:59Z</time>
      </trkpt>
      <trkpt lat="38.7318600" lon="1.4427850">
        <ele>0.1</ele>
        <time>2020-02-22T14:44:00Z</time>
      </trkpt>
      <trkpt lat="38.7319130" lon="1.4426980">
        <ele>0.1</ele>
        <time>2020-02-22T14:44:01Z</time>
      </trkpt>
      <trkpt lat="38.7319620" lon="1.4426080">
        <ele>0.1</ele>
        <time>2020-02-22T14:44:02Z</time>
      </trkpt>
      <trkpt lat="38.7319620" lon="1.4426080">
        <ele>0.1</ele>
        <time>2020-02-22T14:44:03Z</time>
      </trkpt>
      <trkpt lat="38.7320320" lon="1.4424120">
        <ele>0.1</ele>
        <time>2020-02-22T14:44:04Z</time>
      </trkpt>
      <trkpt lat="38.7320430" lon="1.4423070">
        <ele>0.1</ele>
        <time>2020-02-22T14:44:05Z</time>
      </trkpt>
      <trkpt lat="38.7320430" lon="1.4423070">
        <ele>0.1</ele>
        <time>2020-02-22T14:44:06Z</time>
      </trkpt>
      <trkpt lat="38.7320520" lon="1.4420950">
        <ele>0.1</ele>
        <time>2020-02-22T14:44:07Z</time>
      </trkpt>
      <trkpt lat="38.7320520" lon="1.4420950">
        <ele>0.1</ele>
        <time>2020-02-22T14:44:08Z</time>
      </trkpt>
      <trkpt lat="38.7320450" lon="1.4418830">
        <ele>0.1</ele>
        <time>2020-02-22T14:44:09Z</time>
      </trkpt>
      <trkpt lat="38.7320450" lon="1.4418830">
        <ele>0.1</ele>
        <time>2020-02-22T14:44:10Z</time>
      </trkpt>
      <trkpt lat="38.7320400" lon="1.4416750">
        <ele>0.1</ele>
        <time>2020-02-22T14:44:11Z</time>
      </trkpt>
      <trkpt lat="38.7320370" lon="1.4415720">
        <ele>0.1</ele>
        <time>2020-02-22T14:44:12Z</time>
      </trkpt>
      <trkpt lat="38.7320380" lon="1.4414680">
        <ele>0.1</ele>
        <time>2020-02-22T14:44:13Z</time>
      </trkpt>
      <trkpt lat="38.7320450" lon="1.4413630">
        <ele>0.1</ele>
        <time>2020-02-22T14:44:14Z</time>
      </trkpt>
      <trkpt lat="38.7320450" lon="1.4413630">
        <ele>0.1</ele>
        <time>2020-02-22T14:44:15Z</time>
      </trkpt>
      <trkpt lat="38.7320680" lon="1.4411600">
        <ele>0.1</ele>
        <time>2020-02-22T14:44:16Z</time>
      </trkpt>
      <trkpt lat="38.7320930" lon="1.4410630">
        <ele>0.1</ele>
        <time>2020-02-22T14:44:17Z</time>
      </trkpt>
      <trkpt lat="38.7321280" lon="1.4409670">
        <ele>0.1</ele>
        <time>2020-02-22T14:44:18Z</time>
      </trkpt>
      <trkpt lat="38.7321280" lon="1.4409670">
        <ele>0.1</ele>
        <time>2020-02-22T14:44:19Z</time>
      </trkpt>
      <trkpt lat="38.7322080" lon="1.4407850">
        <ele>0.1</ele>
        <time>2020-02-22T14:44:20Z</time>
      </trkpt>
      <trkpt lat="38.7322530" lon="1.4406970">
        <ele>0.1</ele>
        <time>2020-02-22T14:44:21Z</time>
      </trkpt>
      <trkpt lat="38.7322530" lon="1.4406970">
        <ele>0.1</ele>
        <time>2020-02-22T14:44:22Z</time>
      </trkpt>
      <trkpt lat="38.7323450" lon="1.4405250">
        <ele>0.1</ele>
        <time>2020-02-22T14:44:23Z</time>
      </trkpt>
      <trkpt lat="38.7323450" lon="1.4405250">
        <ele>0.1</ele>
        <time>2020-02-22T14:44:24Z</time>
      </trkpt>
      <trkpt lat="38.7324450" lon="1.4403580">
        <ele>0.1</ele>
        <time>2020-02-22T14:44:25Z</time>
      </trkpt>
      <trkpt lat="38.7324450" lon="1.4403580">
        <ele>0.1</ele>
        <time>2020-02-22T14:44:26Z</time>
      </trkpt>
      <trkpt lat="38.7325680" lon="1.4402130">
        <ele>0.1</ele>
        <time>2020-02-22T14:44:27Z</time>
      </trkpt>
      <trkpt lat="38.7325680" lon="1.4402130">
        <ele>0.1</ele>
        <time>2020-02-22T14:44:28Z</time>
      </trkpt>
      <trkpt lat="38.7327220" lon="1.4401080">
        <ele>0.1</ele>
        <time>2020-02-22T14:44:29Z</time>
      </trkpt>
      <trkpt lat="38.7327220" lon="1.4401080">
        <ele>0.1</ele>
        <time>2020-02-22T14:44:30Z</time>
      </trkpt>
      <trkpt lat="38.7328820" lon="1.4400080">
        <ele>0.1</ele>
        <time>2020-02-22T14:44:31Z</time>
      </trkpt>
      <trkpt lat="38.7329600" lon="1.4399570">
        <ele>0.1</ele>
        <time>2020-02-22T14:44:32Z</time>
      </trkpt>
      <trkpt lat="38.7329600" lon="1.4399570">
        <ele>0.1</ele>
        <time>2020-02-22T14:44:33Z</time>
      </trkpt>
      <trkpt lat="38.7330980" lon="1.4398370">
        <ele>0.1</ele>
        <time>2020-02-22T14:44:34Z</time>
      </trkpt>
      <trkpt lat="38.7330980" lon="1.4398370">
        <ele>0.1</ele>
        <time>2020-02-22T14:44:35Z</time>
      </trkpt>
      <trkpt lat="38.7332200" lon="1.4396970">
        <ele>0.1</ele>
        <time>2020-02-22T14:44:36Z</time>
      </trkpt>
      <trkpt lat="38.7332800" lon="1.4396280">
        <ele>0.1</ele>
        <time>2020-02-22T14:44:37Z</time>
      </trkpt>
      <trkpt lat="38.7332800" lon="1.4396280">
        <ele>0.1</ele>
        <time>2020-02-22T14:44:38Z</time>
      </trkpt>
      <trkpt lat="38.7334070" lon="1.4394920">
        <ele>0.1</ele>
        <time>2020-02-22T14:44:39Z</time>
      </trkpt>
      <trkpt lat="38.7334070" lon="1.4394920">
        <ele>0.1</ele>
        <time>2020-02-22T14:44:40Z</time>
      </trkpt>
      <trkpt lat="38.7335470" lon="1.4393700">
        <ele>0.1</ele>
        <time>2020-02-22T14:44:41Z</time>
      </trkpt>
      <trkpt lat="38.7335470" lon="1.4393700">
        <ele>0.1</ele>
        <time>2020-02-22T14:44:42Z</time>
      </trkpt>
      <trkpt lat="38.7337030" lon="1.4392870">
        <ele>0.1</ele>
        <time>2020-02-22T14:44:43Z</time>
      </trkpt>
      <trkpt lat="38.7337030" lon="1.4392870">
        <ele>0.1</ele>
        <time>2020-02-22T14:44:44Z</time>
      </trkpt>
      <trkpt lat="38.7338670" lon="1.4392530">
        <ele>0.1</ele>
        <time>2020-02-22T14:44:45Z</time>
      </trkpt>
      <trkpt lat="38.7338670" lon="1.4392530">
        <ele>1.1</ele>
        <time>2020-02-22T14:44:46Z</time>
      </trkpt>
      <trkpt lat="38.7340320" lon="1.4392370">
        <ele>1.1</ele>
        <time>2020-02-22T14:44:47Z</time>
      </trkpt>
      <trkpt lat="38.7341170" lon="1.4392280">
        <ele>1.1</ele>
        <time>2020-02-22T14:44:48Z</time>
      </trkpt>
      <trkpt lat="38.7341170" lon="1.4392280">
        <ele>1.1</ele>
        <time>2020-02-22T14:44:49Z</time>
      </trkpt>
      <trkpt lat="38.7342830" lon="1.4391880">
        <ele>1.1</ele>
        <time>2020-02-22T14:44:50Z</time>
      </trkpt>
      <trkpt lat="38.7343620" lon="1.4391570">
        <ele>1.1</ele>
        <time>2020-02-22T14:44:51Z</time>
      </trkpt>
      <trkpt lat="38.7343620" lon="1.4391570">
        <ele>1.1</ele>
        <time>2020-02-22T14:44:52Z</time>
      </trkpt>
      <trkpt lat="38.7345180" lon="1.4390680">
        <ele>1.1</ele>
        <time>2020-02-22T14:44:53Z</time>
      </trkpt>
      <trkpt lat="38.7345180" lon="1.4390680">
        <ele>1.1</ele>
        <time>2020-02-22T14:44:54Z</time>
      </trkpt>
      <trkpt lat="38.7346800" lon="1.4389520">
        <ele>1.1</ele>
        <time>2020-02-22T14:44:55Z</time>
      </trkpt>
      <trkpt lat="38.7346800" lon="1.4389520">
        <ele>1.1</ele>
        <time>2020-02-22T14:44:56Z</time>
      </trkpt>
      <trkpt lat="38.7348620" lon="1.4388030">
        <ele>0.1</ele>
        <time>2020-02-22T14:44:57Z</time>
      </trkpt>
      <trkpt lat="38.7348620" lon="1.4388030">
        <ele>0.1</ele>
        <time>2020-02-22T14:44:58Z</time>
      </trkpt>
      <trkpt lat="38.7350730" lon="1.4386550">
        <ele>0.1</ele>
        <time>2020-02-22T14:44:59Z</time>
      </trkpt>
      <trkpt lat="38.7350730" lon="1.4386550">
        <ele>0.1</ele>
        <time>2020-02-22T14:45:00Z</time>
      </trkpt>
      <trkpt lat="38.7352730" lon="1.4385020">
        <ele>0.1</ele>
        <time>2020-02-22T14:45:01Z</time>
      </trkpt>
      <trkpt lat="38.7352730" lon="1.4385020">
        <ele>0.1</ele>
        <time>2020-02-22T14:45:02Z</time>
      </trkpt>
      <trkpt lat="38.7354670" lon="1.4383380">
        <ele>0.1</ele>
        <time>2020-02-22T14:45:03Z</time>
      </trkpt>
      <trkpt lat="38.7354670" lon="1.4383380">
        <ele>0.1</ele>
        <time>2020-02-22T14:45:04Z</time>
      </trkpt>
      <trkpt lat="38.7356600" lon="1.4381700">
        <ele>0.1</ele>
        <time>2020-02-22T14:45:05Z</time>
      </trkpt>
      <trkpt lat="38.7356600" lon="1.4381700">
        <ele>2.1</ele>
        <time>2020-02-22T14:45:06Z</time>
      </trkpt>
      <trkpt lat="38.7358520" lon="1.4379980">
        <ele>2.1</ele>
        <time>2020-02-22T14:45:07Z</time>
      </trkpt>
      <trkpt lat="38.7358520" lon="1.4379980">
        <ele>3.1</ele>
        <time>2020-02-22T14:45:08Z</time>
      </trkpt>
      <trkpt lat="38.7360470" lon="1.4378300">
        <ele>3.1</ele>
        <time>2020-02-22T14:45:09Z</time>
      </trkpt>
      <trkpt lat="38.7360470" lon="1.4378300">
        <ele>5.1</ele>
        <time>2020-02-22T14:45:10Z</time>
      </trkpt>
      <trkpt lat="38.7362300" lon="1.4376470">
        <ele>5.1</ele>
        <time>2020-02-22T14:45:11Z</time>
      </trkpt>
      <trkpt lat="38.7362300" lon="1.4376470">
        <ele>5.1</ele>
        <time>2020-02-22T14:45:12Z</time>
      </trkpt>
      <trkpt lat="38.7363970" lon="1.4374300">
        <ele>5.1</ele>
        <time>2020-02-22T14:45:13Z</time>
      </trkpt>
      <trkpt lat="38.7363970" lon="1.4374300">
        <ele>5.1</ele>
        <time>2020-02-22T14:45:14Z</time>
      </trkpt>
      <trkpt lat="38.7365450" lon="1.4371980">
        <ele>5.1</ele>
        <time>2020-02-22T14:45:15Z</time>
      </trkpt>
      <trkpt lat="38.7365450" lon="1.4371980">
        <ele>5.1</ele>
        <time>2020-02-22T14:45:16Z</time>
      </trkpt>
      <trkpt lat="38.7366800" lon="1.4369580">
        <ele>5.1</ele>
        <time>2020-02-22T14:45:17Z</time>
      </trkpt>
      <trkpt lat="38.7366800" lon="1.4369580">
        <ele>5.1</ele>
        <time>2020-02-22T14:45:18Z</time>
      </trkpt>
      <trkpt lat="38.7368220" lon="1.4367170">
        <ele>5.1</ele>
        <time>2020-02-22T14:45:19Z</time>
      </trkpt>
      <trkpt lat="38.7368220" lon="1.4367170">
        <ele>3.1</ele>
        <time>2020-02-22T14:45:20Z</time>
      </trkpt>
      <trkpt lat="38.7369700" lon="1.4364850">
        <ele>3.1</ele>
        <time>2020-02-22T14:45:21Z</time>
      </trkpt>
      <trkpt lat="38.7369700" lon="1.4364850">
        <ele>3.1</ele>
        <time>2020-02-22T14:45:22Z</time>
      </trkpt>
      <trkpt lat="38.7371250" lon="1.4362700">
        <ele>3.1</ele>
        <time>2020-02-22T14:45:23Z</time>
      </trkpt>
      <trkpt lat="38.7372120" lon="1.4361800">
        <ele>3.1</ele>
        <time>2020-02-22T14:45:24Z</time>
      </trkpt>
      <trkpt lat="38.7373080" lon="1.4360980">
        <ele>3.1</ele>
        <time>2020-02-22T14:45:25Z</time>
      </trkpt>
      <trkpt lat="38.7374030" lon="1.4360230">
        <ele>3.1</ele>
        <time>2020-02-22T14:45:26Z</time>
      </trkpt>
      <trkpt lat="38.7375020" lon="1.4359570">
        <ele>3.1</ele>
        <time>2020-02-22T14:45:27Z</time>
      </trkpt>
      <trkpt lat="38.7375020" lon="1.4359570">
        <ele>3.1</ele>
        <time>2020-02-22T14:45:28Z</time>
      </trkpt>
      <trkpt lat="38.7376980" lon="1.4358200">
        <ele>2.1</ele>
        <time>2020-02-22T14:45:29Z</time>
      </trkpt>
      <trkpt lat="38.7376980" lon="1.4358200">
        <ele>2.1</ele>
        <time>2020-02-22T14:45:30Z</time>
      </trkpt>
      <trkpt lat="38.7378920" lon="1.4356800">
        <ele>1.1</ele>
        <time>2020-02-22T14:45:31Z</time>
      </trkpt>
      <trkpt lat="38.7378920" lon="1.4356800">
        <ele>1.1</ele>
        <time>2020-02-22T14:45:32Z</time>
      </trkpt>
      <trkpt lat="38.7380830" lon="1.4355370">
        <ele>1.1</ele>
        <time>2020-02-22T14:45:33Z</time>
      </trkpt>
      <trkpt lat="38.7380830" lon="1.4355370">
        <ele>1.1</ele>
        <time>2020-02-22T14:45:34Z</time>
      </trkpt>
      <trkpt lat="38.7382520" lon="1.4353630">
        <ele>0.1</ele>
        <time>2020-02-22T14:45:35Z</time>
      </trkpt>
      <trkpt lat="38.7382520" lon="1.4353630">
        <ele>0.1</ele>
        <time>2020-02-22T14:45:36Z</time>
      </trkpt>
      <trkpt lat="38.7383620" lon="1.4351270">
        <ele>0.1</ele>
        <time>2020-02-22T14:45:37Z</time>
      </trkpt>
      <trkpt lat="38.7383620" lon="1.4351270">
        <ele>0.1</ele>
        <time>2020-02-22T14:45:38Z</time>
      </trkpt>
      <trkpt lat="38.7384400" lon="1.4348700">
        <ele>0.1</ele>
        <time>2020-02-22T14:45:39Z</time>
      </trkpt>
      <trkpt lat="38.7384400" lon="1.4348700">
        <ele>0.1</ele>
        <time>2020-02-22T14:45:40Z</time>
      </trkpt>
      <trkpt lat="38.7385280" lon="1.4346130">
        <ele>0.1</ele>
        <time>2020-02-22T14:45:41Z</time>
      </trkpt>
      <trkpt lat="38.7385280" lon="1.4346130">
        <ele>0.1</ele>
        <time>2020-02-22T14:45:42Z</time>
      </trkpt>
      <trkpt lat="38.7386230" lon="1.4343600">
        <ele>0.1</ele>
        <time>2020-02-22T14:45:43Z</time>
      </trkpt>
      <trkpt lat="38.7386670" lon="1.4342350">
        <ele>-0.9</ele>
        <time>2020-02-22T14:45:44Z</time>
      </trkpt>
      <trkpt lat="38.7386670" lon="1.4342350">
        <ele>-0.9</ele>
        <time>2020-02-22T14:45:45Z</time>
      </trkpt>
      <trkpt lat="38.7387530" lon="1.4339820">
        <ele>-0.9</ele>
        <time>2020-02-22T14:45:46Z</time>
      </trkpt>
      <trkpt lat="38.7387530" lon="1.4339820">
        <ele>-0.9</ele>
        <time>2020-02-22T14:45:47Z</time>
      </trkpt>
      <trkpt lat="38.7388280" lon="1.4337300">
        <ele>-0.9</ele>
        <time>2020-02-22T14:45:48Z</time>
      </trkpt>
      <trkpt lat="38.7388600" lon="1.4336030">
        <ele>-0.9</ele>
        <time>2020-02-22T14:45:49Z</time>
      </trkpt>
      <trkpt lat="38.7388600" lon="1.4336030">
        <ele>-0.9</ele>
        <time>2020-02-22T14:45:50Z</time>
      </trkpt>
      <trkpt lat="38.7389330" lon="1.4333600">
        <ele>-0.9</ele>
        <time>2020-02-22T14:45:51Z</time>
      </trkpt>
      <trkpt lat="38.7389330" lon="1.4333600">
        <ele>-0.9</ele>
        <time>2020-02-22T14:45:52Z</time>
      </trkpt>
      <trkpt lat="38.7390080" lon="1.4331150">
        <ele>-0.9</ele>
        <time>2020-02-22T14:45:53Z</time>
      </trkpt>
      <trkpt lat="38.7390080" lon="1.4331150">
        <ele>-0.9</ele>
        <time>2020-02-22T14:45:54Z</time>
      </trkpt>
      <trkpt lat="38.7390270" lon="1.4328580">
        <ele>-0.9</ele>
        <time>2020-02-22T14:45:55Z</time>
      </trkpt>
      <trkpt lat="38.7390270" lon="1.4328580">
        <ele>-0.9</ele>
        <time>2020-02-22T14:45:56Z</time>
      </trkpt>
      <trkpt lat="38.7389630" lon="1.4326180">
        <ele>-0.9</ele>
        <time>2020-02-22T14:45:57Z</time>
      </trkpt>
      <trkpt lat="38.7389630" lon="1.4326180">
        <ele>-0.9</ele>
        <time>2020-02-22T14:45:58Z</time>
      </trkpt>
      <trkpt lat="38.7388500" lon="1.4324270">
        <ele>-0.9</ele>
        <time>2020-02-22T14:45:59Z</time>
      </trkpt>
      <trkpt lat="38.7388500" lon="1.4324270">
        <ele>-0.9</ele>
        <time>2020-02-22T14:46:00Z</time>
      </trkpt>
      <trkpt lat="38.7387100" lon="1.4322720">
        <ele>-0.9</ele>
        <time>2020-02-22T14:46:01Z</time>
      </trkpt>
      <trkpt lat="38.7387100" lon="1.4322720">
        <ele>-0.9</ele>
        <time>2020-02-22T14:46:02Z</time>
      </trkpt>
      <trkpt lat="38.7385550" lon="1.4321400">
        <ele>-0.9</ele>
        <time>2020-02-22T14:46:03Z</time>
      </trkpt>
      <trkpt lat="38.7385550" lon="1.4321400">
        <ele>-0.9</ele>
        <time>2020-02-22T14:46:04Z</time>
      </trkpt>
      <trkpt lat="38.7383920" lon="1.4320050">
        <ele>-0.9</ele>
        <time>2020-02-22T14:46:05Z</time>
      </trkpt>
      <trkpt lat="38.7383150" lon="1.4319380">
        <ele>-0.9</ele>
        <time>2020-02-22T14:46:06Z</time>
      </trkpt>
      <trkpt lat="38.7383150" lon="1.4319380">
        <ele>-0.9</ele>
        <time>2020-02-22T14:46:07Z</time>
      </trkpt>
      <trkpt lat="38.7381550" lon="1.4318100">
        <ele>-0.9</ele>
        <time>2020-02-22T14:46:08Z</time>
      </trkpt>
      <trkpt lat="38.7380750" lon="1.4317430">
        <ele>-0.9</ele>
        <time>2020-02-22T14:46:09Z</time>
      </trkpt>
      <trkpt lat="38.7380750" lon="1.4317430">
        <ele>-0.9</ele>
        <time>2020-02-22T14:46:10Z</time>
      </trkpt>
      <trkpt lat="38.7379200" lon="1.4316150">
        <ele>-0.9</ele>
        <time>2020-02-22T14:46:11Z</time>
      </trkpt>
      <trkpt lat="38.7379200" lon="1.4316150">
        <ele>-0.9</ele>
        <time>2020-02-22T14:46:12Z</time>
      </trkpt>
      <trkpt lat="38.7377620" lon="1.4314900">
        <ele>-0.9</ele>
        <time>2020-02-22T14:46:13Z</time>
      </trkpt>
      <trkpt lat="38.7377620" lon="1.4314900">
        <ele>-0.9</ele>
        <time>2020-02-22T14:46:14Z</time>
      </trkpt>
      <trkpt lat="38.7376070" lon="1.4313630">
        <ele>-0.9</ele>
        <time>2020-02-22T14:46:15Z</time>
      </trkpt>
      <trkpt lat="38.7376070" lon="1.4313630">
        <ele>-0.9</ele>
        <time>2020-02-22T14:46:16Z</time>
      </trkpt>
      <trkpt lat="38.7374500" lon="1.4312420">
        <ele>-0.9</ele>
        <time>2020-02-22T14:46:17Z</time>
      </trkpt>
      <trkpt lat="38.7374500" lon="1.4312420">
        <ele>-0.9</ele>
        <time>2020-02-22T14:46:18Z</time>
      </trkpt>
      <trkpt lat="38.7372970" lon="1.4311230">
        <ele>-0.9</ele>
        <time>2020-02-22T14:46:19Z</time>
      </trkpt>
      <trkpt lat="38.7372200" lon="1.4310630">
        <ele>-0.9</ele>
        <time>2020-02-22T14:46:20Z</time>
      </trkpt>
      <trkpt lat="38.7371400" lon="1.4310020">
        <ele>-0.9</ele>
        <time>2020-02-22T14:46:21Z</time>
      </trkpt>
      <trkpt lat="38.7371400" lon="1.4310020">
        <ele>-0.9</ele>
        <time>2020-02-22T14:46:22Z</time>
      </trkpt>
      <trkpt lat="38.7369830" lon="1.4308750">
        <ele>-0.9</ele>
        <time>2020-02-22T14:46:23Z</time>
      </trkpt>
      <trkpt lat="38.7369070" lon="1.4308120">
        <ele>-0.9</ele>
        <time>2020-02-22T14:46:24Z</time>
      </trkpt>
      <trkpt lat="38.7368280" lon="1.4307480">
        <ele>-0.9</ele>
        <time>2020-02-22T14:46:25Z</time>
      </trkpt>
      <trkpt lat="38.7368280" lon="1.4307480">
        <ele>-0.9</ele>
        <time>2020-02-22T14:46:26Z</time>
      </trkpt>
      <trkpt lat="38.7366830" lon="1.4306120">
        <ele>-0.9</ele>
        <time>2020-02-22T14:46:27Z</time>
      </trkpt>
      <trkpt lat="38.7366830" lon="1.4306120">
        <ele>-0.9</ele>
        <time>2020-02-22T14:46:28Z</time>
      </trkpt>
      <trkpt lat="38.7365630" lon="1.4304470">
        <ele>-0.9</ele>
        <time>2020-02-22T14:46:29Z</time>
      </trkpt>
      <trkpt lat="38.7365170" lon="1.4303500">
        <ele>-0.9</ele>
        <time>2020-02-22T14:46:30Z</time>
      </trkpt>
      <trkpt lat="38.7365170" lon="1.4303500">
        <ele>-0.9</ele>
        <time>2020-02-22T14:46:31Z</time>
      </trkpt>
      <trkpt lat="38.7364420" lon="1.4301430">
        <ele>-0.9</ele>
        <time>2020-02-22T14:46:32Z</time>
      </trkpt>
      <trkpt lat="38.7364100" lon="1.4300380">
        <ele>-0.9</ele>
        <time>2020-02-22T14:46:33Z</time>
      </trkpt>
      <trkpt lat="38.7364100" lon="1.4300380">
        <ele>-0.9</ele>
        <time>2020-02-22T14:46:34Z</time>
      </trkpt>
      <trkpt lat="38.7363500" lon="1.4298300">
        <ele>-0.9</ele>
        <time>2020-02-22T14:46:35Z</time>
      </trkpt>
      <trkpt lat="38.7363220" lon="1.4297250">
        <ele>-0.9</ele>
        <time>2020-02-22T14:46:36Z</time>
      </trkpt>
      <trkpt lat="38.7363220" lon="1.4297250">
        <ele>-0.9</ele>
        <time>2020-02-22T14:46:37Z</time>
      </trkpt>
      <trkpt lat="38.7362670" lon="1.4295170">
        <ele>-0.9</ele>
        <time>2020-02-22T14:46:38Z</time>
      </trkpt>
      <trkpt lat="38.7362670" lon="1.4295170">
        <ele>-0.9</ele>
        <time>2020-02-22T14:46:39Z</time>
      </trkpt>
      <trkpt lat="38.7362100" lon="1.4293080">
        <ele>-0.9</ele>
        <time>2020-02-22T14:46:40Z</time>
      </trkpt>
      <trkpt lat="38.7362100" lon="1.4293080">
        <ele>-0.9</ele>
        <time>2020-02-22T14:46:41Z</time>
      </trkpt>
      <trkpt lat="38.7361520" lon="1.4290950">
        <ele>-0.9</ele>
        <time>2020-02-22T14:46:42Z</time>
      </trkpt>
      <trkpt lat="38.7361180" lon="1.4289920">
        <ele>-0.9</ele>
        <time>2020-02-22T14:46:43Z</time>
      </trkpt>
      <trkpt lat="38.7361180" lon="1.4289920">
        <ele>-0.9</ele>
        <time>2020-02-22T14:46:44Z</time>
      </trkpt>
      <trkpt lat="38.7360320" lon="1.4287970">
        <ele>-0.9</ele>
        <time>2020-02-22T14:46:45Z</time>
      </trkpt>
      <trkpt lat="38.7360320" lon="1.4287970">
        <ele>-0.9</ele>
        <time>2020-02-22T14:46:46Z</time>
      </trkpt>
      <trkpt lat="38.7359280" lon="1.4286270">
        <ele>-0.9</ele>
        <time>2020-02-22T14:46:47Z</time>
      </trkpt>
      <trkpt lat="38.7358670" lon="1.4285530">
        <ele>-0.9</ele>
        <time>2020-02-22T14:46:48Z</time>
      </trkpt>
      <trkpt lat="38.7358670" lon="1.4285530">
        <ele>-0.9</ele>
        <time>2020-02-22T14:46:49Z</time>
      </trkpt>
      <trkpt lat="38.7357330" lon="1.4284080">
        <ele>-0.9</ele>
        <time>2020-02-22T14:46:50Z</time>
      </trkpt>
      <trkpt lat="38.7356700" lon="1.4283380">
        <ele>-0.9</ele>
        <time>2020-02-22T14:46:51Z</time>
      </trkpt>
      <trkpt lat="38.7356700" lon="1.4283380">
        <ele>-0.9</ele>
        <time>2020-02-22T14:46:52Z</time>
      </trkpt>
      <trkpt lat="38.7355430" lon="1.4282000">
        <ele>-0.9</ele>
        <time>2020-02-22T14:46:53Z</time>
      </trkpt>
      <trkpt lat="38.7355430" lon="1.4282000">
        <ele>-0.9</ele>
        <time>2020-02-22T14:46:54Z</time>
      </trkpt>
      <trkpt lat="38.7354150" lon="1.4280630">
        <ele>-0.9</ele>
        <time>2020-02-22T14:46:55Z</time>
      </trkpt>
      <trkpt lat="38.7353530" lon="1.4279920">
        <ele>-0.9</ele>
        <time>2020-02-22T14:46:56Z</time>
      </trkpt>
      <trkpt lat="38.7353530" lon="1.4279920">
        <ele>-0.9</ele>
        <time>2020-02-22T14:46:57Z</time>
      </trkpt>
      <trkpt lat="38.7352270" lon="1.4278570">
        <ele>-0.9</ele>
        <time>2020-02-22T14:46:58Z</time>
      </trkpt>
      <trkpt lat="38.7352270" lon="1.4278570">
        <ele>-0.9</ele>
        <time>2020-02-22T14:46:59Z</time>
      </trkpt>
      <trkpt lat="38.7351030" lon="1.4277220">
        <ele>-0.9</ele>
        <time>2020-02-22T14:47:00Z</time>
      </trkpt>
      <trkpt lat="38.7350420" lon="1.4276520">
        <ele>-0.9</ele>
        <time>2020-02-22T14:47:01Z</time>
      </trkpt>
      <trkpt lat="38.7350420" lon="1.4276520">
        <ele>-0.9</ele>
        <time>2020-02-22T14:47:02Z</time>
      </trkpt>
      <trkpt lat="38.7349180" lon="1.4275120">
        <ele>-0.9</ele>
        <time>2020-02-22T14:47:03Z</time>
      </trkpt>
      <trkpt lat="38.7349180" lon="1.4275120">
        <ele>-0.9</ele>
        <time>2020-02-22T14:47:04Z</time>
      </trkpt>
      <trkpt lat="38.7348000" lon="1.4273680">
        <ele>-0.9</ele>
        <time>2020-02-22T14:47:05Z</time>
      </trkpt>
      <trkpt lat="38.7348000" lon="1.4273680">
        <ele>-0.9</ele>
        <time>2020-02-22T14:47:06Z</time>
      </trkpt>
      <trkpt lat="38.7346830" lon="1.4272230">
        <ele>-0.9</ele>
        <time>2020-02-22T14:47:07Z</time>
      </trkpt>
      <trkpt lat="38.7346830" lon="1.4272230">
        <ele>-0.9</ele>
        <time>2020-02-22T14:47:08Z</time>
      </trkpt>
      <trkpt lat="38.7345680" lon="1.4270770">
        <ele>-0.9</ele>
        <time>2020-02-22T14:47:09Z</time>
      </trkpt>
      <trkpt lat="38.7345680" lon="1.4270770">
        <ele>-0.9</ele>
        <time>2020-02-22T14:47:10Z</time>
      </trkpt>
      <trkpt lat="38.7344580" lon="1.4269230">
        <ele>-0.9</ele>
        <time>2020-02-22T14:47:11Z</time>
      </trkpt>
      <trkpt lat="38.7344580" lon="1.4269230">
        <ele>-0.9</ele>
        <time>2020-02-22T14:47:12Z</time>
      </trkpt>
      <trkpt lat="38.7343520" lon="1.4267680">
        <ele>-0.9</ele>
        <time>2020-02-22T14:47:13Z</time>
      </trkpt>
      <trkpt lat="38.7343520" lon="1.4267680">
        <ele>-0.9</ele>
        <time>2020-02-22T14:47:14Z</time>
      </trkpt>
      <trkpt lat="38.7342450" lon="1.4266130">
        <ele>-0.9</ele>
        <time>2020-02-22T14:47:15Z</time>
      </trkpt>
      <trkpt lat="38.7342450" lon="1.4266130">
        <ele>-0.9</ele>
        <time>2020-02-22T14:47:16Z</time>
      </trkpt>
      <trkpt lat="38.7341380" lon="1.4264580">
        <ele>-0.9</ele>
        <time>2020-02-22T14:47:17Z</time>
      </trkpt>
      <trkpt lat="38.7341380" lon="1.4264580">
        <ele>-0.9</ele>
        <time>2020-02-22T14:47:18Z</time>
      </trkpt>
      <trkpt lat="38.7340330" lon="1.4263000">
        <ele>-0.9</ele>
        <time>2020-02-22T14:47:19Z</time>
      </trkpt>
      <trkpt lat="38.7340330" lon="1.4263000">
        <ele>0.1</ele>
        <time>2020-02-22T14:47:20Z</time>
      </trkpt>
      <trkpt lat="38.7339350" lon="1.4261350">
        <ele>0.1</ele>
        <time>2020-02-22T14:47:21Z</time>
      </trkpt>
      <trkpt lat="38.7338870" lon="1.4260550">
        <ele>0.1</ele>
        <time>2020-02-22T14:47:22Z</time>
      </trkpt>
      <trkpt lat="38.7338870" lon="1.4260550">
        <ele>0.1</ele>
        <time>2020-02-22T14:47:23Z</time>
      </trkpt>
      <trkpt lat="38.7337970" lon="1.4258950">
        <ele>0.1</ele>
        <time>2020-02-22T14:47:24Z</time>
      </trkpt>
      <trkpt lat="38.7337520" lon="1.4258100">
        <ele>0.1</ele>
        <time>2020-02-22T14:47:25Z</time>
      </trkpt>
      <trkpt lat="38.7337520" lon="1.4258100">
        <ele>0.1</ele>
        <time>2020-02-22T14:47:26Z</time>
      </trkpt>
      <trkpt lat="38.7336730" lon="1.4256220">
        <ele>0.1</ele>
        <time>2020-02-22T14:47:27Z</time>
      </trkpt>
      <trkpt lat="38.7336730" lon="1.4256220">
        <ele>0.1</ele>
        <time>2020-02-22T14:47:28Z</time>
      </trkpt>
      <trkpt lat="38.7336280" lon="1.4254180">
        <ele>0.1</ele>
        <time>2020-02-22T14:47:29Z</time>
      </trkpt>
      <trkpt lat="38.7336280" lon="1.4254180">
        <ele>0.1</ele>
        <time>2020-02-22T14:47:30Z</time>
      </trkpt>
      <trkpt lat="38.7335880" lon="1.4252050">
        <ele>0.1</ele>
        <time>2020-02-22T14:47:31Z</time>
      </trkpt>
      <trkpt lat="38.7335700" lon="1.4250980">
        <ele>0.1</ele>
        <time>2020-02-22T14:47:32Z</time>
      </trkpt>
      <trkpt lat="38.7335700" lon="1.4250980">
        <ele>0.1</ele>
        <time>2020-02-22T14:47:33Z</time>
      </trkpt>
      <trkpt lat="38.7335280" lon="1.4248830">
        <ele>0.1</ele>
        <time>2020-02-22T14:47:34Z</time>
      </trkpt>
      <trkpt lat="38.7335030" lon="1.4247730">
        <ele>0.1</ele>
        <time>2020-02-22T14:47:35Z</time>
      </trkpt>
      <trkpt lat="38.7335030" lon="1.4247730">
        <ele>0.1</ele>
        <time>2020-02-22T14:47:36Z</time>
      </trkpt>
      <trkpt lat="38.7334530" lon="1.4245630">
        <ele>0.1</ele>
        <time>2020-02-22T14:47:37Z</time>
      </trkpt>
      <trkpt lat="38.7334220" lon="1.4244620">
        <ele>0.1</ele>
        <time>2020-02-22T14:47:38Z</time>
      </trkpt>
      <trkpt lat="38.7334220" lon="1.4244620">
        <ele>0.1</ele>
        <time>2020-02-22T14:47:39Z</time>
      </trkpt>
      <trkpt lat="38.7333250" lon="1.4242730">
        <ele>0.1</ele>
        <time>2020-02-22T14:47:40Z</time>
      </trkpt>
      <trkpt lat="38.7333250" lon="1.4242730">
        <ele>0.1</ele>
        <time>2020-02-22T14:47:41Z</time>
      </trkpt>
      <trkpt lat="38.7332080" lon="1.4241130">
        <ele>0.1</ele>
        <time>2020-02-22T14:47:42Z</time>
      </trkpt>
      <trkpt lat="38.7331450" lon="1.4240380">
        <ele>0.1</ele>
        <time>2020-02-22T14:47:43Z</time>
      </trkpt>
      <trkpt lat="38.7331450" lon="1.4240380">
        <ele>0.1</ele>
        <time>2020-02-22T14:47:44Z</time>
      </trkpt>
      <trkpt lat="38.7330150" lon="1.4238900">
        <ele>0.1</ele>
        <time>2020-02-22T14:47:45Z</time>
      </trkpt>
      <trkpt lat="38.7330150" lon="1.4238900">
        <ele>0.1</ele>
        <time>2020-02-22T14:47:46Z</time>
      </trkpt>
      <trkpt lat="38.7328870" lon="1.4237420">
        <ele>0.1</ele>
        <time>2020-02-22T14:47:47Z</time>
      </trkpt>
      <trkpt lat="38.7328870" lon="1.4237420">
        <ele>0.1</ele>
        <time>2020-02-22T14:47:48Z</time>
      </trkpt>
      <trkpt lat="38.7327570" lon="1.4235920">
        <ele>0.1</ele>
        <time>2020-02-22T14:47:49Z</time>
      </trkpt>
      <trkpt lat="38.7326920" lon="1.4235150">
        <ele>0.1</ele>
        <time>2020-02-22T14:47:50Z</time>
      </trkpt>
      <trkpt lat="38.7326920" lon="1.4235150">
        <ele>0.1</ele>
        <time>2020-02-22T14:47:51Z</time>
      </trkpt>
      <trkpt lat="38.7325650" lon="1.4233630">
        <ele>0.1</ele>
        <time>2020-02-22T14:47:52Z</time>
      </trkpt>
      <trkpt lat="38.7325650" lon="1.4233630">
        <ele>0.1</ele>
        <time>2020-02-22T14:47:53Z</time>
      </trkpt>
      <trkpt lat="38.7324350" lon="1.4232070">
        <ele>0.1</ele>
        <time>2020-02-22T14:47:54Z</time>
      </trkpt>
      <trkpt lat="38.7323720" lon="1.4231280">
        <ele>0.1</ele>
        <time>2020-02-22T14:47:55Z</time>
      </trkpt>
      <trkpt lat="38.7323720" lon="1.4231280">
        <ele>0.1</ele>
        <time>2020-02-22T14:47:56Z</time>
      </trkpt>
      <trkpt lat="38.7322550" lon="1.4229680">
        <ele>0.1</ele>
        <time>2020-02-22T14:47:57Z</time>
      </trkpt>
      <trkpt lat="38.7322550" lon="1.4229680">
        <ele>0.1</ele>
        <time>2020-02-22T14:47:58Z</time>
      </trkpt>
      <trkpt lat="38.7321520" lon="1.4227880">
        <ele>0.1</ele>
        <time>2020-02-22T14:47:59Z</time>
      </trkpt>
      <trkpt lat="38.7321020" lon="1.4226970">
        <ele>0.1</ele>
        <time>2020-02-22T14:48:00Z</time>
      </trkpt>
      <trkpt lat="38.7321020" lon="1.4226970">
        <ele>0.1</ele>
        <time>2020-02-22T14:48:01Z</time>
      </trkpt>
      <trkpt lat="38.7320020" lon="1.4225130">
        <ele>0.1</ele>
        <time>2020-02-22T14:48:02Z</time>
      </trkpt>
      <trkpt lat="38.7320020" lon="1.4225130">
        <ele>0.1</ele>
        <time>2020-02-22T14:48:03Z</time>
      </trkpt>
      <trkpt lat="38.7319020" lon="1.4223330">
        <ele>0.1</ele>
        <time>2020-02-22T14:48:04Z</time>
      </trkpt>
      <trkpt lat="38.7319020" lon="1.4223330">
        <ele>0.1</ele>
        <time>2020-02-22T14:48:05Z</time>
      </trkpt>
      <trkpt lat="38.7317830" lon="1.4221820">
        <ele>0.1</ele>
        <time>2020-02-22T14:48:06Z</time>
      </trkpt>
      <trkpt lat="38.7317220" lon="1.4221100">
        <ele>0.1</ele>
        <time>2020-02-22T14:48:07Z</time>
      </trkpt>
      <trkpt lat="38.7317220" lon="1.4221100">
        <ele>0.1</ele>
        <time>2020-02-22T14:48:08Z</time>
      </trkpt>
      <trkpt lat="38.7315880" lon="1.4219750">
        <ele>0.1</ele>
        <time>2020-02-22T14:48:09Z</time>
      </trkpt>
      <trkpt lat="38.7315880" lon="1.4219750">
        <ele>0.1</ele>
        <time>2020-02-22T14:48:10Z</time>
      </trkpt>
      <trkpt lat="38.7314480" lon="1.4218470">
        <ele>0.1</ele>
        <time>2020-02-22T14:48:11Z</time>
      </trkpt>
      <trkpt lat="38.7314480" lon="1.4218470">
        <ele>0.1</ele>
        <time>2020-02-22T14:48:12Z</time>
      </trkpt>
      <trkpt lat="38.7313050" lon="1.4217280">
        <ele>0.1</ele>
        <time>2020-02-22T14:48:13Z</time>
      </trkpt>
      <trkpt lat="38.7313050" lon="1.4217280">
        <ele>0.1</ele>
        <time>2020-02-22T14:48:14Z</time>
      </trkpt>
      <trkpt lat="38.7311450" lon="1.4216300">
        <ele>0.1</ele>
        <time>2020-02-22T14:48:15Z</time>
      </trkpt>
      <trkpt lat="38.7311450" lon="1.4216300">
        <ele>0.1</ele>
        <time>2020-02-22T14:48:16Z</time>
      </trkpt>
      <trkpt lat="38.7309750" lon="1.4215420">
        <ele>0.1</ele>
        <time>2020-02-22T14:48:17Z</time>
      </trkpt>
      <trkpt lat="38.7309750" lon="1.4215420">
        <ele>0.1</ele>
        <time>2020-02-22T14:48:18Z</time>
      </trkpt>
      <trkpt lat="38.7307970" lon="1.4214700">
        <ele>0.1</ele>
        <time>2020-02-22T14:48:19Z</time>
      </trkpt>
      <trkpt lat="38.7307970" lon="1.4214700">
        <ele>0.1</ele>
        <time>2020-02-22T14:48:20Z</time>
      </trkpt>
      <trkpt lat="38.7306150" lon="1.4213980">
        <ele>0.1</ele>
        <time>2020-02-22T14:48:21Z</time>
      </trkpt>
      <trkpt lat="38.7306150" lon="1.4213980">
        <ele>0.1</ele>
        <time>2020-02-22T14:48:22Z</time>
      </trkpt>
      <trkpt lat="38.7304300" lon="1.4213330">
        <ele>0.1</ele>
        <time>2020-02-22T14:48:23Z</time>
      </trkpt>
      <trkpt lat="38.7304300" lon="1.4213330">
        <ele>0.1</ele>
        <time>2020-02-22T14:48:24Z</time>
      </trkpt>
      <trkpt lat="38.7302430" lon="1.4212820">
        <ele>0.1</ele>
        <time>2020-02-22T14:48:25Z</time>
      </trkpt>
      <trkpt lat="38.7302430" lon="1.4212820">
        <ele>0.1</ele>
        <time>2020-02-22T14:48:26Z</time>
      </trkpt>
      <trkpt lat="38.7300550" lon="1.4212550">
        <ele>0.1</ele>
        <time>2020-02-22T14:48:27Z</time>
      </trkpt>
      <trkpt lat="38.7300550" lon="1.4212550">
        <ele>0.1</ele>
        <time>2020-02-22T14:48:28Z</time>
      </trkpt>
      <trkpt lat="38.7298680" lon="1.4212350">
        <ele>0.1</ele>
        <time>2020-02-22T14:48:29Z</time>
      </trkpt>
      <trkpt lat="38.7298680" lon="1.4212350">
        <ele>0.1</ele>
        <time>2020-02-22T14:48:30Z</time>
      </trkpt>
      <trkpt lat="38.7296820" lon="1.4212120">
        <ele>0.1</ele>
        <time>2020-02-22T14:48:31Z</time>
      </trkpt>
      <trkpt lat="38.7296820" lon="1.4212120">
        <ele>0.1</ele>
        <time>2020-02-22T14:48:32Z</time>
      </trkpt>
      <trkpt lat="38.7294970" lon="1.4211680">
        <ele>0.1</ele>
        <time>2020-02-22T14:48:33Z</time>
      </trkpt>
      <trkpt lat="38.7294970" lon="1.4211680">
        <ele>0.1</ele>
        <time>2020-02-22T14:48:34Z</time>
      </trkpt>
      <trkpt lat="38.7293250" lon="1.4210900">
        <ele>0.1</ele>
        <time>2020-02-22T14:48:35Z</time>
      </trkpt>
      <trkpt lat="38.7292480" lon="1.4210320">
        <ele>0.1</ele>
        <time>2020-02-22T14:48:36Z</time>
      </trkpt>
      <trkpt lat="38.7292480" lon="1.4210320">
        <ele>0.1</ele>
        <time>2020-02-22T14:48:37Z</time>
      </trkpt>
      <trkpt lat="38.7291150" lon="1.4208730">
        <ele>0.1</ele>
        <time>2020-02-22T14:48:38Z</time>
      </trkpt>
      <trkpt lat="38.7290620" lon="1.4207820">
        <ele>0.1</ele>
        <time>2020-02-22T14:48:39Z</time>
      </trkpt>
      <trkpt lat="38.7290620" lon="1.4207820">
        <ele>0.1</ele>
        <time>2020-02-22T14:48:40Z</time>
      </trkpt>
      <trkpt lat="38.7289750" lon="1.4205800">
        <ele>-0.9</ele>
        <time>2020-02-22T14:48:41Z</time>
      </trkpt>
      <trkpt lat="38.7289750" lon="1.4205800">
        <ele>-0.9</ele>
        <time>2020-02-22T14:48:42Z</time>
      </trkpt>
      <trkpt lat="38.7288950" lon="1.4203680">
        <ele>-0.9</ele>
        <time>2020-02-22T14:48:43Z</time>
      </trkpt>
      <trkpt lat="38.7288950" lon="1.4203680">
        <ele>-0.9</ele>
        <time>2020-02-22T14:48:44Z</time>
      </trkpt>
      <trkpt lat="38.7288180" lon="1.4201550">
        <ele>-0.9</ele>
        <time>2020-02-22T14:48:45Z</time>
      </trkpt>
      <trkpt lat="38.7288180" lon="1.4201550">
        <ele>-0.9</ele>
        <time>2020-02-22T14:48:46Z</time>
      </trkpt>
      <trkpt lat="38.7287480" lon="1.4199420">
        <ele>-0.9</ele>
        <time>2020-02-22T14:48:47Z</time>
      </trkpt>
      <trkpt lat="38.7287480" lon="1.4199420">
        <ele>-0.9</ele>
        <time>2020-02-22T14:48:48Z</time>
      </trkpt>
      <trkpt lat="38.7286780" lon="1.4197270">
        <ele>-0.9</ele>
        <time>2020-02-22T14:48:49Z</time>
      </trkpt>
      <trkpt lat="38.7286780" lon="1.4197270">
        <ele>-0.9</ele>
        <time>2020-02-22T14:48:50Z</time>
      </trkpt>
      <trkpt lat="38.7286000" lon="1.4195080">
        <ele>1.1</ele>
        <time>2020-02-22T14:48:51Z</time>
      </trkpt>
      <trkpt lat="38.7286000" lon="1.4195080">
        <ele>1.1</ele>
        <time>2020-02-22T14:48:52Z</time>
      </trkpt>
      <trkpt lat="38.7285220" lon="1.4193000">
        <ele>1.1</ele>
        <time>2020-02-22T14:48:53Z</time>
      </trkpt>
      <trkpt lat="38.7285220" lon="1.4193000">
        <ele>1.1</ele>
        <time>2020-02-22T14:48:54Z</time>
      </trkpt>
      <trkpt lat="38.7284530" lon="1.4190970">
        <ele>1.1</ele>
        <time>2020-02-22T14:48:55Z</time>
      </trkpt>
      <trkpt lat="38.7284530" lon="1.4190970">
        <ele>1.1</ele>
        <time>2020-02-22T14:48:56Z</time>
      </trkpt>
      <trkpt lat="38.7283850" lon="1.4189000">
        <ele>1.1</ele>
        <time>2020-02-22T14:48:57Z</time>
      </trkpt>
      <trkpt lat="38.7283850" lon="1.4189000">
        <ele>2.1</ele>
        <time>2020-02-22T14:48:58Z</time>
      </trkpt>
      <trkpt lat="38.7282880" lon="1.4187720">
        <ele>2.1</ele>
        <time>2020-02-22T14:48:59Z</time>
      </trkpt>
      <trkpt lat="38.7282880" lon="1.4187720">
        <ele>2.1</ele>
        <time>2020-02-22T14:49:00Z</time>
      </trkpt>
      <trkpt lat="38.7281500" lon="1.4187830">
        <ele>2.1</ele>
        <time>2020-02-22T14:49:01Z</time>
      </trkpt>
      <trkpt lat="38.7281500" lon="1.4187830">
        <ele>2.1</ele>
        <time>2020-02-22T14:49:02Z</time>
      </trkpt>
      <trkpt lat="38.7280020" lon="1.4188780">
        <ele>2.1</ele>
        <time>2020-02-22T14:49:03Z</time>
      </trkpt>
      <trkpt lat="38.7280020" lon="1.4188780">
        <ele>2.1</ele>
        <time>2020-02-22T14:49:04Z</time>
      </trkpt>
      <trkpt lat="38.7278420" lon="1.4189920">
        <ele>2.1</ele>
        <time>2020-02-22T14:49:05Z</time>
      </trkpt>
      <trkpt lat="38.7278420" lon="1.4189920">
        <ele>3.1</ele>
        <time>2020-02-22T14:49:06Z</time>
      </trkpt>
      <trkpt lat="38.7276820" lon="1.4191080">
        <ele>3.1</ele>
        <time>2020-02-22T14:49:07Z</time>
      </trkpt>
      <trkpt lat="38.7276820" lon="1.4191080">
        <ele>3.1</ele>
        <time>2020-02-22T14:49:08Z</time>
      </trkpt>
      <trkpt lat="38.7275200" lon="1.4192100">
        <ele>3.1</ele>
        <time>2020-02-22T14:49:09Z</time>
      </trkpt>
      <trkpt lat="38.7275200" lon="1.4192100">
        <ele>3.1</ele>
        <time>2020-02-22T14:49:10Z</time>
      </trkpt>
      <trkpt lat="38.7273620" lon="1.4193050">
        <ele>3.1</ele>
        <time>2020-02-22T14:49:11Z</time>
      </trkpt>
      <trkpt lat="38.7272800" lon="1.4193530">
        <ele>3.1</ele>
        <time>2020-02-22T14:49:12Z</time>
      </trkpt>
      <trkpt lat="38.7272020" lon="1.4194020">
        <ele>3.1</ele>
        <time>2020-02-22T14:49:13Z</time>
      </trkpt>
      <trkpt lat="38.7272020" lon="1.4194020">
        <ele>3.1</ele>
        <time>2020-02-22T14:49:14Z</time>
      </trkpt>
      <trkpt lat="38.7270430" lon="1.4194930">
        <ele>3.1</ele>
        <time>2020-02-22T14:49:15Z</time>
      </trkpt>
      <trkpt lat="38.7270430" lon="1.4194930">
        <ele>3.1</ele>
        <time>2020-02-22T14:49:16Z</time>
      </trkpt>
      <trkpt lat="38.7268870" lon="1.4195780">
        <ele>3.1</ele>
        <time>2020-02-22T14:49:17Z</time>
      </trkpt>
      <trkpt lat="38.7268870" lon="1.4195780">
        <ele>3.1</ele>
        <time>2020-02-22T14:49:18Z</time>
      </trkpt>
      <trkpt lat="38.7267250" lon="1.4196700">
        <ele>3.1</ele>
        <time>2020-02-22T14:49:19Z</time>
      </trkpt>
      <trkpt lat="38.7267250" lon="1.4196700">
        <ele>3.1</ele>
        <time>2020-02-22T14:49:20Z</time>
      </trkpt>
      <trkpt lat="38.7265670" lon="1.4197600">
        <ele>3.1</ele>
        <time>2020-02-22T14:49:21Z</time>
      </trkpt>
      <trkpt lat="38.7265670" lon="1.4197600">
        <ele>3.1</ele>
        <time>2020-02-22T14:49:22Z</time>
      </trkpt>
      <trkpt lat="38.7264150" lon="1.4198520">
        <ele>3.1</ele>
        <time>2020-02-22T14:49:23Z</time>
      </trkpt>
      <trkpt lat="38.7264150" lon="1.4198520">
        <ele>3.1</ele>
        <time>2020-02-22T14:49:24Z</time>
      </trkpt>
      <trkpt lat="38.7262570" lon="1.4199430">
        <ele>3.1</ele>
        <time>2020-02-22T14:49:25Z</time>
      </trkpt>
      <trkpt lat="38.7262570" lon="1.4199430">
        <ele>3.1</ele>
        <time>2020-02-22T14:49:26Z</time>
      </trkpt>
      <trkpt lat="38.7261000" lon="1.4200280">
        <ele>3.1</ele>
        <time>2020-02-22T14:49:27Z</time>
      </trkpt>
      <trkpt lat="38.7261000" lon="1.4200280">
        <ele>3.1</ele>
        <time>2020-02-22T14:49:28Z</time>
      </trkpt>
      <trkpt lat="38.7259430" lon="1.4201200">
        <ele>3.1</ele>
        <time>2020-02-22T14:49:29Z</time>
      </trkpt>
      <trkpt lat="38.7259430" lon="1.4201200">
        <ele>3.1</ele>
        <time>2020-02-22T14:49:30Z</time>
      </trkpt>
      <trkpt lat="38.7257880" lon="1.4202150">
        <ele>3.1</ele>
        <time>2020-02-22T14:49:31Z</time>
      </trkpt>
      <trkpt lat="38.7257880" lon="1.4202150">
        <ele>3.1</ele>
        <time>2020-02-22T14:49:32Z</time>
      </trkpt>
      <trkpt lat="38.7256330" lon="1.4203080">
        <ele>3.1</ele>
        <time>2020-02-22T14:49:33Z</time>
      </trkpt>
      <trkpt lat="38.7256330" lon="1.4203080">
        <ele>3.1</ele>
        <time>2020-02-22T14:49:34Z</time>
      </trkpt>
      <trkpt lat="38.7254800" lon="1.4204030">
        <ele>3.1</ele>
        <time>2020-02-22T14:49:35Z</time>
      </trkpt>
      <trkpt lat="38.7254800" lon="1.4204030">
        <ele>3.1</ele>
        <time>2020-02-22T14:49:36Z</time>
      </trkpt>
      <trkpt lat="38.7253250" lon="1.4204950">
        <ele>3.1</ele>
        <time>2020-02-22T14:49:37Z</time>
      </trkpt>
      <trkpt lat="38.7253250" lon="1.4204950">
        <ele>3.1</ele>
        <time>2020-02-22T14:49:38Z</time>
      </trkpt>
      <trkpt lat="38.7251650" lon="1.4205870">
        <ele>3.1</ele>
        <time>2020-02-22T14:49:39Z</time>
      </trkpt>
      <trkpt lat="38.7251650" lon="1.4205870">
        <ele>3.1</ele>
        <time>2020-02-22T14:49:40Z</time>
      </trkpt>
      <trkpt lat="38.7250000" lon="1.4206780">
        <ele>3.1</ele>
        <time>2020-02-22T14:49:41Z</time>
      </trkpt>
      <trkpt lat="38.7250000" lon="1.4206780">
        <ele>3.1</ele>
        <time>2020-02-22T14:49:42Z</time>
      </trkpt>
      <trkpt lat="38.7248330" lon="1.4207750">
        <ele>3.1</ele>
        <time>2020-02-22T14:49:43Z</time>
      </trkpt>
      <trkpt lat="38.7248330" lon="1.4207750">
        <ele>3.1</ele>
        <time>2020-02-22T14:49:44Z</time>
      </trkpt>
      <trkpt lat="38.7246630" lon="1.4208750">
        <ele>3.1</ele>
        <time>2020-02-22T14:49:45Z</time>
      </trkpt>
      <trkpt lat="38.7246630" lon="1.4208750">
        <ele>3.1</ele>
        <time>2020-02-22T14:49:46Z</time>
      </trkpt>
      <trkpt lat="38.7244930" lon="1.4209750">
        <ele>3.1</ele>
        <time>2020-02-22T14:49:47Z</time>
      </trkpt>
      <trkpt lat="38.7244070" lon="1.4210230">
        <ele>3.1</ele>
        <time>2020-02-22T14:49:48Z</time>
      </trkpt>
      <trkpt lat="38.7243230" lon="1.4210730">
        <ele>3.1</ele>
        <time>2020-02-22T14:49:49Z</time>
      </trkpt>
      <trkpt lat="38.7243230" lon="1.4210730">
        <ele>3.1</ele>
        <time>2020-02-22T14:49:50Z</time>
      </trkpt>
      <trkpt lat="38.7241550" lon="1.4211700">
        <ele>3.1</ele>
        <time>2020-02-22T14:49:51Z</time>
      </trkpt>
      <trkpt lat="38.7241550" lon="1.4211700">
        <ele>3.1</ele>
        <time>2020-02-22T14:49:52Z</time>
      </trkpt>
      <trkpt lat="38.7239880" lon="1.4212680">
        <ele>3.1</ele>
        <time>2020-02-22T14:49:53Z</time>
      </trkpt>
      <trkpt lat="38.7239030" lon="1.4213170">
        <ele>3.1</ele>
        <time>2020-02-22T14:49:54Z</time>
      </trkpt>
      <trkpt lat="38.7238200" lon="1.4213620">
        <ele>3.1</ele>
        <time>2020-02-22T14:49:55Z</time>
      </trkpt>
      <trkpt lat="38.7237370" lon="1.4214080">
        <ele>3.1</ele>
        <time>2020-02-22T14:49:56Z</time>
      </trkpt>
      <trkpt lat="38.7237370" lon="1.4214080">
        <ele>3.1</ele>
        <time>2020-02-22T14:49:57Z</time>
      </trkpt>
      <trkpt lat="38.7235700" lon="1.4215030">
        <ele>3.1</ele>
        <time>2020-02-22T14:49:58Z</time>
      </trkpt>
      <trkpt lat="38.7234870" lon="1.4215500">
        <ele>3.1</ele>
        <time>2020-02-22T14:49:59Z</time>
      </trkpt>
      <trkpt lat="38.7234870" lon="1.4215500">
        <ele>3.1</ele>
        <time>2020-02-22T14:50:00Z</time>
      </trkpt>
      <trkpt lat="38.7233220" lon="1.4216480">
        <ele>3.1</ele>
        <time>2020-02-22T14:50:01Z</time>
      </trkpt>
      <trkpt lat="38.7233220" lon="1.4216480">
        <ele>3.1</ele>
        <time>2020-02-22T14:50:02Z</time>
      </trkpt>
      <trkpt lat="38.7231550" lon="1.4217400">
        <ele>3.1</ele>
        <time>2020-02-22T14:50:03Z</time>
      </trkpt>
      <trkpt lat="38.7231550" lon="1.4217400">
        <ele>3.1</ele>
        <time>2020-02-22T14:50:04Z</time>
      </trkpt>
      <trkpt lat="38.7229950" lon="1.4218330">
        <ele>3.1</ele>
        <time>2020-02-22T14:50:05Z</time>
      </trkpt>
      <trkpt lat="38.7229950" lon="1.4218330">
        <ele>3.1</ele>
        <time>2020-02-22T14:50:06Z</time>
      </trkpt>
      <trkpt lat="38.7228320" lon="1.4219250">
        <ele>3.1</ele>
        <time>2020-02-22T14:50:07Z</time>
      </trkpt>
      <trkpt lat="38.7228320" lon="1.4219250">
        <ele>3.1</ele>
        <time>2020-02-22T14:50:08Z</time>
      </trkpt>
      <trkpt lat="38.7226680" lon="1.4220180">
        <ele>3.1</ele>
        <time>2020-02-22T14:50:09Z</time>
      </trkpt>
      <trkpt lat="38.7226680" lon="1.4220180">
        <ele>3.1</ele>
        <time>2020-02-22T14:50:10Z</time>
      </trkpt>
      <trkpt lat="38.7225070" lon="1.4221080">
        <ele>3.1</ele>
        <time>2020-02-22T14:50:11Z</time>
      </trkpt>
      <trkpt lat="38.7225070" lon="1.4221080">
        <ele>3.1</ele>
        <time>2020-02-22T14:50:12Z</time>
      </trkpt>
      <trkpt lat="38.7223480" lon="1.4222020">
        <ele>3.1</ele>
        <time>2020-02-22T14:50:13Z</time>
      </trkpt>
      <trkpt lat="38.7222680" lon="1.4222500">
        <ele>3.1</ele>
        <time>2020-02-22T14:50:14Z</time>
      </trkpt>
      <trkpt lat="38.7222680" lon="1.4222500">
        <ele>3.1</ele>
        <time>2020-02-22T14:50:15Z</time>
      </trkpt>
      <trkpt lat="38.7221070" lon="1.4223500">
        <ele>3.1</ele>
        <time>2020-02-22T14:50:16Z</time>
      </trkpt>
      <trkpt lat="38.7221070" lon="1.4223500">
        <ele>3.1</ele>
        <time>2020-02-22T14:50:17Z</time>
      </trkpt>
      <trkpt lat="38.7219420" lon="1.4224450">
        <ele>3.1</ele>
        <time>2020-02-22T14:50:18Z</time>
      </trkpt>
      <trkpt lat="38.7218620" lon="1.4224920">
        <ele>3.1</ele>
        <time>2020-02-22T14:50:19Z</time>
      </trkpt>
      <trkpt lat="38.7218620" lon="1.4224920">
        <ele>3.1</ele>
        <time>2020-02-22T14:50:20Z</time>
      </trkpt>
      <trkpt lat="38.7217020" lon="1.4225830">
        <ele>4.1</ele>
        <time>2020-02-22T14:50:21Z</time>
      </trkpt>
      <trkpt lat="38.7217020" lon="1.4225830">
        <ele>4.1</ele>
        <time>2020-02-22T14:50:22Z</time>
      </trkpt>
      <trkpt lat="38.7215450" lon="1.4226750">
        <ele>4.1</ele>
        <time>2020-02-22T14:50:23Z</time>
      </trkpt>
      <trkpt lat="38.7215450" lon="1.4226750">
        <ele>4.1</ele>
        <time>2020-02-22T14:50:24Z</time>
      </trkpt>
      <trkpt lat="38.7213870" lon="1.4227600">
        <ele>4.1</ele>
        <time>2020-02-22T14:50:25Z</time>
      </trkpt>
      <trkpt lat="38.7213870" lon="1.4227600">
        <ele>4.1</ele>
        <time>2020-02-22T14:50:26Z</time>
      </trkpt>
      <trkpt lat="38.7212280" lon="1.4228480">
        <ele>4.1</ele>
        <time>2020-02-22T14:50:27Z</time>
      </trkpt>
      <trkpt lat="38.7212280" lon="1.4228480">
        <ele>4.1</ele>
        <time>2020-02-22T14:50:28Z</time>
      </trkpt>
      <trkpt lat="38.7210720" lon="1.4229400">
        <ele>4.1</ele>
        <time>2020-02-22T14:50:29Z</time>
      </trkpt>
      <trkpt lat="38.7210720" lon="1.4229400">
        <ele>4.1</ele>
        <time>2020-02-22T14:50:30Z</time>
      </trkpt>
      <trkpt lat="38.7209170" lon="1.4230280">
        <ele>4.1</ele>
        <time>2020-02-22T14:50:31Z</time>
      </trkpt>
      <trkpt lat="38.7209170" lon="1.4230280">
        <ele>4.1</ele>
        <time>2020-02-22T14:50:32Z</time>
      </trkpt>
      <trkpt lat="38.7207600" lon="1.4231150">
        <ele>4.1</ele>
        <time>2020-02-22T14:50:33Z</time>
      </trkpt>
      <trkpt lat="38.7207600" lon="1.4231150">
        <ele>4.1</ele>
        <time>2020-02-22T14:50:34Z</time>
      </trkpt>
      <trkpt lat="38.7206020" lon="1.4232000">
        <ele>4.1</ele>
        <time>2020-02-22T14:50:35Z</time>
      </trkpt>
      <trkpt lat="38.7206020" lon="1.4232000">
        <ele>4.1</ele>
        <time>2020-02-22T14:50:36Z</time>
      </trkpt>
      <trkpt lat="38.7204450" lon="1.4232850">
        <ele>4.1</ele>
        <time>2020-02-22T14:50:37Z</time>
      </trkpt>
      <trkpt lat="38.7204450" lon="1.4232850">
        <ele>5.1</ele>
        <time>2020-02-22T14:50:38Z</time>
      </trkpt>
      <trkpt lat="38.7202930" lon="1.4233700">
        <ele>5.1</ele>
        <time>2020-02-22T14:50:39Z</time>
      </trkpt>
      <trkpt lat="38.7202930" lon="1.4233700">
        <ele>5.1</ele>
        <time>2020-02-22T14:50:40Z</time>
      </trkpt>
      <trkpt lat="38.7201450" lon="1.4234520">
        <ele>5.1</ele>
        <time>2020-02-22T14:50:41Z</time>
      </trkpt>
      <trkpt lat="38.7201450" lon="1.4234520">
        <ele>5.1</ele>
        <time>2020-02-22T14:50:42Z</time>
      </trkpt>
      <trkpt lat="38.7199980" lon="1.4235350">
        <ele>5.1</ele>
        <time>2020-02-22T14:50:43Z</time>
      </trkpt>
      <trkpt lat="38.7199980" lon="1.4235350">
        <ele>5.1</ele>
        <time>2020-02-22T14:50:44Z</time>
      </trkpt>
      <trkpt lat="38.7198500" lon="1.4236200">
        <ele>5.1</ele>
        <time>2020-02-22T14:50:45Z</time>
      </trkpt>
      <trkpt lat="38.7198500" lon="1.4236200">
        <ele>6.1</ele>
        <time>2020-02-22T14:50:46Z</time>
      </trkpt>
      <trkpt lat="38.7197070" lon="1.4237070">
        <ele>6.1</ele>
        <time>2020-02-22T14:50:47Z</time>
      </trkpt>
      <trkpt lat="38.7197070" lon="1.4237070">
        <ele>6.1</ele>
        <time>2020-02-22T14:50:48Z</time>
      </trkpt>
      <trkpt lat="38.7195600" lon="1.4237920">
        <ele>6.1</ele>
        <time>2020-02-22T14:50:49Z</time>
      </trkpt>
      <trkpt lat="38.7194870" lon="1.4238330">
        <ele>6.1</ele>
        <time>2020-02-22T14:50:50Z</time>
      </trkpt>
      <trkpt lat="38.7194870" lon="1.4238330">
        <ele>6.1</ele>
        <time>2020-02-22T14:50:51Z</time>
      </trkpt>
      <trkpt lat="38.7193400" lon="1.4239170">
        <ele>6.1</ele>
        <time>2020-02-22T14:50:52Z</time>
      </trkpt>
      <trkpt lat="38.7193400" lon="1.4239170">
        <ele>6.1</ele>
        <time>2020-02-22T14:50:53Z</time>
      </trkpt>
      <trkpt lat="38.7191950" lon="1.4240050">
        <ele>6.1</ele>
        <time>2020-02-22T14:50:54Z</time>
      </trkpt>
      <trkpt lat="38.7191220" lon="1.4240470">
        <ele>6.1</ele>
        <time>2020-02-22T14:50:55Z</time>
      </trkpt>
      <trkpt lat="38.7191220" lon="1.4240470">
        <ele>6.1</ele>
        <time>2020-02-22T14:50:56Z</time>
      </trkpt>
      <trkpt lat="38.7189720" lon="1.4241330">
        <ele>6.1</ele>
        <time>2020-02-22T14:50:57Z</time>
      </trkpt>
      <trkpt lat="38.7189720" lon="1.4241330">
        <ele>6.1</ele>
        <time>2020-02-22T14:50:58Z</time>
      </trkpt>
      <trkpt lat="38.7188180" lon="1.4242230">
        <ele>6.1</ele>
        <time>2020-02-22T14:50:59Z</time>
      </trkpt>
      <trkpt lat="38.7188180" lon="1.4242230">
        <ele>6.1</ele>
        <time>2020-02-22T14:51:00Z</time>
      </trkpt>
      <trkpt lat="38.7186600" lon="1.4243150">
        <ele>6.1</ele>
        <time>2020-02-22T14:51:01Z</time>
      </trkpt>
      <trkpt lat="38.7186600" lon="1.4243150">
        <ele>6.1</ele>
        <time>2020-02-22T14:51:02Z</time>
      </trkpt>
      <trkpt lat="38.7184980" lon="1.4244130">
        <ele>6.1</ele>
        <time>2020-02-22T14:51:03Z</time>
      </trkpt>
      <trkpt lat="38.7184980" lon="1.4244130">
        <ele>6.1</ele>
        <time>2020-02-22T14:51:04Z</time>
      </trkpt>
      <trkpt lat="38.7183330" lon="1.4245220">
        <ele>6.1</ele>
        <time>2020-02-22T14:51:05Z</time>
      </trkpt>
      <trkpt lat="38.7183330" lon="1.4245220">
        <ele>6.1</ele>
        <time>2020-02-22T14:51:06Z</time>
      </trkpt>
      <trkpt lat="38.7181630" lon="1.4246330">
        <ele>7.1</ele>
        <time>2020-02-22T14:51:07Z</time>
      </trkpt>
      <trkpt lat="38.7180770" lon="1.4246880">
        <ele>7.1</ele>
        <time>2020-02-22T14:51:08Z</time>
      </trkpt>
      <trkpt lat="38.7180770" lon="1.4246880">
        <ele>7.1</ele>
        <time>2020-02-22T14:51:09Z</time>
      </trkpt>
      <trkpt lat="38.7179000" lon="1.4247970">
        <ele>7.1</ele>
        <time>2020-02-22T14:51:10Z</time>
      </trkpt>
      <trkpt lat="38.7179000" lon="1.4247970">
        <ele>7.1</ele>
        <time>2020-02-22T14:51:11Z</time>
      </trkpt>
      <trkpt lat="38.7177170" lon="1.4249070">
        <ele>7.1</ele>
        <time>2020-02-22T14:51:12Z</time>
      </trkpt>
      <trkpt lat="38.7177170" lon="1.4249070">
        <ele>7.1</ele>
        <time>2020-02-22T14:51:13Z</time>
      </trkpt>
      <trkpt lat="38.7175280" lon="1.4250150">
        <ele>7.1</ele>
        <time>2020-02-22T14:51:14Z</time>
      </trkpt>
      <trkpt lat="38.7174330" lon="1.4250680">
        <ele>7.1</ele>
        <time>2020-02-22T14:51:15Z</time>
      </trkpt>
      <trkpt lat="38.7174330" lon="1.4250680">
        <ele>7.1</ele>
        <time>2020-02-22T14:51:16Z</time>
      </trkpt>
      <trkpt lat="38.7172520" lon="1.4251720">
        <ele>7.1</ele>
        <time>2020-02-22T14:51:17Z</time>
      </trkpt>
      <trkpt lat="38.7172520" lon="1.4251720">
        <ele>7.1</ele>
        <time>2020-02-22T14:51:18Z</time>
      </trkpt>
      <trkpt lat="38.7170670" lon="1.4252780">
        <ele>7.1</ele>
        <time>2020-02-22T14:51:19Z</time>
      </trkpt>
      <trkpt lat="38.7170670" lon="1.4252780">
        <ele>7.1</ele>
        <time>2020-02-22T14:51:20Z</time>
      </trkpt>
      <trkpt lat="38.7168850" lon="1.4253770">
        <ele>7.1</ele>
        <time>2020-02-22T14:51:21Z</time>
      </trkpt>
      <trkpt lat="38.7167970" lon="1.4254230">
        <ele>8.1</ele>
        <time>2020-02-22T14:51:22Z</time>
      </trkpt>
      <trkpt lat="38.7167970" lon="1.4254230">
        <ele>8.1</ele>
        <time>2020-02-22T14:51:23Z</time>
      </trkpt>
      <trkpt lat="38.7166200" lon="1.4255170">
        <ele>8.1</ele>
        <time>2020-02-22T14:51:24Z</time>
      </trkpt>
      <trkpt lat="38.7165330" lon="1.4255630">
        <ele>8.1</ele>
        <time>2020-02-22T14:51:25Z</time>
      </trkpt>
      <trkpt lat="38.7164480" lon="1.4256130">
        <ele>8.1</ele>
        <time>2020-02-22T14:51:26Z</time>
      </trkpt>
      <trkpt lat="38.7163650" lon="1.4256630">
        <ele>8.1</ele>
        <time>2020-02-22T14:51:27Z</time>
      </trkpt>
      <trkpt lat="38.7163650" lon="1.4256630">
        <ele>8.1</ele>
        <time>2020-02-22T14:51:28Z</time>
      </trkpt>
      <trkpt lat="38.7161930" lon="1.4257580">
        <ele>8.1</ele>
        <time>2020-02-22T14:51:29Z</time>
      </trkpt>
      <trkpt lat="38.7161100" lon="1.4258050">
        <ele>9.1</ele>
        <time>2020-02-22T14:51:30Z</time>
      </trkpt>
      <trkpt lat="38.7161100" lon="1.4258050">
        <ele>9.1</ele>
        <time>2020-02-22T14:51:31Z</time>
      </trkpt>
      <trkpt lat="38.7159450" lon="1.4259020">
        <ele>9.1</ele>
        <time>2020-02-22T14:51:32Z</time>
      </trkpt>
      <trkpt lat="38.7159450" lon="1.4259020">
        <ele>9.1</ele>
        <time>2020-02-22T14:51:33Z</time>
      </trkpt>
      <trkpt lat="38.7157770" lon="1.4259980">
        <ele>10.1</ele>
        <time>2020-02-22T14:51:34Z</time>
      </trkpt>
      <trkpt lat="38.7156930" lon="1.4260470">
        <ele>10.1</ele>
        <time>2020-02-22T14:51:35Z</time>
      </trkpt>
      <trkpt lat="38.7156930" lon="1.4260470">
        <ele>10.1</ele>
        <time>2020-02-22T14:51:36Z</time>
      </trkpt>
      <trkpt lat="38.7155320" lon="1.4261420">
        <ele>10.1</ele>
        <time>2020-02-22T14:51:37Z</time>
      </trkpt>
      <trkpt lat="38.7155320" lon="1.4261420">
        <ele>11.1</ele>
        <time>2020-02-22T14:51:38Z</time>
      </trkpt>
      <trkpt lat="38.7153700" lon="1.4262350">
        <ele>11.1</ele>
        <time>2020-02-22T14:51:39Z</time>
      </trkpt>
      <trkpt lat="38.7153700" lon="1.4262350">
        <ele>11.1</ele>
        <time>2020-02-22T14:51:40Z</time>
      </trkpt>
      <trkpt lat="38.7152080" lon="1.4263280">
        <ele>11.1</ele>
        <time>2020-02-22T14:51:41Z</time>
      </trkpt>
      <trkpt lat="38.7152080" lon="1.4263280">
        <ele>12.1</ele>
        <time>2020-02-22T14:51:42Z</time>
      </trkpt>
      <trkpt lat="38.7150470" lon="1.4264230">
        <ele>12.1</ele>
        <time>2020-02-22T14:51:43Z</time>
      </trkpt>
      <trkpt lat="38.7149620" lon="1.4264700">
        <ele>12.1</ele>
        <time>2020-02-22T14:51:44Z</time>
      </trkpt>
      <trkpt lat="38.7148770" lon="1.4265150">
        <ele>13.1</ele>
        <time>2020-02-22T14:51:45Z</time>
      </trkpt>
      <trkpt lat="38.7148770" lon="1.4265150">
        <ele>13.1</ele>
        <time>2020-02-22T14:51:46Z</time>
      </trkpt>
      <trkpt lat="38.7147100" lon="1.4266070">
        <ele>13.1</ele>
        <time>2020-02-22T14:51:47Z</time>
      </trkpt>
      <trkpt lat="38.7146300" lon="1.4266530">
        <ele>13.1</ele>
        <time>2020-02-22T14:51:48Z</time>
      </trkpt>
      <trkpt lat="38.7146300" lon="1.4266530">
        <ele>14.1</ele>
        <time>2020-02-22T14:51:49Z</time>
      </trkpt>
      <trkpt lat="38.7144720" lon="1.4267470">
        <ele>14.1</ele>
        <time>2020-02-22T14:51:50Z</time>
      </trkpt>
      <trkpt lat="38.7143920" lon="1.4267920">
        <ele>14.1</ele>
        <time>2020-02-22T14:51:51Z</time>
      </trkpt>
      <trkpt lat="38.7143920" lon="1.4267920">
        <ele>14.1</ele>
        <time>2020-02-22T14:51:52Z</time>
      </trkpt>
      <trkpt lat="38.7142320" lon="1.4268820">
        <ele>15.1</ele>
        <time>2020-02-22T14:51:53Z</time>
      </trkpt>
      <trkpt lat="38.7142320" lon="1.4268820">
        <ele>15.1</ele>
        <time>2020-02-22T14:51:54Z</time>
      </trkpt>
      <trkpt lat="38.7140750" lon="1.4269750">
        <ele>15.1</ele>
        <time>2020-02-22T14:51:55Z</time>
      </trkpt>
      <trkpt lat="38.7140750" lon="1.4269750">
        <ele>15.1</ele>
        <time>2020-02-22T14:51:56Z</time>
      </trkpt>
      <trkpt lat="38.7139170" lon="1.4270680">
        <ele>15.1</ele>
        <time>2020-02-22T14:51:57Z</time>
      </trkpt>
      <trkpt lat="38.7139170" lon="1.4270680">
        <ele>15.1</ele>
        <time>2020-02-22T14:51:58Z</time>
      </trkpt>
      <trkpt lat="38.7137550" lon="1.4271600">
        <ele>16.1</ele>
        <time>2020-02-22T14:51:59Z</time>
      </trkpt>
      <trkpt lat="38.7137550" lon="1.4271600">
        <ele>16.1</ele>
        <time>2020-02-22T14:52:00Z</time>
      </trkpt>
      <trkpt lat="38.7135920" lon="1.4272550">
        <ele>16.1</ele>
        <time>2020-02-22T14:52:01Z</time>
      </trkpt>
      <trkpt lat="38.7135080" lon="1.4273000">
        <ele>16.1</ele>
        <time>2020-02-22T14:52:02Z</time>
      </trkpt>
      <trkpt lat="38.7135080" lon="1.4273000">
        <ele>16.1</ele>
        <time>2020-02-22T14:52:03Z</time>
      </trkpt>
      <trkpt lat="38.7133420" lon="1.4273930">
        <ele>17.1</ele>
        <time>2020-02-22T14:52:04Z</time>
      </trkpt>
      <trkpt lat="38.7133420" lon="1.4273930">
        <ele>17.1</ele>
        <time>2020-02-22T14:52:05Z</time>
      </trkpt>
      <trkpt lat="38.7131770" lon="1.4274870">
        <ele>18.1</ele>
        <time>2020-02-22T14:52:06Z</time>
      </trkpt>
      <trkpt lat="38.7130950" lon="1.4275320">
        <ele>18.1</ele>
        <time>2020-02-22T14:52:07Z</time>
      </trkpt>
      <trkpt lat="38.7130950" lon="1.4275320">
        <ele>18.1</ele>
        <time>2020-02-22T14:52:08Z</time>
      </trkpt>
      <trkpt lat="38.7129400" lon="1.4276270">
        <ele>18.1</ele>
        <time>2020-02-22T14:52:09Z</time>
      </trkpt>
      <trkpt lat="38.7129400" lon="1.4276270">
        <ele>19.1</ele>
        <time>2020-02-22T14:52:10Z</time>
      </trkpt>
      <trkpt lat="38.7127850" lon="1.4277150">
        <ele>19.1</ele>
        <time>2020-02-22T14:52:11Z</time>
      </trkpt>
      <trkpt lat="38.7127850" lon="1.4277150">
        <ele>19.1</ele>
        <time>2020-02-22T14:52:12Z</time>
      </trkpt>
      <trkpt lat="38.7126350" lon="1.4278000">
        <ele>19.1</ele>
        <time>2020-02-22T14:52:13Z</time>
      </trkpt>
      <trkpt lat="38.7126350" lon="1.4278000">
        <ele>19.1</ele>
        <time>2020-02-22T14:52:14Z</time>
      </trkpt>
      <trkpt lat="38.7124870" lon="1.4278900">
        <ele>19.1</ele>
        <time>2020-02-22T14:52:15Z</time>
      </trkpt>
      <trkpt lat="38.7124870" lon="1.4278900">
        <ele>19.1</ele>
        <time>2020-02-22T14:52:16Z</time>
      </trkpt>
      <trkpt lat="38.7123450" lon="1.4279750">
        <ele>20.1</ele>
        <time>2020-02-22T14:52:17Z</time>
      </trkpt>
      <trkpt lat="38.7123450" lon="1.4279750">
        <ele>20.1</ele>
        <time>2020-02-22T14:52:18Z</time>
      </trkpt>
      <trkpt lat="38.7122020" lon="1.4280600">
        <ele>20.1</ele>
        <time>2020-02-22T14:52:19Z</time>
      </trkpt>
      <trkpt lat="38.7121300" lon="1.4281030">
        <ele>21.1</ele>
        <time>2020-02-22T14:52:20Z</time>
      </trkpt>
      <trkpt lat="38.7121300" lon="1.4281030">
        <ele>21.1</ele>
        <time>2020-02-22T14:52:21Z</time>
      </trkpt>
      <trkpt lat="38.7119820" lon="1.4281900">
        <ele>21.1</ele>
        <time>2020-02-22T14:52:22Z</time>
      </trkpt>
      <trkpt lat="38.7119820" lon="1.4281900">
        <ele>21.1</ele>
        <time>2020-02-22T14:52:23Z</time>
      </trkpt>
      <trkpt lat="38.7118270" lon="1.4282830">
        <ele>22.1</ele>
        <time>2020-02-22T14:52:24Z</time>
      </trkpt>
      <trkpt lat="38.7118270" lon="1.4282830">
        <ele>22.1</ele>
        <time>2020-02-22T14:52:25Z</time>
      </trkpt>
      <trkpt lat="38.7116700" lon="1.4283830">
        <ele>22.1</ele>
        <time>2020-02-22T14:52:26Z</time>
      </trkpt>
      <trkpt lat="38.7115880" lon="1.4284320">
        <ele>22.1</ele>
        <time>2020-02-22T14:52:27Z</time>
      </trkpt>
      <trkpt lat="38.7115880" lon="1.4284320">
        <ele>21.1</ele>
        <time>2020-02-22T14:52:28Z</time>
      </trkpt>
      <trkpt lat="38.7114220" lon="1.4285270">
        <ele>21.1</ele>
        <time>2020-02-22T14:52:29Z</time>
      </trkpt>
      <trkpt lat="38.7114220" lon="1.4285270">
        <ele>21.1</ele>
        <time>2020-02-22T14:52:30Z</time>
      </trkpt>
      <trkpt lat="38.7112530" lon="1.4286180">
        <ele>21.1</ele>
        <time>2020-02-22T14:52:31Z</time>
      </trkpt>
      <trkpt lat="38.7112530" lon="1.4286180">
        <ele>21.1</ele>
        <time>2020-02-22T14:52:32Z</time>
      </trkpt>
      <trkpt lat="38.7110850" lon="1.4287150">
        <ele>21.1</ele>
        <time>2020-02-22T14:52:33Z</time>
      </trkpt>
      <trkpt lat="38.7110850" lon="1.4287150">
        <ele>21.1</ele>
        <time>2020-02-22T14:52:34Z</time>
      </trkpt>
      <trkpt lat="38.7109180" lon="1.4288080">
        <ele>21.1</ele>
        <time>2020-02-22T14:52:35Z</time>
      </trkpt>
      <trkpt lat="38.7109180" lon="1.4288080">
        <ele>21.1</ele>
        <time>2020-02-22T14:52:36Z</time>
      </trkpt>
      <trkpt lat="38.7107550" lon="1.4289050">
        <ele>21.1</ele>
        <time>2020-02-22T14:52:37Z</time>
      </trkpt>
      <trkpt lat="38.7106730" lon="1.4289530">
        <ele>21.1</ele>
        <time>2020-02-22T14:52:38Z</time>
      </trkpt>
      <trkpt lat="38.7106730" lon="1.4289530">
        <ele>21.1</ele>
        <time>2020-02-22T14:52:39Z</time>
      </trkpt>
      <trkpt lat="38.7105120" lon="1.4290450">
        <ele>21.1</ele>
        <time>2020-02-22T14:52:40Z</time>
      </trkpt>
      <trkpt lat="38.7105120" lon="1.4290450">
        <ele>21.1</ele>
        <time>2020-02-22T14:52:41Z</time>
      </trkpt>
      <trkpt lat="38.7103570" lon="1.4291300">
        <ele>21.1</ele>
        <time>2020-02-22T14:52:42Z</time>
      </trkpt>
      <trkpt lat="38.7102800" lon="1.4291730">
        <ele>22.1</ele>
        <time>2020-02-22T14:52:43Z</time>
      </trkpt>
      <trkpt lat="38.7102800" lon="1.4291730">
        <ele>22.1</ele>
        <time>2020-02-22T14:52:44Z</time>
      </trkpt>
      <trkpt lat="38.7101320" lon="1.4292630">
        <ele>22.1</ele>
        <time>2020-02-22T14:52:45Z</time>
      </trkpt>
      <trkpt lat="38.7101320" lon="1.4292630">
        <ele>22.1</ele>
        <time>2020-02-22T14:52:46Z</time>
      </trkpt>
      <trkpt lat="38.7099780" lon="1.4293520">
        <ele>23.1</ele>
        <time>2020-02-22T14:52:47Z</time>
      </trkpt>
      <trkpt lat="38.7099780" lon="1.4293520">
        <ele>23.1</ele>
        <time>2020-02-22T14:52:48Z</time>
      </trkpt>
      <trkpt lat="38.7098280" lon="1.4294400">
        <ele>24.1</ele>
        <time>2020-02-22T14:52:49Z</time>
      </trkpt>
      <trkpt lat="38.7098280" lon="1.4294400">
        <ele>24.1</ele>
        <time>2020-02-22T14:52:50Z</time>
      </trkpt>
      <trkpt lat="38.7096730" lon="1.4295280">
        <ele>24.1</ele>
        <time>2020-02-22T14:52:51Z</time>
      </trkpt>
      <trkpt lat="38.7096730" lon="1.4295280">
        <ele>24.1</ele>
        <time>2020-02-22T14:52:52Z</time>
      </trkpt>
      <trkpt lat="38.7095180" lon="1.4296200">
        <ele>25.1</ele>
        <time>2020-02-22T14:52:53Z</time>
      </trkpt>
      <trkpt lat="38.7094400" lon="1.4296670">
        <ele>25.1</ele>
        <time>2020-02-22T14:52:54Z</time>
      </trkpt>
      <trkpt lat="38.7094400" lon="1.4296670">
        <ele>26.1</ele>
        <time>2020-02-22T14:52:55Z</time>
      </trkpt>
      <trkpt lat="38.7092850" lon="1.4297570">
        <ele>26.1</ele>
        <time>2020-02-22T14:52:56Z</time>
      </trkpt>
      <trkpt lat="38.7092850" lon="1.4297570">
        <ele>26.1</ele>
        <time>2020-02-22T14:52:57Z</time>
      </trkpt>
      <trkpt lat="38.7091320" lon="1.4298430">
        <ele>26.1</ele>
        <time>2020-02-22T14:52:58Z</time>
      </trkpt>
      <trkpt lat="38.7091320" lon="1.4298430">
        <ele>26.1</ele>
        <time>2020-02-22T14:52:59Z</time>
      </trkpt>
      <trkpt lat="38.7089780" lon="1.4299370">
        <ele>26.1</ele>
        <time>2020-02-22T14:53:00Z</time>
      </trkpt>
      <trkpt lat="38.7089020" lon="1.4299820">
        <ele>26.1</ele>
        <time>2020-02-22T14:53:01Z</time>
      </trkpt>
      <trkpt lat="38.7089020" lon="1.4299820">
        <ele>28.1</ele>
        <time>2020-02-22T14:53:02Z</time>
      </trkpt>
      <trkpt lat="38.7087480" lon="1.4300730">
        <ele>28.1</ele>
        <time>2020-02-22T14:53:03Z</time>
      </trkpt>
      <trkpt lat="38.7087480" lon="1.4300730">
        <ele>28.1</ele>
        <time>2020-02-22T14:53:04Z</time>
      </trkpt>
      <trkpt lat="38.7085980" lon="1.4301580">
        <ele>28.1</ele>
        <time>2020-02-22T14:53:05Z</time>
      </trkpt>
      <trkpt lat="38.7085980" lon="1.4301580">
        <ele>29.1</ele>
        <time>2020-02-22T14:53:06Z</time>
      </trkpt>
      <trkpt lat="38.7084470" lon="1.4302500">
        <ele>29.1</ele>
        <time>2020-02-22T14:53:07Z</time>
      </trkpt>
      <trkpt lat="38.7084470" lon="1.4302500">
        <ele>30.1</ele>
        <time>2020-02-22T14:53:08Z</time>
      </trkpt>
      <trkpt lat="38.7082950" lon="1.4303400">
        <ele>30.1</ele>
        <time>2020-02-22T14:53:09Z</time>
      </trkpt>
      <trkpt lat="38.7082950" lon="1.4303400">
        <ele>30.1</ele>
        <time>2020-02-22T14:53:10Z</time>
      </trkpt>
      <trkpt lat="38.7081400" lon="1.4304320">
        <ele>30.1</ele>
        <time>2020-02-22T14:53:11Z</time>
      </trkpt>
      <trkpt lat="38.7081400" lon="1.4304320">
        <ele>30.1</ele>
        <time>2020-02-22T14:53:12Z</time>
      </trkpt>
      <trkpt lat="38.7079780" lon="1.4305280">
        <ele>30.1</ele>
        <time>2020-02-22T14:53:13Z</time>
      </trkpt>
      <trkpt lat="38.7079780" lon="1.4305280">
        <ele>30.1</ele>
        <time>2020-02-22T14:53:14Z</time>
      </trkpt>
      <trkpt lat="38.7078120" lon="1.4306280">
        <ele>30.1</ele>
        <time>2020-02-22T14:53:15Z</time>
      </trkpt>
      <trkpt lat="38.7078120" lon="1.4306280">
        <ele>30.1</ele>
        <time>2020-02-22T14:53:16Z</time>
      </trkpt>
      <trkpt lat="38.7076450" lon="1.4307380">
        <ele>30.1</ele>
        <time>2020-02-22T14:53:17Z</time>
      </trkpt>
      <trkpt lat="38.7076450" lon="1.4307380">
        <ele>30.1</ele>
        <time>2020-02-22T14:53:18Z</time>
      </trkpt>
      <trkpt lat="38.7074800" lon="1.4308470">
        <ele>30.1</ele>
        <time>2020-02-22T14:53:19Z</time>
      </trkpt>
      <trkpt lat="38.7074800" lon="1.4308470">
        <ele>30.1</ele>
        <time>2020-02-22T14:53:20Z</time>
      </trkpt>
      <trkpt lat="38.7073150" lon="1.4309580">
        <ele>30.1</ele>
        <time>2020-02-22T14:53:21Z</time>
      </trkpt>
      <trkpt lat="38.7073150" lon="1.4309580">
        <ele>30.1</ele>
        <time>2020-02-22T14:53:22Z</time>
      </trkpt>
      <trkpt lat="38.7071600" lon="1.4310700">
        <ele>30.1</ele>
        <time>2020-02-22T14:53:23Z</time>
      </trkpt>
      <trkpt lat="38.7071600" lon="1.4310700">
        <ele>30.1</ele>
        <time>2020-02-22T14:53:24Z</time>
      </trkpt>
      <trkpt lat="38.7069930" lon="1.4311600">
        <ele>30.1</ele>
        <time>2020-02-22T14:53:25Z</time>
      </trkpt>
      <trkpt lat="38.7069930" lon="1.4311600">
        <ele>30.1</ele>
        <time>2020-02-22T14:53:26Z</time>
      </trkpt>
      <trkpt lat="38.7068220" lon="1.4312430">
        <ele>30.1</ele>
        <time>2020-02-22T14:53:27Z</time>
      </trkpt>
      <trkpt lat="38.7068220" lon="1.4312430">
        <ele>30.1</ele>
        <time>2020-02-22T14:53:28Z</time>
      </trkpt>
      <trkpt lat="38.7066480" lon="1.4313600">
        <ele>30.1</ele>
        <time>2020-02-22T14:53:29Z</time>
      </trkpt>
      <trkpt lat="38.7066480" lon="1.4313600">
        <ele>30.1</ele>
        <time>2020-02-22T14:53:30Z</time>
      </trkpt>
      <trkpt lat="38.7064750" lon="1.4315000">
        <ele>30.1</ele>
        <time>2020-02-22T14:53:31Z</time>
      </trkpt>
      <trkpt lat="38.7063900" lon="1.4315800">
        <ele>30.1</ele>
        <time>2020-02-22T14:53:32Z</time>
      </trkpt>
      <trkpt lat="38.7063900" lon="1.4315800">
        <ele>29.1</ele>
        <time>2020-02-22T14:53:33Z</time>
      </trkpt>
      <trkpt lat="38.7062270" lon="1.4317630">
        <ele>29.1</ele>
        <time>2020-02-22T14:53:34Z</time>
      </trkpt>
      <trkpt lat="38.7062270" lon="1.4317630">
        <ele>29.1</ele>
        <time>2020-02-22T14:53:35Z</time>
      </trkpt>
      <trkpt lat="38.7060700" lon="1.4319770">
        <ele>27.1</ele>
        <time>2020-02-22T14:53:36Z</time>
      </trkpt>
      <trkpt lat="38.7060020" lon="1.4320950">
        <ele>27.1</ele>
        <time>2020-02-22T14:53:37Z</time>
      </trkpt>
      <trkpt lat="38.7060020" lon="1.4320950">
        <ele>26.1</ele>
        <time>2020-02-22T14:53:38Z</time>
      </trkpt>
      <trkpt lat="38.7058750" lon="1.4323370">
        <ele>26.1</ele>
        <time>2020-02-22T14:53:39Z</time>
      </trkpt>
      <trkpt lat="38.7058750" lon="1.4323370">
        <ele>26.1</ele>
        <time>2020-02-22T14:53:40Z</time>
      </trkpt>
      <trkpt lat="38.7057680" lon="1.4325730">
        <ele>26.1</ele>
        <time>2020-02-22T14:53:41Z</time>
      </trkpt>
      <trkpt lat="38.7057120" lon="1.4326850">
        <ele>25.1</ele>
        <time>2020-02-22T14:53:42Z</time>
      </trkpt>
      <trkpt lat="38.7056600" lon="1.4327980">
        <ele>25.1</ele>
        <time>2020-02-22T14:53:43Z</time>
      </trkpt>
      <trkpt lat="38.7056600" lon="1.4327980">
        <ele>25.1</ele>
        <time>2020-02-22T14:53:44Z</time>
      </trkpt>
      <trkpt lat="38.7056370" lon="1.4330430">
        <ele>25.1</ele>
        <time>2020-02-22T14:53:45Z</time>
      </trkpt>
      <trkpt lat="38.7056370" lon="1.4330430">
        <ele>24.1</ele>
        <time>2020-02-22T14:53:46Z</time>
      </trkpt>
      <trkpt lat="38.7056570" lon="1.4333220">
        <ele>24.1</ele>
        <time>2020-02-22T14:53:47Z</time>
      </trkpt>
      <trkpt lat="38.7056570" lon="1.4333220">
        <ele>24.1</ele>
        <time>2020-02-22T14:53:48Z</time>
      </trkpt>
      <trkpt lat="38.7056720" lon="1.4336200">
        <ele>24.1</ele>
        <time>2020-02-22T14:53:49Z</time>
      </trkpt>
      <trkpt lat="38.7056750" lon="1.4337730">
        <ele>22.1</ele>
        <time>2020-02-22T14:53:50Z</time>
      </trkpt>
      <trkpt lat="38.7056750" lon="1.4337730">
        <ele>22.1</ele>
        <time>2020-02-22T14:53:51Z</time>
      </trkpt>
      <trkpt lat="38.7056830" lon="1.4340780">
        <ele>22.1</ele>
        <time>2020-02-22T14:53:52Z</time>
      </trkpt>
      <trkpt lat="38.7056830" lon="1.4340780">
        <ele>22.1</ele>
        <time>2020-02-22T14:53:53Z</time>
      </trkpt>
      <trkpt lat="38.7056980" lon="1.4343820">
        <ele>21.1</ele>
        <time>2020-02-22T14:53:54Z</time>
      </trkpt>
      <trkpt lat="38.7057050" lon="1.4345320">
        <ele>21.1</ele>
        <time>2020-02-22T14:53:55Z</time>
      </trkpt>
      <trkpt lat="38.7057050" lon="1.4345320">
        <ele>21.1</ele>
        <time>2020-02-22T14:53:56Z</time>
      </trkpt>
      <trkpt lat="38.7057100" lon="1.4348300">
        <ele>21.1</ele>
        <time>2020-02-22T14:53:57Z</time>
      </trkpt>
      <trkpt lat="38.7057100" lon="1.4348300">
        <ele>21.1</ele>
        <time>2020-02-22T14:53:58Z</time>
      </trkpt>
      <trkpt lat="38.7057220" lon="1.4351270">
        <ele>21.1</ele>
        <time>2020-02-22T14:53:59Z</time>
      </trkpt>
      <trkpt lat="38.7057320" lon="1.4352730">
        <ele>21.1</ele>
        <time>2020-02-22T14:54:00Z</time>
      </trkpt>
      <trkpt lat="38.7057320" lon="1.4352730">
        <ele>21.1</ele>
        <time>2020-02-22T14:54:01Z</time>
      </trkpt>
      <trkpt lat="38.7057500" lon="1.4355620">
        <ele>21.1</ele>
        <time>2020-02-22T14:54:02Z</time>
      </trkpt>
      <trkpt lat="38.7057570" lon="1.4357050">
        <ele>21.1</ele>
        <time>2020-02-22T14:54:03Z</time>
      </trkpt>
      <trkpt lat="38.7057570" lon="1.4357050">
        <ele>21.1</ele>
        <time>2020-02-22T14:54:04Z</time>
      </trkpt>
      <trkpt lat="38.7057650" lon="1.4359870">
        <ele>21.1</ele>
        <time>2020-02-22T14:54:05Z</time>
      </trkpt>
      <trkpt lat="38.7057650" lon="1.4359870">
        <ele>21.1</ele>
        <time>2020-02-22T14:54:06Z</time>
      </trkpt>
      <trkpt lat="38.7057770" lon="1.4362620">
        <ele>21.1</ele>
        <time>2020-02-22T14:54:07Z</time>
      </trkpt>
      <trkpt lat="38.7057770" lon="1.4362620">
        <ele>21.1</ele>
        <time>2020-02-22T14:54:08Z</time>
      </trkpt>
      <trkpt lat="38.7057950" lon="1.4365370">
        <ele>21.1</ele>
        <time>2020-02-22T14:54:09Z</time>
      </trkpt>
      <trkpt lat="38.7057950" lon="1.4365370">
        <ele>21.1</ele>
        <time>2020-02-22T14:54:10Z</time>
      </trkpt>
      <trkpt lat="38.7058100" lon="1.4368100">
        <ele>21.1</ele>
        <time>2020-02-22T14:54:11Z</time>
      </trkpt>
      <trkpt lat="38.7058100" lon="1.4368100">
        <ele>21.1</ele>
        <time>2020-02-22T14:54:12Z</time>
      </trkpt>
      <trkpt lat="38.7058200" lon="1.4370780">
        <ele>20.1</ele>
        <time>2020-02-22T14:54:13Z</time>
      </trkpt>
      <trkpt lat="38.7058200" lon="1.4370780">
        <ele>20.1</ele>
        <time>2020-02-22T14:54:14Z</time>
      </trkpt>
      <trkpt lat="38.7058280" lon="1.4373500">
        <ele>20.1</ele>
        <time>2020-02-22T14:54:15Z</time>
      </trkpt>
      <trkpt lat="38.7058380" lon="1.4374930">
        <ele>20.1</ele>
        <time>2020-02-22T14:54:16Z</time>
      </trkpt>
      <trkpt lat="38.7058380" lon="1.4374930">
        <ele>20.1</ele>
        <time>2020-02-22T14:54:17Z</time>
      </trkpt>
      <trkpt lat="38.7058650" lon="1.4377800">
        <ele>20.1</ele>
        <time>2020-02-22T14:54:18Z</time>
      </trkpt>
      <trkpt lat="38.7058830" lon="1.4379270">
        <ele>20.1</ele>
        <time>2020-02-22T14:54:19Z</time>
      </trkpt>
      <trkpt lat="38.7058830" lon="1.4379270">
        <ele>20.1</ele>
        <time>2020-02-22T14:54:20Z</time>
      </trkpt>
      <trkpt lat="38.7059300" lon="1.4382120">
        <ele>20.1</ele>
        <time>2020-02-22T14:54:21Z</time>
      </trkpt>
      <trkpt lat="38.7059300" lon="1.4382120">
        <ele>19.1</ele>
        <time>2020-02-22T14:54:22Z</time>
      </trkpt>
      <trkpt lat="38.7059980" lon="1.4384880">
        <ele>19.1</ele>
        <time>2020-02-22T14:54:23Z</time>
      </trkpt>
      <trkpt lat="38.7059980" lon="1.4384880">
        <ele>19.1</ele>
        <time>2020-02-22T14:54:24Z</time>
      </trkpt>
      <trkpt lat="38.7060830" lon="1.4387570">
        <ele>19.1</ele>
        <time>2020-02-22T14:54:25Z</time>
      </trkpt>
      <trkpt lat="38.7060830" lon="1.4387570">
        <ele>19.1</ele>
        <time>2020-02-22T14:54:26Z</time>
      </trkpt>
      <trkpt lat="38.7061870" lon="1.4390150">
        <ele>19.1</ele>
        <time>2020-02-22T14:54:27Z</time>
      </trkpt>
      <trkpt lat="38.7061870" lon="1.4390150">
        <ele>18.1</ele>
        <time>2020-02-22T14:54:28Z</time>
      </trkpt>
      <trkpt lat="38.7063050" lon="1.4392570">
        <ele>18.1</ele>
        <time>2020-02-22T14:54:29Z</time>
      </trkpt>
      <trkpt lat="38.7063050" lon="1.4392570">
        <ele>18.1</ele>
        <time>2020-02-22T14:54:30Z</time>
      </trkpt>
      <trkpt lat="38.7064300" lon="1.4395050">
        <ele>18.1</ele>
        <time>2020-02-22T14:54:31Z</time>
      </trkpt>
      <trkpt lat="38.7064300" lon="1.4395050">
        <ele>18.1</ele>
        <time>2020-02-22T14:54:32Z</time>
      </trkpt>
      <trkpt lat="38.7065580" lon="1.4397480">
        <ele>18.1</ele>
        <time>2020-02-22T14:54:33Z</time>
      </trkpt>
      <trkpt lat="38.7065580" lon="1.4397480">
        <ele>18.1</ele>
        <time>2020-02-22T14:54:34Z</time>
      </trkpt>
      <trkpt lat="38.7066880" lon="1.4399920">
        <ele>17.1</ele>
        <time>2020-02-22T14:54:35Z</time>
      </trkpt>
      <trkpt lat="38.7066880" lon="1.4399920">
        <ele>17.1</ele>
        <time>2020-02-22T14:54:36Z</time>
      </trkpt>
      <trkpt lat="38.7068170" lon="1.4402200">
        <ele>17.1</ele>
        <time>2020-02-22T14:54:37Z</time>
      </trkpt>
      <trkpt lat="38.7068170" lon="1.4402200">
        <ele>17.1</ele>
        <time>2020-02-22T14:54:38Z</time>
      </trkpt>
      <trkpt lat="38.7069380" lon="1.4404470">
        <ele>16.1</ele>
        <time>2020-02-22T14:54:39Z</time>
      </trkpt>
      <trkpt lat="38.7069380" lon="1.4404470">
        <ele>16.1</ele>
        <time>2020-02-22T14:54:40Z</time>
      </trkpt>
      <trkpt lat="38.7070600" lon="1.4406720">
        <ele>16.1</ele>
        <time>2020-02-22T14:54:41Z</time>
      </trkpt>
      <trkpt lat="38.7070600" lon="1.4406720">
        <ele>16.1</ele>
        <time>2020-02-22T14:54:42Z</time>
      </trkpt>
      <trkpt lat="38.7071850" lon="1.4408970">
        <ele>16.1</ele>
        <time>2020-02-22T14:54:43Z</time>
      </trkpt>
      <trkpt lat="38.7072480" lon="1.4410130">
        <ele>16.1</ele>
        <time>2020-02-22T14:54:44Z</time>
      </trkpt>
      <trkpt lat="38.7072480" lon="1.4410130">
        <ele>16.1</ele>
        <time>2020-02-22T14:54:45Z</time>
      </trkpt>
      <trkpt lat="38.7073770" lon="1.4412430">
        <ele>16.1</ele>
        <time>2020-02-22T14:54:46Z</time>
      </trkpt>
      <trkpt lat="38.7073770" lon="1.4412430">
        <ele>16.1</ele>
        <time>2020-02-22T14:54:47Z</time>
      </trkpt>
      <trkpt lat="38.7075030" lon="1.4414720">
        <ele>16.1</ele>
        <time>2020-02-22T14:54:48Z</time>
      </trkpt>
      <trkpt lat="38.7075650" lon="1.4415850">
        <ele>16.1</ele>
        <time>2020-02-22T14:54:49Z</time>
      </trkpt>
      <trkpt lat="38.7075650" lon="1.4415850">
        <ele>16.1</ele>
        <time>2020-02-22T14:54:50Z</time>
      </trkpt>
      <trkpt lat="38.7076870" lon="1.4418170">
        <ele>16.1</ele>
        <time>2020-02-22T14:54:51Z</time>
      </trkpt>
      <trkpt lat="38.7076870" lon="1.4418170">
        <ele>16.1</ele>
        <time>2020-02-22T14:54:52Z</time>
      </trkpt>
      <trkpt lat="38.7078180" lon="1.4420470">
        <ele>16.1</ele>
        <time>2020-02-22T14:54:53Z</time>
      </trkpt>
      <trkpt lat="38.7078180" lon="1.4420470">
        <ele>16.1</ele>
        <time>2020-02-22T14:54:54Z</time>
      </trkpt>
      <trkpt lat="38.7079500" lon="1.4422720">
        <ele>16.1</ele>
        <time>2020-02-22T14:54:55Z</time>
      </trkpt>
      <trkpt lat="38.7080120" lon="1.4423830">
        <ele>16.1</ele>
        <time>2020-02-22T14:54:56Z</time>
      </trkpt>
      <trkpt lat="38.7080720" lon="1.4424950">
        <ele>16.1</ele>
        <time>2020-02-22T14:54:57Z</time>
      </trkpt>
      <trkpt lat="38.7080720" lon="1.4424950">
        <ele>16.1</ele>
        <time>2020-02-22T14:54:58Z</time>
      </trkpt>
      <trkpt lat="38.7081850" lon="1.4427250">
        <ele>16.1</ele>
        <time>2020-02-22T14:54:59Z</time>
      </trkpt>
      <trkpt lat="38.7081850" lon="1.4427250">
        <ele>16.1</ele>
        <time>2020-02-22T14:55:00Z</time>
      </trkpt>
      <trkpt lat="38.7082850" lon="1.4429580">
        <ele>16.1</ele>
        <time>2020-02-22T14:55:01Z</time>
      </trkpt>
      <trkpt lat="38.7082850" lon="1.4429580">
        <ele>16.1</ele>
        <time>2020-02-22T14:55:02Z</time>
      </trkpt>
      <trkpt lat="38.7083570" lon="1.4431970">
        <ele>16.1</ele>
        <time>2020-02-22T14:55:03Z</time>
      </trkpt>
      <trkpt lat="38.7083570" lon="1.4431970">
        <ele>16.1</ele>
        <time>2020-02-22T14:55:04Z</time>
      </trkpt>
      <trkpt lat="38.7083880" lon="1.4434430">
        <ele>16.1</ele>
        <time>2020-02-22T14:55:05Z</time>
      </trkpt>
      <trkpt lat="38.7083950" lon="1.4435730">
        <ele>16.1</ele>
        <time>2020-02-22T14:55:06Z</time>
      </trkpt>
      <trkpt lat="38.7083970" lon="1.4437050">
        <ele>16.1</ele>
        <time>2020-02-22T14:55:07Z</time>
      </trkpt>
      <trkpt lat="38.7083970" lon="1.4437050">
        <ele>16.1</ele>
        <time>2020-02-22T14:55:08Z</time>
      </trkpt>
      <trkpt lat="38.7083930" lon="1.4439650">
        <ele>16.1</ele>
        <time>2020-02-22T14:55:09Z</time>
      </trkpt>
      <trkpt lat="38.7083930" lon="1.4439650">
        <ele>16.1</ele>
        <time>2020-02-22T14:55:10Z</time>
      </trkpt>
      <trkpt lat="38.7083800" lon="1.4442080">
        <ele>16.1</ele>
        <time>2020-02-22T14:55:11Z</time>
      </trkpt>
      <trkpt lat="38.7083800" lon="1.4442080">
        <ele>16.1</ele>
        <time>2020-02-22T14:55:12Z</time>
      </trkpt>
      <trkpt lat="38.7083600" lon="1.4444450">
        <ele>17.1</ele>
        <time>2020-02-22T14:55:13Z</time>
      </trkpt>
      <trkpt lat="38.7083600" lon="1.4444450">
        <ele>17.1</ele>
        <time>2020-02-22T14:55:14Z</time>
      </trkpt>
      <trkpt lat="38.7083450" lon="1.4446830">
        <ele>17.1</ele>
        <time>2020-02-22T14:55:15Z</time>
      </trkpt>
      <trkpt lat="38.7083450" lon="1.4446830">
        <ele>17.1</ele>
        <time>2020-02-22T14:55:16Z</time>
      </trkpt>
      <trkpt lat="38.7083300" lon="1.4449100">
        <ele>17.1</ele>
        <time>2020-02-22T14:55:17Z</time>
      </trkpt>
      <trkpt lat="38.7083300" lon="1.4449100">
        <ele>17.1</ele>
        <time>2020-02-22T14:55:18Z</time>
      </trkpt>
      <trkpt lat="38.7083130" lon="1.4451370">
        <ele>17.1</ele>
        <time>2020-02-22T14:55:19Z</time>
      </trkpt>
      <trkpt lat="38.7083050" lon="1.4452500">
        <ele>17.1</ele>
        <time>2020-02-22T14:55:20Z</time>
      </trkpt>
      <trkpt lat="38.7083050" lon="1.4452500">
        <ele>17.1</ele>
        <time>2020-02-22T14:55:21Z</time>
      </trkpt>
      <trkpt lat="38.7082880" lon="1.4454850">
        <ele>17.1</ele>
        <time>2020-02-22T14:55:22Z</time>
      </trkpt>
      <trkpt lat="38.7082880" lon="1.4454850">
        <ele>17.1</ele>
        <time>2020-02-22T14:55:23Z</time>
      </trkpt>
      <trkpt lat="38.7082700" lon="1.4457230">
        <ele>17.1</ele>
        <time>2020-02-22T14:55:24Z</time>
      </trkpt>
      <trkpt lat="38.7082600" lon="1.4458380">
        <ele>17.1</ele>
        <time>2020-02-22T14:55:25Z</time>
      </trkpt>
      <trkpt lat="38.7082600" lon="1.4458380">
        <ele>17.1</ele>
        <time>2020-02-22T14:55:26Z</time>
      </trkpt>
      <trkpt lat="38.7082400" lon="1.4460700">
        <ele>17.1</ele>
        <time>2020-02-22T14:55:27Z</time>
      </trkpt>
      <trkpt lat="38.7082400" lon="1.4460700">
        <ele>17.1</ele>
        <time>2020-02-22T14:55:28Z</time>
      </trkpt>
      <trkpt lat="38.7082270" lon="1.4463050">
        <ele>18.1</ele>
        <time>2020-02-22T14:55:29Z</time>
      </trkpt>
      <trkpt lat="38.7082270" lon="1.4463050">
        <ele>18.1</ele>
        <time>2020-02-22T14:55:30Z</time>
      </trkpt>
      <trkpt lat="38.7082130" lon="1.4465380">
        <ele>18.1</ele>
        <time>2020-02-22T14:55:31Z</time>
      </trkpt>
      <trkpt lat="38.7082130" lon="1.4465380">
        <ele>19.1</ele>
        <time>2020-02-22T14:55:32Z</time>
      </trkpt>
      <trkpt lat="38.7082020" lon="1.4467670">
        <ele>19.1</ele>
        <time>2020-02-22T14:55:33Z</time>
      </trkpt>
      <trkpt lat="38.7082020" lon="1.4467670">
        <ele>19.1</ele>
        <time>2020-02-22T14:55:34Z</time>
      </trkpt>
      <trkpt lat="38.7081850" lon="1.4469870">
        <ele>19.1</ele>
        <time>2020-02-22T14:55:35Z</time>
      </trkpt>
      <trkpt lat="38.7081850" lon="1.4469870">
        <ele>18.1</ele>
        <time>2020-02-22T14:55:36Z</time>
      </trkpt>
      <trkpt lat="38.7081750" lon="1.4472000">
        <ele>18.1</ele>
        <time>2020-02-22T14:55:37Z</time>
      </trkpt>
      <trkpt lat="38.7081750" lon="1.4472000">
        <ele>18.1</ele>
        <time>2020-02-22T14:55:38Z</time>
      </trkpt>
      <trkpt lat="38.7081580" lon="1.4474070">
        <ele>18.1</ele>
        <time>2020-02-22T14:55:39Z</time>
      </trkpt>
      <trkpt lat="38.7081580" lon="1.4474070">
        <ele>18.1</ele>
        <time>2020-02-22T14:55:40Z</time>
      </trkpt>
      <trkpt lat="38.7081400" lon="1.4476170">
        <ele>18.1</ele>
        <time>2020-02-22T14:55:41Z</time>
      </trkpt>
      <trkpt lat="38.7081400" lon="1.4476170">
        <ele>18.1</ele>
        <time>2020-02-22T14:55:42Z</time>
      </trkpt>
      <trkpt lat="38.7081230" lon="1.4478350">
        <ele>18.1</ele>
        <time>2020-02-22T14:55:43Z</time>
      </trkpt>
      <trkpt lat="38.7081230" lon="1.4478350">
        <ele>18.1</ele>
        <time>2020-02-22T14:55:44Z</time>
      </trkpt>
      <trkpt lat="38.7081080" lon="1.4480520">
        <ele>18.1</ele>
        <time>2020-02-22T14:55:45Z</time>
      </trkpt>
      <trkpt lat="38.7081080" lon="1.4480520">
        <ele>18.1</ele>
        <time>2020-02-22T14:55:46Z</time>
      </trkpt>
      <trkpt lat="38.7080920" lon="1.4482700">
        <ele>19.1</ele>
        <time>2020-02-22T14:55:47Z</time>
      </trkpt>
      <trkpt lat="38.7080830" lon="1.4483850">
        <ele>19.1</ele>
        <time>2020-02-22T14:55:48Z</time>
      </trkpt>
      <trkpt lat="38.7080720" lon="1.4485020">
        <ele>19.1</ele>
        <time>2020-02-22T14:55:49Z</time>
      </trkpt>
      <trkpt lat="38.7080720" lon="1.4485020">
        <ele>19.1</ele>
        <time>2020-02-22T14:55:50Z</time>
      </trkpt>
      <trkpt lat="38.7080530" lon="1.4487450">
        <ele>19.1</ele>
        <time>2020-02-22T14:55:51Z</time>
      </trkpt>
      <trkpt lat="38.7080530" lon="1.4487450">
        <ele>19.1</ele>
        <time>2020-02-22T14:55:52Z</time>
      </trkpt>
      <trkpt lat="38.7080380" lon="1.4489880">
        <ele>19.1</ele>
        <time>2020-02-22T14:55:53Z</time>
      </trkpt>
      <trkpt lat="38.7080380" lon="1.4489880">
        <ele>19.1</ele>
        <time>2020-02-22T14:55:54Z</time>
      </trkpt>
      <trkpt lat="38.7080150" lon="1.4492280">
        <ele>19.1</ele>
        <time>2020-02-22T14:55:55Z</time>
      </trkpt>
      <trkpt lat="38.7080020" lon="1.4493480">
        <ele>19.1</ele>
        <time>2020-02-22T14:55:56Z</time>
      </trkpt>
      <trkpt lat="38.7080020" lon="1.4493480">
        <ele>19.1</ele>
        <time>2020-02-22T14:55:57Z</time>
      </trkpt>
      <trkpt lat="38.7079800" lon="1.4495930">
        <ele>19.1</ele>
        <time>2020-02-22T14:55:58Z</time>
      </trkpt>
      <trkpt lat="38.7079800" lon="1.4495930">
        <ele>19.1</ele>
        <time>2020-02-22T14:55:59Z</time>
      </trkpt>
      <trkpt lat="38.7079570" lon="1.4498420">
        <ele>19.1</ele>
        <time>2020-02-22T14:56:00Z</time>
      </trkpt>
      <trkpt lat="38.7079450" lon="1.4499670">
        <ele>19.1</ele>
        <time>2020-02-22T14:56:01Z</time>
      </trkpt>
      <trkpt lat="38.7079350" lon="1.4500880">
        <ele>19.1</ele>
        <time>2020-02-22T14:56:02Z</time>
      </trkpt>
      <trkpt lat="38.7079350" lon="1.4500880">
        <ele>19.1</ele>
        <time>2020-02-22T14:56:03Z</time>
      </trkpt>
      <trkpt lat="38.7079180" lon="1.4503280">
        <ele>20.1</ele>
        <time>2020-02-22T14:56:04Z</time>
      </trkpt>
      <trkpt lat="38.7079180" lon="1.4503280">
        <ele>20.1</ele>
        <time>2020-02-22T14:56:05Z</time>
      </trkpt>
      <trkpt lat="38.7079030" lon="1.4505600">
        <ele>20.1</ele>
        <time>2020-02-22T14:56:06Z</time>
      </trkpt>
      <trkpt lat="38.7078950" lon="1.4506770">
        <ele>20.1</ele>
        <time>2020-02-22T14:56:07Z</time>
      </trkpt>
      <trkpt lat="38.7078950" lon="1.4506770">
        <ele>20.1</ele>
        <time>2020-02-22T14:56:08Z</time>
      </trkpt>
      <trkpt lat="38.7078780" lon="1.4509030">
        <ele>21.1</ele>
        <time>2020-02-22T14:56:09Z</time>
      </trkpt>
      <trkpt lat="38.7078780" lon="1.4509030">
        <ele>21.1</ele>
        <time>2020-02-22T14:56:10Z</time>
      </trkpt>
      <trkpt lat="38.7078600" lon="1.4511270">
        <ele>21.1</ele>
        <time>2020-02-22T14:56:11Z</time>
      </trkpt>
      <trkpt lat="38.7078600" lon="1.4511270">
        <ele>21.1</ele>
        <time>2020-02-22T14:56:12Z</time>
      </trkpt>
      <trkpt lat="38.7078400" lon="1.4513500">
        <ele>21.1</ele>
        <time>2020-02-22T14:56:13Z</time>
      </trkpt>
      <trkpt lat="38.7078300" lon="1.4514620">
        <ele>21.1</ele>
        <time>2020-02-22T14:56:14Z</time>
      </trkpt>
      <trkpt lat="38.7078300" lon="1.4514620">
        <ele>21.1</ele>
        <time>2020-02-22T14:56:15Z</time>
      </trkpt>
      <trkpt lat="38.7078130" lon="1.4516920">
        <ele>21.1</ele>
        <time>2020-02-22T14:56:16Z</time>
      </trkpt>
      <trkpt lat="38.7078130" lon="1.4516920">
        <ele>21.1</ele>
        <time>2020-02-22T14:56:17Z</time>
      </trkpt>
      <trkpt lat="38.7077950" lon="1.4519250">
        <ele>21.1</ele>
        <time>2020-02-22T14:56:18Z</time>
      </trkpt>
      <trkpt lat="38.7077870" lon="1.4520430">
        <ele>21.1</ele>
        <time>2020-02-22T14:56:19Z</time>
      </trkpt>
      <trkpt lat="38.7077870" lon="1.4520430">
        <ele>21.1</ele>
        <time>2020-02-22T14:56:20Z</time>
      </trkpt>
      <trkpt lat="38.7077680" lon="1.4522870">
        <ele>21.1</ele>
        <time>2020-02-22T14:56:21Z</time>
      </trkpt>
      <trkpt lat="38.7077680" lon="1.4522870">
        <ele>21.1</ele>
        <time>2020-02-22T14:56:22Z</time>
      </trkpt>
      <trkpt lat="38.7077500" lon="1.4525350">
        <ele>21.1</ele>
        <time>2020-02-22T14:56:23Z</time>
      </trkpt>
      <trkpt lat="38.7077500" lon="1.4525350">
        <ele>21.1</ele>
        <time>2020-02-22T14:56:24Z</time>
      </trkpt>
      <trkpt lat="38.7077300" lon="1.4527900">
        <ele>21.1</ele>
        <time>2020-02-22T14:56:25Z</time>
      </trkpt>
      <trkpt lat="38.7077300" lon="1.4527900">
        <ele>21.1</ele>
        <time>2020-02-22T14:56:26Z</time>
      </trkpt>
      <trkpt lat="38.7077030" lon="1.4530530">
        <ele>21.1</ele>
        <time>2020-02-22T14:56:27Z</time>
      </trkpt>
      <trkpt lat="38.7077030" lon="1.4530530">
        <ele>21.1</ele>
        <time>2020-02-22T14:56:28Z</time>
      </trkpt>
      <trkpt lat="38.7076780" lon="1.4533200">
        <ele>21.1</ele>
        <time>2020-02-22T14:56:29Z</time>
      </trkpt>
      <trkpt lat="38.7076680" lon="1.4534520">
        <ele>21.1</ele>
        <time>2020-02-22T14:56:30Z</time>
      </trkpt>
      <trkpt lat="38.7076600" lon="1.4535830">
        <ele>21.1</ele>
        <time>2020-02-22T14:56:31Z</time>
      </trkpt>
      <trkpt lat="38.7076500" lon="1.4537120">
        <ele>21.1</ele>
        <time>2020-02-22T14:56:32Z</time>
      </trkpt>
      <trkpt lat="38.7076500" lon="1.4537120">
        <ele>21.1</ele>
        <time>2020-02-22T14:56:33Z</time>
      </trkpt>
      <trkpt lat="38.7076280" lon="1.4539470">
        <ele>21.1</ele>
        <time>2020-02-22T14:56:34Z</time>
      </trkpt>
      <trkpt lat="38.7076280" lon="1.4539470">
        <ele>21.1</ele>
        <time>2020-02-22T14:56:35Z</time>
      </trkpt>
      <trkpt lat="38.7075830" lon="1.4541520">
        <ele>21.1</ele>
        <time>2020-02-22T14:56:36Z</time>
      </trkpt>
      <trkpt lat="38.7075470" lon="1.4542370">
        <ele>21.1</ele>
        <time>2020-02-22T14:56:37Z</time>
      </trkpt>
      <trkpt lat="38.7075470" lon="1.4542370">
        <ele>21.1</ele>
        <time>2020-02-22T14:56:38Z</time>
      </trkpt>
      <trkpt lat="38.7074520" lon="1.4543880">
        <ele>21.1</ele>
        <time>2020-02-22T14:56:39Z</time>
      </trkpt>
      <trkpt lat="38.7074520" lon="1.4543880">
        <ele>22.1</ele>
        <time>2020-02-22T14:56:40Z</time>
      </trkpt>
      <trkpt lat="38.7074220" lon="1.4545720">
        <ele>22.1</ele>
        <time>2020-02-22T14:56:41Z</time>
      </trkpt>
      <trkpt lat="38.7074120" lon="1.4546650">
        <ele>22.1</ele>
        <time>2020-02-22T14:56:42Z</time>
      </trkpt>
      <trkpt lat="38.7073870" lon="1.4547530">
        <ele>22.1</ele>
        <time>2020-02-22T14:56:43Z</time>
      </trkpt>
      <trkpt lat="38.7073870" lon="1.4547530">
        <ele>22.1</ele>
        <time>2020-02-22T14:56:44Z</time>
      </trkpt>
      <trkpt lat="38.7073150" lon="1.4549320">
        <ele>22.1</ele>
        <time>2020-02-22T14:56:45Z</time>
      </trkpt>
      <trkpt lat="38.7073150" lon="1.4549320">
        <ele>22.1</ele>
        <time>2020-02-22T14:56:46Z</time>
      </trkpt>
      <trkpt lat="38.7072330" lon="1.4551280">
        <ele>22.1</ele>
        <time>2020-02-22T14:56:47Z</time>
      </trkpt>
      <trkpt lat="38.7072330" lon="1.4551280">
        <ele>22.1</ele>
        <time>2020-02-22T14:56:48Z</time>
      </trkpt>
      <trkpt lat="38.7071420" lon="1.4553450">
        <ele>22.1</ele>
        <time>2020-02-22T14:56:49Z</time>
      </trkpt>
      <trkpt lat="38.7070920" lon="1.4554550">
        <ele>23.1</ele>
        <time>2020-02-22T14:56:50Z</time>
      </trkpt>
      <trkpt lat="38.7070920" lon="1.4554550">
        <ele>23.1</ele>
        <time>2020-02-22T14:56:51Z</time>
      </trkpt>
      <trkpt lat="38.7069920" lon="1.4556750">
        <ele>23.1</ele>
        <time>2020-02-22T14:56:52Z</time>
      </trkpt>
      <trkpt lat="38.7069920" lon="1.4556750">
        <ele>23.1</ele>
        <time>2020-02-22T14:56:53Z</time>
      </trkpt>
      <trkpt lat="38.7068930" lon="1.4559000">
        <ele>23.1</ele>
        <time>2020-02-22T14:56:54Z</time>
      </trkpt>
      <trkpt lat="38.7068450" lon="1.4560130">
        <ele>23.1</ele>
        <time>2020-02-22T14:56:55Z</time>
      </trkpt>
      <trkpt lat="38.7068450" lon="1.4560130">
        <ele>23.1</ele>
        <time>2020-02-22T14:56:56Z</time>
      </trkpt>
      <trkpt lat="38.7067480" lon="1.4562370">
        <ele>23.1</ele>
        <time>2020-02-22T14:56:57Z</time>
      </trkpt>
      <trkpt lat="38.7067480" lon="1.4562370">
        <ele>23.1</ele>
        <time>2020-02-22T14:56:58Z</time>
      </trkpt>
      <trkpt lat="38.7066550" lon="1.4564630">
        <ele>23.1</ele>
        <time>2020-02-22T14:56:59Z</time>
      </trkpt>
      <trkpt lat="38.7066550" lon="1.4564630">
        <ele>23.1</ele>
        <time>2020-02-22T14:57:00Z</time>
      </trkpt>
      <trkpt lat="38.7065620" lon="1.4566850">
        <ele>23.1</ele>
        <time>2020-02-22T14:57:01Z</time>
      </trkpt>
      <trkpt lat="38.7065620" lon="1.4566850">
        <ele>23.1</ele>
        <time>2020-02-22T14:57:02Z</time>
      </trkpt>
      <trkpt lat="38.7064700" lon="1.4568970">
        <ele>24.1</ele>
        <time>2020-02-22T14:57:03Z</time>
      </trkpt>
      <trkpt lat="38.7064700" lon="1.4568970">
        <ele>24.1</ele>
        <time>2020-02-22T14:57:04Z</time>
      </trkpt>
      <trkpt lat="38.7063750" lon="1.4570920">
        <ele>24.1</ele>
        <time>2020-02-22T14:57:05Z</time>
      </trkpt>
      <trkpt lat="38.7063750" lon="1.4570920">
        <ele>24.1</ele>
        <time>2020-02-22T14:57:06Z</time>
      </trkpt>
      <trkpt lat="38.7062880" lon="1.4572780">
        <ele>24.1</ele>
        <time>2020-02-22T14:57:07Z</time>
      </trkpt>
      <trkpt lat="38.7062450" lon="1.4573720">
        <ele>24.1</ele>
        <time>2020-02-22T14:57:08Z</time>
      </trkpt>
      <trkpt lat="38.7062450" lon="1.4573720">
        <ele>24.1</ele>
        <time>2020-02-22T14:57:09Z</time>
      </trkpt>
      <trkpt lat="38.7061580" lon="1.4575670">
        <ele>24.1</ele>
        <time>2020-02-22T14:57:10Z</time>
      </trkpt>
      <trkpt lat="38.7061580" lon="1.4575670">
        <ele>24.1</ele>
        <time>2020-02-22T14:57:11Z</time>
      </trkpt>
      <trkpt lat="38.7060670" lon="1.4577670">
        <ele>24.1</ele>
        <time>2020-02-22T14:57:12Z</time>
      </trkpt>
      <trkpt lat="38.7060200" lon="1.4578630">
        <ele>24.1</ele>
        <time>2020-02-22T14:57:13Z</time>
      </trkpt>
      <trkpt lat="38.7060200" lon="1.4578630">
        <ele>24.1</ele>
        <time>2020-02-22T14:57:14Z</time>
      </trkpt>
      <trkpt lat="38.7059250" lon="1.4580700">
        <ele>24.1</ele>
        <time>2020-02-22T14:57:15Z</time>
      </trkpt>
      <trkpt lat="38.7059250" lon="1.4580700">
        <ele>24.1</ele>
        <time>2020-02-22T14:57:16Z</time>
      </trkpt>
      <trkpt lat="38.7058200" lon="1.4582770">
        <ele>24.1</ele>
        <time>2020-02-22T14:57:17Z</time>
      </trkpt>
      <trkpt lat="38.7058200" lon="1.4582770">
        <ele>24.1</ele>
        <time>2020-02-22T14:57:18Z</time>
      </trkpt>
      <trkpt lat="38.7057020" lon="1.4584700">
        <ele>24.1</ele>
        <time>2020-02-22T14:57:19Z</time>
      </trkpt>
      <trkpt lat="38.7057020" lon="1.4584700">
        <ele>24.1</ele>
        <time>2020-02-22T14:57:20Z</time>
      </trkpt>
      <trkpt lat="38.7055750" lon="1.4586530">
        <ele>24.1</ele>
        <time>2020-02-22T14:57:21Z</time>
      </trkpt>
      <trkpt lat="38.7055100" lon="1.4587480">
        <ele>24.1</ele>
        <time>2020-02-22T14:57:22Z</time>
      </trkpt>
      <trkpt lat="38.7055100" lon="1.4587480">
        <ele>24.1</ele>
        <time>2020-02-22T14:57:23Z</time>
      </trkpt>
      <trkpt lat="38.7053680" lon="1.4589320">
        <ele>24.1</ele>
        <time>2020-02-22T14:57:24Z</time>
      </trkpt>
      <trkpt lat="38.7052930" lon="1.4590220">
        <ele>24.1</ele>
        <time>2020-02-22T14:57:25Z</time>
      </trkpt>
      <trkpt lat="38.7052930" lon="1.4590220">
        <ele>24.1</ele>
        <time>2020-02-22T14:57:26Z</time>
      </trkpt>
      <trkpt lat="38.7051400" lon="1.4592000">
        <ele>24.1</ele>
        <time>2020-02-22T14:57:27Z</time>
      </trkpt>
      <trkpt lat="38.7051400" lon="1.4592000">
        <ele>24.1</ele>
        <time>2020-02-22T14:57:28Z</time>
      </trkpt>
      <trkpt lat="38.7049880" lon="1.4593820">
        <ele>24.1</ele>
        <time>2020-02-22T14:57:29Z</time>
      </trkpt>
      <trkpt lat="38.7049880" lon="1.4593820">
        <ele>24.1</ele>
        <time>2020-02-22T14:57:30Z</time>
      </trkpt>
      <trkpt lat="38.7048380" lon="1.4595670">
        <ele>24.1</ele>
        <time>2020-02-22T14:57:31Z</time>
      </trkpt>
      <trkpt lat="38.7048380" lon="1.4595670">
        <ele>24.1</ele>
        <time>2020-02-22T14:57:32Z</time>
      </trkpt>
      <trkpt lat="38.7046900" lon="1.4597470">
        <ele>23.1</ele>
        <time>2020-02-22T14:57:33Z</time>
      </trkpt>
      <trkpt lat="38.7046180" lon="1.4598370">
        <ele>23.1</ele>
        <time>2020-02-22T14:57:34Z</time>
      </trkpt>
      <trkpt lat="38.7046180" lon="1.4598370">
        <ele>24.1</ele>
        <time>2020-02-22T14:57:35Z</time>
      </trkpt>
      <trkpt lat="38.7044780" lon="1.4600070">
        <ele>24.1</ele>
        <time>2020-02-22T14:57:36Z</time>
      </trkpt>
      <trkpt lat="38.7044100" lon="1.4600900">
        <ele>24.1</ele>
        <time>2020-02-22T14:57:37Z</time>
      </trkpt>
      <trkpt lat="38.7044100" lon="1.4600900">
        <ele>24.1</ele>
        <time>2020-02-22T14:57:38Z</time>
      </trkpt>
      <trkpt lat="38.7042780" lon="1.4602570">
        <ele>25.1</ele>
        <time>2020-02-22T14:57:39Z</time>
      </trkpt>
      <trkpt lat="38.7042780" lon="1.4602570">
        <ele>25.1</ele>
        <time>2020-02-22T14:57:40Z</time>
      </trkpt>
      <trkpt lat="38.7041430" lon="1.4604170">
        <ele>25.1</ele>
        <time>2020-02-22T14:57:41Z</time>
      </trkpt>
      <trkpt lat="38.7041430" lon="1.4604170">
        <ele>25.1</ele>
        <time>2020-02-22T14:57:42Z</time>
      </trkpt>
      <trkpt lat="38.7040100" lon="1.4605780">
        <ele>25.1</ele>
        <time>2020-02-22T14:57:43Z</time>
      </trkpt>
      <trkpt lat="38.7040100" lon="1.4605780">
        <ele>25.1</ele>
        <time>2020-02-22T14:57:44Z</time>
      </trkpt>
      <trkpt lat="38.7038800" lon="1.4607320">
        <ele>25.1</ele>
        <time>2020-02-22T14:57:45Z</time>
      </trkpt>
      <trkpt lat="38.7038800" lon="1.4607320">
        <ele>25.1</ele>
        <time>2020-02-22T14:57:46Z</time>
      </trkpt>
      <trkpt lat="38.7037500" lon="1.4608850">
        <ele>25.1</ele>
        <time>2020-02-22T14:57:47Z</time>
      </trkpt>
      <trkpt lat="38.7037500" lon="1.4608850">
        <ele>25.1</ele>
        <time>2020-02-22T14:57:48Z</time>
      </trkpt>
      <trkpt lat="38.7036180" lon="1.4610370">
        <ele>25.1</ele>
        <time>2020-02-22T14:57:49Z</time>
      </trkpt>
      <trkpt lat="38.7036180" lon="1.4610370">
        <ele>25.1</ele>
        <time>2020-02-22T14:57:50Z</time>
      </trkpt>
      <trkpt lat="38.7034880" lon="1.4611970">
        <ele>25.1</ele>
        <time>2020-02-22T14:57:51Z</time>
      </trkpt>
      <trkpt lat="38.7034880" lon="1.4611970">
        <ele>25.1</ele>
        <time>2020-02-22T14:57:52Z</time>
      </trkpt>
      <trkpt lat="38.7033650" lon="1.4613600">
        <ele>25.1</ele>
        <time>2020-02-22T14:57:53Z</time>
      </trkpt>
      <trkpt lat="38.7033650" lon="1.4613600">
        <ele>25.1</ele>
        <time>2020-02-22T14:57:54Z</time>
      </trkpt>
      <trkpt lat="38.7032450" lon="1.4615170">
        <ele>25.1</ele>
        <time>2020-02-22T14:57:55Z</time>
      </trkpt>
      <trkpt lat="38.7032450" lon="1.4615170">
        <ele>25.1</ele>
        <time>2020-02-22T14:57:56Z</time>
      </trkpt>
      <trkpt lat="38.7031250" lon="1.4616670">
        <ele>25.1</ele>
        <time>2020-02-22T14:57:57Z</time>
      </trkpt>
      <trkpt lat="38.7031250" lon="1.4616670">
        <ele>25.1</ele>
        <time>2020-02-22T14:57:58Z</time>
      </trkpt>
      <trkpt lat="38.7030050" lon="1.4618150">
        <ele>25.1</ele>
        <time>2020-02-22T14:57:59Z</time>
      </trkpt>
      <trkpt lat="38.7030050" lon="1.4618150">
        <ele>25.1</ele>
        <time>2020-02-22T14:58:00Z</time>
      </trkpt>
      <trkpt lat="38.7028850" lon="1.4619650">
        <ele>25.1</ele>
        <time>2020-02-22T14:58:01Z</time>
      </trkpt>
      <trkpt lat="38.7028850" lon="1.4619650">
        <ele>25.1</ele>
        <time>2020-02-22T14:58:02Z</time>
      </trkpt>
      <trkpt lat="38.7027700" lon="1.4621050">
        <ele>25.1</ele>
        <time>2020-02-22T14:58:03Z</time>
      </trkpt>
      <trkpt lat="38.7027700" lon="1.4621050">
        <ele>25.1</ele>
        <time>2020-02-22T14:58:04Z</time>
      </trkpt>
      <trkpt lat="38.7026550" lon="1.4622430">
        <ele>25.1</ele>
        <time>2020-02-22T14:58:05Z</time>
      </trkpt>
      <trkpt lat="38.7025980" lon="1.4623120">
        <ele>25.1</ele>
        <time>2020-02-22T14:58:06Z</time>
      </trkpt>
      <trkpt lat="38.7025420" lon="1.4623830">
        <ele>25.1</ele>
        <time>2020-02-22T14:58:07Z</time>
      </trkpt>
      <trkpt lat="38.7025420" lon="1.4623830">
        <ele>25.1</ele>
        <time>2020-02-22T14:58:08Z</time>
      </trkpt>
      <trkpt lat="38.7024320" lon="1.4625250">
        <ele>25.1</ele>
        <time>2020-02-22T14:58:09Z</time>
      </trkpt>
      <trkpt lat="38.7024320" lon="1.4625250">
        <ele>25.1</ele>
        <time>2020-02-22T14:58:10Z</time>
      </trkpt>
      <trkpt lat="38.7023220" lon="1.4626620">
        <ele>25.1</ele>
        <time>2020-02-22T14:58:11Z</time>
      </trkpt>
      <trkpt lat="38.7023220" lon="1.4626620">
        <ele>25.1</ele>
        <time>2020-02-22T14:58:12Z</time>
      </trkpt>
      <trkpt lat="38.7022070" lon="1.4627950">
        <ele>25.1</ele>
        <time>2020-02-22T14:58:13Z</time>
      </trkpt>
      <trkpt lat="38.7022070" lon="1.4627950">
        <ele>25.1</ele>
        <time>2020-02-22T14:58:14Z</time>
      </trkpt>
      <trkpt lat="38.7020880" lon="1.4629320">
        <ele>25.1</ele>
        <time>2020-02-22T14:58:15Z</time>
      </trkpt>
      <trkpt lat="38.7020880" lon="1.4629320">
        <ele>26.1</ele>
        <time>2020-02-22T14:58:16Z</time>
      </trkpt>
      <trkpt lat="38.7019650" lon="1.4630720">
        <ele>26.1</ele>
        <time>2020-02-22T14:58:17Z</time>
      </trkpt>
      <trkpt lat="38.7019650" lon="1.4630720">
        <ele>26.1</ele>
        <time>2020-02-22T14:58:18Z</time>
      </trkpt>
      <trkpt lat="38.7018330" lon="1.4632120">
        <ele>26.1</ele>
        <time>2020-02-22T14:58:19Z</time>
      </trkpt>
      <trkpt lat="38.7018330" lon="1.4632120">
        <ele>26.1</ele>
        <time>2020-02-22T14:58:20Z</time>
      </trkpt>
      <trkpt lat="38.7017020" lon="1.4633670">
        <ele>26.1</ele>
        <time>2020-02-22T14:58:21Z</time>
      </trkpt>
      <trkpt lat="38.7017020" lon="1.4633670">
        <ele>26.1</ele>
        <time>2020-02-22T14:58:22Z</time>
      </trkpt>
      <trkpt lat="38.7015680" lon="1.4635330">
        <ele>26.1</ele>
        <time>2020-02-22T14:58:23Z</time>
      </trkpt>
      <trkpt lat="38.7015680" lon="1.4635330">
        <ele>26.1</ele>
        <time>2020-02-22T14:58:24Z</time>
      </trkpt>
      <trkpt lat="38.7014380" lon="1.4637030">
        <ele>26.1</ele>
        <time>2020-02-22T14:58:25Z</time>
      </trkpt>
      <trkpt lat="38.7014380" lon="1.4637030">
        <ele>27.1</ele>
        <time>2020-02-22T14:58:26Z</time>
      </trkpt>
      <trkpt lat="38.7013070" lon="1.4638770">
        <ele>27.1</ele>
        <time>2020-02-22T14:58:27Z</time>
      </trkpt>
      <trkpt lat="38.7012400" lon="1.4639650">
        <ele>27.1</ele>
        <time>2020-02-22T14:58:28Z</time>
      </trkpt>
      <trkpt lat="38.7012400" lon="1.4639650">
        <ele>27.1</ele>
        <time>2020-02-22T14:58:29Z</time>
      </trkpt>
      <trkpt lat="38.7011030" lon="1.4641420">
        <ele>27.1</ele>
        <time>2020-02-22T14:58:30Z</time>
      </trkpt>
      <trkpt lat="38.7010320" lon="1.4642230">
        <ele>27.1</ele>
        <time>2020-02-22T14:58:31Z</time>
      </trkpt>
      <trkpt lat="38.7010320" lon="1.4642230">
        <ele>27.1</ele>
        <time>2020-02-22T14:58:32Z</time>
      </trkpt>
      <trkpt lat="38.7008930" lon="1.4643850">
        <ele>27.1</ele>
        <time>2020-02-22T14:58:33Z</time>
      </trkpt>
      <trkpt lat="38.7008930" lon="1.4643850">
        <ele>27.1</ele>
        <time>2020-02-22T14:58:34Z</time>
      </trkpt>
      <trkpt lat="38.7007500" lon="1.4645350">
        <ele>27.1</ele>
        <time>2020-02-22T14:58:35Z</time>
      </trkpt>
      <trkpt lat="38.7007500" lon="1.4645350">
        <ele>27.1</ele>
        <time>2020-02-22T14:58:36Z</time>
      </trkpt>
      <trkpt lat="38.7006080" lon="1.4646820">
        <ele>28.1</ele>
        <time>2020-02-22T14:58:37Z</time>
      </trkpt>
      <trkpt lat="38.7005400" lon="1.4647580">
        <ele>28.1</ele>
        <time>2020-02-22T14:58:38Z</time>
      </trkpt>
      <trkpt lat="38.7005400" lon="1.4647580">
        <ele>28.1</ele>
        <time>2020-02-22T14:58:39Z</time>
      </trkpt>
      <trkpt lat="38.7004070" lon="1.4649120">
        <ele>29.1</ele>
        <time>2020-02-22T14:58:40Z</time>
      </trkpt>
      <trkpt lat="38.7004070" lon="1.4649120">
        <ele>29.1</ele>
        <time>2020-02-22T14:58:41Z</time>
      </trkpt>
      <trkpt lat="38.7002770" lon="1.4650650">
        <ele>29.1</ele>
        <time>2020-02-22T14:58:42Z</time>
      </trkpt>
      <trkpt lat="38.7002130" lon="1.4651420">
        <ele>29.1</ele>
        <time>2020-02-22T14:58:43Z</time>
      </trkpt>
      <trkpt lat="38.7002130" lon="1.4651420">
        <ele>30.1</ele>
        <time>2020-02-22T14:58:44Z</time>
      </trkpt>
      <trkpt lat="38.7000930" lon="1.4652980">
        <ele>30.1</ele>
        <time>2020-02-22T14:58:45Z</time>
      </trkpt>
      <trkpt lat="38.7000930" lon="1.4652980">
        <ele>30.1</ele>
        <time>2020-02-22T14:58:46Z</time>
      </trkpt>
      <trkpt lat="38.6999780" lon="1.4654470">
        <ele>30.1</ele>
        <time>2020-02-22T14:58:47Z</time>
      </trkpt>
      <trkpt lat="38.6999200" lon="1.4655200">
        <ele>30.1</ele>
        <time>2020-02-22T14:58:48Z</time>
      </trkpt>
      <trkpt lat="38.6998620" lon="1.4655920">
        <ele>30.1</ele>
        <time>2020-02-22T14:58:49Z</time>
      </trkpt>
      <trkpt lat="38.6998620" lon="1.4655920">
        <ele>30.1</ele>
        <time>2020-02-22T14:58:50Z</time>
      </trkpt>
      <trkpt lat="38.6997500" lon="1.4657330">
        <ele>30.1</ele>
        <time>2020-02-22T14:58:51Z</time>
      </trkpt>
      <trkpt lat="38.6997500" lon="1.4657330">
        <ele>31.1</ele>
        <time>2020-02-22T14:58:52Z</time>
      </trkpt>
      <trkpt lat="38.6996450" lon="1.4658820">
        <ele>31.1</ele>
        <time>2020-02-22T14:58:53Z</time>
      </trkpt>
      <trkpt lat="38.6996450" lon="1.4658820">
        <ele>32.1</ele>
        <time>2020-02-22T14:58:54Z</time>
      </trkpt>
      <trkpt lat="38.6995520" lon="1.4660380">
        <ele>32.1</ele>
        <time>2020-02-22T14:58:55Z</time>
      </trkpt>
      <trkpt lat="38.6995520" lon="1.4660380">
        <ele>32.1</ele>
        <time>2020-02-22T14:58:56Z</time>
      </trkpt>
      <trkpt lat="38.6994680" lon="1.4662000">
        <ele>32.1</ele>
        <time>2020-02-22T14:58:57Z</time>
      </trkpt>
      <trkpt lat="38.6994680" lon="1.4662000">
        <ele>32.1</ele>
        <time>2020-02-22T14:58:58Z</time>
      </trkpt>
      <trkpt lat="38.6993830" lon="1.4663650">
        <ele>32.1</ele>
        <time>2020-02-22T14:58:59Z</time>
      </trkpt>
      <trkpt lat="38.6993830" lon="1.4663650">
        <ele>32.1</ele>
        <time>2020-02-22T14:59:00Z</time>
      </trkpt>
      <trkpt lat="38.6993080" lon="1.4665470">
        <ele>32.1</ele>
        <time>2020-02-22T14:59:01Z</time>
      </trkpt>
      <trkpt lat="38.6993080" lon="1.4665470">
        <ele>32.1</ele>
        <time>2020-02-22T14:59:02Z</time>
      </trkpt>
      <trkpt lat="38.6992280" lon="1.4667330">
        <ele>32.1</ele>
        <time>2020-02-22T14:59:03Z</time>
      </trkpt>
      <trkpt lat="38.6992280" lon="1.4667330">
        <ele>32.1</ele>
        <time>2020-02-22T14:59:04Z</time>
      </trkpt>
      <trkpt lat="38.6991450" lon="1.4669280">
        <ele>32.1</ele>
        <time>2020-02-22T14:59:05Z</time>
      </trkpt>
      <trkpt lat="38.6991450" lon="1.4669280">
        <ele>32.1</ele>
        <time>2020-02-22T14:59:06Z</time>
      </trkpt>
      <trkpt lat="38.6990620" lon="1.4671250">
        <ele>31.1</ele>
        <time>2020-02-22T14:59:07Z</time>
      </trkpt>
      <trkpt lat="38.6990620" lon="1.4671250">
        <ele>31.1</ele>
        <time>2020-02-22T14:59:08Z</time>
      </trkpt>
      <trkpt lat="38.6989720" lon="1.4673270">
        <ele>31.1</ele>
        <time>2020-02-22T14:59:09Z</time>
      </trkpt>
      <trkpt lat="38.6989720" lon="1.4673270">
        <ele>31.1</ele>
        <time>2020-02-22T14:59:10Z</time>
      </trkpt>
      <trkpt lat="38.6988770" lon="1.4675380">
        <ele>31.1</ele>
        <time>2020-02-22T14:59:11Z</time>
      </trkpt>
      <trkpt lat="38.6988770" lon="1.4675380">
        <ele>31.1</ele>
        <time>2020-02-22T14:59:12Z</time>
      </trkpt>
      <trkpt lat="38.6987820" lon="1.4677580">
        <ele>30.1</ele>
        <time>2020-02-22T14:59:13Z</time>
      </trkpt>
      <trkpt lat="38.6987820" lon="1.4677580">
        <ele>30.1</ele>
        <time>2020-02-22T14:59:14Z</time>
      </trkpt>
      <trkpt lat="38.6986870" lon="1.4679780">
        <ele>30.1</ele>
        <time>2020-02-22T14:59:15Z</time>
      </trkpt>
      <trkpt lat="38.6986870" lon="1.4679780">
        <ele>30.1</ele>
        <time>2020-02-22T14:59:16Z</time>
      </trkpt>
      <trkpt lat="38.6985820" lon="1.4682030">
        <ele>30.1</ele>
        <time>2020-02-22T14:59:17Z</time>
      </trkpt>
      <trkpt lat="38.6985270" lon="1.4683220">
        <ele>28.1</ele>
        <time>2020-02-22T14:59:18Z</time>
      </trkpt>
      <trkpt lat="38.6985270" lon="1.4683220">
        <ele>28.1</ele>
        <time>2020-02-22T14:59:19Z</time>
      </trkpt>
      <trkpt lat="38.6984150" lon="1.4685650">
        <ele>28.1</ele>
        <time>2020-02-22T14:59:20Z</time>
      </trkpt>
      <trkpt lat="38.6983580" lon="1.4686900">
        <ele>28.1</ele>
        <time>2020-02-22T14:59:21Z</time>
      </trkpt>
      <trkpt lat="38.6983580" lon="1.4686900">
        <ele>28.1</ele>
        <time>2020-02-22T14:59:22Z</time>
      </trkpt>
      <trkpt lat="38.6982430" lon="1.4689480">
        <ele>28.1</ele>
        <time>2020-02-22T14:59:23Z</time>
      </trkpt>
      <trkpt lat="38.6981870" lon="1.4690780">
        <ele>27.1</ele>
        <time>2020-02-22T14:59:24Z</time>
      </trkpt>
      <trkpt lat="38.6981330" lon="1.4692120">
        <ele>27.1</ele>
        <time>2020-02-22T14:59:25Z</time>
      </trkpt>
      <trkpt lat="38.6980780" lon="1.4693470">
        <ele>27.1</ele>
        <time>2020-02-22T14:59:26Z</time>
      </trkpt>
      <trkpt lat="38.6980780" lon="1.4693470">
        <ele>27.1</ele>
        <time>2020-02-22T14:59:27Z</time>
      </trkpt>
      <trkpt lat="38.6979730" lon="1.4696180">
        <ele>26.1</ele>
        <time>2020-02-22T14:59:28Z</time>
      </trkpt>
      <trkpt lat="38.6979730" lon="1.4696180">
        <ele>26.1</ele>
        <time>2020-02-22T14:59:29Z</time>
      </trkpt>
      <trkpt lat="38.6978650" lon="1.4698900">
        <ele>26.1</ele>
        <time>2020-02-22T14:59:30Z</time>
      </trkpt>
      <trkpt lat="38.6978080" lon="1.4700250">
        <ele>26.1</ele>
        <time>2020-02-22T14:59:31Z</time>
      </trkpt>
      <trkpt lat="38.6978080" lon="1.4700250">
        <ele>25.1</ele>
        <time>2020-02-22T14:59:32Z</time>
      </trkpt>
      <trkpt lat="38.6976950" lon="1.4702920">
        <ele>25.1</ele>
        <time>2020-02-22T14:59:33Z</time>
      </trkpt>
      <trkpt lat="38.6976950" lon="1.4702920">
        <ele>25.1</ele>
        <time>2020-02-22T14:59:34Z</time>
      </trkpt>
      <trkpt lat="38.6975830" lon="1.4705570">
        <ele>25.1</ele>
        <time>2020-02-22T14:59:35Z</time>
      </trkpt>
      <trkpt lat="38.6975830" lon="1.4705570">
        <ele>23.1</ele>
        <time>2020-02-22T14:59:36Z</time>
      </trkpt>
      <trkpt lat="38.6974680" lon="1.4708130">
        <ele>23.1</ele>
        <time>2020-02-22T14:59:37Z</time>
      </trkpt>
      <trkpt lat="38.6974680" lon="1.4708130">
        <ele>23.1</ele>
        <time>2020-02-22T14:59:38Z</time>
      </trkpt>
      <trkpt lat="38.6973550" lon="1.4710650">
        <ele>23.1</ele>
        <time>2020-02-22T14:59:39Z</time>
      </trkpt>
      <trkpt lat="38.6973550" lon="1.4710650">
        <ele>22.1</ele>
        <time>2020-02-22T14:59:40Z</time>
      </trkpt>
      <trkpt lat="38.6972400" lon="1.4713180">
        <ele>22.1</ele>
        <time>2020-02-22T14:59:41Z</time>
      </trkpt>
      <trkpt lat="38.6972400" lon="1.4713180">
        <ele>22.1</ele>
        <time>2020-02-22T14:59:42Z</time>
      </trkpt>
      <trkpt lat="38.6971280" lon="1.4715770">
        <ele>22.1</ele>
        <time>2020-02-22T14:59:43Z</time>
      </trkpt>
      <trkpt lat="38.6971280" lon="1.4715770">
        <ele>21.1</ele>
        <time>2020-02-22T14:59:44Z</time>
      </trkpt>
      <trkpt lat="38.6970130" lon="1.4718370">
        <ele>21.1</ele>
        <time>2020-02-22T14:59:45Z</time>
      </trkpt>
      <trkpt lat="38.6970130" lon="1.4718370">
        <ele>21.1</ele>
        <time>2020-02-22T14:59:46Z</time>
      </trkpt>
      <trkpt lat="38.6969000" lon="1.4721000">
        <ele>21.1</ele>
        <time>2020-02-22T14:59:47Z</time>
      </trkpt>
      <trkpt lat="38.6969000" lon="1.4721000">
        <ele>21.1</ele>
        <time>2020-02-22T14:59:48Z</time>
      </trkpt>
      <trkpt lat="38.6967870" lon="1.4723530">
        <ele>21.1</ele>
        <time>2020-02-22T14:59:49Z</time>
      </trkpt>
      <trkpt lat="38.6967280" lon="1.4724800">
        <ele>21.1</ele>
        <time>2020-02-22T14:59:50Z</time>
      </trkpt>
      <trkpt lat="38.6967280" lon="1.4724800">
        <ele>21.1</ele>
        <time>2020-02-22T14:59:51Z</time>
      </trkpt>
      <trkpt lat="38.6966070" lon="1.4727230">
        <ele>21.1</ele>
        <time>2020-02-22T14:59:52Z</time>
      </trkpt>
      <trkpt lat="38.6966070" lon="1.4727230">
        <ele>21.1</ele>
        <time>2020-02-22T14:59:53Z</time>
      </trkpt>
      <trkpt lat="38.6964850" lon="1.4729620">
        <ele>21.1</ele>
        <time>2020-02-22T14:59:54Z</time>
      </trkpt>
      <trkpt lat="38.6964280" lon="1.4730830">
        <ele>21.1</ele>
        <time>2020-02-22T14:59:55Z</time>
      </trkpt>
      <trkpt lat="38.6964280" lon="1.4730830">
        <ele>21.1</ele>
        <time>2020-02-22T14:59:56Z</time>
      </trkpt>
      <trkpt lat="38.6963270" lon="1.4733250">
        <ele>21.1</ele>
        <time>2020-02-22T14:59:57Z</time>
      </trkpt>
      <trkpt lat="38.6963270" lon="1.4733250">
        <ele>21.1</ele>
        <time>2020-02-22T14:59:58Z</time>
      </trkpt>
      <trkpt lat="38.6962280" lon="1.4735620">
        <ele>20.1</ele>
        <time>2020-02-22T14:59:59Z</time>
      </trkpt>
      <trkpt lat="38.6962280" lon="1.4735620">
        <ele>20.1</ele>
        <time>2020-02-22T15:00:00Z</time>
      </trkpt>
      <trkpt lat="38.6961330" lon="1.4737970">
        <ele>20.1</ele>
        <time>2020-02-22T15:00:01Z</time>
      </trkpt>
      <trkpt lat="38.6961330" lon="1.4737970">
        <ele>20.1</ele>
        <time>2020-02-22T15:00:02Z</time>
      </trkpt>
      <trkpt lat="38.6960280" lon="1.4740330">
        <ele>20.1</ele>
        <time>2020-02-22T15:00:03Z</time>
      </trkpt>
      <trkpt lat="38.6960280" lon="1.4740330">
        <ele>20.1</ele>
        <time>2020-02-22T15:00:04Z</time>
      </trkpt>
      <trkpt lat="38.6959170" lon="1.4742780">
        <ele>19.1</ele>
        <time>2020-02-22T15:00:05Z</time>
      </trkpt>
      <trkpt lat="38.6958630" lon="1.4744100">
        <ele>19.1</ele>
        <time>2020-02-22T15:00:06Z</time>
      </trkpt>
      <trkpt lat="38.6958630" lon="1.4744100">
        <ele>19.1</ele>
        <time>2020-02-22T15:00:07Z</time>
      </trkpt>
      <trkpt lat="38.6957470" lon="1.4746730">
        <ele>19.1</ele>
        <time>2020-02-22T15:00:08Z</time>
      </trkpt>
      <trkpt lat="38.6957470" lon="1.4746730">
        <ele>19.1</ele>
        <time>2020-02-22T15:00:09Z</time>
      </trkpt>
      <trkpt lat="38.6956320" lon="1.4749400">
        <ele>19.1</ele>
        <time>2020-02-22T15:00:10Z</time>
      </trkpt>
      <trkpt lat="38.6956320" lon="1.4749400">
        <ele>19.1</ele>
        <time>2020-02-22T15:00:11Z</time>
      </trkpt>
      <trkpt lat="38.6955080" lon="1.4751980">
        <ele>19.1</ele>
        <time>2020-02-22T15:00:12Z</time>
      </trkpt>
      <trkpt lat="38.6955080" lon="1.4751980">
        <ele>19.1</ele>
        <time>2020-02-22T15:00:13Z</time>
      </trkpt>
      <trkpt lat="38.6953750" lon="1.4754530">
        <ele>19.1</ele>
        <time>2020-02-22T15:00:14Z</time>
      </trkpt>
      <trkpt lat="38.6953100" lon="1.4755820">
        <ele>19.1</ele>
        <time>2020-02-22T15:00:15Z</time>
      </trkpt>
      <trkpt lat="38.6953100" lon="1.4755820">
        <ele>19.1</ele>
        <time>2020-02-22T15:00:16Z</time>
      </trkpt>
      <trkpt lat="38.6951950" lon="1.4758500">
        <ele>19.1</ele>
        <time>2020-02-22T15:00:17Z</time>
      </trkpt>
      <trkpt lat="38.6951950" lon="1.4758500">
        <ele>21.1</ele>
        <time>2020-02-22T15:00:18Z</time>
      </trkpt>
      <trkpt lat="38.6950850" lon="1.4761230">
        <ele>21.1</ele>
        <time>2020-02-22T15:00:19Z</time>
      </trkpt>
      <trkpt lat="38.6950850" lon="1.4761230">
        <ele>21.1</ele>
        <time>2020-02-22T15:00:20Z</time>
      </trkpt>
      <trkpt lat="38.6949680" lon="1.4763920">
        <ele>22.1</ele>
        <time>2020-02-22T15:00:21Z</time>
      </trkpt>
      <trkpt lat="38.6949680" lon="1.4763920">
        <ele>22.1</ele>
        <time>2020-02-22T15:00:22Z</time>
      </trkpt>
      <trkpt lat="38.6948480" lon="1.4766520">
        <ele>24.1</ele>
        <time>2020-02-22T15:00:23Z</time>
      </trkpt>
      <trkpt lat="38.6948480" lon="1.4766520">
        <ele>24.1</ele>
        <time>2020-02-22T15:00:24Z</time>
      </trkpt>
      <trkpt lat="38.6947270" lon="1.4769120">
        <ele>21.1</ele>
        <time>2020-02-22T15:00:25Z</time>
      </trkpt>
      <trkpt lat="38.6947270" lon="1.4769120">
        <ele>21.1</ele>
        <time>2020-02-22T15:00:26Z</time>
      </trkpt>
      <trkpt lat="38.6946120" lon="1.4771770">
        <ele>18.1</ele>
        <time>2020-02-22T15:00:27Z</time>
      </trkpt>
      <trkpt lat="38.6946120" lon="1.4771770">
        <ele>18.1</ele>
        <time>2020-02-22T15:00:28Z</time>
      </trkpt>
      <trkpt lat="38.6944980" lon="1.4774420">
        <ele>20.1</ele>
        <time>2020-02-22T15:00:29Z</time>
      </trkpt>
      <trkpt lat="38.6944980" lon="1.4774420">
        <ele>20.1</ele>
        <time>2020-02-22T15:00:30Z</time>
      </trkpt>
      <trkpt lat="38.6943800" lon="1.4777080">
        <ele>20.1</ele>
        <time>2020-02-22T15:00:31Z</time>
      </trkpt>
      <trkpt lat="38.6943800" lon="1.4777080">
        <ele>20.1</ele>
        <time>2020-02-22T15:00:32Z</time>
      </trkpt>
      <trkpt lat="38.6942670" lon="1.4779720">
        <ele>19.1</ele>
        <time>2020-02-22T15:00:33Z</time>
      </trkpt>
      <trkpt lat="38.6942670" lon="1.4779720">
        <ele>19.1</ele>
        <time>2020-02-22T15:00:34Z</time>
      </trkpt>
      <trkpt lat="38.6941550" lon="1.4782350">
        <ele>19.1</ele>
        <time>2020-02-22T15:00:35Z</time>
      </trkpt>
      <trkpt lat="38.6941550" lon="1.4782350">
        <ele>18.1</ele>
        <time>2020-02-22T15:00:36Z</time>
      </trkpt>
      <trkpt lat="38.6940370" lon="1.4784900">
        <ele>18.1</ele>
        <time>2020-02-22T15:00:37Z</time>
      </trkpt>
      <trkpt lat="38.6939770" lon="1.4786170">
        <ele>16.1</ele>
        <time>2020-02-22T15:00:38Z</time>
      </trkpt>
      <trkpt lat="38.6939770" lon="1.4786170">
        <ele>16.1</ele>
        <time>2020-02-22T15:00:39Z</time>
      </trkpt>
      <trkpt lat="38.6938650" lon="1.4788750">
        <ele>15.1</ele>
        <time>2020-02-22T15:00:40Z</time>
      </trkpt>
      <trkpt lat="38.6938650" lon="1.4788750">
        <ele>15.1</ele>
        <time>2020-02-22T15:00:41Z</time>
      </trkpt>
      <trkpt lat="38.6937580" lon="1.4791320">
        <ele>15.1</ele>
        <time>2020-02-22T15:00:42Z</time>
      </trkpt>
      <trkpt lat="38.6936950" lon="1.4792530">
        <ele>15.1</ele>
        <time>2020-02-22T15:00:43Z</time>
      </trkpt>
      <trkpt lat="38.6936320" lon="1.4793730">
        <ele>15.1</ele>
        <time>2020-02-22T15:00:44Z</time>
      </trkpt>
      <trkpt lat="38.6935750" lon="1.4794950">
        <ele>15.1</ele>
        <time>2020-02-22T15:00:45Z</time>
      </trkpt>
      <trkpt lat="38.6935750" lon="1.4794950">
        <ele>14.1</ele>
        <time>2020-02-22T15:00:46Z</time>
      </trkpt>
      <trkpt lat="38.6934700" lon="1.4797450">
        <ele>14.1</ele>
        <time>2020-02-22T15:00:47Z</time>
      </trkpt>
      <trkpt lat="38.6934700" lon="1.4797450">
        <ele>14.1</ele>
        <time>2020-02-22T15:00:48Z</time>
      </trkpt>
      <trkpt lat="38.6933620" lon="1.4799880">
        <ele>14.1</ele>
        <time>2020-02-22T15:00:49Z</time>
      </trkpt>
      <trkpt lat="38.6933620" lon="1.4799880">
        <ele>15.1</ele>
        <time>2020-02-22T15:00:50Z</time>
      </trkpt>
      <trkpt lat="38.6932580" lon="1.4802350">
        <ele>15.1</ele>
        <time>2020-02-22T15:00:51Z</time>
      </trkpt>
      <trkpt lat="38.6932580" lon="1.4802350">
        <ele>15.1</ele>
        <time>2020-02-22T15:00:52Z</time>
      </trkpt>
      <trkpt lat="38.6931530" lon="1.4804770">
        <ele>15.1</ele>
        <time>2020-02-22T15:00:53Z</time>
      </trkpt>
      <trkpt lat="38.6931530" lon="1.4804770">
        <ele>15.1</ele>
        <time>2020-02-22T15:00:54Z</time>
      </trkpt>
      <trkpt lat="38.6930470" lon="1.4807180">
        <ele>15.1</ele>
        <time>2020-02-22T15:00:55Z</time>
      </trkpt>
      <trkpt lat="38.6930470" lon="1.4807180">
        <ele>15.1</ele>
        <time>2020-02-22T15:00:56Z</time>
      </trkpt>
      <trkpt lat="38.6929470" lon="1.4809530">
        <ele>15.1</ele>
        <time>2020-02-22T15:00:57Z</time>
      </trkpt>
      <trkpt lat="38.6929470" lon="1.4809530">
        <ele>15.1</ele>
        <time>2020-02-22T15:00:58Z</time>
      </trkpt>
      <trkpt lat="38.6928500" lon="1.4811870">
        <ele>17.1</ele>
        <time>2020-02-22T15:00:59Z</time>
      </trkpt>
      <trkpt lat="38.6928020" lon="1.4813020">
        <ele>17.1</ele>
        <time>2020-02-22T15:01:00Z</time>
      </trkpt>
      <trkpt lat="38.6928020" lon="1.4813020">
        <ele>17.1</ele>
        <time>2020-02-22T15:01:01Z</time>
      </trkpt>
      <trkpt lat="38.6927020" lon="1.4815280">
        <ele>17.1</ele>
        <time>2020-02-22T15:01:02Z</time>
      </trkpt>
      <trkpt lat="38.6927020" lon="1.4815280">
        <ele>17.1</ele>
        <time>2020-02-22T15:01:03Z</time>
      </trkpt>
      <trkpt lat="38.6926030" lon="1.4817570">
        <ele>17.1</ele>
        <time>2020-02-22T15:01:04Z</time>
      </trkpt>
      <trkpt lat="38.6926030" lon="1.4817570">
        <ele>15.1</ele>
        <time>2020-02-22T15:01:05Z</time>
      </trkpt>
      <trkpt lat="38.6925050" lon="1.4819770">
        <ele>15.1</ele>
        <time>2020-02-22T15:01:06Z</time>
      </trkpt>
      <trkpt lat="38.6925050" lon="1.4819770">
        <ele>14.1</ele>
        <time>2020-02-22T15:01:07Z</time>
      </trkpt>
      <trkpt lat="38.6924070" lon="1.4821920">
        <ele>14.1</ele>
        <time>2020-02-22T15:01:08Z</time>
      </trkpt>
      <trkpt lat="38.6923570" lon="1.4823000">
        <ele>14.1</ele>
        <time>2020-02-22T15:01:09Z</time>
      </trkpt>
      <trkpt lat="38.6923570" lon="1.4823000">
        <ele>14.1</ele>
        <time>2020-02-22T15:01:10Z</time>
      </trkpt>
      <trkpt lat="38.6922580" lon="1.4825180">
        <ele>13.1</ele>
        <time>2020-02-22T15:01:11Z</time>
      </trkpt>
      <trkpt lat="38.6922580" lon="1.4825180">
        <ele>13.1</ele>
        <time>2020-02-22T15:01:12Z</time>
      </trkpt>
      <trkpt lat="38.6921620" lon="1.4827370">
        <ele>13.1</ele>
        <time>2020-02-22T15:01:13Z</time>
      </trkpt>
      <trkpt lat="38.6921620" lon="1.4827370">
        <ele>13.1</ele>
        <time>2020-02-22T15:01:14Z</time>
      </trkpt>
      <trkpt lat="38.6920650" lon="1.4829550">
        <ele>13.1</ele>
        <time>2020-02-22T15:01:15Z</time>
      </trkpt>
      <trkpt lat="38.6920650" lon="1.4829550">
        <ele>13.1</ele>
        <time>2020-02-22T15:01:16Z</time>
      </trkpt>
      <trkpt lat="38.6919720" lon="1.4831730">
        <ele>13.1</ele>
        <time>2020-02-22T15:01:17Z</time>
      </trkpt>
      <trkpt lat="38.6919720" lon="1.4831730">
        <ele>13.1</ele>
        <time>2020-02-22T15:01:18Z</time>
      </trkpt>
      <trkpt lat="38.6918750" lon="1.4833930">
        <ele>13.1</ele>
        <time>2020-02-22T15:01:19Z</time>
      </trkpt>
      <trkpt lat="38.6918750" lon="1.4833930">
        <ele>13.1</ele>
        <time>2020-02-22T15:01:20Z</time>
      </trkpt>
      <trkpt lat="38.6917780" lon="1.4836180">
        <ele>13.1</ele>
        <time>2020-02-22T15:01:21Z</time>
      </trkpt>
      <trkpt lat="38.6917780" lon="1.4836180">
        <ele>13.1</ele>
        <time>2020-02-22T15:01:22Z</time>
      </trkpt>
      <trkpt lat="38.6916800" lon="1.4838420">
        <ele>13.1</ele>
        <time>2020-02-22T15:01:23Z</time>
      </trkpt>
      <trkpt lat="38.6916280" lon="1.4839530">
        <ele>13.1</ele>
        <time>2020-02-22T15:01:24Z</time>
      </trkpt>
      <trkpt lat="38.6916280" lon="1.4839530">
        <ele>13.1</ele>
        <time>2020-02-22T15:01:25Z</time>
      </trkpt>
      <trkpt lat="38.6915320" lon="1.4841780">
        <ele>13.1</ele>
        <time>2020-02-22T15:01:26Z</time>
      </trkpt>
      <trkpt lat="38.6914830" lon="1.4842900">
        <ele>13.1</ele>
        <time>2020-02-22T15:01:27Z</time>
      </trkpt>
      <trkpt lat="38.6914830" lon="1.4842900">
        <ele>12.1</ele>
        <time>2020-02-22T15:01:28Z</time>
      </trkpt>
      <trkpt lat="38.6913880" lon="1.4845100">
        <ele>12.1</ele>
        <time>2020-02-22T15:01:29Z</time>
      </trkpt>
      <trkpt lat="38.6913880" lon="1.4845100">
        <ele>12.1</ele>
        <time>2020-02-22T15:01:30Z</time>
      </trkpt>
      <trkpt lat="38.6912920" lon="1.4847300">
        <ele>12.1</ele>
        <time>2020-02-22T15:01:31Z</time>
      </trkpt>
      <trkpt lat="38.6912920" lon="1.4847300">
        <ele>12.1</ele>
        <time>2020-02-22T15:01:32Z</time>
      </trkpt>
      <trkpt lat="38.6911970" lon="1.4849430">
        <ele>12.1</ele>
        <time>2020-02-22T15:01:33Z</time>
      </trkpt>
      <trkpt lat="38.6911970" lon="1.4849430">
        <ele>12.1</ele>
        <time>2020-02-22T15:01:34Z</time>
      </trkpt>
      <trkpt lat="38.6911070" lon="1.4851600">
        <ele>11.1</ele>
        <time>2020-02-22T15:01:35Z</time>
      </trkpt>
      <trkpt lat="38.6911070" lon="1.4851600">
        <ele>11.1</ele>
        <time>2020-02-22T15:01:36Z</time>
      </trkpt>
      <trkpt lat="38.6910280" lon="1.4853820">
        <ele>11.1</ele>
        <time>2020-02-22T15:01:37Z</time>
      </trkpt>
      <trkpt lat="38.6909870" lon="1.4854920">
        <ele>11.1</ele>
        <time>2020-02-22T15:01:38Z</time>
      </trkpt>
      <trkpt lat="38.6909870" lon="1.4854920">
        <ele>11.1</ele>
        <time>2020-02-22T15:01:39Z</time>
      </trkpt>
      <trkpt lat="38.6908930" lon="1.4857020">
        <ele>11.1</ele>
        <time>2020-02-22T15:01:40Z</time>
      </trkpt>
      <trkpt lat="38.6908930" lon="1.4857020">
        <ele>11.1</ele>
        <time>2020-02-22T15:01:41Z</time>
      </trkpt>
      <trkpt lat="38.6907850" lon="1.4859000">
        <ele>11.1</ele>
        <time>2020-02-22T15:01:42Z</time>
      </trkpt>
      <trkpt lat="38.6907370" lon="1.4860020">
        <ele>11.1</ele>
        <time>2020-02-22T15:01:43Z</time>
      </trkpt>
      <trkpt lat="38.6907370" lon="1.4860020">
        <ele>11.1</ele>
        <time>2020-02-22T15:01:44Z</time>
      </trkpt>
      <trkpt lat="38.6906420" lon="1.4862030">
        <ele>11.1</ele>
        <time>2020-02-22T15:01:45Z</time>
      </trkpt>
      <trkpt lat="38.6906420" lon="1.4862030">
        <ele>11.1</ele>
        <time>2020-02-22T15:01:46Z</time>
      </trkpt>
      <trkpt lat="38.6905550" lon="1.4864080">
        <ele>11.1</ele>
        <time>2020-02-22T15:01:47Z</time>
      </trkpt>
      <trkpt lat="38.6905120" lon="1.4865100">
        <ele>11.1</ele>
        <time>2020-02-22T15:01:48Z</time>
      </trkpt>
      <trkpt lat="38.6904650" lon="1.4866100">
        <ele>11.1</ele>
        <time>2020-02-22T15:01:49Z</time>
      </trkpt>
      <trkpt lat="38.6904650" lon="1.4866100">
        <ele>11.1</ele>
        <time>2020-02-22T15:01:50Z</time>
      </trkpt>
      <trkpt lat="38.6903750" lon="1.4868080">
        <ele>12.1</ele>
        <time>2020-02-22T15:01:51Z</time>
      </trkpt>
      <trkpt lat="38.6903750" lon="1.4868080">
        <ele>12.1</ele>
        <time>2020-02-22T15:01:52Z</time>
      </trkpt>
      <trkpt lat="38.6902870" lon="1.4870080">
        <ele>12.1</ele>
        <time>2020-02-22T15:01:53Z</time>
      </trkpt>
      <trkpt lat="38.6902870" lon="1.4870080">
        <ele>12.1</ele>
        <time>2020-02-22T15:01:54Z</time>
      </trkpt>
      <trkpt lat="38.6901970" lon="1.4872050">
        <ele>12.1</ele>
        <time>2020-02-22T15:01:55Z</time>
      </trkpt>
      <trkpt lat="38.6901500" lon="1.4873030">
        <ele>12.1</ele>
        <time>2020-02-22T15:01:56Z</time>
      </trkpt>
      <trkpt lat="38.6901020" lon="1.4874000">
        <ele>12.1</ele>
        <time>2020-02-22T15:01:57Z</time>
      </trkpt>
      <trkpt lat="38.6901020" lon="1.4874000">
        <ele>12.1</ele>
        <time>2020-02-22T15:01:58Z</time>
      </trkpt>
      <trkpt lat="38.6900000" lon="1.4875850">
        <ele>12.1</ele>
        <time>2020-02-22T15:01:59Z</time>
      </trkpt>
      <trkpt lat="38.6900000" lon="1.4875850">
        <ele>12.1</ele>
        <time>2020-02-22T15:02:00Z</time>
      </trkpt>
      <trkpt lat="38.6898950" lon="1.4877630">
        <ele>12.1</ele>
        <time>2020-02-22T15:02:01Z</time>
      </trkpt>
      <trkpt lat="38.6898950" lon="1.4877630">
        <ele>12.1</ele>
        <time>2020-02-22T15:02:02Z</time>
      </trkpt>
      <trkpt lat="38.6897900" lon="1.4879320">
        <ele>12.1</ele>
        <time>2020-02-22T15:02:03Z</time>
      </trkpt>
      <trkpt lat="38.6897900" lon="1.4879320">
        <ele>12.1</ele>
        <time>2020-02-22T15:02:04Z</time>
      </trkpt>
      <trkpt lat="38.6896850" lon="1.4881020">
        <ele>12.1</ele>
        <time>2020-02-22T15:02:05Z</time>
      </trkpt>
      <trkpt lat="38.6896330" lon="1.4881870">
        <ele>12.1</ele>
        <time>2020-02-22T15:02:06Z</time>
      </trkpt>
      <trkpt lat="38.6896330" lon="1.4881870">
        <ele>12.1</ele>
        <time>2020-02-22T15:02:07Z</time>
      </trkpt>
      <trkpt lat="38.6895320" lon="1.4883550">
        <ele>12.1</ele>
        <time>2020-02-22T15:02:08Z</time>
      </trkpt>
      <trkpt lat="38.6895320" lon="1.4883550">
        <ele>13.1</ele>
        <time>2020-02-22T15:02:09Z</time>
      </trkpt>
      <trkpt lat="38.6894270" lon="1.4885200">
        <ele>13.1</ele>
        <time>2020-02-22T15:02:10Z</time>
      </trkpt>
      <trkpt lat="38.6894270" lon="1.4885200">
        <ele>13.1</ele>
        <time>2020-02-22T15:02:11Z</time>
      </trkpt>
      <trkpt lat="38.6893230" lon="1.4886830">
        <ele>13.1</ele>
        <time>2020-02-22T15:02:12Z</time>
      </trkpt>
      <trkpt lat="38.6892720" lon="1.4887650">
        <ele>13.1</ele>
        <time>2020-02-22T15:02:13Z</time>
      </trkpt>
      <trkpt lat="38.6892200" lon="1.4888480">
        <ele>13.1</ele>
        <time>2020-02-22T15:02:14Z</time>
      </trkpt>
      <trkpt lat="38.6892200" lon="1.4888480">
        <ele>13.1</ele>
        <time>2020-02-22T15:02:15Z</time>
      </trkpt>
      <trkpt lat="38.6891180" lon="1.4890180">
        <ele>13.1</ele>
        <time>2020-02-22T15:02:16Z</time>
      </trkpt>
      <trkpt lat="38.6891180" lon="1.4890180">
        <ele>13.1</ele>
        <time>2020-02-22T15:02:17Z</time>
      </trkpt>
      <trkpt lat="38.6890150" lon="1.4891830">
        <ele>13.1</ele>
        <time>2020-02-22T15:02:18Z</time>
      </trkpt>
      <trkpt lat="38.6890150" lon="1.4891830">
        <ele>13.1</ele>
        <time>2020-02-22T15:02:19Z</time>
      </trkpt>
      <trkpt lat="38.6889120" lon="1.4893480">
        <ele>13.1</ele>
        <time>2020-02-22T15:02:20Z</time>
      </trkpt>
      <trkpt lat="38.6888580" lon="1.4894320">
        <ele>13.1</ele>
        <time>2020-02-22T15:02:21Z</time>
      </trkpt>
      <trkpt lat="38.6888580" lon="1.4894320">
        <ele>13.1</ele>
        <time>2020-02-22T15:02:22Z</time>
      </trkpt>
      <trkpt lat="38.6887530" lon="1.4896000">
        <ele>13.1</ele>
        <time>2020-02-22T15:02:23Z</time>
      </trkpt>
      <trkpt lat="38.6887530" lon="1.4896000">
        <ele>13.1</ele>
        <time>2020-02-22T15:02:24Z</time>
      </trkpt>
      <trkpt lat="38.6886500" lon="1.4897630">
        <ele>13.1</ele>
        <time>2020-02-22T15:02:25Z</time>
      </trkpt>
      <trkpt lat="38.6886500" lon="1.4897630">
        <ele>13.1</ele>
        <time>2020-02-22T15:02:26Z</time>
      </trkpt>
      <trkpt lat="38.6885480" lon="1.4899250">
        <ele>13.1</ele>
        <time>2020-02-22T15:02:27Z</time>
      </trkpt>
      <trkpt lat="38.6885480" lon="1.4899250">
        <ele>13.1</ele>
        <time>2020-02-22T15:02:28Z</time>
      </trkpt>
      <trkpt lat="38.6884480" lon="1.4900880">
        <ele>13.1</ele>
        <time>2020-02-22T15:02:29Z</time>
      </trkpt>
      <trkpt lat="38.6884480" lon="1.4900880">
        <ele>13.1</ele>
        <time>2020-02-22T15:02:30Z</time>
      </trkpt>
      <trkpt lat="38.6883450" lon="1.4902520">
        <ele>13.1</ele>
        <time>2020-02-22T15:02:31Z</time>
      </trkpt>
      <trkpt lat="38.6882900" lon="1.4903320">
        <ele>13.1</ele>
        <time>2020-02-22T15:02:32Z</time>
      </trkpt>
      <trkpt lat="38.6882900" lon="1.4903320">
        <ele>13.1</ele>
        <time>2020-02-22T15:02:33Z</time>
      </trkpt>
      <trkpt lat="38.6881900" lon="1.4904970">
        <ele>14.1</ele>
        <time>2020-02-22T15:02:34Z</time>
      </trkpt>
      <trkpt lat="38.6881900" lon="1.4904970">
        <ele>14.1</ele>
        <time>2020-02-22T15:02:35Z</time>
      </trkpt>
      <trkpt lat="38.6880850" lon="1.4906670">
        <ele>14.1</ele>
        <time>2020-02-22T15:02:36Z</time>
      </trkpt>
      <trkpt lat="38.6880330" lon="1.4907520">
        <ele>14.1</ele>
        <time>2020-02-22T15:02:37Z</time>
      </trkpt>
      <trkpt lat="38.6880330" lon="1.4907520">
        <ele>14.1</ele>
        <time>2020-02-22T15:02:38Z</time>
      </trkpt>
      <trkpt lat="38.6879320" lon="1.4909130">
        <ele>14.1</ele>
        <time>2020-02-22T15:02:39Z</time>
      </trkpt>
      <trkpt lat="38.6879320" lon="1.4909130">
        <ele>14.1</ele>
        <time>2020-02-22T15:02:40Z</time>
      </trkpt>
      <trkpt lat="38.6878330" lon="1.4910770">
        <ele>14.1</ele>
        <time>2020-02-22T15:02:41Z</time>
      </trkpt>
      <trkpt lat="38.6878330" lon="1.4910770">
        <ele>14.1</ele>
        <time>2020-02-22T15:02:42Z</time>
      </trkpt>
      <trkpt lat="38.6877320" lon="1.4912400">
        <ele>14.1</ele>
        <time>2020-02-22T15:02:43Z</time>
      </trkpt>
      <trkpt lat="38.6877320" lon="1.4912400">
        <ele>14.1</ele>
        <time>2020-02-22T15:02:44Z</time>
      </trkpt>
      <trkpt lat="38.6876330" lon="1.4914020">
        <ele>14.1</ele>
        <time>2020-02-22T15:02:45Z</time>
      </trkpt>
      <trkpt lat="38.6876330" lon="1.4914020">
        <ele>14.1</ele>
        <time>2020-02-22T15:02:46Z</time>
      </trkpt>
      <trkpt lat="38.6875350" lon="1.4915680">
        <ele>14.1</ele>
        <time>2020-02-22T15:02:47Z</time>
      </trkpt>
      <trkpt lat="38.6874820" lon="1.4916500">
        <ele>14.1</ele>
        <time>2020-02-22T15:02:48Z</time>
      </trkpt>
      <trkpt lat="38.6874300" lon="1.4917300">
        <ele>14.1</ele>
        <time>2020-02-22T15:02:49Z</time>
      </trkpt>
      <trkpt lat="38.6874300" lon="1.4917300">
        <ele>14.1</ele>
        <time>2020-02-22T15:02:50Z</time>
      </trkpt>
      <trkpt lat="38.6873280" lon="1.4918900">
        <ele>14.1</ele>
        <time>2020-02-22T15:02:51Z</time>
      </trkpt>
      <trkpt lat="38.6873280" lon="1.4918900">
        <ele>14.1</ele>
        <time>2020-02-22T15:02:52Z</time>
      </trkpt>
      <trkpt lat="38.6872320" lon="1.4920500">
        <ele>14.1</ele>
        <time>2020-02-22T15:02:53Z</time>
      </trkpt>
      <trkpt lat="38.6872320" lon="1.4920500">
        <ele>14.1</ele>
        <time>2020-02-22T15:02:54Z</time>
      </trkpt>
      <trkpt lat="38.6871300" lon="1.4922130">
        <ele>14.1</ele>
        <time>2020-02-22T15:02:55Z</time>
      </trkpt>
      <trkpt lat="38.6871300" lon="1.4922130">
        <ele>14.1</ele>
        <time>2020-02-22T15:02:56Z</time>
      </trkpt>
      <trkpt lat="38.6870300" lon="1.4923780">
        <ele>14.1</ele>
        <time>2020-02-22T15:02:57Z</time>
      </trkpt>
      <trkpt lat="38.6870300" lon="1.4923780">
        <ele>14.1</ele>
        <time>2020-02-22T15:02:58Z</time>
      </trkpt>
      <trkpt lat="38.6869300" lon="1.4925400">
        <ele>14.1</ele>
        <time>2020-02-22T15:02:59Z</time>
      </trkpt>
      <trkpt lat="38.6869300" lon="1.4925400">
        <ele>14.1</ele>
        <time>2020-02-22T15:03:00Z</time>
      </trkpt>
      <trkpt lat="38.6868300" lon="1.4927030">
        <ele>14.1</ele>
        <time>2020-02-22T15:03:01Z</time>
      </trkpt>
      <trkpt lat="38.6868300" lon="1.4927030">
        <ele>14.1</ele>
        <time>2020-02-22T15:03:02Z</time>
      </trkpt>
      <trkpt lat="38.6867200" lon="1.4928680">
        <ele>14.1</ele>
        <time>2020-02-22T15:03:03Z</time>
      </trkpt>
      <trkpt lat="38.6867200" lon="1.4928680">
        <ele>14.1</ele>
        <time>2020-02-22T15:03:04Z</time>
      </trkpt>
      <trkpt lat="38.6866150" lon="1.4930420">
        <ele>14.1</ele>
        <time>2020-02-22T15:03:05Z</time>
      </trkpt>
      <trkpt lat="38.6865600" lon="1.4931270">
        <ele>14.1</ele>
        <time>2020-02-22T15:03:06Z</time>
      </trkpt>
      <trkpt lat="38.6865070" lon="1.4932120">
        <ele>14.1</ele>
        <time>2020-02-22T15:03:07Z</time>
      </trkpt>
      <trkpt lat="38.6865070" lon="1.4932120">
        <ele>14.1</ele>
        <time>2020-02-22T15:03:08Z</time>
      </trkpt>
      <trkpt lat="38.6864050" lon="1.4933750">
        <ele>14.1</ele>
        <time>2020-02-22T15:03:09Z</time>
      </trkpt>
      <trkpt lat="38.6864050" lon="1.4933750">
        <ele>14.1</ele>
        <time>2020-02-22T15:03:10Z</time>
      </trkpt>
      <trkpt lat="38.6863030" lon="1.4935430">
        <ele>14.1</ele>
        <time>2020-02-22T15:03:11Z</time>
      </trkpt>
      <trkpt lat="38.6862500" lon="1.4936250">
        <ele>14.1</ele>
        <time>2020-02-22T15:03:12Z</time>
      </trkpt>
      <trkpt lat="38.6862000" lon="1.4937100">
        <ele>14.1</ele>
        <time>2020-02-22T15:03:13Z</time>
      </trkpt>
      <trkpt lat="38.6862000" lon="1.4937100">
        <ele>14.1</ele>
        <time>2020-02-22T15:03:14Z</time>
      </trkpt>
      <trkpt lat="38.6861000" lon="1.4938720">
        <ele>14.1</ele>
        <time>2020-02-22T15:03:15Z</time>
      </trkpt>
      <trkpt lat="38.6861000" lon="1.4938720">
        <ele>14.1</ele>
        <time>2020-02-22T15:03:16Z</time>
      </trkpt>
      <trkpt lat="38.6860020" lon="1.4940330">
        <ele>14.1</ele>
        <time>2020-02-22T15:03:17Z</time>
      </trkpt>
      <trkpt lat="38.6860020" lon="1.4940330">
        <ele>14.1</ele>
        <time>2020-02-22T15:03:18Z</time>
      </trkpt>
      <trkpt lat="38.6859020" lon="1.4941970">
        <ele>14.1</ele>
        <time>2020-02-22T15:03:19Z</time>
      </trkpt>
      <trkpt lat="38.6859020" lon="1.4941970">
        <ele>14.1</ele>
        <time>2020-02-22T15:03:20Z</time>
      </trkpt>
      <trkpt lat="38.6857970" lon="1.4943620">
        <ele>14.1</ele>
        <time>2020-02-22T15:03:21Z</time>
      </trkpt>
      <trkpt lat="38.6857970" lon="1.4943620">
        <ele>14.1</ele>
        <time>2020-02-22T15:03:22Z</time>
      </trkpt>
      <trkpt lat="38.6856970" lon="1.4945300">
        <ele>14.1</ele>
        <time>2020-02-22T15:03:23Z</time>
      </trkpt>
      <trkpt lat="38.6856970" lon="1.4945300">
        <ele>14.1</ele>
        <time>2020-02-22T15:03:24Z</time>
      </trkpt>
      <trkpt lat="38.6855970" lon="1.4947020">
        <ele>14.1</ele>
        <time>2020-02-22T15:03:25Z</time>
      </trkpt>
      <trkpt lat="38.6855970" lon="1.4947020">
        <ele>14.1</ele>
        <time>2020-02-22T15:03:26Z</time>
      </trkpt>
      <trkpt lat="38.6854900" lon="1.4948730">
        <ele>14.1</ele>
        <time>2020-02-22T15:03:27Z</time>
      </trkpt>
      <trkpt lat="38.6854900" lon="1.4948730">
        <ele>14.1</ele>
        <time>2020-02-22T15:03:28Z</time>
      </trkpt>
      <trkpt lat="38.6853850" lon="1.4950500">
        <ele>14.1</ele>
        <time>2020-02-22T15:03:29Z</time>
      </trkpt>
      <trkpt lat="38.6853850" lon="1.4950500">
        <ele>14.1</ele>
        <time>2020-02-22T15:03:30Z</time>
      </trkpt>
      <trkpt lat="38.6852730" lon="1.4952280">
        <ele>14.1</ele>
        <time>2020-02-22T15:03:31Z</time>
      </trkpt>
      <trkpt lat="38.6852730" lon="1.4952280">
        <ele>14.1</ele>
        <time>2020-02-22T15:03:32Z</time>
      </trkpt>
      <trkpt lat="38.6851600" lon="1.4954080">
        <ele>14.1</ele>
        <time>2020-02-22T15:03:33Z</time>
      </trkpt>
      <trkpt lat="38.6851600" lon="1.4954080">
        <ele>15.1</ele>
        <time>2020-02-22T15:03:34Z</time>
      </trkpt>
      <trkpt lat="38.6850550" lon="1.4955850">
        <ele>15.1</ele>
        <time>2020-02-22T15:03:35Z</time>
      </trkpt>
      <trkpt lat="38.6850550" lon="1.4955850">
        <ele>15.1</ele>
        <time>2020-02-22T15:03:36Z</time>
      </trkpt>
      <trkpt lat="38.6849480" lon="1.4957600">
        <ele>15.1</ele>
        <time>2020-02-22T15:03:37Z</time>
      </trkpt>
      <trkpt lat="38.6849480" lon="1.4957600">
        <ele>15.1</ele>
        <time>2020-02-22T15:03:38Z</time>
      </trkpt>
      <trkpt lat="38.6848450" lon="1.4959370">
        <ele>15.1</ele>
        <time>2020-02-22T15:03:39Z</time>
      </trkpt>
      <trkpt lat="38.6848450" lon="1.4959370">
        <ele>15.1</ele>
        <time>2020-02-22T15:03:40Z</time>
      </trkpt>
      <trkpt lat="38.6847400" lon="1.4961100">
        <ele>15.1</ele>
        <time>2020-02-22T15:03:41Z</time>
      </trkpt>
      <trkpt lat="38.6847400" lon="1.4961100">
        <ele>15.1</ele>
        <time>2020-02-22T15:03:42Z</time>
      </trkpt>
      <trkpt lat="38.6846330" lon="1.4962830">
        <ele>15.1</ele>
        <time>2020-02-22T15:03:43Z</time>
      </trkpt>
      <trkpt lat="38.6845770" lon="1.4963670">
        <ele>15.1</ele>
        <time>2020-02-22T15:03:44Z</time>
      </trkpt>
      <trkpt lat="38.6845770" lon="1.4963670">
        <ele>15.1</ele>
        <time>2020-02-22T15:03:45Z</time>
      </trkpt>
      <trkpt lat="38.6844720" lon="1.4965400">
        <ele>15.1</ele>
        <time>2020-02-22T15:03:46Z</time>
      </trkpt>
      <trkpt lat="38.6844720" lon="1.4965400">
        <ele>15.1</ele>
        <time>2020-02-22T15:03:47Z</time>
      </trkpt>
      <trkpt lat="38.6843680" lon="1.4967080">
        <ele>15.1</ele>
        <time>2020-02-22T15:03:48Z</time>
      </trkpt>
      <trkpt lat="38.6843170" lon="1.4967880">
        <ele>15.1</ele>
        <time>2020-02-22T15:03:49Z</time>
      </trkpt>
      <trkpt lat="38.6843170" lon="1.4967880">
        <ele>15.1</ele>
        <time>2020-02-22T15:03:50Z</time>
      </trkpt>
      <trkpt lat="38.6842150" lon="1.4969530">
        <ele>15.1</ele>
        <time>2020-02-22T15:03:51Z</time>
      </trkpt>
      <trkpt lat="38.6842150" lon="1.4969530">
        <ele>15.1</ele>
        <time>2020-02-22T15:03:52Z</time>
      </trkpt>
      <trkpt lat="38.6841120" lon="1.4971120">
        <ele>15.1</ele>
        <time>2020-02-22T15:03:53Z</time>
      </trkpt>
      <trkpt lat="38.6840570" lon="1.4971950">
        <ele>15.1</ele>
        <time>2020-02-22T15:03:54Z</time>
      </trkpt>
      <trkpt lat="38.6840120" lon="1.4972770">
        <ele>15.1</ele>
        <time>2020-02-22T15:03:55Z</time>
      </trkpt>
      <trkpt lat="38.6840120" lon="1.4972770">
        <ele>15.1</ele>
        <time>2020-02-22T15:03:56Z</time>
      </trkpt>
      <trkpt lat="38.6839150" lon="1.4974350">
        <ele>15.1</ele>
        <time>2020-02-22T15:03:57Z</time>
      </trkpt>
      <trkpt lat="38.6839150" lon="1.4974350">
        <ele>15.1</ele>
        <time>2020-02-22T15:03:58Z</time>
      </trkpt>
      <trkpt lat="38.6838180" lon="1.4975970">
        <ele>15.1</ele>
        <time>2020-02-22T15:03:59Z</time>
      </trkpt>
      <trkpt lat="38.6838180" lon="1.4975970">
        <ele>15.1</ele>
        <time>2020-02-22T15:04:00Z</time>
      </trkpt>
      <trkpt lat="38.6837280" lon="1.4977670">
        <ele>15.1</ele>
        <time>2020-02-22T15:04:01Z</time>
      </trkpt>
      <trkpt lat="38.6837280" lon="1.4977670">
        <ele>15.1</ele>
        <time>2020-02-22T15:04:02Z</time>
      </trkpt>
      <trkpt lat="38.6836400" lon="1.4979400">
        <ele>15.1</ele>
        <time>2020-02-22T15:04:03Z</time>
      </trkpt>
      <trkpt lat="38.6836400" lon="1.4979400">
        <ele>15.1</ele>
        <time>2020-02-22T15:04:04Z</time>
      </trkpt>
      <trkpt lat="38.6835580" lon="1.4981230">
        <ele>15.1</ele>
        <time>2020-02-22T15:04:05Z</time>
      </trkpt>
      <trkpt lat="38.6835130" lon="1.4982170">
        <ele>15.1</ele>
        <time>2020-02-22T15:04:06Z</time>
      </trkpt>
      <trkpt lat="38.6834720" lon="1.4983100">
        <ele>15.1</ele>
        <time>2020-02-22T15:04:07Z</time>
      </trkpt>
      <trkpt lat="38.6834720" lon="1.4983100">
        <ele>15.1</ele>
        <time>2020-02-22T15:04:08Z</time>
      </trkpt>
      <trkpt lat="38.6833880" lon="1.4985030">
        <ele>15.1</ele>
        <time>2020-02-22T15:04:09Z</time>
      </trkpt>
      <trkpt lat="38.6833880" lon="1.4985030">
        <ele>15.1</ele>
        <time>2020-02-22T15:04:10Z</time>
      </trkpt>
      <trkpt lat="38.6832970" lon="1.4986920">
        <ele>15.1</ele>
        <time>2020-02-22T15:04:11Z</time>
      </trkpt>
      <trkpt lat="38.6832520" lon="1.4987870">
        <ele>15.1</ele>
        <time>2020-02-22T15:04:12Z</time>
      </trkpt>
      <trkpt lat="38.6832130" lon="1.4988820">
        <ele>15.1</ele>
        <time>2020-02-22T15:04:13Z</time>
      </trkpt>
      <trkpt lat="38.6832130" lon="1.4988820">
        <ele>15.1</ele>
        <time>2020-02-22T15:04:14Z</time>
      </trkpt>
      <trkpt lat="38.6831330" lon="1.4990720">
        <ele>15.1</ele>
        <time>2020-02-22T15:04:15Z</time>
      </trkpt>
      <trkpt lat="38.6831330" lon="1.4990720">
        <ele>15.1</ele>
        <time>2020-02-22T15:04:16Z</time>
      </trkpt>
      <trkpt lat="38.6830570" lon="1.4992550">
        <ele>15.1</ele>
        <time>2020-02-22T15:04:17Z</time>
      </trkpt>
      <trkpt lat="38.6830570" lon="1.4992550">
        <ele>15.1</ele>
        <time>2020-02-22T15:04:18Z</time>
      </trkpt>
      <trkpt lat="38.6829750" lon="1.4994450">
        <ele>15.1</ele>
        <time>2020-02-22T15:04:19Z</time>
      </trkpt>
      <trkpt lat="38.6829750" lon="1.4994450">
        <ele>15.1</ele>
        <time>2020-02-22T15:04:20Z</time>
      </trkpt>
      <trkpt lat="38.6828900" lon="1.4996330">
        <ele>15.1</ele>
        <time>2020-02-22T15:04:21Z</time>
      </trkpt>
      <trkpt lat="38.6828900" lon="1.4996330">
        <ele>15.1</ele>
        <time>2020-02-22T15:04:22Z</time>
      </trkpt>
      <trkpt lat="38.6828050" lon="1.4998220">
        <ele>15.1</ele>
        <time>2020-02-22T15:04:23Z</time>
      </trkpt>
      <trkpt lat="38.6828050" lon="1.4998220">
        <ele>15.1</ele>
        <time>2020-02-22T15:04:24Z</time>
      </trkpt>
      <trkpt lat="38.6827150" lon="1.5000150">
        <ele>15.1</ele>
        <time>2020-02-22T15:04:25Z</time>
      </trkpt>
      <trkpt lat="38.6827150" lon="1.5000150">
        <ele>15.1</ele>
        <time>2020-02-22T15:04:26Z</time>
      </trkpt>
      <trkpt lat="38.6826230" lon="1.5002070">
        <ele>15.1</ele>
        <time>2020-02-22T15:04:27Z</time>
      </trkpt>
      <trkpt lat="38.6826230" lon="1.5002070">
        <ele>15.1</ele>
        <time>2020-02-22T15:04:28Z</time>
      </trkpt>
      <trkpt lat="38.6825320" lon="1.5004000">
        <ele>15.1</ele>
        <time>2020-02-22T15:04:29Z</time>
      </trkpt>
      <trkpt lat="38.6825320" lon="1.5004000">
        <ele>15.1</ele>
        <time>2020-02-22T15:04:30Z</time>
      </trkpt>
      <trkpt lat="38.6824380" lon="1.5005930">
        <ele>15.1</ele>
        <time>2020-02-22T15:04:31Z</time>
      </trkpt>
      <trkpt lat="38.6823930" lon="1.5006900">
        <ele>15.1</ele>
        <time>2020-02-22T15:04:32Z</time>
      </trkpt>
      <trkpt lat="38.6823930" lon="1.5006900">
        <ele>15.1</ele>
        <time>2020-02-22T15:04:33Z</time>
      </trkpt>
      <trkpt lat="38.6823020" lon="1.5008870">
        <ele>15.1</ele>
        <time>2020-02-22T15:04:34Z</time>
      </trkpt>
      <trkpt lat="38.6822550" lon="1.5009880">
        <ele>15.1</ele>
        <time>2020-02-22T15:04:35Z</time>
      </trkpt>
      <trkpt lat="38.6822550" lon="1.5009880">
        <ele>15.1</ele>
        <time>2020-02-22T15:04:36Z</time>
      </trkpt>
      <trkpt lat="38.6821570" lon="1.5012000">
        <ele>15.1</ele>
        <time>2020-02-22T15:04:37Z</time>
      </trkpt>
      <trkpt lat="38.6821080" lon="1.5013070">
        <ele>15.1</ele>
        <time>2020-02-22T15:04:38Z</time>
      </trkpt>
      <trkpt lat="38.6821080" lon="1.5013070">
        <ele>15.1</ele>
        <time>2020-02-22T15:04:39Z</time>
      </trkpt>
      <trkpt lat="38.6820080" lon="1.5015220">
        <ele>15.1</ele>
        <time>2020-02-22T15:04:40Z</time>
      </trkpt>
      <trkpt lat="38.6820080" lon="1.5015220">
        <ele>15.1</ele>
        <time>2020-02-22T15:04:41Z</time>
      </trkpt>
      <trkpt lat="38.6819130" lon="1.5017280">
        <ele>15.1</ele>
        <time>2020-02-22T15:04:42Z</time>
      </trkpt>
      <trkpt lat="38.6818700" lon="1.5018280">
        <ele>15.1</ele>
        <time>2020-02-22T15:04:43Z</time>
      </trkpt>
      <trkpt lat="38.6818700" lon="1.5018280">
        <ele>15.1</ele>
        <time>2020-02-22T15:04:44Z</time>
      </trkpt>
      <trkpt lat="38.6817870" lon="1.5020300">
        <ele>15.1</ele>
        <time>2020-02-22T15:04:45Z</time>
      </trkpt>
      <trkpt lat="38.6817870" lon="1.5020300">
        <ele>15.1</ele>
        <time>2020-02-22T15:04:46Z</time>
      </trkpt>
      <trkpt lat="38.6816980" lon="1.5022180">
        <ele>15.1</ele>
        <time>2020-02-22T15:04:47Z</time>
      </trkpt>
      <trkpt lat="38.6816550" lon="1.5023080">
        <ele>14.1</ele>
        <time>2020-02-22T15:04:48Z</time>
      </trkpt>
      <trkpt lat="38.6816100" lon="1.5023980">
        <ele>14.1</ele>
        <time>2020-02-22T15:04:49Z</time>
      </trkpt>
      <trkpt lat="38.6816100" lon="1.5023980">
        <ele>14.1</ele>
        <time>2020-02-22T15:04:50Z</time>
      </trkpt>
      <trkpt lat="38.6815200" lon="1.5025870">
        <ele>14.1</ele>
        <time>2020-02-22T15:04:51Z</time>
      </trkpt>
      <trkpt lat="38.6815200" lon="1.5025870">
        <ele>14.1</ele>
        <time>2020-02-22T15:04:52Z</time>
      </trkpt>
      <trkpt lat="38.6814250" lon="1.5027930">
        <ele>14.1</ele>
        <time>2020-02-22T15:04:53Z</time>
      </trkpt>
      <trkpt lat="38.6813770" lon="1.5029030">
        <ele>13.1</ele>
        <time>2020-02-22T15:04:54Z</time>
      </trkpt>
      <trkpt lat="38.6813270" lon="1.5030130">
        <ele>13.1</ele>
        <time>2020-02-22T15:04:55Z</time>
      </trkpt>
      <trkpt lat="38.6813270" lon="1.5030130">
        <ele>13.1</ele>
        <time>2020-02-22T15:04:56Z</time>
      </trkpt>
      <trkpt lat="38.6812230" lon="1.5032420">
        <ele>13.1</ele>
        <time>2020-02-22T15:04:57Z</time>
      </trkpt>
      <trkpt lat="38.6812230" lon="1.5032420">
        <ele>13.1</ele>
        <time>2020-02-22T15:04:58Z</time>
      </trkpt>
      <trkpt lat="38.6811150" lon="1.5034700">
        <ele>12.1</ele>
        <time>2020-02-22T15:04:59Z</time>
      </trkpt>
      <trkpt lat="38.6810620" lon="1.5035850">
        <ele>12.1</ele>
        <time>2020-02-22T15:05:00Z</time>
      </trkpt>
      <trkpt lat="38.6810620" lon="1.5035850">
        <ele>12.1</ele>
        <time>2020-02-22T15:05:01Z</time>
      </trkpt>
      <trkpt lat="38.6809520" lon="1.5038130">
        <ele>12.1</ele>
        <time>2020-02-22T15:05:02Z</time>
      </trkpt>
      <trkpt lat="38.6809000" lon="1.5039300">
        <ele>11.1</ele>
        <time>2020-02-22T15:05:03Z</time>
      </trkpt>
      <trkpt lat="38.6809000" lon="1.5039300">
        <ele>11.1</ele>
        <time>2020-02-22T15:05:04Z</time>
      </trkpt>
      <trkpt lat="38.6807970" lon="1.5041580">
        <ele>11.1</ele>
        <time>2020-02-22T15:05:05Z</time>
      </trkpt>
      <trkpt lat="38.6807970" lon="1.5041580">
        <ele>11.1</ele>
        <time>2020-02-22T15:05:06Z</time>
      </trkpt>
      <trkpt lat="38.6807030" lon="1.5043830">
        <ele>11.1</ele>
        <time>2020-02-22T15:05:07Z</time>
      </trkpt>
      <trkpt lat="38.6807030" lon="1.5043830">
        <ele>11.1</ele>
        <time>2020-02-22T15:05:08Z</time>
      </trkpt>
      <trkpt lat="38.6806130" lon="1.5046120">
        <ele>11.1</ele>
        <time>2020-02-22T15:05:09Z</time>
      </trkpt>
      <trkpt lat="38.6806130" lon="1.5046120">
        <ele>11.1</ele>
        <time>2020-02-22T15:05:10Z</time>
      </trkpt>
      <trkpt lat="38.6805230" lon="1.5048520">
        <ele>10.1</ele>
        <time>2020-02-22T15:05:11Z</time>
      </trkpt>
      <trkpt lat="38.6805230" lon="1.5048520">
        <ele>10.1</ele>
        <time>2020-02-22T15:05:12Z</time>
      </trkpt>
      <trkpt lat="38.6804370" lon="1.5051050">
        <ele>10.1</ele>
        <time>2020-02-22T15:05:13Z</time>
      </trkpt>
      <trkpt lat="38.6803930" lon="1.5052350">
        <ele>10.1</ele>
        <time>2020-02-22T15:05:14Z</time>
      </trkpt>
      <trkpt lat="38.6803930" lon="1.5052350">
        <ele>10.1</ele>
        <time>2020-02-22T15:05:15Z</time>
      </trkpt>
      <trkpt lat="38.6803170" lon="1.5054980">
        <ele>10.1</ele>
        <time>2020-02-22T15:05:16Z</time>
      </trkpt>
      <trkpt lat="38.6803170" lon="1.5054980">
        <ele>9.1</ele>
        <time>2020-02-22T15:05:17Z</time>
      </trkpt>
      <trkpt lat="38.6802420" lon="1.5057650">
        <ele>9.1</ele>
        <time>2020-02-22T15:05:18Z</time>
      </trkpt>
      <trkpt lat="38.6802030" lon="1.5058950">
        <ele>9.1</ele>
        <time>2020-02-22T15:05:19Z</time>
      </trkpt>
      <trkpt lat="38.6801670" lon="1.5060230">
        <ele>9.1</ele>
        <time>2020-02-22T15:05:20Z</time>
      </trkpt>
      <trkpt lat="38.6801670" lon="1.5060230">
        <ele>9.1</ele>
        <time>2020-02-22T15:05:21Z</time>
      </trkpt>
      <trkpt lat="38.6800950" lon="1.5062680">
        <ele>8.1</ele>
        <time>2020-02-22T15:05:22Z</time>
      </trkpt>
      <trkpt lat="38.6800950" lon="1.5062680">
        <ele>8.1</ele>
        <time>2020-02-22T15:05:23Z</time>
      </trkpt>
      <trkpt lat="38.6800230" lon="1.5065120">
        <ele>8.1</ele>
        <time>2020-02-22T15:05:24Z</time>
      </trkpt>
      <trkpt lat="38.6799850" lon="1.5066350">
        <ele>8.1</ele>
        <time>2020-02-22T15:05:25Z</time>
      </trkpt>
      <trkpt lat="38.6799850" lon="1.5066350">
        <ele>8.1</ele>
        <time>2020-02-22T15:05:26Z</time>
      </trkpt>
      <trkpt lat="38.6799130" lon="1.5068750">
        <ele>8.1</ele>
        <time>2020-02-22T15:05:27Z</time>
      </trkpt>
      <trkpt lat="38.6799130" lon="1.5068750">
        <ele>7.1</ele>
        <time>2020-02-22T15:05:28Z</time>
      </trkpt>
      <trkpt lat="38.6798480" lon="1.5071050">
        <ele>7.1</ele>
        <time>2020-02-22T15:05:29Z</time>
      </trkpt>
      <trkpt lat="38.6798480" lon="1.5071050">
        <ele>7.1</ele>
        <time>2020-02-22T15:05:30Z</time>
      </trkpt>
      <trkpt lat="38.6797850" lon="1.5073300">
        <ele>7.1</ele>
        <time>2020-02-22T15:05:31Z</time>
      </trkpt>
      <trkpt lat="38.6797850" lon="1.5073300">
        <ele>7.1</ele>
        <time>2020-02-22T15:05:32Z</time>
      </trkpt>
      <trkpt lat="38.6797270" lon="1.5075570">
        <ele>7.1</ele>
        <time>2020-02-22T15:05:33Z</time>
      </trkpt>
      <trkpt lat="38.6796970" lon="1.5076720">
        <ele>7.1</ele>
        <time>2020-02-22T15:05:34Z</time>
      </trkpt>
      <trkpt lat="38.6796970" lon="1.5076720">
        <ele>7.1</ele>
        <time>2020-02-22T15:05:35Z</time>
      </trkpt>
      <trkpt lat="38.6796330" lon="1.5079070">
        <ele>7.1</ele>
        <time>2020-02-22T15:05:36Z</time>
      </trkpt>
      <trkpt lat="38.6796330" lon="1.5079070">
        <ele>7.1</ele>
        <time>2020-02-22T15:05:37Z</time>
      </trkpt>
      <trkpt lat="38.6795670" lon="1.5081450">
        <ele>7.1</ele>
        <time>2020-02-22T15:05:38Z</time>
      </trkpt>
      <trkpt lat="38.6795300" lon="1.5082650">
        <ele>7.1</ele>
        <time>2020-02-22T15:05:39Z</time>
      </trkpt>
      <trkpt lat="38.6794930" lon="1.5083850">
        <ele>7.1</ele>
        <time>2020-02-22T15:05:40Z</time>
      </trkpt>
      <trkpt lat="38.6794930" lon="1.5083850">
        <ele>7.1</ele>
        <time>2020-02-22T15:05:41Z</time>
      </trkpt>
      <trkpt lat="38.6794250" lon="1.5086250">
        <ele>7.1</ele>
        <time>2020-02-22T15:05:42Z</time>
      </trkpt>
      <trkpt lat="38.6794250" lon="1.5086250">
        <ele>7.1</ele>
        <time>2020-02-22T15:05:43Z</time>
      </trkpt>
      <trkpt lat="38.6793530" lon="1.5088630">
        <ele>7.1</ele>
        <time>2020-02-22T15:05:44Z</time>
      </trkpt>
      <trkpt lat="38.6793180" lon="1.5089830">
        <ele>7.1</ele>
        <time>2020-02-22T15:05:45Z</time>
      </trkpt>
      <trkpt lat="38.6792800" lon="1.5091030">
        <ele>7.1</ele>
        <time>2020-02-22T15:05:46Z</time>
      </trkpt>
      <trkpt lat="38.6792800" lon="1.5091030">
        <ele>7.1</ele>
        <time>2020-02-22T15:05:47Z</time>
      </trkpt>
      <trkpt lat="38.6792070" lon="1.5093470">
        <ele>7.1</ele>
        <time>2020-02-22T15:05:48Z</time>
      </trkpt>
      <trkpt lat="38.6791730" lon="1.5094670">
        <ele>7.1</ele>
        <time>2020-02-22T15:05:49Z</time>
      </trkpt>
      <trkpt lat="38.6791400" lon="1.5095870">
        <ele>7.1</ele>
        <time>2020-02-22T15:05:50Z</time>
      </trkpt>
      <trkpt lat="38.6791400" lon="1.5095870">
        <ele>7.1</ele>
        <time>2020-02-22T15:05:51Z</time>
      </trkpt>
      <trkpt lat="38.6790700" lon="1.5098280">
        <ele>7.1</ele>
        <time>2020-02-22T15:05:52Z</time>
      </trkpt>
      <trkpt lat="38.6790350" lon="1.5099450">
        <ele>7.1</ele>
        <time>2020-02-22T15:05:53Z</time>
      </trkpt>
      <trkpt lat="38.6790350" lon="1.5099450">
        <ele>7.1</ele>
        <time>2020-02-22T15:05:54Z</time>
      </trkpt>
      <trkpt lat="38.6789670" lon="1.5101800">
        <ele>7.1</ele>
        <time>2020-02-22T15:05:55Z</time>
      </trkpt>
      <trkpt lat="38.6789300" lon="1.5103000">
        <ele>7.1</ele>
        <time>2020-02-22T15:05:56Z</time>
      </trkpt>
      <trkpt lat="38.6789300" lon="1.5103000">
        <ele>7.1</ele>
        <time>2020-02-22T15:05:57Z</time>
      </trkpt>
      <trkpt lat="38.6788570" lon="1.5105400">
        <ele>7.1</ele>
        <time>2020-02-22T15:05:58Z</time>
      </trkpt>
      <trkpt lat="38.6788200" lon="1.5106580">
        <ele>7.1</ele>
        <time>2020-02-22T15:05:59Z</time>
      </trkpt>
      <trkpt lat="38.6788200" lon="1.5106580">
        <ele>7.1</ele>
        <time>2020-02-22T15:06:00Z</time>
      </trkpt>
      <trkpt lat="38.6787470" lon="1.5108970">
        <ele>7.1</ele>
        <time>2020-02-22T15:06:01Z</time>
      </trkpt>
      <trkpt lat="38.6787130" lon="1.5110150">
        <ele>7.1</ele>
        <time>2020-02-22T15:06:02Z</time>
      </trkpt>
      <trkpt lat="38.6787130" lon="1.5110150">
        <ele>7.1</ele>
        <time>2020-02-22T15:06:03Z</time>
      </trkpt>
      <trkpt lat="38.6786420" lon="1.5112520">
        <ele>7.1</ele>
        <time>2020-02-22T15:06:04Z</time>
      </trkpt>
      <trkpt lat="38.6786070" lon="1.5113730">
        <ele>7.1</ele>
        <time>2020-02-22T15:06:05Z</time>
      </trkpt>
      <trkpt lat="38.6786070" lon="1.5113730">
        <ele>7.1</ele>
        <time>2020-02-22T15:06:06Z</time>
      </trkpt>
      <trkpt lat="38.6785330" lon="1.5116130">
        <ele>6.1</ele>
        <time>2020-02-22T15:06:07Z</time>
      </trkpt>
      <trkpt lat="38.6785330" lon="1.5116130">
        <ele>6.1</ele>
        <time>2020-02-22T15:06:08Z</time>
      </trkpt>
      <trkpt lat="38.6784650" lon="1.5118570">
        <ele>6.1</ele>
        <time>2020-02-22T15:06:09Z</time>
      </trkpt>
      <trkpt lat="38.6784650" lon="1.5118570">
        <ele>6.1</ele>
        <time>2020-02-22T15:06:10Z</time>
      </trkpt>
      <trkpt lat="38.6783930" lon="1.5121020">
        <ele>6.1</ele>
        <time>2020-02-22T15:06:11Z</time>
      </trkpt>
      <trkpt lat="38.6783930" lon="1.5121020">
        <ele>6.1</ele>
        <time>2020-02-22T15:06:12Z</time>
      </trkpt>
      <trkpt lat="38.6783230" lon="1.5123430">
        <ele>6.1</ele>
        <time>2020-02-22T15:06:13Z</time>
      </trkpt>
      <trkpt lat="38.6782900" lon="1.5124630">
        <ele>6.1</ele>
        <time>2020-02-22T15:06:14Z</time>
      </trkpt>
      <trkpt lat="38.6782900" lon="1.5124630">
        <ele>6.1</ele>
        <time>2020-02-22T15:06:15Z</time>
      </trkpt>
      <trkpt lat="38.6782200" lon="1.5127000">
        <ele>6.1</ele>
        <time>2020-02-22T15:06:16Z</time>
      </trkpt>
      <trkpt lat="38.6781870" lon="1.5128150">
        <ele>6.1</ele>
        <time>2020-02-22T15:06:17Z</time>
      </trkpt>
      <trkpt lat="38.6781870" lon="1.5128150">
        <ele>6.1</ele>
        <time>2020-02-22T15:06:18Z</time>
      </trkpt>
      <trkpt lat="38.6781180" lon="1.5130450">
        <ele>6.1</ele>
        <time>2020-02-22T15:06:19Z</time>
      </trkpt>
      <trkpt lat="38.6780830" lon="1.5131580">
        <ele>6.1</ele>
        <time>2020-02-22T15:06:20Z</time>
      </trkpt>
      <trkpt lat="38.6780830" lon="1.5131580">
        <ele>6.1</ele>
        <time>2020-02-22T15:06:21Z</time>
      </trkpt>
      <trkpt lat="38.6780170" lon="1.5133900">
        <ele>6.1</ele>
        <time>2020-02-22T15:06:22Z</time>
      </trkpt>
      <trkpt lat="38.6779820" lon="1.5135050">
        <ele>6.1</ele>
        <time>2020-02-22T15:06:23Z</time>
      </trkpt>
      <trkpt lat="38.6779820" lon="1.5135050">
        <ele>6.1</ele>
        <time>2020-02-22T15:06:24Z</time>
      </trkpt>
      <trkpt lat="38.6779150" lon="1.5137330">
        <ele>6.1</ele>
        <time>2020-02-22T15:06:25Z</time>
      </trkpt>
      <trkpt lat="38.6778800" lon="1.5138480">
        <ele>6.1</ele>
        <time>2020-02-22T15:06:26Z</time>
      </trkpt>
      <trkpt lat="38.6778480" lon="1.5139630">
        <ele>6.1</ele>
        <time>2020-02-22T15:06:27Z</time>
      </trkpt>
      <trkpt lat="38.6778480" lon="1.5139630">
        <ele>6.1</ele>
        <time>2020-02-22T15:06:28Z</time>
      </trkpt>
      <trkpt lat="38.6777820" lon="1.5141920">
        <ele>6.1</ele>
        <time>2020-02-22T15:06:29Z</time>
      </trkpt>
      <trkpt lat="38.6777480" lon="1.5143050">
        <ele>6.1</ele>
        <time>2020-02-22T15:06:30Z</time>
      </trkpt>
      <trkpt lat="38.6777480" lon="1.5143050">
        <ele>6.1</ele>
        <time>2020-02-22T15:06:31Z</time>
      </trkpt>
      <trkpt lat="38.6776720" lon="1.5145370">
        <ele>6.1</ele>
        <time>2020-02-22T15:06:32Z</time>
      </trkpt>
      <trkpt lat="38.6776370" lon="1.5146550">
        <ele>6.1</ele>
        <time>2020-02-22T15:06:33Z</time>
      </trkpt>
      <trkpt lat="38.6776370" lon="1.5146550">
        <ele>6.1</ele>
        <time>2020-02-22T15:06:34Z</time>
      </trkpt>
      <trkpt lat="38.6775700" lon="1.5148870">
        <ele>6.1</ele>
        <time>2020-02-22T15:06:35Z</time>
      </trkpt>
      <trkpt lat="38.6775330" lon="1.5150020">
        <ele>6.1</ele>
        <time>2020-02-22T15:06:36Z</time>
      </trkpt>
      <trkpt lat="38.6775330" lon="1.5150020">
        <ele>6.1</ele>
        <time>2020-02-22T15:06:37Z</time>
      </trkpt>
      <trkpt lat="38.6774570" lon="1.5152270">
        <ele>6.1</ele>
        <time>2020-02-22T15:06:38Z</time>
      </trkpt>
      <trkpt lat="38.6774220" lon="1.5153370">
        <ele>6.1</ele>
        <time>2020-02-22T15:06:39Z</time>
      </trkpt>
      <trkpt lat="38.6774220" lon="1.5153370">
        <ele>6.1</ele>
        <time>2020-02-22T15:06:40Z</time>
      </trkpt>
      <trkpt lat="38.6773530" lon="1.5155550">
        <ele>6.1</ele>
        <time>2020-02-22T15:06:41Z</time>
      </trkpt>
      <trkpt lat="38.6773220" lon="1.5156630">
        <ele>6.1</ele>
        <time>2020-02-22T15:06:42Z</time>
      </trkpt>
      <trkpt lat="38.6773220" lon="1.5156630">
        <ele>6.1</ele>
        <time>2020-02-22T15:06:43Z</time>
      </trkpt>
      <trkpt lat="38.6772550" lon="1.5158780">
        <ele>6.1</ele>
        <time>2020-02-22T15:06:44Z</time>
      </trkpt>
      <trkpt lat="38.6772550" lon="1.5158780">
        <ele>6.1</ele>
        <time>2020-02-22T15:06:45Z</time>
      </trkpt>
      <trkpt lat="38.6771900" lon="1.5160930">
        <ele>6.1</ele>
        <time>2020-02-22T15:06:46Z</time>
      </trkpt>
      <trkpt lat="38.6771570" lon="1.5161980">
        <ele>6.1</ele>
        <time>2020-02-22T15:06:47Z</time>
      </trkpt>
      <trkpt lat="38.6771570" lon="1.5161980">
        <ele>6.1</ele>
        <time>2020-02-22T15:06:48Z</time>
      </trkpt>
      <trkpt lat="38.6770900" lon="1.5164170">
        <ele>6.1</ele>
        <time>2020-02-22T15:06:49Z</time>
      </trkpt>
      <trkpt lat="38.6770570" lon="1.5165300">
        <ele>6.1</ele>
        <time>2020-02-22T15:06:50Z</time>
      </trkpt>
      <trkpt lat="38.6770570" lon="1.5165300">
        <ele>6.1</ele>
        <time>2020-02-22T15:06:51Z</time>
      </trkpt>
      <trkpt lat="38.6769750" lon="1.5167550">
        <ele>6.1</ele>
        <time>2020-02-22T15:06:52Z</time>
      </trkpt>
      <trkpt lat="38.6769750" lon="1.5167550">
        <ele>6.1</ele>
        <time>2020-02-22T15:06:53Z</time>
      </trkpt>
      <trkpt lat="38.6768770" lon="1.5169630">
        <ele>6.1</ele>
        <time>2020-02-22T15:06:54Z</time>
      </trkpt>
      <trkpt lat="38.6768770" lon="1.5169630">
        <ele>6.1</ele>
        <time>2020-02-22T15:06:55Z</time>
      </trkpt>
      <trkpt lat="38.6767580" lon="1.5171520">
        <ele>6.1</ele>
        <time>2020-02-22T15:06:56Z</time>
      </trkpt>
      <trkpt lat="38.6766930" lon="1.5172380">
        <ele>6.1</ele>
        <time>2020-02-22T15:06:57Z</time>
      </trkpt>
      <trkpt lat="38.6766930" lon="1.5172380">
        <ele>6.1</ele>
        <time>2020-02-22T15:06:58Z</time>
      </trkpt>
      <trkpt lat="38.6765580" lon="1.5173970">
        <ele>6.1</ele>
        <time>2020-02-22T15:06:59Z</time>
      </trkpt>
      <trkpt lat="38.6765580" lon="1.5173970">
        <ele>6.1</ele>
        <time>2020-02-22T15:07:00Z</time>
      </trkpt>
      <trkpt lat="38.6764230" lon="1.5175450">
        <ele>7.1</ele>
        <time>2020-02-22T15:07:01Z</time>
      </trkpt>
      <trkpt lat="38.6763570" lon="1.5176170">
        <ele>7.1</ele>
        <time>2020-02-22T15:07:02Z</time>
      </trkpt>
      <trkpt lat="38.6763570" lon="1.5176170">
        <ele>7.1</ele>
        <time>2020-02-22T15:07:03Z</time>
      </trkpt>
      <trkpt lat="38.6762270" lon="1.5177580">
        <ele>7.1</ele>
        <time>2020-02-22T15:07:04Z</time>
      </trkpt>
      <trkpt lat="38.6761620" lon="1.5178270">
        <ele>8.1</ele>
        <time>2020-02-22T15:07:05Z</time>
      </trkpt>
      <trkpt lat="38.6761620" lon="1.5178270">
        <ele>8.1</ele>
        <time>2020-02-22T15:07:06Z</time>
      </trkpt>
      <trkpt lat="38.6760330" lon="1.5179580">
        <ele>8.1</ele>
        <time>2020-02-22T15:07:07Z</time>
      </trkpt>
      <trkpt lat="38.6759680" lon="1.5180220">
        <ele>8.1</ele>
        <time>2020-02-22T15:07:08Z</time>
      </trkpt>
      <trkpt lat="38.6759680" lon="1.5180220">
        <ele>9.1</ele>
        <time>2020-02-22T15:07:09Z</time>
      </trkpt>
      <trkpt lat="38.6758370" lon="1.5181520">
        <ele>9.1</ele>
        <time>2020-02-22T15:07:10Z</time>
      </trkpt>
      <trkpt lat="38.6758370" lon="1.5181520">
        <ele>9.1</ele>
        <time>2020-02-22T15:07:11Z</time>
      </trkpt>
      <trkpt lat="38.6757080" lon="1.5182800">
        <ele>9.1</ele>
        <time>2020-02-22T15:07:12Z</time>
      </trkpt>
      <trkpt lat="38.6756370" lon="1.5183450">
        <ele>9.1</ele>
        <time>2020-02-22T15:07:13Z</time>
      </trkpt>
      <trkpt lat="38.6756370" lon="1.5183450">
        <ele>10.1</ele>
        <time>2020-02-22T15:07:14Z</time>
      </trkpt>
      <trkpt lat="38.6755030" lon="1.5184800">
        <ele>10.1</ele>
        <time>2020-02-22T15:07:15Z</time>
      </trkpt>
      <trkpt lat="38.6755030" lon="1.5184800">
        <ele>10.1</ele>
        <time>2020-02-22T15:07:16Z</time>
      </trkpt>
      <trkpt lat="38.6753820" lon="1.5186130">
        <ele>11.1</ele>
        <time>2020-02-22T15:07:17Z</time>
      </trkpt>
      <trkpt lat="38.6753820" lon="1.5186130">
        <ele>11.1</ele>
        <time>2020-02-22T15:07:18Z</time>
      </trkpt>
      <trkpt lat="38.6752670" lon="1.5187420">
        <ele>11.1</ele>
        <time>2020-02-22T15:07:19Z</time>
      </trkpt>
      <trkpt lat="38.6752670" lon="1.5187420">
        <ele>11.1</ele>
        <time>2020-02-22T15:07:20Z</time>
      </trkpt>
      <trkpt lat="38.6751550" lon="1.5188670">
        <ele>11.1</ele>
        <time>2020-02-22T15:07:21Z</time>
      </trkpt>
      <trkpt lat="38.6751550" lon="1.5188670">
        <ele>12.1</ele>
        <time>2020-02-22T15:07:22Z</time>
      </trkpt>
      <trkpt lat="38.6750450" lon="1.5189870">
        <ele>12.1</ele>
        <time>2020-02-22T15:07:23Z</time>
      </trkpt>
      <trkpt lat="38.6749900" lon="1.5190430">
        <ele>12.1</ele>
        <time>2020-02-22T15:07:24Z</time>
      </trkpt>
      <trkpt lat="38.6749900" lon="1.5190430">
        <ele>12.1</ele>
        <time>2020-02-22T15:07:25Z</time>
      </trkpt>
      <trkpt lat="38.6748820" lon="1.5191630">
        <ele>13.1</ele>
        <time>2020-02-22T15:07:26Z</time>
      </trkpt>
      <trkpt lat="38.6748270" lon="1.5192250">
        <ele>13.1</ele>
        <time>2020-02-22T15:07:27Z</time>
      </trkpt>
      <trkpt lat="38.6748270" lon="1.5192250">
        <ele>13.1</ele>
        <time>2020-02-22T15:07:28Z</time>
      </trkpt>
      <trkpt lat="38.6747170" lon="1.5193530">
        <ele>13.1</ele>
        <time>2020-02-22T15:07:29Z</time>
      </trkpt>
      <trkpt lat="38.6747170" lon="1.5193530">
        <ele>14.1</ele>
        <time>2020-02-22T15:07:30Z</time>
      </trkpt>
      <trkpt lat="38.6746020" lon="1.5194780">
        <ele>14.1</ele>
        <time>2020-02-22T15:07:31Z</time>
      </trkpt>
      <trkpt lat="38.6746020" lon="1.5194780">
        <ele>14.1</ele>
        <time>2020-02-22T15:07:32Z</time>
      </trkpt>
      <trkpt lat="38.6744830" lon="1.5196020">
        <ele>14.1</ele>
        <time>2020-02-22T15:07:33Z</time>
      </trkpt>
      <trkpt lat="38.6744830" lon="1.5196020">
        <ele>14.1</ele>
        <time>2020-02-22T15:07:34Z</time>
      </trkpt>
      <trkpt lat="38.6743580" lon="1.5197220">
        <ele>14.1</ele>
        <time>2020-02-22T15:07:35Z</time>
      </trkpt>
      <trkpt lat="38.6742950" lon="1.5197820">
        <ele>14.1</ele>
        <time>2020-02-22T15:07:36Z</time>
      </trkpt>
      <trkpt lat="38.6742950" lon="1.5197820">
        <ele>14.1</ele>
        <time>2020-02-22T15:07:37Z</time>
      </trkpt>
      <trkpt lat="38.6741630" lon="1.5198970">
        <ele>14.1</ele>
        <time>2020-02-22T15:07:38Z</time>
      </trkpt>
      <trkpt lat="38.6741630" lon="1.5198970">
        <ele>15.1</ele>
        <time>2020-02-22T15:07:39Z</time>
      </trkpt>
      <trkpt lat="38.6740320" lon="1.5200050">
        <ele>15.1</ele>
        <time>2020-02-22T15:07:40Z</time>
      </trkpt>
      <trkpt lat="38.6740320" lon="1.5200050">
        <ele>15.1</ele>
        <time>2020-02-22T15:07:41Z</time>
      </trkpt>
      <trkpt lat="38.6738950" lon="1.5200970">
        <ele>15.1</ele>
        <time>2020-02-22T15:07:42Z</time>
      </trkpt>
      <trkpt lat="38.6738950" lon="1.5200970">
        <ele>15.1</ele>
        <time>2020-02-22T15:07:43Z</time>
      </trkpt>
      <trkpt lat="38.6737500" lon="1.5201500">
        <ele>15.1</ele>
        <time>2020-02-22T15:07:44Z</time>
      </trkpt>
      <trkpt lat="38.6736750" lon="1.5201630">
        <ele>16.1</ele>
        <time>2020-02-22T15:07:45Z</time>
      </trkpt>
      <trkpt lat="38.6736750" lon="1.5201630">
        <ele>16.1</ele>
        <time>2020-02-22T15:07:46Z</time>
      </trkpt>
      <trkpt lat="38.6735220" lon="1.5201650">
        <ele>16.1</ele>
        <time>2020-02-22T15:07:47Z</time>
      </trkpt>
      <trkpt lat="38.6734480" lon="1.5201580">
        <ele>16.1</ele>
        <time>2020-02-22T15:07:48Z</time>
      </trkpt>
      <trkpt lat="38.6734480" lon="1.5201580">
        <ele>17.1</ele>
        <time>2020-02-22T15:07:49Z</time>
      </trkpt>
      <trkpt lat="38.6733000" lon="1.5201380">
        <ele>17.1</ele>
        <time>2020-02-22T15:07:50Z</time>
      </trkpt>
      <trkpt lat="38.6732250" lon="1.5201280">
        <ele>17.1</ele>
        <time>2020-02-22T15:07:51Z</time>
      </trkpt>
      <trkpt lat="38.6732250" lon="1.5201280">
        <ele>17.1</ele>
        <time>2020-02-22T15:07:52Z</time>
      </trkpt>
      <trkpt lat="38.6730800" lon="1.5200980">
        <ele>18.1</ele>
        <time>2020-02-22T15:07:53Z</time>
      </trkpt>
      <trkpt lat="38.6730800" lon="1.5200980">
        <ele>18.1</ele>
        <time>2020-02-22T15:07:54Z</time>
      </trkpt>
      <trkpt lat="38.6729450" lon="1.5200670">
        <ele>18.1</ele>
        <time>2020-02-22T15:07:55Z</time>
      </trkpt>
      <trkpt lat="38.6728780" lon="1.5200500">
        <ele>19.1</ele>
        <time>2020-02-22T15:07:56Z</time>
      </trkpt>
      <trkpt lat="38.6728780" lon="1.5200500">
        <ele>19.1</ele>
        <time>2020-02-22T15:07:57Z</time>
      </trkpt>
      <trkpt lat="38.6727430" lon="1.5200180">
        <ele>19.1</ele>
        <time>2020-02-22T15:07:58Z</time>
      </trkpt>
      <trkpt lat="38.6726750" lon="1.5200050">
        <ele>19.1</ele>
        <time>2020-02-22T15:07:59Z</time>
      </trkpt>
      <trkpt lat="38.6726750" lon="1.5200050">
        <ele>20.1</ele>
        <time>2020-02-22T15:08:00Z</time>
      </trkpt>
      <trkpt lat="38.6725430" lon="1.5199780">
        <ele>20.1</ele>
        <time>2020-02-22T15:08:01Z</time>
      </trkpt>
      <trkpt lat="38.6725430" lon="1.5199780">
        <ele>20.1</ele>
        <time>2020-02-22T15:08:02Z</time>
      </trkpt>
      <trkpt lat="38.6724150" lon="1.5199500">
        <ele>20.1</ele>
        <time>2020-02-22T15:08:03Z</time>
      </trkpt>
      <trkpt lat="38.6723570" lon="1.5199370">
        <ele>21.1</ele>
        <time>2020-02-22T15:08:04Z</time>
      </trkpt>
      <trkpt lat="38.6723570" lon="1.5199370">
        <ele>21.1</ele>
        <time>2020-02-22T15:08:05Z</time>
      </trkpt>
      <trkpt lat="38.6722380" lon="1.5199100">
        <ele>21.1</ele>
        <time>2020-02-22T15:08:06Z</time>
      </trkpt>
      <trkpt lat="38.6722380" lon="1.5199100">
        <ele>21.1</ele>
        <time>2020-02-22T15:08:07Z</time>
      </trkpt>
      <trkpt lat="38.6721200" lon="1.5198800">
        <ele>21.1</ele>
        <time>2020-02-22T15:08:08Z</time>
      </trkpt>
      <trkpt lat="38.6720600" lon="1.5198650">
        <ele>22.1</ele>
        <time>2020-02-22T15:08:09Z</time>
      </trkpt>
      <trkpt lat="38.6720600" lon="1.5198650">
        <ele>22.1</ele>
        <time>2020-02-22T15:08:10Z</time>
      </trkpt>
      <trkpt lat="38.6719430" lon="1.5198380">
        <ele>22.1</ele>
        <time>2020-02-22T15:08:11Z</time>
      </trkpt>
      <trkpt lat="38.6718870" lon="1.5198230">
        <ele>22.1</ele>
        <time>2020-02-22T15:08:12Z</time>
      </trkpt>
      <trkpt lat="38.6718870" lon="1.5198230">
        <ele>24.1</ele>
        <time>2020-02-22T15:08:13Z</time>
      </trkpt>
      <trkpt lat="38.6717720" lon="1.5198030">
        <ele>24.1</ele>
        <time>2020-02-22T15:08:14Z</time>
      </trkpt>
      <trkpt lat="38.6717720" lon="1.5198030">
        <ele>24.1</ele>
        <time>2020-02-22T15:08:15Z</time>
      </trkpt>
      <trkpt lat="38.6716620" lon="1.5197780">
        <ele>24.1</ele>
        <time>2020-02-22T15:08:16Z</time>
      </trkpt>
      <trkpt lat="38.6716620" lon="1.5197780">
        <ele>25.1</ele>
        <time>2020-02-22T15:08:17Z</time>
      </trkpt>
      <trkpt lat="38.6715470" lon="1.5197530">
        <ele>25.1</ele>
        <time>2020-02-22T15:08:18Z</time>
      </trkpt>
      <trkpt lat="38.6715470" lon="1.5197530">
        <ele>25.1</ele>
        <time>2020-02-22T15:08:19Z</time>
      </trkpt>
      <trkpt lat="38.6714350" lon="1.5197280">
        <ele>25.1</ele>
        <time>2020-02-22T15:08:20Z</time>
      </trkpt>
      <trkpt lat="38.6714350" lon="1.5197280">
        <ele>26.1</ele>
        <time>2020-02-22T15:08:21Z</time>
      </trkpt>
      <trkpt lat="38.6713300" lon="1.5197000">
        <ele>26.1</ele>
        <time>2020-02-22T15:08:22Z</time>
      </trkpt>
      <trkpt lat="38.6712770" lon="1.5196920">
        <ele>26.1</ele>
        <time>2020-02-22T15:08:23Z</time>
      </trkpt>
      <trkpt lat="38.6712770" lon="1.5196920">
        <ele>26.1</ele>
        <time>2020-02-22T15:08:24Z</time>
      </trkpt>
      <trkpt lat="38.6711680" lon="1.5196770">
        <ele>27.1</ele>
        <time>2020-02-22T15:08:25Z</time>
      </trkpt>
      <trkpt lat="38.6711680" lon="1.5196770">
        <ele>27.1</ele>
        <time>2020-02-22T15:08:26Z</time>
      </trkpt>
      <trkpt lat="38.6710620" lon="1.5196600">
        <ele>27.1</ele>
        <time>2020-02-22T15:08:27Z</time>
      </trkpt>
      <trkpt lat="38.6710620" lon="1.5196600">
        <ele>27.1</ele>
        <time>2020-02-22T15:08:28Z</time>
      </trkpt>
      <trkpt lat="38.6709530" lon="1.5196370">
        <ele>28.1</ele>
        <time>2020-02-22T15:08:29Z</time>
      </trkpt>
      <trkpt lat="38.6709530" lon="1.5196370">
        <ele>28.1</ele>
        <time>2020-02-22T15:08:30Z</time>
      </trkpt>
      <trkpt lat="38.6708500" lon="1.5196130">
        <ele>28.1</ele>
        <time>2020-02-22T15:08:31Z</time>
      </trkpt>
      <trkpt lat="38.6707980" lon="1.5196070">
        <ele>30.1</ele>
        <time>2020-02-22T15:08:32Z</time>
      </trkpt>
      <trkpt lat="38.6707980" lon="1.5196070">
        <ele>30.1</ele>
        <time>2020-02-22T15:08:33Z</time>
      </trkpt>
      <trkpt lat="38.6706880" lon="1.5195870">
        <ele>30.1</ele>
        <time>2020-02-22T15:08:34Z</time>
      </trkpt>
      <trkpt lat="38.6706880" lon="1.5195870">
        <ele>30.1</ele>
        <time>2020-02-22T15:08:35Z</time>
      </trkpt>
      <trkpt lat="38.6705900" lon="1.5195680">
        <ele>31.1</ele>
        <time>2020-02-22T15:08:36Z</time>
      </trkpt>
      <trkpt lat="38.6705400" lon="1.5195580">
        <ele>31.1</ele>
        <time>2020-02-22T15:08:37Z</time>
      </trkpt>
      <trkpt lat="38.6705400" lon="1.5195580">
        <ele>31.1</ele>
        <time>2020-02-22T15:08:38Z</time>
      </trkpt>
      <trkpt lat="38.6704350" lon="1.5195480">
        <ele>31.1</ele>
        <time>2020-02-22T15:08:39Z</time>
      </trkpt>
      <trkpt lat="38.6703830" lon="1.5195380">
        <ele>32.1</ele>
        <time>2020-02-22T15:08:40Z</time>
      </trkpt>
      <trkpt lat="38.6703830" lon="1.5195380">
        <ele>32.1</ele>
        <time>2020-02-22T15:08:41Z</time>
      </trkpt>
      <trkpt lat="38.6702870" lon="1.5195030">
        <ele>33.1</ele>
        <time>2020-02-22T15:08:42Z</time>
      </trkpt>
      <trkpt lat="38.6702870" lon="1.5195030">
        <ele>33.1</ele>
        <time>2020-02-22T15:08:43Z</time>
      </trkpt>
      <trkpt lat="38.6701970" lon="1.5194550">
        <ele>33.1</ele>
        <time>2020-02-22T15:08:44Z</time>
      </trkpt>
      <trkpt lat="38.6701570" lon="1.5194250">
        <ele>33.1</ele>
        <time>2020-02-22T15:08:45Z</time>
      </trkpt>
      <trkpt lat="38.6701570" lon="1.5194250">
        <ele>34.1</ele>
        <time>2020-02-22T15:08:46Z</time>
      </trkpt>
      <trkpt lat="38.6700730" lon="1.5193570">
        <ele>34.1</ele>
        <time>2020-02-22T15:08:47Z</time>
      </trkpt>
      <trkpt lat="38.6700350" lon="1.5193170">
        <ele>35.1</ele>
        <time>2020-02-22T15:08:48Z</time>
      </trkpt>
      <trkpt lat="38.6700350" lon="1.5193170">
        <ele>35.1</ele>
        <time>2020-02-22T15:08:49Z</time>
      </trkpt>
      <trkpt lat="38.6699620" lon="1.5192270">
        <ele>35.1</ele>
        <time>2020-02-22T15:08:50Z</time>
      </trkpt>
      <trkpt lat="38.6699620" lon="1.5192270">
        <ele>37.1</ele>
        <time>2020-02-22T15:08:51Z</time>
      </trkpt>
      <trkpt lat="38.6698950" lon="1.5191350">
        <ele>37.1</ele>
        <time>2020-02-22T15:08:52Z</time>
      </trkpt>
      <trkpt lat="38.6698950" lon="1.5191350">
        <ele>37.1</ele>
        <time>2020-02-22T15:08:53Z</time>
      </trkpt>
      <trkpt lat="38.6698300" lon="1.5190520">
        <ele>37.1</ele>
        <time>2020-02-22T15:08:54Z</time>
      </trkpt>
      <trkpt lat="38.6698300" lon="1.5190520">
        <ele>37.1</ele>
        <time>2020-02-22T15:08:55Z</time>
      </trkpt>
      <trkpt lat="38.6697570" lon="1.5189720">
        <ele>37.1</ele>
        <time>2020-02-22T15:08:56Z</time>
      </trkpt>
      <trkpt lat="38.6697170" lon="1.5189380">
        <ele>38.1</ele>
        <time>2020-02-22T15:08:57Z</time>
      </trkpt>
      <trkpt lat="38.6697170" lon="1.5189380">
        <ele>38.1</ele>
        <time>2020-02-22T15:08:58Z</time>
      </trkpt>
      <trkpt lat="38.6696350" lon="1.5188880">
        <ele>38.1</ele>
        <time>2020-02-22T15:08:59Z</time>
      </trkpt>
      <trkpt lat="38.6695880" lon="1.5188720">
        <ele>38.1</ele>
        <time>2020-02-22T15:09:00Z</time>
      </trkpt>
      <trkpt lat="38.6695430" lon="1.5188630">
        <ele>39.1</ele>
        <time>2020-02-22T15:09:01Z</time>
      </trkpt>
      <trkpt lat="38.6695430" lon="1.5188630">
        <ele>39.1</ele>
        <time>2020-02-22T15:09:02Z</time>
      </trkpt>
      <trkpt lat="38.6694470" lon="1.5188600">
        <ele>39.1</ele>
        <time>2020-02-22T15:09:03Z</time>
      </trkpt>
      <trkpt lat="38.6694470" lon="1.5188600">
        <ele>39.1</ele>
        <time>2020-02-22T15:09:04Z</time>
      </trkpt>
      <trkpt lat="38.6693530" lon="1.5188780">
        <ele>40.1</ele>
        <time>2020-02-22T15:09:05Z</time>
      </trkpt>
      <trkpt lat="38.6693530" lon="1.5188780">
        <ele>40.1</ele>
        <time>2020-02-22T15:09:06Z</time>
      </trkpt>
      <trkpt lat="38.6692620" lon="1.5189100">
        <ele>41.1</ele>
        <time>2020-02-22T15:09:07Z</time>
      </trkpt>
      <trkpt lat="38.6692620" lon="1.5189100">
        <ele>41.1</ele>
        <time>2020-02-22T15:09:08Z</time>
      </trkpt>
      <trkpt lat="38.6691720" lon="1.5189470">
        <ele>42.1</ele>
        <time>2020-02-22T15:09:09Z</time>
      </trkpt>
      <trkpt lat="38.6691720" lon="1.5189470">
        <ele>42.1</ele>
        <time>2020-02-22T15:09:10Z</time>
      </trkpt>
      <trkpt lat="38.6690800" lon="1.5189950">
        <ele>42.1</ele>
        <time>2020-02-22T15:09:11Z</time>
      </trkpt>
      <trkpt lat="38.6690800" lon="1.5189950">
        <ele>42.1</ele>
        <time>2020-02-22T15:09:12Z</time>
      </trkpt>
      <trkpt lat="38.6689930" lon="1.5190550">
        <ele>42.1</ele>
        <time>2020-02-22T15:09:13Z</time>
      </trkpt>
      <trkpt lat="38.6689500" lon="1.5190870">
        <ele>42.1</ele>
        <time>2020-02-22T15:09:14Z</time>
      </trkpt>
      <trkpt lat="38.6689080" lon="1.5191200">
        <ele>44.1</ele>
        <time>2020-02-22T15:09:15Z</time>
      </trkpt>
      <trkpt lat="38.6689080" lon="1.5191200">
        <ele>44.1</ele>
        <time>2020-02-22T15:09:16Z</time>
      </trkpt>
      <trkpt lat="38.6688330" lon="1.5191830">
        <ele>44.1</ele>
        <time>2020-02-22T15:09:17Z</time>
      </trkpt>
      <trkpt lat="38.6688330" lon="1.5191830">
        <ele>44.1</ele>
        <time>2020-02-22T15:09:18Z</time>
      </trkpt>
      <trkpt lat="38.6687550" lon="1.5192430">
        <ele>44.1</ele>
        <time>2020-02-22T15:09:19Z</time>
      </trkpt>
      <trkpt lat="38.6687150" lon="1.5192630">
        <ele>45.1</ele>
        <time>2020-02-22T15:09:20Z</time>
      </trkpt>
      <trkpt lat="38.6687150" lon="1.5192630">
        <ele>45.1</ele>
        <time>2020-02-22T15:09:21Z</time>
      </trkpt>
      <trkpt lat="38.6686350" lon="1.5193020">
        <ele>45.1</ele>
        <time>2020-02-22T15:09:22Z</time>
      </trkpt>
      <trkpt lat="38.6686350" lon="1.5193020">
        <ele>45.1</ele>
        <time>2020-02-22T15:09:23Z</time>
      </trkpt>
      <trkpt lat="38.6685450" lon="1.5193300">
        <ele>45.1</ele>
        <time>2020-02-22T15:09:24Z</time>
      </trkpt>
      <trkpt lat="38.6685450" lon="1.5193300">
        <ele>46.1</ele>
        <time>2020-02-22T15:09:25Z</time>
      </trkpt>
      <trkpt lat="38.6684520" lon="1.5193480">
        <ele>46.1</ele>
        <time>2020-02-22T15:09:26Z</time>
      </trkpt>
      <trkpt lat="38.6684520" lon="1.5193480">
        <ele>47.1</ele>
        <time>2020-02-22T15:09:27Z</time>
      </trkpt>
      <trkpt lat="38.6683630" lon="1.5193680">
        <ele>47.1</ele>
        <time>2020-02-22T15:09:28Z</time>
      </trkpt>
      <trkpt lat="38.6683220" lon="1.5193770">
        <ele>47.1</ele>
        <time>2020-02-22T15:09:29Z</time>
      </trkpt>
      <trkpt lat="38.6683220" lon="1.5193770">
        <ele>48.1</ele>
        <time>2020-02-22T15:09:30Z</time>
      </trkpt>
      <trkpt lat="38.6682450" lon="1.5194130">
        <ele>48.1</ele>
        <time>2020-02-22T15:09:31Z</time>
      </trkpt>
      <trkpt lat="38.6682450" lon="1.5194130">
        <ele>48.1</ele>
        <time>2020-02-22T15:09:32Z</time>
      </trkpt>
      <trkpt lat="38.6681770" lon="1.5194850">
        <ele>48.1</ele>
        <time>2020-02-22T15:09:33Z</time>
      </trkpt>
      <trkpt lat="38.6681770" lon="1.5194850">
        <ele>49.1</ele>
        <time>2020-02-22T15:09:34Z</time>
      </trkpt>
      <trkpt lat="38.6681300" lon="1.5195850">
        <ele>49.1</ele>
        <time>2020-02-22T15:09:35Z</time>
      </trkpt>
      <trkpt lat="38.6681300" lon="1.5195850">
        <ele>49.1</ele>
        <time>2020-02-22T15:09:36Z</time>
      </trkpt>
      <trkpt lat="38.6681230" lon="1.5196900">
        <ele>49.1</ele>
        <time>2020-02-22T15:09:37Z</time>
      </trkpt>
      <trkpt lat="38.6681230" lon="1.5196900">
        <ele>50.1</ele>
        <time>2020-02-22T15:09:38Z</time>
      </trkpt>
      <trkpt lat="38.6681680" lon="1.5197800">
        <ele>50.1</ele>
        <time>2020-02-22T15:09:39Z</time>
      </trkpt>
      <trkpt lat="38.6682020" lon="1.5198200">
        <ele>50.1</ele>
        <time>2020-02-22T15:09:40Z</time>
      </trkpt>
      <trkpt lat="38.6682020" lon="1.5198200">
        <ele>50.1</ele>
        <time>2020-02-22T15:09:41Z</time>
      </trkpt>
      <trkpt lat="38.6682650" lon="1.5198970">
        <ele>51.1</ele>
        <time>2020-02-22T15:09:42Z</time>
      </trkpt>
      <trkpt lat="38.6682650" lon="1.5198970">
        <ele>51.1</ele>
        <time>2020-02-22T15:09:43Z</time>
      </trkpt>
      <trkpt lat="38.6683230" lon="1.5199750">
        <ele>51.1</ele>
        <time>2020-02-22T15:09:44Z</time>
      </trkpt>
      <trkpt lat="38.6683550" lon="1.5200170">
        <ele>52.1</ele>
        <time>2020-02-22T15:09:45Z</time>
      </trkpt>
      <trkpt lat="38.6683550" lon="1.5200170">
        <ele>52.1</ele>
        <time>2020-02-22T15:09:46Z</time>
      </trkpt>
      <trkpt lat="38.6684100" lon="1.5200980">
        <ele>52.1</ele>
        <time>2020-02-22T15:09:47Z</time>
      </trkpt>
      <trkpt lat="38.6684420" lon="1.5201400">
        <ele>53.1</ele>
        <time>2020-02-22T15:09:48Z</time>
      </trkpt>
      <trkpt lat="38.6684770" lon="1.5201780">
        <ele>53.1</ele>
        <time>2020-02-22T15:09:49Z</time>
      </trkpt>
      <trkpt lat="38.6684770" lon="1.5201780">
        <ele>53.1</ele>
        <time>2020-02-22T15:09:50Z</time>
      </trkpt>
      <trkpt lat="38.6685480" lon="1.5202500">
        <ele>53.1</ele>
        <time>2020-02-22T15:09:51Z</time>
      </trkpt>
      <trkpt lat="38.6685480" lon="1.5202500">
        <ele>54.1</ele>
        <time>2020-02-22T15:09:52Z</time>
      </trkpt>
      <trkpt lat="38.6686130" lon="1.5203230">
        <ele>54.1</ele>
        <time>2020-02-22T15:09:53Z</time>
      </trkpt>
      <trkpt lat="38.6686130" lon="1.5203230">
        <ele>54.1</ele>
        <time>2020-02-22T15:09:54Z</time>
      </trkpt>
      <trkpt lat="38.6686650" lon="1.5204030">
        <ele>54.1</ele>
        <time>2020-02-22T15:09:55Z</time>
      </trkpt>
      <trkpt lat="38.6686650" lon="1.5204030">
        <ele>56.1</ele>
        <time>2020-02-22T15:09:56Z</time>
      </trkpt>
      <trkpt lat="38.6687150" lon="1.5204920">
        <ele>56.1</ele>
        <time>2020-02-22T15:09:57Z</time>
      </trkpt>
      <trkpt lat="38.6687150" lon="1.5204920">
        <ele>56.1</ele>
        <time>2020-02-22T15:09:58Z</time>
      </trkpt>
      <trkpt lat="38.6687500" lon="1.5205900">
        <ele>56.1</ele>
        <time>2020-02-22T15:09:59Z</time>
      </trkpt>
      <trkpt lat="38.6687670" lon="1.5206370">
        <ele>56.1</ele>
        <time>2020-02-22T15:10:00Z</time>
      </trkpt>
      <trkpt lat="38.6687670" lon="1.5206370">
        <ele>56.1</ele>
        <time>2020-02-22T15:10:01Z</time>
      </trkpt>
      <trkpt lat="38.6687830" lon="1.5207380">
        <ele>57.1</ele>
        <time>2020-02-22T15:10:02Z</time>
      </trkpt>
      <trkpt lat="38.6687830" lon="1.5207380">
        <ele>57.1</ele>
        <time>2020-02-22T15:10:03Z</time>
      </trkpt>
      <trkpt lat="38.6687920" lon="1.5208400">
        <ele>57.1</ele>
        <time>2020-02-22T15:10:04Z</time>
      </trkpt>
      <trkpt lat="38.6687950" lon="1.5208930">
        <ele>57.1</ele>
        <time>2020-02-22T15:10:05Z</time>
      </trkpt>
      <trkpt lat="38.6687950" lon="1.5208930">
        <ele>58.1</ele>
        <time>2020-02-22T15:10:06Z</time>
      </trkpt>
      <trkpt lat="38.6687930" lon="1.5209980">
        <ele>58.1</ele>
        <time>2020-02-22T15:10:07Z</time>
      </trkpt>
      <trkpt lat="38.6687930" lon="1.5209980">
        <ele>58.1</ele>
        <time>2020-02-22T15:10:08Z</time>
      </trkpt>
      <trkpt lat="38.6687650" lon="1.5210920">
        <ele>58.1</ele>
        <time>2020-02-22T15:10:09Z</time>
      </trkpt>
      <trkpt lat="38.6687650" lon="1.5210920">
        <ele>58.1</ele>
        <time>2020-02-22T15:10:10Z</time>
      </trkpt>
      <trkpt lat="38.6687000" lon="1.5211520">
        <ele>59.1</ele>
        <time>2020-02-22T15:10:11Z</time>
      </trkpt>
      <trkpt lat="38.6686620" lon="1.5211630">
        <ele>59.1</ele>
        <time>2020-02-22T15:10:12Z</time>
      </trkpt>
      <trkpt lat="38.6686620" lon="1.5211630">
        <ele>59.1</ele>
        <time>2020-02-22T15:10:13Z</time>
      </trkpt>
      <trkpt lat="38.6685830" lon="1.5211730">
        <ele>59.1</ele>
        <time>2020-02-22T15:10:14Z</time>
      </trkpt>
      <trkpt lat="38.6685420" lon="1.5211780">
        <ele>61.1</ele>
        <time>2020-02-22T15:10:15Z</time>
      </trkpt>
      <trkpt lat="38.6685420" lon="1.5211780">
        <ele>61.1</ele>
        <time>2020-02-22T15:10:16Z</time>
      </trkpt>
      <trkpt lat="38.6684600" lon="1.5211750">
        <ele>61.1</ele>
        <time>2020-02-22T15:10:17Z</time>
      </trkpt>
      <trkpt lat="38.6684600" lon="1.5211750">
        <ele>61.1</ele>
        <time>2020-02-22T15:10:18Z</time>
      </trkpt>
      <trkpt lat="38.6683770" lon="1.5211980">
        <ele>62.1</ele>
        <time>2020-02-22T15:10:19Z</time>
      </trkpt>
      <trkpt lat="38.6683400" lon="1.5212280">
        <ele>62.1</ele>
        <time>2020-02-22T15:10:20Z</time>
      </trkpt>
      <trkpt lat="38.6683400" lon="1.5212280">
        <ele>62.1</ele>
        <time>2020-02-22T15:10:21Z</time>
      </trkpt>
      <trkpt lat="38.6682820" lon="1.5213050">
        <ele>62.1</ele>
        <time>2020-02-22T15:10:22Z</time>
      </trkpt>
      <trkpt lat="38.6682820" lon="1.5213050">
        <ele>62.1</ele>
        <time>2020-02-22T15:10:23Z</time>
      </trkpt>
      <trkpt lat="38.6682570" lon="1.5214000">
        <ele>62.1</ele>
        <time>2020-02-22T15:10:24Z</time>
      </trkpt>
      <trkpt lat="38.6682600" lon="1.5214520">
        <ele>63.1</ele>
        <time>2020-02-22T15:10:25Z</time>
      </trkpt>
      <trkpt lat="38.6682600" lon="1.5214520">
        <ele>63.1</ele>
        <time>2020-02-22T15:10:26Z</time>
      </trkpt>
      <trkpt lat="38.6682620" lon="1.5215480">
        <ele>63.1</ele>
        <time>2020-02-22T15:10:27Z</time>
      </trkpt>
      <trkpt lat="38.6682620" lon="1.5215480">
        <ele>64.1</ele>
        <time>2020-02-22T15:10:28Z</time>
      </trkpt>
      <trkpt lat="38.6682730" lon="1.5216570">
        <ele>64.1</ele>
        <time>2020-02-22T15:10:29Z</time>
      </trkpt>
      <trkpt lat="38.6682730" lon="1.5216570">
        <ele>64.1</ele>
        <time>2020-02-22T15:10:30Z</time>
      </trkpt>
      <trkpt lat="38.6682920" lon="1.5217700">
        <ele>64.1</ele>
        <time>2020-02-22T15:10:31Z</time>
      </trkpt>
      <trkpt lat="38.6682920" lon="1.5217700">
        <ele>64.1</ele>
        <time>2020-02-22T15:10:32Z</time>
      </trkpt>
      <trkpt lat="38.6683080" lon="1.5218770">
        <ele>64.1</ele>
        <time>2020-02-22T15:10:33Z</time>
      </trkpt>
      <trkpt lat="38.6683080" lon="1.5218770">
        <ele>64.1</ele>
        <time>2020-02-22T15:10:34Z</time>
      </trkpt>
      <trkpt lat="38.6683470" lon="1.5219780">
        <ele>64.1</ele>
        <time>2020-02-22T15:10:35Z</time>
      </trkpt>
      <trkpt lat="38.6683470" lon="1.5219780">
        <ele>65.1</ele>
        <time>2020-02-22T15:10:36Z</time>
      </trkpt>
      <trkpt lat="38.6683980" lon="1.5220650">
        <ele>65.1</ele>
        <time>2020-02-22T15:10:37Z</time>
      </trkpt>
      <trkpt lat="38.6684250" lon="1.5221080">
        <ele>65.1</ele>
        <time>2020-02-22T15:10:38Z</time>
      </trkpt>
      <trkpt lat="38.6684250" lon="1.5221080">
        <ele>65.1</ele>
        <time>2020-02-22T15:10:39Z</time>
      </trkpt>
      <trkpt lat="38.6684780" lon="1.5221930">
        <ele>66.1</ele>
        <time>2020-02-22T15:10:40Z</time>
      </trkpt>
      <trkpt lat="38.6684780" lon="1.5221930">
        <ele>66.1</ele>
        <time>2020-02-22T15:10:41Z</time>
      </trkpt>
      <trkpt lat="38.6685350" lon="1.5222770">
        <ele>66.1</ele>
        <time>2020-02-22T15:10:42Z</time>
      </trkpt>
      <trkpt lat="38.6685630" lon="1.5223220">
        <ele>66.1</ele>
        <time>2020-02-22T15:10:43Z</time>
      </trkpt>
      <trkpt lat="38.6685930" lon="1.5223630">
        <ele>67.1</ele>
        <time>2020-02-22T15:10:44Z</time>
      </trkpt>
      <trkpt lat="38.6685930" lon="1.5223630">
        <ele>67.1</ele>
        <time>2020-02-22T15:10:45Z</time>
      </trkpt>
      <trkpt lat="38.6686470" lon="1.5224500">
        <ele>67.1</ele>
        <time>2020-02-22T15:10:46Z</time>
      </trkpt>
      <trkpt lat="38.6686750" lon="1.5224950">
        <ele>67.1</ele>
        <time>2020-02-22T15:10:47Z</time>
      </trkpt>
      <trkpt lat="38.6686750" lon="1.5224950">
        <ele>67.1</ele>
        <time>2020-02-22T15:10:48Z</time>
      </trkpt>
      <trkpt lat="38.6687350" lon="1.5225830">
        <ele>67.1</ele>
        <time>2020-02-22T15:10:49Z</time>
      </trkpt>
      <trkpt lat="38.6687350" lon="1.5225830">
        <ele>67.1</ele>
        <time>2020-02-22T15:10:50Z</time>
      </trkpt>
      <trkpt lat="38.6687950" lon="1.5226680">
        <ele>68.1</ele>
        <time>2020-02-22T15:10:51Z</time>
      </trkpt>
      <trkpt lat="38.6687950" lon="1.5226680">
        <ele>68.1</ele>
        <time>2020-02-22T15:10:52Z</time>
      </trkpt>
      <trkpt lat="38.6688570" lon="1.5227550">
        <ele>68.1</ele>
        <time>2020-02-22T15:10:53Z</time>
      </trkpt>
      <trkpt lat="38.6688870" lon="1.5228000">
        <ele>68.1</ele>
        <time>2020-02-22T15:10:54Z</time>
      </trkpt>
      <trkpt lat="38.6689150" lon="1.5228470">
        <ele>69.1</ele>
        <time>2020-02-22T15:10:55Z</time>
      </trkpt>
      <trkpt lat="38.6689350" lon="1.5228980">
        <ele>69.1</ele>
        <time>2020-02-22T15:10:56Z</time>
      </trkpt>
      <trkpt lat="38.6689350" lon="1.5228980">
        <ele>69.1</ele>
        <time>2020-02-22T15:10:57Z</time>
      </trkpt>
      <trkpt lat="38.6689670" lon="1.5230070">
        <ele>69.1</ele>
        <time>2020-02-22T15:10:58Z</time>
      </trkpt>
      <trkpt lat="38.6689670" lon="1.5230070">
        <ele>70.1</ele>
        <time>2020-02-22T15:10:59Z</time>
      </trkpt>
      <trkpt lat="38.6689850" lon="1.5231230">
        <ele>70.1</ele>
        <time>2020-02-22T15:11:00Z</time>
      </trkpt>
      <trkpt lat="38.6689930" lon="1.5231830">
        <ele>70.1</ele>
        <time>2020-02-22T15:11:01Z</time>
      </trkpt>
      <trkpt lat="38.6689930" lon="1.5231830">
        <ele>70.1</ele>
        <time>2020-02-22T15:11:02Z</time>
      </trkpt>
      <trkpt lat="38.6690100" lon="1.5232970">
        <ele>70.1</ele>
        <time>2020-02-22T15:11:03Z</time>
      </trkpt>
      <trkpt lat="38.6690100" lon="1.5232970">
        <ele>70.1</ele>
        <time>2020-02-22T15:11:04Z</time>
      </trkpt>
      <trkpt lat="38.6690480" lon="1.5234050">
        <ele>71.1</ele>
        <time>2020-02-22T15:11:05Z</time>
      </trkpt>
      <trkpt lat="38.6690480" lon="1.5234050">
        <ele>71.1</ele>
        <time>2020-02-22T15:11:06Z</time>
      </trkpt>
      <trkpt lat="38.6691000" lon="1.5235000">
        <ele>71.1</ele>
        <time>2020-02-22T15:11:07Z</time>
      </trkpt>
      <trkpt lat="38.6691000" lon="1.5235000">
        <ele>72.1</ele>
        <time>2020-02-22T15:11:08Z</time>
      </trkpt>
      <trkpt lat="38.6691670" lon="1.5235920">
        <ele>72.1</ele>
        <time>2020-02-22T15:11:09Z</time>
      </trkpt>
      <trkpt lat="38.6691670" lon="1.5235920">
        <ele>72.1</ele>
        <time>2020-02-22T15:11:10Z</time>
      </trkpt>
      <trkpt lat="38.6692420" lon="1.5236730">
        <ele>72.1</ele>
        <time>2020-02-22T15:11:11Z</time>
      </trkpt>
      <trkpt lat="38.6692420" lon="1.5236730">
        <ele>72.1</ele>
        <time>2020-02-22T15:11:12Z</time>
      </trkpt>
      <trkpt lat="38.6693200" lon="1.5237580">
        <ele>72.1</ele>
        <time>2020-02-22T15:11:13Z</time>
      </trkpt>
      <trkpt lat="38.6693200" lon="1.5237580">
        <ele>73.1</ele>
        <time>2020-02-22T15:11:14Z</time>
      </trkpt>
      <trkpt lat="38.6693980" lon="1.5238430">
        <ele>73.1</ele>
        <time>2020-02-22T15:11:15Z</time>
      </trkpt>
      <trkpt lat="38.6693980" lon="1.5238430">
        <ele>73.1</ele>
        <time>2020-02-22T15:11:16Z</time>
      </trkpt>
      <trkpt lat="38.6694750" lon="1.5239300">
        <ele>73.1</ele>
        <time>2020-02-22T15:11:17Z</time>
      </trkpt>
      <trkpt lat="38.6695100" lon="1.5239750">
        <ele>74.1</ele>
        <time>2020-02-22T15:11:18Z</time>
      </trkpt>
      <trkpt lat="38.6695480" lon="1.5240200">
        <ele>74.1</ele>
        <time>2020-02-22T15:11:19Z</time>
      </trkpt>
      <trkpt lat="38.6695480" lon="1.5240200">
        <ele>74.1</ele>
        <time>2020-02-22T15:11:20Z</time>
      </trkpt>
      <trkpt lat="38.6696170" lon="1.5241100">
        <ele>74.1</ele>
        <time>2020-02-22T15:11:21Z</time>
      </trkpt>
      <trkpt lat="38.6696170" lon="1.5241100">
        <ele>74.1</ele>
        <time>2020-02-22T15:11:22Z</time>
      </trkpt>
      <trkpt lat="38.6696700" lon="1.5242120">
        <ele>74.1</ele>
        <time>2020-02-22T15:11:23Z</time>
      </trkpt>
      <trkpt lat="38.6696700" lon="1.5242120">
        <ele>74.1</ele>
        <time>2020-02-22T15:11:24Z</time>
      </trkpt>
      <trkpt lat="38.6697080" lon="1.5243120">
        <ele>74.1</ele>
        <time>2020-02-22T15:11:25Z</time>
      </trkpt>
      <trkpt lat="38.6697080" lon="1.5243120">
        <ele>74.1</ele>
        <time>2020-02-22T15:11:26Z</time>
      </trkpt>
      <trkpt lat="38.6697480" lon="1.5244130">
        <ele>75.1</ele>
        <time>2020-02-22T15:11:27Z</time>
      </trkpt>
      <trkpt lat="38.6697480" lon="1.5244130">
        <ele>75.1</ele>
        <time>2020-02-22T15:11:28Z</time>
      </trkpt>
      <trkpt lat="38.6697920" lon="1.5245120">
        <ele>75.1</ele>
        <time>2020-02-22T15:11:29Z</time>
      </trkpt>
      <trkpt lat="38.6697920" lon="1.5245120">
        <ele>75.1</ele>
        <time>2020-02-22T15:11:30Z</time>
      </trkpt>
      <trkpt lat="38.6698220" lon="1.5246130">
        <ele>76.1</ele>
        <time>2020-02-22T15:11:31Z</time>
      </trkpt>
      <trkpt lat="38.6698220" lon="1.5246130">
        <ele>76.1</ele>
        <time>2020-02-22T15:11:32Z</time>
      </trkpt>
      <trkpt lat="38.6698600" lon="1.5247130">
        <ele>76.1</ele>
        <time>2020-02-22T15:11:33Z</time>
      </trkpt>
      <trkpt lat="38.6698600" lon="1.5247130">
        <ele>76.1</ele>
        <time>2020-02-22T15:11:34Z</time>
      </trkpt>
      <trkpt lat="38.6698650" lon="1.5248300">
        <ele>78.1</ele>
        <time>2020-02-22T15:11:35Z</time>
      </trkpt>
      <trkpt lat="38.6698650" lon="1.5248300">
        <ele>78.1</ele>
        <time>2020-02-22T15:11:36Z</time>
      </trkpt>
      <trkpt lat="38.6698550" lon="1.5249470">
        <ele>78.1</ele>
        <time>2020-02-22T15:11:37Z</time>
      </trkpt>
      <trkpt lat="38.6698550" lon="1.5249470">
        <ele>78.1</ele>
        <time>2020-02-22T15:11:38Z</time>
      </trkpt>
      <trkpt lat="38.6698380" lon="1.5250550">
        <ele>78.1</ele>
        <time>2020-02-22T15:11:39Z</time>
      </trkpt>
      <trkpt lat="38.6698380" lon="1.5250550">
        <ele>78.1</ele>
        <time>2020-02-22T15:11:40Z</time>
      </trkpt>
      <trkpt lat="38.6698230" lon="1.5251600">
        <ele>78.1</ele>
        <time>2020-02-22T15:11:41Z</time>
      </trkpt>
      <trkpt lat="38.6698180" lon="1.5252150">
        <ele>78.1</ele>
        <time>2020-02-22T15:11:42Z</time>
      </trkpt>
      <trkpt lat="38.6698120" lon="1.5252700">
        <ele>78.1</ele>
        <time>2020-02-22T15:11:43Z</time>
      </trkpt>
      <trkpt lat="38.6698120" lon="1.5252700">
        <ele>80.1</ele>
        <time>2020-02-22T15:11:44Z</time>
      </trkpt>
      <trkpt lat="38.6697970" lon="1.5253770">
        <ele>80.1</ele>
        <time>2020-02-22T15:11:45Z</time>
      </trkpt>
      <trkpt lat="38.6697850" lon="1.5254300">
        <ele>80.1</ele>
        <time>2020-02-22T15:11:46Z</time>
      </trkpt>
      <trkpt lat="38.6697730" lon="1.5254830">
        <ele>80.1</ele>
        <time>2020-02-22T15:11:47Z</time>
      </trkpt>
      <trkpt lat="38.6697730" lon="1.5254830">
        <ele>81.1</ele>
        <time>2020-02-22T15:11:48Z</time>
      </trkpt>
      <trkpt lat="38.6697520" lon="1.5255900">
        <ele>81.1</ele>
        <time>2020-02-22T15:11:49Z</time>
      </trkpt>
      <trkpt lat="38.6697400" lon="1.5256420">
        <ele>81.1</ele>
        <time>2020-02-22T15:11:50Z</time>
      </trkpt>
      <trkpt lat="38.6697400" lon="1.5256420">
        <ele>81.1</ele>
        <time>2020-02-22T15:11:51Z</time>
      </trkpt>
      <trkpt lat="38.6697200" lon="1.5257370">
        <ele>81.1</ele>
        <time>2020-02-22T15:11:52Z</time>
      </trkpt>
      <trkpt lat="38.6697050" lon="1.5257800">
        <ele>81.1</ele>
        <time>2020-02-22T15:11:53Z</time>
      </trkpt>
      <trkpt lat="38.6697050" lon="1.5257800">
        <ele>82.1</ele>
        <time>2020-02-22T15:11:54Z</time>
      </trkpt>
      <trkpt lat="38.6696720" lon="1.5258680">
        <ele>82.1</ele>
        <time>2020-02-22T15:11:55Z</time>
      </trkpt>
      <trkpt lat="38.6696720" lon="1.5258680">
        <ele>82.1</ele>
        <time>2020-02-22T15:11:56Z</time>
      </trkpt>
      <trkpt lat="38.6696350" lon="1.5259500">
        <ele>82.1</ele>
        <time>2020-02-22T15:11:57Z</time>
      </trkpt>
      <trkpt lat="38.6696200" lon="1.5259900">
        <ele>83.1</ele>
        <time>2020-02-22T15:11:58Z</time>
      </trkpt>
      <trkpt lat="38.6696200" lon="1.5259900">
        <ele>83.1</ele>
        <time>2020-02-22T15:11:59Z</time>
      </trkpt>
      <trkpt lat="38.6695830" lon="1.5260620">
        <ele>83.1</ele>
        <time>2020-02-22T15:12:00Z</time>
      </trkpt>
      <trkpt lat="38.6695830" lon="1.5260620">
        <ele>83.1</ele>
        <time>2020-02-22T15:12:01Z</time>
      </trkpt>
      <trkpt lat="38.6695430" lon="1.5261370">
        <ele>84.1</ele>
        <time>2020-02-22T15:12:02Z</time>
      </trkpt>
      <trkpt lat="38.6695250" lon="1.5261730">
        <ele>85.1</ele>
        <time>2020-02-22T15:12:03Z</time>
      </trkpt>
      <trkpt lat="38.6695070" lon="1.5262080">
        <ele>85.1</ele>
        <time>2020-02-22T15:12:04Z</time>
      </trkpt>
      <trkpt lat="38.6695070" lon="1.5262080">
        <ele>85.1</ele>
        <time>2020-02-22T15:12:05Z</time>
      </trkpt>
      <trkpt lat="38.6694680" lon="1.5262820">
        <ele>85.1</ele>
        <time>2020-02-22T15:12:06Z</time>
      </trkpt>
      <trkpt lat="38.6694500" lon="1.5263170">
        <ele>86.1</ele>
        <time>2020-02-22T15:12:07Z</time>
      </trkpt>
      <trkpt lat="38.6694300" lon="1.5263530">
        <ele>86.1</ele>
        <time>2020-02-22T15:12:08Z</time>
      </trkpt>
      <trkpt lat="38.6694300" lon="1.5263530">
        <ele>87.1</ele>
        <time>2020-02-22T15:12:09Z</time>
      </trkpt>
      <trkpt lat="38.6693980" lon="1.5264370">
        <ele>87.1</ele>
        <time>2020-02-22T15:12:10Z</time>
      </trkpt>
      <trkpt lat="38.6693980" lon="1.5264370">
        <ele>87.1</ele>
        <time>2020-02-22T15:12:11Z</time>
      </trkpt>
      <trkpt lat="38.6693600" lon="1.5265120">
        <ele>87.1</ele>
        <time>2020-02-22T15:12:12Z</time>
      </trkpt>
      <trkpt lat="38.6693420" lon="1.5265500">
        <ele>87.1</ele>
        <time>2020-02-22T15:12:13Z</time>
      </trkpt>
      <trkpt lat="38.6693420" lon="1.5265500">
        <ele>87.1</ele>
        <time>2020-02-22T15:12:14Z</time>
      </trkpt>
      <trkpt lat="38.6692970" lon="1.5266230">
        <ele>87.1</ele>
        <time>2020-02-22T15:12:15Z</time>
      </trkpt>
      <trkpt lat="38.6692970" lon="1.5266230">
        <ele>87.1</ele>
        <time>2020-02-22T15:12:16Z</time>
      </trkpt>
      <trkpt lat="38.6692570" lon="1.5266950">
        <ele>88.1</ele>
        <time>2020-02-22T15:12:17Z</time>
      </trkpt>
      <trkpt lat="38.6692320" lon="1.5267250">
        <ele>88.1</ele>
        <time>2020-02-22T15:12:18Z</time>
      </trkpt>
      <trkpt lat="38.6692320" lon="1.5267250">
        <ele>88.1</ele>
        <time>2020-02-22T15:12:19Z</time>
      </trkpt>
      <trkpt lat="38.6691880" lon="1.5267930">
        <ele>88.1</ele>
        <time>2020-02-22T15:12:20Z</time>
      </trkpt>
      <trkpt lat="38.6691700" lon="1.5268330">
        <ele>89.1</ele>
        <time>2020-02-22T15:12:21Z</time>
      </trkpt>
      <trkpt lat="38.6691700" lon="1.5268330">
        <ele>89.1</ele>
        <time>2020-02-22T15:12:22Z</time>
      </trkpt>
      <trkpt lat="38.6691300" lon="1.5269030">
        <ele>89.1</ele>
        <time>2020-02-22T15:12:23Z</time>
      </trkpt>
      <trkpt lat="38.6691150" lon="1.5269400">
        <ele>90.1</ele>
        <time>2020-02-22T15:12:24Z</time>
      </trkpt>
      <trkpt lat="38.6691150" lon="1.5269400">
        <ele>90.1</ele>
        <time>2020-02-22T15:12:25Z</time>
      </trkpt>
      <trkpt lat="38.6690820" lon="1.5270070">
        <ele>91.1</ele>
        <time>2020-02-22T15:12:26Z</time>
      </trkpt>
      <trkpt lat="38.6690820" lon="1.5270070">
        <ele>91.1</ele>
        <time>2020-02-22T15:12:27Z</time>
      </trkpt>
      <trkpt lat="38.6690480" lon="1.5270770">
        <ele>91.1</ele>
        <time>2020-02-22T15:12:28Z</time>
      </trkpt>
      <trkpt lat="38.6690480" lon="1.5270770">
        <ele>91.1</ele>
        <time>2020-02-22T15:12:29Z</time>
      </trkpt>
      <trkpt lat="38.6690050" lon="1.5271450">
        <ele>92.1</ele>
        <time>2020-02-22T15:12:30Z</time>
      </trkpt>
      <trkpt lat="38.6690050" lon="1.5271450">
        <ele>92.1</ele>
        <time>2020-02-22T15:12:31Z</time>
      </trkpt>
      <trkpt lat="38.6689720" lon="1.5272170">
        <ele>93.1</ele>
        <time>2020-02-22T15:12:32Z</time>
      </trkpt>
      <trkpt lat="38.6689570" lon="1.5272470">
        <ele>93.1</ele>
        <time>2020-02-22T15:12:33Z</time>
      </trkpt>
      <trkpt lat="38.6689570" lon="1.5272470">
        <ele>93.1</ele>
        <time>2020-02-22T15:12:34Z</time>
      </trkpt>
      <trkpt lat="38.6689130" lon="1.5273100">
        <ele>93.1</ele>
        <time>2020-02-22T15:12:35Z</time>
      </trkpt>
      <trkpt lat="38.6689130" lon="1.5273100">
        <ele>94.1</ele>
        <time>2020-02-22T15:12:36Z</time>
      </trkpt>
      <trkpt lat="38.6688600" lon="1.5273550">
        <ele>94.1</ele>
        <time>2020-02-22T15:12:37Z</time>
      </trkpt>
      <trkpt lat="38.6688280" lon="1.5273670">
        <ele>95.1</ele>
        <time>2020-02-22T15:12:38Z</time>
      </trkpt>
      <trkpt lat="38.6688000" lon="1.5273770">
        <ele>95.1</ele>
        <time>2020-02-22T15:12:39Z</time>
      </trkpt>
      <trkpt lat="38.6688000" lon="1.5273770">
        <ele>95.1</ele>
        <time>2020-02-22T15:12:40Z</time>
      </trkpt>
      <trkpt lat="38.6687400" lon="1.5274000">
        <ele>96.1</ele>
        <time>2020-02-22T15:12:41Z</time>
      </trkpt>
      <trkpt lat="38.6687400" lon="1.5274000">
        <ele>96.1</ele>
        <time>2020-02-22T15:12:42Z</time>
      </trkpt>
      <trkpt lat="38.6686770" lon="1.5274080">
        <ele>96.1</ele>
        <time>2020-02-22T15:12:43Z</time>
      </trkpt>
      <trkpt lat="38.6686400" lon="1.5274100">
        <ele>96.1</ele>
        <time>2020-02-22T15:12:44Z</time>
      </trkpt>
      <trkpt lat="38.6686400" lon="1.5274100">
        <ele>98.1</ele>
        <time>2020-02-22T15:12:45Z</time>
      </trkpt>
      <trkpt lat="38.6685730" lon="1.5274100">
        <ele>98.1</ele>
        <time>2020-02-22T15:12:46Z</time>
      </trkpt>
      <trkpt lat="38.6685730" lon="1.5274100">
        <ele>98.1</ele>
        <time>2020-02-22T15:12:47Z</time>
      </trkpt>
      <trkpt lat="38.6685100" lon="1.5274020">
        <ele>98.1</ele>
        <time>2020-02-22T15:12:48Z</time>
      </trkpt>
      <trkpt lat="38.6684770" lon="1.5274000">
        <ele>99.1</ele>
        <time>2020-02-22T15:12:49Z</time>
      </trkpt>
      <trkpt lat="38.6684770" lon="1.5274000">
        <ele>99.1</ele>
        <time>2020-02-22T15:12:50Z</time>
      </trkpt>
      <trkpt lat="38.6684120" lon="1.5273880">
        <ele>99.1</ele>
        <time>2020-02-22T15:12:51Z</time>
      </trkpt>
      <trkpt lat="38.6684120" lon="1.5273880">
        <ele>99.1</ele>
        <time>2020-02-22T15:12:52Z</time>
      </trkpt>
      <trkpt lat="38.6683430" lon="1.5273700">
        <ele>99.1</ele>
        <time>2020-02-22T15:12:53Z</time>
      </trkpt>
      <trkpt lat="38.6683430" lon="1.5273700">
        <ele>99.1</ele>
        <time>2020-02-22T15:12:54Z</time>
      </trkpt>
      <trkpt lat="38.6682780" lon="1.5273420">
        <ele>99.1</ele>
        <time>2020-02-22T15:12:55Z</time>
      </trkpt>
      <trkpt lat="38.6682470" lon="1.5273280">
        <ele>100.1</ele>
        <time>2020-02-22T15:12:56Z</time>
      </trkpt>
      <trkpt lat="38.6682170" lon="1.5273130">
        <ele>100.1</ele>
        <time>2020-02-22T15:12:57Z</time>
      </trkpt>
      <trkpt lat="38.6682170" lon="1.5273130">
        <ele>100.1</ele>
        <time>2020-02-22T15:12:58Z</time>
      </trkpt>
      <trkpt lat="38.6681530" lon="1.5272820">
        <ele>101.1</ele>
        <time>2020-02-22T15:12:59Z</time>
      </trkpt>
      <trkpt lat="38.6681530" lon="1.5272820">
        <ele>101.1</ele>
        <time>2020-02-22T15:13:00Z</time>
      </trkpt>
      <trkpt lat="38.6681030" lon="1.5272400">
        <ele>101.1</ele>
        <time>2020-02-22T15:13:01Z</time>
      </trkpt>
      <trkpt lat="38.6681030" lon="1.5272400">
        <ele>101.1</ele>
        <time>2020-02-22T15:13:02Z</time>
      </trkpt>
      <trkpt lat="38.6680530" lon="1.5271920">
        <ele>101.1</ele>
        <time>2020-02-22T15:13:03Z</time>
      </trkpt>
      <trkpt lat="38.6680530" lon="1.5271920">
        <ele>101.1</ele>
        <time>2020-02-22T15:13:04Z</time>
      </trkpt>
      <trkpt lat="38.6680070" lon="1.5271370">
        <ele>102.1</ele>
        <time>2020-02-22T15:13:05Z</time>
      </trkpt>
      <trkpt lat="38.6679770" lon="1.5271120">
        <ele>102.1</ele>
        <time>2020-02-22T15:13:06Z</time>
      </trkpt>
      <trkpt lat="38.6679480" lon="1.5270870">
        <ele>102.1</ele>
        <time>2020-02-22T15:13:07Z</time>
      </trkpt>
      <trkpt lat="38.6679480" lon="1.5270870">
        <ele>102.1</ele>
        <time>2020-02-22T15:13:08Z</time>
      </trkpt>
      <trkpt lat="38.6678920" lon="1.5270420">
        <ele>103.1</ele>
        <time>2020-02-22T15:13:09Z</time>
      </trkpt>
      <trkpt lat="38.6678920" lon="1.5270420">
        <ele>103.1</ele>
        <time>2020-02-22T15:13:10Z</time>
      </trkpt>
      <trkpt lat="38.6678300" lon="1.5270130">
        <ele>103.1</ele>
        <time>2020-02-22T15:13:11Z</time>
      </trkpt>
      <trkpt lat="38.6677980" lon="1.5270070">
        <ele>103.1</ele>
        <time>2020-02-22T15:13:12Z</time>
      </trkpt>
      <trkpt lat="38.6677980" lon="1.5270070">
        <ele>104.1</ele>
        <time>2020-02-22T15:13:13Z</time>
      </trkpt>
      <trkpt lat="38.6677350" lon="1.5269970">
        <ele>105.1</ele>
        <time>2020-02-22T15:13:14Z</time>
      </trkpt>
      <trkpt lat="38.6677050" lon="1.5269920">
        <ele>105.1</ele>
        <time>2020-02-22T15:13:15Z</time>
      </trkpt>
      <trkpt lat="38.6677050" lon="1.5269920">
        <ele>105.1</ele>
        <time>2020-02-22T15:13:16Z</time>
      </trkpt>
      <trkpt lat="38.6676420" lon="1.5269950">
        <ele>105.1</ele>
        <time>2020-02-22T15:13:17Z</time>
      </trkpt>
      <trkpt lat="38.6676420" lon="1.5269950">
        <ele>106.1</ele>
        <time>2020-02-22T15:13:18Z</time>
      </trkpt>
      <trkpt lat="38.6675820" lon="1.5270120">
        <ele>106.1</ele>
        <time>2020-02-22T15:13:19Z</time>
      </trkpt>
      <trkpt lat="38.6675480" lon="1.5270270">
        <ele>106.1</ele>
        <time>2020-02-22T15:13:20Z</time>
      </trkpt>
      <trkpt lat="38.6675480" lon="1.5270270">
        <ele>106.1</ele>
        <time>2020-02-22T15:13:21Z</time>
      </trkpt>
      <trkpt lat="38.6674930" lon="1.5270730">
        <ele>106.1</ele>
        <time>2020-02-22T15:13:22Z</time>
      </trkpt>
      <trkpt lat="38.6674930" lon="1.5270730">
        <ele>107.1</ele>
        <time>2020-02-22T15:13:23Z</time>
      </trkpt>
      <trkpt lat="38.6674530" lon="1.5271370">
        <ele>107.1</ele>
        <time>2020-02-22T15:13:24Z</time>
      </trkpt>
      <trkpt lat="38.6674530" lon="1.5271370">
        <ele>107.1</ele>
        <time>2020-02-22T15:13:25Z</time>
      </trkpt>
      <trkpt lat="38.6674280" lon="1.5271970">
        <ele>107.1</ele>
        <time>2020-02-22T15:13:26Z</time>
      </trkpt>
      <trkpt lat="38.6674180" lon="1.5272280">
        <ele>108.1</ele>
        <time>2020-02-22T15:13:27Z</time>
      </trkpt>
      <trkpt lat="38.6674180" lon="1.5272280">
        <ele>108.1</ele>
        <time>2020-02-22T15:13:28Z</time>
      </trkpt>
      <trkpt lat="38.6674080" lon="1.5273000">
        <ele>108.1</ele>
        <time>2020-02-22T15:13:29Z</time>
      </trkpt>
      <trkpt lat="38.6674080" lon="1.5273000">
        <ele>108.1</ele>
        <time>2020-02-22T15:13:30Z</time>
      </trkpt>
      <trkpt lat="38.6674120" lon="1.5273830">
        <ele>109.1</ele>
        <time>2020-02-22T15:13:31Z</time>
      </trkpt>
      <trkpt lat="38.6674120" lon="1.5273830">
        <ele>109.1</ele>
        <time>2020-02-22T15:13:32Z</time>
      </trkpt>
      <trkpt lat="38.6674270" lon="1.5274670">
        <ele>109.1</ele>
        <time>2020-02-22T15:13:33Z</time>
      </trkpt>
      <trkpt lat="38.6674270" lon="1.5274670">
        <ele>109.1</ele>
        <time>2020-02-22T15:13:34Z</time>
      </trkpt>
      <trkpt lat="38.6674530" lon="1.5275400">
        <ele>110.1</ele>
        <time>2020-02-22T15:13:35Z</time>
      </trkpt>
      <trkpt lat="38.6674530" lon="1.5275400">
        <ele>110.1</ele>
        <time>2020-02-22T15:13:36Z</time>
      </trkpt>
      <trkpt lat="38.6674820" lon="1.5276100">
        <ele>110.1</ele>
        <time>2020-02-22T15:13:37Z</time>
      </trkpt>
      <trkpt lat="38.6675050" lon="1.5276400">
        <ele>111.1</ele>
        <time>2020-02-22T15:13:38Z</time>
      </trkpt>
      <trkpt lat="38.6675050" lon="1.5276400">
        <ele>111.1</ele>
        <time>2020-02-22T15:13:39Z</time>
      </trkpt>
      <trkpt lat="38.6675580" lon="1.5276950">
        <ele>111.1</ele>
        <time>2020-02-22T15:13:40Z</time>
      </trkpt>
      <trkpt lat="38.6675850" lon="1.5277230">
        <ele>111.1</ele>
        <time>2020-02-22T15:13:41Z</time>
      </trkpt>
      <trkpt lat="38.6675850" lon="1.5277230">
        <ele>112.1</ele>
        <time>2020-02-22T15:13:42Z</time>
      </trkpt>
      <trkpt lat="38.6676420" lon="1.5277730">
        <ele>112.1</ele>
        <time>2020-02-22T15:13:43Z</time>
      </trkpt>
      <trkpt lat="38.6676420" lon="1.5277730">
        <ele>112.1</ele>
        <time>2020-02-22T15:13:44Z</time>
      </trkpt>
      <trkpt lat="38.6676970" lon="1.5278220">
        <ele>112.1</ele>
        <time>2020-02-22T15:13:45Z</time>
      </trkpt>
      <trkpt lat="38.6676970" lon="1.5278220">
        <ele>113.1</ele>
        <time>2020-02-22T15:13:46Z</time>
      </trkpt>
      <trkpt lat="38.6677480" lon="1.5278720">
        <ele>113.1</ele>
        <time>2020-02-22T15:13:47Z</time>
      </trkpt>
      <trkpt lat="38.6677480" lon="1.5278720">
        <ele>113.1</ele>
        <time>2020-02-22T15:13:48Z</time>
      </trkpt>
      <trkpt lat="38.6678130" lon="1.5279130">
        <ele>113.1</ele>
        <time>2020-02-22T15:13:49Z</time>
      </trkpt>
      <trkpt lat="38.6678130" lon="1.5279130">
        <ele>114.1</ele>
        <time>2020-02-22T15:13:50Z</time>
      </trkpt>
      <trkpt lat="38.6678720" lon="1.5279480">
        <ele>114.1</ele>
        <time>2020-02-22T15:13:51Z</time>
      </trkpt>
      <trkpt lat="38.6678720" lon="1.5279480">
        <ele>114.1</ele>
        <time>2020-02-22T15:13:52Z</time>
      </trkpt>
      <trkpt lat="38.6679380" lon="1.5279680">
        <ele>114.1</ele>
        <time>2020-02-22T15:13:53Z</time>
      </trkpt>
      <trkpt lat="38.6679380" lon="1.5279680">
        <ele>114.1</ele>
        <time>2020-02-22T15:13:54Z</time>
      </trkpt>
      <trkpt lat="38.6680100" lon="1.5279770">
        <ele>115.1</ele>
        <time>2020-02-22T15:13:55Z</time>
      </trkpt>
      <trkpt lat="38.6680470" lon="1.5279820">
        <ele>115.1</ele>
        <time>2020-02-22T15:13:56Z</time>
      </trkpt>
      <trkpt lat="38.6680470" lon="1.5279820">
        <ele>115.1</ele>
        <time>2020-02-22T15:13:57Z</time>
      </trkpt>
      <trkpt lat="38.6681250" lon="1.5280050">
        <ele>115.1</ele>
        <time>2020-02-22T15:13:58Z</time>
      </trkpt>
      <trkpt lat="38.6681250" lon="1.5280050">
        <ele>116.1</ele>
        <time>2020-02-22T15:13:59Z</time>
      </trkpt>
      <trkpt lat="38.6681980" lon="1.5280280">
        <ele>116.1</ele>
        <time>2020-02-22T15:14:00Z</time>
      </trkpt>
      <trkpt lat="38.6682330" lon="1.5280420">
        <ele>116.1</ele>
        <time>2020-02-22T15:14:01Z</time>
      </trkpt>
      <trkpt lat="38.6682670" lon="1.5280620">
        <ele>116.1</ele>
        <time>2020-02-22T15:14:02Z</time>
      </trkpt>
      <trkpt lat="38.6683000" lon="1.5280820">
        <ele>117.1</ele>
        <time>2020-02-22T15:14:03Z</time>
      </trkpt>
      <trkpt lat="38.6683000" lon="1.5280820">
        <ele>117.1</ele>
        <time>2020-02-22T15:14:04Z</time>
      </trkpt>
      <trkpt lat="38.6683680" lon="1.5281220">
        <ele>117.1</ele>
        <time>2020-02-22T15:14:05Z</time>
      </trkpt>
      <trkpt lat="38.6684000" lon="1.5281450">
        <ele>117.1</ele>
        <time>2020-02-22T15:14:06Z</time>
      </trkpt>
      <trkpt lat="38.6684000" lon="1.5281450">
        <ele>117.1</ele>
        <time>2020-02-22T15:14:07Z</time>
      </trkpt>
      <trkpt lat="38.6684670" lon="1.5281930">
        <ele>117.1</ele>
        <time>2020-02-22T15:14:08Z</time>
      </trkpt>
      <trkpt lat="38.6685000" lon="1.5282170">
        <ele>117.1</ele>
        <time>2020-02-22T15:14:09Z</time>
      </trkpt>
      <trkpt lat="38.6685000" lon="1.5282170">
        <ele>117.1</ele>
        <time>2020-02-22T15:14:10Z</time>
      </trkpt>
      <trkpt lat="38.6685630" lon="1.5282670">
        <ele>117.1</ele>
        <time>2020-02-22T15:14:11Z</time>
      </trkpt>
      <trkpt lat="38.6685630" lon="1.5282670">
        <ele>118.1</ele>
        <time>2020-02-22T15:14:12Z</time>
      </trkpt>
      <trkpt lat="38.6686300" lon="1.5283130">
        <ele>118.1</ele>
        <time>2020-02-22T15:14:13Z</time>
      </trkpt>
      <trkpt lat="38.6686600" lon="1.5283400">
        <ele>118.1</ele>
        <time>2020-02-22T15:14:14Z</time>
      </trkpt>
      <trkpt lat="38.6686920" lon="1.5283680">
        <ele>118.1</ele>
        <time>2020-02-22T15:14:15Z</time>
      </trkpt>
      <trkpt lat="38.6686920" lon="1.5283680">
        <ele>118.1</ele>
        <time>2020-02-22T15:14:16Z</time>
      </trkpt>
      <trkpt lat="38.6687550" lon="1.5284250">
        <ele>119.1</ele>
        <time>2020-02-22T15:14:17Z</time>
      </trkpt>
      <trkpt lat="38.6687820" lon="1.5284570">
        <ele>119.1</ele>
        <time>2020-02-22T15:14:18Z</time>
      </trkpt>
      <trkpt lat="38.6687820" lon="1.5284570">
        <ele>120.1</ele>
        <time>2020-02-22T15:14:19Z</time>
      </trkpt>
      <trkpt lat="38.6688400" lon="1.5285230">
        <ele>120.1</ele>
        <time>2020-02-22T15:14:20Z</time>
      </trkpt>
      <trkpt lat="38.6688720" lon="1.5285580">
        <ele>120.1</ele>
        <time>2020-02-22T15:14:21Z</time>
      </trkpt>
      <trkpt lat="38.6688720" lon="1.5285580">
        <ele>120.1</ele>
        <time>2020-02-22T15:14:22Z</time>
      </trkpt>
      <trkpt lat="38.6689450" lon="1.5286320">
        <ele>120.1</ele>
        <time>2020-02-22T15:14:23Z</time>
      </trkpt>
      <trkpt lat="38.6689450" lon="1.5286320">
        <ele>120.1</ele>
        <time>2020-02-22T15:14:24Z</time>
      </trkpt>
      <trkpt lat="38.6690180" lon="1.5286950">
        <ele>121.1</ele>
        <time>2020-02-22T15:14:25Z</time>
      </trkpt>
      <trkpt lat="38.6690180" lon="1.5286950">
        <ele>121.1</ele>
        <time>2020-02-22T15:14:26Z</time>
      </trkpt>
      <trkpt lat="38.6690920" lon="1.5287530">
        <ele>121.1</ele>
        <time>2020-02-22T15:14:27Z</time>
      </trkpt>
      <trkpt lat="38.6690920" lon="1.5287530">
        <ele>121.1</ele>
        <time>2020-02-22T15:14:28Z</time>
      </trkpt>
      <trkpt lat="38.6691680" lon="1.5287930">
        <ele>122.1</ele>
        <time>2020-02-22T15:14:29Z</time>
      </trkpt>
      <trkpt lat="38.6691680" lon="1.5287930">
        <ele>122.1</ele>
        <time>2020-02-22T15:14:30Z</time>
      </trkpt>
      <trkpt lat="38.6692530" lon="1.5288380">
        <ele>123.1</ele>
        <time>2020-02-22T15:14:31Z</time>
      </trkpt>
      <trkpt lat="38.6692970" lon="1.5288700">
        <ele>123.1</ele>
        <time>2020-02-22T15:14:32Z</time>
      </trkpt>
      <trkpt lat="38.6693350" lon="1.5289070">
        <ele>123.1</ele>
        <time>2020-02-22T15:14:33Z</time>
      </trkpt>
      <trkpt lat="38.6693350" lon="1.5289070">
        <ele>123.1</ele>
        <time>2020-02-22T15:14:34Z</time>
      </trkpt>
      <trkpt lat="38.6694120" lon="1.5289830">
        <ele>123.1</ele>
        <time>2020-02-22T15:14:35Z</time>
      </trkpt>
      <trkpt lat="38.6694120" lon="1.5289830">
        <ele>124.1</ele>
        <time>2020-02-22T15:14:36Z</time>
      </trkpt>
      <trkpt lat="38.6694900" lon="1.5290630">
        <ele>124.1</ele>
        <time>2020-02-22T15:14:37Z</time>
      </trkpt>
      <trkpt lat="38.6694900" lon="1.5290630">
        <ele>124.1</ele>
        <time>2020-02-22T15:14:38Z</time>
      </trkpt>
      <trkpt lat="38.6695650" lon="1.5291520">
        <ele>124.1</ele>
        <time>2020-02-22T15:14:39Z</time>
      </trkpt>
      <trkpt lat="38.6695650" lon="1.5291520">
        <ele>124.1</ele>
        <time>2020-02-22T15:14:40Z</time>
      </trkpt>
      <trkpt lat="38.6696420" lon="1.5292480">
        <ele>124.1</ele>
        <time>2020-02-22T15:14:41Z</time>
      </trkpt>
      <trkpt lat="38.6696420" lon="1.5292480">
        <ele>125.1</ele>
        <time>2020-02-22T15:14:42Z</time>
      </trkpt>
      <trkpt lat="38.6697150" lon="1.5293550">
        <ele>125.1</ele>
        <time>2020-02-22T15:14:43Z</time>
      </trkpt>
      <trkpt lat="38.6697150" lon="1.5293550">
        <ele>125.1</ele>
        <time>2020-02-22T15:14:44Z</time>
      </trkpt>
      <trkpt lat="38.6697800" lon="1.5294670">
        <ele>125.1</ele>
        <time>2020-02-22T15:14:45Z</time>
      </trkpt>
      <trkpt lat="38.6697800" lon="1.5294670">
        <ele>125.1</ele>
        <time>2020-02-22T15:14:46Z</time>
      </trkpt>
      <trkpt lat="38.6698450" lon="1.5295830">
        <ele>125.1</ele>
        <time>2020-02-22T15:14:47Z</time>
      </trkpt>
      <trkpt lat="38.6698450" lon="1.5295830">
        <ele>126.1</ele>
        <time>2020-02-22T15:14:48Z</time>
      </trkpt>
      <trkpt lat="38.6699000" lon="1.5296930">
        <ele>126.1</ele>
        <time>2020-02-22T15:14:49Z</time>
      </trkpt>
      <trkpt lat="38.6699220" lon="1.5297500">
        <ele>126.1</ele>
        <time>2020-02-22T15:14:50Z</time>
      </trkpt>
      <trkpt lat="38.6699450" lon="1.5298070">
        <ele>126.1</ele>
        <time>2020-02-22T15:14:51Z</time>
      </trkpt>
      <trkpt lat="38.6699450" lon="1.5298070">
        <ele>126.1</ele>
        <time>2020-02-22T15:14:52Z</time>
      </trkpt>
      <trkpt lat="38.6699920" lon="1.5299170">
        <ele>126.1</ele>
        <time>2020-02-22T15:14:53Z</time>
      </trkpt>
      <trkpt lat="38.6699920" lon="1.5299170">
        <ele>128.1</ele>
        <time>2020-02-22T15:14:54Z</time>
      </trkpt>
      <trkpt lat="38.6700470" lon="1.5300320">
        <ele>128.1</ele>
        <time>2020-02-22T15:14:55Z</time>
      </trkpt>
      <trkpt lat="38.6700470" lon="1.5300320">
        <ele>128.1</ele>
        <time>2020-02-22T15:14:56Z</time>
      </trkpt>
      <trkpt lat="38.6700970" lon="1.5301480">
        <ele>128.1</ele>
        <time>2020-02-22T15:14:57Z</time>
      </trkpt>
      <trkpt lat="38.6700970" lon="1.5301480">
        <ele>128.1</ele>
        <time>2020-02-22T15:14:58Z</time>
      </trkpt>
      <trkpt lat="38.6701500" lon="1.5302770">
        <ele>128.1</ele>
        <time>2020-02-22T15:14:59Z</time>
      </trkpt>
      <trkpt lat="38.6701750" lon="1.5303380">
        <ele>128.1</ele>
        <time>2020-02-22T15:15:00Z</time>
      </trkpt>
      <trkpt lat="38.6702020" lon="1.5304000">
        <ele>128.1</ele>
        <time>2020-02-22T15:15:01Z</time>
      </trkpt>
      <trkpt lat="38.6702020" lon="1.5304000">
        <ele>128.1</ele>
        <time>2020-02-22T15:15:02Z</time>
      </trkpt>
      <trkpt lat="38.6702530" lon="1.5305250">
        <ele>129.1</ele>
        <time>2020-02-22T15:15:03Z</time>
      </trkpt>
      <trkpt lat="38.6702530" lon="1.5305250">
        <ele>129.1</ele>
        <time>2020-02-22T15:15:04Z</time>
      </trkpt>
      <trkpt lat="38.6703050" lon="1.5306520">
        <ele>129.1</ele>
        <time>2020-02-22T15:15:05Z</time>
      </trkpt>
      <trkpt lat="38.6703050" lon="1.5306520">
        <ele>129.1</ele>
        <time>2020-02-22T15:15:06Z</time>
      </trkpt>
      <trkpt lat="38.6703520" lon="1.5307780">
        <ele>130.1</ele>
        <time>2020-02-22T15:15:07Z</time>
      </trkpt>
      <trkpt lat="38.6703520" lon="1.5307780">
        <ele>130.1</ele>
        <time>2020-02-22T15:15:08Z</time>
      </trkpt>
      <trkpt lat="38.6704030" lon="1.5309050">
        <ele>130.1</ele>
        <time>2020-02-22T15:15:09Z</time>
      </trkpt>
      <trkpt lat="38.6704030" lon="1.5309050">
        <ele>130.1</ele>
        <time>2020-02-22T15:15:10Z</time>
      </trkpt>
      <trkpt lat="38.6704630" lon="1.5310230">
        <ele>131.1</ele>
        <time>2020-02-22T15:15:11Z</time>
      </trkpt>
      <trkpt lat="38.6704630" lon="1.5310230">
        <ele>131.1</ele>
        <time>2020-02-22T15:15:12Z</time>
      </trkpt>
      <trkpt lat="38.6705130" lon="1.5311470">
        <ele>131.1</ele>
        <time>2020-02-22T15:15:13Z</time>
      </trkpt>
      <trkpt lat="38.6705130" lon="1.5311470">
        <ele>133.1</ele>
        <time>2020-02-22T15:15:14Z</time>
      </trkpt>
      <trkpt lat="38.6705600" lon="1.5312750">
        <ele>133.1</ele>
        <time>2020-02-22T15:15:15Z</time>
      </trkpt>
      <trkpt lat="38.6705600" lon="1.5312750">
        <ele>133.1</ele>
        <time>2020-02-22T15:15:16Z</time>
      </trkpt>
      <trkpt lat="38.6706030" lon="1.5313900">
        <ele>133.1</ele>
        <time>2020-02-22T15:15:17Z</time>
      </trkpt>
      <trkpt lat="38.6706030" lon="1.5313900">
        <ele>133.1</ele>
        <time>2020-02-22T15:15:18Z</time>
      </trkpt>
      <trkpt lat="38.6706450" lon="1.5315020">
        <ele>133.1</ele>
        <time>2020-02-22T15:15:19Z</time>
      </trkpt>
      <trkpt lat="38.6706450" lon="1.5315020">
        <ele>133.1</ele>
        <time>2020-02-22T15:15:20Z</time>
      </trkpt>
      <trkpt lat="38.6706930" lon="1.5316270">
        <ele>133.1</ele>
        <time>2020-02-22T15:15:21Z</time>
      </trkpt>
      <trkpt lat="38.6706930" lon="1.5316270">
        <ele>134.1</ele>
        <time>2020-02-22T15:15:22Z</time>
      </trkpt>
      <trkpt lat="38.6707430" lon="1.5317530">
        <ele>134.1</ele>
        <time>2020-02-22T15:15:23Z</time>
      </trkpt>
      <trkpt lat="38.6707430" lon="1.5317530">
        <ele>134.1</ele>
        <time>2020-02-22T15:15:24Z</time>
      </trkpt>
      <trkpt lat="38.6707830" lon="1.5318670">
        <ele>134.1</ele>
        <time>2020-02-22T15:15:25Z</time>
      </trkpt>
      <trkpt lat="38.6708050" lon="1.5319270">
        <ele>135.1</ele>
        <time>2020-02-22T15:15:26Z</time>
      </trkpt>
      <trkpt lat="38.6708050" lon="1.5319270">
        <ele>135.1</ele>
        <time>2020-02-22T15:15:27Z</time>
      </trkpt>
      <trkpt lat="38.6708480" lon="1.5320450">
        <ele>135.1</ele>
        <time>2020-02-22T15:15:28Z</time>
      </trkpt>
      <trkpt lat="38.6708480" lon="1.5320450">
        <ele>135.1</ele>
        <time>2020-02-22T15:15:29Z</time>
      </trkpt>
      <trkpt lat="38.6708930" lon="1.5321600">
        <ele>136.1</ele>
        <time>2020-02-22T15:15:30Z</time>
      </trkpt>
      <trkpt lat="38.6709220" lon="1.5322180">
        <ele>136.1</ele>
        <time>2020-02-22T15:15:31Z</time>
      </trkpt>
      <trkpt lat="38.6709520" lon="1.5322780">
        <ele>136.1</ele>
        <time>2020-02-22T15:15:32Z</time>
      </trkpt>
      <trkpt lat="38.6709820" lon="1.5323400">
        <ele>137.1</ele>
        <time>2020-02-22T15:15:33Z</time>
      </trkpt>
      <trkpt lat="38.6709820" lon="1.5323400">
        <ele>137.1</ele>
        <time>2020-02-22T15:15:34Z</time>
      </trkpt>
      <trkpt lat="38.6710400" lon="1.5324620">
        <ele>137.1</ele>
        <time>2020-02-22T15:15:35Z</time>
      </trkpt>
      <trkpt lat="38.6710400" lon="1.5324620">
        <ele>137.1</ele>
        <time>2020-02-22T15:15:36Z</time>
      </trkpt>
      <trkpt lat="38.6711130" lon="1.5325850">
        <ele>137.1</ele>
        <time>2020-02-22T15:15:37Z</time>
      </trkpt>
      <trkpt lat="38.6711130" lon="1.5325850">
        <ele>137.1</ele>
        <time>2020-02-22T15:15:38Z</time>
      </trkpt>
      <trkpt lat="38.6711920" lon="1.5327080">
        <ele>138.1</ele>
        <time>2020-02-22T15:15:39Z</time>
      </trkpt>
      <trkpt lat="38.6711920" lon="1.5327080">
        <ele>138.1</ele>
        <time>2020-02-22T15:15:40Z</time>
      </trkpt>
      <trkpt lat="38.6712670" lon="1.5328330">
        <ele>138.1</ele>
        <time>2020-02-22T15:15:41Z</time>
      </trkpt>
      <trkpt lat="38.6712670" lon="1.5328330">
        <ele>138.1</ele>
        <time>2020-02-22T15:15:42Z</time>
      </trkpt>
      <trkpt lat="38.6713430" lon="1.5329580">
        <ele>138.1</ele>
        <time>2020-02-22T15:15:43Z</time>
      </trkpt>
      <trkpt lat="38.6713430" lon="1.5329580">
        <ele>138.1</ele>
        <time>2020-02-22T15:15:44Z</time>
      </trkpt>
      <trkpt lat="38.6714200" lon="1.5330800">
        <ele>138.1</ele>
        <time>2020-02-22T15:15:45Z</time>
      </trkpt>
      <trkpt lat="38.6714630" lon="1.5331500">
        <ele>138.1</ele>
        <time>2020-02-22T15:15:46Z</time>
      </trkpt>
      <trkpt lat="38.6714630" lon="1.5331500">
        <ele>139.1</ele>
        <time>2020-02-22T15:15:47Z</time>
      </trkpt>
      <trkpt lat="38.6715420" lon="1.5332830">
        <ele>139.1</ele>
        <time>2020-02-22T15:15:48Z</time>
      </trkpt>
      <trkpt lat="38.6715800" lon="1.5333450">
        <ele>139.1</ele>
        <time>2020-02-22T15:15:49Z</time>
      </trkpt>
      <trkpt lat="38.6715800" lon="1.5333450">
        <ele>139.1</ele>
        <time>2020-02-22T15:15:50Z</time>
      </trkpt>
      <trkpt lat="38.6716580" lon="1.5334720">
        <ele>139.1</ele>
        <time>2020-02-22T15:15:51Z</time>
      </trkpt>
      <trkpt lat="38.6716580" lon="1.5334720">
        <ele>139.1</ele>
        <time>2020-02-22T15:15:52Z</time>
      </trkpt>
      <trkpt lat="38.6717380" lon="1.5335920">
        <ele>139.1</ele>
        <time>2020-02-22T15:15:53Z</time>
      </trkpt>
      <trkpt lat="38.6717830" lon="1.5336500">
        <ele>140.1</ele>
        <time>2020-02-22T15:15:54Z</time>
      </trkpt>
      <trkpt lat="38.6717830" lon="1.5336500">
        <ele>140.1</ele>
        <time>2020-02-22T15:15:55Z</time>
      </trkpt>
      <trkpt lat="38.6718720" lon="1.5337630">
        <ele>140.1</ele>
        <time>2020-02-22T15:15:56Z</time>
      </trkpt>
      <trkpt lat="38.6719220" lon="1.5338200">
        <ele>140.1</ele>
        <time>2020-02-22T15:15:57Z</time>
      </trkpt>
      <trkpt lat="38.6719220" lon="1.5338200">
        <ele>140.1</ele>
        <time>2020-02-22T15:15:58Z</time>
      </trkpt>
      <trkpt lat="38.6720100" lon="1.5339400">
        <ele>140.1</ele>
        <time>2020-02-22T15:15:59Z</time>
      </trkpt>
      <trkpt lat="38.6720520" lon="1.5340020">
        <ele>140.1</ele>
        <time>2020-02-22T15:16:00Z</time>
      </trkpt>
      <trkpt lat="38.6720520" lon="1.5340020">
        <ele>140.1</ele>
        <time>2020-02-22T15:16:01Z</time>
      </trkpt>
      <trkpt lat="38.6721330" lon="1.5341320">
        <ele>141.1</ele>
        <time>2020-02-22T15:16:02Z</time>
      </trkpt>
      <trkpt lat="38.6721720" lon="1.5341980">
        <ele>141.1</ele>
        <time>2020-02-22T15:16:03Z</time>
      </trkpt>
      <trkpt lat="38.6721720" lon="1.5341980">
        <ele>141.1</ele>
        <time>2020-02-22T15:16:04Z</time>
      </trkpt>
      <trkpt lat="38.6722470" lon="1.5343350">
        <ele>141.1</ele>
        <time>2020-02-22T15:16:05Z</time>
      </trkpt>
      <trkpt lat="38.6722470" lon="1.5343350">
        <ele>141.1</ele>
        <time>2020-02-22T15:16:06Z</time>
      </trkpt>
      <trkpt lat="38.6723130" lon="1.5344730">
        <ele>141.1</ele>
        <time>2020-02-22T15:16:07Z</time>
      </trkpt>
      <trkpt lat="38.6723130" lon="1.5344730">
        <ele>142.1</ele>
        <time>2020-02-22T15:16:08Z</time>
      </trkpt>
      <trkpt lat="38.6723800" lon="1.5346170">
        <ele>142.1</ele>
        <time>2020-02-22T15:16:09Z</time>
      </trkpt>
      <trkpt lat="38.6723800" lon="1.5346170">
        <ele>142.1</ele>
        <time>2020-02-22T15:16:10Z</time>
      </trkpt>
      <trkpt lat="38.6724470" lon="1.5347680">
        <ele>142.1</ele>
        <time>2020-02-22T15:16:11Z</time>
      </trkpt>
      <trkpt lat="38.6724470" lon="1.5347680">
        <ele>142.1</ele>
        <time>2020-02-22T15:16:12Z</time>
      </trkpt>
      <trkpt lat="38.6725000" lon="1.5349200">
        <ele>142.1</ele>
        <time>2020-02-22T15:16:13Z</time>
      </trkpt>
      <trkpt lat="38.6725000" lon="1.5349200">
        <ele>143.1</ele>
        <time>2020-02-22T15:16:14Z</time>
      </trkpt>
      <trkpt lat="38.6725400" lon="1.5350800">
        <ele>143.1</ele>
        <time>2020-02-22T15:16:15Z</time>
      </trkpt>
      <trkpt lat="38.6725400" lon="1.5350800">
        <ele>143.1</ele>
        <time>2020-02-22T15:16:16Z</time>
      </trkpt>
      <trkpt lat="38.6725670" lon="1.5352430">
        <ele>143.1</ele>
        <time>2020-02-22T15:16:17Z</time>
      </trkpt>
      <trkpt lat="38.6725670" lon="1.5352430">
        <ele>144.1</ele>
        <time>2020-02-22T15:16:18Z</time>
      </trkpt>
      <trkpt lat="38.6725830" lon="1.5353870">
        <ele>144.1</ele>
        <time>2020-02-22T15:16:19Z</time>
      </trkpt>
      <trkpt lat="38.6725830" lon="1.5353870">
        <ele>144.1</ele>
        <time>2020-02-22T15:16:20Z</time>
      </trkpt>
      <trkpt lat="38.6726130" lon="1.5355270">
        <ele>144.1</ele>
        <time>2020-02-22T15:16:21Z</time>
      </trkpt>
      <trkpt lat="38.6726130" lon="1.5355270">
        <ele>144.1</ele>
        <time>2020-02-22T15:16:22Z</time>
      </trkpt>
      <trkpt lat="38.6726320" lon="1.5356730">
        <ele>144.1</ele>
        <time>2020-02-22T15:16:23Z</time>
      </trkpt>
      <trkpt lat="38.6726320" lon="1.5356730">
        <ele>144.1</ele>
        <time>2020-02-22T15:16:24Z</time>
      </trkpt>
      <trkpt lat="38.6726530" lon="1.5358270">
        <ele>144.1</ele>
        <time>2020-02-22T15:16:25Z</time>
      </trkpt>
      <trkpt lat="38.6726530" lon="1.5358270">
        <ele>145.1</ele>
        <time>2020-02-22T15:16:26Z</time>
      </trkpt>
      <trkpt lat="38.6726720" lon="1.5359780">
        <ele>145.1</ele>
        <time>2020-02-22T15:16:27Z</time>
      </trkpt>
      <trkpt lat="38.6726720" lon="1.5359780">
        <ele>145.1</ele>
        <time>2020-02-22T15:16:28Z</time>
      </trkpt>
      <trkpt lat="38.6726880" lon="1.5361230">
        <ele>145.1</ele>
        <time>2020-02-22T15:16:29Z</time>
      </trkpt>
      <trkpt lat="38.6726880" lon="1.5361230">
        <ele>146.1</ele>
        <time>2020-02-22T15:16:30Z</time>
      </trkpt>
      <trkpt lat="38.6727130" lon="1.5362650">
        <ele>146.1</ele>
        <time>2020-02-22T15:16:31Z</time>
      </trkpt>
      <trkpt lat="38.6727230" lon="1.5363330">
        <ele>146.1</ele>
        <time>2020-02-22T15:16:32Z</time>
      </trkpt>
      <trkpt lat="38.6727320" lon="1.5364000">
        <ele>146.1</ele>
        <time>2020-02-22T15:16:33Z</time>
      </trkpt>
      <trkpt lat="38.6727320" lon="1.5364000">
        <ele>147.1</ele>
        <time>2020-02-22T15:16:34Z</time>
      </trkpt>
      <trkpt lat="38.6727470" lon="1.5365330">
        <ele>147.1</ele>
        <time>2020-02-22T15:16:35Z</time>
      </trkpt>
      <trkpt lat="38.6727470" lon="1.5365330">
        <ele>148.1</ele>
        <time>2020-02-22T15:16:36Z</time>
      </trkpt>
      <trkpt lat="38.6727680" lon="1.5366650">
        <ele>148.1</ele>
        <time>2020-02-22T15:16:37Z</time>
      </trkpt>
      <trkpt lat="38.6727800" lon="1.5367270">
        <ele>148.1</ele>
        <time>2020-02-22T15:16:38Z</time>
      </trkpt>
      <trkpt lat="38.6727900" lon="1.5367900">
        <ele>148.1</ele>
        <time>2020-02-22T15:16:39Z</time>
      </trkpt>
      <trkpt lat="38.6727900" lon="1.5367900">
        <ele>149.1</ele>
        <time>2020-02-22T15:16:40Z</time>
      </trkpt>
      <trkpt lat="38.6728130" lon="1.5369180">
        <ele>149.1</ele>
        <time>2020-02-22T15:16:41Z</time>
      </trkpt>
      <trkpt lat="38.6728130" lon="1.5369180">
        <ele>149.1</ele>
        <time>2020-02-22T15:16:42Z</time>
      </trkpt>
      <trkpt lat="38.6728330" lon="1.5370520">
        <ele>149.1</ele>
        <time>2020-02-22T15:16:43Z</time>
      </trkpt>
      <trkpt lat="38.6728430" lon="1.5371170">
        <ele>149.1</ele>
        <time>2020-02-22T15:16:44Z</time>
      </trkpt>
      <trkpt lat="38.6728430" lon="1.5371170">
        <ele>149.1</ele>
        <time>2020-02-22T15:16:45Z</time>
      </trkpt>
      <trkpt lat="38.6728670" lon="1.5372450">
        <ele>150.1</ele>
        <time>2020-02-22T15:16:46Z</time>
      </trkpt>
      <trkpt lat="38.6728670" lon="1.5372450">
        <ele>150.1</ele>
        <time>2020-02-22T15:16:47Z</time>
      </trkpt>
      <trkpt lat="38.6728780" lon="1.5373800">
        <ele>150.1</ele>
        <time>2020-02-22T15:16:48Z</time>
      </trkpt>
      <trkpt lat="38.6728900" lon="1.5374470">
        <ele>151.1</ele>
        <time>2020-02-22T15:16:49Z</time>
      </trkpt>
      <trkpt lat="38.6728900" lon="1.5374470">
        <ele>151.1</ele>
        <time>2020-02-22T15:16:50Z</time>
      </trkpt>
      <trkpt lat="38.6729130" lon="1.5375750">
        <ele>152.1</ele>
        <time>2020-02-22T15:16:51Z</time>
      </trkpt>
      <trkpt lat="38.6729130" lon="1.5375750">
        <ele>152.1</ele>
        <time>2020-02-22T15:16:52Z</time>
      </trkpt>
      <trkpt lat="38.6729280" lon="1.5377000">
        <ele>152.1</ele>
        <time>2020-02-22T15:16:53Z</time>
      </trkpt>
      <trkpt lat="38.6729280" lon="1.5377000">
        <ele>152.1</ele>
        <time>2020-02-22T15:16:54Z</time>
      </trkpt>
      <trkpt lat="38.6729430" lon="1.5378320">
        <ele>153.1</ele>
        <time>2020-02-22T15:16:55Z</time>
      </trkpt>
      <trkpt lat="38.6729530" lon="1.5378950">
        <ele>153.1</ele>
        <time>2020-02-22T15:16:56Z</time>
      </trkpt>
      <trkpt lat="38.6729530" lon="1.5378950">
        <ele>153.1</ele>
        <time>2020-02-22T15:16:57Z</time>
      </trkpt>
      <trkpt lat="38.6729670" lon="1.5380200">
        <ele>153.1</ele>
        <time>2020-02-22T15:16:58Z</time>
      </trkpt>
      <trkpt lat="38.6729670" lon="1.5380200">
        <ele>153.1</ele>
        <time>2020-02-22T15:16:59Z</time>
      </trkpt>
      <trkpt lat="38.6729820" lon="1.5381500">
        <ele>153.1</ele>
        <time>2020-02-22T15:17:00Z</time>
      </trkpt>
      <trkpt lat="38.6729870" lon="1.5382220">
        <ele>154.1</ele>
        <time>2020-02-22T15:17:01Z</time>
      </trkpt>
      <trkpt lat="38.6729870" lon="1.5382220">
        <ele>154.1</ele>
        <time>2020-02-22T15:17:02Z</time>
      </trkpt>
      <trkpt lat="38.6729930" lon="1.5383650">
        <ele>154.1</ele>
        <time>2020-02-22T15:17:03Z</time>
      </trkpt>
      <trkpt lat="38.6729930" lon="1.5383650">
        <ele>154.1</ele>
        <time>2020-02-22T15:17:04Z</time>
      </trkpt>
      <trkpt lat="38.6730020" lon="1.5385150">
        <ele>154.1</ele>
        <time>2020-02-22T15:17:05Z</time>
      </trkpt>
      <trkpt lat="38.6730020" lon="1.5385150">
        <ele>154.1</ele>
        <time>2020-02-22T15:17:06Z</time>
      </trkpt>
      <trkpt lat="38.6730080" lon="1.5386650">
        <ele>155.1</ele>
        <time>2020-02-22T15:17:07Z</time>
      </trkpt>
      <trkpt lat="38.6730080" lon="1.5386650">
        <ele>155.1</ele>
        <time>2020-02-22T15:17:08Z</time>
      </trkpt>
      <trkpt lat="38.6730180" lon="1.5388180">
        <ele>155.1</ele>
        <time>2020-02-22T15:17:09Z</time>
      </trkpt>
      <trkpt lat="38.6730180" lon="1.5388180">
        <ele>155.1</ele>
        <time>2020-02-22T15:17:10Z</time>
      </trkpt>
      <trkpt lat="38.6730250" lon="1.5389720">
        <ele>155.1</ele>
        <time>2020-02-22T15:17:11Z</time>
      </trkpt>
      <trkpt lat="38.6730250" lon="1.5389720">
        <ele>155.1</ele>
        <time>2020-02-22T15:17:12Z</time>
      </trkpt>
      <trkpt lat="38.6730330" lon="1.5391250">
        <ele>155.1</ele>
        <time>2020-02-22T15:17:13Z</time>
      </trkpt>
      <trkpt lat="38.6730330" lon="1.5391250">
        <ele>156.1</ele>
        <time>2020-02-22T15:17:14Z</time>
      </trkpt>
      <trkpt lat="38.6730450" lon="1.5392820">
        <ele>156.1</ele>
        <time>2020-02-22T15:17:15Z</time>
      </trkpt>
      <trkpt lat="38.6730450" lon="1.5392820">
        <ele>156.1</ele>
        <time>2020-02-22T15:17:16Z</time>
      </trkpt>
      <trkpt lat="38.6730580" lon="1.5394400">
        <ele>156.1</ele>
        <time>2020-02-22T15:17:17Z</time>
      </trkpt>
      <trkpt lat="38.6730580" lon="1.5394400">
        <ele>157.1</ele>
        <time>2020-02-22T15:17:18Z</time>
      </trkpt>
      <trkpt lat="38.6730680" lon="1.5396000">
        <ele>157.1</ele>
        <time>2020-02-22T15:17:19Z</time>
      </trkpt>
      <trkpt lat="38.6730680" lon="1.5396000">
        <ele>157.1</ele>
        <time>2020-02-22T15:17:20Z</time>
      </trkpt>
      <trkpt lat="38.6730830" lon="1.5397520">
        <ele>157.1</ele>
        <time>2020-02-22T15:17:21Z</time>
      </trkpt>
      <trkpt lat="38.6730830" lon="1.5397520">
        <ele>157.1</ele>
        <time>2020-02-22T15:17:22Z</time>
      </trkpt>
      <trkpt lat="38.6730930" lon="1.5399150">
        <ele>158.1</ele>
        <time>2020-02-22T15:17:23Z</time>
      </trkpt>
      <trkpt lat="38.6730930" lon="1.5399150">
        <ele>158.1</ele>
        <time>2020-02-22T15:17:24Z</time>
      </trkpt>
      <trkpt lat="38.6730920" lon="1.5400830">
        <ele>158.1</ele>
        <time>2020-02-22T15:17:25Z</time>
      </trkpt>
      <trkpt lat="38.6730920" lon="1.5400830">
        <ele>158.1</ele>
        <time>2020-02-22T15:17:26Z</time>
      </trkpt>
      <trkpt lat="38.6730700" lon="1.5402470">
        <ele>158.1</ele>
        <time>2020-02-22T15:17:27Z</time>
      </trkpt>
      <trkpt lat="38.6730700" lon="1.5402470">
        <ele>158.1</ele>
        <time>2020-02-22T15:17:28Z</time>
      </trkpt>
      <trkpt lat="38.6730420" lon="1.5404080">
        <ele>159.1</ele>
        <time>2020-02-22T15:17:29Z</time>
      </trkpt>
      <trkpt lat="38.6730420" lon="1.5404080">
        <ele>159.1</ele>
        <time>2020-02-22T15:17:30Z</time>
      </trkpt>
      <trkpt lat="38.6730030" lon="1.5405680">
        <ele>159.1</ele>
        <time>2020-02-22T15:17:31Z</time>
      </trkpt>
      <trkpt lat="38.6729850" lon="1.5406520">
        <ele>159.1</ele>
        <time>2020-02-22T15:17:32Z</time>
      </trkpt>
      <trkpt lat="38.6729850" lon="1.5406520">
        <ele>159.1</ele>
        <time>2020-02-22T15:17:33Z</time>
      </trkpt>
      <trkpt lat="38.6729450" lon="1.5408170">
        <ele>159.1</ele>
        <time>2020-02-22T15:17:34Z</time>
      </trkpt>
      <trkpt lat="38.6729450" lon="1.5408170">
        <ele>159.1</ele>
        <time>2020-02-22T15:17:35Z</time>
      </trkpt>
      <trkpt lat="38.6729000" lon="1.5409900">
        <ele>159.1</ele>
        <time>2020-02-22T15:17:36Z</time>
      </trkpt>
      <trkpt lat="38.6728800" lon="1.5410780">
        <ele>159.1</ele>
        <time>2020-02-22T15:17:37Z</time>
      </trkpt>
      <trkpt lat="38.6728800" lon="1.5410780">
        <ele>159.1</ele>
        <time>2020-02-22T15:17:38Z</time>
      </trkpt>
      <trkpt lat="38.6728420" lon="1.5412580">
        <ele>159.1</ele>
        <time>2020-02-22T15:17:39Z</time>
      </trkpt>
      <trkpt lat="38.6728420" lon="1.5412580">
        <ele>159.1</ele>
        <time>2020-02-22T15:17:40Z</time>
      </trkpt>
      <trkpt lat="38.6728000" lon="1.5414380">
        <ele>159.1</ele>
        <time>2020-02-22T15:17:41Z</time>
      </trkpt>
      <trkpt lat="38.6728000" lon="1.5414380">
        <ele>159.1</ele>
        <time>2020-02-22T15:17:42Z</time>
      </trkpt>
      <trkpt lat="38.6727600" lon="1.5416220">
        <ele>159.1</ele>
        <time>2020-02-22T15:17:43Z</time>
      </trkpt>
      <trkpt lat="38.6727600" lon="1.5416220">
        <ele>159.1</ele>
        <time>2020-02-22T15:17:44Z</time>
      </trkpt>
      <trkpt lat="38.6727300" lon="1.5418100">
        <ele>160.1</ele>
        <time>2020-02-22T15:17:45Z</time>
      </trkpt>
      <trkpt lat="38.6727300" lon="1.5418100">
        <ele>160.1</ele>
        <time>2020-02-22T15:17:46Z</time>
      </trkpt>
      <trkpt lat="38.6727180" lon="1.5420030">
        <ele>160.1</ele>
        <time>2020-02-22T15:17:47Z</time>
      </trkpt>
      <trkpt lat="38.6727230" lon="1.5421020">
        <ele>160.1</ele>
        <time>2020-02-22T15:17:48Z</time>
      </trkpt>
      <trkpt lat="38.6727230" lon="1.5421020">
        <ele>160.1</ele>
        <time>2020-02-22T15:17:49Z</time>
      </trkpt>
      <trkpt lat="38.6727480" lon="1.5422950">
        <ele>160.1</ele>
        <time>2020-02-22T15:17:50Z</time>
      </trkpt>
      <trkpt lat="38.6727480" lon="1.5422950">
        <ele>160.1</ele>
        <time>2020-02-22T15:17:51Z</time>
      </trkpt>
      <trkpt lat="38.6727770" lon="1.5424870">
        <ele>163.1</ele>
        <time>2020-02-22T15:17:52Z</time>
      </trkpt>
      <trkpt lat="38.6727770" lon="1.5424870">
        <ele>163.1</ele>
        <time>2020-02-22T15:17:53Z</time>
      </trkpt>
      <trkpt lat="38.6728100" lon="1.5426800">
        <ele>162.1</ele>
        <time>2020-02-22T15:17:54Z</time>
      </trkpt>
      <trkpt lat="38.6728250" lon="1.5427750">
        <ele>162.1</ele>
        <time>2020-02-22T15:17:55Z</time>
      </trkpt>
      <trkpt lat="38.6728250" lon="1.5427750">
        <ele>162.1</ele>
        <time>2020-02-22T15:17:56Z</time>
      </trkpt>
      <trkpt lat="38.6728530" lon="1.5429670">
        <ele>162.1</ele>
        <time>2020-02-22T15:17:57Z</time>
      </trkpt>
      <trkpt lat="38.6728530" lon="1.5429670">
        <ele>162.1</ele>
        <time>2020-02-22T15:17:58Z</time>
      </trkpt>
      <trkpt lat="38.6728850" lon="1.5431620">
        <ele>162.1</ele>
        <time>2020-02-22T15:17:59Z</time>
      </trkpt>
      <trkpt lat="38.6728850" lon="1.5431620">
        <ele>162.1</ele>
        <time>2020-02-22T15:18:00Z</time>
      </trkpt>
      <trkpt lat="38.6729220" lon="1.5433500">
        <ele>162.1</ele>
        <time>2020-02-22T15:18:01Z</time>
      </trkpt>
      <trkpt lat="38.6729220" lon="1.5433500">
        <ele>162.1</ele>
        <time>2020-02-22T15:18:02Z</time>
      </trkpt>
      <trkpt lat="38.6729520" lon="1.5435380">
        <ele>164.1</ele>
        <time>2020-02-22T15:18:03Z</time>
      </trkpt>
      <trkpt lat="38.6729520" lon="1.5435380">
        <ele>164.1</ele>
        <time>2020-02-22T15:18:04Z</time>
      </trkpt>
      <trkpt lat="38.6729850" lon="1.5437300">
        <ele>163.1</ele>
        <time>2020-02-22T15:18:05Z</time>
      </trkpt>
      <trkpt lat="38.6730020" lon="1.5438250">
        <ele>163.1</ele>
        <time>2020-02-22T15:18:06Z</time>
      </trkpt>
      <trkpt lat="38.6730020" lon="1.5438250">
        <ele>163.1</ele>
        <time>2020-02-22T15:18:07Z</time>
      </trkpt>
      <trkpt lat="38.6730320" lon="1.5440170">
        <ele>163.1</ele>
        <time>2020-02-22T15:18:08Z</time>
      </trkpt>
      <trkpt lat="38.6730320" lon="1.5440170">
        <ele>162.1</ele>
        <time>2020-02-22T15:18:09Z</time>
      </trkpt>
      <trkpt lat="38.6730650" lon="1.5442150">
        <ele>162.1</ele>
        <time>2020-02-22T15:18:10Z</time>
      </trkpt>
      <trkpt lat="38.6730650" lon="1.5442150">
        <ele>165.1</ele>
        <time>2020-02-22T15:18:11Z</time>
      </trkpt>
      <trkpt lat="38.6730900" lon="1.5444130">
        <ele>165.1</ele>
        <time>2020-02-22T15:18:12Z</time>
      </trkpt>
      <trkpt lat="38.6731020" lon="1.5445130">
        <ele>162.1</ele>
        <time>2020-02-22T15:18:13Z</time>
      </trkpt>
      <trkpt lat="38.6731020" lon="1.5445130">
        <ele>162.1</ele>
        <time>2020-02-22T15:18:14Z</time>
      </trkpt>
      <trkpt lat="38.6731220" lon="1.5447150">
        <ele>160.1</ele>
        <time>2020-02-22T15:18:15Z</time>
      </trkpt>
      <trkpt lat="38.6731220" lon="1.5447150">
        <ele>160.1</ele>
        <time>2020-02-22T15:18:16Z</time>
      </trkpt>
      <trkpt lat="38.6731170" lon="1.5449200">
        <ele>160.1</ele>
        <time>2020-02-22T15:18:17Z</time>
      </trkpt>
      <trkpt lat="38.6731080" lon="1.5450180">
        <ele>160.1</ele>
        <time>2020-02-22T15:18:18Z</time>
      </trkpt>
      <trkpt lat="38.6731080" lon="1.5450180">
        <ele>162.1</ele>
        <time>2020-02-22T15:18:19Z</time>
      </trkpt>
      <trkpt lat="38.6731030" lon="1.5452170">
        <ele>162.1</ele>
        <time>2020-02-22T15:18:20Z</time>
      </trkpt>
      <trkpt lat="38.6730970" lon="1.5453250">
        <ele>162.1</ele>
        <time>2020-02-22T15:18:21Z</time>
      </trkpt>
      <trkpt lat="38.6730970" lon="1.5453250">
        <ele>162.1</ele>
        <time>2020-02-22T15:18:22Z</time>
      </trkpt>
      <trkpt lat="38.6730800" lon="1.5455380">
        <ele>162.1</ele>
        <time>2020-02-22T15:18:23Z</time>
      </trkpt>
      <trkpt lat="38.6730720" lon="1.5456500">
        <ele>163.1</ele>
        <time>2020-02-22T15:18:24Z</time>
      </trkpt>
      <trkpt lat="38.6730620" lon="1.5457600">
        <ele>163.1</ele>
        <time>2020-02-22T15:18:25Z</time>
      </trkpt>
      <trkpt lat="38.6730520" lon="1.5458730">
        <ele>163.1</ele>
        <time>2020-02-22T15:18:26Z</time>
      </trkpt>
      <trkpt lat="38.6730520" lon="1.5458730">
        <ele>163.1</ele>
        <time>2020-02-22T15:18:27Z</time>
      </trkpt>
      <trkpt lat="38.6730350" lon="1.5461070">
        <ele>163.1</ele>
        <time>2020-02-22T15:18:28Z</time>
      </trkpt>
      <trkpt lat="38.6730230" lon="1.5462230">
        <ele>163.1</ele>
        <time>2020-02-22T15:18:29Z</time>
      </trkpt>
      <trkpt lat="38.6730230" lon="1.5462230">
        <ele>163.1</ele>
        <time>2020-02-22T15:18:30Z</time>
      </trkpt>
      <trkpt lat="38.6730100" lon="1.5464570">
        <ele>163.1</ele>
        <time>2020-02-22T15:18:31Z</time>
      </trkpt>
      <trkpt lat="38.6730100" lon="1.5464570">
        <ele>163.1</ele>
        <time>2020-02-22T15:18:32Z</time>
      </trkpt>
      <trkpt lat="38.6729930" lon="1.5466980">
        <ele>163.1</ele>
        <time>2020-02-22T15:18:33Z</time>
      </trkpt>
      <trkpt lat="38.6729930" lon="1.5466980">
        <ele>163.1</ele>
        <time>2020-02-22T15:18:34Z</time>
      </trkpt>
      <trkpt lat="38.6729680" lon="1.5469430">
        <ele>163.1</ele>
        <time>2020-02-22T15:18:35Z</time>
      </trkpt>
      <trkpt lat="38.6729680" lon="1.5469430">
        <ele>163.1</ele>
        <time>2020-02-22T15:18:36Z</time>
      </trkpt>
      <trkpt lat="38.6729580" lon="1.5471820">
        <ele>163.1</ele>
        <time>2020-02-22T15:18:37Z</time>
      </trkpt>
      <trkpt lat="38.6729580" lon="1.5471820">
        <ele>163.1</ele>
        <time>2020-02-22T15:18:38Z</time>
      </trkpt>
      <trkpt lat="38.6729430" lon="1.5474200">
        <ele>163.1</ele>
        <time>2020-02-22T15:18:39Z</time>
      </trkpt>
      <trkpt lat="38.6729430" lon="1.5474200">
        <ele>162.1</ele>
        <time>2020-02-22T15:18:40Z</time>
      </trkpt>
      <trkpt lat="38.6729220" lon="1.5476700">
        <ele>162.1</ele>
        <time>2020-02-22T15:18:41Z</time>
      </trkpt>
      <trkpt lat="38.6729220" lon="1.5476700">
        <ele>162.1</ele>
        <time>2020-02-22T15:18:42Z</time>
      </trkpt>
      <trkpt lat="38.6728980" lon="1.5479270">
        <ele>162.1</ele>
        <time>2020-02-22T15:18:43Z</time>
      </trkpt>
      <trkpt lat="38.6728770" lon="1.5480530">
        <ele>162.1</ele>
        <time>2020-02-22T15:18:44Z</time>
      </trkpt>
      <trkpt lat="38.6728420" lon="1.5481730">
        <ele>161.1</ele>
        <time>2020-02-22T15:18:45Z</time>
      </trkpt>
      <trkpt lat="38.6728420" lon="1.5481730">
        <ele>161.1</ele>
        <time>2020-02-22T15:18:46Z</time>
      </trkpt>
      <trkpt lat="38.6727330" lon="1.5483930">
        <ele>160.1</ele>
        <time>2020-02-22T15:18:47Z</time>
      </trkpt>
      <trkpt lat="38.6727330" lon="1.5483930">
        <ele>160.1</ele>
        <time>2020-02-22T15:18:48Z</time>
      </trkpt>
      <trkpt lat="38.6726320" lon="1.5486100">
        <ele>158.1</ele>
        <time>2020-02-22T15:18:49Z</time>
      </trkpt>
      <trkpt lat="38.6726320" lon="1.5486100">
        <ele>158.1</ele>
        <time>2020-02-22T15:18:50Z</time>
      </trkpt>
      <trkpt lat="38.6725080" lon="1.5488230">
        <ele>157.1</ele>
        <time>2020-02-22T15:18:51Z</time>
      </trkpt>
      <trkpt lat="38.6725080" lon="1.5488230">
        <ele>157.1</ele>
        <time>2020-02-22T15:18:52Z</time>
      </trkpt>
      <trkpt lat="38.6723830" lon="1.5490320">
        <ele>157.1</ele>
        <time>2020-02-22T15:18:53Z</time>
      </trkpt>
      <trkpt lat="38.6723220" lon="1.5491450">
        <ele>157.1</ele>
        <time>2020-02-22T15:18:54Z</time>
      </trkpt>
      <trkpt lat="38.6723220" lon="1.5491450">
        <ele>157.1</ele>
        <time>2020-02-22T15:18:55Z</time>
      </trkpt>
      <trkpt lat="38.6722020" lon="1.5493650">
        <ele>157.1</ele>
        <time>2020-02-22T15:18:56Z</time>
      </trkpt>
      <trkpt lat="38.6721380" lon="1.5494750">
        <ele>156.1</ele>
        <time>2020-02-22T15:18:57Z</time>
      </trkpt>
      <trkpt lat="38.6721380" lon="1.5494750">
        <ele>156.1</ele>
        <time>2020-02-22T15:18:58Z</time>
      </trkpt>
      <trkpt lat="38.6720020" lon="1.5497030">
        <ele>156.1</ele>
        <time>2020-02-22T15:18:59Z</time>
      </trkpt>
      <trkpt lat="38.6720020" lon="1.5497030">
        <ele>156.1</ele>
        <time>2020-02-22T15:19:00Z</time>
      </trkpt>
      <trkpt lat="38.6718780" lon="1.5499200">
        <ele>155.1</ele>
        <time>2020-02-22T15:19:01Z</time>
      </trkpt>
      <trkpt lat="38.6718780" lon="1.5499200">
        <ele>155.1</ele>
        <time>2020-02-22T15:19:02Z</time>
      </trkpt>
      <trkpt lat="38.6717620" lon="1.5501420">
        <ele>154.1</ele>
        <time>2020-02-22T15:19:03Z</time>
      </trkpt>
      <trkpt lat="38.6717620" lon="1.5501420">
        <ele>154.1</ele>
        <time>2020-02-22T15:19:04Z</time>
      </trkpt>
      <trkpt lat="38.6716400" lon="1.5503770">
        <ele>154.1</ele>
        <time>2020-02-22T15:19:05Z</time>
      </trkpt>
      <trkpt lat="38.6716400" lon="1.5503770">
        <ele>152.1</ele>
        <time>2020-02-22T15:19:06Z</time>
      </trkpt>
      <trkpt lat="38.6715130" lon="1.5506120">
        <ele>152.1</ele>
        <time>2020-02-22T15:19:07Z</time>
      </trkpt>
      <trkpt lat="38.6715130" lon="1.5506120">
        <ele>152.1</ele>
        <time>2020-02-22T15:19:08Z</time>
      </trkpt>
      <trkpt lat="38.6713870" lon="1.5508370">
        <ele>152.1</ele>
        <time>2020-02-22T15:19:09Z</time>
      </trkpt>
      <trkpt lat="38.6713870" lon="1.5508370">
        <ele>152.1</ele>
        <time>2020-02-22T15:19:10Z</time>
      </trkpt>
      <trkpt lat="38.6712620" lon="1.5510680">
        <ele>152.1</ele>
        <time>2020-02-22T15:19:11Z</time>
      </trkpt>
      <trkpt lat="38.6712620" lon="1.5510680">
        <ele>152.1</ele>
        <time>2020-02-22T15:19:12Z</time>
      </trkpt>
      <trkpt lat="38.6711450" lon="1.5513020">
        <ele>152.1</ele>
        <time>2020-02-22T15:19:13Z</time>
      </trkpt>
      <trkpt lat="38.6711450" lon="1.5513020">
        <ele>152.1</ele>
        <time>2020-02-22T15:19:14Z</time>
      </trkpt>
      <trkpt lat="38.6710330" lon="1.5515270">
        <ele>152.1</ele>
        <time>2020-02-22T15:19:15Z</time>
      </trkpt>
      <trkpt lat="38.6710330" lon="1.5515270">
        <ele>151.1</ele>
        <time>2020-02-22T15:19:16Z</time>
      </trkpt>
      <trkpt lat="38.6709220" lon="1.5517680">
        <ele>151.1</ele>
        <time>2020-02-22T15:19:17Z</time>
      </trkpt>
      <trkpt lat="38.6709220" lon="1.5517680">
        <ele>151.1</ele>
        <time>2020-02-22T15:19:18Z</time>
      </trkpt>
      <trkpt lat="38.6708100" lon="1.5520250">
        <ele>151.1</ele>
        <time>2020-02-22T15:19:19Z</time>
      </trkpt>
      <trkpt lat="38.6707500" lon="1.5521530">
        <ele>149.1</ele>
        <time>2020-02-22T15:19:20Z</time>
      </trkpt>
      <trkpt lat="38.6707500" lon="1.5521530">
        <ele>149.1</ele>
        <time>2020-02-22T15:19:21Z</time>
      </trkpt>
      <trkpt lat="38.6706330" lon="1.5524030">
        <ele>149.1</ele>
        <time>2020-02-22T15:19:22Z</time>
      </trkpt>
      <trkpt lat="38.6706330" lon="1.5524030">
        <ele>149.1</ele>
        <time>2020-02-22T15:19:23Z</time>
      </trkpt>
      <trkpt lat="38.6705200" lon="1.5526570">
        <ele>149.1</ele>
        <time>2020-02-22T15:19:24Z</time>
      </trkpt>
      <trkpt lat="38.6705200" lon="1.5526570">
        <ele>147.1</ele>
        <time>2020-02-22T15:19:25Z</time>
      </trkpt>
      <trkpt lat="38.6704020" lon="1.5529100">
        <ele>147.1</ele>
        <time>2020-02-22T15:19:26Z</time>
      </trkpt>
      <trkpt lat="38.6704020" lon="1.5529100">
        <ele>147.1</ele>
        <time>2020-02-22T15:19:27Z</time>
      </trkpt>
      <trkpt lat="38.6702780" lon="1.5531600">
        <ele>147.1</ele>
        <time>2020-02-22T15:19:28Z</time>
      </trkpt>
      <trkpt lat="38.6702780" lon="1.5531600">
        <ele>147.1</ele>
        <time>2020-02-22T15:19:29Z</time>
      </trkpt>
      <trkpt lat="38.6701630" lon="1.5534100">
        <ele>147.1</ele>
        <time>2020-02-22T15:19:30Z</time>
      </trkpt>
      <trkpt lat="38.6701050" lon="1.5535370">
        <ele>147.1</ele>
        <time>2020-02-22T15:19:31Z</time>
      </trkpt>
      <trkpt lat="38.6701050" lon="1.5535370">
        <ele>147.1</ele>
        <time>2020-02-22T15:19:32Z</time>
      </trkpt>
      <trkpt lat="38.6699820" lon="1.5537770">
        <ele>146.1</ele>
        <time>2020-02-22T15:19:33Z</time>
      </trkpt>
      <trkpt lat="38.6699820" lon="1.5537770">
        <ele>146.1</ele>
        <time>2020-02-22T15:19:34Z</time>
      </trkpt>
      <trkpt lat="38.6698700" lon="1.5540180">
        <ele>146.1</ele>
        <time>2020-02-22T15:19:35Z</time>
      </trkpt>
      <trkpt lat="38.6698700" lon="1.5540180">
        <ele>146.1</ele>
        <time>2020-02-22T15:19:36Z</time>
      </trkpt>
      <trkpt lat="38.6697670" lon="1.5542530">
        <ele>146.1</ele>
        <time>2020-02-22T15:19:37Z</time>
      </trkpt>
      <trkpt lat="38.6697180" lon="1.5543720">
        <ele>146.1</ele>
        <time>2020-02-22T15:19:38Z</time>
      </trkpt>
      <trkpt lat="38.6696700" lon="1.5544900">
        <ele>145.1</ele>
        <time>2020-02-22T15:19:39Z</time>
      </trkpt>
      <trkpt lat="38.6696700" lon="1.5544900">
        <ele>145.1</ele>
        <time>2020-02-22T15:19:40Z</time>
      </trkpt>
      <trkpt lat="38.6695630" lon="1.5547200">
        <ele>145.1</ele>
        <time>2020-02-22T15:19:41Z</time>
      </trkpt>
      <trkpt lat="38.6695630" lon="1.5547200">
        <ele>145.1</ele>
        <time>2020-02-22T15:19:42Z</time>
      </trkpt>
      <trkpt lat="38.6694570" lon="1.5549420">
        <ele>145.1</ele>
        <time>2020-02-22T15:19:43Z</time>
      </trkpt>
      <trkpt lat="38.6694570" lon="1.5549420">
        <ele>144.1</ele>
        <time>2020-02-22T15:19:44Z</time>
      </trkpt>
      <trkpt lat="38.6693520" lon="1.5551600">
        <ele>144.1</ele>
        <time>2020-02-22T15:19:45Z</time>
      </trkpt>
      <trkpt lat="38.6693520" lon="1.5551600">
        <ele>144.1</ele>
        <time>2020-02-22T15:19:46Z</time>
      </trkpt>
      <trkpt lat="38.6692520" lon="1.5553730">
        <ele>144.1</ele>
        <time>2020-02-22T15:19:47Z</time>
      </trkpt>
      <trkpt lat="38.6692020" lon="1.5554800">
        <ele>144.1</ele>
        <time>2020-02-22T15:19:48Z</time>
      </trkpt>
      <trkpt lat="38.6692020" lon="1.5554800">
        <ele>144.1</ele>
        <time>2020-02-22T15:19:49Z</time>
      </trkpt>
      <trkpt lat="38.6690950" lon="1.5556850">
        <ele>144.1</ele>
        <time>2020-02-22T15:19:50Z</time>
      </trkpt>
      <trkpt lat="38.6690400" lon="1.5557830">
        <ele>144.1</ele>
        <time>2020-02-22T15:19:51Z</time>
      </trkpt>
      <trkpt lat="38.6690400" lon="1.5557830">
        <ele>144.1</ele>
        <time>2020-02-22T15:19:52Z</time>
      </trkpt>
      <trkpt lat="38.6689320" lon="1.5559680">
        <ele>144.1</ele>
        <time>2020-02-22T15:19:53Z</time>
      </trkpt>
      <trkpt lat="38.6688780" lon="1.5560580">
        <ele>144.1</ele>
        <time>2020-02-22T15:19:54Z</time>
      </trkpt>
      <trkpt lat="38.6688780" lon="1.5560580">
        <ele>144.1</ele>
        <time>2020-02-22T15:19:55Z</time>
      </trkpt>
      <trkpt lat="38.6687750" lon="1.5562300">
        <ele>144.1</ele>
        <time>2020-02-22T15:19:56Z</time>
      </trkpt>
      <trkpt lat="38.6687750" lon="1.5562300">
        <ele>144.1</ele>
        <time>2020-02-22T15:19:57Z</time>
      </trkpt>
      <trkpt lat="38.6686820" lon="1.5563900">
        <ele>145.1</ele>
        <time>2020-02-22T15:19:58Z</time>
      </trkpt>
      <trkpt lat="38.6686820" lon="1.5563900">
        <ele>145.1</ele>
        <time>2020-02-22T15:19:59Z</time>
      </trkpt>
      <trkpt lat="38.6685950" lon="1.5565370">
        <ele>145.1</ele>
        <time>2020-02-22T15:20:00Z</time>
      </trkpt>
      <trkpt lat="38.6685950" lon="1.5565370">
        <ele>146.1</ele>
        <time>2020-02-22T15:20:01Z</time>
      </trkpt>
      <trkpt lat="38.6685250" lon="1.5566830">
        <ele>146.1</ele>
        <time>2020-02-22T15:20:02Z</time>
      </trkpt>
      <trkpt lat="38.6684980" lon="1.5567570">
        <ele>146.1</ele>
        <time>2020-02-22T15:20:03Z</time>
      </trkpt>
      <trkpt lat="38.6684980" lon="1.5567570">
        <ele>146.1</ele>
        <time>2020-02-22T15:20:04Z</time>
      </trkpt>
      <trkpt lat="38.6684550" lon="1.5569050">
        <ele>146.1</ele>
        <time>2020-02-22T15:20:05Z</time>
      </trkpt>
      <trkpt lat="38.6684550" lon="1.5569050">
        <ele>146.1</ele>
        <time>2020-02-22T15:20:06Z</time>
      </trkpt>
      <trkpt lat="38.6684220" lon="1.5570520">
        <ele>146.1</ele>
        <time>2020-02-22T15:20:07Z</time>
      </trkpt>
      <trkpt lat="38.6684220" lon="1.5570520">
        <ele>146.1</ele>
        <time>2020-02-22T15:20:08Z</time>
      </trkpt>
      <trkpt lat="38.6683880" lon="1.5571970">
        <ele>146.1</ele>
        <time>2020-02-22T15:20:09Z</time>
      </trkpt>
      <trkpt lat="38.6683880" lon="1.5571970">
        <ele>146.1</ele>
        <time>2020-02-22T15:20:10Z</time>
      </trkpt>
      <trkpt lat="38.6683580" lon="1.5573400">
        <ele>146.1</ele>
        <time>2020-02-22T15:20:11Z</time>
      </trkpt>
      <trkpt lat="38.6683580" lon="1.5573400">
        <ele>146.1</ele>
        <time>2020-02-22T15:20:12Z</time>
      </trkpt>
      <trkpt lat="38.6683330" lon="1.5574770">
        <ele>146.1</ele>
        <time>2020-02-22T15:20:13Z</time>
      </trkpt>
      <trkpt lat="38.6683230" lon="1.5575430">
        <ele>146.1</ele>
        <time>2020-02-22T15:20:14Z</time>
      </trkpt>
      <trkpt lat="38.6683230" lon="1.5575430">
        <ele>146.1</ele>
        <time>2020-02-22T15:20:15Z</time>
      </trkpt>
      <trkpt lat="38.6683050" lon="1.5576800">
        <ele>146.1</ele>
        <time>2020-02-22T15:20:16Z</time>
      </trkpt>
      <trkpt lat="38.6683050" lon="1.5576800">
        <ele>146.1</ele>
        <time>2020-02-22T15:20:17Z</time>
      </trkpt>
      <trkpt lat="38.6682830" lon="1.5578080">
        <ele>146.1</ele>
        <time>2020-02-22T15:20:18Z</time>
      </trkpt>
      <trkpt lat="38.6682770" lon="1.5578650">
        <ele>145.1</ele>
        <time>2020-02-22T15:20:19Z</time>
      </trkpt>
      <trkpt lat="38.6682770" lon="1.5578650">
        <ele>145.1</ele>
        <time>2020-02-22T15:20:20Z</time>
      </trkpt>
      <trkpt lat="38.6682580" lon="1.5579750">
        <ele>145.1</ele>
        <time>2020-02-22T15:20:21Z</time>
      </trkpt>
      <trkpt lat="38.6682580" lon="1.5579750">
        <ele>145.1</ele>
        <time>2020-02-22T15:20:22Z</time>
      </trkpt>
      <trkpt lat="38.6682420" lon="1.5580820">
        <ele>145.1</ele>
        <time>2020-02-22T15:20:23Z</time>
      </trkpt>
      <trkpt lat="38.6682420" lon="1.5580820">
        <ele>145.1</ele>
        <time>2020-02-22T15:20:24Z</time>
      </trkpt>
      <trkpt lat="38.6682220" lon="1.5581900">
        <ele>145.1</ele>
        <time>2020-02-22T15:20:25Z</time>
      </trkpt>
      <trkpt lat="38.6682220" lon="1.5581900">
        <ele>145.1</ele>
        <time>2020-02-22T15:20:26Z</time>
      </trkpt>
      <trkpt lat="38.6682050" lon="1.5582920">
        <ele>145.1</ele>
        <time>2020-02-22T15:20:27Z</time>
      </trkpt>
      <trkpt lat="38.6682050" lon="1.5582920">
        <ele>145.1</ele>
        <time>2020-02-22T15:20:28Z</time>
      </trkpt>
      <trkpt lat="38.6681930" lon="1.5583920">
        <ele>145.1</ele>
        <time>2020-02-22T15:20:29Z</time>
      </trkpt>
      <trkpt lat="38.6681870" lon="1.5584420">
        <ele>145.1</ele>
        <time>2020-02-22T15:20:30Z</time>
      </trkpt>
      <trkpt lat="38.6681820" lon="1.5584900">
        <ele>145.1</ele>
        <time>2020-02-22T15:20:31Z</time>
      </trkpt>
      <trkpt lat="38.6681720" lon="1.5585400">
        <ele>145.1</ele>
        <time>2020-02-22T15:20:32Z</time>
      </trkpt>
      <trkpt lat="38.6681630" lon="1.5585880">
        <ele>145.1</ele>
        <time>2020-02-22T15:20:33Z</time>
      </trkpt>
      <trkpt lat="38.6681630" lon="1.5585880">
        <ele>145.1</ele>
        <time>2020-02-22T15:20:34Z</time>
      </trkpt>
      <trkpt lat="38.6681450" lon="1.5586870">
        <ele>145.1</ele>
        <time>2020-02-22T15:20:35Z</time>
      </trkpt>
      <trkpt lat="38.6681450" lon="1.5586870">
        <ele>145.1</ele>
        <time>2020-02-22T15:20:36Z</time>
      </trkpt>
      <trkpt lat="38.6681270" lon="1.5587850">
        <ele>144.1</ele>
        <time>2020-02-22T15:20:37Z</time>
      </trkpt>
      <trkpt lat="38.6681270" lon="1.5587850">
        <ele>144.1</ele>
        <time>2020-02-22T15:20:38Z</time>
      </trkpt>
      <trkpt lat="38.6681080" lon="1.5588820">
        <ele>144.1</ele>
        <time>2020-02-22T15:20:39Z</time>
      </trkpt>
      <trkpt lat="38.6681080" lon="1.5588820">
        <ele>144.1</ele>
        <time>2020-02-22T15:20:40Z</time>
      </trkpt>
      <trkpt lat="38.6680880" lon="1.5589770">
        <ele>144.1</ele>
        <time>2020-02-22T15:20:41Z</time>
      </trkpt>
      <trkpt lat="38.6680880" lon="1.5589770">
        <ele>144.1</ele>
        <time>2020-02-22T15:20:42Z</time>
      </trkpt>
      <trkpt lat="38.6680750" lon="1.5590700">
        <ele>144.1</ele>
        <time>2020-02-22T15:20:43Z</time>
      </trkpt>
      <trkpt lat="38.6680750" lon="1.5590700">
        <ele>144.1</ele>
        <time>2020-02-22T15:20:44Z</time>
      </trkpt>
      <trkpt lat="38.6680580" lon="1.5591650">
        <ele>144.1</ele>
        <time>2020-02-22T15:20:45Z</time>
      </trkpt>
      <trkpt lat="38.6680580" lon="1.5591650">
        <ele>144.1</ele>
        <time>2020-02-22T15:20:46Z</time>
      </trkpt>
      <trkpt lat="38.6680400" lon="1.5592480">
        <ele>144.1</ele>
        <time>2020-02-22T15:20:47Z</time>
      </trkpt>
      <trkpt lat="38.6680400" lon="1.5592480">
        <ele>144.1</ele>
        <time>2020-02-22T15:20:48Z</time>
      </trkpt>
      <trkpt lat="38.6680250" lon="1.5593200">
        <ele>144.1</ele>
        <time>2020-02-22T15:20:49Z</time>
      </trkpt>
      <trkpt lat="38.6680180" lon="1.5593520">
        <ele>144.1</ele>
        <time>2020-02-22T15:20:50Z</time>
      </trkpt>
      <trkpt lat="38.6680180" lon="1.5593520">
        <ele>144.1</ele>
        <time>2020-02-22T15:20:51Z</time>
      </trkpt>
      <trkpt lat="38.6680080" lon="1.5594050">
        <ele>144.1</ele>
        <time>2020-02-22T15:20:52Z</time>
      </trkpt>
      <trkpt lat="38.6680050" lon="1.5594180">
        <ele>144.1</ele>
        <time>2020-02-22T15:20:53Z</time>
      </trkpt>
      <trkpt lat="38.6680050" lon="1.5594180">
        <ele>144.1</ele>
        <time>2020-02-22T15:20:54Z</time>
      </trkpt>
      <trkpt lat="38.6680020" lon="1.5594220">
        <ele>144.1</ele>
        <time>2020-02-22T15:20:55Z</time>
      </trkpt>
      <trkpt lat="38.6680020" lon="1.5594220">
        <ele>144.1</ele>
        <time>2020-02-22T15:20:56Z</time>
      </trkpt>
      <trkpt lat="38.6680030" lon="1.5594230">
        <ele>144.1</ele>
        <time>2020-02-22T15:22:39Z</time>
      </trkpt>
      <trkpt lat="38.6680030" lon="1.5594230">
        <ele>144.1</ele>
        <time>2020-02-22T15:22:40Z</time>
      </trkpt>
      <trkpt lat="38.6680030" lon="1.5594230">
        <ele>144.1</ele>
        <time>2020-02-22T15:22:41Z</time>
      </trkpt>
      <trkpt lat="38.6680030" lon="1.5594230">
        <ele>144.1</ele>
        <time>2020-02-22T15:22:42Z</time>
      </trkpt>
      <trkpt lat="38.6680030" lon="1.5594230">
        <ele>144.1</ele>
        <time>2020-02-22T15:22:43Z</time>
      </trkpt>
      <trkpt lat="38.6680030" lon="1.5594230">
        <ele>144.1</ele>
        <time>2020-02-22T15:22:44Z</time>
      </trkpt>
      <trkpt lat="38.6680030" lon="1.5594230">
        <ele>144.1</ele>
        <time>2020-02-22T15:22:45Z</time>
      </trkpt>
      <trkpt lat="38.6680030" lon="1.5594230">
        <ele>144.1</ele>
        <time>2020-02-22T15:22:46Z</time>
      </trkpt>
      <trkpt lat="38.6680030" lon="1.5594230">
        <ele>144.1</ele>
        <time>2020-02-22T15:22:47Z</time>
      </trkpt>
      <trkpt lat="38.6680030" lon="1.5594230">
        <ele>144.1</ele>
        <time>2020-02-22T15:22:48Z</time>
      </trkpt>
      <trkpt lat="38.6680030" lon="1.5594230">
        <ele>144.1</ele>
        <time>2020-02-22T15:22:49Z</time>
      </trkpt>
      <trkpt lat="38.6680030" lon="1.5594230">
        <ele>144.1</ele>
        <time>2020-02-22T15:22:50Z</time>
      </trkpt>
      <trkpt lat="38.6680030" lon="1.5594230">
        <ele>144.1</ele>
        <time>2020-02-22T15:22:51Z</time>
      </trkpt>
      <trkpt lat="38.6680030" lon="1.5594230">
        <ele>144.1</ele>
        <time>2020-02-22T15:22:52Z</time>
      </trkpt>
      <trkpt lat="38.6680030" lon="1.5594230">
        <ele>144.1</ele>
        <time>2020-02-22T15:22:53Z</time>
      </trkpt>
      <trkpt lat="38.6680030" lon="1.5594230">
        <ele>144.1</ele>
        <time>2020-02-22T15:22:54Z</time>
      </trkpt>
      <trkpt lat="38.6680030" lon="1.5594230">
        <ele>144.1</ele>
        <time>2020-02-22T15:22:55Z</time>
      </trkpt>
      <trkpt lat="38.6680030" lon="1.5594230">
        <ele>144.1</ele>
        <time>2020-02-22T15:22:56Z</time>
      </trkpt>
      <trkpt lat="38.6680030" lon="1.5594230">
        <ele>144.1</ele>
        <time>2020-02-22T15:22:57Z</time>
      </trkpt>
      <trkpt lat="38.6680030" lon="1.5594230">
        <ele>144.1</ele>
        <time>2020-02-22T15:22:58Z</time>
      </trkpt>
      <trkpt lat="38.6680030" lon="1.5594230">
        <ele>144.1</ele>
        <time>2020-02-22T15:22:59Z</time>
      </trkpt>
      <trkpt lat="38.6680030" lon="1.5594230">
        <ele>144.1</ele>
        <time>2020-02-22T15:23:00Z</time>
      </trkpt>
      <trkpt lat="38.6680030" lon="1.5594230">
        <ele>144.1</ele>
        <time>2020-02-22T15:23:01Z</time>
      </trkpt>
      <trkpt lat="38.6680030" lon="1.5594230">
        <ele>144.1</ele>
        <time>2020-02-22T15:23:02Z</time>
      </trkpt>
      <trkpt lat="38.6680030" lon="1.5594230">
        <ele>144.1</ele>
        <time>2020-02-22T15:23:03Z</time>
      </trkpt>
      <trkpt lat="38.6680030" lon="1.5594230">
        <ele>144.1</ele>
        <time>2020-02-22T15:23:04Z</time>
      </trkpt>
      <trkpt lat="38.6680030" lon="1.5594230">
        <ele>144.1</ele>
        <time>2020-02-22T15:23:05Z</time>
      </trkpt>
      <trkpt lat="38.6680030" lon="1.5594230">
        <ele>144.1</ele>
        <time>2020-02-22T15:23:06Z</time>
      </trkpt>
      <trkpt lat="38.6680030" lon="1.5594230">
        <ele>144.1</ele>
        <time>2020-02-22T15:23:07Z</time>
      </trkpt>
      <trkpt lat="38.6680030" lon="1.5594230">
        <ele>144.1</ele>
        <time>2020-02-22T15:23:08Z</time>
      </trkpt>
      <trkpt lat="38.6680030" lon="1.5594230">
        <ele>144.1</ele>
        <time>2020-02-22T15:23:09Z</time>
      </trkpt>
      <trkpt lat="38.6680030" lon="1.5594230">
        <ele>144.1</ele>
        <time>2020-02-22T15:23:10Z</time>
      </trkpt>
      <trkpt lat="38.6680030" lon="1.5594230">
        <ele>144.1</ele>
        <time>2020-02-22T15:23:11Z</time>
      </trkpt>
      <trkpt lat="38.6680030" lon="1.5594230">
        <ele>144.1</ele>
        <time>2020-02-22T15:23:12Z</time>
      </trkpt>
      <trkpt lat="38.6680030" lon="1.5594230">
        <ele>144.1</ele>
        <time>2020-02-22T15:23:13Z</time>
      </trkpt>
      <trkpt lat="38.6680030" lon="1.5594230">
        <ele>144.1</ele>
        <time>2020-02-22T15:23:14Z</time>
      </trkpt>
      <trkpt lat="38.6680030" lon="1.5594230">
        <ele>144.1</ele>
        <time>2020-02-22T15:23:15Z</time>
      </trkpt>
      <trkpt lat="38.6680030" lon="1.5594230">
        <ele>144.1</ele>
        <time>2020-02-22T15:23:16Z</time>
      </trkpt>
      <trkpt lat="38.6680030" lon="1.5594230">
        <ele>144.1</ele>
        <time>2020-02-22T15:23:17Z</time>
      </trkpt>
      <trkpt lat="38.6680030" lon="1.5594230">
        <ele>144.1</ele>
        <time>2020-02-22T15:23:18Z</time>
      </trkpt>
      <trkpt lat="38.6680030" lon="1.5594230">
        <ele>144.1</ele>
        <time>2020-02-22T15:23:19Z</time>
      </trkpt>
      <trkpt lat="38.6680030" lon="1.5594230">
        <ele>144.1</ele>
        <time>2020-02-22T15:23:20Z</time>
      </trkpt>
      <trkpt lat="38.6680030" lon="1.5594230">
        <ele>144.1</ele>
        <time>2020-02-22T15:23:21Z</time>
      </trkpt>
      <trkpt lat="38.6680030" lon="1.5594230">
        <ele>144.1</ele>
        <time>2020-02-22T15:23:22Z</time>
      </trkpt>
      <trkpt lat="38.6680030" lon="1.5594230">
        <ele>144.1</ele>
        <time>2020-02-22T15:23:23Z</time>
      </trkpt>
      <trkpt lat="38.6680030" lon="1.5594230">
        <ele>144.1</ele>
        <time>2020-02-22T15:23:24Z</time>
      </trkpt>
      <trkpt lat="38.6680030" lon="1.5594230">
        <ele>144.1</ele>
        <time>2020-02-22T15:23:25Z</time>
      </trkpt>
      <trkpt lat="38.6680030" lon="1.5594230">
        <ele>144.1</ele>
        <time>2020-02-22T15:23:26Z</time>
      </trkpt>
      <trkpt lat="38.6680030" lon="1.5594230">
        <ele>144.1</ele>
        <time>2020-02-22T15:23:27Z</time>
      </trkpt>
      <trkpt lat="38.6680620" lon="1.5592120">
        <ele>148.1</ele>
        <time>2020-02-22T15:24:05Z</time>
      </trkpt>
      <trkpt lat="38.6680660" lon="1.5591820">
        <ele>148.1</ele>
        <time>2020-02-22T15:24:06Z</time>
      </trkpt>
      <trkpt lat="38.6680700" lon="1.5591520">
        <ele>148.1</ele>
        <time>2020-02-22T15:24:07Z</time>
      </trkpt>
      <trkpt lat="38.6680700" lon="1.5591520">
        <ele>146.1</ele>
        <time>2020-02-22T15:24:08Z</time>
      </trkpt>
      <trkpt lat="38.6680820" lon="1.5590850">
        <ele>146.1</ele>
        <time>2020-02-22T15:24:09Z</time>
      </trkpt>
      <trkpt lat="38.6680820" lon="1.5590850">
        <ele>146.1</ele>
        <time>2020-02-22T15:24:10Z</time>
      </trkpt>
      <trkpt lat="38.6680980" lon="1.5590150">
        <ele>145.1</ele>
        <time>2020-02-22T15:24:11Z</time>
      </trkpt>
      <trkpt lat="38.6681050" lon="1.5589780">
        <ele>145.1</ele>
        <time>2020-02-22T15:24:12Z</time>
      </trkpt>
      <trkpt lat="38.6681120" lon="1.5589420">
        <ele>145.1</ele>
        <time>2020-02-22T15:24:13Z</time>
      </trkpt>
      <trkpt lat="38.6681120" lon="1.5589420">
        <ele>145.1</ele>
        <time>2020-02-22T15:24:14Z</time>
      </trkpt>
      <trkpt lat="38.6681250" lon="1.5588720">
        <ele>145.1</ele>
        <time>2020-02-22T15:24:15Z</time>
      </trkpt>
      <trkpt lat="38.6681250" lon="1.5588720">
        <ele>145.1</ele>
        <time>2020-02-22T15:24:16Z</time>
      </trkpt>
      <trkpt lat="38.6681370" lon="1.5587900">
        <ele>145.1</ele>
        <time>2020-02-22T15:24:17Z</time>
      </trkpt>
      <trkpt lat="38.6681370" lon="1.5587900">
        <ele>145.1</ele>
        <time>2020-02-22T15:24:18Z</time>
      </trkpt>
      <trkpt lat="38.6681550" lon="1.5587000">
        <ele>145.1</ele>
        <time>2020-02-22T15:24:19Z</time>
      </trkpt>
      <trkpt lat="38.6681550" lon="1.5587000">
        <ele>145.1</ele>
        <time>2020-02-22T15:24:20Z</time>
      </trkpt>
      <trkpt lat="38.6681700" lon="1.5586120">
        <ele>145.1</ele>
        <time>2020-02-22T15:24:21Z</time>
      </trkpt>
      <trkpt lat="38.6681780" lon="1.5585670">
        <ele>145.1</ele>
        <time>2020-02-22T15:24:22Z</time>
      </trkpt>
      <trkpt lat="38.6681780" lon="1.5585670">
        <ele>145.1</ele>
        <time>2020-02-22T15:24:23Z</time>
      </trkpt>
      <trkpt lat="38.6681920" lon="1.5584820">
        <ele>145.1</ele>
        <time>2020-02-22T15:24:24Z</time>
      </trkpt>
      <trkpt lat="38.6681980" lon="1.5584380">
        <ele>145.1</ele>
        <time>2020-02-22T15:24:25Z</time>
      </trkpt>
      <trkpt lat="38.6681980" lon="1.5584380">
        <ele>145.1</ele>
        <time>2020-02-22T15:24:26Z</time>
      </trkpt>
      <trkpt lat="38.6682150" lon="1.5583530">
        <ele>145.1</ele>
        <time>2020-02-22T15:24:27Z</time>
      </trkpt>
      <trkpt lat="38.6682150" lon="1.5583530">
        <ele>145.1</ele>
        <time>2020-02-22T15:24:28Z</time>
      </trkpt>
      <trkpt lat="38.6682320" lon="1.5582720">
        <ele>145.1</ele>
        <time>2020-02-22T15:24:29Z</time>
      </trkpt>
      <trkpt lat="38.6682320" lon="1.5582720">
        <ele>146.1</ele>
        <time>2020-02-22T15:24:30Z</time>
      </trkpt>
      <trkpt lat="38.6682530" lon="1.5581870">
        <ele>146.1</ele>
        <time>2020-02-22T15:24:31Z</time>
      </trkpt>
      <trkpt lat="38.6682600" lon="1.5581430">
        <ele>146.1</ele>
        <time>2020-02-22T15:24:32Z</time>
      </trkpt>
      <trkpt lat="38.6682630" lon="1.5581020">
        <ele>146.1</ele>
        <time>2020-02-22T15:24:33Z</time>
      </trkpt>
      <trkpt lat="38.6682630" lon="1.5581020">
        <ele>146.1</ele>
        <time>2020-02-22T15:24:34Z</time>
      </trkpt>
      <trkpt lat="38.6682720" lon="1.5580150">
        <ele>146.1</ele>
        <time>2020-02-22T15:24:35Z</time>
      </trkpt>
      <trkpt lat="38.6682720" lon="1.5580150">
        <ele>146.1</ele>
        <time>2020-02-22T15:24:36Z</time>
      </trkpt>
      <trkpt lat="38.6682880" lon="1.5579070">
        <ele>146.1</ele>
        <time>2020-02-22T15:24:37Z</time>
      </trkpt>
      <trkpt lat="38.6682880" lon="1.5579070">
        <ele>146.1</ele>
        <time>2020-02-22T15:24:38Z</time>
      </trkpt>
      <trkpt lat="38.6683100" lon="1.5577880">
        <ele>146.1</ele>
        <time>2020-02-22T15:24:39Z</time>
      </trkpt>
      <trkpt lat="38.6683100" lon="1.5577880">
        <ele>146.1</ele>
        <time>2020-02-22T15:24:40Z</time>
      </trkpt>
      <trkpt lat="38.6683350" lon="1.5576620">
        <ele>146.1</ele>
        <time>2020-02-22T15:24:41Z</time>
      </trkpt>
      <trkpt lat="38.6683470" lon="1.5576000">
        <ele>146.1</ele>
        <time>2020-02-22T15:24:42Z</time>
      </trkpt>
      <trkpt lat="38.6683470" lon="1.5576000">
        <ele>146.1</ele>
        <time>2020-02-22T15:24:43Z</time>
      </trkpt>
      <trkpt lat="38.6683650" lon="1.5574850">
        <ele>146.1</ele>
        <time>2020-02-22T15:24:44Z</time>
      </trkpt>
      <trkpt lat="38.6683650" lon="1.5574850">
        <ele>146.1</ele>
        <time>2020-02-22T15:24:45Z</time>
      </trkpt>
      <trkpt lat="38.6683920" lon="1.5573830">
        <ele>146.1</ele>
        <time>2020-02-22T15:24:46Z</time>
      </trkpt>
      <trkpt lat="38.6683920" lon="1.5573830">
        <ele>147.1</ele>
        <time>2020-02-22T15:24:47Z</time>
      </trkpt>
      <trkpt lat="38.6684080" lon="1.5572900">
        <ele>147.1</ele>
        <time>2020-02-22T15:24:48Z</time>
      </trkpt>
      <trkpt lat="38.6684150" lon="1.5572470">
        <ele>147.1</ele>
        <time>2020-02-22T15:24:49Z</time>
      </trkpt>
      <trkpt lat="38.6684150" lon="1.5572470">
        <ele>147.1</ele>
        <time>2020-02-22T15:24:50Z</time>
      </trkpt>
      <trkpt lat="38.6684320" lon="1.5571670">
        <ele>147.1</ele>
        <time>2020-02-22T15:24:51Z</time>
      </trkpt>
      <trkpt lat="38.6684320" lon="1.5571670">
        <ele>147.1</ele>
        <time>2020-02-22T15:24:52Z</time>
      </trkpt>
      <trkpt lat="38.6684450" lon="1.5570950">
        <ele>147.1</ele>
        <time>2020-02-22T15:24:53Z</time>
      </trkpt>
      <trkpt lat="38.6684450" lon="1.5570950">
        <ele>147.1</ele>
        <time>2020-02-22T15:24:54Z</time>
      </trkpt>
      <trkpt lat="38.6684530" lon="1.5570270">
        <ele>147.1</ele>
        <time>2020-02-22T15:24:55Z</time>
      </trkpt>
      <trkpt lat="38.6684530" lon="1.5570270">
        <ele>147.1</ele>
        <time>2020-02-22T15:24:56Z</time>
      </trkpt>
      <trkpt lat="38.6684680" lon="1.5569650">
        <ele>147.1</ele>
        <time>2020-02-22T15:24:57Z</time>
      </trkpt>
      <trkpt lat="38.6684680" lon="1.5569650">
        <ele>147.1</ele>
        <time>2020-02-22T15:24:58Z</time>
      </trkpt>
      <trkpt lat="38.6684800" lon="1.5569120">
        <ele>148.1</ele>
        <time>2020-02-22T15:24:59Z</time>
      </trkpt>
      <trkpt lat="38.6684800" lon="1.5569120">
        <ele>148.1</ele>
        <time>2020-02-22T15:25:00Z</time>
      </trkpt>
      <trkpt lat="38.6684830" lon="1.5568630">
        <ele>148.1</ele>
        <time>2020-02-22T15:25:01Z</time>
      </trkpt>
      <trkpt lat="38.6684820" lon="1.5568430">
        <ele>148.1</ele>
        <time>2020-02-22T15:25:02Z</time>
      </trkpt>
      <trkpt lat="38.6684820" lon="1.5568430">
        <ele>148.1</ele>
        <time>2020-02-22T15:25:03Z</time>
      </trkpt>
      <trkpt lat="38.6684880" lon="1.5568030">
        <ele>148.1</ele>
        <time>2020-02-22T15:25:04Z</time>
      </trkpt>
      <trkpt lat="38.6684970" lon="1.5567830">
        <ele>148.1</ele>
        <time>2020-02-22T15:25:05Z</time>
      </trkpt>
      <trkpt lat="38.6684970" lon="1.5567830">
        <ele>148.1</ele>
        <time>2020-02-22T15:25:06Z</time>
      </trkpt>
      <trkpt lat="38.6685000" lon="1.5567450">
        <ele>148.1</ele>
        <time>2020-02-22T15:25:07Z</time>
      </trkpt>
      <trkpt lat="38.6685000" lon="1.5567450">
        <ele>148.1</ele>
        <time>2020-02-22T15:25:08Z</time>
      </trkpt>
      <trkpt lat="38.6685020" lon="1.5567320">
        <ele>148.1</ele>
        <time>2020-02-22T15:25:09Z</time>
      </trkpt>
      <trkpt lat="38.6685020" lon="1.5567320">
        <ele>148.1</ele>
        <time>2020-02-22T15:25:10Z</time>
      </trkpt>
      <trkpt lat="38.6685030" lon="1.5567200">
        <ele>148.1</ele>
        <time>2020-02-22T15:25:11Z</time>
      </trkpt>
      <trkpt lat="38.6685030" lon="1.5567200">
        <ele>148.1</ele>
        <time>2020-02-22T15:25:56Z</time>
      </trkpt>
      <trkpt lat="38.6684950" lon="1.5566570">
        <ele>148.1</ele>
        <time>2020-02-22T15:25:57Z</time>
      </trkpt>
      <trkpt lat="38.6684950" lon="1.5566570">
        <ele>148.1</ele>
        <time>2020-02-22T15:25:58Z</time>
      </trkpt>
      <trkpt lat="38.6684970" lon="1.5566520">
        <ele>148.1</ele>
        <time>2020-02-22T15:25:59Z</time>
      </trkpt>
      <trkpt lat="38.6684970" lon="1.5566520">
        <ele>148.1</ele>
        <time>2020-02-22T15:26:00Z</time>
      </trkpt>
      <trkpt lat="38.6684970" lon="1.5566520">
        <ele>148.1</ele>
        <time>2020-02-22T15:26:46Z</time>
      </trkpt>
      <trkpt lat="38.6685030" lon="1.5566150">
        <ele>148.1</ele>
        <time>2020-02-22T15:26:47Z</time>
      </trkpt>
      <trkpt lat="38.6685030" lon="1.5566150">
        <ele>148.1</ele>
        <time>2020-02-22T15:26:48Z</time>
      </trkpt>
      <trkpt lat="38.6685030" lon="1.5565950">
        <ele>148.1</ele>
        <time>2020-02-22T15:26:49Z</time>
      </trkpt>
      <trkpt lat="38.6684980" lon="1.5565870">
        <ele>148.1</ele>
        <time>2020-02-22T15:26:50Z</time>
      </trkpt>
      <trkpt lat="38.6684980" lon="1.5565870">
        <ele>148.1</ele>
        <time>2020-02-22T15:26:51Z</time>
      </trkpt>
      <trkpt lat="38.6684950" lon="1.5565820">
        <ele>148.1</ele>
        <time>2020-02-22T15:26:52Z</time>
      </trkpt>
      <trkpt lat="38.6685000" lon="1.5566080">
        <ele>148.1</ele>
        <time>2020-02-22T15:33:23Z</time>
      </trkpt>
      <trkpt lat="38.6685000" lon="1.5566080">
        <ele>148.1</ele>
        <time>2020-02-22T15:33:24Z</time>
      </trkpt>
      <trkpt lat="38.6685080" lon="1.5566300">
        <ele>147.1</ele>
        <time>2020-02-22T15:33:25Z</time>
      </trkpt>
      <trkpt lat="38.6685080" lon="1.5566300">
        <ele>147.1</ele>
        <time>2020-02-22T15:33:26Z</time>
      </trkpt>
      <trkpt lat="38.6685120" lon="1.5566580">
        <ele>146.1</ele>
        <time>2020-02-22T15:33:27Z</time>
      </trkpt>
      <trkpt lat="38.6685150" lon="1.5566700">
        <ele>146.1</ele>
        <time>2020-02-22T15:33:28Z</time>
      </trkpt>
      <trkpt lat="38.6685150" lon="1.5566700">
        <ele>146.1</ele>
        <time>2020-02-22T15:33:29Z</time>
      </trkpt>
      <trkpt lat="38.6685200" lon="1.5566900">
        <ele>146.1</ele>
        <time>2020-02-22T15:33:30Z</time>
      </trkpt>
      <trkpt lat="38.6685200" lon="1.5566900">
        <ele>146.1</ele>
        <time>2020-02-22T15:33:31Z</time>
      </trkpt>
      <trkpt lat="38.6685320" lon="1.5567080">
        <ele>145.1</ele>
        <time>2020-02-22T15:33:32Z</time>
      </trkpt>
      <trkpt lat="38.6685350" lon="1.5567170">
        <ele>145.1</ele>
        <time>2020-02-22T15:33:33Z</time>
      </trkpt>
      <trkpt lat="38.6685350" lon="1.5567170">
        <ele>145.1</ele>
        <time>2020-02-22T15:33:34Z</time>
      </trkpt>
      <trkpt lat="38.6685380" lon="1.5567330">
        <ele>145.1</ele>
        <time>2020-02-22T15:33:35Z</time>
      </trkpt>
      <trkpt lat="38.6685380" lon="1.5567330">
        <ele>145.1</ele>
        <time>2020-02-22T15:33:36Z</time>
      </trkpt>
      <trkpt lat="38.6685350" lon="1.5567450">
        <ele>145.1</ele>
        <time>2020-02-22T15:33:37Z</time>
      </trkpt>
      <trkpt lat="38.6685350" lon="1.5567450">
        <ele>145.1</ele>
        <time>2020-02-22T15:33:38Z</time>
      </trkpt>
      <trkpt lat="38.6685350" lon="1.5567470">
        <ele>145.1</ele>
        <time>2020-02-22T15:33:39Z</time>
      </trkpt>
      <trkpt lat="38.6685350" lon="1.5567470">
        <ele>145.1</ele>
        <time>2020-02-22T15:33:40Z</time>
      </trkpt>
      <trkpt lat="38.6685350" lon="1.5567470">
        <ele>145.1</ele>
        <time>2020-02-22T15:33:41Z</time>
      </trkpt>
      <trkpt lat="38.6685350" lon="1.5567470">
        <ele>145.1</ele>
        <time>2020-02-22T15:33:42Z</time>
      </trkpt>
      <trkpt lat="38.6684980" lon="1.5567550">
        <ele>145.1</ele>
        <time>2020-02-22T15:35:32Z</time>
      </trkpt>
      <trkpt lat="38.6684980" lon="1.5567550">
        <ele>145.1</ele>
        <time>2020-02-22T15:35:33Z</time>
      </trkpt>
      <trkpt lat="38.6684880" lon="1.5567630">
        <ele>145.1</ele>
        <time>2020-02-22T15:35:34Z</time>
      </trkpt>
      <trkpt lat="38.6684880" lon="1.5567630">
        <ele>145.1</ele>
        <time>2020-02-22T15:35:35Z</time>
      </trkpt>
      <trkpt lat="38.6684820" lon="1.5567700">
        <ele>145.1</ele>
        <time>2020-02-22T15:35:36Z</time>
      </trkpt>
      <trkpt lat="38.6684820" lon="1.5567700">
        <ele>145.1</ele>
        <time>2020-02-22T15:35:37Z</time>
      </trkpt>
      <trkpt lat="38.6684770" lon="1.5567780">
        <ele>145.1</ele>
        <time>2020-02-22T15:35:38Z</time>
      </trkpt>
      <trkpt lat="38.6684730" lon="1.5567830">
        <ele>145.1</ele>
        <time>2020-02-22T15:35:39Z</time>
      </trkpt>
      <trkpt lat="38.6684730" lon="1.5567830">
        <ele>145.1</ele>
        <time>2020-02-22T15:35:40Z</time>
      </trkpt>
      <trkpt lat="38.6684630" lon="1.5567970">
        <ele>145.1</ele>
        <time>2020-02-22T15:35:41Z</time>
      </trkpt>
      <trkpt lat="38.6684630" lon="1.5567970">
        <ele>145.1</ele>
        <time>2020-02-22T15:35:42Z</time>
      </trkpt>
      <trkpt lat="38.6684570" lon="1.5568120">
        <ele>145.1</ele>
        <time>2020-02-22T15:35:43Z</time>
      </trkpt>
      <trkpt lat="38.6684570" lon="1.5568120">
        <ele>145.1</ele>
        <time>2020-02-22T15:35:44Z</time>
      </trkpt>
      <trkpt lat="38.6684520" lon="1.5568270">
        <ele>145.1</ele>
        <time>2020-02-22T15:35:45Z</time>
      </trkpt>
      <trkpt lat="38.6684520" lon="1.5568270">
        <ele>145.1</ele>
        <time>2020-02-22T15:35:46Z</time>
      </trkpt>
      <trkpt lat="38.6684450" lon="1.5568420">
        <ele>145.1</ele>
        <time>2020-02-22T15:35:47Z</time>
      </trkpt>
      <trkpt lat="38.6684450" lon="1.5568420">
        <ele>145.1</ele>
        <time>2020-02-22T15:35:48Z</time>
      </trkpt>
      <trkpt lat="38.6684350" lon="1.5568570">
        <ele>145.1</ele>
        <time>2020-02-22T15:35:49Z</time>
      </trkpt>
      <trkpt lat="38.6684350" lon="1.5568570">
        <ele>145.1</ele>
        <time>2020-02-22T15:35:50Z</time>
      </trkpt>
      <trkpt lat="38.6684220" lon="1.5568750">
        <ele>145.1</ele>
        <time>2020-02-22T15:35:51Z</time>
      </trkpt>
      <trkpt lat="38.6684220" lon="1.5568750">
        <ele>145.1</ele>
        <time>2020-02-22T15:35:52Z</time>
      </trkpt>
      <trkpt lat="38.6684130" lon="1.5568970">
        <ele>145.1</ele>
        <time>2020-02-22T15:35:53Z</time>
      </trkpt>
      <trkpt lat="38.6684130" lon="1.5568970">
        <ele>145.1</ele>
        <time>2020-02-22T15:35:54Z</time>
      </trkpt>
      <trkpt lat="38.6684100" lon="1.5569180">
        <ele>145.1</ele>
        <time>2020-02-22T15:35:55Z</time>
      </trkpt>
      <trkpt lat="38.6684100" lon="1.5569180">
        <ele>145.1</ele>
        <time>2020-02-22T15:35:56Z</time>
      </trkpt>
      <trkpt lat="38.6684050" lon="1.5569400">
        <ele>145.1</ele>
        <time>2020-02-22T15:35:57Z</time>
      </trkpt>
      <trkpt lat="38.6684050" lon="1.5569400">
        <ele>145.1</ele>
        <time>2020-02-22T15:35:58Z</time>
      </trkpt>
      <trkpt lat="38.6683980" lon="1.5569620">
        <ele>145.1</ele>
        <time>2020-02-22T15:35:59Z</time>
      </trkpt>
      <trkpt lat="38.6683980" lon="1.5569620">
        <ele>145.1</ele>
        <time>2020-02-22T15:36:00Z</time>
      </trkpt>
      <trkpt lat="38.6683930" lon="1.5569830">
        <ele>145.1</ele>
        <time>2020-02-22T15:36:01Z</time>
      </trkpt>
      <trkpt lat="38.6683930" lon="1.5569830">
        <ele>145.1</ele>
        <time>2020-02-22T15:36:02Z</time>
      </trkpt>
      <trkpt lat="38.6683880" lon="1.5570030">
        <ele>145.1</ele>
        <time>2020-02-22T15:36:03Z</time>
      </trkpt>
      <trkpt lat="38.6683880" lon="1.5570030">
        <ele>145.1</ele>
        <time>2020-02-22T15:36:04Z</time>
      </trkpt>
      <trkpt lat="38.6683830" lon="1.5570220">
        <ele>145.1</ele>
        <time>2020-02-22T15:36:05Z</time>
      </trkpt>
      <trkpt lat="38.6683830" lon="1.5570220">
        <ele>145.1</ele>
        <time>2020-02-22T15:36:06Z</time>
      </trkpt>
      <trkpt lat="38.6683780" lon="1.5570300">
        <ele>145.1</ele>
        <time>2020-02-22T15:36:07Z</time>
      </trkpt>
      <trkpt lat="38.6683780" lon="1.5570300">
        <ele>145.1</ele>
        <time>2020-02-22T15:36:08Z</time>
      </trkpt>
      <trkpt lat="38.6683730" lon="1.5570270">
        <ele>145.1</ele>
        <time>2020-02-22T15:36:09Z</time>
      </trkpt>
      <trkpt lat="38.6683730" lon="1.5570270">
        <ele>145.1</ele>
        <time>2020-02-22T15:36:10Z</time>
      </trkpt>
      <trkpt lat="38.6683700" lon="1.5570220">
        <ele>145.1</ele>
        <time>2020-02-22T15:36:11Z</time>
      </trkpt>
      <trkpt lat="38.6683700" lon="1.5570220">
        <ele>145.1</ele>
        <time>2020-02-22T15:36:12Z</time>
      </trkpt>
      <trkpt lat="38.6683700" lon="1.5570200">
        <ele>145.1</ele>
        <time>2020-02-22T15:36:13Z</time>
      </trkpt>
      <trkpt lat="38.6683700" lon="1.5570200">
        <ele>145.1</ele>
        <time>2020-02-22T15:36:14Z</time>
      </trkpt>
      <trkpt lat="38.6683700" lon="1.5570200">
        <ele>145.1</ele>
        <time>2020-02-22T15:54:42Z</time>
      </trkpt>
      <trkpt lat="38.6684020" lon="1.5570350">
        <ele>145.1</ele>
        <time>2020-02-22T15:54:43Z</time>
      </trkpt>
      <trkpt lat="38.6684020" lon="1.5570350">
        <ele>145.1</ele>
        <time>2020-02-22T15:54:44Z</time>
      </trkpt>
      <trkpt lat="38.6684030" lon="1.5570330">
        <ele>145.1</ele>
        <time>2020-02-22T15:54:48Z</time>
      </trkpt>
      <trkpt lat="38.6684120" lon="1.5570120">
        <ele>145.1</ele>
        <time>2020-02-22T15:54:49Z</time>
      </trkpt>
      <trkpt lat="38.6684120" lon="1.5570120">
        <ele>145.1</ele>
        <time>2020-02-22T15:54:50Z</time>
      </trkpt>
      <trkpt lat="38.6684300" lon="1.5569680">
        <ele>145.1</ele>
        <time>2020-02-22T15:55:05Z</time>
      </trkpt>
      <trkpt lat="38.6684300" lon="1.5569680">
        <ele>145.1</ele>
        <time>2020-02-22T15:55:06Z</time>
      </trkpt>
      <trkpt lat="38.6684350" lon="1.5569330">
        <ele>145.1</ele>
        <time>2020-02-22T15:55:07Z</time>
      </trkpt>
      <trkpt lat="38.6684350" lon="1.5569330">
        <ele>145.1</ele>
        <time>2020-02-22T15:55:08Z</time>
      </trkpt>
      <trkpt lat="38.6684480" lon="1.5568830">
        <ele>145.1</ele>
        <time>2020-02-22T15:55:09Z</time>
      </trkpt>
      <trkpt lat="38.6684570" lon="1.5568620">
        <ele>145.1</ele>
        <time>2020-02-22T15:55:10Z</time>
      </trkpt>
      <trkpt lat="38.6684650" lon="1.5568400">
        <ele>145.1</ele>
        <time>2020-02-22T15:55:11Z</time>
      </trkpt>
      <trkpt lat="38.6684650" lon="1.5568400">
        <ele>145.1</ele>
        <time>2020-02-22T15:55:12Z</time>
      </trkpt>
      <trkpt lat="38.6684770" lon="1.5567950">
        <ele>145.1</ele>
        <time>2020-02-22T15:55:13Z</time>
      </trkpt>
      <trkpt lat="38.6684770" lon="1.5567950">
        <ele>145.1</ele>
        <time>2020-02-22T15:55:14Z</time>
      </trkpt>
      <trkpt lat="38.6684880" lon="1.5567380">
        <ele>145.1</ele>
        <time>2020-02-22T15:55:15Z</time>
      </trkpt>
      <trkpt lat="38.6684880" lon="1.5567380">
        <ele>145.1</ele>
        <time>2020-02-22T15:55:16Z</time>
      </trkpt>
      <trkpt lat="38.6685030" lon="1.5566820">
        <ele>145.1</ele>
        <time>2020-02-22T15:55:17Z</time>
      </trkpt>
      <trkpt lat="38.6685030" lon="1.5566820">
        <ele>145.1</ele>
        <time>2020-02-22T15:55:18Z</time>
      </trkpt>
      <trkpt lat="38.6685170" lon="1.5566230">
        <ele>145.1</ele>
        <time>2020-02-22T15:55:19Z</time>
      </trkpt>
      <trkpt lat="38.6685250" lon="1.5565950">
        <ele>145.1</ele>
        <time>2020-02-22T15:55:20Z</time>
      </trkpt>
      <trkpt lat="38.6685320" lon="1.5565720">
        <ele>145.1</ele>
        <time>2020-02-22T15:55:21Z</time>
      </trkpt>
      <trkpt lat="38.6685320" lon="1.5565720">
        <ele>145.1</ele>
        <time>2020-02-22T15:55:22Z</time>
      </trkpt>
      <trkpt lat="38.6685380" lon="1.5565430">
        <ele>145.1</ele>
        <time>2020-02-22T15:55:23Z</time>
      </trkpt>
      <trkpt lat="38.6685380" lon="1.5565430">
        <ele>145.1</ele>
        <time>2020-02-22T15:55:24Z</time>
      </trkpt>
      <trkpt lat="38.6685420" lon="1.5565330">
        <ele>145.1</ele>
        <time>2020-02-22T15:55:25Z</time>
      </trkpt>
      <trkpt lat="38.6685420" lon="1.5565330">
        <ele>145.1</ele>
        <time>2020-02-22T15:55:26Z</time>
      </trkpt>
      <trkpt lat="38.6685470" lon="1.5565300">
        <ele>145.1</ele>
        <time>2020-02-22T15:55:27Z</time>
      </trkpt>
      <trkpt lat="38.6685470" lon="1.5565300">
        <ele>145.1</ele>
        <time>2020-02-22T15:55:28Z</time>
      </trkpt>
      <trkpt lat="38.6685470" lon="1.5565300">
        <ele>145.1</ele>
        <time>2020-02-22T15:55:29Z</time>
      </trkpt>
      <trkpt lat="38.6685470" lon="1.5565300">
        <ele>145.1</ele>
        <time>2020-02-22T15:55:30Z</time>
      </trkpt>
      <trkpt lat="38.6685470" lon="1.5565300">
        <ele>145.1</ele>
        <time>2020-02-22T15:56:49Z</time>
      </trkpt>
      <trkpt lat="38.6685520" lon="1.5565920">
        <ele>145.1</ele>
        <time>2020-02-22T15:56:50Z</time>
      </trkpt>
      <trkpt lat="38.6685400" lon="1.5566120">
        <ele>145.1</ele>
        <time>2020-02-22T15:56:51Z</time>
      </trkpt>
      <trkpt lat="38.6685400" lon="1.5566120">
        <ele>145.1</ele>
        <time>2020-02-22T15:56:52Z</time>
      </trkpt>
      <trkpt lat="38.6685180" lon="1.5566520">
        <ele>145.1</ele>
        <time>2020-02-22T15:56:53Z</time>
      </trkpt>
      <trkpt lat="38.6685180" lon="1.5566520">
        <ele>145.1</ele>
        <time>2020-02-22T15:56:54Z</time>
      </trkpt>
      <trkpt lat="38.6685050" lon="1.5566970">
        <ele>145.1</ele>
        <time>2020-02-22T15:56:55Z</time>
      </trkpt>
      <trkpt lat="38.6685050" lon="1.5566970">
        <ele>145.1</ele>
        <time>2020-02-22T15:56:56Z</time>
      </trkpt>
      <trkpt lat="38.6684970" lon="1.5567430">
        <ele>145.1</ele>
        <time>2020-02-22T15:56:57Z</time>
      </trkpt>
      <trkpt lat="38.6684920" lon="1.5567670">
        <ele>145.1</ele>
        <time>2020-02-22T15:56:58Z</time>
      </trkpt>
      <trkpt lat="38.6684850" lon="1.5567880">
        <ele>145.1</ele>
        <time>2020-02-22T15:56:59Z</time>
      </trkpt>
      <trkpt lat="38.6684850" lon="1.5567880">
        <ele>145.1</ele>
        <time>2020-02-22T15:57:00Z</time>
      </trkpt>
      <trkpt lat="38.6684670" lon="1.5568330">
        <ele>145.1</ele>
        <time>2020-02-22T15:57:01Z</time>
      </trkpt>
      <trkpt lat="38.6684670" lon="1.5568330">
        <ele>145.1</ele>
        <time>2020-02-22T15:57:02Z</time>
      </trkpt>
      <trkpt lat="38.6684550" lon="1.5568820">
        <ele>145.1</ele>
        <time>2020-02-22T15:57:03Z</time>
      </trkpt>
      <trkpt lat="38.6684550" lon="1.5568820">
        <ele>145.1</ele>
        <time>2020-02-22T15:57:04Z</time>
      </trkpt>
      <trkpt lat="38.6684480" lon="1.5569320">
        <ele>145.1</ele>
        <time>2020-02-22T15:57:05Z</time>
      </trkpt>
      <trkpt lat="38.6684480" lon="1.5569320">
        <ele>145.1</ele>
        <time>2020-02-22T15:57:06Z</time>
      </trkpt>
      <trkpt lat="38.6684520" lon="1.5569580">
        <ele>145.1</ele>
        <time>2020-02-22T15:57:07Z</time>
      </trkpt>
      <trkpt lat="38.6684520" lon="1.5569620">
        <ele>145.1</ele>
        <time>2020-02-22T15:57:08Z</time>
      </trkpt>
      <trkpt lat="38.6684520" lon="1.5569620">
        <ele>145.1</ele>
        <time>2020-02-22T15:57:09Z</time>
      </trkpt>
      <trkpt lat="38.6684530" lon="1.5569620">
        <ele>145.1</ele>
        <time>2020-02-22T15:57:10Z</time>
      </trkpt>
      <trkpt lat="38.6684470" lon="1.5569880">
        <ele>145.1</ele>
        <time>2020-02-22T15:58:36Z</time>
      </trkpt>
      <trkpt lat="38.6684630" lon="1.5569900">
        <ele>145.1</ele>
        <time>2020-02-22T15:58:37Z</time>
      </trkpt>
      <trkpt lat="38.6684630" lon="1.5569900">
        <ele>145.1</ele>
        <time>2020-02-22T15:58:38Z</time>
      </trkpt>
      <trkpt lat="38.6684980" lon="1.5569500">
        <ele>145.1</ele>
        <time>2020-02-22T15:58:39Z</time>
      </trkpt>
      <trkpt lat="38.6684980" lon="1.5569500">
        <ele>145.1</ele>
        <time>2020-02-22T15:58:40Z</time>
      </trkpt>
      <trkpt lat="38.6684980" lon="1.5569500">
        <ele>145.1</ele>
        <time>2020-02-22T15:58:41Z</time>
      </trkpt>
      <trkpt lat="38.6685070" lon="1.5568880">
        <ele>145.1</ele>
        <time>2020-02-22T15:58:42Z</time>
      </trkpt>
      <trkpt lat="38.6685180" lon="1.5568230">
        <ele>145.1</ele>
        <time>2020-02-22T15:58:43Z</time>
      </trkpt>
      <trkpt lat="38.6685180" lon="1.5568230">
        <ele>145.1</ele>
        <time>2020-02-22T15:58:44Z</time>
      </trkpt>
      <trkpt lat="38.6685370" lon="1.5567620">
        <ele>145.1</ele>
        <time>2020-02-22T15:58:45Z</time>
      </trkpt>
      <trkpt lat="38.6685370" lon="1.5567620">
        <ele>145.1</ele>
        <time>2020-02-22T15:58:46Z</time>
      </trkpt>
      <trkpt lat="38.6685550" lon="1.5567030">
        <ele>145.1</ele>
        <time>2020-02-22T15:58:47Z</time>
      </trkpt>
      <trkpt lat="38.6685550" lon="1.5567030">
        <ele>145.1</ele>
        <time>2020-02-22T15:58:48Z</time>
      </trkpt>
      <trkpt lat="38.6685730" lon="1.5566480">
        <ele>145.1</ele>
        <time>2020-02-22T15:58:49Z</time>
      </trkpt>
      <trkpt lat="38.6685730" lon="1.5566480">
        <ele>145.1</ele>
        <time>2020-02-22T15:58:50Z</time>
      </trkpt>
      <trkpt lat="38.6685730" lon="1.5566480">
        <ele>145.1</ele>
        <time>2020-02-22T15:58:51Z</time>
      </trkpt>
      <trkpt lat="38.6685900" lon="1.5565950">
        <ele>145.1</ele>
        <time>2020-02-22T15:58:52Z</time>
      </trkpt>
      <trkpt lat="38.6686030" lon="1.5565470">
        <ele>145.1</ele>
        <time>2020-02-22T15:58:53Z</time>
      </trkpt>
      <trkpt lat="38.6686030" lon="1.5565470">
        <ele>145.1</ele>
        <time>2020-02-22T15:58:54Z</time>
      </trkpt>
      <trkpt lat="38.6686030" lon="1.5565470">
        <ele>145.1</ele>
        <time>2020-02-22T15:58:55Z</time>
      </trkpt>
      <trkpt lat="38.6686250" lon="1.5565080">
        <ele>145.1</ele>
        <time>2020-02-22T15:58:56Z</time>
      </trkpt>
      <trkpt lat="38.6686250" lon="1.5565080">
        <ele>145.1</ele>
        <time>2020-02-22T15:58:57Z</time>
      </trkpt>
      <trkpt lat="38.6686570" lon="1.5564680">
        <ele>145.1</ele>
        <time>2020-02-22T15:58:58Z</time>
      </trkpt>
      <trkpt lat="38.6686570" lon="1.5564680">
        <ele>145.1</ele>
        <time>2020-02-22T15:58:59Z</time>
      </trkpt>
      <trkpt lat="38.6686980" lon="1.5563870">
        <ele>145.1</ele>
        <time>2020-02-22T15:59:00Z</time>
      </trkpt>
      <trkpt lat="38.6686980" lon="1.5563870">
        <ele>145.1</ele>
        <time>2020-02-22T15:59:01Z</time>
      </trkpt>
      <trkpt lat="38.6687130" lon="1.5563600">
        <ele>145.1</ele>
        <time>2020-02-22T15:59:02Z</time>
      </trkpt>
      <trkpt lat="38.6687130" lon="1.5563600">
        <ele>145.1</ele>
        <time>2020-02-22T15:59:03Z</time>
      </trkpt>
      <trkpt lat="38.6687430" lon="1.5563080">
        <ele>145.1</ele>
        <time>2020-02-22T15:59:04Z</time>
      </trkpt>
      <trkpt lat="38.6687620" lon="1.5562830">
        <ele>145.1</ele>
        <time>2020-02-22T15:59:05Z</time>
      </trkpt>
      <trkpt lat="38.6687950" lon="1.5562300">
        <ele>145.1</ele>
        <time>2020-02-22T15:59:06Z</time>
      </trkpt>
      <trkpt lat="38.6687950" lon="1.5562300">
        <ele>145.1</ele>
        <time>2020-02-22T15:59:07Z</time>
      </trkpt>
      <trkpt lat="38.6688270" lon="1.5561680">
        <ele>145.1</ele>
        <time>2020-02-22T15:59:08Z</time>
      </trkpt>
      <trkpt lat="38.6688270" lon="1.5561680">
        <ele>145.1</ele>
        <time>2020-02-22T15:59:09Z</time>
      </trkpt>
      <trkpt lat="38.6688270" lon="1.5561680">
        <ele>145.1</ele>
        <time>2020-02-22T15:59:10Z</time>
      </trkpt>
      <trkpt lat="38.6688680" lon="1.5561050">
        <ele>145.1</ele>
        <time>2020-02-22T15:59:11Z</time>
      </trkpt>
      <trkpt lat="38.6688920" lon="1.5560730">
        <ele>145.1</ele>
        <time>2020-02-22T15:59:12Z</time>
      </trkpt>
      <trkpt lat="38.6689170" lon="1.5560370">
        <ele>145.1</ele>
        <time>2020-02-22T15:59:13Z</time>
      </trkpt>
      <trkpt lat="38.6689170" lon="1.5560370">
        <ele>145.1</ele>
        <time>2020-02-22T15:59:14Z</time>
      </trkpt>
      <trkpt lat="38.6689630" lon="1.5559600">
        <ele>145.1</ele>
        <time>2020-02-22T15:59:15Z</time>
      </trkpt>
      <trkpt lat="38.6689900" lon="1.5559020">
        <ele>145.1</ele>
        <time>2020-02-22T15:59:16Z</time>
      </trkpt>
      <trkpt lat="38.6689900" lon="1.5559020">
        <ele>145.1</ele>
        <time>2020-02-22T15:59:17Z</time>
      </trkpt>
      <trkpt lat="38.6689900" lon="1.5559020">
        <ele>145.1</ele>
        <time>2020-02-22T15:59:18Z</time>
      </trkpt>
      <trkpt lat="38.6689780" lon="1.5558780">
        <ele>145.1</ele>
        <time>2020-02-22T15:59:19Z</time>
      </trkpt>
      <trkpt lat="38.6689550" lon="1.5559030">
        <ele>145.1</ele>
        <time>2020-02-22T15:59:20Z</time>
      </trkpt>
      <trkpt lat="38.6689420" lon="1.5559230">
        <ele>145.1</ele>
        <time>2020-02-22T15:59:21Z</time>
      </trkpt>
      <trkpt lat="38.6689270" lon="1.5559470">
        <ele>145.1</ele>
        <time>2020-02-22T15:59:22Z</time>
      </trkpt>
      <trkpt lat="38.6689270" lon="1.5559470">
        <ele>145.1</ele>
        <time>2020-02-22T15:59:23Z</time>
      </trkpt>
      <trkpt lat="38.6688950" lon="1.5560130">
        <ele>145.1</ele>
        <time>2020-02-22T15:59:24Z</time>
      </trkpt>
      <trkpt lat="38.6688950" lon="1.5560130">
        <ele>145.1</ele>
        <time>2020-02-22T15:59:25Z</time>
      </trkpt>
      <trkpt lat="38.6688950" lon="1.5560130">
        <ele>145.1</ele>
        <time>2020-02-22T15:59:26Z</time>
      </trkpt>
      <trkpt lat="38.6688550" lon="1.5560980">
        <ele>145.1</ele>
        <time>2020-02-22T15:59:27Z</time>
      </trkpt>
      <trkpt lat="38.6688550" lon="1.5560980">
        <ele>145.1</ele>
        <time>2020-02-22T15:59:28Z</time>
      </trkpt>
      <trkpt lat="38.6688170" lon="1.5561970">
        <ele>145.1</ele>
        <time>2020-02-22T15:59:29Z</time>
      </trkpt>
      <trkpt lat="38.6688170" lon="1.5561970">
        <ele>145.1</ele>
        <time>2020-02-22T15:59:30Z</time>
      </trkpt>
      <trkpt lat="38.6687750" lon="1.5562930">
        <ele>145.1</ele>
        <time>2020-02-22T15:59:31Z</time>
      </trkpt>
      <trkpt lat="38.6687750" lon="1.5562930">
        <ele>145.1</ele>
        <time>2020-02-22T15:59:32Z</time>
      </trkpt>
      <trkpt lat="38.6687300" lon="1.5563720">
        <ele>145.1</ele>
        <time>2020-02-22T15:59:33Z</time>
      </trkpt>
      <trkpt lat="38.6687150" lon="1.5564020">
        <ele>145.1</ele>
        <time>2020-02-22T15:59:34Z</time>
      </trkpt>
      <trkpt lat="38.6687050" lon="1.5564250">
        <ele>145.1</ele>
        <time>2020-02-22T15:59:35Z</time>
      </trkpt>
      <trkpt lat="38.6686970" lon="1.5564430">
        <ele>145.1</ele>
        <time>2020-02-22T15:59:36Z</time>
      </trkpt>
      <trkpt lat="38.6686970" lon="1.5564430">
        <ele>145.1</ele>
        <time>2020-02-22T15:59:37Z</time>
      </trkpt>
      <trkpt lat="38.6686700" lon="1.5564730">
        <ele>145.1</ele>
        <time>2020-02-22T15:59:38Z</time>
      </trkpt>
      <trkpt lat="38.6686700" lon="1.5564730">
        <ele>145.1</ele>
        <time>2020-02-22T15:59:39Z</time>
      </trkpt>
      <trkpt lat="38.6686470" lon="1.5565000">
        <ele>145.1</ele>
        <time>2020-02-22T15:59:40Z</time>
      </trkpt>
      <trkpt lat="38.6686470" lon="1.5565000">
        <ele>145.1</ele>
        <time>2020-02-22T15:59:41Z</time>
      </trkpt>
      <trkpt lat="38.6686400" lon="1.5565370">
        <ele>145.1</ele>
        <time>2020-02-22T15:59:42Z</time>
      </trkpt>
      <trkpt lat="38.6686400" lon="1.5565370">
        <ele>145.1</ele>
        <time>2020-02-22T15:59:43Z</time>
      </trkpt>
      <trkpt lat="38.6686470" lon="1.5565720">
        <ele>145.1</ele>
        <time>2020-02-22T15:59:44Z</time>
      </trkpt>
      <trkpt lat="38.6686580" lon="1.5565780">
        <ele>145.1</ele>
        <time>2020-02-22T15:59:45Z</time>
      </trkpt>
      <trkpt lat="38.6686600" lon="1.5565780">
        <ele>145.1</ele>
        <time>2020-02-22T15:59:46Z</time>
      </trkpt>
      <trkpt lat="38.6686600" lon="1.5565780">
        <ele>145.1</ele>
        <time>2020-02-22T15:59:47Z</time>
      </trkpt>
      <trkpt lat="38.6686070" lon="1.5565130">
        <ele>145.1</ele>
        <time>2020-02-22T16:01:24Z</time>
      </trkpt>
      <trkpt lat="38.6686070" lon="1.5565130">
        <ele>145.1</ele>
        <time>2020-02-22T16:01:25Z</time>
      </trkpt>
      <trkpt lat="38.6686000" lon="1.5564970">
        <ele>145.1</ele>
        <time>2020-02-22T16:01:26Z</time>
      </trkpt>
      <trkpt lat="38.6686000" lon="1.5564970">
        <ele>145.1</ele>
        <time>2020-02-22T16:01:27Z</time>
      </trkpt>
      <trkpt lat="38.6686150" lon="1.5564680">
        <ele>145.1</ele>
        <time>2020-02-22T16:01:28Z</time>
      </trkpt>
      <trkpt lat="38.6686270" lon="1.5564530">
        <ele>145.1</ele>
        <time>2020-02-22T16:01:29Z</time>
      </trkpt>
      <trkpt lat="38.6686270" lon="1.5564530">
        <ele>145.1</ele>
        <time>2020-02-22T16:01:30Z</time>
      </trkpt>
      <trkpt lat="38.6686430" lon="1.5564150">
        <ele>145.1</ele>
        <time>2020-02-22T16:01:31Z</time>
      </trkpt>
      <trkpt lat="38.6686570" lon="1.5563970">
        <ele>145.1</ele>
        <time>2020-02-22T16:01:32Z</time>
      </trkpt>
      <trkpt lat="38.6686570" lon="1.5563970">
        <ele>145.1</ele>
        <time>2020-02-22T16:01:33Z</time>
      </trkpt>
      <trkpt lat="38.6686900" lon="1.5563530">
        <ele>145.1</ele>
        <time>2020-02-22T16:01:34Z</time>
      </trkpt>
      <trkpt lat="38.6686900" lon="1.5563530">
        <ele>145.1</ele>
        <time>2020-02-22T16:01:35Z</time>
      </trkpt>
      <trkpt lat="38.6687300" lon="1.5562920">
        <ele>145.1</ele>
        <time>2020-02-22T16:01:36Z</time>
      </trkpt>
      <trkpt lat="38.6687300" lon="1.5562920">
        <ele>145.1</ele>
        <time>2020-02-22T16:01:37Z</time>
      </trkpt>
      <trkpt lat="38.6687780" lon="1.5562200">
        <ele>145.1</ele>
        <time>2020-02-22T16:01:38Z</time>
      </trkpt>
      <trkpt lat="38.6687780" lon="1.5562200">
        <ele>145.1</ele>
        <time>2020-02-22T16:01:39Z</time>
      </trkpt>
      <trkpt lat="38.6688250" lon="1.5561380">
        <ele>145.1</ele>
        <time>2020-02-22T16:01:40Z</time>
      </trkpt>
      <trkpt lat="38.6688250" lon="1.5561380">
        <ele>145.1</ele>
        <time>2020-02-22T16:01:41Z</time>
      </trkpt>
      <trkpt lat="38.6688720" lon="1.5560520">
        <ele>145.1</ele>
        <time>2020-02-22T16:01:42Z</time>
      </trkpt>
      <trkpt lat="38.6688720" lon="1.5560520">
        <ele>145.1</ele>
        <time>2020-02-22T16:01:43Z</time>
      </trkpt>
      <trkpt lat="38.6689230" lon="1.5559670">
        <ele>145.1</ele>
        <time>2020-02-22T16:01:44Z</time>
      </trkpt>
      <trkpt lat="38.6689230" lon="1.5559670">
        <ele>145.1</ele>
        <time>2020-02-22T16:01:45Z</time>
      </trkpt>
      <trkpt lat="38.6689800" lon="1.5558820">
        <ele>145.1</ele>
        <time>2020-02-22T16:01:46Z</time>
      </trkpt>
      <trkpt lat="38.6689800" lon="1.5558820">
        <ele>145.1</ele>
        <time>2020-02-22T16:01:47Z</time>
      </trkpt>
      <trkpt lat="38.6690350" lon="1.5557900">
        <ele>145.1</ele>
        <time>2020-02-22T16:01:48Z</time>
      </trkpt>
      <trkpt lat="38.6690620" lon="1.5557430">
        <ele>145.1</ele>
        <time>2020-02-22T16:01:49Z</time>
      </trkpt>
      <trkpt lat="38.6690620" lon="1.5557430">
        <ele>145.1</ele>
        <time>2020-02-22T16:01:50Z</time>
      </trkpt>
      <trkpt lat="38.6690620" lon="1.5557430">
        <ele>145.1</ele>
        <time>2020-02-22T16:01:51Z</time>
      </trkpt>
      <trkpt lat="38.6691150" lon="1.5556480">
        <ele>145.1</ele>
        <time>2020-02-22T16:01:52Z</time>
      </trkpt>
      <trkpt lat="38.6691620" lon="1.5555500">
        <ele>145.1</ele>
        <time>2020-02-22T16:01:53Z</time>
      </trkpt>
      <trkpt lat="38.6691880" lon="1.5555000">
        <ele>145.1</ele>
        <time>2020-02-22T16:01:54Z</time>
      </trkpt>
      <trkpt lat="38.6691880" lon="1.5555000">
        <ele>145.1</ele>
        <time>2020-02-22T16:01:55Z</time>
      </trkpt>
      <trkpt lat="38.6692350" lon="1.5554020">
        <ele>145.1</ele>
        <time>2020-02-22T16:01:56Z</time>
      </trkpt>
      <trkpt lat="38.6692350" lon="1.5554020">
        <ele>145.1</ele>
        <time>2020-02-22T16:01:57Z</time>
      </trkpt>
      <trkpt lat="38.6692820" lon="1.5552970">
        <ele>145.1</ele>
        <time>2020-02-22T16:01:58Z</time>
      </trkpt>
      <trkpt lat="38.6692820" lon="1.5552970">
        <ele>145.1</ele>
        <time>2020-02-22T16:01:59Z</time>
      </trkpt>
      <trkpt lat="38.6693250" lon="1.5552000">
        <ele>145.1</ele>
        <time>2020-02-22T16:02:00Z</time>
      </trkpt>
      <trkpt lat="38.6693500" lon="1.5551570">
        <ele>145.1</ele>
        <time>2020-02-22T16:02:01Z</time>
      </trkpt>
      <trkpt lat="38.6693500" lon="1.5551570">
        <ele>145.1</ele>
        <time>2020-02-22T16:02:02Z</time>
      </trkpt>
      <trkpt lat="38.6693880" lon="1.5550680">
        <ele>145.1</ele>
        <time>2020-02-22T16:02:03Z</time>
      </trkpt>
      <trkpt lat="38.6693880" lon="1.5550680">
        <ele>145.1</ele>
        <time>2020-02-22T16:02:04Z</time>
      </trkpt>
      <trkpt lat="38.6694370" lon="1.5549650">
        <ele>145.1</ele>
        <time>2020-02-22T16:02:05Z</time>
      </trkpt>
      <trkpt lat="38.6694670" lon="1.5549100">
        <ele>145.1</ele>
        <time>2020-02-22T16:02:06Z</time>
      </trkpt>
      <trkpt lat="38.6694930" lon="1.5548600">
        <ele>145.1</ele>
        <time>2020-02-22T16:02:07Z</time>
      </trkpt>
      <trkpt lat="38.6694930" lon="1.5548600">
        <ele>145.1</ele>
        <time>2020-02-22T16:02:08Z</time>
      </trkpt>
      <trkpt lat="38.6695350" lon="1.5547650">
        <ele>145.1</ele>
        <time>2020-02-22T16:02:09Z</time>
      </trkpt>
      <trkpt lat="38.6695350" lon="1.5547650">
        <ele>145.1</ele>
        <time>2020-02-22T16:02:10Z</time>
      </trkpt>
      <trkpt lat="38.6695770" lon="1.5546770">
        <ele>145.1</ele>
        <time>2020-02-22T16:02:11Z</time>
      </trkpt>
      <trkpt lat="38.6695770" lon="1.5546770">
        <ele>145.1</ele>
        <time>2020-02-22T16:02:12Z</time>
      </trkpt>
      <trkpt lat="38.6696100" lon="1.5545900">
        <ele>145.1</ele>
        <time>2020-02-22T16:02:13Z</time>
      </trkpt>
      <trkpt lat="38.6696280" lon="1.5545430">
        <ele>145.1</ele>
        <time>2020-02-22T16:02:14Z</time>
      </trkpt>
      <trkpt lat="38.6696280" lon="1.5545430">
        <ele>145.1</ele>
        <time>2020-02-22T16:02:15Z</time>
      </trkpt>
      <trkpt lat="38.6696680" lon="1.5544570">
        <ele>145.1</ele>
        <time>2020-02-22T16:02:16Z</time>
      </trkpt>
      <trkpt lat="38.6696900" lon="1.5544150">
        <ele>145.1</ele>
        <time>2020-02-22T16:02:17Z</time>
      </trkpt>
      <trkpt lat="38.6696900" lon="1.5544150">
        <ele>145.1</ele>
        <time>2020-02-22T16:02:18Z</time>
      </trkpt>
      <trkpt lat="38.6697280" lon="1.5543270">
        <ele>145.1</ele>
        <time>2020-02-22T16:02:19Z</time>
      </trkpt>
      <trkpt lat="38.6697530" lon="1.5542820">
        <ele>145.1</ele>
        <time>2020-02-22T16:02:20Z</time>
      </trkpt>
      <trkpt lat="38.6697530" lon="1.5542820">
        <ele>145.1</ele>
        <time>2020-02-22T16:02:21Z</time>
      </trkpt>
      <trkpt lat="38.6698030" lon="1.5541770">
        <ele>145.1</ele>
        <time>2020-02-22T16:02:22Z</time>
      </trkpt>
      <trkpt lat="38.6698030" lon="1.5541770">
        <ele>145.1</ele>
        <time>2020-02-22T16:02:23Z</time>
      </trkpt>
      <trkpt lat="38.6698620" lon="1.5540530">
        <ele>145.1</ele>
        <time>2020-02-22T16:02:24Z</time>
      </trkpt>
      <trkpt lat="38.6698620" lon="1.5540530">
        <ele>145.1</ele>
        <time>2020-02-22T16:02:25Z</time>
      </trkpt>
      <trkpt lat="38.6699200" lon="1.5539280">
        <ele>145.1</ele>
        <time>2020-02-22T16:02:26Z</time>
      </trkpt>
      <trkpt lat="38.6699200" lon="1.5539280">
        <ele>145.1</ele>
        <time>2020-02-22T16:02:27Z</time>
      </trkpt>
      <trkpt lat="38.6699750" lon="1.5538100">
        <ele>145.1</ele>
        <time>2020-02-22T16:02:28Z</time>
      </trkpt>
      <trkpt lat="38.6700020" lon="1.5537520">
        <ele>145.1</ele>
        <time>2020-02-22T16:02:29Z</time>
      </trkpt>
      <trkpt lat="38.6700020" lon="1.5537520">
        <ele>145.1</ele>
        <time>2020-02-22T16:02:30Z</time>
      </trkpt>
      <trkpt lat="38.6700500" lon="1.5536430">
        <ele>146.1</ele>
        <time>2020-02-22T16:02:31Z</time>
      </trkpt>
      <trkpt lat="38.6700750" lon="1.5535950">
        <ele>146.1</ele>
        <time>2020-02-22T16:02:32Z</time>
      </trkpt>
      <trkpt lat="38.6700750" lon="1.5535950">
        <ele>146.1</ele>
        <time>2020-02-22T16:02:33Z</time>
      </trkpt>
      <trkpt lat="38.6701200" lon="1.5534930">
        <ele>146.1</ele>
        <time>2020-02-22T16:02:34Z</time>
      </trkpt>
      <trkpt lat="38.6701200" lon="1.5534930">
        <ele>146.1</ele>
        <time>2020-02-22T16:02:35Z</time>
      </trkpt>
      <trkpt lat="38.6701650" lon="1.5533930">
        <ele>146.1</ele>
        <time>2020-02-22T16:02:36Z</time>
      </trkpt>
      <trkpt lat="38.6701650" lon="1.5533930">
        <ele>146.1</ele>
        <time>2020-02-22T16:02:37Z</time>
      </trkpt>
      <trkpt lat="38.6702150" lon="1.5532870">
        <ele>146.1</ele>
        <time>2020-02-22T16:02:38Z</time>
      </trkpt>
      <trkpt lat="38.6702150" lon="1.5532870">
        <ele>146.1</ele>
        <time>2020-02-22T16:02:39Z</time>
      </trkpt>
      <trkpt lat="38.6702630" lon="1.5531830">
        <ele>146.1</ele>
        <time>2020-02-22T16:02:40Z</time>
      </trkpt>
      <trkpt lat="38.6702630" lon="1.5531830">
        <ele>146.1</ele>
        <time>2020-02-22T16:02:41Z</time>
      </trkpt>
      <trkpt lat="38.6703150" lon="1.5530770">
        <ele>146.1</ele>
        <time>2020-02-22T16:02:42Z</time>
      </trkpt>
      <trkpt lat="38.6703150" lon="1.5530770">
        <ele>147.1</ele>
        <time>2020-02-22T16:02:43Z</time>
      </trkpt>
      <trkpt lat="38.6703630" lon="1.5529670">
        <ele>147.1</ele>
        <time>2020-02-22T16:02:44Z</time>
      </trkpt>
      <trkpt lat="38.6703630" lon="1.5529670">
        <ele>147.1</ele>
        <time>2020-02-22T16:02:45Z</time>
      </trkpt>
      <trkpt lat="38.6704000" lon="1.5528780">
        <ele>147.1</ele>
        <time>2020-02-22T16:02:46Z</time>
      </trkpt>
      <trkpt lat="38.6704000" lon="1.5528780">
        <ele>147.1</ele>
        <time>2020-02-22T16:02:47Z</time>
      </trkpt>
      <trkpt lat="38.6704330" lon="1.5527930">
        <ele>147.1</ele>
        <time>2020-02-22T16:02:48Z</time>
      </trkpt>
      <trkpt lat="38.6704330" lon="1.5527930">
        <ele>147.1</ele>
        <time>2020-02-22T16:02:49Z</time>
      </trkpt>
      <trkpt lat="38.6704630" lon="1.5527130">
        <ele>147.1</ele>
        <time>2020-02-22T16:02:50Z</time>
      </trkpt>
      <trkpt lat="38.6704630" lon="1.5527130">
        <ele>147.1</ele>
        <time>2020-02-22T16:02:51Z</time>
      </trkpt>
      <trkpt lat="38.6704970" lon="1.5526220">
        <ele>148.1</ele>
        <time>2020-02-22T16:02:52Z</time>
      </trkpt>
      <trkpt lat="38.6705100" lon="1.5525780">
        <ele>148.1</ele>
        <time>2020-02-22T16:02:53Z</time>
      </trkpt>
      <trkpt lat="38.6705100" lon="1.5525780">
        <ele>148.1</ele>
        <time>2020-02-22T16:02:54Z</time>
      </trkpt>
      <trkpt lat="38.6705420" lon="1.5524930">
        <ele>148.1</ele>
        <time>2020-02-22T16:02:55Z</time>
      </trkpt>
      <trkpt lat="38.6705650" lon="1.5524430">
        <ele>148.1</ele>
        <time>2020-02-22T16:02:56Z</time>
      </trkpt>
      <trkpt lat="38.6705650" lon="1.5524430">
        <ele>148.1</ele>
        <time>2020-02-22T16:02:57Z</time>
      </trkpt>
      <trkpt lat="38.6706220" lon="1.5523330">
        <ele>149.1</ele>
        <time>2020-02-22T16:02:58Z</time>
      </trkpt>
      <trkpt lat="38.6706220" lon="1.5523330">
        <ele>149.1</ele>
        <time>2020-02-22T16:02:59Z</time>
      </trkpt>
      <trkpt lat="38.6706680" lon="1.5522280">
        <ele>149.1</ele>
        <time>2020-02-22T16:03:00Z</time>
      </trkpt>
      <trkpt lat="38.6706680" lon="1.5522280">
        <ele>149.1</ele>
        <time>2020-02-22T16:03:01Z</time>
      </trkpt>
      <trkpt lat="38.6707180" lon="1.5521270">
        <ele>149.1</ele>
        <time>2020-02-22T16:03:02Z</time>
      </trkpt>
      <trkpt lat="38.6707430" lon="1.5520770">
        <ele>149.1</ele>
        <time>2020-02-22T16:03:03Z</time>
      </trkpt>
      <trkpt lat="38.6707430" lon="1.5520770">
        <ele>149.1</ele>
        <time>2020-02-22T16:03:04Z</time>
      </trkpt>
      <trkpt lat="38.6708000" lon="1.5519680">
        <ele>149.1</ele>
        <time>2020-02-22T16:03:05Z</time>
      </trkpt>
      <trkpt lat="38.6708250" lon="1.5519200">
        <ele>149.1</ele>
        <time>2020-02-22T16:03:06Z</time>
      </trkpt>
      <trkpt lat="38.6708250" lon="1.5519200">
        <ele>149.1</ele>
        <time>2020-02-22T16:03:07Z</time>
      </trkpt>
      <trkpt lat="38.6708650" lon="1.5518250">
        <ele>149.1</ele>
        <time>2020-02-22T16:03:08Z</time>
      </trkpt>
      <trkpt lat="38.6708650" lon="1.5518250">
        <ele>150.1</ele>
        <time>2020-02-22T16:03:09Z</time>
      </trkpt>
      <trkpt lat="38.6709030" lon="1.5517280">
        <ele>150.1</ele>
        <time>2020-02-22T16:03:10Z</time>
      </trkpt>
      <trkpt lat="38.6709030" lon="1.5517280">
        <ele>150.1</ele>
        <time>2020-02-22T16:03:11Z</time>
      </trkpt>
      <trkpt lat="38.6709030" lon="1.5517280">
        <ele>150.1</ele>
        <time>2020-02-22T16:03:12Z</time>
      </trkpt>
      <trkpt lat="38.6709580" lon="1.5515930">
        <ele>150.1</ele>
        <time>2020-02-22T16:03:13Z</time>
      </trkpt>
      <trkpt lat="38.6709780" lon="1.5515520">
        <ele>150.1</ele>
        <time>2020-02-22T16:03:14Z</time>
      </trkpt>
      <trkpt lat="38.6709780" lon="1.5515520">
        <ele>151.1</ele>
        <time>2020-02-22T16:03:15Z</time>
      </trkpt>
      <trkpt lat="38.6710220" lon="1.5514600">
        <ele>151.1</ele>
        <time>2020-02-22T16:03:16Z</time>
      </trkpt>
      <trkpt lat="38.6710220" lon="1.5514600">
        <ele>151.1</ele>
        <time>2020-02-22T16:03:17Z</time>
      </trkpt>
      <trkpt lat="38.6710700" lon="1.5513630">
        <ele>151.1</ele>
        <time>2020-02-22T16:03:18Z</time>
      </trkpt>
      <trkpt lat="38.6710700" lon="1.5513630">
        <ele>151.1</ele>
        <time>2020-02-22T16:03:19Z</time>
      </trkpt>
      <trkpt lat="38.6711130" lon="1.5512670">
        <ele>151.1</ele>
        <time>2020-02-22T16:03:20Z</time>
      </trkpt>
      <trkpt lat="38.6711130" lon="1.5512670">
        <ele>151.1</ele>
        <time>2020-02-22T16:03:21Z</time>
      </trkpt>
      <trkpt lat="38.6711570" lon="1.5511700">
        <ele>151.1</ele>
        <time>2020-02-22T16:03:22Z</time>
      </trkpt>
      <trkpt lat="38.6711570" lon="1.5511700">
        <ele>151.1</ele>
        <time>2020-02-22T16:03:23Z</time>
      </trkpt>
      <trkpt lat="38.6712150" lon="1.5510680">
        <ele>151.1</ele>
        <time>2020-02-22T16:03:24Z</time>
      </trkpt>
      <trkpt lat="38.6712420" lon="1.5510230">
        <ele>151.1</ele>
        <time>2020-02-22T16:03:25Z</time>
      </trkpt>
      <trkpt lat="38.6712420" lon="1.5510230">
        <ele>151.1</ele>
        <time>2020-02-22T16:03:26Z</time>
      </trkpt>
      <trkpt lat="38.6713020" lon="1.5509180">
        <ele>151.1</ele>
        <time>2020-02-22T16:03:27Z</time>
      </trkpt>
      <trkpt lat="38.6713300" lon="1.5508680">
        <ele>151.1</ele>
        <time>2020-02-22T16:03:28Z</time>
      </trkpt>
      <trkpt lat="38.6713300" lon="1.5508680">
        <ele>151.1</ele>
        <time>2020-02-22T16:03:29Z</time>
      </trkpt>
      <trkpt lat="38.6714030" lon="1.5507550">
        <ele>151.1</ele>
        <time>2020-02-22T16:03:30Z</time>
      </trkpt>
      <trkpt lat="38.6714030" lon="1.5507550">
        <ele>151.1</ele>
        <time>2020-02-22T16:03:31Z</time>
      </trkpt>
      <trkpt lat="38.6714600" lon="1.5506600">
        <ele>151.1</ele>
        <time>2020-02-22T16:03:32Z</time>
      </trkpt>
      <trkpt lat="38.6714600" lon="1.5506600">
        <ele>151.1</ele>
        <time>2020-02-22T16:03:33Z</time>
      </trkpt>
      <trkpt lat="38.6715020" lon="1.5505700">
        <ele>152.1</ele>
        <time>2020-02-22T16:03:34Z</time>
      </trkpt>
      <trkpt lat="38.6715020" lon="1.5505700">
        <ele>152.1</ele>
        <time>2020-02-22T16:03:35Z</time>
      </trkpt>
      <trkpt lat="38.6715430" lon="1.5504720">
        <ele>152.1</ele>
        <time>2020-02-22T16:03:36Z</time>
      </trkpt>
      <trkpt lat="38.6715430" lon="1.5504720">
        <ele>152.1</ele>
        <time>2020-02-22T16:03:37Z</time>
      </trkpt>
      <trkpt lat="38.6715980" lon="1.5503580">
        <ele>152.1</ele>
        <time>2020-02-22T16:03:38Z</time>
      </trkpt>
      <trkpt lat="38.6715980" lon="1.5503580">
        <ele>152.1</ele>
        <time>2020-02-22T16:03:39Z</time>
      </trkpt>
      <trkpt lat="38.6716620" lon="1.5502530">
        <ele>152.1</ele>
        <time>2020-02-22T16:03:40Z</time>
      </trkpt>
      <trkpt lat="38.6716620" lon="1.5502530">
        <ele>152.1</ele>
        <time>2020-02-22T16:03:41Z</time>
      </trkpt>
      <trkpt lat="38.6717000" lon="1.5501480">
        <ele>153.1</ele>
        <time>2020-02-22T16:03:42Z</time>
      </trkpt>
      <trkpt lat="38.6717000" lon="1.5501480">
        <ele>153.1</ele>
        <time>2020-02-22T16:03:43Z</time>
      </trkpt>
      <trkpt lat="38.6717500" lon="1.5500620">
        <ele>153.1</ele>
        <time>2020-02-22T16:03:44Z</time>
      </trkpt>
      <trkpt lat="38.6717500" lon="1.5500620">
        <ele>153.1</ele>
        <time>2020-02-22T16:03:45Z</time>
      </trkpt>
      <trkpt lat="38.6717930" lon="1.5499700">
        <ele>153.1</ele>
        <time>2020-02-22T16:03:46Z</time>
      </trkpt>
      <trkpt lat="38.6717930" lon="1.5499700">
        <ele>154.1</ele>
        <time>2020-02-22T16:03:47Z</time>
      </trkpt>
      <trkpt lat="38.6718530" lon="1.5498800">
        <ele>154.1</ele>
        <time>2020-02-22T16:03:48Z</time>
      </trkpt>
      <trkpt lat="38.6718530" lon="1.5498800">
        <ele>154.1</ele>
        <time>2020-02-22T16:03:49Z</time>
      </trkpt>
      <trkpt lat="38.6719300" lon="1.5497650">
        <ele>154.1</ele>
        <time>2020-02-22T16:03:50Z</time>
      </trkpt>
      <trkpt lat="38.6719300" lon="1.5497650">
        <ele>154.1</ele>
        <time>2020-02-22T16:03:51Z</time>
      </trkpt>
      <trkpt lat="38.6719870" lon="1.5496530">
        <ele>154.1</ele>
        <time>2020-02-22T16:03:52Z</time>
      </trkpt>
      <trkpt lat="38.6720180" lon="1.5496000">
        <ele>154.1</ele>
        <time>2020-02-22T16:03:53Z</time>
      </trkpt>
      <trkpt lat="38.6720180" lon="1.5496000">
        <ele>154.1</ele>
        <time>2020-02-22T16:03:54Z</time>
      </trkpt>
      <trkpt lat="38.6720700" lon="1.5495070">
        <ele>154.1</ele>
        <time>2020-02-22T16:03:55Z</time>
      </trkpt>
      <trkpt lat="38.6720700" lon="1.5495070">
        <ele>154.1</ele>
        <time>2020-02-22T16:03:56Z</time>
      </trkpt>
      <trkpt lat="38.6721330" lon="1.5493980">
        <ele>154.1</ele>
        <time>2020-02-22T16:03:57Z</time>
      </trkpt>
      <trkpt lat="38.6721330" lon="1.5493980">
        <ele>154.1</ele>
        <time>2020-02-22T16:03:58Z</time>
      </trkpt>
      <trkpt lat="38.6721870" lon="1.5492980">
        <ele>154.1</ele>
        <time>2020-02-22T16:03:59Z</time>
      </trkpt>
      <trkpt lat="38.6722170" lon="1.5492480">
        <ele>154.1</ele>
        <time>2020-02-22T16:04:00Z</time>
      </trkpt>
      <trkpt lat="38.6722170" lon="1.5492480">
        <ele>154.1</ele>
        <time>2020-02-22T16:04:01Z</time>
      </trkpt>
      <trkpt lat="38.6722780" lon="1.5491520">
        <ele>154.1</ele>
        <time>2020-02-22T16:04:02Z</time>
      </trkpt>
      <trkpt lat="38.6722780" lon="1.5491520">
        <ele>154.1</ele>
        <time>2020-02-22T16:04:03Z</time>
      </trkpt>
      <trkpt lat="38.6723380" lon="1.5490430">
        <ele>155.1</ele>
        <time>2020-02-22T16:04:04Z</time>
      </trkpt>
      <trkpt lat="38.6723380" lon="1.5490430">
        <ele>155.1</ele>
        <time>2020-02-22T16:04:05Z</time>
      </trkpt>
      <trkpt lat="38.6723950" lon="1.5489350">
        <ele>155.1</ele>
        <time>2020-02-22T16:04:06Z</time>
      </trkpt>
      <trkpt lat="38.6723950" lon="1.5489350">
        <ele>155.1</ele>
        <time>2020-02-22T16:04:07Z</time>
      </trkpt>
      <trkpt lat="38.6724330" lon="1.5488270">
        <ele>155.1</ele>
        <time>2020-02-22T16:04:08Z</time>
      </trkpt>
      <trkpt lat="38.6724330" lon="1.5488270">
        <ele>155.1</ele>
        <time>2020-02-22T16:04:09Z</time>
      </trkpt>
      <trkpt lat="38.6724800" lon="1.5487350">
        <ele>155.1</ele>
        <time>2020-02-22T16:04:10Z</time>
      </trkpt>
      <trkpt lat="38.6724800" lon="1.5487350">
        <ele>155.1</ele>
        <time>2020-02-22T16:04:11Z</time>
      </trkpt>
      <trkpt lat="38.6725400" lon="1.5486180">
        <ele>155.1</ele>
        <time>2020-02-22T16:04:12Z</time>
      </trkpt>
      <trkpt lat="38.6725400" lon="1.5486180">
        <ele>155.1</ele>
        <time>2020-02-22T16:04:13Z</time>
      </trkpt>
      <trkpt lat="38.6726150" lon="1.5485030">
        <ele>156.1</ele>
        <time>2020-02-22T16:04:14Z</time>
      </trkpt>
      <trkpt lat="38.6726150" lon="1.5485030">
        <ele>156.1</ele>
        <time>2020-02-22T16:04:15Z</time>
      </trkpt>
      <trkpt lat="38.6726730" lon="1.5483930">
        <ele>156.1</ele>
        <time>2020-02-22T16:04:16Z</time>
      </trkpt>
      <trkpt lat="38.6726730" lon="1.5483930">
        <ele>156.1</ele>
        <time>2020-02-22T16:04:17Z</time>
      </trkpt>
      <trkpt lat="38.6727200" lon="1.5482780">
        <ele>156.1</ele>
        <time>2020-02-22T16:04:18Z</time>
      </trkpt>
      <trkpt lat="38.6727200" lon="1.5482780">
        <ele>156.1</ele>
        <time>2020-02-22T16:04:19Z</time>
      </trkpt>
      <trkpt lat="38.6727570" lon="1.5481530">
        <ele>156.1</ele>
        <time>2020-02-22T16:04:20Z</time>
      </trkpt>
      <trkpt lat="38.6727570" lon="1.5481530">
        <ele>156.1</ele>
        <time>2020-02-22T16:04:21Z</time>
      </trkpt>
      <trkpt lat="38.6727850" lon="1.5480220">
        <ele>156.1</ele>
        <time>2020-02-22T16:04:22Z</time>
      </trkpt>
      <trkpt lat="38.6727850" lon="1.5480220">
        <ele>157.1</ele>
        <time>2020-02-22T16:04:23Z</time>
      </trkpt>
      <trkpt lat="38.6728100" lon="1.5478820">
        <ele>157.1</ele>
        <time>2020-02-22T16:04:24Z</time>
      </trkpt>
      <trkpt lat="38.6728100" lon="1.5478820">
        <ele>157.1</ele>
        <time>2020-02-22T16:04:25Z</time>
      </trkpt>
      <trkpt lat="38.6728500" lon="1.5477350">
        <ele>157.1</ele>
        <time>2020-02-22T16:04:26Z</time>
      </trkpt>
      <trkpt lat="38.6728500" lon="1.5477350">
        <ele>157.1</ele>
        <time>2020-02-22T16:04:27Z</time>
      </trkpt>
      <trkpt lat="38.6728700" lon="1.5475920">
        <ele>157.1</ele>
        <time>2020-02-22T16:04:28Z</time>
      </trkpt>
      <trkpt lat="38.6728700" lon="1.5475920">
        <ele>157.1</ele>
        <time>2020-02-22T16:04:29Z</time>
      </trkpt>
      <trkpt lat="38.6728900" lon="1.5474550">
        <ele>157.1</ele>
        <time>2020-02-22T16:04:30Z</time>
      </trkpt>
      <trkpt lat="38.6728900" lon="1.5474550">
        <ele>158.1</ele>
        <time>2020-02-22T16:04:31Z</time>
      </trkpt>
      <trkpt lat="38.6729020" lon="1.5473180">
        <ele>158.1</ele>
        <time>2020-02-22T16:04:32Z</time>
      </trkpt>
      <trkpt lat="38.6729020" lon="1.5473180">
        <ele>158.1</ele>
        <time>2020-02-22T16:04:33Z</time>
      </trkpt>
      <trkpt lat="38.6729200" lon="1.5471880">
        <ele>158.1</ele>
        <time>2020-02-22T16:04:34Z</time>
      </trkpt>
      <trkpt lat="38.6729200" lon="1.5471880">
        <ele>158.1</ele>
        <time>2020-02-22T16:04:35Z</time>
      </trkpt>
      <trkpt lat="38.6729380" lon="1.5470620">
        <ele>158.1</ele>
        <time>2020-02-22T16:04:36Z</time>
      </trkpt>
      <trkpt lat="38.6729380" lon="1.5470620">
        <ele>158.1</ele>
        <time>2020-02-22T16:04:37Z</time>
      </trkpt>
      <trkpt lat="38.6729500" lon="1.5469370">
        <ele>158.1</ele>
        <time>2020-02-22T16:04:38Z</time>
      </trkpt>
      <trkpt lat="38.6729500" lon="1.5469370">
        <ele>158.1</ele>
        <time>2020-02-22T16:04:39Z</time>
      </trkpt>
      <trkpt lat="38.6729630" lon="1.5468070">
        <ele>158.1</ele>
        <time>2020-02-22T16:04:40Z</time>
      </trkpt>
      <trkpt lat="38.6729630" lon="1.5468070">
        <ele>158.1</ele>
        <time>2020-02-22T16:04:41Z</time>
      </trkpt>
      <trkpt lat="38.6729630" lon="1.5466820">
        <ele>158.1</ele>
        <time>2020-02-22T16:04:42Z</time>
      </trkpt>
      <trkpt lat="38.6729630" lon="1.5466820">
        <ele>158.1</ele>
        <time>2020-02-22T16:04:43Z</time>
      </trkpt>
      <trkpt lat="38.6729700" lon="1.5465600">
        <ele>158.1</ele>
        <time>2020-02-22T16:04:44Z</time>
      </trkpt>
      <trkpt lat="38.6729700" lon="1.5465600">
        <ele>158.1</ele>
        <time>2020-02-22T16:04:45Z</time>
      </trkpt>
      <trkpt lat="38.6729880" lon="1.5464230">
        <ele>158.1</ele>
        <time>2020-02-22T16:04:46Z</time>
      </trkpt>
      <trkpt lat="38.6729880" lon="1.5464230">
        <ele>158.1</ele>
        <time>2020-02-22T16:04:47Z</time>
      </trkpt>
      <trkpt lat="38.6729980" lon="1.5462800">
        <ele>159.1</ele>
        <time>2020-02-22T16:04:48Z</time>
      </trkpt>
      <trkpt lat="38.6729980" lon="1.5462800">
        <ele>159.1</ele>
        <time>2020-02-22T16:04:49Z</time>
      </trkpt>
      <trkpt lat="38.6730170" lon="1.5461430">
        <ele>159.1</ele>
        <time>2020-02-22T16:04:50Z</time>
      </trkpt>
      <trkpt lat="38.6730170" lon="1.5461430">
        <ele>159.1</ele>
        <time>2020-02-22T16:04:51Z</time>
      </trkpt>
      <trkpt lat="38.6730370" lon="1.5460020">
        <ele>159.1</ele>
        <time>2020-02-22T16:04:52Z</time>
      </trkpt>
      <trkpt lat="38.6730450" lon="1.5459320">
        <ele>159.1</ele>
        <time>2020-02-22T16:04:53Z</time>
      </trkpt>
      <trkpt lat="38.6730450" lon="1.5459320">
        <ele>159.1</ele>
        <time>2020-02-22T16:04:54Z</time>
      </trkpt>
      <trkpt lat="38.6730450" lon="1.5459320">
        <ele>159.1</ele>
        <time>2020-02-22T16:04:55Z</time>
      </trkpt>
      <trkpt lat="38.6730720" lon="1.5457230">
        <ele>159.1</ele>
        <time>2020-02-22T16:04:56Z</time>
      </trkpt>
      <trkpt lat="38.6730720" lon="1.5457230">
        <ele>160.1</ele>
        <time>2020-02-22T16:04:57Z</time>
      </trkpt>
      <trkpt lat="38.6730830" lon="1.5455970">
        <ele>160.1</ele>
        <time>2020-02-22T16:04:58Z</time>
      </trkpt>
      <trkpt lat="38.6730830" lon="1.5455970">
        <ele>160.1</ele>
        <time>2020-02-22T16:04:59Z</time>
      </trkpt>
      <trkpt lat="38.6731000" lon="1.5454630">
        <ele>160.1</ele>
        <time>2020-02-22T16:05:00Z</time>
      </trkpt>
      <trkpt lat="38.6731000" lon="1.5454630">
        <ele>160.1</ele>
        <time>2020-02-22T16:05:01Z</time>
      </trkpt>
      <trkpt lat="38.6731130" lon="1.5453350">
        <ele>160.1</ele>
        <time>2020-02-22T16:05:02Z</time>
      </trkpt>
      <trkpt lat="38.6731130" lon="1.5453350">
        <ele>160.1</ele>
        <time>2020-02-22T16:05:03Z</time>
      </trkpt>
      <trkpt lat="38.6731270" lon="1.5452050">
        <ele>160.1</ele>
        <time>2020-02-22T16:05:04Z</time>
      </trkpt>
      <trkpt lat="38.6731270" lon="1.5452050">
        <ele>160.1</ele>
        <time>2020-02-22T16:05:05Z</time>
      </trkpt>
      <trkpt lat="38.6731380" lon="1.5450750">
        <ele>161.1</ele>
        <time>2020-02-22T16:05:06Z</time>
      </trkpt>
      <trkpt lat="38.6731380" lon="1.5450750">
        <ele>161.1</ele>
        <time>2020-02-22T16:05:07Z</time>
      </trkpt>
      <trkpt lat="38.6731520" lon="1.5449420">
        <ele>161.1</ele>
        <time>2020-02-22T16:05:08Z</time>
      </trkpt>
      <trkpt lat="38.6731520" lon="1.5449420">
        <ele>161.1</ele>
        <time>2020-02-22T16:05:09Z</time>
      </trkpt>
      <trkpt lat="38.6731580" lon="1.5447980">
        <ele>161.1</ele>
        <time>2020-02-22T16:05:10Z</time>
      </trkpt>
      <trkpt lat="38.6731600" lon="1.5447220">
        <ele>161.1</ele>
        <time>2020-02-22T16:05:11Z</time>
      </trkpt>
      <trkpt lat="38.6731580" lon="1.5446480">
        <ele>161.1</ele>
        <time>2020-02-22T16:05:12Z</time>
      </trkpt>
      <trkpt lat="38.6731520" lon="1.5445750">
        <ele>161.1</ele>
        <time>2020-02-22T16:05:13Z</time>
      </trkpt>
      <trkpt lat="38.6731520" lon="1.5445750">
        <ele>161.1</ele>
        <time>2020-02-22T16:05:14Z</time>
      </trkpt>
      <trkpt lat="38.6731320" lon="1.5444320">
        <ele>161.1</ele>
        <time>2020-02-22T16:05:15Z</time>
      </trkpt>
      <trkpt lat="38.6731320" lon="1.5444320">
        <ele>161.1</ele>
        <time>2020-02-22T16:05:16Z</time>
      </trkpt>
      <trkpt lat="38.6731100" lon="1.5442870">
        <ele>161.1</ele>
        <time>2020-02-22T16:05:17Z</time>
      </trkpt>
      <trkpt lat="38.6731100" lon="1.5442870">
        <ele>161.1</ele>
        <time>2020-02-22T16:05:18Z</time>
      </trkpt>
      <trkpt lat="38.6730900" lon="1.5441370">
        <ele>161.1</ele>
        <time>2020-02-22T16:05:19Z</time>
      </trkpt>
      <trkpt lat="38.6730770" lon="1.5440620">
        <ele>161.1</ele>
        <time>2020-02-22T16:05:20Z</time>
      </trkpt>
      <trkpt lat="38.6730770" lon="1.5440620">
        <ele>161.1</ele>
        <time>2020-02-22T16:05:21Z</time>
      </trkpt>
      <trkpt lat="38.6730530" lon="1.5439080">
        <ele>161.1</ele>
        <time>2020-02-22T16:05:22Z</time>
      </trkpt>
      <trkpt lat="38.6730530" lon="1.5439080">
        <ele>161.1</ele>
        <time>2020-02-22T16:05:23Z</time>
      </trkpt>
      <trkpt lat="38.6730300" lon="1.5437550">
        <ele>161.1</ele>
        <time>2020-02-22T16:05:24Z</time>
      </trkpt>
      <trkpt lat="38.6730300" lon="1.5437550">
        <ele>160.1</ele>
        <time>2020-02-22T16:05:25Z</time>
      </trkpt>
      <trkpt lat="38.6730070" lon="1.5436000">
        <ele>160.1</ele>
        <time>2020-02-22T16:05:26Z</time>
      </trkpt>
      <trkpt lat="38.6730070" lon="1.5436000">
        <ele>160.1</ele>
        <time>2020-02-22T16:05:27Z</time>
      </trkpt>
      <trkpt lat="38.6729800" lon="1.5434430">
        <ele>160.1</ele>
        <time>2020-02-22T16:05:28Z</time>
      </trkpt>
      <trkpt lat="38.6729800" lon="1.5434430">
        <ele>160.1</ele>
        <time>2020-02-22T16:05:29Z</time>
      </trkpt>
      <trkpt lat="38.6729580" lon="1.5432870">
        <ele>160.1</ele>
        <time>2020-02-22T16:05:30Z</time>
      </trkpt>
      <trkpt lat="38.6729580" lon="1.5432870">
        <ele>160.1</ele>
        <time>2020-02-22T16:05:31Z</time>
      </trkpt>
      <trkpt lat="38.6729320" lon="1.5431320">
        <ele>160.1</ele>
        <time>2020-02-22T16:05:32Z</time>
      </trkpt>
      <trkpt lat="38.6729320" lon="1.5431320">
        <ele>160.1</ele>
        <time>2020-02-22T16:05:33Z</time>
      </trkpt>
      <trkpt lat="38.6729030" lon="1.5429780">
        <ele>160.1</ele>
        <time>2020-02-22T16:05:34Z</time>
      </trkpt>
      <trkpt lat="38.6729030" lon="1.5429780">
        <ele>160.1</ele>
        <time>2020-02-22T16:05:35Z</time>
      </trkpt>
      <trkpt lat="38.6728820" lon="1.5428180">
        <ele>160.1</ele>
        <time>2020-02-22T16:05:36Z</time>
      </trkpt>
      <trkpt lat="38.6728820" lon="1.5428180">
        <ele>160.1</ele>
        <time>2020-02-22T16:05:37Z</time>
      </trkpt>
      <trkpt lat="38.6728520" lon="1.5426520">
        <ele>160.1</ele>
        <time>2020-02-22T16:05:38Z</time>
      </trkpt>
      <trkpt lat="38.6728520" lon="1.5426520">
        <ele>159.1</ele>
        <time>2020-02-22T16:05:39Z</time>
      </trkpt>
      <trkpt lat="38.6728230" lon="1.5424870">
        <ele>159.1</ele>
        <time>2020-02-22T16:05:40Z</time>
      </trkpt>
      <trkpt lat="38.6728230" lon="1.5424870">
        <ele>159.1</ele>
        <time>2020-02-22T16:05:41Z</time>
      </trkpt>
      <trkpt lat="38.6727980" lon="1.5423170">
        <ele>159.1</ele>
        <time>2020-02-22T16:05:42Z</time>
      </trkpt>
      <trkpt lat="38.6727980" lon="1.5423170">
        <ele>159.1</ele>
        <time>2020-02-22T16:05:43Z</time>
      </trkpt>
      <trkpt lat="38.6727650" lon="1.5421430">
        <ele>159.1</ele>
        <time>2020-02-22T16:05:44Z</time>
      </trkpt>
      <trkpt lat="38.6727650" lon="1.5421430">
        <ele>159.1</ele>
        <time>2020-02-22T16:05:45Z</time>
      </trkpt>
      <trkpt lat="38.6727480" lon="1.5419830">
        <ele>159.1</ele>
        <time>2020-02-22T16:05:46Z</time>
      </trkpt>
      <trkpt lat="38.6727480" lon="1.5419830">
        <ele>159.1</ele>
        <time>2020-02-22T16:05:47Z</time>
      </trkpt>
      <trkpt lat="38.6727580" lon="1.5418100">
        <ele>159.1</ele>
        <time>2020-02-22T16:05:48Z</time>
      </trkpt>
      <trkpt lat="38.6727580" lon="1.5418100">
        <ele>159.1</ele>
        <time>2020-02-22T16:05:49Z</time>
      </trkpt>
      <trkpt lat="38.6727800" lon="1.5416350">
        <ele>159.1</ele>
        <time>2020-02-22T16:05:50Z</time>
      </trkpt>
      <trkpt lat="38.6727970" lon="1.5415520">
        <ele>159.1</ele>
        <time>2020-02-22T16:05:51Z</time>
      </trkpt>
      <trkpt lat="38.6727970" lon="1.5415520">
        <ele>159.1</ele>
        <time>2020-02-22T16:05:52Z</time>
      </trkpt>
      <trkpt lat="38.6728350" lon="1.5413870">
        <ele>158.1</ele>
        <time>2020-02-22T16:05:53Z</time>
      </trkpt>
      <trkpt lat="38.6728550" lon="1.5413030">
        <ele>158.1</ele>
        <time>2020-02-22T16:05:54Z</time>
      </trkpt>
      <trkpt lat="38.6728550" lon="1.5413030">
        <ele>158.1</ele>
        <time>2020-02-22T16:05:55Z</time>
      </trkpt>
      <trkpt lat="38.6728970" lon="1.5411420">
        <ele>158.1</ele>
        <time>2020-02-22T16:05:56Z</time>
      </trkpt>
      <trkpt lat="38.6728970" lon="1.5411420">
        <ele>158.1</ele>
        <time>2020-02-22T16:05:57Z</time>
      </trkpt>
      <trkpt lat="38.6729350" lon="1.5409780">
        <ele>158.1</ele>
        <time>2020-02-22T16:05:58Z</time>
      </trkpt>
      <trkpt lat="38.6729350" lon="1.5409780">
        <ele>158.1</ele>
        <time>2020-02-22T16:05:59Z</time>
      </trkpt>
      <trkpt lat="38.6729750" lon="1.5408120">
        <ele>158.1</ele>
        <time>2020-02-22T16:06:00Z</time>
      </trkpt>
      <trkpt lat="38.6729750" lon="1.5408120">
        <ele>158.1</ele>
        <time>2020-02-22T16:06:01Z</time>
      </trkpt>
      <trkpt lat="38.6730170" lon="1.5406430">
        <ele>158.1</ele>
        <time>2020-02-22T16:06:02Z</time>
      </trkpt>
      <trkpt lat="38.6730170" lon="1.5406430">
        <ele>158.1</ele>
        <time>2020-02-22T16:06:03Z</time>
      </trkpt>
      <trkpt lat="38.6730570" lon="1.5404750">
        <ele>158.1</ele>
        <time>2020-02-22T16:06:04Z</time>
      </trkpt>
      <trkpt lat="38.6730570" lon="1.5404750">
        <ele>158.1</ele>
        <time>2020-02-22T16:06:05Z</time>
      </trkpt>
      <trkpt lat="38.6730950" lon="1.5403080">
        <ele>158.1</ele>
        <time>2020-02-22T16:06:06Z</time>
      </trkpt>
      <trkpt lat="38.6730950" lon="1.5403080">
        <ele>158.1</ele>
        <time>2020-02-22T16:06:07Z</time>
      </trkpt>
      <trkpt lat="38.6731270" lon="1.5401420">
        <ele>158.1</ele>
        <time>2020-02-22T16:06:08Z</time>
      </trkpt>
      <trkpt lat="38.6731270" lon="1.5401420">
        <ele>158.1</ele>
        <time>2020-02-22T16:06:09Z</time>
      </trkpt>
      <trkpt lat="38.6731420" lon="1.5399720">
        <ele>158.1</ele>
        <time>2020-02-22T16:06:10Z</time>
      </trkpt>
      <trkpt lat="38.6731420" lon="1.5399720">
        <ele>158.1</ele>
        <time>2020-02-22T16:06:11Z</time>
      </trkpt>
      <trkpt lat="38.6731370" lon="1.5397950">
        <ele>158.1</ele>
        <time>2020-02-22T16:06:12Z</time>
      </trkpt>
      <trkpt lat="38.6731370" lon="1.5397950">
        <ele>158.1</ele>
        <time>2020-02-22T16:06:13Z</time>
      </trkpt>
      <trkpt lat="38.6731280" lon="1.5396170">
        <ele>158.1</ele>
        <time>2020-02-22T16:06:14Z</time>
      </trkpt>
      <trkpt lat="38.6731280" lon="1.5396170">
        <ele>158.1</ele>
        <time>2020-02-22T16:06:15Z</time>
      </trkpt>
      <trkpt lat="38.6731180" lon="1.5394280">
        <ele>156.1</ele>
        <time>2020-02-22T16:06:16Z</time>
      </trkpt>
      <trkpt lat="38.6731180" lon="1.5394280">
        <ele>156.1</ele>
        <time>2020-02-22T16:06:17Z</time>
      </trkpt>
      <trkpt lat="38.6731070" lon="1.5392380">
        <ele>156.1</ele>
        <time>2020-02-22T16:06:18Z</time>
      </trkpt>
      <trkpt lat="38.6731070" lon="1.5392380">
        <ele>156.1</ele>
        <time>2020-02-22T16:06:19Z</time>
      </trkpt>
      <trkpt lat="38.6730930" lon="1.5390450">
        <ele>156.1</ele>
        <time>2020-02-22T16:06:20Z</time>
      </trkpt>
      <trkpt lat="38.6730930" lon="1.5390450">
        <ele>156.1</ele>
        <time>2020-02-22T16:06:21Z</time>
      </trkpt>
      <trkpt lat="38.6730820" lon="1.5388450">
        <ele>156.1</ele>
        <time>2020-02-22T16:06:22Z</time>
      </trkpt>
      <trkpt lat="38.6730820" lon="1.5388450">
        <ele>155.1</ele>
        <time>2020-02-22T16:06:23Z</time>
      </trkpt>
      <trkpt lat="38.6730630" lon="1.5386480">
        <ele>155.1</ele>
        <time>2020-02-22T16:06:24Z</time>
      </trkpt>
      <trkpt lat="38.6730630" lon="1.5386480">
        <ele>155.1</ele>
        <time>2020-02-22T16:06:25Z</time>
      </trkpt>
      <trkpt lat="38.6730430" lon="1.5384570">
        <ele>155.1</ele>
        <time>2020-02-22T16:06:26Z</time>
      </trkpt>
      <trkpt lat="38.6730400" lon="1.5383580">
        <ele>154.1</ele>
        <time>2020-02-22T16:06:27Z</time>
      </trkpt>
      <trkpt lat="38.6730400" lon="1.5383580">
        <ele>154.1</ele>
        <time>2020-02-22T16:06:28Z</time>
      </trkpt>
      <trkpt lat="38.6730270" lon="1.5381700">
        <ele>154.1</ele>
        <time>2020-02-22T16:06:29Z</time>
      </trkpt>
      <trkpt lat="38.6730200" lon="1.5380750">
        <ele>154.1</ele>
        <time>2020-02-22T16:06:30Z</time>
      </trkpt>
      <trkpt lat="38.6730200" lon="1.5380750">
        <ele>153.1</ele>
        <time>2020-02-22T16:06:31Z</time>
      </trkpt>
      <trkpt lat="38.6729980" lon="1.5378850">
        <ele>153.1</ele>
        <time>2020-02-22T16:06:32Z</time>
      </trkpt>
      <trkpt lat="38.6729980" lon="1.5378850">
        <ele>153.1</ele>
        <time>2020-02-22T16:06:33Z</time>
      </trkpt>
      <trkpt lat="38.6729720" lon="1.5376970">
        <ele>153.1</ele>
        <time>2020-02-22T16:06:34Z</time>
      </trkpt>
      <trkpt lat="38.6729580" lon="1.5376020">
        <ele>152.1</ele>
        <time>2020-02-22T16:06:35Z</time>
      </trkpt>
      <trkpt lat="38.6729430" lon="1.5375050">
        <ele>152.1</ele>
        <time>2020-02-22T16:06:36Z</time>
      </trkpt>
      <trkpt lat="38.6729430" lon="1.5375050">
        <ele>152.1</ele>
        <time>2020-02-22T16:06:37Z</time>
      </trkpt>
      <trkpt lat="38.6729050" lon="1.5373000">
        <ele>151.1</ele>
        <time>2020-02-22T16:06:38Z</time>
      </trkpt>
      <trkpt lat="38.6729050" lon="1.5373000">
        <ele>151.1</ele>
        <time>2020-02-22T16:06:39Z</time>
      </trkpt>
      <trkpt lat="38.6728750" lon="1.5370930">
        <ele>151.1</ele>
        <time>2020-02-22T16:06:40Z</time>
      </trkpt>
      <trkpt lat="38.6728600" lon="1.5369870">
        <ele>150.1</ele>
        <time>2020-02-22T16:06:41Z</time>
      </trkpt>
      <trkpt lat="38.6728420" lon="1.5368770">
        <ele>150.1</ele>
        <time>2020-02-22T16:06:42Z</time>
      </trkpt>
      <trkpt lat="38.6728420" lon="1.5368770">
        <ele>149.1</ele>
        <time>2020-02-22T16:06:43Z</time>
      </trkpt>
      <trkpt lat="38.6728130" lon="1.5366430">
        <ele>149.1</ele>
        <time>2020-02-22T16:06:44Z</time>
      </trkpt>
      <trkpt lat="38.6727950" lon="1.5365280">
        <ele>148.1</ele>
        <time>2020-02-22T16:06:45Z</time>
      </trkpt>
      <trkpt lat="38.6727950" lon="1.5365280">
        <ele>148.1</ele>
        <time>2020-02-22T16:06:46Z</time>
      </trkpt>
      <trkpt lat="38.6727570" lon="1.5363020">
        <ele>148.1</ele>
        <time>2020-02-22T16:06:47Z</time>
      </trkpt>
      <trkpt lat="38.6727380" lon="1.5361870">
        <ele>148.1</ele>
        <time>2020-02-22T16:06:48Z</time>
      </trkpt>
      <trkpt lat="38.6727380" lon="1.5361870">
        <ele>146.1</ele>
        <time>2020-02-22T16:06:49Z</time>
      </trkpt>
      <trkpt lat="38.6727020" lon="1.5359570">
        <ele>146.1</ele>
        <time>2020-02-22T16:06:50Z</time>
      </trkpt>
      <trkpt lat="38.6727020" lon="1.5359570">
        <ele>145.1</ele>
        <time>2020-02-22T16:06:51Z</time>
      </trkpt>
      <trkpt lat="38.6726680" lon="1.5357220">
        <ele>145.1</ele>
        <time>2020-02-22T16:06:52Z</time>
      </trkpt>
      <trkpt lat="38.6726680" lon="1.5357220">
        <ele>145.1</ele>
        <time>2020-02-22T16:06:53Z</time>
      </trkpt>
      <trkpt lat="38.6726370" lon="1.5354930">
        <ele>144.1</ele>
        <time>2020-02-22T16:06:54Z</time>
      </trkpt>
      <trkpt lat="38.6726370" lon="1.5354930">
        <ele>144.1</ele>
        <time>2020-02-22T16:06:55Z</time>
      </trkpt>
      <trkpt lat="38.6726050" lon="1.5352620">
        <ele>143.1</ele>
        <time>2020-02-22T16:06:56Z</time>
      </trkpt>
      <trkpt lat="38.6726050" lon="1.5352620">
        <ele>143.1</ele>
        <time>2020-02-22T16:06:57Z</time>
      </trkpt>
      <trkpt lat="38.6725720" lon="1.5350220">
        <ele>143.1</ele>
        <time>2020-02-22T16:06:58Z</time>
      </trkpt>
      <trkpt lat="38.6725720" lon="1.5350220">
        <ele>143.1</ele>
        <time>2020-02-22T16:06:59Z</time>
      </trkpt>
      <trkpt lat="38.6724970" lon="1.5348050">
        <ele>141.1</ele>
        <time>2020-02-22T16:07:00Z</time>
      </trkpt>
      <trkpt lat="38.6724970" lon="1.5348050">
        <ele>141.1</ele>
        <time>2020-02-22T16:07:01Z</time>
      </trkpt>
      <trkpt lat="38.6724070" lon="1.5346080">
        <ele>140.1</ele>
        <time>2020-02-22T16:07:02Z</time>
      </trkpt>
      <trkpt lat="38.6724070" lon="1.5346080">
        <ele>140.1</ele>
        <time>2020-02-22T16:07:03Z</time>
      </trkpt>
      <trkpt lat="38.6723270" lon="1.5344150">
        <ele>140.1</ele>
        <time>2020-02-22T16:07:04Z</time>
      </trkpt>
      <trkpt lat="38.6723270" lon="1.5344150">
        <ele>140.1</ele>
        <time>2020-02-22T16:07:05Z</time>
      </trkpt>
      <trkpt lat="38.6722500" lon="1.5342320">
        <ele>140.1</ele>
        <time>2020-02-22T16:07:06Z</time>
      </trkpt>
      <trkpt lat="38.6722500" lon="1.5342320">
        <ele>140.1</ele>
        <time>2020-02-22T16:07:07Z</time>
      </trkpt>
      <trkpt lat="38.6721570" lon="1.5340600">
        <ele>140.1</ele>
        <time>2020-02-22T16:07:08Z</time>
      </trkpt>
      <trkpt lat="38.6721570" lon="1.5340600">
        <ele>140.1</ele>
        <time>2020-02-22T16:07:09Z</time>
      </trkpt>
      <trkpt lat="38.6720470" lon="1.5339070">
        <ele>140.1</ele>
        <time>2020-02-22T16:07:10Z</time>
      </trkpt>
      <trkpt lat="38.6720470" lon="1.5339070">
        <ele>140.1</ele>
        <time>2020-02-22T16:07:11Z</time>
      </trkpt>
      <trkpt lat="38.6719300" lon="1.5337700">
        <ele>139.1</ele>
        <time>2020-02-22T16:07:12Z</time>
      </trkpt>
      <trkpt lat="38.6719300" lon="1.5337700">
        <ele>139.1</ele>
        <time>2020-02-22T16:07:13Z</time>
      </trkpt>
      <trkpt lat="38.6718000" lon="1.5336320">
        <ele>139.1</ele>
        <time>2020-02-22T16:07:14Z</time>
      </trkpt>
      <trkpt lat="38.6718000" lon="1.5336320">
        <ele>138.1</ele>
        <time>2020-02-22T16:07:15Z</time>
      </trkpt>
      <trkpt lat="38.6716930" lon="1.5334730">
        <ele>138.1</ele>
        <time>2020-02-22T16:07:16Z</time>
      </trkpt>
      <trkpt lat="38.6716420" lon="1.5333950">
        <ele>138.1</ele>
        <time>2020-02-22T16:07:17Z</time>
      </trkpt>
      <trkpt lat="38.6715970" lon="1.5333180">
        <ele>138.1</ele>
        <time>2020-02-22T16:07:18Z</time>
      </trkpt>
      <trkpt lat="38.6715970" lon="1.5333180">
        <ele>138.1</ele>
        <time>2020-02-22T16:07:19Z</time>
      </trkpt>
      <trkpt lat="38.6715050" lon="1.5331670">
        <ele>138.1</ele>
        <time>2020-02-22T16:07:20Z</time>
      </trkpt>
      <trkpt lat="38.6715050" lon="1.5331670">
        <ele>138.1</ele>
        <time>2020-02-22T16:07:21Z</time>
      </trkpt>
      <trkpt lat="38.6714100" lon="1.5330170">
        <ele>138.1</ele>
        <time>2020-02-22T16:07:22Z</time>
      </trkpt>
      <trkpt lat="38.6713600" lon="1.5329380">
        <ele>137.1</ele>
        <time>2020-02-22T16:07:23Z</time>
      </trkpt>
      <trkpt lat="38.6713600" lon="1.5329380">
        <ele>137.1</ele>
        <time>2020-02-22T16:07:24Z</time>
      </trkpt>
      <trkpt lat="38.6712670" lon="1.5327820">
        <ele>137.1</ele>
        <time>2020-02-22T16:07:25Z</time>
      </trkpt>
      <trkpt lat="38.6712230" lon="1.5327080">
        <ele>137.1</ele>
        <time>2020-02-22T16:07:26Z</time>
      </trkpt>
      <trkpt lat="38.6712230" lon="1.5327080">
        <ele>137.1</ele>
        <time>2020-02-22T16:07:27Z</time>
      </trkpt>
      <trkpt lat="38.6711300" lon="1.5325600">
        <ele>137.1</ele>
        <time>2020-02-22T16:07:28Z</time>
      </trkpt>
      <trkpt lat="38.6710850" lon="1.5324870">
        <ele>136.1</ele>
        <time>2020-02-22T16:07:29Z</time>
      </trkpt>
      <trkpt lat="38.6710420" lon="1.5324150">
        <ele>136.1</ele>
        <time>2020-02-22T16:07:30Z</time>
      </trkpt>
      <trkpt lat="38.6710420" lon="1.5324150">
        <ele>136.1</ele>
        <time>2020-02-22T16:07:31Z</time>
      </trkpt>
      <trkpt lat="38.6709650" lon="1.5322680">
        <ele>136.1</ele>
        <time>2020-02-22T16:07:32Z</time>
      </trkpt>
      <trkpt lat="38.6709650" lon="1.5322680">
        <ele>136.1</ele>
        <time>2020-02-22T16:07:33Z</time>
      </trkpt>
      <trkpt lat="38.6708900" lon="1.5321130">
        <ele>136.1</ele>
        <time>2020-02-22T16:07:34Z</time>
      </trkpt>
      <trkpt lat="38.6708580" lon="1.5320350">
        <ele>135.1</ele>
        <time>2020-02-22T16:07:35Z</time>
      </trkpt>
      <trkpt lat="38.6708580" lon="1.5320350">
        <ele>135.1</ele>
        <time>2020-02-22T16:07:36Z</time>
      </trkpt>
      <trkpt lat="38.6707900" lon="1.5318630">
        <ele>135.1</ele>
        <time>2020-02-22T16:07:37Z</time>
      </trkpt>
      <trkpt lat="38.6707530" lon="1.5317680">
        <ele>134.1</ele>
        <time>2020-02-22T16:07:38Z</time>
      </trkpt>
      <trkpt lat="38.6707530" lon="1.5317680">
        <ele>134.1</ele>
        <time>2020-02-22T16:07:39Z</time>
      </trkpt>
      <trkpt lat="38.6706720" lon="1.5315750">
        <ele>134.1</ele>
        <time>2020-02-22T16:07:40Z</time>
      </trkpt>
      <trkpt lat="38.6706720" lon="1.5315750">
        <ele>134.1</ele>
        <time>2020-02-22T16:07:41Z</time>
      </trkpt>
      <trkpt lat="38.6705950" lon="1.5313770">
        <ele>133.1</ele>
        <time>2020-02-22T16:07:42Z</time>
      </trkpt>
      <trkpt lat="38.6705950" lon="1.5313770">
        <ele>133.1</ele>
        <time>2020-02-22T16:07:43Z</time>
      </trkpt>
      <trkpt lat="38.6705180" lon="1.5311730">
        <ele>133.1</ele>
        <time>2020-02-22T16:07:44Z</time>
      </trkpt>
      <trkpt lat="38.6705180" lon="1.5311730">
        <ele>133.1</ele>
        <time>2020-02-22T16:07:45Z</time>
      </trkpt>
      <trkpt lat="38.6704400" lon="1.5309600">
        <ele>131.1</ele>
        <time>2020-02-22T16:07:46Z</time>
      </trkpt>
      <trkpt lat="38.6704400" lon="1.5309600">
        <ele>131.1</ele>
        <time>2020-02-22T16:07:47Z</time>
      </trkpt>
      <trkpt lat="38.6703520" lon="1.5307500">
        <ele>131.1</ele>
        <time>2020-02-22T16:07:48Z</time>
      </trkpt>
      <trkpt lat="38.6703520" lon="1.5307500">
        <ele>131.1</ele>
        <time>2020-02-22T16:07:49Z</time>
      </trkpt>
      <trkpt lat="38.6702670" lon="1.5305370">
        <ele>130.1</ele>
        <time>2020-02-22T16:07:50Z</time>
      </trkpt>
      <trkpt lat="38.6702670" lon="1.5305370">
        <ele>130.1</ele>
        <time>2020-02-22T16:07:51Z</time>
      </trkpt>
      <trkpt lat="38.6701820" lon="1.5303270">
        <ele>129.1</ele>
        <time>2020-02-22T16:07:52Z</time>
      </trkpt>
      <trkpt lat="38.6701400" lon="1.5302230">
        <ele>129.1</ele>
        <time>2020-02-22T16:07:53Z</time>
      </trkpt>
      <trkpt lat="38.6701400" lon="1.5302230">
        <ele>129.1</ele>
        <time>2020-02-22T16:07:54Z</time>
      </trkpt>
      <trkpt lat="38.6701400" lon="1.5302230">
        <ele>128.1</ele>
        <time>2020-02-22T16:07:55Z</time>
      </trkpt>
      <trkpt lat="38.6700520" lon="1.5300150">
        <ele>128.1</ele>
        <time>2020-02-22T16:07:56Z</time>
      </trkpt>
      <trkpt lat="38.6699600" lon="1.5298180">
        <ele>128.1</ele>
        <time>2020-02-22T16:07:57Z</time>
      </trkpt>
      <trkpt lat="38.6699600" lon="1.5298180">
        <ele>128.1</ele>
        <time>2020-02-22T16:07:58Z</time>
      </trkpt>
      <trkpt lat="38.6698650" lon="1.5296250">
        <ele>127.1</ele>
        <time>2020-02-22T16:07:59Z</time>
      </trkpt>
      <trkpt lat="38.6698170" lon="1.5295330">
        <ele>127.1</ele>
        <time>2020-02-22T16:08:00Z</time>
      </trkpt>
      <trkpt lat="38.6698170" lon="1.5295330">
        <ele>127.1</ele>
        <time>2020-02-22T16:08:01Z</time>
      </trkpt>
      <trkpt lat="38.6697100" lon="1.5293520">
        <ele>127.1</ele>
        <time>2020-02-22T16:08:02Z</time>
      </trkpt>
      <trkpt lat="38.6697100" lon="1.5293520">
        <ele>126.1</ele>
        <time>2020-02-22T16:08:03Z</time>
      </trkpt>
      <trkpt lat="38.6695970" lon="1.5291780">
        <ele>126.1</ele>
        <time>2020-02-22T16:08:04Z</time>
      </trkpt>
      <trkpt lat="38.6695970" lon="1.5291780">
        <ele>125.1</ele>
        <time>2020-02-22T16:08:05Z</time>
      </trkpt>
      <trkpt lat="38.6694720" lon="1.5290130">
        <ele>125.1</ele>
        <time>2020-02-22T16:08:06Z</time>
      </trkpt>
      <trkpt lat="38.6694720" lon="1.5290130">
        <ele>125.1</ele>
        <time>2020-02-22T16:08:07Z</time>
      </trkpt>
      <trkpt lat="38.6693400" lon="1.5288700">
        <ele>125.1</ele>
        <time>2020-02-22T16:08:08Z</time>
      </trkpt>
      <trkpt lat="38.6693400" lon="1.5288700">
        <ele>124.1</ele>
        <time>2020-02-22T16:08:09Z</time>
      </trkpt>
      <trkpt lat="38.6691920" lon="1.5287750">
        <ele>124.1</ele>
        <time>2020-02-22T16:08:10Z</time>
      </trkpt>
      <trkpt lat="38.6691920" lon="1.5287750">
        <ele>124.1</ele>
        <time>2020-02-22T16:08:11Z</time>
      </trkpt>
      <trkpt lat="38.6690350" lon="1.5286780">
        <ele>124.1</ele>
        <time>2020-02-22T16:08:12Z</time>
      </trkpt>
      <trkpt lat="38.6690350" lon="1.5286780">
        <ele>123.1</ele>
        <time>2020-02-22T16:08:13Z</time>
      </trkpt>
      <trkpt lat="38.6688900" lon="1.5285250">
        <ele>122.1</ele>
        <time>2020-02-22T16:08:14Z</time>
      </trkpt>
      <trkpt lat="38.6688900" lon="1.5285250">
        <ele>122.1</ele>
        <time>2020-02-22T16:08:15Z</time>
      </trkpt>
      <trkpt lat="38.6687620" lon="1.5283580">
        <ele>121.1</ele>
        <time>2020-02-22T16:08:16Z</time>
      </trkpt>
      <trkpt lat="38.6687620" lon="1.5283580">
        <ele>121.1</ele>
        <time>2020-02-22T16:08:17Z</time>
      </trkpt>
      <trkpt lat="38.6686100" lon="1.5282250">
        <ele>120.1</ele>
        <time>2020-02-22T16:08:18Z</time>
      </trkpt>
      <trkpt lat="38.6686100" lon="1.5282250">
        <ele>120.1</ele>
        <time>2020-02-22T16:08:19Z</time>
      </trkpt>
      <trkpt lat="38.6684400" lon="1.5281030">
        <ele>119.1</ele>
        <time>2020-02-22T16:08:20Z</time>
      </trkpt>
      <trkpt lat="38.6684400" lon="1.5281030">
        <ele>119.1</ele>
        <time>2020-02-22T16:08:21Z</time>
      </trkpt>
      <trkpt lat="38.6682700" lon="1.5280050">
        <ele>117.1</ele>
        <time>2020-02-22T16:08:22Z</time>
      </trkpt>
      <trkpt lat="38.6682700" lon="1.5280050">
        <ele>117.1</ele>
        <time>2020-02-22T16:08:23Z</time>
      </trkpt>
      <trkpt lat="38.6680970" lon="1.5279450">
        <ele>116.1</ele>
        <time>2020-02-22T16:08:24Z</time>
      </trkpt>
      <trkpt lat="38.6680970" lon="1.5279450">
        <ele>116.1</ele>
        <time>2020-02-22T16:08:25Z</time>
      </trkpt>
      <trkpt lat="38.6679170" lon="1.5279170">
        <ele>115.1</ele>
        <time>2020-02-22T16:08:26Z</time>
      </trkpt>
      <trkpt lat="38.6679170" lon="1.5279170">
        <ele>115.1</ele>
        <time>2020-02-22T16:08:27Z</time>
      </trkpt>
      <trkpt lat="38.6677400" lon="1.5278330">
        <ele>114.1</ele>
        <time>2020-02-22T16:08:28Z</time>
      </trkpt>
      <trkpt lat="38.6677400" lon="1.5278330">
        <ele>114.1</ele>
        <time>2020-02-22T16:08:29Z</time>
      </trkpt>
      <trkpt lat="38.6675830" lon="1.5277130">
        <ele>113.1</ele>
        <time>2020-02-22T16:08:30Z</time>
      </trkpt>
      <trkpt lat="38.6675830" lon="1.5277130">
        <ele>113.1</ele>
        <time>2020-02-22T16:08:31Z</time>
      </trkpt>
      <trkpt lat="38.6674500" lon="1.5275530">
        <ele>112.1</ele>
        <time>2020-02-22T16:08:32Z</time>
      </trkpt>
      <trkpt lat="38.6674500" lon="1.5275530">
        <ele>111.1</ele>
        <time>2020-02-22T16:08:33Z</time>
      </trkpt>
      <trkpt lat="38.6673930" lon="1.5273270">
        <ele>111.1</ele>
        <time>2020-02-22T16:08:34Z</time>
      </trkpt>
      <trkpt lat="38.6673930" lon="1.5273270">
        <ele>110.1</ele>
        <time>2020-02-22T16:08:35Z</time>
      </trkpt>
      <trkpt lat="38.6674400" lon="1.5271220">
        <ele>110.1</ele>
        <time>2020-02-22T16:08:36Z</time>
      </trkpt>
      <trkpt lat="38.6674400" lon="1.5271220">
        <ele>109.1</ele>
        <time>2020-02-22T16:08:37Z</time>
      </trkpt>
      <trkpt lat="38.6675730" lon="1.5270050">
        <ele>109.1</ele>
        <time>2020-02-22T16:08:38Z</time>
      </trkpt>
      <trkpt lat="38.6675730" lon="1.5270050">
        <ele>107.1</ele>
        <time>2020-02-22T16:08:39Z</time>
      </trkpt>
      <trkpt lat="38.6677450" lon="1.5270150">
        <ele>107.1</ele>
        <time>2020-02-22T16:08:40Z</time>
      </trkpt>
      <trkpt lat="38.6677450" lon="1.5270150">
        <ele>106.1</ele>
        <time>2020-02-22T16:08:41Z</time>
      </trkpt>
      <trkpt lat="38.6679100" lon="1.5271130">
        <ele>106.1</ele>
        <time>2020-02-22T16:08:42Z</time>
      </trkpt>
      <trkpt lat="38.6679100" lon="1.5271130">
        <ele>104.1</ele>
        <time>2020-02-22T16:08:43Z</time>
      </trkpt>
      <trkpt lat="38.6680600" lon="1.5272570">
        <ele>104.1</ele>
        <time>2020-02-22T16:08:44Z</time>
      </trkpt>
      <trkpt lat="38.6680600" lon="1.5272570">
        <ele>103.1</ele>
        <time>2020-02-22T16:08:45Z</time>
      </trkpt>
      <trkpt lat="38.6682470" lon="1.5273630">
        <ele>103.1</ele>
        <time>2020-02-22T16:08:46Z</time>
      </trkpt>
      <trkpt lat="38.6683520" lon="1.5273920">
        <ele>101.1</ele>
        <time>2020-02-22T16:08:47Z</time>
      </trkpt>
      <trkpt lat="38.6684550" lon="1.5274050">
        <ele>101.1</ele>
        <time>2020-02-22T16:08:48Z</time>
      </trkpt>
      <trkpt lat="38.6684550" lon="1.5274050">
        <ele>100.1</ele>
        <time>2020-02-22T16:08:49Z</time>
      </trkpt>
      <trkpt lat="38.6686670" lon="1.5274170">
        <ele>100.1</ele>
        <time>2020-02-22T16:08:50Z</time>
      </trkpt>
      <trkpt lat="38.6686670" lon="1.5274170">
        <ele>99.1</ele>
        <time>2020-02-22T16:08:51Z</time>
      </trkpt>
      <trkpt lat="38.6688550" lon="1.5273980">
        <ele>97.1</ele>
        <time>2020-02-22T16:08:52Z</time>
      </trkpt>
      <trkpt lat="38.6689330" lon="1.5273500">
        <ele>97.1</ele>
        <time>2020-02-22T16:08:53Z</time>
      </trkpt>
      <trkpt lat="38.6690000" lon="1.5272680">
        <ele>95.1</ele>
        <time>2020-02-22T16:08:54Z</time>
      </trkpt>
      <trkpt lat="38.6690000" lon="1.5272680">
        <ele>95.1</ele>
        <time>2020-02-22T16:08:55Z</time>
      </trkpt>
      <trkpt lat="38.6690930" lon="1.5270670">
        <ele>94.1</ele>
        <time>2020-02-22T16:08:56Z</time>
      </trkpt>
      <trkpt lat="38.6690930" lon="1.5270670">
        <ele>94.1</ele>
        <time>2020-02-22T16:08:57Z</time>
      </trkpt>
      <trkpt lat="38.6691950" lon="1.5268630">
        <ele>92.1</ele>
        <time>2020-02-22T16:08:58Z</time>
      </trkpt>
      <trkpt lat="38.6692500" lon="1.5267630">
        <ele>92.1</ele>
        <time>2020-02-22T16:08:59Z</time>
      </trkpt>
      <trkpt lat="38.6693070" lon="1.5266570">
        <ele>92.1</ele>
        <time>2020-02-22T16:09:00Z</time>
      </trkpt>
      <trkpt lat="38.6693070" lon="1.5266570">
        <ele>92.1</ele>
        <time>2020-02-22T16:09:01Z</time>
      </trkpt>
      <trkpt lat="38.6694270" lon="1.5264380">
        <ele>90.1</ele>
        <time>2020-02-22T16:09:02Z</time>
      </trkpt>
      <trkpt lat="38.6694270" lon="1.5264380">
        <ele>90.1</ele>
        <time>2020-02-22T16:09:03Z</time>
      </trkpt>
      <trkpt lat="38.6695500" lon="1.5262120">
        <ele>89.1</ele>
        <time>2020-02-22T16:09:04Z</time>
      </trkpt>
      <trkpt lat="38.6696070" lon="1.5260970">
        <ele>89.1</ele>
        <time>2020-02-22T16:09:05Z</time>
      </trkpt>
      <trkpt lat="38.6696070" lon="1.5260970">
        <ele>87.1</ele>
        <time>2020-02-22T16:09:06Z</time>
      </trkpt>
      <trkpt lat="38.6697070" lon="1.5258580">
        <ele>87.1</ele>
        <time>2020-02-22T16:09:07Z</time>
      </trkpt>
      <trkpt lat="38.6697400" lon="1.5257320">
        <ele>86.1</ele>
        <time>2020-02-22T16:09:08Z</time>
      </trkpt>
      <trkpt lat="38.6697400" lon="1.5257320">
        <ele>86.1</ele>
        <time>2020-02-22T16:09:09Z</time>
      </trkpt>
      <trkpt lat="38.6697920" lon="1.5254730">
        <ele>84.1</ele>
        <time>2020-02-22T16:09:10Z</time>
      </trkpt>
      <trkpt lat="38.6697920" lon="1.5254730">
        <ele>83.1</ele>
        <time>2020-02-22T16:09:11Z</time>
      </trkpt>
      <trkpt lat="38.6698330" lon="1.5252070">
        <ele>83.1</ele>
        <time>2020-02-22T16:09:12Z</time>
      </trkpt>
      <trkpt lat="38.6698330" lon="1.5252070">
        <ele>81.1</ele>
        <time>2020-02-22T16:09:13Z</time>
      </trkpt>
      <trkpt lat="38.6698750" lon="1.5249550">
        <ele>81.1</ele>
        <time>2020-02-22T16:09:14Z</time>
      </trkpt>
      <trkpt lat="38.6698750" lon="1.5249550">
        <ele>80.1</ele>
        <time>2020-02-22T16:09:15Z</time>
      </trkpt>
      <trkpt lat="38.6698650" lon="1.5247180">
        <ele>80.1</ele>
        <time>2020-02-22T16:09:16Z</time>
      </trkpt>
      <trkpt lat="38.6698650" lon="1.5247180">
        <ele>78.1</ele>
        <time>2020-02-22T16:09:17Z</time>
      </trkpt>
      <trkpt lat="38.6698050" lon="1.5244870">
        <ele>78.1</ele>
        <time>2020-02-22T16:09:18Z</time>
      </trkpt>
      <trkpt lat="38.6698050" lon="1.5244870">
        <ele>76.1</ele>
        <time>2020-02-22T16:09:19Z</time>
      </trkpt>
      <trkpt lat="38.6697230" lon="1.5242600">
        <ele>76.1</ele>
        <time>2020-02-22T16:09:20Z</time>
      </trkpt>
      <trkpt lat="38.6697230" lon="1.5242600">
        <ele>75.1</ele>
        <time>2020-02-22T16:09:21Z</time>
      </trkpt>
      <trkpt lat="38.6697230" lon="1.5242600">
        <ele>75.1</ele>
        <time>2020-02-22T16:09:22Z</time>
      </trkpt>
      <trkpt lat="38.6696100" lon="1.5240600">
        <ele>74.1</ele>
        <time>2020-02-22T16:09:23Z</time>
      </trkpt>
      <trkpt lat="38.6694650" lon="1.5238950">
        <ele>74.1</ele>
        <time>2020-02-22T16:09:24Z</time>
      </trkpt>
      <trkpt lat="38.6694650" lon="1.5238950">
        <ele>73.1</ele>
        <time>2020-02-22T16:09:25Z</time>
      </trkpt>
      <trkpt lat="38.6693100" lon="1.5237470">
        <ele>73.1</ele>
        <time>2020-02-22T16:09:26Z</time>
      </trkpt>
      <trkpt lat="38.6693100" lon="1.5237470">
        <ele>72.1</ele>
        <time>2020-02-22T16:09:27Z</time>
      </trkpt>
      <trkpt lat="38.6691680" lon="1.5235850">
        <ele>72.1</ele>
        <time>2020-02-22T16:09:28Z</time>
      </trkpt>
      <trkpt lat="38.6691080" lon="1.5234880">
        <ele>72.1</ele>
        <time>2020-02-22T16:09:29Z</time>
      </trkpt>
      <trkpt lat="38.6690600" lon="1.5233830">
        <ele>71.1</ele>
        <time>2020-02-22T16:09:30Z</time>
      </trkpt>
      <trkpt lat="38.6690600" lon="1.5233830">
        <ele>71.1</ele>
        <time>2020-02-22T16:09:31Z</time>
      </trkpt>
      <trkpt lat="38.6690050" lon="1.5231570">
        <ele>70.1</ele>
        <time>2020-02-22T16:09:32Z</time>
      </trkpt>
      <trkpt lat="38.6690050" lon="1.5231570">
        <ele>70.1</ele>
        <time>2020-02-22T16:09:33Z</time>
      </trkpt>
      <trkpt lat="38.6689730" lon="1.5229420">
        <ele>69.1</ele>
        <time>2020-02-22T16:09:34Z</time>
      </trkpt>
      <trkpt lat="38.6689730" lon="1.5229420">
        <ele>69.1</ele>
        <time>2020-02-22T16:09:35Z</time>
      </trkpt>
      <trkpt lat="38.6688850" lon="1.5227520">
        <ele>68.1</ele>
        <time>2020-02-22T16:09:36Z</time>
      </trkpt>
      <trkpt lat="38.6688850" lon="1.5227520">
        <ele>68.1</ele>
        <time>2020-02-22T16:09:37Z</time>
      </trkpt>
      <trkpt lat="38.6687630" lon="1.5225830">
        <ele>68.1</ele>
        <time>2020-02-22T16:09:38Z</time>
      </trkpt>
      <trkpt lat="38.6687630" lon="1.5225830">
        <ele>68.1</ele>
        <time>2020-02-22T16:09:39Z</time>
      </trkpt>
      <trkpt lat="38.6686380" lon="1.5224120">
        <ele>67.1</ele>
        <time>2020-02-22T16:09:40Z</time>
      </trkpt>
      <trkpt lat="38.6686380" lon="1.5224120">
        <ele>67.1</ele>
        <time>2020-02-22T16:09:41Z</time>
      </trkpt>
      <trkpt lat="38.6685050" lon="1.5222380">
        <ele>67.1</ele>
        <time>2020-02-22T16:09:42Z</time>
      </trkpt>
      <trkpt lat="38.6685050" lon="1.5222380">
        <ele>67.1</ele>
        <time>2020-02-22T16:09:43Z</time>
      </trkpt>
      <trkpt lat="38.6683750" lon="1.5220550">
        <ele>65.1</ele>
        <time>2020-02-22T16:09:44Z</time>
      </trkpt>
      <trkpt lat="38.6683750" lon="1.5220550">
        <ele>65.1</ele>
        <time>2020-02-22T16:09:45Z</time>
      </trkpt>
      <trkpt lat="38.6682820" lon="1.5218380">
        <ele>65.1</ele>
        <time>2020-02-22T16:09:46Z</time>
      </trkpt>
      <trkpt lat="38.6682600" lon="1.5217220">
        <ele>65.1</ele>
        <time>2020-02-22T16:09:47Z</time>
      </trkpt>
      <trkpt lat="38.6682600" lon="1.5217220">
        <ele>64.1</ele>
        <time>2020-02-22T16:09:48Z</time>
      </trkpt>
      <trkpt lat="38.6682520" lon="1.5214950">
        <ele>64.1</ele>
        <time>2020-02-22T16:09:49Z</time>
      </trkpt>
      <trkpt lat="38.6682620" lon="1.5213920">
        <ele>64.1</ele>
        <time>2020-02-22T16:09:50Z</time>
      </trkpt>
      <trkpt lat="38.6682620" lon="1.5213920">
        <ele>63.1</ele>
        <time>2020-02-22T16:09:51Z</time>
      </trkpt>
      <trkpt lat="38.6683480" lon="1.5212230">
        <ele>63.1</ele>
        <time>2020-02-22T16:09:52Z</time>
      </trkpt>
      <trkpt lat="38.6683480" lon="1.5212230">
        <ele>63.1</ele>
        <time>2020-02-22T16:09:53Z</time>
      </trkpt>
      <trkpt lat="38.6685080" lon="1.5211800">
        <ele>63.1</ele>
        <time>2020-02-22T16:09:54Z</time>
      </trkpt>
      <trkpt lat="38.6685080" lon="1.5211800">
        <ele>61.1</ele>
        <time>2020-02-22T16:09:55Z</time>
      </trkpt>
      <trkpt lat="38.6686670" lon="1.5212070">
        <ele>61.1</ele>
        <time>2020-02-22T16:09:56Z</time>
      </trkpt>
      <trkpt lat="38.6686670" lon="1.5212070">
        <ele>60.1</ele>
        <time>2020-02-22T16:09:57Z</time>
      </trkpt>
      <trkpt lat="38.6687920" lon="1.5211100">
        <ele>60.1</ele>
        <time>2020-02-22T16:09:58Z</time>
      </trkpt>
      <trkpt lat="38.6687920" lon="1.5211100">
        <ele>59.1</ele>
        <time>2020-02-22T16:09:59Z</time>
      </trkpt>
      <trkpt lat="38.6688320" lon="1.5209120">
        <ele>59.1</ele>
        <time>2020-02-22T16:10:00Z</time>
      </trkpt>
      <trkpt lat="38.6688320" lon="1.5209120">
        <ele>59.1</ele>
        <time>2020-02-22T16:10:01Z</time>
      </trkpt>
      <trkpt lat="38.6688220" lon="1.5206970">
        <ele>59.1</ele>
        <time>2020-02-22T16:10:02Z</time>
      </trkpt>
      <trkpt lat="38.6688220" lon="1.5206970">
        <ele>58.1</ele>
        <time>2020-02-22T16:10:03Z</time>
      </trkpt>
      <trkpt lat="38.6687670" lon="1.5204900">
        <ele>58.1</ele>
        <time>2020-02-22T16:10:04Z</time>
      </trkpt>
      <trkpt lat="38.6687670" lon="1.5204900">
        <ele>57.1</ele>
        <time>2020-02-22T16:10:05Z</time>
      </trkpt>
      <trkpt lat="38.6686530" lon="1.5203220">
        <ele>57.1</ele>
        <time>2020-02-22T16:10:06Z</time>
      </trkpt>
      <trkpt lat="38.6686530" lon="1.5203220">
        <ele>56.1</ele>
        <time>2020-02-22T16:10:07Z</time>
      </trkpt>
      <trkpt lat="38.6685030" lon="1.5201600">
        <ele>55.1</ele>
        <time>2020-02-22T16:10:08Z</time>
      </trkpt>
      <trkpt lat="38.6685030" lon="1.5201600">
        <ele>55.1</ele>
        <time>2020-02-22T16:10:09Z</time>
      </trkpt>
      <trkpt lat="38.6683580" lon="1.5199850">
        <ele>54.1</ele>
        <time>2020-02-22T16:10:10Z</time>
      </trkpt>
      <trkpt lat="38.6683580" lon="1.5199850">
        <ele>54.1</ele>
        <time>2020-02-22T16:10:11Z</time>
      </trkpt>
      <trkpt lat="38.6682100" lon="1.5198220">
        <ele>52.1</ele>
        <time>2020-02-22T16:10:12Z</time>
      </trkpt>
      <trkpt lat="38.6682100" lon="1.5198220">
        <ele>52.1</ele>
        <time>2020-02-22T16:10:13Z</time>
      </trkpt>
      <trkpt lat="38.6681330" lon="1.5196550">
        <ele>51.1</ele>
        <time>2020-02-22T16:10:14Z</time>
      </trkpt>
      <trkpt lat="38.6681330" lon="1.5196550">
        <ele>51.1</ele>
        <time>2020-02-22T16:10:15Z</time>
      </trkpt>
      <trkpt lat="38.6681730" lon="1.5194780">
        <ele>50.1</ele>
        <time>2020-02-22T16:10:16Z</time>
      </trkpt>
      <trkpt lat="38.6681730" lon="1.5194780">
        <ele>50.1</ele>
        <time>2020-02-22T16:10:17Z</time>
      </trkpt>
      <trkpt lat="38.6682970" lon="1.5193730">
        <ele>49.1</ele>
        <time>2020-02-22T16:10:18Z</time>
      </trkpt>
      <trkpt lat="38.6682970" lon="1.5193730">
        <ele>49.1</ele>
        <time>2020-02-22T16:10:19Z</time>
      </trkpt>
      <trkpt lat="38.6684550" lon="1.5193430">
        <ele>48.1</ele>
        <time>2020-02-22T16:10:20Z</time>
      </trkpt>
      <trkpt lat="38.6684550" lon="1.5193430">
        <ele>48.1</ele>
        <time>2020-02-22T16:10:21Z</time>
      </trkpt>
      <trkpt lat="38.6686330" lon="1.5193000">
        <ele>47.1</ele>
        <time>2020-02-22T16:10:22Z</time>
      </trkpt>
      <trkpt lat="38.6686330" lon="1.5193000">
        <ele>47.1</ele>
        <time>2020-02-22T16:10:23Z</time>
      </trkpt>
      <trkpt lat="38.6688080" lon="1.5191870">
        <ele>46.1</ele>
        <time>2020-02-22T16:10:24Z</time>
      </trkpt>
      <trkpt lat="38.6688080" lon="1.5191870">
        <ele>46.1</ele>
        <time>2020-02-22T16:10:25Z</time>
      </trkpt>
      <trkpt lat="38.6689720" lon="1.5190350">
        <ele>45.1</ele>
        <time>2020-02-22T16:10:26Z</time>
      </trkpt>
      <trkpt lat="38.6690570" lon="1.5189700">
        <ele>45.1</ele>
        <time>2020-02-22T16:10:27Z</time>
      </trkpt>
      <trkpt lat="38.6690570" lon="1.5189700">
        <ele>43.1</ele>
        <time>2020-02-22T16:10:28Z</time>
      </trkpt>
      <trkpt lat="38.6692480" lon="1.5188820">
        <ele>42.1</ele>
        <time>2020-02-22T16:10:29Z</time>
      </trkpt>
      <trkpt lat="38.6693420" lon="1.5188520">
        <ele>42.1</ele>
        <time>2020-02-22T16:10:30Z</time>
      </trkpt>
      <trkpt lat="38.6693420" lon="1.5188520">
        <ele>41.1</ele>
        <time>2020-02-22T16:10:31Z</time>
      </trkpt>
      <trkpt lat="38.6695270" lon="1.5188400">
        <ele>41.1</ele>
        <time>2020-02-22T16:10:32Z</time>
      </trkpt>
      <trkpt lat="38.6696200" lon="1.5188700">
        <ele>40.1</ele>
        <time>2020-02-22T16:10:33Z</time>
      </trkpt>
      <trkpt lat="38.6696200" lon="1.5188700">
        <ele>40.1</ele>
        <time>2020-02-22T16:10:34Z</time>
      </trkpt>
      <trkpt lat="38.6697730" lon="1.5190220">
        <ele>39.1</ele>
        <time>2020-02-22T16:10:35Z</time>
      </trkpt>
      <trkpt lat="38.6697730" lon="1.5190220">
        <ele>39.1</ele>
        <time>2020-02-22T16:10:36Z</time>
      </trkpt>
      <trkpt lat="38.6698380" lon="1.5191200">
        <ele>38.1</ele>
        <time>2020-02-22T16:10:37Z</time>
      </trkpt>
      <trkpt lat="38.6698380" lon="1.5191200">
        <ele>38.1</ele>
        <time>2020-02-22T16:10:38Z</time>
      </trkpt>
      <trkpt lat="38.6700570" lon="1.5194030">
        <ele>37.1</ele>
        <time>2020-02-22T16:10:39Z</time>
      </trkpt>
      <trkpt lat="38.6700570" lon="1.5194030">
        <ele>37.1</ele>
        <time>2020-02-22T16:10:40Z</time>
      </trkpt>
      <trkpt lat="38.6702480" lon="1.5195100">
        <ele>35.1</ele>
        <time>2020-02-22T16:10:41Z</time>
      </trkpt>
      <trkpt lat="38.6703520" lon="1.5195370">
        <ele>35.1</ele>
        <time>2020-02-22T16:10:42Z</time>
      </trkpt>
      <trkpt lat="38.6703520" lon="1.5195370">
        <ele>34.1</ele>
        <time>2020-02-22T16:10:43Z</time>
      </trkpt>
      <trkpt lat="38.6705620" lon="1.5195830">
        <ele>34.1</ele>
        <time>2020-02-22T16:10:44Z</time>
      </trkpt>
      <trkpt lat="38.6705620" lon="1.5195830">
        <ele>33.1</ele>
        <time>2020-02-22T16:10:45Z</time>
      </trkpt>
      <trkpt lat="38.6707770" lon="1.5196330">
        <ele>33.1</ele>
        <time>2020-02-22T16:10:46Z</time>
      </trkpt>
      <trkpt lat="38.6707770" lon="1.5196330">
        <ele>31.1</ele>
        <time>2020-02-22T16:10:47Z</time>
      </trkpt>
      <trkpt lat="38.6709920" lon="1.5196820">
        <ele>30.1</ele>
        <time>2020-02-22T16:10:48Z</time>
      </trkpt>
      <trkpt lat="38.6709920" lon="1.5196820">
        <ele>30.1</ele>
        <time>2020-02-22T16:10:49Z</time>
      </trkpt>
      <trkpt lat="38.6712050" lon="1.5197280">
        <ele>29.1</ele>
        <time>2020-02-22T16:10:50Z</time>
      </trkpt>
      <trkpt lat="38.6712050" lon="1.5197280">
        <ele>29.1</ele>
        <time>2020-02-22T16:10:51Z</time>
      </trkpt>
      <trkpt lat="38.6714230" lon="1.5197780">
        <ele>27.1</ele>
        <time>2020-02-22T16:10:52Z</time>
      </trkpt>
      <trkpt lat="38.6714230" lon="1.5197780">
        <ele>27.1</ele>
        <time>2020-02-22T16:10:53Z</time>
      </trkpt>
      <trkpt lat="38.6716430" lon="1.5198250">
        <ele>26.1</ele>
        <time>2020-02-22T16:10:54Z</time>
      </trkpt>
      <trkpt lat="38.6716430" lon="1.5198250">
        <ele>26.1</ele>
        <time>2020-02-22T16:10:55Z</time>
      </trkpt>
      <trkpt lat="38.6718600" lon="1.5198700">
        <ele>24.1</ele>
        <time>2020-02-22T16:10:56Z</time>
      </trkpt>
      <trkpt lat="38.6718600" lon="1.5198700">
        <ele>24.1</ele>
        <time>2020-02-22T16:10:57Z</time>
      </trkpt>
      <trkpt lat="38.6720820" lon="1.5199170">
        <ele>23.1</ele>
        <time>2020-02-22T16:10:58Z</time>
      </trkpt>
      <trkpt lat="38.6720820" lon="1.5199170">
        <ele>23.1</ele>
        <time>2020-02-22T16:10:59Z</time>
      </trkpt>
      <trkpt lat="38.6723100" lon="1.5199580">
        <ele>22.1</ele>
        <time>2020-02-22T16:11:00Z</time>
      </trkpt>
      <trkpt lat="38.6723100" lon="1.5199580">
        <ele>22.1</ele>
        <time>2020-02-22T16:11:01Z</time>
      </trkpt>
      <trkpt lat="38.6725370" lon="1.5200180">
        <ele>20.1</ele>
        <time>2020-02-22T16:11:02Z</time>
      </trkpt>
      <trkpt lat="38.6725370" lon="1.5200180">
        <ele>20.1</ele>
        <time>2020-02-22T16:11:03Z</time>
      </trkpt>
      <trkpt lat="38.6727720" lon="1.5200720">
        <ele>19.1</ele>
        <time>2020-02-22T16:11:04Z</time>
      </trkpt>
      <trkpt lat="38.6727720" lon="1.5200720">
        <ele>19.1</ele>
        <time>2020-02-22T16:11:05Z</time>
      </trkpt>
      <trkpt lat="38.6730080" lon="1.5201180">
        <ele>18.1</ele>
        <time>2020-02-22T16:11:06Z</time>
      </trkpt>
      <trkpt lat="38.6730080" lon="1.5201180">
        <ele>17.1</ele>
        <time>2020-02-22T16:11:07Z</time>
      </trkpt>
      <trkpt lat="38.6732530" lon="1.5201600">
        <ele>17.1</ele>
        <time>2020-02-22T16:11:08Z</time>
      </trkpt>
      <trkpt lat="38.6732530" lon="1.5201600">
        <ele>16.1</ele>
        <time>2020-02-22T16:11:09Z</time>
      </trkpt>
      <trkpt lat="38.6734850" lon="1.5201900">
        <ele>16.1</ele>
        <time>2020-02-22T16:11:10Z</time>
      </trkpt>
      <trkpt lat="38.6734850" lon="1.5201900">
        <ele>15.1</ele>
        <time>2020-02-22T16:11:11Z</time>
      </trkpt>
      <trkpt lat="38.6737120" lon="1.5201830">
        <ele>15.1</ele>
        <time>2020-02-22T16:11:12Z</time>
      </trkpt>
      <trkpt lat="38.6738200" lon="1.5201570">
        <ele>15.1</ele>
        <time>2020-02-22T16:11:13Z</time>
      </trkpt>
      <trkpt lat="38.6739280" lon="1.5201050">
        <ele>15.1</ele>
        <time>2020-02-22T16:11:14Z</time>
      </trkpt>
      <trkpt lat="38.6739280" lon="1.5201050">
        <ele>14.1</ele>
        <time>2020-02-22T16:11:15Z</time>
      </trkpt>
      <trkpt lat="38.6741150" lon="1.5199620">
        <ele>14.1</ele>
        <time>2020-02-22T16:11:16Z</time>
      </trkpt>
      <trkpt lat="38.6741150" lon="1.5199620">
        <ele>13.1</ele>
        <time>2020-02-22T16:11:17Z</time>
      </trkpt>
      <trkpt lat="38.6742900" lon="1.5198050">
        <ele>13.1</ele>
        <time>2020-02-22T16:11:18Z</time>
      </trkpt>
      <trkpt lat="38.6742900" lon="1.5198050">
        <ele>12.1</ele>
        <time>2020-02-22T16:11:19Z</time>
      </trkpt>
      <trkpt lat="38.6744530" lon="1.5196430">
        <ele>12.1</ele>
        <time>2020-02-22T16:11:20Z</time>
      </trkpt>
      <trkpt lat="38.6744530" lon="1.5196430">
        <ele>12.1</ele>
        <time>2020-02-22T16:11:21Z</time>
      </trkpt>
      <trkpt lat="38.6746080" lon="1.5194800">
        <ele>12.1</ele>
        <time>2020-02-22T16:11:22Z</time>
      </trkpt>
      <trkpt lat="38.6746870" lon="1.5194000">
        <ele>11.1</ele>
        <time>2020-02-22T16:11:23Z</time>
      </trkpt>
      <trkpt lat="38.6746870" lon="1.5194000">
        <ele>11.1</ele>
        <time>2020-02-22T16:11:24Z</time>
      </trkpt>
      <trkpt lat="38.6748380" lon="1.5192380">
        <ele>11.1</ele>
        <time>2020-02-22T16:11:25Z</time>
      </trkpt>
      <trkpt lat="38.6748380" lon="1.5192380">
        <ele>11.1</ele>
        <time>2020-02-22T16:11:26Z</time>
      </trkpt>
      <trkpt lat="38.6749880" lon="1.5190780">
        <ele>10.1</ele>
        <time>2020-02-22T16:11:27Z</time>
      </trkpt>
      <trkpt lat="38.6750620" lon="1.5189980">
        <ele>10.1</ele>
        <time>2020-02-22T16:11:28Z</time>
      </trkpt>
      <trkpt lat="38.6750620" lon="1.5189980">
        <ele>10.1</ele>
        <time>2020-02-22T16:11:29Z</time>
      </trkpt>
      <trkpt lat="38.6752100" lon="1.5188450">
        <ele>10.1</ele>
        <time>2020-02-22T16:11:30Z</time>
      </trkpt>
      <trkpt lat="38.6752100" lon="1.5188450">
        <ele>9.1</ele>
        <time>2020-02-22T16:11:31Z</time>
      </trkpt>
      <trkpt lat="38.6753580" lon="1.5186880">
        <ele>9.1</ele>
        <time>2020-02-22T16:11:32Z</time>
      </trkpt>
      <trkpt lat="38.6753580" lon="1.5186880">
        <ele>9.1</ele>
        <time>2020-02-22T16:11:33Z</time>
      </trkpt>
      <trkpt lat="38.6755030" lon="1.5185300">
        <ele>9.1</ele>
        <time>2020-02-22T16:11:34Z</time>
      </trkpt>
      <trkpt lat="38.6755030" lon="1.5185300">
        <ele>8.1</ele>
        <time>2020-02-22T16:11:35Z</time>
      </trkpt>
      <trkpt lat="38.6756520" lon="1.5183820">
        <ele>8.1</ele>
        <time>2020-02-22T16:11:36Z</time>
      </trkpt>
      <trkpt lat="38.6756520" lon="1.5183820">
        <ele>8.1</ele>
        <time>2020-02-22T16:11:37Z</time>
      </trkpt>
      <trkpt lat="38.6757970" lon="1.5182270">
        <ele>8.1</ele>
        <time>2020-02-22T16:11:38Z</time>
      </trkpt>
      <trkpt lat="38.6757970" lon="1.5182270">
        <ele>8.1</ele>
        <time>2020-02-22T16:11:39Z</time>
      </trkpt>
      <trkpt lat="38.6759430" lon="1.5180700">
        <ele>8.1</ele>
        <time>2020-02-22T16:11:40Z</time>
      </trkpt>
      <trkpt lat="38.6759430" lon="1.5180700">
        <ele>7.1</ele>
        <time>2020-02-22T16:11:41Z</time>
      </trkpt>
      <trkpt lat="38.6760930" lon="1.5179130">
        <ele>7.1</ele>
        <time>2020-02-22T16:11:42Z</time>
      </trkpt>
      <trkpt lat="38.6760930" lon="1.5179130">
        <ele>7.1</ele>
        <time>2020-02-22T16:11:43Z</time>
      </trkpt>
      <trkpt lat="38.6762400" lon="1.5177480">
        <ele>7.1</ele>
        <time>2020-02-22T16:11:44Z</time>
      </trkpt>
      <trkpt lat="38.6762400" lon="1.5177480">
        <ele>6.1</ele>
        <time>2020-02-22T16:11:45Z</time>
      </trkpt>
      <trkpt lat="38.6763880" lon="1.5175900">
        <ele>5.1</ele>
        <time>2020-02-22T16:11:46Z</time>
      </trkpt>
      <trkpt lat="38.6763880" lon="1.5175900">
        <ele>5.1</ele>
        <time>2020-02-22T16:11:47Z</time>
      </trkpt>
      <trkpt lat="38.6765300" lon="1.5174270">
        <ele>5.1</ele>
        <time>2020-02-22T16:11:48Z</time>
      </trkpt>
      <trkpt lat="38.6765300" lon="1.5174270">
        <ele>5.1</ele>
        <time>2020-02-22T16:11:49Z</time>
      </trkpt>
      <trkpt lat="38.6766720" lon="1.5172700">
        <ele>5.1</ele>
        <time>2020-02-22T16:11:50Z</time>
      </trkpt>
      <trkpt lat="38.6767380" lon="1.5171900">
        <ele>5.1</ele>
        <time>2020-02-22T16:11:51Z</time>
      </trkpt>
      <trkpt lat="38.6767380" lon="1.5171900">
        <ele>5.1</ele>
        <time>2020-02-22T16:11:52Z</time>
      </trkpt>
      <trkpt lat="38.6767380" lon="1.5171900">
        <ele>5.1</ele>
        <time>2020-02-22T16:11:53Z</time>
      </trkpt>
      <trkpt lat="38.6769120" lon="1.5169080">
        <ele>5.1</ele>
        <time>2020-02-22T16:11:54Z</time>
      </trkpt>
      <trkpt lat="38.6769120" lon="1.5169080">
        <ele>5.1</ele>
        <time>2020-02-22T16:11:55Z</time>
      </trkpt>
      <trkpt lat="38.6770030" lon="1.5167000">
        <ele>5.1</ele>
        <time>2020-02-22T16:11:56Z</time>
      </trkpt>
      <trkpt lat="38.6770030" lon="1.5167000">
        <ele>5.1</ele>
        <time>2020-02-22T16:11:57Z</time>
      </trkpt>
      <trkpt lat="38.6770800" lon="1.5164920">
        <ele>4.1</ele>
        <time>2020-02-22T16:11:58Z</time>
      </trkpt>
      <trkpt lat="38.6770800" lon="1.5164920">
        <ele>4.1</ele>
        <time>2020-02-22T16:11:59Z</time>
      </trkpt>
      <trkpt lat="38.6771520" lon="1.5162830">
        <ele>4.1</ele>
        <time>2020-02-22T16:12:00Z</time>
      </trkpt>
      <trkpt lat="38.6771520" lon="1.5162830">
        <ele>4.1</ele>
        <time>2020-02-22T16:12:01Z</time>
      </trkpt>
      <trkpt lat="38.6772170" lon="1.5160750">
        <ele>4.1</ele>
        <time>2020-02-22T16:12:02Z</time>
      </trkpt>
      <trkpt lat="38.6772170" lon="1.5160750">
        <ele>4.1</ele>
        <time>2020-02-22T16:12:03Z</time>
      </trkpt>
      <trkpt lat="38.6772750" lon="1.5158720">
        <ele>4.1</ele>
        <time>2020-02-22T16:12:04Z</time>
      </trkpt>
      <trkpt lat="38.6773030" lon="1.5157730">
        <ele>4.1</ele>
        <time>2020-02-22T16:12:05Z</time>
      </trkpt>
      <trkpt lat="38.6773030" lon="1.5157730">
        <ele>4.1</ele>
        <time>2020-02-22T16:12:06Z</time>
      </trkpt>
      <trkpt lat="38.6773620" lon="1.5155830">
        <ele>4.1</ele>
        <time>2020-02-22T16:12:07Z</time>
      </trkpt>
      <trkpt lat="38.6773920" lon="1.5154870">
        <ele>4.1</ele>
        <time>2020-02-22T16:12:08Z</time>
      </trkpt>
      <trkpt lat="38.6773920" lon="1.5154870">
        <ele>4.1</ele>
        <time>2020-02-22T16:12:09Z</time>
      </trkpt>
      <trkpt lat="38.6774520" lon="1.5152980">
        <ele>4.1</ele>
        <time>2020-02-22T16:12:10Z</time>
      </trkpt>
      <trkpt lat="38.6774830" lon="1.5152050">
        <ele>4.1</ele>
        <time>2020-02-22T16:12:11Z</time>
      </trkpt>
      <trkpt lat="38.6775130" lon="1.5151150">
        <ele>4.1</ele>
        <time>2020-02-22T16:12:12Z</time>
      </trkpt>
      <trkpt lat="38.6775130" lon="1.5151150">
        <ele>4.1</ele>
        <time>2020-02-22T16:12:13Z</time>
      </trkpt>
      <trkpt lat="38.6775670" lon="1.5149300">
        <ele>4.1</ele>
        <time>2020-02-22T16:12:14Z</time>
      </trkpt>
      <trkpt lat="38.6775670" lon="1.5149300">
        <ele>4.1</ele>
        <time>2020-02-22T16:12:15Z</time>
      </trkpt>
      <trkpt lat="38.6776220" lon="1.5147450">
        <ele>4.1</ele>
        <time>2020-02-22T16:12:16Z</time>
      </trkpt>
      <trkpt lat="38.6776220" lon="1.5147450">
        <ele>4.1</ele>
        <time>2020-02-22T16:12:17Z</time>
      </trkpt>
      <trkpt lat="38.6776780" lon="1.5145580">
        <ele>4.1</ele>
        <time>2020-02-22T16:12:18Z</time>
      </trkpt>
      <trkpt lat="38.6776780" lon="1.5145580">
        <ele>4.1</ele>
        <time>2020-02-22T16:12:19Z</time>
      </trkpt>
      <trkpt lat="38.6777350" lon="1.5143720">
        <ele>4.1</ele>
        <time>2020-02-22T16:12:20Z</time>
      </trkpt>
      <trkpt lat="38.6777350" lon="1.5143720">
        <ele>4.1</ele>
        <time>2020-02-22T16:12:21Z</time>
      </trkpt>
      <trkpt lat="38.6777920" lon="1.5141880">
        <ele>4.1</ele>
        <time>2020-02-22T16:12:22Z</time>
      </trkpt>
      <trkpt lat="38.6777920" lon="1.5141880">
        <ele>4.1</ele>
        <time>2020-02-22T16:12:23Z</time>
      </trkpt>
      <trkpt lat="38.6778470" lon="1.5140070">
        <ele>4.1</ele>
        <time>2020-02-22T16:12:24Z</time>
      </trkpt>
      <trkpt lat="38.6778470" lon="1.5140070">
        <ele>4.1</ele>
        <time>2020-02-22T16:12:25Z</time>
      </trkpt>
      <trkpt lat="38.6779000" lon="1.5138230">
        <ele>4.1</ele>
        <time>2020-02-22T16:12:26Z</time>
      </trkpt>
      <trkpt lat="38.6779000" lon="1.5138230">
        <ele>4.1</ele>
        <time>2020-02-22T16:12:27Z</time>
      </trkpt>
      <trkpt lat="38.6779550" lon="1.5136420">
        <ele>4.1</ele>
        <time>2020-02-22T16:12:28Z</time>
      </trkpt>
      <trkpt lat="38.6779820" lon="1.5135520">
        <ele>4.1</ele>
        <time>2020-02-22T16:12:29Z</time>
      </trkpt>
      <trkpt lat="38.6780080" lon="1.5134630">
        <ele>3.1</ele>
        <time>2020-02-22T16:12:30Z</time>
      </trkpt>
      <trkpt lat="38.6780080" lon="1.5134630">
        <ele>3.1</ele>
        <time>2020-02-22T16:12:31Z</time>
      </trkpt>
      <trkpt lat="38.6780620" lon="1.5132830">
        <ele>3.1</ele>
        <time>2020-02-22T16:12:32Z</time>
      </trkpt>
      <trkpt lat="38.6780620" lon="1.5132830">
        <ele>3.1</ele>
        <time>2020-02-22T16:12:33Z</time>
      </trkpt>
      <trkpt lat="38.6781150" lon="1.5131050">
        <ele>3.1</ele>
        <time>2020-02-22T16:12:34Z</time>
      </trkpt>
      <trkpt lat="38.6781150" lon="1.5131050">
        <ele>3.1</ele>
        <time>2020-02-22T16:12:35Z</time>
      </trkpt>
      <trkpt lat="38.6781670" lon="1.5129270">
        <ele>3.1</ele>
        <time>2020-02-22T16:12:36Z</time>
      </trkpt>
      <trkpt lat="38.6781670" lon="1.5129270">
        <ele>3.1</ele>
        <time>2020-02-22T16:12:37Z</time>
      </trkpt>
      <trkpt lat="38.6782180" lon="1.5127530">
        <ele>3.1</ele>
        <time>2020-02-22T16:12:38Z</time>
      </trkpt>
      <trkpt lat="38.6782180" lon="1.5127530">
        <ele>3.1</ele>
        <time>2020-02-22T16:12:39Z</time>
      </trkpt>
      <trkpt lat="38.6782680" lon="1.5125820">
        <ele>3.1</ele>
        <time>2020-02-22T16:12:40Z</time>
      </trkpt>
      <trkpt lat="38.6782930" lon="1.5124980">
        <ele>3.1</ele>
        <time>2020-02-22T16:12:41Z</time>
      </trkpt>
      <trkpt lat="38.6783200" lon="1.5124150">
        <ele>3.1</ele>
        <time>2020-02-22T16:12:42Z</time>
      </trkpt>
      <trkpt lat="38.6783200" lon="1.5124150">
        <ele>3.1</ele>
        <time>2020-02-22T16:12:43Z</time>
      </trkpt>
      <trkpt lat="38.6783720" lon="1.5122470">
        <ele>3.1</ele>
        <time>2020-02-22T16:12:44Z</time>
      </trkpt>
      <trkpt lat="38.6783720" lon="1.5122470">
        <ele>3.1</ele>
        <time>2020-02-22T16:12:45Z</time>
      </trkpt>
      <trkpt lat="38.6784220" lon="1.5120800">
        <ele>3.1</ele>
        <time>2020-02-22T16:12:46Z</time>
      </trkpt>
      <trkpt lat="38.6784220" lon="1.5120800">
        <ele>3.1</ele>
        <time>2020-02-22T16:12:47Z</time>
      </trkpt>
      <trkpt lat="38.6784700" lon="1.5119100">
        <ele>3.1</ele>
        <time>2020-02-22T16:12:48Z</time>
      </trkpt>
      <trkpt lat="38.6784700" lon="1.5119100">
        <ele>3.1</ele>
        <time>2020-02-22T16:12:49Z</time>
      </trkpt>
      <trkpt lat="38.6785200" lon="1.5117420">
        <ele>3.1</ele>
        <time>2020-02-22T16:12:50Z</time>
      </trkpt>
      <trkpt lat="38.6785200" lon="1.5117420">
        <ele>3.1</ele>
        <time>2020-02-22T16:12:51Z</time>
      </trkpt>
      <trkpt lat="38.6785720" lon="1.5115750">
        <ele>3.1</ele>
        <time>2020-02-22T16:12:52Z</time>
      </trkpt>
      <trkpt lat="38.6785720" lon="1.5115750">
        <ele>3.1</ele>
        <time>2020-02-22T16:12:53Z</time>
      </trkpt>
      <trkpt lat="38.6786230" lon="1.5114100">
        <ele>3.1</ele>
        <time>2020-02-22T16:12:54Z</time>
      </trkpt>
      <trkpt lat="38.6786230" lon="1.5114100">
        <ele>3.1</ele>
        <time>2020-02-22T16:12:55Z</time>
      </trkpt>
      <trkpt lat="38.6786720" lon="1.5112450">
        <ele>3.1</ele>
        <time>2020-02-22T16:12:56Z</time>
      </trkpt>
      <trkpt lat="38.6786720" lon="1.5112450">
        <ele>3.1</ele>
        <time>2020-02-22T16:12:57Z</time>
      </trkpt>
      <trkpt lat="38.6787180" lon="1.5110780">
        <ele>3.1</ele>
        <time>2020-02-22T16:12:58Z</time>
      </trkpt>
      <trkpt lat="38.6787180" lon="1.5110780">
        <ele>3.1</ele>
        <time>2020-02-22T16:12:59Z</time>
      </trkpt>
      <trkpt lat="38.6787680" lon="1.5109180">
        <ele>3.1</ele>
        <time>2020-02-22T16:13:00Z</time>
      </trkpt>
      <trkpt lat="38.6787680" lon="1.5109180">
        <ele>3.1</ele>
        <time>2020-02-22T16:13:01Z</time>
      </trkpt>
      <trkpt lat="38.6787930" lon="1.5108400">
        <ele>3.1</ele>
        <time>2020-02-22T16:13:02Z</time>
      </trkpt>
      <trkpt lat="38.6788380" lon="1.5106850">
        <ele>3.1</ele>
        <time>2020-02-22T16:13:03Z</time>
      </trkpt>
      <trkpt lat="38.6788380" lon="1.5106850">
        <ele>3.1</ele>
        <time>2020-02-22T16:13:04Z</time>
      </trkpt>
      <trkpt lat="38.6788850" lon="1.5105270">
        <ele>3.1</ele>
        <time>2020-02-22T16:13:05Z</time>
      </trkpt>
      <trkpt lat="38.6789070" lon="1.5104470">
        <ele>3.1</ele>
        <time>2020-02-22T16:13:06Z</time>
      </trkpt>
      <trkpt lat="38.6789070" lon="1.5104470">
        <ele>3.1</ele>
        <time>2020-02-22T16:13:07Z</time>
      </trkpt>
      <trkpt lat="38.6789530" lon="1.5102900">
        <ele>3.1</ele>
        <time>2020-02-22T16:13:08Z</time>
      </trkpt>
      <trkpt lat="38.6789530" lon="1.5102900">
        <ele>3.1</ele>
        <time>2020-02-22T16:13:09Z</time>
      </trkpt>
      <trkpt lat="38.6789980" lon="1.5101280">
        <ele>3.1</ele>
        <time>2020-02-22T16:13:10Z</time>
      </trkpt>
      <trkpt lat="38.6790200" lon="1.5100480">
        <ele>3.1</ele>
        <time>2020-02-22T16:13:11Z</time>
      </trkpt>
      <trkpt lat="38.6790430" lon="1.5099670">
        <ele>3.1</ele>
        <time>2020-02-22T16:13:12Z</time>
      </trkpt>
      <trkpt lat="38.6790430" lon="1.5099670">
        <ele>3.1</ele>
        <time>2020-02-22T16:13:13Z</time>
      </trkpt>
      <trkpt lat="38.6790930" lon="1.5098000">
        <ele>4.1</ele>
        <time>2020-02-22T16:13:14Z</time>
      </trkpt>
      <trkpt lat="38.6790930" lon="1.5098000">
        <ele>4.1</ele>
        <time>2020-02-22T16:13:15Z</time>
      </trkpt>
      <trkpt lat="38.6791450" lon="1.5096370">
        <ele>4.1</ele>
        <time>2020-02-22T16:13:16Z</time>
      </trkpt>
      <trkpt lat="38.6791700" lon="1.5095550">
        <ele>4.1</ele>
        <time>2020-02-22T16:13:17Z</time>
      </trkpt>
      <trkpt lat="38.6791950" lon="1.5094700">
        <ele>4.1</ele>
        <time>2020-02-22T16:13:18Z</time>
      </trkpt>
      <trkpt lat="38.6791950" lon="1.5094700">
        <ele>4.1</ele>
        <time>2020-02-22T16:13:19Z</time>
      </trkpt>
      <trkpt lat="38.6792470" lon="1.5093050">
        <ele>4.1</ele>
        <time>2020-02-22T16:13:20Z</time>
      </trkpt>
      <trkpt lat="38.6792730" lon="1.5092220">
        <ele>4.1</ele>
        <time>2020-02-22T16:13:21Z</time>
      </trkpt>
      <trkpt lat="38.6792730" lon="1.5092220">
        <ele>4.1</ele>
        <time>2020-02-22T16:13:22Z</time>
      </trkpt>
      <trkpt lat="38.6793250" lon="1.5090550">
        <ele>4.1</ele>
        <time>2020-02-22T16:13:23Z</time>
      </trkpt>
      <trkpt lat="38.6793500" lon="1.5089720">
        <ele>4.1</ele>
        <time>2020-02-22T16:13:24Z</time>
      </trkpt>
      <trkpt lat="38.6793500" lon="1.5089720">
        <ele>4.1</ele>
        <time>2020-02-22T16:13:25Z</time>
      </trkpt>
      <trkpt lat="38.6794020" lon="1.5088070">
        <ele>4.1</ele>
        <time>2020-02-22T16:13:26Z</time>
      </trkpt>
      <trkpt lat="38.6794020" lon="1.5088070">
        <ele>4.1</ele>
        <time>2020-02-22T16:13:27Z</time>
      </trkpt>
      <trkpt lat="38.6794520" lon="1.5086400">
        <ele>4.1</ele>
        <time>2020-02-22T16:13:28Z</time>
      </trkpt>
      <trkpt lat="38.6794770" lon="1.5085570">
        <ele>4.1</ele>
        <time>2020-02-22T16:13:29Z</time>
      </trkpt>
      <trkpt lat="38.6794770" lon="1.5085570">
        <ele>4.1</ele>
        <time>2020-02-22T16:13:30Z</time>
      </trkpt>
      <trkpt lat="38.6795220" lon="1.5083880">
        <ele>4.1</ele>
        <time>2020-02-22T16:13:31Z</time>
      </trkpt>
      <trkpt lat="38.6795470" lon="1.5083050">
        <ele>4.1</ele>
        <time>2020-02-22T16:13:32Z</time>
      </trkpt>
      <trkpt lat="38.6795470" lon="1.5083050">
        <ele>3.1</ele>
        <time>2020-02-22T16:13:33Z</time>
      </trkpt>
      <trkpt lat="38.6795980" lon="1.5081400">
        <ele>3.1</ele>
        <time>2020-02-22T16:13:34Z</time>
      </trkpt>
      <trkpt lat="38.6795980" lon="1.5081400">
        <ele>3.1</ele>
        <time>2020-02-22T16:13:35Z</time>
      </trkpt>
      <trkpt lat="38.6796470" lon="1.5079730">
        <ele>3.1</ele>
        <time>2020-02-22T16:13:36Z</time>
      </trkpt>
      <trkpt lat="38.6796470" lon="1.5079730">
        <ele>3.1</ele>
        <time>2020-02-22T16:13:37Z</time>
      </trkpt>
      <trkpt lat="38.6796950" lon="1.5078080">
        <ele>3.1</ele>
        <time>2020-02-22T16:13:38Z</time>
      </trkpt>
      <trkpt lat="38.6796950" lon="1.5078080">
        <ele>4.1</ele>
        <time>2020-02-22T16:13:39Z</time>
      </trkpt>
      <trkpt lat="38.6797430" lon="1.5076450">
        <ele>4.1</ele>
        <time>2020-02-22T16:13:40Z</time>
      </trkpt>
      <trkpt lat="38.6797650" lon="1.5075630">
        <ele>4.1</ele>
        <time>2020-02-22T16:13:41Z</time>
      </trkpt>
      <trkpt lat="38.6797870" lon="1.5074850">
        <ele>4.1</ele>
        <time>2020-02-22T16:13:42Z</time>
      </trkpt>
      <trkpt lat="38.6797870" lon="1.5074850">
        <ele>4.1</ele>
        <time>2020-02-22T16:13:43Z</time>
      </trkpt>
      <trkpt lat="38.6798320" lon="1.5073270">
        <ele>4.1</ele>
        <time>2020-02-22T16:13:44Z</time>
      </trkpt>
      <trkpt lat="38.6798320" lon="1.5073270">
        <ele>4.1</ele>
        <time>2020-02-22T16:13:45Z</time>
      </trkpt>
      <trkpt lat="38.6798770" lon="1.5071720">
        <ele>4.1</ele>
        <time>2020-02-22T16:13:46Z</time>
      </trkpt>
      <trkpt lat="38.6798770" lon="1.5071720">
        <ele>4.1</ele>
        <time>2020-02-22T16:13:47Z</time>
      </trkpt>
      <trkpt lat="38.6799220" lon="1.5070130">
        <ele>4.1</ele>
        <time>2020-02-22T16:13:48Z</time>
      </trkpt>
      <trkpt lat="38.6799220" lon="1.5070130">
        <ele>4.1</ele>
        <time>2020-02-22T16:13:49Z</time>
      </trkpt>
      <trkpt lat="38.6799670" lon="1.5068550">
        <ele>4.1</ele>
        <time>2020-02-22T16:13:50Z</time>
      </trkpt>
      <trkpt lat="38.6799670" lon="1.5068550">
        <ele>4.1</ele>
        <time>2020-02-22T16:13:51Z</time>
      </trkpt>
      <trkpt lat="38.6800130" lon="1.5066970">
        <ele>4.1</ele>
        <time>2020-02-22T16:13:52Z</time>
      </trkpt>
      <trkpt lat="38.6800320" lon="1.5066180">
        <ele>4.1</ele>
        <time>2020-02-22T16:13:53Z</time>
      </trkpt>
      <trkpt lat="38.6800320" lon="1.5066180">
        <ele>4.1</ele>
        <time>2020-02-22T16:13:54Z</time>
      </trkpt>
      <trkpt lat="38.6800650" lon="1.5064600">
        <ele>4.1</ele>
        <time>2020-02-22T16:13:55Z</time>
      </trkpt>
      <trkpt lat="38.6800830" lon="1.5063850">
        <ele>4.1</ele>
        <time>2020-02-22T16:13:56Z</time>
      </trkpt>
      <trkpt lat="38.6800830" lon="1.5063850">
        <ele>4.1</ele>
        <time>2020-02-22T16:13:57Z</time>
      </trkpt>
      <trkpt lat="38.6801230" lon="1.5062330">
        <ele>5.1</ele>
        <time>2020-02-22T16:13:58Z</time>
      </trkpt>
      <trkpt lat="38.6801230" lon="1.5062330">
        <ele>5.1</ele>
        <time>2020-02-22T16:13:59Z</time>
      </trkpt>
      <trkpt lat="38.6801430" lon="1.5061580">
        <ele>5.1</ele>
        <time>2020-02-22T16:14:00Z</time>
      </trkpt>
      <trkpt lat="38.6801670" lon="1.5060830">
        <ele>5.1</ele>
        <time>2020-02-22T16:14:01Z</time>
      </trkpt>
      <trkpt lat="38.6802220" lon="1.5059400">
        <ele>5.1</ele>
        <time>2020-02-22T16:14:02Z</time>
      </trkpt>
      <trkpt lat="38.6802220" lon="1.5059400">
        <ele>5.1</ele>
        <time>2020-02-22T16:14:03Z</time>
      </trkpt>
      <trkpt lat="38.6802770" lon="1.5057930">
        <ele>5.1</ele>
        <time>2020-02-22T16:14:04Z</time>
      </trkpt>
      <trkpt lat="38.6803020" lon="1.5057180">
        <ele>5.1</ele>
        <time>2020-02-22T16:14:05Z</time>
      </trkpt>
      <trkpt lat="38.6803270" lon="1.5056420">
        <ele>5.1</ele>
        <time>2020-02-22T16:14:06Z</time>
      </trkpt>
      <trkpt lat="38.6803270" lon="1.5056420">
        <ele>5.1</ele>
        <time>2020-02-22T16:14:07Z</time>
      </trkpt>
      <trkpt lat="38.6803730" lon="1.5054870">
        <ele>5.1</ele>
        <time>2020-02-22T16:14:08Z</time>
      </trkpt>
      <trkpt lat="38.6803970" lon="1.5054080">
        <ele>5.1</ele>
        <time>2020-02-22T16:14:09Z</time>
      </trkpt>
      <trkpt lat="38.6803970" lon="1.5054080">
        <ele>5.1</ele>
        <time>2020-02-22T16:14:10Z</time>
      </trkpt>
      <trkpt lat="38.6804430" lon="1.5052520">
        <ele>5.1</ele>
        <time>2020-02-22T16:14:11Z</time>
      </trkpt>
      <trkpt lat="38.6804670" lon="1.5051750">
        <ele>5.1</ele>
        <time>2020-02-22T16:14:12Z</time>
      </trkpt>
      <trkpt lat="38.6804670" lon="1.5051750">
        <ele>5.1</ele>
        <time>2020-02-22T16:14:13Z</time>
      </trkpt>
      <trkpt lat="38.6805150" lon="1.5050180">
        <ele>5.1</ele>
        <time>2020-02-22T16:14:14Z</time>
      </trkpt>
      <trkpt lat="38.6805150" lon="1.5050180">
        <ele>5.1</ele>
        <time>2020-02-22T16:14:15Z</time>
      </trkpt>
      <trkpt lat="38.6805650" lon="1.5048680">
        <ele>5.1</ele>
        <time>2020-02-22T16:14:16Z</time>
      </trkpt>
      <trkpt lat="38.6805650" lon="1.5048680">
        <ele>5.1</ele>
        <time>2020-02-22T16:14:17Z</time>
      </trkpt>
      <trkpt lat="38.6806170" lon="1.5047220">
        <ele>5.1</ele>
        <time>2020-02-22T16:14:18Z</time>
      </trkpt>
      <trkpt lat="38.6806170" lon="1.5047220">
        <ele>5.1</ele>
        <time>2020-02-22T16:14:19Z</time>
      </trkpt>
      <trkpt lat="38.6806680" lon="1.5045800">
        <ele>5.1</ele>
        <time>2020-02-22T16:14:20Z</time>
      </trkpt>
      <trkpt lat="38.6806680" lon="1.5045800">
        <ele>6.1</ele>
        <time>2020-02-22T16:14:21Z</time>
      </trkpt>
      <trkpt lat="38.6807200" lon="1.5044480">
        <ele>6.1</ele>
        <time>2020-02-22T16:14:22Z</time>
      </trkpt>
      <trkpt lat="38.6807200" lon="1.5044480">
        <ele>6.1</ele>
        <time>2020-02-22T16:14:23Z</time>
      </trkpt>
      <trkpt lat="38.6807720" lon="1.5043170">
        <ele>6.1</ele>
        <time>2020-02-22T16:14:24Z</time>
      </trkpt>
      <trkpt lat="38.6807720" lon="1.5043170">
        <ele>6.1</ele>
        <time>2020-02-22T16:14:25Z</time>
      </trkpt>
      <trkpt lat="38.6808280" lon="1.5041870">
        <ele>6.1</ele>
        <time>2020-02-22T16:14:26Z</time>
      </trkpt>
      <trkpt lat="38.6808280" lon="1.5041870">
        <ele>7.1</ele>
        <time>2020-02-22T16:14:27Z</time>
      </trkpt>
      <trkpt lat="38.6808830" lon="1.5040530">
        <ele>7.1</ele>
        <time>2020-02-22T16:14:28Z</time>
      </trkpt>
      <trkpt lat="38.6809120" lon="1.5039880">
        <ele>7.1</ele>
        <time>2020-02-22T16:14:29Z</time>
      </trkpt>
      <trkpt lat="38.6809120" lon="1.5039880">
        <ele>7.1</ele>
        <time>2020-02-22T16:14:30Z</time>
      </trkpt>
      <trkpt lat="38.6809670" lon="1.5038620">
        <ele>7.1</ele>
        <time>2020-02-22T16:14:31Z</time>
      </trkpt>
      <trkpt lat="38.6809980" lon="1.5038000">
        <ele>7.1</ele>
        <time>2020-02-22T16:14:32Z</time>
      </trkpt>
      <trkpt lat="38.6809980" lon="1.5038000">
        <ele>7.1</ele>
        <time>2020-02-22T16:14:33Z</time>
      </trkpt>
      <trkpt lat="38.6810570" lon="1.5036730">
        <ele>7.1</ele>
        <time>2020-02-22T16:14:34Z</time>
      </trkpt>
      <trkpt lat="38.6810570" lon="1.5036730">
        <ele>8.1</ele>
        <time>2020-02-22T16:14:35Z</time>
      </trkpt>
      <trkpt lat="38.6811150" lon="1.5035450">
        <ele>8.1</ele>
        <time>2020-02-22T16:14:36Z</time>
      </trkpt>
      <trkpt lat="38.6811150" lon="1.5035450">
        <ele>8.1</ele>
        <time>2020-02-22T16:14:37Z</time>
      </trkpt>
      <trkpt lat="38.6811730" lon="1.5034220">
        <ele>8.1</ele>
        <time>2020-02-22T16:14:38Z</time>
      </trkpt>
      <trkpt lat="38.6811730" lon="1.5034220">
        <ele>8.1</ele>
        <time>2020-02-22T16:14:39Z</time>
      </trkpt>
      <trkpt lat="38.6812320" lon="1.5033000">
        <ele>9.1</ele>
        <time>2020-02-22T16:14:40Z</time>
      </trkpt>
      <trkpt lat="38.6812620" lon="1.5032370">
        <ele>9.1</ele>
        <time>2020-02-22T16:14:41Z</time>
      </trkpt>
      <trkpt lat="38.6812920" lon="1.5031730">
        <ele>9.1</ele>
        <time>2020-02-22T16:14:42Z</time>
      </trkpt>
      <trkpt lat="38.6813230" lon="1.5031100">
        <ele>9.1</ele>
        <time>2020-02-22T16:14:43Z</time>
      </trkpt>
      <trkpt lat="38.6813230" lon="1.5031100">
        <ele>9.1</ele>
        <time>2020-02-22T16:14:44Z</time>
      </trkpt>
      <trkpt lat="38.6813800" lon="1.5029850">
        <ele>9.1</ele>
        <time>2020-02-22T16:14:45Z</time>
      </trkpt>
      <trkpt lat="38.6813800" lon="1.5029850">
        <ele>9.1</ele>
        <time>2020-02-22T16:14:46Z</time>
      </trkpt>
      <trkpt lat="38.6814380" lon="1.5028600">
        <ele>9.1</ele>
        <time>2020-02-22T16:14:47Z</time>
      </trkpt>
      <trkpt lat="38.6814380" lon="1.5028600">
        <ele>9.1</ele>
        <time>2020-02-22T16:14:48Z</time>
      </trkpt>
      <trkpt lat="38.6814950" lon="1.5027350">
        <ele>9.1</ele>
        <time>2020-02-22T16:14:49Z</time>
      </trkpt>
      <trkpt lat="38.6814950" lon="1.5027350">
        <ele>8.1</ele>
        <time>2020-02-22T16:14:50Z</time>
      </trkpt>
      <trkpt lat="38.6815530" lon="1.5026100">
        <ele>8.1</ele>
        <time>2020-02-22T16:14:51Z</time>
      </trkpt>
      <trkpt lat="38.6815530" lon="1.5026100">
        <ele>10.1</ele>
        <time>2020-02-22T16:14:52Z</time>
      </trkpt>
      <trkpt lat="38.6816130" lon="1.5024800">
        <ele>10.1</ele>
        <time>2020-02-22T16:14:53Z</time>
      </trkpt>
      <trkpt lat="38.6816430" lon="1.5024150">
        <ele>10.1</ele>
        <time>2020-02-22T16:14:54Z</time>
      </trkpt>
      <trkpt lat="38.6816430" lon="1.5024150">
        <ele>10.1</ele>
        <time>2020-02-22T16:14:55Z</time>
      </trkpt>
      <trkpt lat="38.6817030" lon="1.5022870">
        <ele>10.1</ele>
        <time>2020-02-22T16:14:56Z</time>
      </trkpt>
      <trkpt lat="38.6817030" lon="1.5022870">
        <ele>11.1</ele>
        <time>2020-02-22T16:14:57Z</time>
      </trkpt>
      <trkpt lat="38.6817650" lon="1.5021580">
        <ele>11.1</ele>
        <time>2020-02-22T16:14:58Z</time>
      </trkpt>
      <trkpt lat="38.6817650" lon="1.5021580">
        <ele>11.1</ele>
        <time>2020-02-22T16:14:59Z</time>
      </trkpt>
      <trkpt lat="38.6818250" lon="1.5020270">
        <ele>11.1</ele>
        <time>2020-02-22T16:15:00Z</time>
      </trkpt>
      <trkpt lat="38.6818250" lon="1.5020270">
        <ele>11.1</ele>
        <time>2020-02-22T16:15:01Z</time>
      </trkpt>
      <trkpt lat="38.6818900" lon="1.5018930">
        <ele>11.1</ele>
        <time>2020-02-22T16:15:02Z</time>
      </trkpt>
      <trkpt lat="38.6818900" lon="1.5018930">
        <ele>11.1</ele>
        <time>2020-02-22T16:15:03Z</time>
      </trkpt>
      <trkpt lat="38.6819570" lon="1.5017620">
        <ele>11.1</ele>
        <time>2020-02-22T16:15:04Z</time>
      </trkpt>
      <trkpt lat="38.6819570" lon="1.5017620">
        <ele>11.1</ele>
        <time>2020-02-22T16:15:05Z</time>
      </trkpt>
      <trkpt lat="38.6820220" lon="1.5016250">
        <ele>11.1</ele>
        <time>2020-02-22T16:15:06Z</time>
      </trkpt>
      <trkpt lat="38.6820220" lon="1.5016250">
        <ele>11.1</ele>
        <time>2020-02-22T16:15:07Z</time>
      </trkpt>
      <trkpt lat="38.6820830" lon="1.5014870">
        <ele>11.1</ele>
        <time>2020-02-22T16:15:08Z</time>
      </trkpt>
      <trkpt lat="38.6820830" lon="1.5014870">
        <ele>11.1</ele>
        <time>2020-02-22T16:15:09Z</time>
      </trkpt>
      <trkpt lat="38.6821470" lon="1.5013450">
        <ele>11.1</ele>
        <time>2020-02-22T16:15:10Z</time>
      </trkpt>
      <trkpt lat="38.6821470" lon="1.5013450">
        <ele>11.1</ele>
        <time>2020-02-22T16:15:11Z</time>
      </trkpt>
      <trkpt lat="38.6822080" lon="1.5012120">
        <ele>11.1</ele>
        <time>2020-02-22T16:15:12Z</time>
      </trkpt>
      <trkpt lat="38.6822080" lon="1.5012120">
        <ele>11.1</ele>
        <time>2020-02-22T16:15:13Z</time>
      </trkpt>
      <trkpt lat="38.6822680" lon="1.5010800">
        <ele>11.1</ele>
        <time>2020-02-22T16:15:14Z</time>
      </trkpt>
      <trkpt lat="38.6822680" lon="1.5010800">
        <ele>11.1</ele>
        <time>2020-02-22T16:15:15Z</time>
      </trkpt>
      <trkpt lat="38.6823280" lon="1.5009470">
        <ele>12.1</ele>
        <time>2020-02-22T16:15:16Z</time>
      </trkpt>
      <trkpt lat="38.6823600" lon="1.5008780">
        <ele>12.1</ele>
        <time>2020-02-22T16:15:17Z</time>
      </trkpt>
      <trkpt lat="38.6823900" lon="1.5008100">
        <ele>12.1</ele>
        <time>2020-02-22T16:15:18Z</time>
      </trkpt>
      <trkpt lat="38.6823900" lon="1.5008100">
        <ele>12.1</ele>
        <time>2020-02-22T16:15:19Z</time>
      </trkpt>
      <trkpt lat="38.6824520" lon="1.5006750">
        <ele>12.1</ele>
        <time>2020-02-22T16:15:20Z</time>
      </trkpt>
      <trkpt lat="38.6824520" lon="1.5006750">
        <ele>12.1</ele>
        <time>2020-02-22T16:15:21Z</time>
      </trkpt>
      <trkpt lat="38.6825130" lon="1.5005380">
        <ele>12.1</ele>
        <time>2020-02-22T16:15:22Z</time>
      </trkpt>
      <trkpt lat="38.6825130" lon="1.5005380">
        <ele>12.1</ele>
        <time>2020-02-22T16:15:23Z</time>
      </trkpt>
      <trkpt lat="38.6825800" lon="1.5004030">
        <ele>12.1</ele>
        <time>2020-02-22T16:15:24Z</time>
      </trkpt>
      <trkpt lat="38.6825800" lon="1.5004030">
        <ele>12.1</ele>
        <time>2020-02-22T16:15:25Z</time>
      </trkpt>
      <trkpt lat="38.6826430" lon="1.5002650">
        <ele>12.1</ele>
        <time>2020-02-22T16:15:26Z</time>
      </trkpt>
      <trkpt lat="38.6826430" lon="1.5002650">
        <ele>12.1</ele>
        <time>2020-02-22T16:15:27Z</time>
      </trkpt>
      <trkpt lat="38.6827070" lon="1.5001270">
        <ele>12.1</ele>
        <time>2020-02-22T16:15:28Z</time>
      </trkpt>
      <trkpt lat="38.6827070" lon="1.5001270">
        <ele>12.1</ele>
        <time>2020-02-22T16:15:29Z</time>
      </trkpt>
      <trkpt lat="38.6827680" lon="1.4999900">
        <ele>12.1</ele>
        <time>2020-02-22T16:15:30Z</time>
      </trkpt>
      <trkpt lat="38.6827680" lon="1.4999900">
        <ele>12.1</ele>
        <time>2020-02-22T16:15:31Z</time>
      </trkpt>
      <trkpt lat="38.6828300" lon="1.4998530">
        <ele>12.1</ele>
        <time>2020-02-22T16:15:32Z</time>
      </trkpt>
      <trkpt lat="38.6828300" lon="1.4998530">
        <ele>12.1</ele>
        <time>2020-02-22T16:15:33Z</time>
      </trkpt>
      <trkpt lat="38.6828900" lon="1.4997180">
        <ele>12.1</ele>
        <time>2020-02-22T16:15:34Z</time>
      </trkpt>
      <trkpt lat="38.6828900" lon="1.4997180">
        <ele>12.1</ele>
        <time>2020-02-22T16:15:35Z</time>
      </trkpt>
      <trkpt lat="38.6829500" lon="1.4995820">
        <ele>12.1</ele>
        <time>2020-02-22T16:15:36Z</time>
      </trkpt>
      <trkpt lat="38.6829500" lon="1.4995820">
        <ele>12.1</ele>
        <time>2020-02-22T16:15:37Z</time>
      </trkpt>
      <trkpt lat="38.6830130" lon="1.4994400">
        <ele>12.1</ele>
        <time>2020-02-22T16:15:38Z</time>
      </trkpt>
      <trkpt lat="38.6830130" lon="1.4994400">
        <ele>12.1</ele>
        <time>2020-02-22T16:15:39Z</time>
      </trkpt>
      <trkpt lat="38.6830780" lon="1.4993000">
        <ele>12.1</ele>
        <time>2020-02-22T16:15:40Z</time>
      </trkpt>
      <trkpt lat="38.6830780" lon="1.4993000">
        <ele>12.1</ele>
        <time>2020-02-22T16:15:41Z</time>
      </trkpt>
      <trkpt lat="38.6831400" lon="1.4991580">
        <ele>12.1</ele>
        <time>2020-02-22T16:15:42Z</time>
      </trkpt>
      <trkpt lat="38.6831400" lon="1.4991580">
        <ele>12.1</ele>
        <time>2020-02-22T16:15:43Z</time>
      </trkpt>
      <trkpt lat="38.6832030" lon="1.4990220">
        <ele>12.1</ele>
        <time>2020-02-22T16:15:44Z</time>
      </trkpt>
      <trkpt lat="38.6832030" lon="1.4990220">
        <ele>12.1</ele>
        <time>2020-02-22T16:15:45Z</time>
      </trkpt>
      <trkpt lat="38.6832630" lon="1.4988780">
        <ele>12.1</ele>
        <time>2020-02-22T16:15:46Z</time>
      </trkpt>
      <trkpt lat="38.6832630" lon="1.4988780">
        <ele>12.1</ele>
        <time>2020-02-22T16:15:47Z</time>
      </trkpt>
      <trkpt lat="38.6833300" lon="1.4987370">
        <ele>12.1</ele>
        <time>2020-02-22T16:15:48Z</time>
      </trkpt>
      <trkpt lat="38.6833300" lon="1.4987370">
        <ele>12.1</ele>
        <time>2020-02-22T16:15:49Z</time>
      </trkpt>
      <trkpt lat="38.6833930" lon="1.4985930">
        <ele>12.1</ele>
        <time>2020-02-22T16:15:50Z</time>
      </trkpt>
      <trkpt lat="38.6834250" lon="1.4985200">
        <ele>12.1</ele>
        <time>2020-02-22T16:15:51Z</time>
      </trkpt>
      <trkpt lat="38.6834250" lon="1.4985200">
        <ele>12.1</ele>
        <time>2020-02-22T16:15:52Z</time>
      </trkpt>
      <trkpt lat="38.6834900" lon="1.4983730">
        <ele>12.1</ele>
        <time>2020-02-22T16:15:53Z</time>
      </trkpt>
      <trkpt lat="38.6835230" lon="1.4982980">
        <ele>12.1</ele>
        <time>2020-02-22T16:15:54Z</time>
      </trkpt>
      <trkpt lat="38.6835230" lon="1.4982980">
        <ele>12.1</ele>
        <time>2020-02-22T16:15:55Z</time>
      </trkpt>
      <trkpt lat="38.6835870" lon="1.4981520">
        <ele>12.1</ele>
        <time>2020-02-22T16:15:56Z</time>
      </trkpt>
      <trkpt lat="38.6835870" lon="1.4981520">
        <ele>12.1</ele>
        <time>2020-02-22T16:15:57Z</time>
      </trkpt>
      <trkpt lat="38.6836550" lon="1.4980100">
        <ele>12.1</ele>
        <time>2020-02-22T16:15:58Z</time>
      </trkpt>
      <trkpt lat="38.6836550" lon="1.4980100">
        <ele>12.1</ele>
        <time>2020-02-22T16:15:59Z</time>
      </trkpt>
      <trkpt lat="38.6837230" lon="1.4978670">
        <ele>12.1</ele>
        <time>2020-02-22T16:16:00Z</time>
      </trkpt>
      <trkpt lat="38.6837230" lon="1.4978670">
        <ele>13.1</ele>
        <time>2020-02-22T16:16:01Z</time>
      </trkpt>
      <trkpt lat="38.6838000" lon="1.4977230">
        <ele>13.1</ele>
        <time>2020-02-22T16:16:02Z</time>
      </trkpt>
      <trkpt lat="38.6838000" lon="1.4977230">
        <ele>13.1</ele>
        <time>2020-02-22T16:16:03Z</time>
      </trkpt>
      <trkpt lat="38.6838820" lon="1.4975820">
        <ele>13.1</ele>
        <time>2020-02-22T16:16:04Z</time>
      </trkpt>
      <trkpt lat="38.6838820" lon="1.4975820">
        <ele>13.1</ele>
        <time>2020-02-22T16:16:05Z</time>
      </trkpt>
      <trkpt lat="38.6839580" lon="1.4974430">
        <ele>13.1</ele>
        <time>2020-02-22T16:16:06Z</time>
      </trkpt>
      <trkpt lat="38.6839580" lon="1.4974430">
        <ele>13.1</ele>
        <time>2020-02-22T16:16:07Z</time>
      </trkpt>
      <trkpt lat="38.6840350" lon="1.4973080">
        <ele>13.1</ele>
        <time>2020-02-22T16:16:08Z</time>
      </trkpt>
      <trkpt lat="38.6840350" lon="1.4973080">
        <ele>12.1</ele>
        <time>2020-02-22T16:16:09Z</time>
      </trkpt>
      <trkpt lat="38.6841150" lon="1.4971800">
        <ele>12.1</ele>
        <time>2020-02-22T16:16:10Z</time>
      </trkpt>
      <trkpt lat="38.6841150" lon="1.4971800">
        <ele>12.1</ele>
        <time>2020-02-22T16:16:11Z</time>
      </trkpt>
      <trkpt lat="38.6841970" lon="1.4970450">
        <ele>12.1</ele>
        <time>2020-02-22T16:16:12Z</time>
      </trkpt>
      <trkpt lat="38.6841970" lon="1.4970450">
        <ele>12.1</ele>
        <time>2020-02-22T16:16:13Z</time>
      </trkpt>
      <trkpt lat="38.6842780" lon="1.4969100">
        <ele>12.1</ele>
        <time>2020-02-22T16:16:14Z</time>
      </trkpt>
      <trkpt lat="38.6842780" lon="1.4969100">
        <ele>12.1</ele>
        <time>2020-02-22T16:16:15Z</time>
      </trkpt>
      <trkpt lat="38.6843630" lon="1.4967780">
        <ele>12.1</ele>
        <time>2020-02-22T16:16:16Z</time>
      </trkpt>
      <trkpt lat="38.6843630" lon="1.4967780">
        <ele>12.1</ele>
        <time>2020-02-22T16:16:17Z</time>
      </trkpt>
      <trkpt lat="38.6844470" lon="1.4966420">
        <ele>12.1</ele>
        <time>2020-02-22T16:16:18Z</time>
      </trkpt>
      <trkpt lat="38.6844470" lon="1.4966420">
        <ele>12.1</ele>
        <time>2020-02-22T16:16:19Z</time>
      </trkpt>
      <trkpt lat="38.6845320" lon="1.4965070">
        <ele>12.1</ele>
        <time>2020-02-22T16:16:20Z</time>
      </trkpt>
      <trkpt lat="38.6845750" lon="1.4964400">
        <ele>12.1</ele>
        <time>2020-02-22T16:16:21Z</time>
      </trkpt>
      <trkpt lat="38.6845750" lon="1.4964400">
        <ele>12.1</ele>
        <time>2020-02-22T16:16:22Z</time>
      </trkpt>
      <trkpt lat="38.6846620" lon="1.4963100">
        <ele>12.1</ele>
        <time>2020-02-22T16:16:23Z</time>
      </trkpt>
      <trkpt lat="38.6847030" lon="1.4962420">
        <ele>12.1</ele>
        <time>2020-02-22T16:16:24Z</time>
      </trkpt>
      <trkpt lat="38.6847030" lon="1.4962420">
        <ele>12.1</ele>
        <time>2020-02-22T16:16:25Z</time>
      </trkpt>
      <trkpt lat="38.6847850" lon="1.4961070">
        <ele>12.1</ele>
        <time>2020-02-22T16:16:26Z</time>
      </trkpt>
      <trkpt lat="38.6848270" lon="1.4960370">
        <ele>12.1</ele>
        <time>2020-02-22T16:16:27Z</time>
      </trkpt>
      <trkpt lat="38.6848270" lon="1.4960370">
        <ele>12.1</ele>
        <time>2020-02-22T16:16:28Z</time>
      </trkpt>
      <trkpt lat="38.6849080" lon="1.4958980">
        <ele>12.1</ele>
        <time>2020-02-22T16:16:29Z</time>
      </trkpt>
      <trkpt lat="38.6849520" lon="1.4958320">
        <ele>12.1</ele>
        <time>2020-02-22T16:16:30Z</time>
      </trkpt>
      <trkpt lat="38.6849520" lon="1.4958320">
        <ele>12.1</ele>
        <time>2020-02-22T16:16:31Z</time>
      </trkpt>
      <trkpt lat="38.6850370" lon="1.4956930">
        <ele>12.1</ele>
        <time>2020-02-22T16:16:32Z</time>
      </trkpt>
      <trkpt lat="38.6850370" lon="1.4956930">
        <ele>12.1</ele>
        <time>2020-02-22T16:16:33Z</time>
      </trkpt>
      <trkpt lat="38.6851230" lon="1.4955600">
        <ele>12.1</ele>
        <time>2020-02-22T16:16:34Z</time>
      </trkpt>
      <trkpt lat="38.6851230" lon="1.4955600">
        <ele>12.1</ele>
        <time>2020-02-22T16:16:35Z</time>
      </trkpt>
      <trkpt lat="38.6852070" lon="1.4954250">
        <ele>12.1</ele>
        <time>2020-02-22T16:16:36Z</time>
      </trkpt>
      <trkpt lat="38.6852070" lon="1.4954250">
        <ele>12.1</ele>
        <time>2020-02-22T16:16:37Z</time>
      </trkpt>
      <trkpt lat="38.6852920" lon="1.4952880">
        <ele>12.1</ele>
        <time>2020-02-22T16:16:38Z</time>
      </trkpt>
      <trkpt lat="38.6852920" lon="1.4952880">
        <ele>12.1</ele>
        <time>2020-02-22T16:16:39Z</time>
      </trkpt>
      <trkpt lat="38.6853720" lon="1.4951550">
        <ele>12.1</ele>
        <time>2020-02-22T16:16:40Z</time>
      </trkpt>
      <trkpt lat="38.6854100" lon="1.4950920">
        <ele>12.1</ele>
        <time>2020-02-22T16:16:41Z</time>
      </trkpt>
      <trkpt lat="38.6854500" lon="1.4950300">
        <ele>12.1</ele>
        <time>2020-02-22T16:16:42Z</time>
      </trkpt>
      <trkpt lat="38.6854500" lon="1.4950300">
        <ele>12.1</ele>
        <time>2020-02-22T16:16:43Z</time>
      </trkpt>
      <trkpt lat="38.6855300" lon="1.4949070">
        <ele>12.1</ele>
        <time>2020-02-22T16:16:44Z</time>
      </trkpt>
      <trkpt lat="38.6855300" lon="1.4949070">
        <ele>12.1</ele>
        <time>2020-02-22T16:16:45Z</time>
      </trkpt>
      <trkpt lat="38.6856130" lon="1.4947730">
        <ele>12.1</ele>
        <time>2020-02-22T16:16:46Z</time>
      </trkpt>
      <trkpt lat="38.6856130" lon="1.4947730">
        <ele>12.1</ele>
        <time>2020-02-22T16:16:47Z</time>
      </trkpt>
      <trkpt lat="38.6856980" lon="1.4946380">
        <ele>12.1</ele>
        <time>2020-02-22T16:16:48Z</time>
      </trkpt>
      <trkpt lat="38.6856980" lon="1.4946380">
        <ele>12.1</ele>
        <time>2020-02-22T16:16:49Z</time>
      </trkpt>
      <trkpt lat="38.6857820" lon="1.4945070">
        <ele>12.1</ele>
        <time>2020-02-22T16:16:50Z</time>
      </trkpt>
      <trkpt lat="38.6858220" lon="1.4944380">
        <ele>12.1</ele>
        <time>2020-02-22T16:16:51Z</time>
      </trkpt>
      <trkpt lat="38.6858220" lon="1.4944380">
        <ele>12.1</ele>
        <time>2020-02-22T16:16:52Z</time>
      </trkpt>
      <trkpt lat="38.6859030" lon="1.4943030">
        <ele>12.1</ele>
        <time>2020-02-22T16:16:53Z</time>
      </trkpt>
      <trkpt lat="38.6859450" lon="1.4942370">
        <ele>12.1</ele>
        <time>2020-02-22T16:16:54Z</time>
      </trkpt>
      <trkpt lat="38.6859450" lon="1.4942370">
        <ele>12.1</ele>
        <time>2020-02-22T16:16:55Z</time>
      </trkpt>
      <trkpt lat="38.6860270" lon="1.4941070">
        <ele>12.1</ele>
        <time>2020-02-22T16:16:56Z</time>
      </trkpt>
      <trkpt lat="38.6860270" lon="1.4941070">
        <ele>12.1</ele>
        <time>2020-02-22T16:16:57Z</time>
      </trkpt>
      <trkpt lat="38.6861050" lon="1.4939720">
        <ele>12.1</ele>
        <time>2020-02-22T16:16:58Z</time>
      </trkpt>
      <trkpt lat="38.6861050" lon="1.4939720">
        <ele>12.1</ele>
        <time>2020-02-22T16:16:59Z</time>
      </trkpt>
      <trkpt lat="38.6861870" lon="1.4938330">
        <ele>12.1</ele>
        <time>2020-02-22T16:17:00Z</time>
      </trkpt>
      <trkpt lat="38.6861870" lon="1.4938330">
        <ele>12.1</ele>
        <time>2020-02-22T16:17:01Z</time>
      </trkpt>
      <trkpt lat="38.6862670" lon="1.4936970">
        <ele>12.1</ele>
        <time>2020-02-22T16:17:02Z</time>
      </trkpt>
      <trkpt lat="38.6862670" lon="1.4936970">
        <ele>12.1</ele>
        <time>2020-02-22T16:17:03Z</time>
      </trkpt>
      <trkpt lat="38.6863520" lon="1.4935620">
        <ele>12.1</ele>
        <time>2020-02-22T16:17:04Z</time>
      </trkpt>
      <trkpt lat="38.6863950" lon="1.4934930">
        <ele>12.1</ele>
        <time>2020-02-22T16:17:05Z</time>
      </trkpt>
      <trkpt lat="38.6864380" lon="1.4934270">
        <ele>12.1</ele>
        <time>2020-02-22T16:17:06Z</time>
      </trkpt>
      <trkpt lat="38.6864380" lon="1.4934270">
        <ele>12.1</ele>
        <time>2020-02-22T16:17:07Z</time>
      </trkpt>
      <trkpt lat="38.6865250" lon="1.4932900">
        <ele>12.1</ele>
        <time>2020-02-22T16:17:08Z</time>
      </trkpt>
      <trkpt lat="38.6865250" lon="1.4932900">
        <ele>12.1</ele>
        <time>2020-02-22T16:17:09Z</time>
      </trkpt>
      <trkpt lat="38.6866080" lon="1.4931580">
        <ele>12.1</ele>
        <time>2020-02-22T16:17:10Z</time>
      </trkpt>
      <trkpt lat="38.6866500" lon="1.4930930">
        <ele>12.1</ele>
        <time>2020-02-22T16:17:11Z</time>
      </trkpt>
      <trkpt lat="38.6866880" lon="1.4930270">
        <ele>12.1</ele>
        <time>2020-02-22T16:17:12Z</time>
      </trkpt>
      <trkpt lat="38.6866880" lon="1.4930270">
        <ele>12.1</ele>
        <time>2020-02-22T16:17:13Z</time>
      </trkpt>
      <trkpt lat="38.6867720" lon="1.4928970">
        <ele>12.1</ele>
        <time>2020-02-22T16:17:14Z</time>
      </trkpt>
      <trkpt lat="38.6867720" lon="1.4928970">
        <ele>12.1</ele>
        <time>2020-02-22T16:17:15Z</time>
      </trkpt>
      <trkpt lat="38.6868570" lon="1.4927600">
        <ele>12.1</ele>
        <time>2020-02-22T16:17:16Z</time>
      </trkpt>
      <trkpt lat="38.6868570" lon="1.4927600">
        <ele>12.1</ele>
        <time>2020-02-22T16:17:17Z</time>
      </trkpt>
      <trkpt lat="38.6869400" lon="1.4926300">
        <ele>12.1</ele>
        <time>2020-02-22T16:17:18Z</time>
      </trkpt>
      <trkpt lat="38.6869400" lon="1.4926300">
        <ele>12.1</ele>
        <time>2020-02-22T16:17:19Z</time>
      </trkpt>
      <trkpt lat="38.6870230" lon="1.4925020">
        <ele>12.1</ele>
        <time>2020-02-22T16:17:20Z</time>
      </trkpt>
      <trkpt lat="38.6870670" lon="1.4924350">
        <ele>12.1</ele>
        <time>2020-02-22T16:17:21Z</time>
      </trkpt>
      <trkpt lat="38.6870670" lon="1.4924350">
        <ele>12.1</ele>
        <time>2020-02-22T16:17:22Z</time>
      </trkpt>
      <trkpt lat="38.6871530" lon="1.4922970">
        <ele>12.1</ele>
        <time>2020-02-22T16:17:23Z</time>
      </trkpt>
      <trkpt lat="38.6871980" lon="1.4922250">
        <ele>12.1</ele>
        <time>2020-02-22T16:17:24Z</time>
      </trkpt>
      <trkpt lat="38.6871980" lon="1.4922250">
        <ele>12.1</ele>
        <time>2020-02-22T16:17:25Z</time>
      </trkpt>
      <trkpt lat="38.6872850" lon="1.4920830">
        <ele>12.1</ele>
        <time>2020-02-22T16:17:26Z</time>
      </trkpt>
      <trkpt lat="38.6872850" lon="1.4920830">
        <ele>12.1</ele>
        <time>2020-02-22T16:17:27Z</time>
      </trkpt>
      <trkpt lat="38.6873720" lon="1.4919350">
        <ele>12.1</ele>
        <time>2020-02-22T16:17:28Z</time>
      </trkpt>
      <trkpt lat="38.6873720" lon="1.4919350">
        <ele>12.1</ele>
        <time>2020-02-22T16:17:29Z</time>
      </trkpt>
      <trkpt lat="38.6874600" lon="1.4917900">
        <ele>12.1</ele>
        <time>2020-02-22T16:17:30Z</time>
      </trkpt>
      <trkpt lat="38.6875020" lon="1.4917170">
        <ele>12.1</ele>
        <time>2020-02-22T16:17:31Z</time>
      </trkpt>
      <trkpt lat="38.6875430" lon="1.4916430">
        <ele>12.1</ele>
        <time>2020-02-22T16:17:32Z</time>
      </trkpt>
      <trkpt lat="38.6875430" lon="1.4916430">
        <ele>12.1</ele>
        <time>2020-02-22T16:17:33Z</time>
      </trkpt>
      <trkpt lat="38.6876300" lon="1.4915020">
        <ele>12.1</ele>
        <time>2020-02-22T16:17:34Z</time>
      </trkpt>
      <trkpt lat="38.6876750" lon="1.4914300">
        <ele>12.1</ele>
        <time>2020-02-22T16:17:35Z</time>
      </trkpt>
      <trkpt lat="38.6876750" lon="1.4914300">
        <ele>12.1</ele>
        <time>2020-02-22T16:17:36Z</time>
      </trkpt>
      <trkpt lat="38.6877620" lon="1.4912900">
        <ele>12.1</ele>
        <time>2020-02-22T16:17:37Z</time>
      </trkpt>
      <trkpt lat="38.6877620" lon="1.4912900">
        <ele>12.1</ele>
        <time>2020-02-22T16:17:38Z</time>
      </trkpt>
      <trkpt lat="38.6878470" lon="1.4911520">
        <ele>12.1</ele>
        <time>2020-02-22T16:17:39Z</time>
      </trkpt>
      <trkpt lat="38.6878470" lon="1.4911520">
        <ele>12.1</ele>
        <time>2020-02-22T16:17:40Z</time>
      </trkpt>
      <trkpt lat="38.6879320" lon="1.4910150">
        <ele>12.1</ele>
        <time>2020-02-22T16:17:41Z</time>
      </trkpt>
      <trkpt lat="38.6879750" lon="1.4909450">
        <ele>12.1</ele>
        <time>2020-02-22T16:17:42Z</time>
      </trkpt>
      <trkpt lat="38.6879750" lon="1.4909450">
        <ele>12.1</ele>
        <time>2020-02-22T16:17:43Z</time>
      </trkpt>
      <trkpt lat="38.6880620" lon="1.4908030">
        <ele>12.1</ele>
        <time>2020-02-22T16:17:44Z</time>
      </trkpt>
      <trkpt lat="38.6880620" lon="1.4908030">
        <ele>12.1</ele>
        <time>2020-02-22T16:17:45Z</time>
      </trkpt>
      <trkpt lat="38.6881480" lon="1.4906650">
        <ele>12.1</ele>
        <time>2020-02-22T16:17:46Z</time>
      </trkpt>
      <trkpt lat="38.6881480" lon="1.4906650">
        <ele>12.1</ele>
        <time>2020-02-22T16:17:47Z</time>
      </trkpt>
      <trkpt lat="38.6882330" lon="1.4905280">
        <ele>12.1</ele>
        <time>2020-02-22T16:17:48Z</time>
      </trkpt>
      <trkpt lat="38.6882330" lon="1.4905280">
        <ele>12.1</ele>
        <time>2020-02-22T16:17:49Z</time>
      </trkpt>
      <trkpt lat="38.6883220" lon="1.4903880">
        <ele>12.1</ele>
        <time>2020-02-22T16:17:50Z</time>
      </trkpt>
      <trkpt lat="38.6883680" lon="1.4903180">
        <ele>12.1</ele>
        <time>2020-02-22T16:17:51Z</time>
      </trkpt>
      <trkpt lat="38.6884130" lon="1.4902470">
        <ele>12.1</ele>
        <time>2020-02-22T16:17:52Z</time>
      </trkpt>
      <trkpt lat="38.6884550" lon="1.4901730">
        <ele>12.1</ele>
        <time>2020-02-22T16:17:53Z</time>
      </trkpt>
      <trkpt lat="38.6885000" lon="1.4901000">
        <ele>12.1</ele>
        <time>2020-02-22T16:17:54Z</time>
      </trkpt>
      <trkpt lat="38.6885000" lon="1.4901000">
        <ele>12.1</ele>
        <time>2020-02-22T16:17:55Z</time>
      </trkpt>
      <trkpt lat="38.6885920" lon="1.4899550">
        <ele>12.1</ele>
        <time>2020-02-22T16:17:56Z</time>
      </trkpt>
      <trkpt lat="38.6885920" lon="1.4899550">
        <ele>12.1</ele>
        <time>2020-02-22T16:17:57Z</time>
      </trkpt>
      <trkpt lat="38.6886780" lon="1.4898130">
        <ele>12.1</ele>
        <time>2020-02-22T16:17:58Z</time>
      </trkpt>
      <trkpt lat="38.6887200" lon="1.4897430">
        <ele>12.1</ele>
        <time>2020-02-22T16:17:59Z</time>
      </trkpt>
      <trkpt lat="38.6887200" lon="1.4897430">
        <ele>12.1</ele>
        <time>2020-02-22T16:18:00Z</time>
      </trkpt>
      <trkpt lat="38.6888020" lon="1.4896080">
        <ele>12.1</ele>
        <time>2020-02-22T16:18:01Z</time>
      </trkpt>
      <trkpt lat="38.6888430" lon="1.4895420">
        <ele>12.1</ele>
        <time>2020-02-22T16:18:02Z</time>
      </trkpt>
      <trkpt lat="38.6888430" lon="1.4895420">
        <ele>11.1</ele>
        <time>2020-02-22T16:18:03Z</time>
      </trkpt>
      <trkpt lat="38.6889250" lon="1.4894080">
        <ele>11.1</ele>
        <time>2020-02-22T16:18:04Z</time>
      </trkpt>
      <trkpt lat="38.6889250" lon="1.4894080">
        <ele>11.1</ele>
        <time>2020-02-22T16:18:05Z</time>
      </trkpt>
      <trkpt lat="38.6890100" lon="1.4892720">
        <ele>11.1</ele>
        <time>2020-02-22T16:18:06Z</time>
      </trkpt>
      <trkpt lat="38.6890100" lon="1.4892720">
        <ele>11.1</ele>
        <time>2020-02-22T16:18:07Z</time>
      </trkpt>
      <trkpt lat="38.6890970" lon="1.4891280">
        <ele>11.1</ele>
        <time>2020-02-22T16:18:08Z</time>
      </trkpt>
      <trkpt lat="38.6890970" lon="1.4891280">
        <ele>11.1</ele>
        <time>2020-02-22T16:18:09Z</time>
      </trkpt>
      <trkpt lat="38.6891870" lon="1.4889870">
        <ele>11.1</ele>
        <time>2020-02-22T16:18:10Z</time>
      </trkpt>
      <trkpt lat="38.6892320" lon="1.4889150">
        <ele>11.1</ele>
        <time>2020-02-22T16:18:11Z</time>
      </trkpt>
      <trkpt lat="38.6892750" lon="1.4888400">
        <ele>11.1</ele>
        <time>2020-02-22T16:18:12Z</time>
      </trkpt>
      <trkpt lat="38.6892750" lon="1.4888400">
        <ele>11.1</ele>
        <time>2020-02-22T16:18:13Z</time>
      </trkpt>
      <trkpt lat="38.6893650" lon="1.4886950">
        <ele>11.1</ele>
        <time>2020-02-22T16:18:14Z</time>
      </trkpt>
      <trkpt lat="38.6893650" lon="1.4886950">
        <ele>11.1</ele>
        <time>2020-02-22T16:18:15Z</time>
      </trkpt>
      <trkpt lat="38.6894570" lon="1.4885470">
        <ele>11.1</ele>
        <time>2020-02-22T16:18:16Z</time>
      </trkpt>
      <trkpt lat="38.6894570" lon="1.4885470">
        <ele>11.1</ele>
        <time>2020-02-22T16:18:17Z</time>
      </trkpt>
      <trkpt lat="38.6895480" lon="1.4883980">
        <ele>11.1</ele>
        <time>2020-02-22T16:18:18Z</time>
      </trkpt>
      <trkpt lat="38.6895480" lon="1.4883980">
        <ele>11.1</ele>
        <time>2020-02-22T16:18:19Z</time>
      </trkpt>
      <trkpt lat="38.6896380" lon="1.4882520">
        <ele>11.1</ele>
        <time>2020-02-22T16:18:20Z</time>
      </trkpt>
      <trkpt lat="38.6896820" lon="1.4881820">
        <ele>11.1</ele>
        <time>2020-02-22T16:18:21Z</time>
      </trkpt>
      <trkpt lat="38.6896820" lon="1.4881820">
        <ele>11.1</ele>
        <time>2020-02-22T16:18:22Z</time>
      </trkpt>
      <trkpt lat="38.6897680" lon="1.4880420">
        <ele>11.1</ele>
        <time>2020-02-22T16:18:23Z</time>
      </trkpt>
      <trkpt lat="38.6898120" lon="1.4879720">
        <ele>11.1</ele>
        <time>2020-02-22T16:18:24Z</time>
      </trkpt>
      <trkpt lat="38.6898120" lon="1.4879720">
        <ele>11.1</ele>
        <time>2020-02-22T16:18:25Z</time>
      </trkpt>
      <trkpt lat="38.6898970" lon="1.4878320">
        <ele>11.1</ele>
        <time>2020-02-22T16:18:26Z</time>
      </trkpt>
      <trkpt lat="38.6899400" lon="1.4877600">
        <ele>11.1</ele>
        <time>2020-02-22T16:18:27Z</time>
      </trkpt>
      <trkpt lat="38.6899400" lon="1.4877600">
        <ele>11.1</ele>
        <time>2020-02-22T16:18:28Z</time>
      </trkpt>
      <trkpt lat="38.6900250" lon="1.4876180">
        <ele>11.1</ele>
        <time>2020-02-22T16:18:29Z</time>
      </trkpt>
      <trkpt lat="38.6900650" lon="1.4875470">
        <ele>11.1</ele>
        <time>2020-02-22T16:18:30Z</time>
      </trkpt>
      <trkpt lat="38.6900650" lon="1.4875470">
        <ele>11.1</ele>
        <time>2020-02-22T16:18:31Z</time>
      </trkpt>
      <trkpt lat="38.6901470" lon="1.4874030">
        <ele>11.1</ele>
        <time>2020-02-22T16:18:32Z</time>
      </trkpt>
      <trkpt lat="38.6901470" lon="1.4874030">
        <ele>11.1</ele>
        <time>2020-02-22T16:18:33Z</time>
      </trkpt>
      <trkpt lat="38.6902230" lon="1.4872580">
        <ele>11.1</ele>
        <time>2020-02-22T16:18:34Z</time>
      </trkpt>
      <trkpt lat="38.6902230" lon="1.4872580">
        <ele>11.1</ele>
        <time>2020-02-22T16:18:35Z</time>
      </trkpt>
      <trkpt lat="38.6902950" lon="1.4871070">
        <ele>11.1</ele>
        <time>2020-02-22T16:18:36Z</time>
      </trkpt>
      <trkpt lat="38.6902950" lon="1.4871070">
        <ele>11.1</ele>
        <time>2020-02-22T16:18:37Z</time>
      </trkpt>
      <trkpt lat="38.6903630" lon="1.4869520">
        <ele>11.1</ele>
        <time>2020-02-22T16:18:38Z</time>
      </trkpt>
      <trkpt lat="38.6903630" lon="1.4869520">
        <ele>11.1</ele>
        <time>2020-02-22T16:18:39Z</time>
      </trkpt>
      <trkpt lat="38.6904300" lon="1.4867950">
        <ele>11.1</ele>
        <time>2020-02-22T16:18:40Z</time>
      </trkpt>
      <trkpt lat="38.6904300" lon="1.4867950">
        <ele>11.1</ele>
        <time>2020-02-22T16:18:41Z</time>
      </trkpt>
      <trkpt lat="38.6904980" lon="1.4866400">
        <ele>11.1</ele>
        <time>2020-02-22T16:18:42Z</time>
      </trkpt>
      <trkpt lat="38.6904980" lon="1.4866400">
        <ele>11.1</ele>
        <time>2020-02-22T16:18:43Z</time>
      </trkpt>
      <trkpt lat="38.6905670" lon="1.4864800">
        <ele>10.1</ele>
        <time>2020-02-22T16:18:44Z</time>
      </trkpt>
      <trkpt lat="38.6905670" lon="1.4864800">
        <ele>10.1</ele>
        <time>2020-02-22T16:18:45Z</time>
      </trkpt>
      <trkpt lat="38.6906350" lon="1.4863200">
        <ele>10.1</ele>
        <time>2020-02-22T16:18:46Z</time>
      </trkpt>
      <trkpt lat="38.6906680" lon="1.4862400">
        <ele>10.1</ele>
        <time>2020-02-22T16:18:47Z</time>
      </trkpt>
      <trkpt lat="38.6906680" lon="1.4862400">
        <ele>10.1</ele>
        <time>2020-02-22T16:18:48Z</time>
      </trkpt>
      <trkpt lat="38.6907400" lon="1.4860800">
        <ele>10.1</ele>
        <time>2020-02-22T16:18:49Z</time>
      </trkpt>
      <trkpt lat="38.6907750" lon="1.4860020">
        <ele>10.1</ele>
        <time>2020-02-22T16:18:50Z</time>
      </trkpt>
      <trkpt lat="38.6907750" lon="1.4860020">
        <ele>10.1</ele>
        <time>2020-02-22T16:18:51Z</time>
      </trkpt>
      <trkpt lat="38.6908430" lon="1.4858400">
        <ele>10.1</ele>
        <time>2020-02-22T16:18:52Z</time>
      </trkpt>
      <trkpt lat="38.6908430" lon="1.4858400">
        <ele>10.1</ele>
        <time>2020-02-22T16:18:53Z</time>
      </trkpt>
      <trkpt lat="38.6909130" lon="1.4856780">
        <ele>10.1</ele>
        <time>2020-02-22T16:18:54Z</time>
      </trkpt>
      <trkpt lat="38.6909130" lon="1.4856780">
        <ele>10.1</ele>
        <time>2020-02-22T16:18:55Z</time>
      </trkpt>
      <trkpt lat="38.6909830" lon="1.4855200">
        <ele>10.1</ele>
        <time>2020-02-22T16:18:56Z</time>
      </trkpt>
      <trkpt lat="38.6910200" lon="1.4854400">
        <ele>10.1</ele>
        <time>2020-02-22T16:18:57Z</time>
      </trkpt>
      <trkpt lat="38.6910200" lon="1.4854400">
        <ele>10.1</ele>
        <time>2020-02-22T16:18:58Z</time>
      </trkpt>
      <trkpt lat="38.6910200" lon="1.4854400">
        <ele>10.1</ele>
        <time>2020-02-22T16:18:59Z</time>
      </trkpt>
      <trkpt lat="38.6911270" lon="1.4852020">
        <ele>10.1</ele>
        <time>2020-02-22T16:19:00Z</time>
      </trkpt>
      <trkpt lat="38.6911270" lon="1.4852020">
        <ele>10.1</ele>
        <time>2020-02-22T16:19:01Z</time>
      </trkpt>
      <trkpt lat="38.6911970" lon="1.4850470">
        <ele>10.1</ele>
        <time>2020-02-22T16:19:02Z</time>
      </trkpt>
      <trkpt lat="38.6911970" lon="1.4850470">
        <ele>10.1</ele>
        <time>2020-02-22T16:19:03Z</time>
      </trkpt>
      <trkpt lat="38.6912630" lon="1.4848920">
        <ele>10.1</ele>
        <time>2020-02-22T16:19:04Z</time>
      </trkpt>
      <trkpt lat="38.6912970" lon="1.4848150">
        <ele>10.1</ele>
        <time>2020-02-22T16:19:05Z</time>
      </trkpt>
      <trkpt lat="38.6913300" lon="1.4847380">
        <ele>10.1</ele>
        <time>2020-02-22T16:19:06Z</time>
      </trkpt>
      <trkpt lat="38.6913300" lon="1.4847380">
        <ele>10.1</ele>
        <time>2020-02-22T16:19:07Z</time>
      </trkpt>
      <trkpt lat="38.6913950" lon="1.4845870">
        <ele>10.1</ele>
        <time>2020-02-22T16:19:08Z</time>
      </trkpt>
      <trkpt lat="38.6913950" lon="1.4845870">
        <ele>10.1</ele>
        <time>2020-02-22T16:19:09Z</time>
      </trkpt>
      <trkpt lat="38.6914570" lon="1.4844330">
        <ele>10.1</ele>
        <time>2020-02-22T16:19:10Z</time>
      </trkpt>
      <trkpt lat="38.6914570" lon="1.4844330">
        <ele>10.1</ele>
        <time>2020-02-22T16:19:11Z</time>
      </trkpt>
      <trkpt lat="38.6915230" lon="1.4842830">
        <ele>10.1</ele>
        <time>2020-02-22T16:19:12Z</time>
      </trkpt>
      <trkpt lat="38.6915230" lon="1.4842830">
        <ele>10.1</ele>
        <time>2020-02-22T16:19:13Z</time>
      </trkpt>
      <trkpt lat="38.6915880" lon="1.4841350">
        <ele>10.1</ele>
        <time>2020-02-22T16:19:14Z</time>
      </trkpt>
      <trkpt lat="38.6915880" lon="1.4841350">
        <ele>10.1</ele>
        <time>2020-02-22T16:19:15Z</time>
      </trkpt>
      <trkpt lat="38.6916530" lon="1.4839870">
        <ele>10.1</ele>
        <time>2020-02-22T16:19:16Z</time>
      </trkpt>
      <trkpt lat="38.6916530" lon="1.4839870">
        <ele>10.1</ele>
        <time>2020-02-22T16:19:17Z</time>
      </trkpt>
      <trkpt lat="38.6917150" lon="1.4838380">
        <ele>10.1</ele>
        <time>2020-02-22T16:19:18Z</time>
      </trkpt>
      <trkpt lat="38.6917150" lon="1.4838380">
        <ele>10.1</ele>
        <time>2020-02-22T16:19:19Z</time>
      </trkpt>
      <trkpt lat="38.6917830" lon="1.4836920">
        <ele>10.1</ele>
        <time>2020-02-22T16:19:20Z</time>
      </trkpt>
      <trkpt lat="38.6917830" lon="1.4836920">
        <ele>10.1</ele>
        <time>2020-02-22T16:19:21Z</time>
      </trkpt>
      <trkpt lat="38.6918500" lon="1.4835420">
        <ele>11.1</ele>
        <time>2020-02-22T16:19:22Z</time>
      </trkpt>
      <trkpt lat="38.6918500" lon="1.4835420">
        <ele>11.1</ele>
        <time>2020-02-22T16:19:23Z</time>
      </trkpt>
      <trkpt lat="38.6919150" lon="1.4833920">
        <ele>11.1</ele>
        <time>2020-02-22T16:19:24Z</time>
      </trkpt>
      <trkpt lat="38.6919150" lon="1.4833920">
        <ele>11.1</ele>
        <time>2020-02-22T16:19:25Z</time>
      </trkpt>
      <trkpt lat="38.6919800" lon="1.4832420">
        <ele>11.1</ele>
        <time>2020-02-22T16:19:26Z</time>
      </trkpt>
      <trkpt lat="38.6919800" lon="1.4832420">
        <ele>11.1</ele>
        <time>2020-02-22T16:19:27Z</time>
      </trkpt>
      <trkpt lat="38.6920470" lon="1.4830920">
        <ele>11.1</ele>
        <time>2020-02-22T16:19:28Z</time>
      </trkpt>
      <trkpt lat="38.6920820" lon="1.4830170">
        <ele>11.1</ele>
        <time>2020-02-22T16:19:29Z</time>
      </trkpt>
      <trkpt lat="38.6921150" lon="1.4829420">
        <ele>11.1</ele>
        <time>2020-02-22T16:19:30Z</time>
      </trkpt>
      <trkpt lat="38.6921150" lon="1.4829420">
        <ele>11.1</ele>
        <time>2020-02-22T16:19:31Z</time>
      </trkpt>
      <trkpt lat="38.6921830" lon="1.4827900">
        <ele>11.1</ele>
        <time>2020-02-22T16:19:32Z</time>
      </trkpt>
      <trkpt lat="38.6921830" lon="1.4827900">
        <ele>11.1</ele>
        <time>2020-02-22T16:19:33Z</time>
      </trkpt>
      <trkpt lat="38.6922500" lon="1.4826370">
        <ele>11.1</ele>
        <time>2020-02-22T16:19:34Z</time>
      </trkpt>
      <trkpt lat="38.6922830" lon="1.4825600">
        <ele>11.1</ele>
        <time>2020-02-22T16:19:35Z</time>
      </trkpt>
      <trkpt lat="38.6923180" lon="1.4824850">
        <ele>11.1</ele>
        <time>2020-02-22T16:19:36Z</time>
      </trkpt>
      <trkpt lat="38.6923180" lon="1.4824850">
        <ele>11.1</ele>
        <time>2020-02-22T16:19:37Z</time>
      </trkpt>
      <trkpt lat="38.6923850" lon="1.4823350">
        <ele>11.1</ele>
        <time>2020-02-22T16:19:38Z</time>
      </trkpt>
      <trkpt lat="38.6923850" lon="1.4823350">
        <ele>11.1</ele>
        <time>2020-02-22T16:19:39Z</time>
      </trkpt>
      <trkpt lat="38.6924520" lon="1.4821830">
        <ele>11.1</ele>
        <time>2020-02-22T16:19:40Z</time>
      </trkpt>
      <trkpt lat="38.6924520" lon="1.4821830">
        <ele>11.1</ele>
        <time>2020-02-22T16:19:41Z</time>
      </trkpt>
      <trkpt lat="38.6925180" lon="1.4820280">
        <ele>12.1</ele>
        <time>2020-02-22T16:19:42Z</time>
      </trkpt>
      <trkpt lat="38.6925180" lon="1.4820280">
        <ele>12.1</ele>
        <time>2020-02-22T16:19:43Z</time>
      </trkpt>
      <trkpt lat="38.6925870" lon="1.4818750">
        <ele>12.1</ele>
        <time>2020-02-22T16:19:44Z</time>
      </trkpt>
      <trkpt lat="38.6925870" lon="1.4818750">
        <ele>12.1</ele>
        <time>2020-02-22T16:19:45Z</time>
      </trkpt>
      <trkpt lat="38.6926530" lon="1.4817230">
        <ele>12.1</ele>
        <time>2020-02-22T16:19:46Z</time>
      </trkpt>
      <trkpt lat="38.6926530" lon="1.4817230">
        <ele>12.1</ele>
        <time>2020-02-22T16:19:47Z</time>
      </trkpt>
      <trkpt lat="38.6927170" lon="1.4815750">
        <ele>12.1</ele>
        <time>2020-02-22T16:19:48Z</time>
      </trkpt>
      <trkpt lat="38.6927170" lon="1.4815750">
        <ele>12.1</ele>
        <time>2020-02-22T16:19:49Z</time>
      </trkpt>
      <trkpt lat="38.6927850" lon="1.4814270">
        <ele>12.1</ele>
        <time>2020-02-22T16:19:50Z</time>
      </trkpt>
      <trkpt lat="38.6927850" lon="1.4814270">
        <ele>12.1</ele>
        <time>2020-02-22T16:19:51Z</time>
      </trkpt>
      <trkpt lat="38.6927850" lon="1.4814270">
        <ele>12.1</ele>
        <time>2020-02-22T16:19:52Z</time>
      </trkpt>
      <trkpt lat="38.6928830" lon="1.4812030">
        <ele>12.1</ele>
        <time>2020-02-22T16:19:53Z</time>
      </trkpt>
      <trkpt lat="38.6928830" lon="1.4812030">
        <ele>12.1</ele>
        <time>2020-02-22T16:19:54Z</time>
      </trkpt>
      <trkpt lat="38.6929480" lon="1.4810580">
        <ele>12.1</ele>
        <time>2020-02-22T16:19:55Z</time>
      </trkpt>
      <trkpt lat="38.6929820" lon="1.4809850">
        <ele>12.1</ele>
        <time>2020-02-22T16:19:56Z</time>
      </trkpt>
      <trkpt lat="38.6929820" lon="1.4809850">
        <ele>12.1</ele>
        <time>2020-02-22T16:19:57Z</time>
      </trkpt>
      <trkpt lat="38.6930470" lon="1.4808350">
        <ele>12.1</ele>
        <time>2020-02-22T16:19:58Z</time>
      </trkpt>
      <trkpt lat="38.6930470" lon="1.4808350">
        <ele>12.1</ele>
        <time>2020-02-22T16:19:59Z</time>
      </trkpt>
      <trkpt lat="38.6931130" lon="1.4806850">
        <ele>12.1</ele>
        <time>2020-02-22T16:20:00Z</time>
      </trkpt>
      <trkpt lat="38.6931130" lon="1.4806850">
        <ele>12.1</ele>
        <time>2020-02-22T16:20:01Z</time>
      </trkpt>
      <trkpt lat="38.6931780" lon="1.4805330">
        <ele>12.1</ele>
        <time>2020-02-22T16:20:02Z</time>
      </trkpt>
      <trkpt lat="38.6931780" lon="1.4805330">
        <ele>12.1</ele>
        <time>2020-02-22T16:20:03Z</time>
      </trkpt>
      <trkpt lat="38.6932450" lon="1.4803830">
        <ele>12.1</ele>
        <time>2020-02-22T16:20:04Z</time>
      </trkpt>
      <trkpt lat="38.6932770" lon="1.4803100">
        <ele>12.1</ele>
        <time>2020-02-22T16:20:05Z</time>
      </trkpt>
      <trkpt lat="38.6932770" lon="1.4803100">
        <ele>12.1</ele>
        <time>2020-02-22T16:20:06Z</time>
      </trkpt>
      <trkpt lat="38.6933430" lon="1.4801620">
        <ele>12.1</ele>
        <time>2020-02-22T16:20:07Z</time>
      </trkpt>
      <trkpt lat="38.6933770" lon="1.4800880">
        <ele>12.1</ele>
        <time>2020-02-22T16:20:08Z</time>
      </trkpt>
      <trkpt lat="38.6933770" lon="1.4800880">
        <ele>12.1</ele>
        <time>2020-02-22T16:20:09Z</time>
      </trkpt>
      <trkpt lat="38.6934400" lon="1.4799430">
        <ele>12.1</ele>
        <time>2020-02-22T16:20:10Z</time>
      </trkpt>
      <trkpt lat="38.6934400" lon="1.4799430">
        <ele>12.1</ele>
        <time>2020-02-22T16:20:11Z</time>
      </trkpt>
      <trkpt lat="38.6935030" lon="1.4798000">
        <ele>12.1</ele>
        <time>2020-02-22T16:20:12Z</time>
      </trkpt>
      <trkpt lat="38.6935030" lon="1.4798000">
        <ele>12.1</ele>
        <time>2020-02-22T16:20:13Z</time>
      </trkpt>
      <trkpt lat="38.6935650" lon="1.4796570">
        <ele>12.1</ele>
        <time>2020-02-22T16:20:14Z</time>
      </trkpt>
      <trkpt lat="38.6935650" lon="1.4796570">
        <ele>12.1</ele>
        <time>2020-02-22T16:20:15Z</time>
      </trkpt>
      <trkpt lat="38.6936300" lon="1.4795130">
        <ele>12.1</ele>
        <time>2020-02-22T16:20:16Z</time>
      </trkpt>
      <trkpt lat="38.6936300" lon="1.4795130">
        <ele>12.1</ele>
        <time>2020-02-22T16:20:17Z</time>
      </trkpt>
      <trkpt lat="38.6936920" lon="1.4793700">
        <ele>12.1</ele>
        <time>2020-02-22T16:20:18Z</time>
      </trkpt>
      <trkpt lat="38.6936920" lon="1.4793700">
        <ele>12.1</ele>
        <time>2020-02-22T16:20:19Z</time>
      </trkpt>
      <trkpt lat="38.6937530" lon="1.4792330">
        <ele>13.1</ele>
        <time>2020-02-22T16:20:20Z</time>
      </trkpt>
      <trkpt lat="38.6937530" lon="1.4792330">
        <ele>13.1</ele>
        <time>2020-02-22T16:20:21Z</time>
      </trkpt>
      <trkpt lat="38.6938130" lon="1.4790930">
        <ele>13.1</ele>
        <time>2020-02-22T16:20:22Z</time>
      </trkpt>
      <trkpt lat="38.6938130" lon="1.4790930">
        <ele>13.1</ele>
        <time>2020-02-22T16:20:23Z</time>
      </trkpt>
      <trkpt lat="38.6938750" lon="1.4789530">
        <ele>13.1</ele>
        <time>2020-02-22T16:20:24Z</time>
      </trkpt>
      <trkpt lat="38.6938750" lon="1.4789530">
        <ele>14.1</ele>
        <time>2020-02-22T16:20:25Z</time>
      </trkpt>
      <trkpt lat="38.6939330" lon="1.4788180">
        <ele>14.1</ele>
        <time>2020-02-22T16:20:26Z</time>
      </trkpt>
      <trkpt lat="38.6939330" lon="1.4788180">
        <ele>14.1</ele>
        <time>2020-02-22T16:20:27Z</time>
      </trkpt>
      <trkpt lat="38.6939970" lon="1.4786830">
        <ele>14.1</ele>
        <time>2020-02-22T16:20:28Z</time>
      </trkpt>
      <trkpt lat="38.6940270" lon="1.4786150">
        <ele>14.1</ele>
        <time>2020-02-22T16:20:29Z</time>
      </trkpt>
      <trkpt lat="38.6940270" lon="1.4786150">
        <ele>14.1</ele>
        <time>2020-02-22T16:20:30Z</time>
      </trkpt>
      <trkpt lat="38.6940880" lon="1.4784780">
        <ele>14.1</ele>
        <time>2020-02-22T16:20:31Z</time>
      </trkpt>
      <trkpt lat="38.6941180" lon="1.4784080">
        <ele>14.1</ele>
        <time>2020-02-22T16:20:32Z</time>
      </trkpt>
      <trkpt lat="38.6941180" lon="1.4784080">
        <ele>14.1</ele>
        <time>2020-02-22T16:20:33Z</time>
      </trkpt>
      <trkpt lat="38.6941780" lon="1.4782720">
        <ele>14.1</ele>
        <time>2020-02-22T16:20:34Z</time>
      </trkpt>
      <trkpt lat="38.6941780" lon="1.4782720">
        <ele>14.1</ele>
        <time>2020-02-22T16:20:35Z</time>
      </trkpt>
      <trkpt lat="38.6942350" lon="1.4781420">
        <ele>14.1</ele>
        <time>2020-02-22T16:20:36Z</time>
      </trkpt>
      <trkpt lat="38.6942350" lon="1.4781420">
        <ele>15.1</ele>
        <time>2020-02-22T16:20:37Z</time>
      </trkpt>
      <trkpt lat="38.6942920" lon="1.4780080">
        <ele>15.1</ele>
        <time>2020-02-22T16:20:38Z</time>
      </trkpt>
      <trkpt lat="38.6942920" lon="1.4780080">
        <ele>15.1</ele>
        <time>2020-02-22T16:20:39Z</time>
      </trkpt>
      <trkpt lat="38.6943500" lon="1.4778730">
        <ele>15.1</ele>
        <time>2020-02-22T16:20:40Z</time>
      </trkpt>
      <trkpt lat="38.6943500" lon="1.4778730">
        <ele>15.1</ele>
        <time>2020-02-22T16:20:41Z</time>
      </trkpt>
      <trkpt lat="38.6944050" lon="1.4777470">
        <ele>15.1</ele>
        <time>2020-02-22T16:20:42Z</time>
      </trkpt>
      <trkpt lat="38.6944050" lon="1.4777470">
        <ele>15.1</ele>
        <time>2020-02-22T16:20:43Z</time>
      </trkpt>
      <trkpt lat="38.6944620" lon="1.4776230">
        <ele>16.1</ele>
        <time>2020-02-22T16:20:44Z</time>
      </trkpt>
      <trkpt lat="38.6944620" lon="1.4776230">
        <ele>16.1</ele>
        <time>2020-02-22T16:20:45Z</time>
      </trkpt>
      <trkpt lat="38.6945200" lon="1.4774920">
        <ele>16.1</ele>
        <time>2020-02-22T16:20:46Z</time>
      </trkpt>
      <trkpt lat="38.6945470" lon="1.4774280">
        <ele>16.1</ele>
        <time>2020-02-22T16:20:47Z</time>
      </trkpt>
      <trkpt lat="38.6945470" lon="1.4774280">
        <ele>16.1</ele>
        <time>2020-02-22T16:20:48Z</time>
      </trkpt>
      <trkpt lat="38.6946020" lon="1.4772980">
        <ele>16.1</ele>
        <time>2020-02-22T16:20:49Z</time>
      </trkpt>
      <trkpt lat="38.6946020" lon="1.4772980">
        <ele>16.1</ele>
        <time>2020-02-22T16:20:50Z</time>
      </trkpt>
      <trkpt lat="38.6946320" lon="1.4772350">
        <ele>16.1</ele>
        <time>2020-02-22T16:20:51Z</time>
      </trkpt>
      <trkpt lat="38.6946920" lon="1.4771020">
        <ele>17.1</ele>
        <time>2020-02-22T16:20:52Z</time>
      </trkpt>
      <trkpt lat="38.6946920" lon="1.4771020">
        <ele>17.1</ele>
        <time>2020-02-22T16:20:53Z</time>
      </trkpt>
      <trkpt lat="38.6947500" lon="1.4769730">
        <ele>17.1</ele>
        <time>2020-02-22T16:20:54Z</time>
      </trkpt>
      <trkpt lat="38.6947500" lon="1.4769730">
        <ele>17.1</ele>
        <time>2020-02-22T16:20:55Z</time>
      </trkpt>
      <trkpt lat="38.6948080" lon="1.4768400">
        <ele>17.1</ele>
        <time>2020-02-22T16:20:56Z</time>
      </trkpt>
      <trkpt lat="38.6948080" lon="1.4768400">
        <ele>17.1</ele>
        <time>2020-02-22T16:20:57Z</time>
      </trkpt>
      <trkpt lat="38.6948670" lon="1.4767080">
        <ele>17.1</ele>
        <time>2020-02-22T16:20:58Z</time>
      </trkpt>
      <trkpt lat="38.6948670" lon="1.4767080">
        <ele>17.1</ele>
        <time>2020-02-22T16:20:59Z</time>
      </trkpt>
      <trkpt lat="38.6949300" lon="1.4765680">
        <ele>17.1</ele>
        <time>2020-02-22T16:21:00Z</time>
      </trkpt>
      <trkpt lat="38.6949300" lon="1.4765680">
        <ele>17.1</ele>
        <time>2020-02-22T16:21:01Z</time>
      </trkpt>
      <trkpt lat="38.6949950" lon="1.4764330">
        <ele>17.1</ele>
        <time>2020-02-22T16:21:02Z</time>
      </trkpt>
      <trkpt lat="38.6950250" lon="1.4763650">
        <ele>17.1</ele>
        <time>2020-02-22T16:21:03Z</time>
      </trkpt>
      <trkpt lat="38.6950550" lon="1.4762950">
        <ele>17.1</ele>
        <time>2020-02-22T16:21:04Z</time>
      </trkpt>
      <trkpt lat="38.6950550" lon="1.4762950">
        <ele>17.1</ele>
        <time>2020-02-22T16:21:05Z</time>
      </trkpt>
      <trkpt lat="38.6951150" lon="1.4761600">
        <ele>17.1</ele>
        <time>2020-02-22T16:21:06Z</time>
      </trkpt>
      <trkpt lat="38.6951150" lon="1.4761600">
        <ele>18.1</ele>
        <time>2020-02-22T16:21:07Z</time>
      </trkpt>
      <trkpt lat="38.6951730" lon="1.4760220">
        <ele>18.1</ele>
        <time>2020-02-22T16:21:08Z</time>
      </trkpt>
      <trkpt lat="38.6952020" lon="1.4759550">
        <ele>18.1</ele>
        <time>2020-02-22T16:21:09Z</time>
      </trkpt>
      <trkpt lat="38.6952020" lon="1.4759550">
        <ele>18.1</ele>
        <time>2020-02-22T16:21:10Z</time>
      </trkpt>
      <trkpt lat="38.6952580" lon="1.4758170">
        <ele>18.1</ele>
        <time>2020-02-22T16:21:11Z</time>
      </trkpt>
      <trkpt lat="38.6952580" lon="1.4758170">
        <ele>18.1</ele>
        <time>2020-02-22T16:21:12Z</time>
      </trkpt>
      <trkpt lat="38.6953130" lon="1.4756820">
        <ele>18.1</ele>
        <time>2020-02-22T16:21:13Z</time>
      </trkpt>
      <trkpt lat="38.6953450" lon="1.4756120">
        <ele>18.1</ele>
        <time>2020-02-22T16:21:14Z</time>
      </trkpt>
      <trkpt lat="38.6953450" lon="1.4756120">
        <ele>19.1</ele>
        <time>2020-02-22T16:21:15Z</time>
      </trkpt>
      <trkpt lat="38.6954120" lon="1.4754670">
        <ele>19.1</ele>
        <time>2020-02-22T16:21:16Z</time>
      </trkpt>
      <trkpt lat="38.6954120" lon="1.4754670">
        <ele>19.1</ele>
        <time>2020-02-22T16:21:17Z</time>
      </trkpt>
      <trkpt lat="38.6954730" lon="1.4753200">
        <ele>19.1</ele>
        <time>2020-02-22T16:21:18Z</time>
      </trkpt>
      <trkpt lat="38.6954730" lon="1.4753200">
        <ele>19.1</ele>
        <time>2020-02-22T16:21:19Z</time>
      </trkpt>
      <trkpt lat="38.6955420" lon="1.4751700">
        <ele>19.1</ele>
        <time>2020-02-22T16:21:20Z</time>
      </trkpt>
      <trkpt lat="38.6955420" lon="1.4751700">
        <ele>19.1</ele>
        <time>2020-02-22T16:21:21Z</time>
      </trkpt>
      <trkpt lat="38.6956080" lon="1.4750200">
        <ele>19.1</ele>
        <time>2020-02-22T16:21:22Z</time>
      </trkpt>
      <trkpt lat="38.6956420" lon="1.4749430">
        <ele>19.1</ele>
        <time>2020-02-22T16:21:23Z</time>
      </trkpt>
      <trkpt lat="38.6956750" lon="1.4748670">
        <ele>19.1</ele>
        <time>2020-02-22T16:21:24Z</time>
      </trkpt>
      <trkpt lat="38.6956750" lon="1.4748670">
        <ele>19.1</ele>
        <time>2020-02-22T16:21:25Z</time>
      </trkpt>
      <trkpt lat="38.6957450" lon="1.4747130">
        <ele>19.1</ele>
        <time>2020-02-22T16:21:26Z</time>
      </trkpt>
      <trkpt lat="38.6957450" lon="1.4747130">
        <ele>19.1</ele>
        <time>2020-02-22T16:21:27Z</time>
      </trkpt>
      <trkpt lat="38.6958100" lon="1.4745570">
        <ele>19.1</ele>
        <time>2020-02-22T16:21:28Z</time>
      </trkpt>
      <trkpt lat="38.6958100" lon="1.4745570">
        <ele>19.1</ele>
        <time>2020-02-22T16:21:29Z</time>
      </trkpt>
      <trkpt lat="38.6958780" lon="1.4744020">
        <ele>19.1</ele>
        <time>2020-02-22T16:21:30Z</time>
      </trkpt>
      <trkpt lat="38.6958780" lon="1.4744020">
        <ele>19.1</ele>
        <time>2020-02-22T16:21:31Z</time>
      </trkpt>
      <trkpt lat="38.6959380" lon="1.4742520">
        <ele>19.1</ele>
        <time>2020-02-22T16:21:32Z</time>
      </trkpt>
      <trkpt lat="38.6959720" lon="1.4741750">
        <ele>19.1</ele>
        <time>2020-02-22T16:21:33Z</time>
      </trkpt>
      <trkpt lat="38.6959720" lon="1.4741750">
        <ele>19.1</ele>
        <time>2020-02-22T16:21:34Z</time>
      </trkpt>
      <trkpt lat="38.6960400" lon="1.4740230">
        <ele>19.1</ele>
        <time>2020-02-22T16:21:35Z</time>
      </trkpt>
      <trkpt lat="38.6960720" lon="1.4739570">
        <ele>19.1</ele>
        <time>2020-02-22T16:21:36Z</time>
      </trkpt>
      <trkpt lat="38.6960720" lon="1.4739570">
        <ele>19.1</ele>
        <time>2020-02-22T16:21:37Z</time>
      </trkpt>
      <trkpt lat="38.6961320" lon="1.4738150">
        <ele>19.1</ele>
        <time>2020-02-22T16:21:38Z</time>
      </trkpt>
      <trkpt lat="38.6961320" lon="1.4738150">
        <ele>19.1</ele>
        <time>2020-02-22T16:21:39Z</time>
      </trkpt>
      <trkpt lat="38.6961320" lon="1.4738150">
        <ele>19.1</ele>
        <time>2020-02-22T16:21:40Z</time>
      </trkpt>
      <trkpt lat="38.6961950" lon="1.4736720">
        <ele>19.1</ele>
        <time>2020-02-22T16:21:41Z</time>
      </trkpt>
      <trkpt lat="38.6962530" lon="1.4735320">
        <ele>19.1</ele>
        <time>2020-02-22T16:21:42Z</time>
      </trkpt>
      <trkpt lat="38.6962530" lon="1.4735320">
        <ele>19.1</ele>
        <time>2020-02-22T16:21:43Z</time>
      </trkpt>
      <trkpt lat="38.6963130" lon="1.4733930">
        <ele>19.1</ele>
        <time>2020-02-22T16:21:44Z</time>
      </trkpt>
      <trkpt lat="38.6963130" lon="1.4733930">
        <ele>20.1</ele>
        <time>2020-02-22T16:21:45Z</time>
      </trkpt>
      <trkpt lat="38.6963770" lon="1.4732520">
        <ele>20.1</ele>
        <time>2020-02-22T16:21:46Z</time>
      </trkpt>
      <trkpt lat="38.6963770" lon="1.4732520">
        <ele>20.1</ele>
        <time>2020-02-22T16:21:47Z</time>
      </trkpt>
      <trkpt lat="38.6964420" lon="1.4731030">
        <ele>20.1</ele>
        <time>2020-02-22T16:21:48Z</time>
      </trkpt>
      <trkpt lat="38.6964420" lon="1.4731030">
        <ele>20.1</ele>
        <time>2020-02-22T16:21:49Z</time>
      </trkpt>
      <trkpt lat="38.6965070" lon="1.4729580">
        <ele>20.1</ele>
        <time>2020-02-22T16:21:50Z</time>
      </trkpt>
      <trkpt lat="38.6965070" lon="1.4729580">
        <ele>20.1</ele>
        <time>2020-02-22T16:21:51Z</time>
      </trkpt>
      <trkpt lat="38.6965680" lon="1.4728170">
        <ele>20.1</ele>
        <time>2020-02-22T16:21:52Z</time>
      </trkpt>
      <trkpt lat="38.6965680" lon="1.4728170">
        <ele>20.1</ele>
        <time>2020-02-22T16:21:53Z</time>
      </trkpt>
      <trkpt lat="38.6966280" lon="1.4726700">
        <ele>20.1</ele>
        <time>2020-02-22T16:21:54Z</time>
      </trkpt>
      <trkpt lat="38.6966280" lon="1.4726700">
        <ele>20.1</ele>
        <time>2020-02-22T16:21:55Z</time>
      </trkpt>
      <trkpt lat="38.6966930" lon="1.4725280">
        <ele>20.1</ele>
        <time>2020-02-22T16:21:56Z</time>
      </trkpt>
      <trkpt lat="38.6966930" lon="1.4725280">
        <ele>20.1</ele>
        <time>2020-02-22T16:21:57Z</time>
      </trkpt>
      <trkpt lat="38.6967580" lon="1.4723780">
        <ele>20.1</ele>
        <time>2020-02-22T16:21:58Z</time>
      </trkpt>
      <trkpt lat="38.6967580" lon="1.4723780">
        <ele>20.1</ele>
        <time>2020-02-22T16:21:59Z</time>
      </trkpt>
      <trkpt lat="38.6967930" lon="1.4723050">
        <ele>20.1</ele>
        <time>2020-02-22T16:22:00Z</time>
      </trkpt>
      <trkpt lat="38.6968600" lon="1.4721530">
        <ele>20.1</ele>
        <time>2020-02-22T16:22:01Z</time>
      </trkpt>
      <trkpt lat="38.6968950" lon="1.4720820">
        <ele>20.1</ele>
        <time>2020-02-22T16:22:02Z</time>
      </trkpt>
      <trkpt lat="38.6968950" lon="1.4720820">
        <ele>20.1</ele>
        <time>2020-02-22T16:22:03Z</time>
      </trkpt>
      <trkpt lat="38.6969650" lon="1.4719370">
        <ele>20.1</ele>
        <time>2020-02-22T16:22:04Z</time>
      </trkpt>
      <trkpt lat="38.6969650" lon="1.4719370">
        <ele>20.1</ele>
        <time>2020-02-22T16:22:05Z</time>
      </trkpt>
      <trkpt lat="38.6970300" lon="1.4717900">
        <ele>20.1</ele>
        <time>2020-02-22T16:22:06Z</time>
      </trkpt>
      <trkpt lat="38.6970300" lon="1.4717900">
        <ele>20.1</ele>
        <time>2020-02-22T16:22:07Z</time>
      </trkpt>
      <trkpt lat="38.6970920" lon="1.4716450">
        <ele>21.1</ele>
        <time>2020-02-22T16:22:08Z</time>
      </trkpt>
      <trkpt lat="38.6970920" lon="1.4716450">
        <ele>21.1</ele>
        <time>2020-02-22T16:22:09Z</time>
      </trkpt>
      <trkpt lat="38.6971530" lon="1.4715050">
        <ele>21.1</ele>
        <time>2020-02-22T16:22:10Z</time>
      </trkpt>
      <trkpt lat="38.6971530" lon="1.4715050">
        <ele>21.1</ele>
        <time>2020-02-22T16:22:11Z</time>
      </trkpt>
      <trkpt lat="38.6972150" lon="1.4713670">
        <ele>21.1</ele>
        <time>2020-02-22T16:22:12Z</time>
      </trkpt>
      <trkpt lat="38.6972150" lon="1.4713670">
        <ele>21.1</ele>
        <time>2020-02-22T16:22:13Z</time>
      </trkpt>
      <trkpt lat="38.6972750" lon="1.4712320">
        <ele>21.1</ele>
        <time>2020-02-22T16:22:14Z</time>
      </trkpt>
      <trkpt lat="38.6972750" lon="1.4712320">
        <ele>21.1</ele>
        <time>2020-02-22T16:22:15Z</time>
      </trkpt>
      <trkpt lat="38.6973320" lon="1.4710970">
        <ele>21.1</ele>
        <time>2020-02-22T16:22:16Z</time>
      </trkpt>
      <trkpt lat="38.6973320" lon="1.4710970">
        <ele>21.1</ele>
        <time>2020-02-22T16:22:17Z</time>
      </trkpt>
      <trkpt lat="38.6973900" lon="1.4709670">
        <ele>21.1</ele>
        <time>2020-02-22T16:22:18Z</time>
      </trkpt>
      <trkpt lat="38.6973900" lon="1.4709670">
        <ele>21.1</ele>
        <time>2020-02-22T16:22:19Z</time>
      </trkpt>
      <trkpt lat="38.6974480" lon="1.4708350">
        <ele>22.1</ele>
        <time>2020-02-22T16:22:20Z</time>
      </trkpt>
      <trkpt lat="38.6974480" lon="1.4708350">
        <ele>22.1</ele>
        <time>2020-02-22T16:22:21Z</time>
      </trkpt>
      <trkpt lat="38.6975070" lon="1.4707050">
        <ele>22.1</ele>
        <time>2020-02-22T16:22:22Z</time>
      </trkpt>
      <trkpt lat="38.6975070" lon="1.4707050">
        <ele>22.1</ele>
        <time>2020-02-22T16:22:23Z</time>
      </trkpt>
      <trkpt lat="38.6975630" lon="1.4705770">
        <ele>22.1</ele>
        <time>2020-02-22T16:22:24Z</time>
      </trkpt>
      <trkpt lat="38.6975630" lon="1.4705770">
        <ele>22.1</ele>
        <time>2020-02-22T16:22:25Z</time>
      </trkpt>
      <trkpt lat="38.6976180" lon="1.4704520">
        <ele>23.1</ele>
        <time>2020-02-22T16:22:26Z</time>
      </trkpt>
      <trkpt lat="38.6976180" lon="1.4704520">
        <ele>23.1</ele>
        <time>2020-02-22T16:22:27Z</time>
      </trkpt>
      <trkpt lat="38.6976730" lon="1.4703280">
        <ele>23.1</ele>
        <time>2020-02-22T16:22:28Z</time>
      </trkpt>
      <trkpt lat="38.6976730" lon="1.4703280">
        <ele>23.1</ele>
        <time>2020-02-22T16:22:29Z</time>
      </trkpt>
      <trkpt lat="38.6977300" lon="1.4702050">
        <ele>24.1</ele>
        <time>2020-02-22T16:22:30Z</time>
      </trkpt>
      <trkpt lat="38.6977300" lon="1.4702050">
        <ele>24.1</ele>
        <time>2020-02-22T16:22:31Z</time>
      </trkpt>
      <trkpt lat="38.6977920" lon="1.4700800">
        <ele>24.1</ele>
        <time>2020-02-22T16:22:32Z</time>
      </trkpt>
      <trkpt lat="38.6977920" lon="1.4700800">
        <ele>24.1</ele>
        <time>2020-02-22T16:22:33Z</time>
      </trkpt>
      <trkpt lat="38.6978450" lon="1.4699550">
        <ele>24.1</ele>
        <time>2020-02-22T16:22:34Z</time>
      </trkpt>
      <trkpt lat="38.6978700" lon="1.4698920">
        <ele>24.1</ele>
        <time>2020-02-22T16:22:35Z</time>
      </trkpt>
      <trkpt lat="38.6978700" lon="1.4698920">
        <ele>24.1</ele>
        <time>2020-02-22T16:22:36Z</time>
      </trkpt>
      <trkpt lat="38.6979280" lon="1.4697650">
        <ele>24.1</ele>
        <time>2020-02-22T16:22:37Z</time>
      </trkpt>
      <trkpt lat="38.6979580" lon="1.4697020">
        <ele>25.1</ele>
        <time>2020-02-22T16:22:38Z</time>
      </trkpt>
      <trkpt lat="38.6979580" lon="1.4697020">
        <ele>25.1</ele>
        <time>2020-02-22T16:22:39Z</time>
      </trkpt>
      <trkpt lat="38.6980130" lon="1.4695770">
        <ele>25.1</ele>
        <time>2020-02-22T16:22:40Z</time>
      </trkpt>
      <trkpt lat="38.6980130" lon="1.4695770">
        <ele>26.1</ele>
        <time>2020-02-22T16:22:41Z</time>
      </trkpt>
      <trkpt lat="38.6980670" lon="1.4694530">
        <ele>26.1</ele>
        <time>2020-02-22T16:22:42Z</time>
      </trkpt>
      <trkpt lat="38.6980670" lon="1.4694530">
        <ele>26.1</ele>
        <time>2020-02-22T16:22:43Z</time>
      </trkpt>
      <trkpt lat="38.6981220" lon="1.4693270">
        <ele>26.1</ele>
        <time>2020-02-22T16:22:44Z</time>
      </trkpt>
      <trkpt lat="38.6981220" lon="1.4693270">
        <ele>26.1</ele>
        <time>2020-02-22T16:22:45Z</time>
      </trkpt>
      <trkpt lat="38.6981750" lon="1.4692030">
        <ele>26.1</ele>
        <time>2020-02-22T16:22:46Z</time>
      </trkpt>
      <trkpt lat="38.6981750" lon="1.4692030">
        <ele>26.1</ele>
        <time>2020-02-22T16:22:47Z</time>
      </trkpt>
      <trkpt lat="38.6982300" lon="1.4690750">
        <ele>26.1</ele>
        <time>2020-02-22T16:22:48Z</time>
      </trkpt>
      <trkpt lat="38.6982300" lon="1.4690750">
        <ele>26.1</ele>
        <time>2020-02-22T16:22:49Z</time>
      </trkpt>
      <trkpt lat="38.6982880" lon="1.4689430">
        <ele>26.1</ele>
        <time>2020-02-22T16:22:50Z</time>
      </trkpt>
      <trkpt lat="38.6982880" lon="1.4689430">
        <ele>26.1</ele>
        <time>2020-02-22T16:22:51Z</time>
      </trkpt>
      <trkpt lat="38.6983450" lon="1.4688120">
        <ele>26.1</ele>
        <time>2020-02-22T16:22:52Z</time>
      </trkpt>
      <trkpt lat="38.6983450" lon="1.4688120">
        <ele>26.1</ele>
        <time>2020-02-22T16:22:53Z</time>
      </trkpt>
      <trkpt lat="38.6984000" lon="1.4686820">
        <ele>26.1</ele>
        <time>2020-02-22T16:22:54Z</time>
      </trkpt>
      <trkpt lat="38.6984000" lon="1.4686820">
        <ele>26.1</ele>
        <time>2020-02-22T16:22:55Z</time>
      </trkpt>
      <trkpt lat="38.6984530" lon="1.4685530">
        <ele>26.1</ele>
        <time>2020-02-22T16:22:56Z</time>
      </trkpt>
      <trkpt lat="38.6984530" lon="1.4685530">
        <ele>27.1</ele>
        <time>2020-02-22T16:22:57Z</time>
      </trkpt>
      <trkpt lat="38.6985080" lon="1.4684280">
        <ele>27.1</ele>
        <time>2020-02-22T16:22:58Z</time>
      </trkpt>
      <trkpt lat="38.6985080" lon="1.4684280">
        <ele>27.1</ele>
        <time>2020-02-22T16:22:59Z</time>
      </trkpt>
      <trkpt lat="38.6985650" lon="1.4683050">
        <ele>28.1</ele>
        <time>2020-02-22T16:23:00Z</time>
      </trkpt>
      <trkpt lat="38.6985650" lon="1.4683050">
        <ele>28.1</ele>
        <time>2020-02-22T16:23:01Z</time>
      </trkpt>
      <trkpt lat="38.6986180" lon="1.4681830">
        <ele>28.1</ele>
        <time>2020-02-22T16:23:02Z</time>
      </trkpt>
      <trkpt lat="38.6986180" lon="1.4681830">
        <ele>28.1</ele>
        <time>2020-02-22T16:23:03Z</time>
      </trkpt>
      <trkpt lat="38.6986730" lon="1.4680580">
        <ele>28.1</ele>
        <time>2020-02-22T16:23:04Z</time>
      </trkpt>
      <trkpt lat="38.6986730" lon="1.4680580">
        <ele>28.1</ele>
        <time>2020-02-22T16:23:05Z</time>
      </trkpt>
      <trkpt lat="38.6987300" lon="1.4679350">
        <ele>28.1</ele>
        <time>2020-02-22T16:23:06Z</time>
      </trkpt>
      <trkpt lat="38.6987300" lon="1.4679350">
        <ele>28.1</ele>
        <time>2020-02-22T16:23:07Z</time>
      </trkpt>
      <trkpt lat="38.6987780" lon="1.4678150">
        <ele>29.1</ele>
        <time>2020-02-22T16:23:08Z</time>
      </trkpt>
      <trkpt lat="38.6987780" lon="1.4678150">
        <ele>29.1</ele>
        <time>2020-02-22T16:23:09Z</time>
      </trkpt>
      <trkpt lat="38.6988320" lon="1.4676930">
        <ele>29.1</ele>
        <time>2020-02-22T16:23:10Z</time>
      </trkpt>
      <trkpt lat="38.6988570" lon="1.4676320">
        <ele>29.1</ele>
        <time>2020-02-22T16:23:11Z</time>
      </trkpt>
      <trkpt lat="38.6988570" lon="1.4676320">
        <ele>29.1</ele>
        <time>2020-02-22T16:23:12Z</time>
      </trkpt>
      <trkpt lat="38.6989130" lon="1.4675070">
        <ele>29.1</ele>
        <time>2020-02-22T16:23:13Z</time>
      </trkpt>
      <trkpt lat="38.6989420" lon="1.4674430">
        <ele>30.1</ele>
        <time>2020-02-22T16:23:14Z</time>
      </trkpt>
      <trkpt lat="38.6989420" lon="1.4674430">
        <ele>30.1</ele>
        <time>2020-02-22T16:23:15Z</time>
      </trkpt>
      <trkpt lat="38.6989980" lon="1.4673130">
        <ele>30.1</ele>
        <time>2020-02-22T16:23:16Z</time>
      </trkpt>
      <trkpt lat="38.6989980" lon="1.4673130">
        <ele>30.1</ele>
        <time>2020-02-22T16:23:17Z</time>
      </trkpt>
      <trkpt lat="38.6990570" lon="1.4671830">
        <ele>30.1</ele>
        <time>2020-02-22T16:23:18Z</time>
      </trkpt>
      <trkpt lat="38.6990570" lon="1.4671830">
        <ele>30.1</ele>
        <time>2020-02-22T16:23:19Z</time>
      </trkpt>
      <trkpt lat="38.6991150" lon="1.4670570">
        <ele>30.1</ele>
        <time>2020-02-22T16:23:20Z</time>
      </trkpt>
      <trkpt lat="38.6991150" lon="1.4670570">
        <ele>31.1</ele>
        <time>2020-02-22T16:23:21Z</time>
      </trkpt>
      <trkpt lat="38.6991720" lon="1.4669270">
        <ele>31.1</ele>
        <time>2020-02-22T16:23:22Z</time>
      </trkpt>
      <trkpt lat="38.6991720" lon="1.4669270">
        <ele>31.1</ele>
        <time>2020-02-22T16:23:23Z</time>
      </trkpt>
      <trkpt lat="38.6992270" lon="1.4667970">
        <ele>31.1</ele>
        <time>2020-02-22T16:23:24Z</time>
      </trkpt>
      <trkpt lat="38.6992270" lon="1.4667970">
        <ele>31.1</ele>
        <time>2020-02-22T16:23:25Z</time>
      </trkpt>
      <trkpt lat="38.6992850" lon="1.4666670">
        <ele>31.1</ele>
        <time>2020-02-22T16:23:26Z</time>
      </trkpt>
      <trkpt lat="38.6992850" lon="1.4666670">
        <ele>31.1</ele>
        <time>2020-02-22T16:23:27Z</time>
      </trkpt>
      <trkpt lat="38.6993450" lon="1.4665400">
        <ele>31.1</ele>
        <time>2020-02-22T16:23:28Z</time>
      </trkpt>
      <trkpt lat="38.6993450" lon="1.4665400">
        <ele>32.1</ele>
        <time>2020-02-22T16:23:29Z</time>
      </trkpt>
      <trkpt lat="38.6994030" lon="1.4664170">
        <ele>32.1</ele>
        <time>2020-02-22T16:23:30Z</time>
      </trkpt>
      <trkpt lat="38.6994030" lon="1.4664170">
        <ele>32.1</ele>
        <time>2020-02-22T16:23:31Z</time>
      </trkpt>
      <trkpt lat="38.6994630" lon="1.4662850">
        <ele>32.1</ele>
        <time>2020-02-22T16:23:32Z</time>
      </trkpt>
      <trkpt lat="38.6994630" lon="1.4662850">
        <ele>32.1</ele>
        <time>2020-02-22T16:23:33Z</time>
      </trkpt>
      <trkpt lat="38.6995280" lon="1.4661550">
        <ele>32.1</ele>
        <time>2020-02-22T16:23:34Z</time>
      </trkpt>
      <trkpt lat="38.6995280" lon="1.4661550">
        <ele>32.1</ele>
        <time>2020-02-22T16:23:35Z</time>
      </trkpt>
      <trkpt lat="38.6995980" lon="1.4660230">
        <ele>32.1</ele>
        <time>2020-02-22T16:23:36Z</time>
      </trkpt>
      <trkpt lat="38.6995980" lon="1.4660230">
        <ele>32.1</ele>
        <time>2020-02-22T16:23:37Z</time>
      </trkpt>
      <trkpt lat="38.6996720" lon="1.4658970">
        <ele>33.1</ele>
        <time>2020-02-22T16:23:38Z</time>
      </trkpt>
      <trkpt lat="38.6997120" lon="1.4658330">
        <ele>33.1</ele>
        <time>2020-02-22T16:23:39Z</time>
      </trkpt>
      <trkpt lat="38.6997530" lon="1.4657700">
        <ele>33.1</ele>
        <time>2020-02-22T16:23:40Z</time>
      </trkpt>
      <trkpt lat="38.6997530" lon="1.4657700">
        <ele>33.1</ele>
        <time>2020-02-22T16:23:41Z</time>
      </trkpt>
      <trkpt lat="38.6997530" lon="1.4657700">
        <ele>33.1</ele>
        <time>2020-02-22T16:23:42Z</time>
      </trkpt>
      <trkpt lat="38.6998480" lon="1.4656470">
        <ele>33.1</ele>
        <time>2020-02-22T16:23:43Z</time>
      </trkpt>
      <trkpt lat="38.6999500" lon="1.4655200">
        <ele>32.1</ele>
        <time>2020-02-22T16:23:44Z</time>
      </trkpt>
      <trkpt lat="38.7000000" lon="1.4654570">
        <ele>32.1</ele>
        <time>2020-02-22T16:23:45Z</time>
      </trkpt>
      <trkpt lat="38.7000000" lon="1.4654570">
        <ele>32.1</ele>
        <time>2020-02-22T16:23:46Z</time>
      </trkpt>
      <trkpt lat="38.7001070" lon="1.4653270">
        <ele>32.1</ele>
        <time>2020-02-22T16:23:47Z</time>
      </trkpt>
      <trkpt lat="38.7001620" lon="1.4652600">
        <ele>32.1</ele>
        <time>2020-02-22T16:23:48Z</time>
      </trkpt>
      <trkpt lat="38.7001620" lon="1.4652600">
        <ele>32.1</ele>
        <time>2020-02-22T16:23:49Z</time>
      </trkpt>
      <trkpt lat="38.7002720" lon="1.4651250">
        <ele>32.1</ele>
        <time>2020-02-22T16:23:50Z</time>
      </trkpt>
      <trkpt lat="38.7003270" lon="1.4650580">
        <ele>32.1</ele>
        <time>2020-02-22T16:23:51Z</time>
      </trkpt>
      <trkpt lat="38.7003270" lon="1.4650580">
        <ele>31.1</ele>
        <time>2020-02-22T16:23:52Z</time>
      </trkpt>
      <trkpt lat="38.7004370" lon="1.4649280">
        <ele>31.1</ele>
        <time>2020-02-22T16:23:53Z</time>
      </trkpt>
      <trkpt lat="38.7004900" lon="1.4648650">
        <ele>31.1</ele>
        <time>2020-02-22T16:23:54Z</time>
      </trkpt>
      <trkpt lat="38.7004900" lon="1.4648650">
        <ele>31.1</ele>
        <time>2020-02-22T16:23:55Z</time>
      </trkpt>
      <trkpt lat="38.7005980" lon="1.4647320">
        <ele>31.1</ele>
        <time>2020-02-22T16:23:56Z</time>
      </trkpt>
      <trkpt lat="38.7005980" lon="1.4647320">
        <ele>30.1</ele>
        <time>2020-02-22T16:23:57Z</time>
      </trkpt>
      <trkpt lat="38.7007070" lon="1.4645980">
        <ele>30.1</ele>
        <time>2020-02-22T16:23:58Z</time>
      </trkpt>
      <trkpt lat="38.7007070" lon="1.4645980">
        <ele>30.1</ele>
        <time>2020-02-22T16:23:59Z</time>
      </trkpt>
      <trkpt lat="38.7008150" lon="1.4644650">
        <ele>30.1</ele>
        <time>2020-02-22T16:24:00Z</time>
      </trkpt>
      <trkpt lat="38.7008150" lon="1.4644650">
        <ele>30.1</ele>
        <time>2020-02-22T16:24:01Z</time>
      </trkpt>
      <trkpt lat="38.7009300" lon="1.4643320">
        <ele>30.1</ele>
        <time>2020-02-22T16:24:02Z</time>
      </trkpt>
      <trkpt lat="38.7009300" lon="1.4643320">
        <ele>30.1</ele>
        <time>2020-02-22T16:24:03Z</time>
      </trkpt>
      <trkpt lat="38.7010430" lon="1.4641980">
        <ele>30.1</ele>
        <time>2020-02-22T16:24:04Z</time>
      </trkpt>
      <trkpt lat="38.7010430" lon="1.4641980">
        <ele>29.1</ele>
        <time>2020-02-22T16:24:05Z</time>
      </trkpt>
      <trkpt lat="38.7011570" lon="1.4640600">
        <ele>29.1</ele>
        <time>2020-02-22T16:24:06Z</time>
      </trkpt>
      <trkpt lat="38.7011570" lon="1.4640600">
        <ele>29.1</ele>
        <time>2020-02-22T16:24:07Z</time>
      </trkpt>
      <trkpt lat="38.7012720" lon="1.4639200">
        <ele>29.1</ele>
        <time>2020-02-22T16:24:08Z</time>
      </trkpt>
      <trkpt lat="38.7012720" lon="1.4639200">
        <ele>29.1</ele>
        <time>2020-02-22T16:24:09Z</time>
      </trkpt>
      <trkpt lat="38.7013880" lon="1.4637780">
        <ele>29.1</ele>
        <time>2020-02-22T16:24:10Z</time>
      </trkpt>
      <trkpt lat="38.7013880" lon="1.4637780">
        <ele>28.1</ele>
        <time>2020-02-22T16:24:11Z</time>
      </trkpt>
      <trkpt lat="38.7015070" lon="1.4636350">
        <ele>28.1</ele>
        <time>2020-02-22T16:24:12Z</time>
      </trkpt>
      <trkpt lat="38.7015070" lon="1.4636350">
        <ele>28.1</ele>
        <time>2020-02-22T16:24:13Z</time>
      </trkpt>
      <trkpt lat="38.7016180" lon="1.4634880">
        <ele>28.1</ele>
        <time>2020-02-22T16:24:14Z</time>
      </trkpt>
      <trkpt lat="38.7016180" lon="1.4634880">
        <ele>28.1</ele>
        <time>2020-02-22T16:24:15Z</time>
      </trkpt>
      <trkpt lat="38.7016180" lon="1.4634880">
        <ele>28.1</ele>
        <time>2020-02-22T16:24:16Z</time>
      </trkpt>
      <trkpt lat="38.7017330" lon="1.4633430">
        <ele>27.1</ele>
        <time>2020-02-22T16:24:17Z</time>
      </trkpt>
      <trkpt lat="38.7018550" lon="1.4631980">
        <ele>27.1</ele>
        <time>2020-02-22T16:24:18Z</time>
      </trkpt>
      <trkpt lat="38.7018550" lon="1.4631980">
        <ele>27.1</ele>
        <time>2020-02-22T16:24:19Z</time>
      </trkpt>
      <trkpt lat="38.7019780" lon="1.4630580">
        <ele>27.1</ele>
        <time>2020-02-22T16:24:20Z</time>
      </trkpt>
      <trkpt lat="38.7020370" lon="1.4629850">
        <ele>27.1</ele>
        <time>2020-02-22T16:24:21Z</time>
      </trkpt>
      <trkpt lat="38.7020370" lon="1.4629850">
        <ele>27.1</ele>
        <time>2020-02-22T16:24:22Z</time>
      </trkpt>
      <trkpt lat="38.7021550" lon="1.4628400">
        <ele>26.1</ele>
        <time>2020-02-22T16:24:23Z</time>
      </trkpt>
      <trkpt lat="38.7021550" lon="1.4628400">
        <ele>26.1</ele>
        <time>2020-02-22T16:24:24Z</time>
      </trkpt>
      <trkpt lat="38.7022720" lon="1.4626980">
        <ele>26.1</ele>
        <time>2020-02-22T16:24:25Z</time>
      </trkpt>
      <trkpt lat="38.7022720" lon="1.4626980">
        <ele>26.1</ele>
        <time>2020-02-22T16:24:26Z</time>
      </trkpt>
      <trkpt lat="38.7023870" lon="1.4625580">
        <ele>26.1</ele>
        <time>2020-02-22T16:24:27Z</time>
      </trkpt>
      <trkpt lat="38.7023870" lon="1.4625580">
        <ele>26.1</ele>
        <time>2020-02-22T16:24:28Z</time>
      </trkpt>
      <trkpt lat="38.7025020" lon="1.4624200">
        <ele>26.1</ele>
        <time>2020-02-22T16:24:29Z</time>
      </trkpt>
      <trkpt lat="38.7025600" lon="1.4623500">
        <ele>26.1</ele>
        <time>2020-02-22T16:24:30Z</time>
      </trkpt>
      <trkpt lat="38.7025600" lon="1.4623500">
        <ele>26.1</ele>
        <time>2020-02-22T16:24:31Z</time>
      </trkpt>
      <trkpt lat="38.7026730" lon="1.4622170">
        <ele>26.1</ele>
        <time>2020-02-22T16:24:32Z</time>
      </trkpt>
      <trkpt lat="38.7026730" lon="1.4622170">
        <ele>26.1</ele>
        <time>2020-02-22T16:24:33Z</time>
      </trkpt>
      <trkpt lat="38.7027830" lon="1.4620830">
        <ele>26.1</ele>
        <time>2020-02-22T16:24:34Z</time>
      </trkpt>
      <trkpt lat="38.7028380" lon="1.4620150">
        <ele>26.1</ele>
        <time>2020-02-22T16:24:35Z</time>
      </trkpt>
      <trkpt lat="38.7028950" lon="1.4619470">
        <ele>26.1</ele>
        <time>2020-02-22T16:24:36Z</time>
      </trkpt>
      <trkpt lat="38.7028950" lon="1.4619470">
        <ele>26.1</ele>
        <time>2020-02-22T16:24:37Z</time>
      </trkpt>
      <trkpt lat="38.7030070" lon="1.4618080">
        <ele>26.1</ele>
        <time>2020-02-22T16:24:38Z</time>
      </trkpt>
      <trkpt lat="38.7030070" lon="1.4618080">
        <ele>26.1</ele>
        <time>2020-02-22T16:24:39Z</time>
      </trkpt>
      <trkpt lat="38.7031180" lon="1.4616730">
        <ele>26.1</ele>
        <time>2020-02-22T16:24:40Z</time>
      </trkpt>
      <trkpt lat="38.7031180" lon="1.4616730">
        <ele>26.1</ele>
        <time>2020-02-22T16:24:41Z</time>
      </trkpt>
      <trkpt lat="38.7032300" lon="1.4615380">
        <ele>26.1</ele>
        <time>2020-02-22T16:24:42Z</time>
      </trkpt>
      <trkpt lat="38.7032300" lon="1.4615380">
        <ele>26.1</ele>
        <time>2020-02-22T16:24:43Z</time>
      </trkpt>
      <trkpt lat="38.7033400" lon="1.4614050">
        <ele>26.1</ele>
        <time>2020-02-22T16:24:44Z</time>
      </trkpt>
      <trkpt lat="38.7033970" lon="1.4613370">
        <ele>25.1</ele>
        <time>2020-02-22T16:24:45Z</time>
      </trkpt>
      <trkpt lat="38.7033970" lon="1.4613370">
        <ele>25.1</ele>
        <time>2020-02-22T16:24:46Z</time>
      </trkpt>
      <trkpt lat="38.7035080" lon="1.4612020">
        <ele>25.1</ele>
        <time>2020-02-22T16:24:47Z</time>
      </trkpt>
      <trkpt lat="38.7035630" lon="1.4611330">
        <ele>25.1</ele>
        <time>2020-02-22T16:24:48Z</time>
      </trkpt>
      <trkpt lat="38.7035630" lon="1.4611330">
        <ele>25.1</ele>
        <time>2020-02-22T16:24:49Z</time>
      </trkpt>
      <trkpt lat="38.7036730" lon="1.4609970">
        <ele>25.1</ele>
        <time>2020-02-22T16:24:50Z</time>
      </trkpt>
      <trkpt lat="38.7036730" lon="1.4609970">
        <ele>25.1</ele>
        <time>2020-02-22T16:24:51Z</time>
      </trkpt>
      <trkpt lat="38.7037800" lon="1.4608650">
        <ele>25.1</ele>
        <time>2020-02-22T16:24:52Z</time>
      </trkpt>
      <trkpt lat="38.7037800" lon="1.4608650">
        <ele>25.1</ele>
        <time>2020-02-22T16:24:53Z</time>
      </trkpt>
      <trkpt lat="38.7038880" lon="1.4607330">
        <ele>25.1</ele>
        <time>2020-02-22T16:24:54Z</time>
      </trkpt>
      <trkpt lat="38.7038880" lon="1.4607330">
        <ele>25.1</ele>
        <time>2020-02-22T16:24:55Z</time>
      </trkpt>
      <trkpt lat="38.7039980" lon="1.4606080">
        <ele>25.1</ele>
        <time>2020-02-22T16:24:56Z</time>
      </trkpt>
      <trkpt lat="38.7039980" lon="1.4606080">
        <ele>25.1</ele>
        <time>2020-02-22T16:24:57Z</time>
      </trkpt>
      <trkpt lat="38.7041080" lon="1.4604770">
        <ele>25.1</ele>
        <time>2020-02-22T16:24:58Z</time>
      </trkpt>
      <trkpt lat="38.7041080" lon="1.4604770">
        <ele>25.1</ele>
        <time>2020-02-22T16:24:59Z</time>
      </trkpt>
      <trkpt lat="38.7041620" lon="1.4604100">
        <ele>25.1</ele>
        <time>2020-02-22T16:25:00Z</time>
      </trkpt>
      <trkpt lat="38.7042680" lon="1.4602800">
        <ele>25.1</ele>
        <time>2020-02-22T16:25:01Z</time>
      </trkpt>
      <trkpt lat="38.7043200" lon="1.4602150">
        <ele>25.1</ele>
        <time>2020-02-22T16:25:02Z</time>
      </trkpt>
      <trkpt lat="38.7043200" lon="1.4602150">
        <ele>25.1</ele>
        <time>2020-02-22T16:25:03Z</time>
      </trkpt>
      <trkpt lat="38.7044250" lon="1.4600870">
        <ele>25.1</ele>
        <time>2020-02-22T16:25:04Z</time>
      </trkpt>
      <trkpt lat="38.7044780" lon="1.4600230">
        <ele>25.1</ele>
        <time>2020-02-22T16:25:05Z</time>
      </trkpt>
      <trkpt lat="38.7044780" lon="1.4600230">
        <ele>25.1</ele>
        <time>2020-02-22T16:25:06Z</time>
      </trkpt>
      <trkpt lat="38.7045870" lon="1.4598930">
        <ele>25.1</ele>
        <time>2020-02-22T16:25:07Z</time>
      </trkpt>
      <trkpt lat="38.7046400" lon="1.4598270">
        <ele>25.1</ele>
        <time>2020-02-22T16:25:08Z</time>
      </trkpt>
      <trkpt lat="38.7046400" lon="1.4598270">
        <ele>25.1</ele>
        <time>2020-02-22T16:25:09Z</time>
      </trkpt>
      <trkpt lat="38.7047480" lon="1.4596930">
        <ele>25.1</ele>
        <time>2020-02-22T16:25:10Z</time>
      </trkpt>
      <trkpt lat="38.7047480" lon="1.4596930">
        <ele>25.1</ele>
        <time>2020-02-22T16:25:11Z</time>
      </trkpt>
      <trkpt lat="38.7048550" lon="1.4595580">
        <ele>25.1</ele>
        <time>2020-02-22T16:25:12Z</time>
      </trkpt>
      <trkpt lat="38.7048550" lon="1.4595580">
        <ele>25.1</ele>
        <time>2020-02-22T16:25:13Z</time>
      </trkpt>
      <trkpt lat="38.7048550" lon="1.4595580">
        <ele>25.1</ele>
        <time>2020-02-22T16:25:14Z</time>
      </trkpt>
      <trkpt lat="38.7049600" lon="1.4594280">
        <ele>25.1</ele>
        <time>2020-02-22T16:25:15Z</time>
      </trkpt>
      <trkpt lat="38.7050630" lon="1.4592970">
        <ele>25.1</ele>
        <time>2020-02-22T16:25:16Z</time>
      </trkpt>
      <trkpt lat="38.7050630" lon="1.4592970">
        <ele>25.1</ele>
        <time>2020-02-22T16:25:17Z</time>
      </trkpt>
      <trkpt lat="38.7051650" lon="1.4591700">
        <ele>25.1</ele>
        <time>2020-02-22T16:25:18Z</time>
      </trkpt>
      <trkpt lat="38.7051650" lon="1.4591700">
        <ele>25.1</ele>
        <time>2020-02-22T16:25:19Z</time>
      </trkpt>
      <trkpt lat="38.7052700" lon="1.4590450">
        <ele>25.1</ele>
        <time>2020-02-22T16:25:20Z</time>
      </trkpt>
      <trkpt lat="38.7052700" lon="1.4590450">
        <ele>25.1</ele>
        <time>2020-02-22T16:25:21Z</time>
      </trkpt>
      <trkpt lat="38.7053750" lon="1.4589220">
        <ele>25.1</ele>
        <time>2020-02-22T16:25:22Z</time>
      </trkpt>
      <trkpt lat="38.7053750" lon="1.4589220">
        <ele>25.1</ele>
        <time>2020-02-22T16:25:23Z</time>
      </trkpt>
      <trkpt lat="38.7054780" lon="1.4588000">
        <ele>25.1</ele>
        <time>2020-02-22T16:25:24Z</time>
      </trkpt>
      <trkpt lat="38.7054780" lon="1.4588000">
        <ele>25.1</ele>
        <time>2020-02-22T16:25:25Z</time>
      </trkpt>
      <trkpt lat="38.7055700" lon="1.4586780">
        <ele>25.1</ele>
        <time>2020-02-22T16:25:26Z</time>
      </trkpt>
      <trkpt lat="38.7055700" lon="1.4586780">
        <ele>25.1</ele>
        <time>2020-02-22T16:25:27Z</time>
      </trkpt>
      <trkpt lat="38.7056620" lon="1.4585530">
        <ele>25.1</ele>
        <time>2020-02-22T16:25:28Z</time>
      </trkpt>
      <trkpt lat="38.7056620" lon="1.4585530">
        <ele>25.1</ele>
        <time>2020-02-22T16:25:29Z</time>
      </trkpt>
      <trkpt lat="38.7057470" lon="1.4584270">
        <ele>25.1</ele>
        <time>2020-02-22T16:25:30Z</time>
      </trkpt>
      <trkpt lat="38.7057470" lon="1.4584270">
        <ele>25.1</ele>
        <time>2020-02-22T16:25:31Z</time>
      </trkpt>
      <trkpt lat="38.7058270" lon="1.4582970">
        <ele>25.1</ele>
        <time>2020-02-22T16:25:32Z</time>
      </trkpt>
      <trkpt lat="38.7058630" lon="1.4582330">
        <ele>25.1</ele>
        <time>2020-02-22T16:25:33Z</time>
      </trkpt>
      <trkpt lat="38.7058630" lon="1.4582330">
        <ele>25.1</ele>
        <time>2020-02-22T16:25:34Z</time>
      </trkpt>
      <trkpt lat="38.7059230" lon="1.4581080">
        <ele>25.1</ele>
        <time>2020-02-22T16:25:35Z</time>
      </trkpt>
      <trkpt lat="38.7059500" lon="1.4580480">
        <ele>25.1</ele>
        <time>2020-02-22T16:25:36Z</time>
      </trkpt>
      <trkpt lat="38.7059500" lon="1.4580480">
        <ele>25.1</ele>
        <time>2020-02-22T16:25:37Z</time>
      </trkpt>
      <trkpt lat="38.7059970" lon="1.4579300">
        <ele>25.1</ele>
        <time>2020-02-22T16:25:38Z</time>
      </trkpt>
      <trkpt lat="38.7059970" lon="1.4579300">
        <ele>25.1</ele>
        <time>2020-02-22T16:25:39Z</time>
      </trkpt>
      <trkpt lat="38.7060420" lon="1.4578250">
        <ele>25.1</ele>
        <time>2020-02-22T16:25:40Z</time>
      </trkpt>
      <trkpt lat="38.7060420" lon="1.4578250">
        <ele>25.1</ele>
        <time>2020-02-22T16:25:41Z</time>
      </trkpt>
      <trkpt lat="38.7060920" lon="1.4577250">
        <ele>25.1</ele>
        <time>2020-02-22T16:25:42Z</time>
      </trkpt>
      <trkpt lat="38.7060920" lon="1.4577250">
        <ele>26.1</ele>
        <time>2020-02-22T16:25:43Z</time>
      </trkpt>
      <trkpt lat="38.7061370" lon="1.4576220">
        <ele>26.1</ele>
        <time>2020-02-22T16:25:44Z</time>
      </trkpt>
      <trkpt lat="38.7061370" lon="1.4576220">
        <ele>26.1</ele>
        <time>2020-02-22T16:25:45Z</time>
      </trkpt>
      <trkpt lat="38.7061830" lon="1.4575080">
        <ele>26.1</ele>
        <time>2020-02-22T16:25:46Z</time>
      </trkpt>
      <trkpt lat="38.7061830" lon="1.4575080">
        <ele>26.1</ele>
        <time>2020-02-22T16:25:47Z</time>
      </trkpt>
      <trkpt lat="38.7062370" lon="1.4573870">
        <ele>26.1</ele>
        <time>2020-02-22T16:25:48Z</time>
      </trkpt>
      <trkpt lat="38.7062370" lon="1.4573870">
        <ele>26.1</ele>
        <time>2020-02-22T16:25:49Z</time>
      </trkpt>
      <trkpt lat="38.7062980" lon="1.4572700">
        <ele>26.1</ele>
        <time>2020-02-22T16:25:50Z</time>
      </trkpt>
      <trkpt lat="38.7062980" lon="1.4572700">
        <ele>26.1</ele>
        <time>2020-02-22T16:25:51Z</time>
      </trkpt>
      <trkpt lat="38.7063550" lon="1.4571500">
        <ele>26.1</ele>
        <time>2020-02-22T16:25:52Z</time>
      </trkpt>
      <trkpt lat="38.7063550" lon="1.4571500">
        <ele>26.1</ele>
        <time>2020-02-22T16:25:53Z</time>
      </trkpt>
      <trkpt lat="38.7064070" lon="1.4570300">
        <ele>26.1</ele>
        <time>2020-02-22T16:25:54Z</time>
      </trkpt>
      <trkpt lat="38.7064070" lon="1.4570300">
        <ele>26.1</ele>
        <time>2020-02-22T16:25:55Z</time>
      </trkpt>
      <trkpt lat="38.7064630" lon="1.4569100">
        <ele>26.1</ele>
        <time>2020-02-22T16:25:56Z</time>
      </trkpt>
      <trkpt lat="38.7064630" lon="1.4569100">
        <ele>26.1</ele>
        <time>2020-02-22T16:25:57Z</time>
      </trkpt>
      <trkpt lat="38.7064900" lon="1.4568480">
        <ele>26.1</ele>
        <time>2020-02-22T16:25:58Z</time>
      </trkpt>
      <trkpt lat="38.7064900" lon="1.4568480">
        <ele>26.1</ele>
        <time>2020-02-22T16:25:59Z</time>
      </trkpt>
      <trkpt lat="38.7065630" lon="1.4566580">
        <ele>26.1</ele>
        <time>2020-02-22T16:26:00Z</time>
      </trkpt>
      <trkpt lat="38.7065630" lon="1.4566580">
        <ele>26.1</ele>
        <time>2020-02-22T16:26:01Z</time>
      </trkpt>
      <trkpt lat="38.7066170" lon="1.4565300">
        <ele>26.1</ele>
        <time>2020-02-22T16:26:02Z</time>
      </trkpt>
      <trkpt lat="38.7066170" lon="1.4565300">
        <ele>26.1</ele>
        <time>2020-02-22T16:26:03Z</time>
      </trkpt>
      <trkpt lat="38.7066700" lon="1.4564020">
        <ele>26.1</ele>
        <time>2020-02-22T16:26:04Z</time>
      </trkpt>
      <trkpt lat="38.7066700" lon="1.4564020">
        <ele>26.1</ele>
        <time>2020-02-22T16:26:05Z</time>
      </trkpt>
      <trkpt lat="38.7067320" lon="1.4562620">
        <ele>26.1</ele>
        <time>2020-02-22T16:26:06Z</time>
      </trkpt>
      <trkpt lat="38.7067320" lon="1.4562620">
        <ele>26.1</ele>
        <time>2020-02-22T16:26:07Z</time>
      </trkpt>
      <trkpt lat="38.7067930" lon="1.4561220">
        <ele>26.1</ele>
        <time>2020-02-22T16:26:08Z</time>
      </trkpt>
      <trkpt lat="38.7067930" lon="1.4561220">
        <ele>26.1</ele>
        <time>2020-02-22T16:26:09Z</time>
      </trkpt>
      <trkpt lat="38.7068620" lon="1.4559820">
        <ele>26.1</ele>
        <time>2020-02-22T16:26:10Z</time>
      </trkpt>
      <trkpt lat="38.7068620" lon="1.4559820">
        <ele>26.1</ele>
        <time>2020-02-22T16:26:11Z</time>
      </trkpt>
      <trkpt lat="38.7069230" lon="1.4558380">
        <ele>26.1</ele>
        <time>2020-02-22T16:26:12Z</time>
      </trkpt>
      <trkpt lat="38.7069230" lon="1.4558380">
        <ele>25.1</ele>
        <time>2020-02-22T16:26:13Z</time>
      </trkpt>
      <trkpt lat="38.7069830" lon="1.4556970">
        <ele>25.1</ele>
        <time>2020-02-22T16:26:14Z</time>
      </trkpt>
      <trkpt lat="38.7070150" lon="1.4556270">
        <ele>25.1</ele>
        <time>2020-02-22T16:26:15Z</time>
      </trkpt>
      <trkpt lat="38.7070150" lon="1.4556270">
        <ele>25.1</ele>
        <time>2020-02-22T16:26:16Z</time>
      </trkpt>
      <trkpt lat="38.7070820" lon="1.4554900">
        <ele>25.1</ele>
        <time>2020-02-22T16:26:17Z</time>
      </trkpt>
      <trkpt lat="38.7071120" lon="1.4554220">
        <ele>25.1</ele>
        <time>2020-02-22T16:26:18Z</time>
      </trkpt>
      <trkpt lat="38.7071430" lon="1.4553550">
        <ele>25.1</ele>
        <time>2020-02-22T16:26:19Z</time>
      </trkpt>
      <trkpt lat="38.7071430" lon="1.4553550">
        <ele>25.1</ele>
        <time>2020-02-22T16:26:20Z</time>
      </trkpt>
      <trkpt lat="38.7072070" lon="1.4552200">
        <ele>25.1</ele>
        <time>2020-02-22T16:26:21Z</time>
      </trkpt>
      <trkpt lat="38.7072070" lon="1.4552200">
        <ele>25.1</ele>
        <time>2020-02-22T16:26:22Z</time>
      </trkpt>
      <trkpt lat="38.7072700" lon="1.4550830">
        <ele>25.1</ele>
        <time>2020-02-22T16:26:23Z</time>
      </trkpt>
      <trkpt lat="38.7072970" lon="1.4550150">
        <ele>25.1</ele>
        <time>2020-02-22T16:26:24Z</time>
      </trkpt>
      <trkpt lat="38.7072970" lon="1.4550150">
        <ele>24.1</ele>
        <time>2020-02-22T16:26:25Z</time>
      </trkpt>
      <trkpt lat="38.7073600" lon="1.4548830">
        <ele>24.1</ele>
        <time>2020-02-22T16:26:26Z</time>
      </trkpt>
      <trkpt lat="38.7073600" lon="1.4548830">
        <ele>24.1</ele>
        <time>2020-02-22T16:26:27Z</time>
      </trkpt>
      <trkpt lat="38.7074200" lon="1.4547500">
        <ele>24.1</ele>
        <time>2020-02-22T16:26:28Z</time>
      </trkpt>
      <trkpt lat="38.7074200" lon="1.4547500">
        <ele>24.1</ele>
        <time>2020-02-22T16:26:29Z</time>
      </trkpt>
      <trkpt lat="38.7074970" lon="1.4546400">
        <ele>24.1</ele>
        <time>2020-02-22T16:26:30Z</time>
      </trkpt>
      <trkpt lat="38.7075470" lon="1.4546030">
        <ele>24.1</ele>
        <time>2020-02-22T16:26:31Z</time>
      </trkpt>
      <trkpt lat="38.7075470" lon="1.4546030">
        <ele>23.1</ele>
        <time>2020-02-22T16:26:32Z</time>
      </trkpt>
      <trkpt lat="38.7076420" lon="1.4545420">
        <ele>23.1</ele>
        <time>2020-02-22T16:26:33Z</time>
      </trkpt>
      <trkpt lat="38.7076420" lon="1.4545420">
        <ele>23.1</ele>
        <time>2020-02-22T16:26:34Z</time>
      </trkpt>
      <trkpt lat="38.7076870" lon="1.4544200">
        <ele>23.1</ele>
        <time>2020-02-22T16:26:35Z</time>
      </trkpt>
      <trkpt lat="38.7076880" lon="1.4543480">
        <ele>22.1</ele>
        <time>2020-02-22T16:26:36Z</time>
      </trkpt>
      <trkpt lat="38.7076880" lon="1.4543480">
        <ele>22.1</ele>
        <time>2020-02-22T16:26:37Z</time>
      </trkpt>
      <trkpt lat="38.7076780" lon="1.4542100">
        <ele>22.1</ele>
        <time>2020-02-22T16:26:38Z</time>
      </trkpt>
      <trkpt lat="38.7076780" lon="1.4542100">
        <ele>22.1</ele>
        <time>2020-02-22T16:26:39Z</time>
      </trkpt>
      <trkpt lat="38.7076850" lon="1.4540670">
        <ele>22.1</ele>
        <time>2020-02-22T16:26:40Z</time>
      </trkpt>
      <trkpt lat="38.7076850" lon="1.4540670">
        <ele>22.1</ele>
        <time>2020-02-22T16:26:41Z</time>
      </trkpt>
      <trkpt lat="38.7077000" lon="1.4539100">
        <ele>22.1</ele>
        <time>2020-02-22T16:26:42Z</time>
      </trkpt>
      <trkpt lat="38.7077000" lon="1.4539100">
        <ele>22.1</ele>
        <time>2020-02-22T16:26:43Z</time>
      </trkpt>
      <trkpt lat="38.7077170" lon="1.4537470">
        <ele>22.1</ele>
        <time>2020-02-22T16:26:44Z</time>
      </trkpt>
      <trkpt lat="38.7077170" lon="1.4537470">
        <ele>22.1</ele>
        <time>2020-02-22T16:26:45Z</time>
      </trkpt>
      <trkpt lat="38.7077320" lon="1.4535730">
        <ele>22.1</ele>
        <time>2020-02-22T16:26:46Z</time>
      </trkpt>
      <trkpt lat="38.7077400" lon="1.4534850">
        <ele>22.1</ele>
        <time>2020-02-22T16:26:47Z</time>
      </trkpt>
      <trkpt lat="38.7077400" lon="1.4534850">
        <ele>22.1</ele>
        <time>2020-02-22T16:26:48Z</time>
      </trkpt>
      <trkpt lat="38.7077520" lon="1.4533070">
        <ele>22.1</ele>
        <time>2020-02-22T16:26:49Z</time>
      </trkpt>
      <trkpt lat="38.7077580" lon="1.4532170">
        <ele>22.1</ele>
        <time>2020-02-22T16:26:50Z</time>
      </trkpt>
      <trkpt lat="38.7077580" lon="1.4532170">
        <ele>22.1</ele>
        <time>2020-02-22T16:26:51Z</time>
      </trkpt>
      <trkpt lat="38.7077700" lon="1.4530420">
        <ele>21.1</ele>
        <time>2020-02-22T16:26:52Z</time>
      </trkpt>
      <trkpt lat="38.7077700" lon="1.4530420">
        <ele>21.1</ele>
        <time>2020-02-22T16:26:53Z</time>
      </trkpt>
      <trkpt lat="38.7077820" lon="1.4528700">
        <ele>21.1</ele>
        <time>2020-02-22T16:26:54Z</time>
      </trkpt>
      <trkpt lat="38.7077820" lon="1.4528700">
        <ele>21.1</ele>
        <time>2020-02-22T16:26:55Z</time>
      </trkpt>
      <trkpt lat="38.7077950" lon="1.4527030">
        <ele>21.1</ele>
        <time>2020-02-22T16:26:56Z</time>
      </trkpt>
      <trkpt lat="38.7077950" lon="1.4527030">
        <ele>21.1</ele>
        <time>2020-02-22T16:26:57Z</time>
      </trkpt>
      <trkpt lat="38.7078070" lon="1.4525450">
        <ele>21.1</ele>
        <time>2020-02-22T16:26:58Z</time>
      </trkpt>
      <trkpt lat="38.7078070" lon="1.4525450">
        <ele>21.1</ele>
        <time>2020-02-22T16:26:59Z</time>
      </trkpt>
      <trkpt lat="38.7078150" lon="1.4523950">
        <ele>21.1</ele>
        <time>2020-02-22T16:27:00Z</time>
      </trkpt>
      <trkpt lat="38.7078150" lon="1.4523950">
        <ele>21.1</ele>
        <time>2020-02-22T16:27:01Z</time>
      </trkpt>
      <trkpt lat="38.7078280" lon="1.4522430">
        <ele>21.1</ele>
        <time>2020-02-22T16:27:02Z</time>
      </trkpt>
      <trkpt lat="38.7078280" lon="1.4522430">
        <ele>21.1</ele>
        <time>2020-02-22T16:27:03Z</time>
      </trkpt>
      <trkpt lat="38.7078420" lon="1.4520870">
        <ele>21.1</ele>
        <time>2020-02-22T16:27:04Z</time>
      </trkpt>
      <trkpt lat="38.7078420" lon="1.4520870">
        <ele>21.1</ele>
        <time>2020-02-22T16:27:05Z</time>
      </trkpt>
      <trkpt lat="38.7078530" lon="1.4519200">
        <ele>21.1</ele>
        <time>2020-02-22T16:27:06Z</time>
      </trkpt>
      <trkpt lat="38.7078530" lon="1.4519200">
        <ele>21.1</ele>
        <time>2020-02-22T16:27:07Z</time>
      </trkpt>
      <trkpt lat="38.7078670" lon="1.4517500">
        <ele>21.1</ele>
        <time>2020-02-22T16:27:08Z</time>
      </trkpt>
      <trkpt lat="38.7078670" lon="1.4517500">
        <ele>21.1</ele>
        <time>2020-02-22T16:27:09Z</time>
      </trkpt>
      <trkpt lat="38.7078820" lon="1.4515800">
        <ele>21.1</ele>
        <time>2020-02-22T16:27:10Z</time>
      </trkpt>
      <trkpt lat="38.7078820" lon="1.4515800">
        <ele>21.1</ele>
        <time>2020-02-22T16:27:11Z</time>
      </trkpt>
      <trkpt lat="38.7078970" lon="1.4514150">
        <ele>21.1</ele>
        <time>2020-02-22T16:27:12Z</time>
      </trkpt>
      <trkpt lat="38.7078970" lon="1.4514150">
        <ele>20.1</ele>
        <time>2020-02-22T16:27:13Z</time>
      </trkpt>
      <trkpt lat="38.7079080" lon="1.4512500">
        <ele>20.1</ele>
        <time>2020-02-22T16:27:14Z</time>
      </trkpt>
      <trkpt lat="38.7079080" lon="1.4512500">
        <ele>20.1</ele>
        <time>2020-02-22T16:27:15Z</time>
      </trkpt>
      <trkpt lat="38.7079220" lon="1.4510850">
        <ele>20.1</ele>
        <time>2020-02-22T16:27:16Z</time>
      </trkpt>
      <trkpt lat="38.7079270" lon="1.4510000">
        <ele>20.1</ele>
        <time>2020-02-22T16:27:17Z</time>
      </trkpt>
      <trkpt lat="38.7079270" lon="1.4510000">
        <ele>20.1</ele>
        <time>2020-02-22T16:27:18Z</time>
      </trkpt>
      <trkpt lat="38.7079400" lon="1.4508330">
        <ele>20.1</ele>
        <time>2020-02-22T16:27:19Z</time>
      </trkpt>
      <trkpt lat="38.7079400" lon="1.4508330">
        <ele>20.1</ele>
        <time>2020-02-22T16:27:20Z</time>
      </trkpt>
      <trkpt lat="38.7079530" lon="1.4506700">
        <ele>20.1</ele>
        <time>2020-02-22T16:27:21Z</time>
      </trkpt>
      <trkpt lat="38.7079530" lon="1.4506700">
        <ele>20.1</ele>
        <time>2020-02-22T16:27:22Z</time>
      </trkpt>
      <trkpt lat="38.7079630" lon="1.4505070">
        <ele>20.1</ele>
        <time>2020-02-22T16:27:23Z</time>
      </trkpt>
      <trkpt lat="38.7079700" lon="1.4504250">
        <ele>20.1</ele>
        <time>2020-02-22T16:27:24Z</time>
      </trkpt>
      <trkpt lat="38.7079700" lon="1.4504250">
        <ele>20.1</ele>
        <time>2020-02-22T16:27:25Z</time>
      </trkpt>
      <trkpt lat="38.7079820" lon="1.4502580">
        <ele>20.1</ele>
        <time>2020-02-22T16:27:26Z</time>
      </trkpt>
      <trkpt lat="38.7079820" lon="1.4502580">
        <ele>20.1</ele>
        <time>2020-02-22T16:27:27Z</time>
      </trkpt>
      <trkpt lat="38.7079950" lon="1.4500880">
        <ele>20.1</ele>
        <time>2020-02-22T16:27:28Z</time>
      </trkpt>
      <trkpt lat="38.7079950" lon="1.4500880">
        <ele>20.1</ele>
        <time>2020-02-22T16:27:29Z</time>
      </trkpt>
      <trkpt lat="38.7080080" lon="1.4499080">
        <ele>20.1</ele>
        <time>2020-02-22T16:27:30Z</time>
      </trkpt>
      <trkpt lat="38.7080080" lon="1.4499080">
        <ele>20.1</ele>
        <time>2020-02-22T16:27:31Z</time>
      </trkpt>
      <trkpt lat="38.7080230" lon="1.4497230">
        <ele>19.1</ele>
        <time>2020-02-22T16:27:32Z</time>
      </trkpt>
      <trkpt lat="38.7080230" lon="1.4497230">
        <ele>19.1</ele>
        <time>2020-02-22T16:27:33Z</time>
      </trkpt>
      <trkpt lat="38.7080380" lon="1.4495370">
        <ele>19.1</ele>
        <time>2020-02-22T16:27:34Z</time>
      </trkpt>
      <trkpt lat="38.7080380" lon="1.4495370">
        <ele>19.1</ele>
        <time>2020-02-22T16:27:35Z</time>
      </trkpt>
      <trkpt lat="38.7080530" lon="1.4493520">
        <ele>19.1</ele>
        <time>2020-02-22T16:27:36Z</time>
      </trkpt>
      <trkpt lat="38.7080620" lon="1.4492620">
        <ele>19.1</ele>
        <time>2020-02-22T16:27:37Z</time>
      </trkpt>
      <trkpt lat="38.7080670" lon="1.4491670">
        <ele>19.1</ele>
        <time>2020-02-22T16:27:38Z</time>
      </trkpt>
      <trkpt lat="38.7080670" lon="1.4491670">
        <ele>19.1</ele>
        <time>2020-02-22T16:27:39Z</time>
      </trkpt>
      <trkpt lat="38.7080800" lon="1.4489750">
        <ele>19.1</ele>
        <time>2020-02-22T16:27:40Z</time>
      </trkpt>
      <trkpt lat="38.7080800" lon="1.4489750">
        <ele>19.1</ele>
        <time>2020-02-22T16:27:41Z</time>
      </trkpt>
      <trkpt lat="38.7080950" lon="1.4487730">
        <ele>19.1</ele>
        <time>2020-02-22T16:27:42Z</time>
      </trkpt>
      <trkpt lat="38.7080950" lon="1.4487730">
        <ele>19.1</ele>
        <time>2020-02-22T16:27:43Z</time>
      </trkpt>
      <trkpt lat="38.7081100" lon="1.4485630">
        <ele>19.1</ele>
        <time>2020-02-22T16:27:44Z</time>
      </trkpt>
      <trkpt lat="38.7081100" lon="1.4485630">
        <ele>19.1</ele>
        <time>2020-02-22T16:27:45Z</time>
      </trkpt>
      <trkpt lat="38.7081280" lon="1.4483550">
        <ele>19.1</ele>
        <time>2020-02-22T16:27:46Z</time>
      </trkpt>
      <trkpt lat="38.7081280" lon="1.4483550">
        <ele>19.1</ele>
        <time>2020-02-22T16:27:47Z</time>
      </trkpt>
      <trkpt lat="38.7081450" lon="1.4481520">
        <ele>19.1</ele>
        <time>2020-02-22T16:27:48Z</time>
      </trkpt>
      <trkpt lat="38.7081450" lon="1.4481520">
        <ele>19.1</ele>
        <time>2020-02-22T16:27:49Z</time>
      </trkpt>
      <trkpt lat="38.7081570" lon="1.4479520">
        <ele>19.1</ele>
        <time>2020-02-22T16:27:50Z</time>
      </trkpt>
      <trkpt lat="38.7081570" lon="1.4479520">
        <ele>19.1</ele>
        <time>2020-02-22T16:27:51Z</time>
      </trkpt>
      <trkpt lat="38.7081700" lon="1.4477530">
        <ele>19.1</ele>
        <time>2020-02-22T16:27:52Z</time>
      </trkpt>
      <trkpt lat="38.7081780" lon="1.4476550">
        <ele>18.1</ele>
        <time>2020-02-22T16:27:53Z</time>
      </trkpt>
      <trkpt lat="38.7081780" lon="1.4476550">
        <ele>18.1</ele>
        <time>2020-02-22T16:27:54Z</time>
      </trkpt>
      <trkpt lat="38.7081930" lon="1.4474600">
        <ele>18.1</ele>
        <time>2020-02-22T16:27:55Z</time>
      </trkpt>
      <trkpt lat="38.7082000" lon="1.4473620">
        <ele>18.1</ele>
        <time>2020-02-22T16:27:56Z</time>
      </trkpt>
      <trkpt lat="38.7082000" lon="1.4473620">
        <ele>18.1</ele>
        <time>2020-02-22T16:27:57Z</time>
      </trkpt>
      <trkpt lat="38.7082130" lon="1.4471680">
        <ele>18.1</ele>
        <time>2020-02-22T16:27:58Z</time>
      </trkpt>
      <trkpt lat="38.7082130" lon="1.4471680">
        <ele>18.1</ele>
        <time>2020-02-22T16:27:59Z</time>
      </trkpt>
      <trkpt lat="38.7082280" lon="1.4469770">
        <ele>18.1</ele>
        <time>2020-02-22T16:28:00Z</time>
      </trkpt>
      <trkpt lat="38.7082370" lon="1.4468820">
        <ele>17.1</ele>
        <time>2020-02-22T16:28:01Z</time>
      </trkpt>
      <trkpt lat="38.7082370" lon="1.4468820">
        <ele>17.1</ele>
        <time>2020-02-22T16:28:02Z</time>
      </trkpt>
      <trkpt lat="38.7082530" lon="1.4466900">
        <ele>17.1</ele>
        <time>2020-02-22T16:28:03Z</time>
      </trkpt>
      <trkpt lat="38.7082530" lon="1.4466900">
        <ele>17.1</ele>
        <time>2020-02-22T16:28:04Z</time>
      </trkpt>
      <trkpt lat="38.7082680" lon="1.4465020">
        <ele>17.1</ele>
        <time>2020-02-22T16:28:05Z</time>
      </trkpt>
      <trkpt lat="38.7082750" lon="1.4464080">
        <ele>17.1</ele>
        <time>2020-02-22T16:28:06Z</time>
      </trkpt>
      <trkpt lat="38.7082750" lon="1.4464080">
        <ele>17.1</ele>
        <time>2020-02-22T16:28:07Z</time>
      </trkpt>
      <trkpt lat="38.7082880" lon="1.4462200">
        <ele>17.1</ele>
        <time>2020-02-22T16:28:08Z</time>
      </trkpt>
      <trkpt lat="38.7082880" lon="1.4462200">
        <ele>17.1</ele>
        <time>2020-02-22T16:28:09Z</time>
      </trkpt>
      <trkpt lat="38.7083020" lon="1.4460350">
        <ele>17.1</ele>
        <time>2020-02-22T16:28:10Z</time>
      </trkpt>
      <trkpt lat="38.7083080" lon="1.4459430">
        <ele>17.1</ele>
        <time>2020-02-22T16:28:11Z</time>
      </trkpt>
      <trkpt lat="38.7083080" lon="1.4459430">
        <ele>17.1</ele>
        <time>2020-02-22T16:28:12Z</time>
      </trkpt>
      <trkpt lat="38.7083200" lon="1.4457630">
        <ele>17.1</ele>
        <time>2020-02-22T16:28:13Z</time>
      </trkpt>
      <trkpt lat="38.7083200" lon="1.4457630">
        <ele>17.1</ele>
        <time>2020-02-22T16:28:14Z</time>
      </trkpt>
      <trkpt lat="38.7083280" lon="1.4455830">
        <ele>17.1</ele>
        <time>2020-02-22T16:28:15Z</time>
      </trkpt>
      <trkpt lat="38.7083330" lon="1.4454950">
        <ele>17.1</ele>
        <time>2020-02-22T16:28:16Z</time>
      </trkpt>
      <trkpt lat="38.7083330" lon="1.4454950">
        <ele>17.1</ele>
        <time>2020-02-22T16:28:17Z</time>
      </trkpt>
      <trkpt lat="38.7083450" lon="1.4453170">
        <ele>17.1</ele>
        <time>2020-02-22T16:28:18Z</time>
      </trkpt>
      <trkpt lat="38.7083520" lon="1.4452270">
        <ele>17.1</ele>
        <time>2020-02-22T16:28:19Z</time>
      </trkpt>
      <trkpt lat="38.7083520" lon="1.4452270">
        <ele>17.1</ele>
        <time>2020-02-22T16:28:20Z</time>
      </trkpt>
      <trkpt lat="38.7083630" lon="1.4450480">
        <ele>17.1</ele>
        <time>2020-02-22T16:28:21Z</time>
      </trkpt>
      <trkpt lat="38.7083720" lon="1.4449600">
        <ele>17.1</ele>
        <time>2020-02-22T16:28:22Z</time>
      </trkpt>
      <trkpt lat="38.7083800" lon="1.4448700">
        <ele>17.1</ele>
        <time>2020-02-22T16:28:23Z</time>
      </trkpt>
      <trkpt lat="38.7083800" lon="1.4448700">
        <ele>17.1</ele>
        <time>2020-02-22T16:28:24Z</time>
      </trkpt>
      <trkpt lat="38.7083950" lon="1.4446900">
        <ele>17.1</ele>
        <time>2020-02-22T16:28:25Z</time>
      </trkpt>
      <trkpt lat="38.7083950" lon="1.4446900">
        <ele>17.1</ele>
        <time>2020-02-22T16:28:26Z</time>
      </trkpt>
      <trkpt lat="38.7084070" lon="1.4445120">
        <ele>17.1</ele>
        <time>2020-02-22T16:28:27Z</time>
      </trkpt>
      <trkpt lat="38.7084070" lon="1.4445120">
        <ele>17.1</ele>
        <time>2020-02-22T16:28:28Z</time>
      </trkpt>
      <trkpt lat="38.7084170" lon="1.4443370">
        <ele>17.1</ele>
        <time>2020-02-22T16:28:29Z</time>
      </trkpt>
      <trkpt lat="38.7084230" lon="1.4442480">
        <ele>17.1</ele>
        <time>2020-02-22T16:28:30Z</time>
      </trkpt>
      <trkpt lat="38.7084280" lon="1.4441620">
        <ele>17.1</ele>
        <time>2020-02-22T16:28:31Z</time>
      </trkpt>
      <trkpt lat="38.7084280" lon="1.4441620">
        <ele>17.1</ele>
        <time>2020-02-22T16:28:32Z</time>
      </trkpt>
      <trkpt lat="38.7084400" lon="1.4439870">
        <ele>17.1</ele>
        <time>2020-02-22T16:28:33Z</time>
      </trkpt>
      <trkpt lat="38.7084400" lon="1.4439870">
        <ele>17.1</ele>
        <time>2020-02-22T16:28:34Z</time>
      </trkpt>
      <trkpt lat="38.7084480" lon="1.4438100">
        <ele>17.1</ele>
        <time>2020-02-22T16:28:35Z</time>
      </trkpt>
      <trkpt lat="38.7084480" lon="1.4438100">
        <ele>17.1</ele>
        <time>2020-02-22T16:28:36Z</time>
      </trkpt>
      <trkpt lat="38.7084530" lon="1.4436280">
        <ele>17.1</ele>
        <time>2020-02-22T16:28:37Z</time>
      </trkpt>
      <trkpt lat="38.7084530" lon="1.4435370">
        <ele>17.1</ele>
        <time>2020-02-22T16:28:38Z</time>
      </trkpt>
      <trkpt lat="38.7084530" lon="1.4435370">
        <ele>17.1</ele>
        <time>2020-02-22T16:28:39Z</time>
      </trkpt>
      <trkpt lat="38.7084450" lon="1.4433580">
        <ele>17.1</ele>
        <time>2020-02-22T16:28:40Z</time>
      </trkpt>
      <trkpt lat="38.7084450" lon="1.4433580">
        <ele>17.1</ele>
        <time>2020-02-22T16:28:41Z</time>
      </trkpt>
      <trkpt lat="38.7084200" lon="1.4431880">
        <ele>17.1</ele>
        <time>2020-02-22T16:28:42Z</time>
      </trkpt>
      <trkpt lat="38.7083970" lon="1.4431080">
        <ele>17.1</ele>
        <time>2020-02-22T16:28:43Z</time>
      </trkpt>
      <trkpt lat="38.7083970" lon="1.4431080">
        <ele>17.1</ele>
        <time>2020-02-22T16:28:44Z</time>
      </trkpt>
      <trkpt lat="38.7083380" lon="1.4429450">
        <ele>17.1</ele>
        <time>2020-02-22T16:28:45Z</time>
      </trkpt>
      <trkpt lat="38.7083380" lon="1.4429450">
        <ele>17.1</ele>
        <time>2020-02-22T16:28:46Z</time>
      </trkpt>
      <trkpt lat="38.7082680" lon="1.4427820">
        <ele>17.1</ele>
        <time>2020-02-22T16:28:47Z</time>
      </trkpt>
      <trkpt lat="38.7082300" lon="1.4427000">
        <ele>17.1</ele>
        <time>2020-02-22T16:28:48Z</time>
      </trkpt>
      <trkpt lat="38.7081920" lon="1.4426220">
        <ele>16.1</ele>
        <time>2020-02-22T16:28:49Z</time>
      </trkpt>
      <trkpt lat="38.7081920" lon="1.4426220">
        <ele>16.1</ele>
        <time>2020-02-22T16:28:50Z</time>
      </trkpt>
      <trkpt lat="38.7081520" lon="1.4425430">
        <ele>16.1</ele>
        <time>2020-02-22T16:28:51Z</time>
      </trkpt>
      <trkpt lat="38.7080670" lon="1.4423880">
        <ele>16.1</ele>
        <time>2020-02-22T16:28:52Z</time>
      </trkpt>
      <trkpt lat="38.7080670" lon="1.4423880">
        <ele>16.1</ele>
        <time>2020-02-22T16:28:53Z</time>
      </trkpt>
      <trkpt lat="38.7079850" lon="1.4422320">
        <ele>16.1</ele>
        <time>2020-02-22T16:28:54Z</time>
      </trkpt>
      <trkpt lat="38.7079400" lon="1.4421550">
        <ele>16.1</ele>
        <time>2020-02-22T16:28:55Z</time>
      </trkpt>
      <trkpt lat="38.7078950" lon="1.4420800">
        <ele>16.1</ele>
        <time>2020-02-22T16:28:56Z</time>
      </trkpt>
      <trkpt lat="38.7078950" lon="1.4420800">
        <ele>15.1</ele>
        <time>2020-02-22T16:28:57Z</time>
      </trkpt>
      <trkpt lat="38.7078070" lon="1.4419230">
        <ele>15.1</ele>
        <time>2020-02-22T16:28:58Z</time>
      </trkpt>
      <trkpt lat="38.7078070" lon="1.4419230">
        <ele>15.1</ele>
        <time>2020-02-22T16:28:59Z</time>
      </trkpt>
      <trkpt lat="38.7077170" lon="1.4417670">
        <ele>15.1</ele>
        <time>2020-02-22T16:29:00Z</time>
      </trkpt>
      <trkpt lat="38.7077170" lon="1.4417670">
        <ele>15.1</ele>
        <time>2020-02-22T16:29:01Z</time>
      </trkpt>
      <trkpt lat="38.7076280" lon="1.4416100">
        <ele>15.1</ele>
        <time>2020-02-22T16:29:02Z</time>
      </trkpt>
      <trkpt lat="38.7076280" lon="1.4416100">
        <ele>14.1</ele>
        <time>2020-02-22T16:29:03Z</time>
      </trkpt>
      <trkpt lat="38.7075470" lon="1.4414550">
        <ele>14.1</ele>
        <time>2020-02-22T16:29:04Z</time>
      </trkpt>
      <trkpt lat="38.7075470" lon="1.4414550">
        <ele>14.1</ele>
        <time>2020-02-22T16:29:05Z</time>
      </trkpt>
      <trkpt lat="38.7074730" lon="1.4412970">
        <ele>14.1</ele>
        <time>2020-02-22T16:29:06Z</time>
      </trkpt>
      <trkpt lat="38.7074280" lon="1.4412270">
        <ele>14.1</ele>
        <time>2020-02-22T16:29:07Z</time>
      </trkpt>
      <trkpt lat="38.7074280" lon="1.4412270">
        <ele>14.1</ele>
        <time>2020-02-22T16:29:08Z</time>
      </trkpt>
      <trkpt lat="38.7073470" lon="1.4410770">
        <ele>14.1</ele>
        <time>2020-02-22T16:29:09Z</time>
      </trkpt>
      <trkpt lat="38.7073470" lon="1.4410770">
        <ele>14.1</ele>
        <time>2020-02-22T16:29:10Z</time>
      </trkpt>
      <trkpt lat="38.7072620" lon="1.4409320">
        <ele>14.1</ele>
        <time>2020-02-22T16:29:11Z</time>
      </trkpt>
      <trkpt lat="38.7072620" lon="1.4409320">
        <ele>14.1</ele>
        <time>2020-02-22T16:29:12Z</time>
      </trkpt>
      <trkpt lat="38.7071850" lon="1.4407980">
        <ele>14.1</ele>
        <time>2020-02-22T16:29:13Z</time>
      </trkpt>
      <trkpt lat="38.7071480" lon="1.4407320">
        <ele>14.1</ele>
        <time>2020-02-22T16:29:14Z</time>
      </trkpt>
      <trkpt lat="38.7071480" lon="1.4407320">
        <ele>14.1</ele>
        <time>2020-02-22T16:29:15Z</time>
      </trkpt>
      <trkpt lat="38.7070700" lon="1.4405920">
        <ele>14.1</ele>
        <time>2020-02-22T16:29:16Z</time>
      </trkpt>
      <trkpt lat="38.7070700" lon="1.4405920">
        <ele>14.1</ele>
        <time>2020-02-22T16:29:17Z</time>
      </trkpt>
      <trkpt lat="38.7070020" lon="1.4404550">
        <ele>14.1</ele>
        <time>2020-02-22T16:29:18Z</time>
      </trkpt>
      <trkpt lat="38.7069650" lon="1.4403920">
        <ele>14.1</ele>
        <time>2020-02-22T16:29:19Z</time>
      </trkpt>
      <trkpt lat="38.7069650" lon="1.4403920">
        <ele>14.1</ele>
        <time>2020-02-22T16:29:20Z</time>
      </trkpt>
      <trkpt lat="38.7068930" lon="1.4402600">
        <ele>14.1</ele>
        <time>2020-02-22T16:29:21Z</time>
      </trkpt>
      <trkpt lat="38.7068930" lon="1.4402600">
        <ele>14.1</ele>
        <time>2020-02-22T16:29:22Z</time>
      </trkpt>
      <trkpt lat="38.7068200" lon="1.4401280">
        <ele>14.1</ele>
        <time>2020-02-22T16:29:23Z</time>
      </trkpt>
      <trkpt lat="38.7068200" lon="1.4401280">
        <ele>14.1</ele>
        <time>2020-02-22T16:29:24Z</time>
      </trkpt>
      <trkpt lat="38.7067480" lon="1.4400000">
        <ele>14.1</ele>
        <time>2020-02-22T16:29:25Z</time>
      </trkpt>
      <trkpt lat="38.7067120" lon="1.4399370">
        <ele>14.1</ele>
        <time>2020-02-22T16:29:26Z</time>
      </trkpt>
      <trkpt lat="38.7067120" lon="1.4399370">
        <ele>15.1</ele>
        <time>2020-02-22T16:29:27Z</time>
      </trkpt>
      <trkpt lat="38.7066420" lon="1.4398120">
        <ele>15.1</ele>
        <time>2020-02-22T16:29:28Z</time>
      </trkpt>
      <trkpt lat="38.7066420" lon="1.4398120">
        <ele>15.1</ele>
        <time>2020-02-22T16:29:29Z</time>
      </trkpt>
      <trkpt lat="38.7065720" lon="1.4396880">
        <ele>15.1</ele>
        <time>2020-02-22T16:29:30Z</time>
      </trkpt>
      <trkpt lat="38.7065720" lon="1.4396880">
        <ele>15.1</ele>
        <time>2020-02-22T16:29:31Z</time>
      </trkpt>
      <trkpt lat="38.7065030" lon="1.4395580">
        <ele>15.1</ele>
        <time>2020-02-22T16:29:32Z</time>
      </trkpt>
      <trkpt lat="38.7065030" lon="1.4395580">
        <ele>16.1</ele>
        <time>2020-02-22T16:29:33Z</time>
      </trkpt>
      <trkpt lat="38.7064320" lon="1.4394330">
        <ele>16.1</ele>
        <time>2020-02-22T16:29:34Z</time>
      </trkpt>
      <trkpt lat="38.7064320" lon="1.4394330">
        <ele>16.1</ele>
        <time>2020-02-22T16:29:35Z</time>
      </trkpt>
      <trkpt lat="38.7063570" lon="1.4393070">
        <ele>16.1</ele>
        <time>2020-02-22T16:29:36Z</time>
      </trkpt>
      <trkpt lat="38.7063570" lon="1.4393070">
        <ele>16.1</ele>
        <time>2020-02-22T16:29:37Z</time>
      </trkpt>
      <trkpt lat="38.7062870" lon="1.4391800">
        <ele>16.1</ele>
        <time>2020-02-22T16:29:38Z</time>
      </trkpt>
      <trkpt lat="38.7062870" lon="1.4391800">
        <ele>16.1</ele>
        <time>2020-02-22T16:29:39Z</time>
      </trkpt>
      <trkpt lat="38.7062250" lon="1.4390550">
        <ele>16.1</ele>
        <time>2020-02-22T16:29:40Z</time>
      </trkpt>
      <trkpt lat="38.7062250" lon="1.4390550">
        <ele>16.1</ele>
        <time>2020-02-22T16:29:41Z</time>
      </trkpt>
      <trkpt lat="38.7061580" lon="1.4389180">
        <ele>16.1</ele>
        <time>2020-02-22T16:29:42Z</time>
      </trkpt>
      <trkpt lat="38.7061580" lon="1.4389180">
        <ele>16.1</ele>
        <time>2020-02-22T16:29:43Z</time>
      </trkpt>
      <trkpt lat="38.7061020" lon="1.4387670">
        <ele>16.1</ele>
        <time>2020-02-22T16:29:44Z</time>
      </trkpt>
      <trkpt lat="38.7061020" lon="1.4387670">
        <ele>16.1</ele>
        <time>2020-02-22T16:29:45Z</time>
      </trkpt>
      <trkpt lat="38.7060480" lon="1.4386200">
        <ele>17.1</ele>
        <time>2020-02-22T16:29:46Z</time>
      </trkpt>
      <trkpt lat="38.7060270" lon="1.4385480">
        <ele>17.1</ele>
        <time>2020-02-22T16:29:47Z</time>
      </trkpt>
      <trkpt lat="38.7060270" lon="1.4385480">
        <ele>17.1</ele>
        <time>2020-02-22T16:29:48Z</time>
      </trkpt>
      <trkpt lat="38.7059850" lon="1.4383970">
        <ele>17.1</ele>
        <time>2020-02-22T16:29:49Z</time>
      </trkpt>
      <trkpt lat="38.7059650" lon="1.4383200">
        <ele>17.1</ele>
        <time>2020-02-22T16:29:50Z</time>
      </trkpt>
      <trkpt lat="38.7059650" lon="1.4383200">
        <ele>17.1</ele>
        <time>2020-02-22T16:29:51Z</time>
      </trkpt>
      <trkpt lat="38.7059330" lon="1.4381670">
        <ele>17.1</ele>
        <time>2020-02-22T16:29:52Z</time>
      </trkpt>
      <trkpt lat="38.7059180" lon="1.4380900">
        <ele>17.1</ele>
        <time>2020-02-22T16:29:53Z</time>
      </trkpt>
      <trkpt lat="38.7059180" lon="1.4380900">
        <ele>17.1</ele>
        <time>2020-02-22T16:29:54Z</time>
      </trkpt>
      <trkpt lat="38.7058930" lon="1.4379380">
        <ele>17.1</ele>
        <time>2020-02-22T16:29:55Z</time>
      </trkpt>
      <trkpt lat="38.7058820" lon="1.4378620">
        <ele>17.1</ele>
        <time>2020-02-22T16:29:56Z</time>
      </trkpt>
      <trkpt lat="38.7058820" lon="1.4378620">
        <ele>17.1</ele>
        <time>2020-02-22T16:29:57Z</time>
      </trkpt>
      <trkpt lat="38.7058630" lon="1.4377100">
        <ele>17.1</ele>
        <time>2020-02-22T16:29:58Z</time>
      </trkpt>
      <trkpt lat="38.7058630" lon="1.4377100">
        <ele>17.1</ele>
        <time>2020-02-22T16:29:59Z</time>
      </trkpt>
      <trkpt lat="38.7058630" lon="1.4377100">
        <ele>17.1</ele>
        <time>2020-02-22T16:30:00Z</time>
      </trkpt>
      <trkpt lat="38.7058500" lon="1.4375630">
        <ele>17.1</ele>
        <time>2020-02-22T16:30:01Z</time>
      </trkpt>
      <trkpt lat="38.7058420" lon="1.4374180">
        <ele>17.1</ele>
        <time>2020-02-22T16:30:02Z</time>
      </trkpt>
      <trkpt lat="38.7058420" lon="1.4374180">
        <ele>18.1</ele>
        <time>2020-02-22T16:30:03Z</time>
      </trkpt>
      <trkpt lat="38.7058350" lon="1.4372670">
        <ele>18.1</ele>
        <time>2020-02-22T16:30:04Z</time>
      </trkpt>
      <trkpt lat="38.7058350" lon="1.4372670">
        <ele>18.1</ele>
        <time>2020-02-22T16:30:05Z</time>
      </trkpt>
      <trkpt lat="38.7058300" lon="1.4371180">
        <ele>18.1</ele>
        <time>2020-02-22T16:30:06Z</time>
      </trkpt>
      <trkpt lat="38.7058280" lon="1.4370470">
        <ele>18.1</ele>
        <time>2020-02-22T16:30:07Z</time>
      </trkpt>
      <trkpt lat="38.7058270" lon="1.4369680">
        <ele>18.1</ele>
        <time>2020-02-22T16:30:08Z</time>
      </trkpt>
      <trkpt lat="38.7058270" lon="1.4369680">
        <ele>18.1</ele>
        <time>2020-02-22T16:30:09Z</time>
      </trkpt>
      <trkpt lat="38.7058250" lon="1.4368220">
        <ele>18.1</ele>
        <time>2020-02-22T16:30:10Z</time>
      </trkpt>
      <trkpt lat="38.7058250" lon="1.4367480">
        <ele>18.1</ele>
        <time>2020-02-22T16:30:11Z</time>
      </trkpt>
      <trkpt lat="38.7058250" lon="1.4367480">
        <ele>18.1</ele>
        <time>2020-02-22T16:30:12Z</time>
      </trkpt>
      <trkpt lat="38.7058250" lon="1.4366000">
        <ele>18.1</ele>
        <time>2020-02-22T16:30:13Z</time>
      </trkpt>
      <trkpt lat="38.7058230" lon="1.4365230">
        <ele>18.1</ele>
        <time>2020-02-22T16:30:14Z</time>
      </trkpt>
      <trkpt lat="38.7058230" lon="1.4365230">
        <ele>19.1</ele>
        <time>2020-02-22T16:30:15Z</time>
      </trkpt>
      <trkpt lat="38.7058180" lon="1.4363720">
        <ele>19.1</ele>
        <time>2020-02-22T16:30:16Z</time>
      </trkpt>
      <trkpt lat="38.7058180" lon="1.4363720">
        <ele>19.1</ele>
        <time>2020-02-22T16:30:17Z</time>
      </trkpt>
      <trkpt lat="38.7058120" lon="1.4362220">
        <ele>19.1</ele>
        <time>2020-02-22T16:30:18Z</time>
      </trkpt>
      <trkpt lat="38.7058120" lon="1.4362220">
        <ele>19.1</ele>
        <time>2020-02-22T16:30:19Z</time>
      </trkpt>
      <trkpt lat="38.7058100" lon="1.4360720">
        <ele>20.1</ele>
        <time>2020-02-22T16:30:20Z</time>
      </trkpt>
      <trkpt lat="38.7058100" lon="1.4360720">
        <ele>20.1</ele>
        <time>2020-02-22T16:30:21Z</time>
      </trkpt>
      <trkpt lat="38.7058070" lon="1.4359170">
        <ele>20.1</ele>
        <time>2020-02-22T16:30:22Z</time>
      </trkpt>
      <trkpt lat="38.7058050" lon="1.4358420">
        <ele>20.1</ele>
        <time>2020-02-22T16:30:23Z</time>
      </trkpt>
      <trkpt lat="38.7058020" lon="1.4357670">
        <ele>20.1</ele>
        <time>2020-02-22T16:30:24Z</time>
      </trkpt>
      <trkpt lat="38.7058020" lon="1.4357670">
        <ele>20.1</ele>
        <time>2020-02-22T16:30:25Z</time>
      </trkpt>
      <trkpt lat="38.7057950" lon="1.4356170">
        <ele>20.1</ele>
        <time>2020-02-22T16:30:26Z</time>
      </trkpt>
      <trkpt lat="38.7057950" lon="1.4356170">
        <ele>20.1</ele>
        <time>2020-02-22T16:30:27Z</time>
      </trkpt>
      <trkpt lat="38.7057880" lon="1.4354580">
        <ele>20.1</ele>
        <time>2020-02-22T16:30:28Z</time>
      </trkpt>
      <trkpt lat="38.7057880" lon="1.4354580">
        <ele>20.1</ele>
        <time>2020-02-22T16:30:29Z</time>
      </trkpt>
      <trkpt lat="38.7057850" lon="1.4352950">
        <ele>20.1</ele>
        <time>2020-02-22T16:30:30Z</time>
      </trkpt>
      <trkpt lat="38.7057850" lon="1.4352950">
        <ele>20.1</ele>
        <time>2020-02-22T16:30:31Z</time>
      </trkpt>
      <trkpt lat="38.7057770" lon="1.4351330">
        <ele>20.1</ele>
        <time>2020-02-22T16:30:32Z</time>
      </trkpt>
      <trkpt lat="38.7057770" lon="1.4351330">
        <ele>20.1</ele>
        <time>2020-02-22T16:30:33Z</time>
      </trkpt>
      <trkpt lat="38.7057700" lon="1.4349650">
        <ele>20.1</ele>
        <time>2020-02-22T16:30:34Z</time>
      </trkpt>
      <trkpt lat="38.7057680" lon="1.4348820">
        <ele>20.1</ele>
        <time>2020-02-22T16:30:35Z</time>
      </trkpt>
      <trkpt lat="38.7057680" lon="1.4348820">
        <ele>20.1</ele>
        <time>2020-02-22T16:30:36Z</time>
      </trkpt>
      <trkpt lat="38.7057630" lon="1.4347220">
        <ele>20.1</ele>
        <time>2020-02-22T16:30:37Z</time>
      </trkpt>
      <trkpt lat="38.7057580" lon="1.4346430">
        <ele>20.1</ele>
        <time>2020-02-22T16:30:38Z</time>
      </trkpt>
      <trkpt lat="38.7057580" lon="1.4346430">
        <ele>20.1</ele>
        <time>2020-02-22T16:30:39Z</time>
      </trkpt>
      <trkpt lat="38.7057520" lon="1.4344830">
        <ele>20.1</ele>
        <time>2020-02-22T16:30:40Z</time>
      </trkpt>
      <trkpt lat="38.7057520" lon="1.4344830">
        <ele>20.1</ele>
        <time>2020-02-22T16:30:41Z</time>
      </trkpt>
      <trkpt lat="38.7057520" lon="1.4343220">
        <ele>20.1</ele>
        <time>2020-02-22T16:30:42Z</time>
      </trkpt>
      <trkpt lat="38.7057520" lon="1.4343220">
        <ele>20.1</ele>
        <time>2020-02-22T16:30:43Z</time>
      </trkpt>
      <trkpt lat="38.7057500" lon="1.4341630">
        <ele>20.1</ele>
        <time>2020-02-22T16:30:44Z</time>
      </trkpt>
      <trkpt lat="38.7057500" lon="1.4341630">
        <ele>20.1</ele>
        <time>2020-02-22T16:30:45Z</time>
      </trkpt>
      <trkpt lat="38.7057420" lon="1.4340130">
        <ele>20.1</ele>
        <time>2020-02-22T16:30:46Z</time>
      </trkpt>
      <trkpt lat="38.7057420" lon="1.4340130">
        <ele>20.1</ele>
        <time>2020-02-22T16:30:47Z</time>
      </trkpt>
      <trkpt lat="38.7057380" lon="1.4338680">
        <ele>20.1</ele>
        <time>2020-02-22T16:30:48Z</time>
      </trkpt>
      <trkpt lat="38.7057380" lon="1.4338680">
        <ele>20.1</ele>
        <time>2020-02-22T16:30:49Z</time>
      </trkpt>
      <trkpt lat="38.7057350" lon="1.4337180">
        <ele>20.1</ele>
        <time>2020-02-22T16:30:50Z</time>
      </trkpt>
      <trkpt lat="38.7057350" lon="1.4337180">
        <ele>20.1</ele>
        <time>2020-02-22T16:30:51Z</time>
      </trkpt>
      <trkpt lat="38.7057370" lon="1.4335720">
        <ele>20.1</ele>
        <time>2020-02-22T16:30:52Z</time>
      </trkpt>
      <trkpt lat="38.7057370" lon="1.4335720">
        <ele>20.1</ele>
        <time>2020-02-22T16:30:53Z</time>
      </trkpt>
      <trkpt lat="38.7057370" lon="1.4334380">
        <ele>20.1</ele>
        <time>2020-02-22T16:30:54Z</time>
      </trkpt>
      <trkpt lat="38.7057400" lon="1.4333780">
        <ele>21.1</ele>
        <time>2020-02-22T16:30:55Z</time>
      </trkpt>
      <trkpt lat="38.7057400" lon="1.4333780">
        <ele>21.1</ele>
        <time>2020-02-22T16:30:56Z</time>
      </trkpt>
      <trkpt lat="38.7057580" lon="1.4332680">
        <ele>21.1</ele>
        <time>2020-02-22T16:30:57Z</time>
      </trkpt>
      <trkpt lat="38.7057680" lon="1.4332130">
        <ele>21.1</ele>
        <time>2020-02-22T16:30:58Z</time>
      </trkpt>
      <trkpt lat="38.7057680" lon="1.4332130">
        <ele>21.1</ele>
        <time>2020-02-22T16:30:59Z</time>
      </trkpt>
      <trkpt lat="38.7058120" lon="1.4331150">
        <ele>22.1</ele>
        <time>2020-02-22T16:31:00Z</time>
      </trkpt>
      <trkpt lat="38.7058450" lon="1.4330730">
        <ele>22.1</ele>
        <time>2020-02-22T16:31:01Z</time>
      </trkpt>
      <trkpt lat="38.7058750" lon="1.4330270">
        <ele>22.1</ele>
        <time>2020-02-22T16:31:02Z</time>
      </trkpt>
      <trkpt lat="38.7058750" lon="1.4330270">
        <ele>22.1</ele>
        <time>2020-02-22T16:31:03Z</time>
      </trkpt>
      <trkpt lat="38.7059070" lon="1.4329070">
        <ele>22.1</ele>
        <time>2020-02-22T16:31:04Z</time>
      </trkpt>
      <trkpt lat="38.7059070" lon="1.4329070">
        <ele>22.1</ele>
        <time>2020-02-22T16:31:05Z</time>
      </trkpt>
      <trkpt lat="38.7058850" lon="1.4327830">
        <ele>22.1</ele>
        <time>2020-02-22T16:31:06Z</time>
      </trkpt>
      <trkpt lat="38.7058850" lon="1.4327830">
        <ele>22.1</ele>
        <time>2020-02-22T16:31:07Z</time>
      </trkpt>
      <trkpt lat="38.7058580" lon="1.4326720">
        <ele>23.1</ele>
        <time>2020-02-22T16:31:08Z</time>
      </trkpt>
      <trkpt lat="38.7058580" lon="1.4326720">
        <ele>23.1</ele>
        <time>2020-02-22T16:31:09Z</time>
      </trkpt>
      <trkpt lat="38.7058650" lon="1.4325530">
        <ele>24.1</ele>
        <time>2020-02-22T16:31:10Z</time>
      </trkpt>
      <trkpt lat="38.7058650" lon="1.4325530">
        <ele>24.1</ele>
        <time>2020-02-22T16:31:11Z</time>
      </trkpt>
      <trkpt lat="38.7059000" lon="1.4324330">
        <ele>24.1</ele>
        <time>2020-02-22T16:31:12Z</time>
      </trkpt>
      <trkpt lat="38.7059000" lon="1.4324330">
        <ele>24.1</ele>
        <time>2020-02-22T16:31:13Z</time>
      </trkpt>
      <trkpt lat="38.7059470" lon="1.4323130">
        <ele>25.1</ele>
        <time>2020-02-22T16:31:14Z</time>
      </trkpt>
      <trkpt lat="38.7059470" lon="1.4323130">
        <ele>25.1</ele>
        <time>2020-02-22T16:31:15Z</time>
      </trkpt>
      <trkpt lat="38.7060000" lon="1.4321880">
        <ele>25.1</ele>
        <time>2020-02-22T16:31:16Z</time>
      </trkpt>
      <trkpt lat="38.7060000" lon="1.4321880">
        <ele>25.1</ele>
        <time>2020-02-22T16:31:17Z</time>
      </trkpt>
      <trkpt lat="38.7060580" lon="1.4320620">
        <ele>25.1</ele>
        <time>2020-02-22T16:31:18Z</time>
      </trkpt>
      <trkpt lat="38.7060900" lon="1.4320050">
        <ele>25.1</ele>
        <time>2020-02-22T16:31:19Z</time>
      </trkpt>
      <trkpt lat="38.7061220" lon="1.4319530">
        <ele>26.1</ele>
        <time>2020-02-22T16:31:20Z</time>
      </trkpt>
      <trkpt lat="38.7061220" lon="1.4319530">
        <ele>26.1</ele>
        <time>2020-02-22T16:31:21Z</time>
      </trkpt>
      <trkpt lat="38.7061920" lon="1.4318580">
        <ele>26.1</ele>
        <time>2020-02-22T16:31:22Z</time>
      </trkpt>
      <trkpt lat="38.7061920" lon="1.4318580">
        <ele>26.1</ele>
        <time>2020-02-22T16:31:23Z</time>
      </trkpt>
      <trkpt lat="38.7062600" lon="1.4317670">
        <ele>27.1</ele>
        <time>2020-02-22T16:31:24Z</time>
      </trkpt>
      <trkpt lat="38.7062600" lon="1.4317670">
        <ele>27.1</ele>
        <time>2020-02-22T16:31:25Z</time>
      </trkpt>
      <trkpt lat="38.7063350" lon="1.4316800">
        <ele>27.1</ele>
        <time>2020-02-22T16:31:26Z</time>
      </trkpt>
      <trkpt lat="38.7063350" lon="1.4316800">
        <ele>27.1</ele>
        <time>2020-02-22T16:31:27Z</time>
      </trkpt>
      <trkpt lat="38.7064150" lon="1.4315980">
        <ele>27.1</ele>
        <time>2020-02-22T16:31:28Z</time>
      </trkpt>
      <trkpt lat="38.7064150" lon="1.4315980">
        <ele>27.1</ele>
        <time>2020-02-22T16:31:29Z</time>
      </trkpt>
      <trkpt lat="38.7064150" lon="1.4315980">
        <ele>28.1</ele>
        <time>2020-02-22T16:31:30Z</time>
      </trkpt>
      <trkpt lat="38.7065000" lon="1.4315180">
        <ele>28.1</ele>
        <time>2020-02-22T16:31:31Z</time>
      </trkpt>
      <trkpt lat="38.7065850" lon="1.4314450">
        <ele>28.1</ele>
        <time>2020-02-22T16:31:32Z</time>
      </trkpt>
      <trkpt lat="38.7065850" lon="1.4314450">
        <ele>28.1</ele>
        <time>2020-02-22T16:31:33Z</time>
      </trkpt>
      <trkpt lat="38.7066680" lon="1.4313720">
        <ele>28.1</ele>
        <time>2020-02-22T16:31:34Z</time>
      </trkpt>
      <trkpt lat="38.7066680" lon="1.4313720">
        <ele>29.1</ele>
        <time>2020-02-22T16:31:35Z</time>
      </trkpt>
      <trkpt lat="38.7067570" lon="1.4313070">
        <ele>29.1</ele>
        <time>2020-02-22T16:31:36Z</time>
      </trkpt>
      <trkpt lat="38.7067570" lon="1.4313070">
        <ele>29.1</ele>
        <time>2020-02-22T16:31:37Z</time>
      </trkpt>
      <trkpt lat="38.7068520" lon="1.4312520">
        <ele>30.1</ele>
        <time>2020-02-22T16:31:38Z</time>
      </trkpt>
      <trkpt lat="38.7068520" lon="1.4312520">
        <ele>30.1</ele>
        <time>2020-02-22T16:31:39Z</time>
      </trkpt>
      <trkpt lat="38.7069530" lon="1.4312050">
        <ele>30.1</ele>
        <time>2020-02-22T16:31:40Z</time>
      </trkpt>
      <trkpt lat="38.7070070" lon="1.4311820">
        <ele>30.1</ele>
        <time>2020-02-22T16:31:41Z</time>
      </trkpt>
      <trkpt lat="38.7070070" lon="1.4311820">
        <ele>30.1</ele>
        <time>2020-02-22T16:31:42Z</time>
      </trkpt>
      <trkpt lat="38.7071150" lon="1.4311250">
        <ele>30.1</ele>
        <time>2020-02-22T16:31:43Z</time>
      </trkpt>
      <trkpt lat="38.7071720" lon="1.4310850">
        <ele>30.1</ele>
        <time>2020-02-22T16:31:44Z</time>
      </trkpt>
      <trkpt lat="38.7071720" lon="1.4310850">
        <ele>30.1</ele>
        <time>2020-02-22T16:31:45Z</time>
      </trkpt>
      <trkpt lat="38.7072780" lon="1.4309980">
        <ele>30.1</ele>
        <time>2020-02-22T16:31:46Z</time>
      </trkpt>
      <trkpt lat="38.7073320" lon="1.4309620">
        <ele>30.1</ele>
        <time>2020-02-22T16:31:47Z</time>
      </trkpt>
      <trkpt lat="38.7073320" lon="1.4309620">
        <ele>30.1</ele>
        <time>2020-02-22T16:31:48Z</time>
      </trkpt>
      <trkpt lat="38.7074470" lon="1.4308920">
        <ele>30.1</ele>
        <time>2020-02-22T16:31:49Z</time>
      </trkpt>
      <trkpt lat="38.7074470" lon="1.4308920">
        <ele>30.1</ele>
        <time>2020-02-22T16:31:50Z</time>
      </trkpt>
      <trkpt lat="38.7075620" lon="1.4308220">
        <ele>30.1</ele>
        <time>2020-02-22T16:31:51Z</time>
      </trkpt>
      <trkpt lat="38.7075620" lon="1.4308220">
        <ele>30.1</ele>
        <time>2020-02-22T16:31:52Z</time>
      </trkpt>
      <trkpt lat="38.7076780" lon="1.4307550">
        <ele>30.1</ele>
        <time>2020-02-22T16:31:53Z</time>
      </trkpt>
      <trkpt lat="38.7076780" lon="1.4307550">
        <ele>30.1</ele>
        <time>2020-02-22T16:31:54Z</time>
      </trkpt>
      <trkpt lat="38.7078000" lon="1.4306880">
        <ele>30.1</ele>
        <time>2020-02-22T16:31:55Z</time>
      </trkpt>
      <trkpt lat="38.7078600" lon="1.4306570">
        <ele>30.1</ele>
        <time>2020-02-22T16:31:56Z</time>
      </trkpt>
      <trkpt lat="38.7078600" lon="1.4306570">
        <ele>30.1</ele>
        <time>2020-02-22T16:31:57Z</time>
      </trkpt>
      <trkpt lat="38.7079770" lon="1.4305880">
        <ele>30.1</ele>
        <time>2020-02-22T16:31:58Z</time>
      </trkpt>
      <trkpt lat="38.7079770" lon="1.4305880">
        <ele>30.1</ele>
        <time>2020-02-22T16:31:59Z</time>
      </trkpt>
      <trkpt lat="38.7080370" lon="1.4305570">
        <ele>30.1</ele>
        <time>2020-02-22T16:32:00Z</time>
      </trkpt>
      <trkpt lat="38.7081550" lon="1.4304930">
        <ele>30.1</ele>
        <time>2020-02-22T16:32:01Z</time>
      </trkpt>
      <trkpt lat="38.7082150" lon="1.4304630">
        <ele>30.1</ele>
        <time>2020-02-22T16:32:02Z</time>
      </trkpt>
      <trkpt lat="38.7082150" lon="1.4304630">
        <ele>30.1</ele>
        <time>2020-02-22T16:32:03Z</time>
      </trkpt>
      <trkpt lat="38.7083270" lon="1.4303920">
        <ele>30.1</ele>
        <time>2020-02-22T16:32:04Z</time>
      </trkpt>
      <trkpt lat="38.7083870" lon="1.4303550">
        <ele>30.1</ele>
        <time>2020-02-22T16:32:05Z</time>
      </trkpt>
      <trkpt lat="38.7084430" lon="1.4303170">
        <ele>30.1</ele>
        <time>2020-02-22T16:32:06Z</time>
      </trkpt>
      <trkpt lat="38.7084430" lon="1.4303170">
        <ele>30.1</ele>
        <time>2020-02-22T16:32:07Z</time>
      </trkpt>
      <trkpt lat="38.7085580" lon="1.4302500">
        <ele>30.1</ele>
        <time>2020-02-22T16:32:08Z</time>
      </trkpt>
      <trkpt lat="38.7085580" lon="1.4302500">
        <ele>30.1</ele>
        <time>2020-02-22T16:32:09Z</time>
      </trkpt>
      <trkpt lat="38.7086180" lon="1.4302130">
        <ele>30.1</ele>
        <time>2020-02-22T16:32:10Z</time>
      </trkpt>
      <trkpt lat="38.7087430" lon="1.4301350">
        <ele>30.1</ele>
        <time>2020-02-22T16:32:11Z</time>
      </trkpt>
      <trkpt lat="38.7087430" lon="1.4301350">
        <ele>30.1</ele>
        <time>2020-02-22T16:32:12Z</time>
      </trkpt>
      <trkpt lat="38.7088720" lon="1.4300620">
        <ele>30.1</ele>
        <time>2020-02-22T16:32:13Z</time>
      </trkpt>
      <trkpt lat="38.7088720" lon="1.4300620">
        <ele>30.1</ele>
        <time>2020-02-22T16:32:14Z</time>
      </trkpt>
      <trkpt lat="38.7090050" lon="1.4299930">
        <ele>30.1</ele>
        <time>2020-02-22T16:32:15Z</time>
      </trkpt>
      <trkpt lat="38.7090050" lon="1.4299930">
        <ele>29.1</ele>
        <time>2020-02-22T16:32:16Z</time>
      </trkpt>
      <trkpt lat="38.7091370" lon="1.4299180">
        <ele>29.1</ele>
        <time>2020-02-22T16:32:17Z</time>
      </trkpt>
      <trkpt lat="38.7091370" lon="1.4299180">
        <ele>29.1</ele>
        <time>2020-02-22T16:32:18Z</time>
      </trkpt>
      <trkpt lat="38.7092730" lon="1.4298430">
        <ele>28.1</ele>
        <time>2020-02-22T16:32:19Z</time>
      </trkpt>
      <trkpt lat="38.7092730" lon="1.4298430">
        <ele>28.1</ele>
        <time>2020-02-22T16:32:20Z</time>
      </trkpt>
      <trkpt lat="38.7094120" lon="1.4297680">
        <ele>28.1</ele>
        <time>2020-02-22T16:32:21Z</time>
      </trkpt>
      <trkpt lat="38.7094120" lon="1.4297680">
        <ele>28.1</ele>
        <time>2020-02-22T16:32:22Z</time>
      </trkpt>
      <trkpt lat="38.7095520" lon="1.4296870">
        <ele>27.1</ele>
        <time>2020-02-22T16:32:23Z</time>
      </trkpt>
      <trkpt lat="38.7096220" lon="1.4296430">
        <ele>27.1</ele>
        <time>2020-02-22T16:32:24Z</time>
      </trkpt>
      <trkpt lat="38.7096220" lon="1.4296430">
        <ele>27.1</ele>
        <time>2020-02-22T16:32:25Z</time>
      </trkpt>
      <trkpt lat="38.7097670" lon="1.4295600">
        <ele>27.1</ele>
        <time>2020-02-22T16:32:26Z</time>
      </trkpt>
      <trkpt lat="38.7097670" lon="1.4295600">
        <ele>26.1</ele>
        <time>2020-02-22T16:32:27Z</time>
      </trkpt>
      <trkpt lat="38.7099170" lon="1.4294730">
        <ele>26.1</ele>
        <time>2020-02-22T16:32:28Z</time>
      </trkpt>
      <trkpt lat="38.7099950" lon="1.4294280">
        <ele>25.1</ele>
        <time>2020-02-22T16:32:29Z</time>
      </trkpt>
      <trkpt lat="38.7100720" lon="1.4293820">
        <ele>25.1</ele>
        <time>2020-02-22T16:32:30Z</time>
      </trkpt>
      <trkpt lat="38.7100720" lon="1.4293820">
        <ele>25.1</ele>
        <time>2020-02-22T16:32:31Z</time>
      </trkpt>
      <trkpt lat="38.7102350" lon="1.4292920">
        <ele>25.1</ele>
        <time>2020-02-22T16:32:32Z</time>
      </trkpt>
      <trkpt lat="38.7102350" lon="1.4292920">
        <ele>24.1</ele>
        <time>2020-02-22T16:32:33Z</time>
      </trkpt>
      <trkpt lat="38.7104000" lon="1.4291950">
        <ele>24.1</ele>
        <time>2020-02-22T16:32:34Z</time>
      </trkpt>
      <trkpt lat="38.7104000" lon="1.4291950">
        <ele>23.1</ele>
        <time>2020-02-22T16:32:35Z</time>
      </trkpt>
      <trkpt lat="38.7105670" lon="1.4290970">
        <ele>23.1</ele>
        <time>2020-02-22T16:32:36Z</time>
      </trkpt>
      <trkpt lat="38.7105670" lon="1.4290970">
        <ele>23.1</ele>
        <time>2020-02-22T16:32:37Z</time>
      </trkpt>
      <trkpt lat="38.7107350" lon="1.4289930">
        <ele>22.1</ele>
        <time>2020-02-22T16:32:38Z</time>
      </trkpt>
      <trkpt lat="38.7107350" lon="1.4289930">
        <ele>22.1</ele>
        <time>2020-02-22T16:32:39Z</time>
      </trkpt>
      <trkpt lat="38.7107350" lon="1.4289930">
        <ele>22.1</ele>
        <time>2020-02-22T16:32:40Z</time>
      </trkpt>
      <trkpt lat="38.7108980" lon="1.4288970">
        <ele>22.1</ele>
        <time>2020-02-22T16:32:41Z</time>
      </trkpt>
      <trkpt lat="38.7110270" lon="1.4288230">
        <ele>21.1</ele>
        <time>2020-02-22T16:32:42Z</time>
      </trkpt>
      <trkpt lat="38.7110270" lon="1.4288230">
        <ele>21.1</ele>
        <time>2020-02-22T16:32:43Z</time>
      </trkpt>
      <trkpt lat="38.7111370" lon="1.4287670">
        <ele>21.1</ele>
        <time>2020-02-22T16:32:44Z</time>
      </trkpt>
      <trkpt lat="38.7111370" lon="1.4287670">
        <ele>21.1</ele>
        <time>2020-02-22T16:32:45Z</time>
      </trkpt>
      <trkpt lat="38.7112420" lon="1.4287070">
        <ele>21.1</ele>
        <time>2020-02-22T16:32:46Z</time>
      </trkpt>
      <trkpt lat="38.7112420" lon="1.4287070">
        <ele>21.1</ele>
        <time>2020-02-22T16:32:47Z</time>
      </trkpt>
      <trkpt lat="38.7113470" lon="1.4286470">
        <ele>21.1</ele>
        <time>2020-02-22T16:32:48Z</time>
      </trkpt>
      <trkpt lat="38.7113470" lon="1.4286470">
        <ele>21.1</ele>
        <time>2020-02-22T16:32:49Z</time>
      </trkpt>
      <trkpt lat="38.7114500" lon="1.4285880">
        <ele>21.1</ele>
        <time>2020-02-22T16:32:50Z</time>
      </trkpt>
      <trkpt lat="38.7114500" lon="1.4285880">
        <ele>21.1</ele>
        <time>2020-02-22T16:32:51Z</time>
      </trkpt>
      <trkpt lat="38.7115520" lon="1.4285280">
        <ele>21.1</ele>
        <time>2020-02-22T16:32:52Z</time>
      </trkpt>
      <trkpt lat="38.7115520" lon="1.4285280">
        <ele>21.1</ele>
        <time>2020-02-22T16:32:53Z</time>
      </trkpt>
      <trkpt lat="38.7116500" lon="1.4284720">
        <ele>20.1</ele>
        <time>2020-02-22T16:32:54Z</time>
      </trkpt>
      <trkpt lat="38.7116500" lon="1.4284720">
        <ele>20.1</ele>
        <time>2020-02-22T16:32:55Z</time>
      </trkpt>
      <trkpt lat="38.7117470" lon="1.4284200">
        <ele>20.1</ele>
        <time>2020-02-22T16:32:56Z</time>
      </trkpt>
      <trkpt lat="38.7117470" lon="1.4284200">
        <ele>20.1</ele>
        <time>2020-02-22T16:32:57Z</time>
      </trkpt>
      <trkpt lat="38.7118350" lon="1.4283720">
        <ele>20.1</ele>
        <time>2020-02-22T16:32:58Z</time>
      </trkpt>
      <trkpt lat="38.7118350" lon="1.4283720">
        <ele>20.1</ele>
        <time>2020-02-22T16:32:59Z</time>
      </trkpt>
      <trkpt lat="38.7119030" lon="1.4283330">
        <ele>20.1</ele>
        <time>2020-02-22T16:33:00Z</time>
      </trkpt>
      <trkpt lat="38.7119030" lon="1.4283330">
        <ele>20.1</ele>
        <time>2020-02-22T16:33:01Z</time>
      </trkpt>
      <trkpt lat="38.7119380" lon="1.4283150">
        <ele>20.1</ele>
        <time>2020-02-22T16:33:02Z</time>
      </trkpt>
      <trkpt lat="38.7119380" lon="1.4283150">
        <ele>20.1</ele>
        <time>2020-02-22T16:33:03Z</time>
      </trkpt>
      <trkpt lat="38.7119430" lon="1.4283130">
        <ele>20.1</ele>
        <time>2020-02-22T16:33:04Z</time>
      </trkpt>
      <trkpt lat="38.7119450" lon="1.4283120">
        <ele>20.1</ele>
        <time>2020-02-22T16:33:05Z</time>
      </trkpt>
      <trkpt lat="38.7119450" lon="1.4283120">
        <ele>20.1</ele>
        <time>2020-02-22T16:34:32Z</time>
      </trkpt>
      <trkpt lat="38.7119420" lon="1.4282930">
        <ele>20.1</ele>
        <time>2020-02-22T16:34:33Z</time>
      </trkpt>
      <trkpt lat="38.7119420" lon="1.4282930">
        <ele>20.1</ele>
        <time>2020-02-22T16:34:34Z</time>
      </trkpt>
      <trkpt lat="38.7119680" lon="1.4282750">
        <ele>21.1</ele>
        <time>2020-02-22T16:34:35Z</time>
      </trkpt>
      <trkpt lat="38.7119680" lon="1.4282750">
        <ele>21.1</ele>
        <time>2020-02-22T16:34:36Z</time>
      </trkpt>
      <trkpt lat="38.7120000" lon="1.4282480">
        <ele>21.1</ele>
        <time>2020-02-22T16:34:37Z</time>
      </trkpt>
      <trkpt lat="38.7120000" lon="1.4282480">
        <ele>21.1</ele>
        <time>2020-02-22T16:34:38Z</time>
      </trkpt>
      <trkpt lat="38.7120500" lon="1.4282270">
        <ele>21.1</ele>
        <time>2020-02-22T16:34:39Z</time>
      </trkpt>
      <trkpt lat="38.7120500" lon="1.4282270">
        <ele>21.1</ele>
        <time>2020-02-22T16:34:40Z</time>
      </trkpt>
      <trkpt lat="38.7121200" lon="1.4281900">
        <ele>21.1</ele>
        <time>2020-02-22T16:34:41Z</time>
      </trkpt>
      <trkpt lat="38.7121200" lon="1.4281900">
        <ele>21.1</ele>
        <time>2020-02-22T16:34:42Z</time>
      </trkpt>
      <trkpt lat="38.7122080" lon="1.4281400">
        <ele>21.1</ele>
        <time>2020-02-22T16:34:43Z</time>
      </trkpt>
      <trkpt lat="38.7122080" lon="1.4281400">
        <ele>21.1</ele>
        <time>2020-02-22T16:34:44Z</time>
      </trkpt>
      <trkpt lat="38.7123100" lon="1.4280830">
        <ele>21.1</ele>
        <time>2020-02-22T16:34:45Z</time>
      </trkpt>
      <trkpt lat="38.7123100" lon="1.4280830">
        <ele>21.1</ele>
        <time>2020-02-22T16:34:46Z</time>
      </trkpt>
      <trkpt lat="38.7124250" lon="1.4280130">
        <ele>21.1</ele>
        <time>2020-02-22T16:34:47Z</time>
      </trkpt>
      <trkpt lat="38.7124830" lon="1.4279770">
        <ele>21.1</ele>
        <time>2020-02-22T16:34:48Z</time>
      </trkpt>
      <trkpt lat="38.7124830" lon="1.4279770">
        <ele>21.1</ele>
        <time>2020-02-22T16:34:49Z</time>
      </trkpt>
      <trkpt lat="38.7126050" lon="1.4279000">
        <ele>21.1</ele>
        <time>2020-02-22T16:34:50Z</time>
      </trkpt>
      <trkpt lat="38.7126680" lon="1.4278650">
        <ele>21.1</ele>
        <time>2020-02-22T16:34:51Z</time>
      </trkpt>
      <trkpt lat="38.7126680" lon="1.4278650">
        <ele>20.1</ele>
        <time>2020-02-22T16:34:52Z</time>
      </trkpt>
      <trkpt lat="38.7127970" lon="1.4277830">
        <ele>20.1</ele>
        <time>2020-02-22T16:34:53Z</time>
      </trkpt>
      <trkpt lat="38.7128630" lon="1.4277450">
        <ele>20.1</ele>
        <time>2020-02-22T16:34:54Z</time>
      </trkpt>
      <trkpt lat="38.7128630" lon="1.4277450">
        <ele>20.1</ele>
        <time>2020-02-22T16:34:55Z</time>
      </trkpt>
      <trkpt lat="38.7130020" lon="1.4276630">
        <ele>19.1</ele>
        <time>2020-02-22T16:34:56Z</time>
      </trkpt>
      <trkpt lat="38.7130700" lon="1.4276200">
        <ele>19.1</ele>
        <time>2020-02-22T16:34:57Z</time>
      </trkpt>
      <trkpt lat="38.7130700" lon="1.4276200">
        <ele>19.1</ele>
        <time>2020-02-22T16:34:58Z</time>
      </trkpt>
      <trkpt lat="38.7132130" lon="1.4275380">
        <ele>18.1</ele>
        <time>2020-02-22T16:34:59Z</time>
      </trkpt>
      <trkpt lat="38.7132830" lon="1.4274950">
        <ele>18.1</ele>
        <time>2020-02-22T16:35:00Z</time>
      </trkpt>
      <trkpt lat="38.7132830" lon="1.4274950">
        <ele>18.1</ele>
        <time>2020-02-22T16:35:01Z</time>
      </trkpt>
      <trkpt lat="38.7134270" lon="1.4274070">
        <ele>18.1</ele>
        <time>2020-02-22T16:35:02Z</time>
      </trkpt>
      <trkpt lat="38.7134980" lon="1.4273650">
        <ele>17.1</ele>
        <time>2020-02-22T16:35:03Z</time>
      </trkpt>
      <trkpt lat="38.7134980" lon="1.4273650">
        <ele>17.1</ele>
        <time>2020-02-22T16:35:04Z</time>
      </trkpt>
      <trkpt lat="38.7136450" lon="1.4272830">
        <ele>17.1</ele>
        <time>2020-02-22T16:35:05Z</time>
      </trkpt>
      <trkpt lat="38.7137180" lon="1.4272400">
        <ele>17.1</ele>
        <time>2020-02-22T16:35:06Z</time>
      </trkpt>
      <trkpt lat="38.7137180" lon="1.4272400">
        <ele>16.1</ele>
        <time>2020-02-22T16:35:07Z</time>
      </trkpt>
      <trkpt lat="38.7138650" lon="1.4271500">
        <ele>16.1</ele>
        <time>2020-02-22T16:35:08Z</time>
      </trkpt>
      <trkpt lat="38.7139380" lon="1.4271020">
        <ele>16.1</ele>
        <time>2020-02-22T16:35:09Z</time>
      </trkpt>
      <trkpt lat="38.7139380" lon="1.4271020">
        <ele>16.1</ele>
        <time>2020-02-22T16:35:10Z</time>
      </trkpt>
      <trkpt lat="38.7140880" lon="1.4270180">
        <ele>15.1</ele>
        <time>2020-02-22T16:35:11Z</time>
      </trkpt>
      <trkpt lat="38.7141650" lon="1.4269770">
        <ele>15.1</ele>
        <time>2020-02-22T16:35:12Z</time>
      </trkpt>
      <trkpt lat="38.7142400" lon="1.4269350">
        <ele>15.1</ele>
        <time>2020-02-22T16:35:13Z</time>
      </trkpt>
      <trkpt lat="38.7142400" lon="1.4269350">
        <ele>15.1</ele>
        <time>2020-02-22T16:35:14Z</time>
      </trkpt>
      <trkpt lat="38.7143930" lon="1.4268470">
        <ele>15.1</ele>
        <time>2020-02-22T16:35:15Z</time>
      </trkpt>
      <trkpt lat="38.7143930" lon="1.4268470">
        <ele>15.1</ele>
        <time>2020-02-22T16:35:16Z</time>
      </trkpt>
      <trkpt lat="38.7145530" lon="1.4267650">
        <ele>14.1</ele>
        <time>2020-02-22T16:35:17Z</time>
      </trkpt>
      <trkpt lat="38.7145530" lon="1.4267650">
        <ele>14.1</ele>
        <time>2020-02-22T16:35:18Z</time>
      </trkpt>
      <trkpt lat="38.7147130" lon="1.4266770">
        <ele>14.1</ele>
        <time>2020-02-22T16:35:19Z</time>
      </trkpt>
      <trkpt lat="38.7147130" lon="1.4266770">
        <ele>13.1</ele>
        <time>2020-02-22T16:35:20Z</time>
      </trkpt>
      <trkpt lat="38.7148770" lon="1.4265830">
        <ele>13.1</ele>
        <time>2020-02-22T16:35:21Z</time>
      </trkpt>
      <trkpt lat="38.7148770" lon="1.4265830">
        <ele>13.1</ele>
        <time>2020-02-22T16:35:22Z</time>
      </trkpt>
      <trkpt lat="38.7150420" lon="1.4264870">
        <ele>13.1</ele>
        <time>2020-02-22T16:35:23Z</time>
      </trkpt>
      <trkpt lat="38.7151270" lon="1.4264380">
        <ele>12.1</ele>
        <time>2020-02-22T16:35:24Z</time>
      </trkpt>
      <trkpt lat="38.7152120" lon="1.4263900">
        <ele>12.1</ele>
        <time>2020-02-22T16:35:25Z</time>
      </trkpt>
      <trkpt lat="38.7152120" lon="1.4263900">
        <ele>12.1</ele>
        <time>2020-02-22T16:35:26Z</time>
      </trkpt>
      <trkpt lat="38.7153820" lon="1.4262920">
        <ele>12.1</ele>
        <time>2020-02-22T16:35:27Z</time>
      </trkpt>
      <trkpt lat="38.7153820" lon="1.4262920">
        <ele>11.1</ele>
        <time>2020-02-22T16:35:28Z</time>
      </trkpt>
      <trkpt lat="38.7155570" lon="1.4261900">
        <ele>11.1</ele>
        <time>2020-02-22T16:35:29Z</time>
      </trkpt>
      <trkpt lat="38.7155570" lon="1.4261900">
        <ele>11.1</ele>
        <time>2020-02-22T16:35:30Z</time>
      </trkpt>
      <trkpt lat="38.7157270" lon="1.4260830">
        <ele>11.1</ele>
        <time>2020-02-22T16:35:31Z</time>
      </trkpt>
      <trkpt lat="38.7158130" lon="1.4260350">
        <ele>11.1</ele>
        <time>2020-02-22T16:35:32Z</time>
      </trkpt>
      <trkpt lat="38.7159000" lon="1.4259850">
        <ele>11.1</ele>
        <time>2020-02-22T16:35:33Z</time>
      </trkpt>
      <trkpt lat="38.7159000" lon="1.4259850">
        <ele>9.1</ele>
        <time>2020-02-22T16:35:34Z</time>
      </trkpt>
      <trkpt lat="38.7160750" lon="1.4258800">
        <ele>9.1</ele>
        <time>2020-02-22T16:35:35Z</time>
      </trkpt>
      <trkpt lat="38.7160750" lon="1.4258800">
        <ele>9.1</ele>
        <time>2020-02-22T16:35:36Z</time>
      </trkpt>
      <trkpt lat="38.7162530" lon="1.4257770">
        <ele>8.1</ele>
        <time>2020-02-22T16:35:37Z</time>
      </trkpt>
      <trkpt lat="38.7162530" lon="1.4257770">
        <ele>8.1</ele>
        <time>2020-02-22T16:35:38Z</time>
      </trkpt>
      <trkpt lat="38.7164330" lon="1.4256720">
        <ele>8.1</ele>
        <time>2020-02-22T16:35:39Z</time>
      </trkpt>
      <trkpt lat="38.7164330" lon="1.4256720">
        <ele>8.1</ele>
        <time>2020-02-22T16:35:40Z</time>
      </trkpt>
      <trkpt lat="38.7166150" lon="1.4255720">
        <ele>7.1</ele>
        <time>2020-02-22T16:35:41Z</time>
      </trkpt>
      <trkpt lat="38.7166150" lon="1.4255720">
        <ele>7.1</ele>
        <time>2020-02-22T16:35:42Z</time>
      </trkpt>
      <trkpt lat="38.7167930" lon="1.4254670">
        <ele>8.1</ele>
        <time>2020-02-22T16:35:43Z</time>
      </trkpt>
      <trkpt lat="38.7167930" lon="1.4254670">
        <ele>8.1</ele>
        <time>2020-02-22T16:35:44Z</time>
      </trkpt>
      <trkpt lat="38.7169750" lon="1.4253580">
        <ele>7.1</ele>
        <time>2020-02-22T16:35:45Z</time>
      </trkpt>
      <trkpt lat="38.7169750" lon="1.4253580">
        <ele>7.1</ele>
        <time>2020-02-22T16:35:46Z</time>
      </trkpt>
      <trkpt lat="38.7171530" lon="1.4252570">
        <ele>7.1</ele>
        <time>2020-02-22T16:35:47Z</time>
      </trkpt>
      <trkpt lat="38.7171530" lon="1.4252570">
        <ele>7.1</ele>
        <time>2020-02-22T16:35:48Z</time>
      </trkpt>
      <trkpt lat="38.7173230" lon="1.4251550">
        <ele>6.1</ele>
        <time>2020-02-22T16:35:49Z</time>
      </trkpt>
      <trkpt lat="38.7173230" lon="1.4251550">
        <ele>6.1</ele>
        <time>2020-02-22T16:35:50Z</time>
      </trkpt>
      <trkpt lat="38.7174950" lon="1.4250630">
        <ele>6.1</ele>
        <time>2020-02-22T16:35:51Z</time>
      </trkpt>
      <trkpt lat="38.7174950" lon="1.4250630">
        <ele>6.1</ele>
        <time>2020-02-22T16:35:52Z</time>
      </trkpt>
      <trkpt lat="38.7176620" lon="1.4249670">
        <ele>6.1</ele>
        <time>2020-02-22T16:35:53Z</time>
      </trkpt>
      <trkpt lat="38.7176620" lon="1.4249670">
        <ele>6.1</ele>
        <time>2020-02-22T16:35:54Z</time>
      </trkpt>
      <trkpt lat="38.7178270" lon="1.4248720">
        <ele>6.1</ele>
        <time>2020-02-22T16:35:55Z</time>
      </trkpt>
      <trkpt lat="38.7178270" lon="1.4248720">
        <ele>6.1</ele>
        <time>2020-02-22T16:35:56Z</time>
      </trkpt>
      <trkpt lat="38.7179850" lon="1.4247770">
        <ele>6.1</ele>
        <time>2020-02-22T16:35:57Z</time>
      </trkpt>
      <trkpt lat="38.7179850" lon="1.4247770">
        <ele>5.1</ele>
        <time>2020-02-22T16:35:58Z</time>
      </trkpt>
      <trkpt lat="38.7181430" lon="1.4246870">
        <ele>5.1</ele>
        <time>2020-02-22T16:35:59Z</time>
      </trkpt>
      <trkpt lat="38.7182200" lon="1.4246400">
        <ele>5.1</ele>
        <time>2020-02-22T16:36:00Z</time>
      </trkpt>
      <trkpt lat="38.7182200" lon="1.4246400">
        <ele>5.1</ele>
        <time>2020-02-22T16:36:01Z</time>
      </trkpt>
      <trkpt lat="38.7183700" lon="1.4245530">
        <ele>5.1</ele>
        <time>2020-02-22T16:36:02Z</time>
      </trkpt>
      <trkpt lat="38.7183700" lon="1.4245530">
        <ele>5.1</ele>
        <time>2020-02-22T16:36:03Z</time>
      </trkpt>
      <trkpt lat="38.7185170" lon="1.4244650">
        <ele>5.1</ele>
        <time>2020-02-22T16:36:04Z</time>
      </trkpt>
      <trkpt lat="38.7185170" lon="1.4244650">
        <ele>5.1</ele>
        <time>2020-02-22T16:36:05Z</time>
      </trkpt>
      <trkpt lat="38.7186630" lon="1.4243770">
        <ele>5.1</ele>
        <time>2020-02-22T16:36:06Z</time>
      </trkpt>
      <trkpt lat="38.7187370" lon="1.4243330">
        <ele>5.1</ele>
        <time>2020-02-22T16:36:07Z</time>
      </trkpt>
      <trkpt lat="38.7188100" lon="1.4242920">
        <ele>5.1</ele>
        <time>2020-02-22T16:36:08Z</time>
      </trkpt>
      <trkpt lat="38.7188100" lon="1.4242920">
        <ele>5.1</ele>
        <time>2020-02-22T16:36:09Z</time>
      </trkpt>
      <trkpt lat="38.7189570" lon="1.4242070">
        <ele>5.1</ele>
        <time>2020-02-22T16:36:10Z</time>
      </trkpt>
      <trkpt lat="38.7189570" lon="1.4242070">
        <ele>5.1</ele>
        <time>2020-02-22T16:36:11Z</time>
      </trkpt>
      <trkpt lat="38.7191050" lon="1.4241220">
        <ele>5.1</ele>
        <time>2020-02-22T16:36:12Z</time>
      </trkpt>
      <trkpt lat="38.7191770" lon="1.4240780">
        <ele>5.1</ele>
        <time>2020-02-22T16:36:13Z</time>
      </trkpt>
      <trkpt lat="38.7191770" lon="1.4240780">
        <ele>5.1</ele>
        <time>2020-02-22T16:36:14Z</time>
      </trkpt>
      <trkpt lat="38.7193220" lon="1.4239970">
        <ele>5.1</ele>
        <time>2020-02-22T16:36:15Z</time>
      </trkpt>
      <trkpt lat="38.7193220" lon="1.4239970">
        <ele>5.1</ele>
        <time>2020-02-22T16:36:16Z</time>
      </trkpt>
      <trkpt lat="38.7194670" lon="1.4239120">
        <ele>5.1</ele>
        <time>2020-02-22T16:36:17Z</time>
      </trkpt>
      <trkpt lat="38.7194670" lon="1.4239120">
        <ele>5.1</ele>
        <time>2020-02-22T16:36:18Z</time>
      </trkpt>
      <trkpt lat="38.7196130" lon="1.4238270">
        <ele>5.1</ele>
        <time>2020-02-22T16:36:19Z</time>
      </trkpt>
      <trkpt lat="38.7196130" lon="1.4238270">
        <ele>5.1</ele>
        <time>2020-02-22T16:36:20Z</time>
      </trkpt>
      <trkpt lat="38.7197600" lon="1.4237450">
        <ele>5.1</ele>
        <time>2020-02-22T16:36:21Z</time>
      </trkpt>
      <trkpt lat="38.7197600" lon="1.4237450">
        <ele>5.1</ele>
        <time>2020-02-22T16:36:22Z</time>
      </trkpt>
      <trkpt lat="38.7199030" lon="1.4236600">
        <ele>5.1</ele>
        <time>2020-02-22T16:36:23Z</time>
      </trkpt>
      <trkpt lat="38.7199030" lon="1.4236600">
        <ele>5.1</ele>
        <time>2020-02-22T16:36:24Z</time>
      </trkpt>
      <trkpt lat="38.7200500" lon="1.4235750">
        <ele>5.1</ele>
        <time>2020-02-22T16:36:25Z</time>
      </trkpt>
      <trkpt lat="38.7200500" lon="1.4235750">
        <ele>5.1</ele>
        <time>2020-02-22T16:36:26Z</time>
      </trkpt>
      <trkpt lat="38.7201970" lon="1.4234900">
        <ele>4.1</ele>
        <time>2020-02-22T16:36:27Z</time>
      </trkpt>
      <trkpt lat="38.7201970" lon="1.4234900">
        <ele>4.1</ele>
        <time>2020-02-22T16:36:28Z</time>
      </trkpt>
      <trkpt lat="38.7203420" lon="1.4234080">
        <ele>4.1</ele>
        <time>2020-02-22T16:36:29Z</time>
      </trkpt>
      <trkpt lat="38.7203420" lon="1.4234080">
        <ele>4.1</ele>
        <time>2020-02-22T16:36:30Z</time>
      </trkpt>
      <trkpt lat="38.7204870" lon="1.4233230">
        <ele>4.1</ele>
        <time>2020-02-22T16:36:31Z</time>
      </trkpt>
      <trkpt lat="38.7204870" lon="1.4233230">
        <ele>4.1</ele>
        <time>2020-02-22T16:36:32Z</time>
      </trkpt>
      <trkpt lat="38.7206330" lon="1.4232370">
        <ele>4.1</ele>
        <time>2020-02-22T16:36:33Z</time>
      </trkpt>
      <trkpt lat="38.7207080" lon="1.4231970">
        <ele>4.1</ele>
        <time>2020-02-22T16:36:34Z</time>
      </trkpt>
      <trkpt lat="38.7207080" lon="1.4231970">
        <ele>4.1</ele>
        <time>2020-02-22T16:36:35Z</time>
      </trkpt>
      <trkpt lat="38.7208580" lon="1.4231150">
        <ele>4.1</ele>
        <time>2020-02-22T16:36:36Z</time>
      </trkpt>
      <trkpt lat="38.7209320" lon="1.4230720">
        <ele>4.1</ele>
        <time>2020-02-22T16:36:37Z</time>
      </trkpt>
      <trkpt lat="38.7209320" lon="1.4230720">
        <ele>4.1</ele>
        <time>2020-02-22T16:36:38Z</time>
      </trkpt>
      <trkpt lat="38.7210820" lon="1.4229830">
        <ele>4.1</ele>
        <time>2020-02-22T16:36:39Z</time>
      </trkpt>
      <trkpt lat="38.7210820" lon="1.4229830">
        <ele>4.1</ele>
        <time>2020-02-22T16:36:40Z</time>
      </trkpt>
      <trkpt lat="38.7212300" lon="1.4228950">
        <ele>3.1</ele>
        <time>2020-02-22T16:36:41Z</time>
      </trkpt>
      <trkpt lat="38.7213030" lon="1.4228480">
        <ele>3.1</ele>
        <time>2020-02-22T16:36:42Z</time>
      </trkpt>
      <trkpt lat="38.7213030" lon="1.4228480">
        <ele>3.1</ele>
        <time>2020-02-22T16:36:43Z</time>
      </trkpt>
      <trkpt lat="38.7214520" lon="1.4227600">
        <ele>3.1</ele>
        <time>2020-02-22T16:36:44Z</time>
      </trkpt>
      <trkpt lat="38.7215270" lon="1.4227170">
        <ele>3.1</ele>
        <time>2020-02-22T16:36:45Z</time>
      </trkpt>
      <trkpt lat="38.7215270" lon="1.4227170">
        <ele>3.1</ele>
        <time>2020-02-22T16:36:46Z</time>
      </trkpt>
      <trkpt lat="38.7216730" lon="1.4226300">
        <ele>3.1</ele>
        <time>2020-02-22T16:36:47Z</time>
      </trkpt>
      <trkpt lat="38.7216730" lon="1.4226300">
        <ele>3.1</ele>
        <time>2020-02-22T16:36:48Z</time>
      </trkpt>
      <trkpt lat="38.7218230" lon="1.4225430">
        <ele>3.1</ele>
        <time>2020-02-22T16:36:49Z</time>
      </trkpt>
      <trkpt lat="38.7218230" lon="1.4225430">
        <ele>3.1</ele>
        <time>2020-02-22T16:36:50Z</time>
      </trkpt>
      <trkpt lat="38.7219720" lon="1.4224580">
        <ele>3.1</ele>
        <time>2020-02-22T16:36:51Z</time>
      </trkpt>
      <trkpt lat="38.7220450" lon="1.4224150">
        <ele>3.1</ele>
        <time>2020-02-22T16:36:52Z</time>
      </trkpt>
      <trkpt lat="38.7220450" lon="1.4224150">
        <ele>3.1</ele>
        <time>2020-02-22T16:36:53Z</time>
      </trkpt>
      <trkpt lat="38.7221920" lon="1.4223300">
        <ele>3.1</ele>
        <time>2020-02-22T16:36:54Z</time>
      </trkpt>
      <trkpt lat="38.7222650" lon="1.4222880">
        <ele>3.1</ele>
        <time>2020-02-22T16:36:55Z</time>
      </trkpt>
      <trkpt lat="38.7222650" lon="1.4222880">
        <ele>3.1</ele>
        <time>2020-02-22T16:36:56Z</time>
      </trkpt>
      <trkpt lat="38.7224130" lon="1.4222070">
        <ele>3.1</ele>
        <time>2020-02-22T16:36:57Z</time>
      </trkpt>
      <trkpt lat="38.7224130" lon="1.4222070">
        <ele>3.1</ele>
        <time>2020-02-22T16:36:58Z</time>
      </trkpt>
      <trkpt lat="38.7225570" lon="1.4221230">
        <ele>3.1</ele>
        <time>2020-02-22T16:36:59Z</time>
      </trkpt>
      <trkpt lat="38.7226270" lon="1.4220820">
        <ele>3.1</ele>
        <time>2020-02-22T16:37:00Z</time>
      </trkpt>
      <trkpt lat="38.7226270" lon="1.4220820">
        <ele>3.1</ele>
        <time>2020-02-22T16:37:01Z</time>
      </trkpt>
      <trkpt lat="38.7227650" lon="1.4220020">
        <ele>3.1</ele>
        <time>2020-02-22T16:37:02Z</time>
      </trkpt>
      <trkpt lat="38.7228320" lon="1.4219600">
        <ele>3.1</ele>
        <time>2020-02-22T16:37:03Z</time>
      </trkpt>
      <trkpt lat="38.7228320" lon="1.4219600">
        <ele>3.1</ele>
        <time>2020-02-22T16:37:04Z</time>
      </trkpt>
      <trkpt lat="38.7229650" lon="1.4218770">
        <ele>3.1</ele>
        <time>2020-02-22T16:37:05Z</time>
      </trkpt>
      <trkpt lat="38.7229650" lon="1.4218770">
        <ele>3.1</ele>
        <time>2020-02-22T16:37:06Z</time>
      </trkpt>
      <trkpt lat="38.7230980" lon="1.4217950">
        <ele>3.1</ele>
        <time>2020-02-22T16:37:07Z</time>
      </trkpt>
      <trkpt lat="38.7230980" lon="1.4217950">
        <ele>3.1</ele>
        <time>2020-02-22T16:37:08Z</time>
      </trkpt>
      <trkpt lat="38.7232370" lon="1.4217170">
        <ele>3.1</ele>
        <time>2020-02-22T16:37:09Z</time>
      </trkpt>
      <trkpt lat="38.7232370" lon="1.4217170">
        <ele>3.1</ele>
        <time>2020-02-22T16:37:10Z</time>
      </trkpt>
      <trkpt lat="38.7233770" lon="1.4216400">
        <ele>3.1</ele>
        <time>2020-02-22T16:37:11Z</time>
      </trkpt>
      <trkpt lat="38.7233770" lon="1.4216400">
        <ele>3.1</ele>
        <time>2020-02-22T16:37:12Z</time>
      </trkpt>
      <trkpt lat="38.7235180" lon="1.4215650">
        <ele>3.1</ele>
        <time>2020-02-22T16:37:13Z</time>
      </trkpt>
      <trkpt lat="38.7235920" lon="1.4215270">
        <ele>3.1</ele>
        <time>2020-02-22T16:37:14Z</time>
      </trkpt>
      <trkpt lat="38.7235920" lon="1.4215270">
        <ele>3.1</ele>
        <time>2020-02-22T16:37:15Z</time>
      </trkpt>
      <trkpt lat="38.7237300" lon="1.4214380">
        <ele>3.1</ele>
        <time>2020-02-22T16:37:16Z</time>
      </trkpt>
      <trkpt lat="38.7237980" lon="1.4213950">
        <ele>3.1</ele>
        <time>2020-02-22T16:37:17Z</time>
      </trkpt>
      <trkpt lat="38.7237980" lon="1.4213950">
        <ele>3.1</ele>
        <time>2020-02-22T16:37:18Z</time>
      </trkpt>
      <trkpt lat="38.7239350" lon="1.4213170">
        <ele>3.1</ele>
        <time>2020-02-22T16:37:19Z</time>
      </trkpt>
      <trkpt lat="38.7239350" lon="1.4213170">
        <ele>3.1</ele>
        <time>2020-02-22T16:37:20Z</time>
      </trkpt>
      <trkpt lat="38.7240670" lon="1.4212380">
        <ele>3.1</ele>
        <time>2020-02-22T16:37:21Z</time>
      </trkpt>
      <trkpt lat="38.7240670" lon="1.4212380">
        <ele>3.1</ele>
        <time>2020-02-22T16:37:22Z</time>
      </trkpt>
      <trkpt lat="38.7242020" lon="1.4211580">
        <ele>3.1</ele>
        <time>2020-02-22T16:37:23Z</time>
      </trkpt>
      <trkpt lat="38.7242020" lon="1.4211580">
        <ele>3.1</ele>
        <time>2020-02-22T16:37:24Z</time>
      </trkpt>
      <trkpt lat="38.7243380" lon="1.4210770">
        <ele>3.1</ele>
        <time>2020-02-22T16:37:25Z</time>
      </trkpt>
      <trkpt lat="38.7243380" lon="1.4210770">
        <ele>3.1</ele>
        <time>2020-02-22T16:37:26Z</time>
      </trkpt>
      <trkpt lat="38.7244700" lon="1.4209950">
        <ele>3.1</ele>
        <time>2020-02-22T16:37:27Z</time>
      </trkpt>
      <trkpt lat="38.7244700" lon="1.4209950">
        <ele>3.1</ele>
        <time>2020-02-22T16:37:28Z</time>
      </trkpt>
      <trkpt lat="38.7245980" lon="1.4209150">
        <ele>3.1</ele>
        <time>2020-02-22T16:37:29Z</time>
      </trkpt>
      <trkpt lat="38.7245980" lon="1.4209150">
        <ele>2.1</ele>
        <time>2020-02-22T16:37:30Z</time>
      </trkpt>
      <trkpt lat="38.7247280" lon="1.4208380">
        <ele>2.1</ele>
        <time>2020-02-22T16:37:31Z</time>
      </trkpt>
      <trkpt lat="38.7247280" lon="1.4208380">
        <ele>2.1</ele>
        <time>2020-02-22T16:37:32Z</time>
      </trkpt>
      <trkpt lat="38.7248580" lon="1.4207750">
        <ele>2.1</ele>
        <time>2020-02-22T16:37:33Z</time>
      </trkpt>
      <trkpt lat="38.7248580" lon="1.4207750">
        <ele>2.1</ele>
        <time>2020-02-22T16:37:34Z</time>
      </trkpt>
      <trkpt lat="38.7249880" lon="1.4207070">
        <ele>2.1</ele>
        <time>2020-02-22T16:37:35Z</time>
      </trkpt>
      <trkpt lat="38.7249880" lon="1.4207070">
        <ele>2.1</ele>
        <time>2020-02-22T16:37:36Z</time>
      </trkpt>
      <trkpt lat="38.7251220" lon="1.4206300">
        <ele>2.1</ele>
        <time>2020-02-22T16:37:37Z</time>
      </trkpt>
      <trkpt lat="38.7251220" lon="1.4206300">
        <ele>2.1</ele>
        <time>2020-02-22T16:37:38Z</time>
      </trkpt>
      <trkpt lat="38.7252530" lon="1.4205550">
        <ele>2.1</ele>
        <time>2020-02-22T16:37:39Z</time>
      </trkpt>
      <trkpt lat="38.7252530" lon="1.4205550">
        <ele>2.1</ele>
        <time>2020-02-22T16:37:40Z</time>
      </trkpt>
      <trkpt lat="38.7253870" lon="1.4204780">
        <ele>2.1</ele>
        <time>2020-02-22T16:37:41Z</time>
      </trkpt>
      <trkpt lat="38.7253870" lon="1.4204780">
        <ele>2.1</ele>
        <time>2020-02-22T16:37:42Z</time>
      </trkpt>
      <trkpt lat="38.7255180" lon="1.4204000">
        <ele>2.1</ele>
        <time>2020-02-22T16:37:43Z</time>
      </trkpt>
      <trkpt lat="38.7255180" lon="1.4204000">
        <ele>2.1</ele>
        <time>2020-02-22T16:37:44Z</time>
      </trkpt>
      <trkpt lat="38.7256520" lon="1.4203250">
        <ele>2.1</ele>
        <time>2020-02-22T16:37:45Z</time>
      </trkpt>
      <trkpt lat="38.7256520" lon="1.4203250">
        <ele>2.1</ele>
        <time>2020-02-22T16:37:46Z</time>
      </trkpt>
      <trkpt lat="38.7257820" lon="1.4202470">
        <ele>2.1</ele>
        <time>2020-02-22T16:37:47Z</time>
      </trkpt>
      <trkpt lat="38.7257820" lon="1.4202470">
        <ele>2.1</ele>
        <time>2020-02-22T16:37:48Z</time>
      </trkpt>
      <trkpt lat="38.7259150" lon="1.4201750">
        <ele>2.1</ele>
        <time>2020-02-22T16:37:49Z</time>
      </trkpt>
      <trkpt lat="38.7259150" lon="1.4201750">
        <ele>2.1</ele>
        <time>2020-02-22T16:37:50Z</time>
      </trkpt>
      <trkpt lat="38.7260500" lon="1.4201030">
        <ele>2.1</ele>
        <time>2020-02-22T16:37:51Z</time>
      </trkpt>
      <trkpt lat="38.7260500" lon="1.4201030">
        <ele>2.1</ele>
        <time>2020-02-22T16:37:52Z</time>
      </trkpt>
      <trkpt lat="38.7261830" lon="1.4200200">
        <ele>2.1</ele>
        <time>2020-02-22T16:37:53Z</time>
      </trkpt>
      <trkpt lat="38.7261830" lon="1.4200200">
        <ele>2.1</ele>
        <time>2020-02-22T16:37:54Z</time>
      </trkpt>
      <trkpt lat="38.7263150" lon="1.4199400">
        <ele>2.1</ele>
        <time>2020-02-22T16:37:55Z</time>
      </trkpt>
      <trkpt lat="38.7263150" lon="1.4199400">
        <ele>2.1</ele>
        <time>2020-02-22T16:37:56Z</time>
      </trkpt>
      <trkpt lat="38.7264500" lon="1.4198620">
        <ele>2.1</ele>
        <time>2020-02-22T16:37:57Z</time>
      </trkpt>
      <trkpt lat="38.7264500" lon="1.4198620">
        <ele>2.1</ele>
        <time>2020-02-22T16:37:58Z</time>
      </trkpt>
      <trkpt lat="38.7265830" lon="1.4197880">
        <ele>2.1</ele>
        <time>2020-02-22T16:37:59Z</time>
      </trkpt>
      <trkpt lat="38.7266480" lon="1.4197520">
        <ele>2.1</ele>
        <time>2020-02-22T16:38:00Z</time>
      </trkpt>
      <trkpt lat="38.7267130" lon="1.4197150">
        <ele>2.1</ele>
        <time>2020-02-22T16:38:01Z</time>
      </trkpt>
      <trkpt lat="38.7267130" lon="1.4197150">
        <ele>2.1</ele>
        <time>2020-02-22T16:38:02Z</time>
      </trkpt>
      <trkpt lat="38.7268450" lon="1.4196350">
        <ele>2.1</ele>
        <time>2020-02-22T16:38:03Z</time>
      </trkpt>
      <trkpt lat="38.7268450" lon="1.4196350">
        <ele>2.1</ele>
        <time>2020-02-22T16:38:04Z</time>
      </trkpt>
      <trkpt lat="38.7269750" lon="1.4195530">
        <ele>2.1</ele>
        <time>2020-02-22T16:38:05Z</time>
      </trkpt>
      <trkpt lat="38.7269750" lon="1.4195530">
        <ele>2.1</ele>
        <time>2020-02-22T16:38:06Z</time>
      </trkpt>
      <trkpt lat="38.7271080" lon="1.4194780">
        <ele>2.1</ele>
        <time>2020-02-22T16:38:07Z</time>
      </trkpt>
      <trkpt lat="38.7271080" lon="1.4194780">
        <ele>2.1</ele>
        <time>2020-02-22T16:38:08Z</time>
      </trkpt>
      <trkpt lat="38.7272420" lon="1.4194020">
        <ele>2.1</ele>
        <time>2020-02-22T16:38:09Z</time>
      </trkpt>
      <trkpt lat="38.7272420" lon="1.4194020">
        <ele>2.1</ele>
        <time>2020-02-22T16:38:10Z</time>
      </trkpt>
      <trkpt lat="38.7273700" lon="1.4193270">
        <ele>2.1</ele>
        <time>2020-02-22T16:38:11Z</time>
      </trkpt>
      <trkpt lat="38.7273700" lon="1.4193270">
        <ele>2.1</ele>
        <time>2020-02-22T16:38:12Z</time>
      </trkpt>
      <trkpt lat="38.7274950" lon="1.4192520">
        <ele>2.1</ele>
        <time>2020-02-22T16:38:13Z</time>
      </trkpt>
      <trkpt lat="38.7274950" lon="1.4192520">
        <ele>2.1</ele>
        <time>2020-02-22T16:38:14Z</time>
      </trkpt>
      <trkpt lat="38.7276200" lon="1.4191780">
        <ele>2.1</ele>
        <time>2020-02-22T16:38:15Z</time>
      </trkpt>
      <trkpt lat="38.7276200" lon="1.4191780">
        <ele>2.1</ele>
        <time>2020-02-22T16:38:16Z</time>
      </trkpt>
      <trkpt lat="38.7277450" lon="1.4191000">
        <ele>2.1</ele>
        <time>2020-02-22T16:38:17Z</time>
      </trkpt>
      <trkpt lat="38.7277450" lon="1.4191000">
        <ele>2.1</ele>
        <time>2020-02-22T16:38:18Z</time>
      </trkpt>
      <trkpt lat="38.7278680" lon="1.4190270">
        <ele>2.1</ele>
        <time>2020-02-22T16:38:19Z</time>
      </trkpt>
      <trkpt lat="38.7279280" lon="1.4189900">
        <ele>2.1</ele>
        <time>2020-02-22T16:38:20Z</time>
      </trkpt>
      <trkpt lat="38.7279280" lon="1.4189900">
        <ele>2.1</ele>
        <time>2020-02-22T16:38:21Z</time>
      </trkpt>
      <trkpt lat="38.7280470" lon="1.4189150">
        <ele>2.1</ele>
        <time>2020-02-22T16:38:22Z</time>
      </trkpt>
      <trkpt lat="38.7280470" lon="1.4189150">
        <ele>2.1</ele>
        <time>2020-02-22T16:38:23Z</time>
      </trkpt>
      <trkpt lat="38.7281620" lon="1.4188450">
        <ele>2.1</ele>
        <time>2020-02-22T16:38:24Z</time>
      </trkpt>
      <trkpt lat="38.7282220" lon="1.4188130">
        <ele>2.1</ele>
        <time>2020-02-22T16:38:25Z</time>
      </trkpt>
      <trkpt lat="38.7282220" lon="1.4188130">
        <ele>2.1</ele>
        <time>2020-02-22T16:38:26Z</time>
      </trkpt>
      <trkpt lat="38.7283330" lon="1.4187450">
        <ele>2.1</ele>
        <time>2020-02-22T16:38:27Z</time>
      </trkpt>
      <trkpt lat="38.7283330" lon="1.4187450">
        <ele>2.1</ele>
        <time>2020-02-22T16:38:28Z</time>
      </trkpt>
      <trkpt lat="38.7284450" lon="1.4186830">
        <ele>2.1</ele>
        <time>2020-02-22T16:38:29Z</time>
      </trkpt>
      <trkpt lat="38.7284450" lon="1.4186830">
        <ele>2.1</ele>
        <time>2020-02-22T16:38:30Z</time>
      </trkpt>
      <trkpt lat="38.7285580" lon="1.4186200">
        <ele>2.1</ele>
        <time>2020-02-22T16:38:31Z</time>
      </trkpt>
      <trkpt lat="38.7285580" lon="1.4186200">
        <ele>2.1</ele>
        <time>2020-02-22T16:38:32Z</time>
      </trkpt>
      <trkpt lat="38.7286700" lon="1.4185470">
        <ele>1.1</ele>
        <time>2020-02-22T16:38:33Z</time>
      </trkpt>
      <trkpt lat="38.7286700" lon="1.4185470">
        <ele>1.1</ele>
        <time>2020-02-22T16:38:34Z</time>
      </trkpt>
      <trkpt lat="38.7287780" lon="1.4184820">
        <ele>1.1</ele>
        <time>2020-02-22T16:38:35Z</time>
      </trkpt>
      <trkpt lat="38.7287780" lon="1.4184820">
        <ele>1.1</ele>
        <time>2020-02-22T16:38:36Z</time>
      </trkpt>
      <trkpt lat="38.7288930" lon="1.4184170">
        <ele>1.1</ele>
        <time>2020-02-22T16:38:37Z</time>
      </trkpt>
      <trkpt lat="38.7288930" lon="1.4184170">
        <ele>1.1</ele>
        <time>2020-02-22T16:38:38Z</time>
      </trkpt>
      <trkpt lat="38.7290120" lon="1.4183470">
        <ele>1.1</ele>
        <time>2020-02-22T16:38:39Z</time>
      </trkpt>
      <trkpt lat="38.7290120" lon="1.4183470">
        <ele>1.1</ele>
        <time>2020-02-22T16:38:40Z</time>
      </trkpt>
      <trkpt lat="38.7291370" lon="1.4182750">
        <ele>1.1</ele>
        <time>2020-02-22T16:38:41Z</time>
      </trkpt>
      <trkpt lat="38.7291370" lon="1.4182750">
        <ele>1.1</ele>
        <time>2020-02-22T16:38:42Z</time>
      </trkpt>
      <trkpt lat="38.7292570" lon="1.4182000">
        <ele>1.1</ele>
        <time>2020-02-22T16:38:43Z</time>
      </trkpt>
      <trkpt lat="38.7292570" lon="1.4182000">
        <ele>1.1</ele>
        <time>2020-02-22T16:38:44Z</time>
      </trkpt>
      <trkpt lat="38.7293730" lon="1.4181300">
        <ele>1.1</ele>
        <time>2020-02-22T16:38:45Z</time>
      </trkpt>
      <trkpt lat="38.7293730" lon="1.4181300">
        <ele>1.1</ele>
        <time>2020-02-22T16:38:46Z</time>
      </trkpt>
      <trkpt lat="38.7294900" lon="1.4180550">
        <ele>1.1</ele>
        <time>2020-02-22T16:38:47Z</time>
      </trkpt>
      <trkpt lat="38.7294900" lon="1.4180550">
        <ele>1.1</ele>
        <time>2020-02-22T16:38:48Z</time>
      </trkpt>
      <trkpt lat="38.7296070" lon="1.4179800">
        <ele>1.1</ele>
        <time>2020-02-22T16:38:49Z</time>
      </trkpt>
      <trkpt lat="38.7296070" lon="1.4179800">
        <ele>1.1</ele>
        <time>2020-02-22T16:38:50Z</time>
      </trkpt>
      <trkpt lat="38.7297500" lon="1.4179050">
        <ele>1.1</ele>
        <time>2020-02-22T16:38:51Z</time>
      </trkpt>
      <trkpt lat="38.7297500" lon="1.4179050">
        <ele>1.1</ele>
        <time>2020-02-22T16:38:52Z</time>
      </trkpt>
      <trkpt lat="38.7298830" lon="1.4178330">
        <ele>1.1</ele>
        <time>2020-02-22T16:38:53Z</time>
      </trkpt>
      <trkpt lat="38.7298830" lon="1.4178330">
        <ele>1.1</ele>
        <time>2020-02-22T16:38:54Z</time>
      </trkpt>
      <trkpt lat="38.7300180" lon="1.4177570">
        <ele>1.1</ele>
        <time>2020-02-22T16:38:55Z</time>
      </trkpt>
      <trkpt lat="38.7300180" lon="1.4177570">
        <ele>1.1</ele>
        <time>2020-02-22T16:38:56Z</time>
      </trkpt>
      <trkpt lat="38.7301480" lon="1.4176770">
        <ele>1.1</ele>
        <time>2020-02-22T16:38:57Z</time>
      </trkpt>
      <trkpt lat="38.7301480" lon="1.4176770">
        <ele>1.1</ele>
        <time>2020-02-22T16:38:58Z</time>
      </trkpt>
      <trkpt lat="38.7302780" lon="1.4175980">
        <ele>1.1</ele>
        <time>2020-02-22T16:38:59Z</time>
      </trkpt>
      <trkpt lat="38.7303480" lon="1.4175600">
        <ele>1.1</ele>
        <time>2020-02-22T16:39:00Z</time>
      </trkpt>
      <trkpt lat="38.7303480" lon="1.4175600">
        <ele>1.1</ele>
        <time>2020-02-22T16:39:01Z</time>
      </trkpt>
      <trkpt lat="38.7304820" lon="1.4174770">
        <ele>1.1</ele>
        <time>2020-02-22T16:39:02Z</time>
      </trkpt>
      <trkpt lat="38.7305470" lon="1.4174350">
        <ele>1.1</ele>
        <time>2020-02-22T16:39:03Z</time>
      </trkpt>
      <trkpt lat="38.7305470" lon="1.4174350">
        <ele>1.1</ele>
        <time>2020-02-22T16:39:04Z</time>
      </trkpt>
      <trkpt lat="38.7306750" lon="1.4173580">
        <ele>1.1</ele>
        <time>2020-02-22T16:39:05Z</time>
      </trkpt>
      <trkpt lat="38.7306750" lon="1.4173580">
        <ele>1.1</ele>
        <time>2020-02-22T16:39:06Z</time>
      </trkpt>
      <trkpt lat="38.7308000" lon="1.4172830">
        <ele>1.1</ele>
        <time>2020-02-22T16:39:07Z</time>
      </trkpt>
      <trkpt lat="38.7308000" lon="1.4172830">
        <ele>0.1</ele>
        <time>2020-02-22T16:39:08Z</time>
      </trkpt>
      <trkpt lat="38.7309180" lon="1.4172070">
        <ele>0.1</ele>
        <time>2020-02-22T16:39:09Z</time>
      </trkpt>
      <trkpt lat="38.7309180" lon="1.4172070">
        <ele>0.1</ele>
        <time>2020-02-22T16:39:10Z</time>
      </trkpt>
      <trkpt lat="38.7310420" lon="1.4171420">
        <ele>0.1</ele>
        <time>2020-02-22T16:39:11Z</time>
      </trkpt>
      <trkpt lat="38.7311050" lon="1.4171080">
        <ele>0.1</ele>
        <time>2020-02-22T16:39:12Z</time>
      </trkpt>
      <trkpt lat="38.7311050" lon="1.4171080">
        <ele>0.1</ele>
        <time>2020-02-22T16:39:13Z</time>
      </trkpt>
      <trkpt lat="38.7312350" lon="1.4170300">
        <ele>0.1</ele>
        <time>2020-02-22T16:39:14Z</time>
      </trkpt>
      <trkpt lat="38.7313000" lon="1.4169950">
        <ele>0.1</ele>
        <time>2020-02-22T16:39:15Z</time>
      </trkpt>
      <trkpt lat="38.7313000" lon="1.4169950">
        <ele>0.1</ele>
        <time>2020-02-22T16:39:16Z</time>
      </trkpt>
      <trkpt lat="38.7314250" lon="1.4169180">
        <ele>0.1</ele>
        <time>2020-02-22T16:39:17Z</time>
      </trkpt>
      <trkpt lat="38.7314780" lon="1.4168750">
        <ele>0.1</ele>
        <time>2020-02-22T16:39:18Z</time>
      </trkpt>
      <trkpt lat="38.7315400" lon="1.4168370">
        <ele>0.1</ele>
        <time>2020-02-22T16:39:19Z</time>
      </trkpt>
      <trkpt lat="38.7315400" lon="1.4168370">
        <ele>0.1</ele>
        <time>2020-02-22T16:39:20Z</time>
      </trkpt>
      <trkpt lat="38.7316700" lon="1.4167630">
        <ele>0.1</ele>
        <time>2020-02-22T16:39:21Z</time>
      </trkpt>
      <trkpt lat="38.7316700" lon="1.4167630">
        <ele>0.1</ele>
        <time>2020-02-22T16:39:22Z</time>
      </trkpt>
      <trkpt lat="38.7317930" lon="1.4166850">
        <ele>0.1</ele>
        <time>2020-02-22T16:39:23Z</time>
      </trkpt>
      <trkpt lat="38.7317930" lon="1.4166850">
        <ele>0.1</ele>
        <time>2020-02-22T16:39:24Z</time>
      </trkpt>
      <trkpt lat="38.7319120" lon="1.4166170">
        <ele>0.1</ele>
        <time>2020-02-22T16:39:25Z</time>
      </trkpt>
      <trkpt lat="38.7319120" lon="1.4166170">
        <ele>0.1</ele>
        <time>2020-02-22T16:39:26Z</time>
      </trkpt>
      <trkpt lat="38.7320170" lon="1.4165180">
        <ele>0.1</ele>
        <time>2020-02-22T16:39:27Z</time>
      </trkpt>
      <trkpt lat="38.7320170" lon="1.4165180">
        <ele>0.1</ele>
        <time>2020-02-22T16:39:28Z</time>
      </trkpt>
      <trkpt lat="38.7320900" lon="1.4163820">
        <ele>0.1</ele>
        <time>2020-02-22T16:39:29Z</time>
      </trkpt>
      <trkpt lat="38.7321200" lon="1.4163100">
        <ele>0.1</ele>
        <time>2020-02-22T16:39:30Z</time>
      </trkpt>
      <trkpt lat="38.7321200" lon="1.4163100">
        <ele>0.1</ele>
        <time>2020-02-22T16:39:31Z</time>
      </trkpt>
      <trkpt lat="38.7321730" lon="1.4161600">
        <ele>0.1</ele>
        <time>2020-02-22T16:39:32Z</time>
      </trkpt>
      <trkpt lat="38.7321730" lon="1.4161600">
        <ele>0.1</ele>
        <time>2020-02-22T16:39:33Z</time>
      </trkpt>
      <trkpt lat="38.7322320" lon="1.4160080">
        <ele>0.1</ele>
        <time>2020-02-22T16:39:34Z</time>
      </trkpt>
      <trkpt lat="38.7322320" lon="1.4160080">
        <ele>0.1</ele>
        <time>2020-02-22T16:39:35Z</time>
      </trkpt>
      <trkpt lat="38.7322920" lon="1.4158570">
        <ele>0.1</ele>
        <time>2020-02-22T16:39:36Z</time>
      </trkpt>
      <trkpt lat="38.7323180" lon="1.4157800">
        <ele>0.1</ele>
        <time>2020-02-22T16:39:37Z</time>
      </trkpt>
      <trkpt lat="38.7323180" lon="1.4157800">
        <ele>0.1</ele>
        <time>2020-02-22T16:39:38Z</time>
      </trkpt>
      <trkpt lat="38.7323680" lon="1.4156200">
        <ele>0.1</ele>
        <time>2020-02-22T16:39:39Z</time>
      </trkpt>
      <trkpt lat="38.7323680" lon="1.4156200">
        <ele>0.1</ele>
        <time>2020-02-22T16:39:40Z</time>
      </trkpt>
      <trkpt lat="38.7324170" lon="1.4154620">
        <ele>0.1</ele>
        <time>2020-02-22T16:39:41Z</time>
      </trkpt>
      <trkpt lat="38.7324170" lon="1.4154620">
        <ele>0.1</ele>
        <time>2020-02-22T16:39:42Z</time>
      </trkpt>
      <trkpt lat="38.7324600" lon="1.4153070">
        <ele>0.1</ele>
        <time>2020-02-22T16:39:43Z</time>
      </trkpt>
      <trkpt lat="38.7324850" lon="1.4152300">
        <ele>0.1</ele>
        <time>2020-02-22T16:39:44Z</time>
      </trkpt>
      <trkpt lat="38.7325170" lon="1.4151570">
        <ele>0.1</ele>
        <time>2020-02-22T16:39:45Z</time>
      </trkpt>
      <trkpt lat="38.7325170" lon="1.4151570">
        <ele>0.1</ele>
        <time>2020-02-22T16:39:46Z</time>
      </trkpt>
      <trkpt lat="38.7325830" lon="1.4150170">
        <ele>0.1</ele>
        <time>2020-02-22T16:39:47Z</time>
      </trkpt>
      <trkpt lat="38.7325830" lon="1.4150170">
        <ele>0.1</ele>
        <time>2020-02-22T16:39:48Z</time>
      </trkpt>
      <trkpt lat="38.7326350" lon="1.4148700">
        <ele>0.1</ele>
        <time>2020-02-22T16:39:49Z</time>
      </trkpt>
      <trkpt lat="38.7326350" lon="1.4148700">
        <ele>0.1</ele>
        <time>2020-02-22T16:39:50Z</time>
      </trkpt>
      <trkpt lat="38.7327020" lon="1.4147230">
        <ele>0.1</ele>
        <time>2020-02-22T16:39:51Z</time>
      </trkpt>
      <trkpt lat="38.7327400" lon="1.4146520">
        <ele>0.1</ele>
        <time>2020-02-22T16:39:52Z</time>
      </trkpt>
      <trkpt lat="38.7327400" lon="1.4146520">
        <ele>0.1</ele>
        <time>2020-02-22T16:39:53Z</time>
      </trkpt>
      <trkpt lat="38.7328250" lon="1.4145250">
        <ele>0.1</ele>
        <time>2020-02-22T16:39:54Z</time>
      </trkpt>
      <trkpt lat="38.7328700" lon="1.4144750">
        <ele>0.1</ele>
        <time>2020-02-22T16:39:55Z</time>
      </trkpt>
      <trkpt lat="38.7328700" lon="1.4144750">
        <ele>0.1</ele>
        <time>2020-02-22T16:39:56Z</time>
      </trkpt>
      <trkpt lat="38.7329630" lon="1.4143870">
        <ele>0.1</ele>
        <time>2020-02-22T16:39:57Z</time>
      </trkpt>
      <trkpt lat="38.7329630" lon="1.4143870">
        <ele>0.1</ele>
        <time>2020-02-22T16:39:58Z</time>
      </trkpt>
      <trkpt lat="38.7330700" lon="1.4142970">
        <ele>-0.9</ele>
        <time>2020-02-22T16:39:59Z</time>
      </trkpt>
      <trkpt lat="38.7331220" lon="1.4142520">
        <ele>-0.9</ele>
        <time>2020-02-22T16:40:00Z</time>
      </trkpt>
      <trkpt lat="38.7331220" lon="1.4142520">
        <ele>-0.9</ele>
        <time>2020-02-22T16:40:01Z</time>
      </trkpt>
      <trkpt lat="38.7332120" lon="1.4141830">
        <ele>-0.9</ele>
        <time>2020-02-22T16:40:02Z</time>
      </trkpt>
      <trkpt lat="38.7332650" lon="1.4141680">
        <ele>-0.9</ele>
        <time>2020-02-22T16:40:03Z</time>
      </trkpt>
      <trkpt lat="38.7332650" lon="1.4141680">
        <ele>-0.9</ele>
        <time>2020-02-22T16:40:04Z</time>
      </trkpt>
      <trkpt lat="38.7333850" lon="1.4141620">
        <ele>-0.9</ele>
        <time>2020-02-22T16:40:05Z</time>
      </trkpt>
      <trkpt lat="38.7333850" lon="1.4141620">
        <ele>-0.9</ele>
        <time>2020-02-22T16:40:06Z</time>
      </trkpt>
      <trkpt lat="38.7335050" lon="1.4141820">
        <ele>-0.9</ele>
        <time>2020-02-22T16:40:07Z</time>
      </trkpt>
      <trkpt lat="38.7335050" lon="1.4141820">
        <ele>-0.9</ele>
        <time>2020-02-22T16:40:08Z</time>
      </trkpt>
      <trkpt lat="38.7336120" lon="1.4142470">
        <ele>-0.9</ele>
        <time>2020-02-22T16:40:09Z</time>
      </trkpt>
      <trkpt lat="38.7336120" lon="1.4142470">
        <ele>-0.9</ele>
        <time>2020-02-22T16:40:10Z</time>
      </trkpt>
      <trkpt lat="38.7337170" lon="1.4143230">
        <ele>-0.9</ele>
        <time>2020-02-22T16:40:11Z</time>
      </trkpt>
      <trkpt lat="38.7337170" lon="1.4143230">
        <ele>-0.9</ele>
        <time>2020-02-22T16:40:12Z</time>
      </trkpt>
      <trkpt lat="38.7338200" lon="1.4144020">
        <ele>-0.9</ele>
        <time>2020-02-22T16:40:13Z</time>
      </trkpt>
      <trkpt lat="38.7338200" lon="1.4144020">
        <ele>-0.9</ele>
        <time>2020-02-22T16:40:14Z</time>
      </trkpt>
      <trkpt lat="38.7339230" lon="1.4144700">
        <ele>-0.9</ele>
        <time>2020-02-22T16:40:15Z</time>
      </trkpt>
      <trkpt lat="38.7339230" lon="1.4144700">
        <ele>-0.9</ele>
        <time>2020-02-22T16:40:16Z</time>
      </trkpt>
      <trkpt lat="38.7340280" lon="1.4145350">
        <ele>-0.9</ele>
        <time>2020-02-22T16:40:17Z</time>
      </trkpt>
      <trkpt lat="38.7340280" lon="1.4145350">
        <ele>-0.9</ele>
        <time>2020-02-22T16:40:18Z</time>
      </trkpt>
      <trkpt lat="38.7341320" lon="1.4146020">
        <ele>-0.9</ele>
        <time>2020-02-22T16:40:19Z</time>
      </trkpt>
      <trkpt lat="38.7341320" lon="1.4146020">
        <ele>-0.9</ele>
        <time>2020-02-22T16:40:20Z</time>
      </trkpt>
      <trkpt lat="38.7342350" lon="1.4146680">
        <ele>-0.9</ele>
        <time>2020-02-22T16:40:21Z</time>
      </trkpt>
      <trkpt lat="38.7342350" lon="1.4146680">
        <ele>-0.9</ele>
        <time>2020-02-22T16:40:22Z</time>
      </trkpt>
      <trkpt lat="38.7343350" lon="1.4147350">
        <ele>-0.9</ele>
        <time>2020-02-22T16:40:23Z</time>
      </trkpt>
      <trkpt lat="38.7343350" lon="1.4147350">
        <ele>-0.9</ele>
        <time>2020-02-22T16:40:24Z</time>
      </trkpt>
      <trkpt lat="38.7344300" lon="1.4147970">
        <ele>-0.9</ele>
        <time>2020-02-22T16:40:25Z</time>
      </trkpt>
      <trkpt lat="38.7344300" lon="1.4147970">
        <ele>-0.9</ele>
        <time>2020-02-22T16:40:26Z</time>
      </trkpt>
      <trkpt lat="38.7345170" lon="1.4148580">
        <ele>-0.9</ele>
        <time>2020-02-22T16:40:27Z</time>
      </trkpt>
      <trkpt lat="38.7345170" lon="1.4148580">
        <ele>-0.9</ele>
        <time>2020-02-22T16:40:28Z</time>
      </trkpt>
      <trkpt lat="38.7345950" lon="1.4149280">
        <ele>-0.9</ele>
        <time>2020-02-22T16:40:29Z</time>
      </trkpt>
      <trkpt lat="38.7346230" lon="1.4149750">
        <ele>-0.9</ele>
        <time>2020-02-22T16:40:30Z</time>
      </trkpt>
      <trkpt lat="38.7346380" lon="1.4150280">
        <ele>0.1</ele>
        <time>2020-02-22T16:40:31Z</time>
      </trkpt>
      <trkpt lat="38.7346380" lon="1.4150280">
        <ele>0.1</ele>
        <time>2020-02-22T16:40:32Z</time>
      </trkpt>
      <trkpt lat="38.7346470" lon="1.4151400">
        <ele>0.1</ele>
        <time>2020-02-22T16:40:33Z</time>
      </trkpt>
      <trkpt lat="38.7346470" lon="1.4151400">
        <ele>0.1</ele>
        <time>2020-02-22T16:40:34Z</time>
      </trkpt>
      <trkpt lat="38.7346430" lon="1.4152520">
        <ele>0.1</ele>
        <time>2020-02-22T16:40:35Z</time>
      </trkpt>
      <trkpt lat="38.7346430" lon="1.4152520">
        <ele>0.1</ele>
        <time>2020-02-22T16:40:36Z</time>
      </trkpt>
      <trkpt lat="38.7346450" lon="1.4153580">
        <ele>0.1</ele>
        <time>2020-02-22T16:40:37Z</time>
      </trkpt>
      <trkpt lat="38.7346450" lon="1.4153580">
        <ele>0.1</ele>
        <time>2020-02-22T16:40:38Z</time>
      </trkpt>
      <trkpt lat="38.7346430" lon="1.4154600">
        <ele>0.1</ele>
        <time>2020-02-22T16:40:39Z</time>
      </trkpt>
      <trkpt lat="38.7346430" lon="1.4154600">
        <ele>0.1</ele>
        <time>2020-02-22T16:40:40Z</time>
      </trkpt>
      <trkpt lat="38.7346450" lon="1.4155600">
        <ele>0.1</ele>
        <time>2020-02-22T16:40:41Z</time>
      </trkpt>
      <trkpt lat="38.7346450" lon="1.4155600">
        <ele>0.1</ele>
        <time>2020-02-22T16:40:42Z</time>
      </trkpt>
      <trkpt lat="38.7346480" lon="1.4156620">
        <ele>0.1</ele>
        <time>2020-02-22T16:40:43Z</time>
      </trkpt>
      <trkpt lat="38.7346480" lon="1.4156620">
        <ele>0.1</ele>
        <time>2020-02-22T16:40:44Z</time>
      </trkpt>
      <trkpt lat="38.7346530" lon="1.4157600">
        <ele>0.1</ele>
        <time>2020-02-22T16:40:45Z</time>
      </trkpt>
      <trkpt lat="38.7346530" lon="1.4157600">
        <ele>0.1</ele>
        <time>2020-02-22T16:40:46Z</time>
      </trkpt>
      <trkpt lat="38.7346530" lon="1.4158480">
        <ele>0.1</ele>
        <time>2020-02-22T16:40:47Z</time>
      </trkpt>
      <trkpt lat="38.7346530" lon="1.4158480">
        <ele>0.1</ele>
        <time>2020-02-22T16:40:48Z</time>
      </trkpt>
      <trkpt lat="38.7346450" lon="1.4159050">
        <ele>0.1</ele>
        <time>2020-02-22T16:40:49Z</time>
      </trkpt>
      <trkpt lat="38.7346450" lon="1.4159050">
        <ele>0.1</ele>
        <time>2020-02-22T16:40:50Z</time>
      </trkpt>
      <trkpt lat="38.7346370" lon="1.4159550">
        <ele>0.1</ele>
        <time>2020-02-22T16:40:51Z</time>
      </trkpt>
      <trkpt lat="38.7346300" lon="1.4159770">
        <ele>0.1</ele>
        <time>2020-02-22T16:40:52Z</time>
      </trkpt>
      <trkpt lat="38.7346300" lon="1.4159770">
        <ele>0.1</ele>
        <time>2020-02-22T16:40:53Z</time>
      </trkpt>
      <trkpt lat="38.7346250" lon="1.4160030">
        <ele>0.1</ele>
        <time>2020-02-22T16:40:54Z</time>
      </trkpt>
      <trkpt lat="38.7346170" lon="1.4160100">
        <ele>0.1</ele>
        <time>2020-02-22T16:40:55Z</time>
      </trkpt>
      <trkpt lat="38.7346170" lon="1.4160100">
        <ele>0.1</ele>
        <time>2020-02-22T16:40:56Z</time>
      </trkpt>
      <trkpt lat="38.7345870" lon="1.4160120">
        <ele>0.1</ele>
        <time>2020-02-22T16:40:57Z</time>
      </trkpt>
      <trkpt lat="38.7345870" lon="1.4160120">
        <ele>0.1</ele>
        <time>2020-02-22T16:40:58Z</time>
      </trkpt>
      <trkpt lat="38.7345550" lon="1.4160230">
        <ele>0.1</ele>
        <time>2020-02-22T16:40:59Z</time>
      </trkpt>
      <trkpt lat="38.7345400" lon="1.4160370">
        <ele>0.1</ele>
        <time>2020-02-22T16:41:00Z</time>
      </trkpt>
      <trkpt lat="38.7345280" lon="1.4160550">
        <ele>0.1</ele>
        <time>2020-02-22T16:41:01Z</time>
      </trkpt>
      <trkpt lat="38.7345280" lon="1.4160550">
        <ele>0.1</ele>
        <time>2020-02-22T16:41:02Z</time>
      </trkpt>
      <trkpt lat="38.7345120" lon="1.4160950">
        <ele>0.1</ele>
        <time>2020-02-22T16:41:03Z</time>
      </trkpt>
      <trkpt lat="38.7345120" lon="1.4160950">
        <ele>0.1</ele>
        <time>2020-02-22T16:41:04Z</time>
      </trkpt>
      <trkpt lat="38.7345050" lon="1.4161250">
        <ele>0.1</ele>
        <time>2020-02-22T16:41:05Z</time>
      </trkpt>
      <trkpt lat="38.7345070" lon="1.4161420">
        <ele>0.1</ele>
        <time>2020-02-22T16:41:06Z</time>
      </trkpt>
      <trkpt lat="38.7345070" lon="1.4161420">
        <ele>0.1</ele>
        <time>2020-02-22T16:41:07Z</time>
      </trkpt>
      <trkpt lat="38.7344930" lon="1.4161580">
        <ele>0.1</ele>
        <time>2020-02-22T16:41:08Z</time>
      </trkpt>
      <trkpt lat="38.7344830" lon="1.4161620">
        <ele>0.1</ele>
        <time>2020-02-22T16:41:09Z</time>
      </trkpt>
      <trkpt lat="38.7344830" lon="1.4161620">
        <ele>0.1</ele>
        <time>2020-02-22T16:41:10Z</time>
      </trkpt>
      <trkpt lat="38.7344750" lon="1.4161720">
        <ele>0.1</ele>
        <time>2020-02-22T16:52:05Z</time>
      </trkpt>
      <trkpt lat="38.7344700" lon="1.4161300">
        <ele>0.1</ele>
        <time>2020-02-22T16:52:06Z</time>
      </trkpt>
      <trkpt lat="38.7344700" lon="1.4161300">
        <ele>0.1</ele>
        <time>2020-02-22T16:52:07Z</time>
      </trkpt>
      <trkpt lat="38.7345000" lon="1.4160830">
        <ele>0.1</ele>
        <time>2020-02-22T16:52:08Z</time>
      </trkpt>
      <trkpt lat="38.7344970" lon="1.4160730">
        <ele>0.1</ele>
        <time>2020-02-22T16:52:09Z</time>
      </trkpt>
      <trkpt lat="38.7344970" lon="1.4160730">
        <ele>0.1</ele>
        <time>2020-02-22T16:52:10Z</time>
      </trkpt>
      <trkpt lat="38.7345150" lon="1.4160430">
        <ele>0.1</ele>
        <time>2020-02-22T16:52:11Z</time>
      </trkpt>
      <trkpt lat="38.7345300" lon="1.4160320">
        <ele>0.1</ele>
        <time>2020-02-22T16:52:12Z</time>
      </trkpt>
      <trkpt lat="38.7345470" lon="1.4160280">
        <ele>0.1</ele>
        <time>2020-02-22T16:52:13Z</time>
      </trkpt>
      <trkpt lat="38.7345470" lon="1.4160280">
        <ele>0.1</ele>
        <time>2020-02-22T16:52:14Z</time>
      </trkpt>
      <trkpt lat="38.7345800" lon="1.4160230">
        <ele>0.1</ele>
        <time>2020-02-22T16:52:15Z</time>
      </trkpt>
      <trkpt lat="38.7345800" lon="1.4160230">
        <ele>0.1</ele>
        <time>2020-02-22T16:52:16Z</time>
      </trkpt>
      <trkpt lat="38.7346070" lon="1.4160570">
        <ele>0.1</ele>
        <time>2020-02-22T16:52:17Z</time>
      </trkpt>
      <trkpt lat="38.7346220" lon="1.4160830">
        <ele>0.1</ele>
        <time>2020-02-22T16:52:18Z</time>
      </trkpt>
      <trkpt lat="38.7346220" lon="1.4160830">
        <ele>0.1</ele>
        <time>2020-02-22T16:52:19Z</time>
      </trkpt>
      <trkpt lat="38.7346320" lon="1.4161550">
        <ele>0.1</ele>
        <time>2020-02-22T16:52:20Z</time>
      </trkpt>
      <trkpt lat="38.7346330" lon="1.4161920">
        <ele>0.1</ele>
        <time>2020-02-22T16:52:21Z</time>
      </trkpt>
      <trkpt lat="38.7346330" lon="1.4161920">
        <ele>0.1</ele>
        <time>2020-02-22T16:52:22Z</time>
      </trkpt>
      <trkpt lat="38.7346280" lon="1.4162650">
        <ele>0.1</ele>
        <time>2020-02-22T16:52:23Z</time>
      </trkpt>
      <trkpt lat="38.7346280" lon="1.4162650">
        <ele>0.1</ele>
        <time>2020-02-22T16:52:24Z</time>
      </trkpt>
      <trkpt lat="38.7346300" lon="1.4163420">
        <ele>0.1</ele>
        <time>2020-02-22T16:52:25Z</time>
      </trkpt>
      <trkpt lat="38.7346300" lon="1.4163420">
        <ele>0.1</ele>
        <time>2020-02-22T16:52:26Z</time>
      </trkpt>
      <trkpt lat="38.7346230" lon="1.4164170">
        <ele>0.1</ele>
        <time>2020-02-22T16:52:27Z</time>
      </trkpt>
      <trkpt lat="38.7346200" lon="1.4164550">
        <ele>0.1</ele>
        <time>2020-02-22T16:52:28Z</time>
      </trkpt>
      <trkpt lat="38.7346200" lon="1.4164550">
        <ele>0.1</ele>
        <time>2020-02-22T16:52:29Z</time>
      </trkpt>
      <trkpt lat="38.7346180" lon="1.4165300">
        <ele>0.1</ele>
        <time>2020-02-22T16:52:30Z</time>
      </trkpt>
      <trkpt lat="38.7346180" lon="1.4165300">
        <ele>0.1</ele>
        <time>2020-02-22T16:52:31Z</time>
      </trkpt>
      <trkpt lat="38.7346130" lon="1.4166020">
        <ele>0.1</ele>
        <time>2020-02-22T16:52:32Z</time>
      </trkpt>
      <trkpt lat="38.7346130" lon="1.4166020">
        <ele>0.1</ele>
        <time>2020-02-22T16:52:33Z</time>
      </trkpt>
      <trkpt lat="38.7345980" lon="1.4166670">
        <ele>0.1</ele>
        <time>2020-02-22T16:52:34Z</time>
      </trkpt>
      <trkpt lat="38.7345980" lon="1.4166670">
        <ele>0.1</ele>
        <time>2020-02-22T16:52:35Z</time>
      </trkpt>
      <trkpt lat="38.7345780" lon="1.4167320">
        <ele>0.1</ele>
        <time>2020-02-22T16:52:36Z</time>
      </trkpt>
      <trkpt lat="38.7345780" lon="1.4167320">
        <ele>0.1</ele>
        <time>2020-02-22T16:52:37Z</time>
      </trkpt>
      <trkpt lat="38.7345580" lon="1.4167970">
        <ele>0.1</ele>
        <time>2020-02-22T16:52:38Z</time>
      </trkpt>
      <trkpt lat="38.7345500" lon="1.4168270">
        <ele>0.1</ele>
        <time>2020-02-22T16:52:39Z</time>
      </trkpt>
      <trkpt lat="38.7345500" lon="1.4168270">
        <ele>0.1</ele>
        <time>2020-02-22T16:52:40Z</time>
      </trkpt>
      <trkpt lat="38.7345380" lon="1.4168930">
        <ele>0.1</ele>
        <time>2020-02-22T16:52:41Z</time>
      </trkpt>
      <trkpt lat="38.7345380" lon="1.4168930">
        <ele>0.1</ele>
        <time>2020-02-22T16:52:42Z</time>
      </trkpt>
      <trkpt lat="38.7345420" lon="1.4169580">
        <ele>0.1</ele>
        <time>2020-02-22T16:52:43Z</time>
      </trkpt>
      <trkpt lat="38.7345500" lon="1.4169850">
        <ele>0.1</ele>
        <time>2020-02-22T16:52:44Z</time>
      </trkpt>
      <trkpt lat="38.7345500" lon="1.4169850">
        <ele>0.1</ele>
        <time>2020-02-22T16:52:45Z</time>
      </trkpt>
      <trkpt lat="38.7345650" lon="1.4170120">
        <ele>0.1</ele>
        <time>2020-02-22T16:52:46Z</time>
      </trkpt>
      <trkpt lat="38.7345650" lon="1.4170170">
        <ele>0.1</ele>
        <time>2020-02-22T16:52:47Z</time>
      </trkpt>
      <trkpt lat="38.7345650" lon="1.4170170">
        <ele>0.1</ele>
        <time>2020-02-22T16:52:48Z</time>
      </trkpt>
      <trkpt lat="38.7345980" lon="1.4170700">
        <ele>0.1</ele>
        <time>2020-02-22T16:54:06Z</time>
      </trkpt>
      <trkpt lat="38.7345980" lon="1.4170700">
        <ele>0.1</ele>
        <time>2020-02-22T16:54:07Z</time>
      </trkpt>
      <trkpt lat="38.7345970" lon="1.4170950">
        <ele>0.1</ele>
        <time>2020-02-22T16:54:08Z</time>
      </trkpt>
      <trkpt lat="38.7345920" lon="1.4171170">
        <ele>0.1</ele>
        <time>2020-02-22T16:54:09Z</time>
      </trkpt>
      <trkpt lat="38.7345920" lon="1.4171170">
        <ele>0.1</ele>
        <time>2020-02-22T16:54:10Z</time>
      </trkpt>
      <trkpt lat="38.7345900" lon="1.4171530">
        <ele>0.1</ele>
        <time>2020-02-22T16:54:11Z</time>
      </trkpt>
      <trkpt lat="38.7345880" lon="1.4171720">
        <ele>-0.9</ele>
        <time>2020-02-22T16:54:12Z</time>
      </trkpt>
      <trkpt lat="38.7345880" lon="1.4171720">
        <ele>-0.9</ele>
        <time>2020-02-22T16:54:13Z</time>
      </trkpt>
    </trkseg>
  </trk>
</gpx>
